<?xml version='1.0' encoding='UTF-8'?><gpx version="1.1" creator="JPX - https://github.com/jenetics/jpx" xmlns="http://www.topografix.com/GPX/1/1"><trk><trkseg><trkpt lat="37.730633012916705" lon="14.784807619975975"><ele>405.0</ele><time>2026-04-06T07:34:13.999Z</time></trkpt><trkpt lat="37.73056464036227" lon="14.784699893676352"><ele>405.0</ele><time>2026-04-06T07:34:14.999Z</time></trkpt><trkpt lat="37.73048464082904" lon="14.784573199775732"><ele>405.0</ele><time>2026-04-06T07:34:15.999Z</time></trkpt><trkpt lat="37.730407122459205" lon="14.784453027004082"><ele>405.0</ele><time>2026-04-06T07:34:16.999Z</time></trkpt><trkpt lat="37.7303095137425" lon="14.784308468911096"><ele>403.0</ele><time>2026-04-06T07:34:17.999Z</time></trkpt><trkpt lat="37.73021700393563" lon="14.784152828920648"><ele>401.0</ele><time>2026-04-06T07:34:18.999Z</time></trkpt><trkpt lat="37.73011675160542" lon="14.783998900086175"><ele>399.0</ele><time>2026-04-06T07:34:19.999Z</time></trkpt><trkpt lat="37.7300167092509" lon="14.783846657161817"><ele>399.0</ele><time>2026-04-06T07:34:20.999Z</time></trkpt><trkpt lat="37.729921043721575" lon="14.783697592097168"><ele>399.0</ele><time>2026-04-06T07:34:21.999Z</time></trkpt><trkpt lat="37.729822209202105" lon="14.783540997981554"><ele>399.0</ele><time>2026-04-06T07:34:22.999Z</time></trkpt><trkpt lat="37.72972787982558" lon="14.783380919343907"><ele>399.33333333333337</ele><time>2026-04-06T07:34:23.999Z</time></trkpt><trkpt lat="37.729627350378784" lon="14.783222295877856"><ele>399.6666666666667</ele><time>2026-04-06T07:34:24.999Z</time></trkpt><trkpt lat="37.729518323389215" lon="14.783024635255597"><ele>400.0</ele><time>2026-04-06T07:34:25.999Z</time></trkpt><trkpt lat="37.729408731240234" lon="14.782836526929627"><ele>400.0</ele><time>2026-04-06T07:34:26.999Z</time></trkpt><trkpt lat="37.72929685548988" lon="14.782645338532443"><ele>400.0</ele><time>2026-04-06T07:34:27.999Z</time></trkpt><trkpt lat="37.72919356467515" lon="14.782487034024221"><ele>400.0</ele><time>2026-04-06T07:34:28.999Z</time></trkpt><trkpt lat="37.72909552063496" lon="14.782326879080491"><ele>400.0</ele><time>2026-04-06T07:34:29.999Z</time></trkpt><trkpt lat="37.72900034907593" lon="14.78217772709399"><ele>400.0</ele><time>2026-04-06T07:34:30.999Z</time></trkpt><trkpt lat="37.72891528125411" lon="14.782049500630713"><ele>400.0</ele><time>2026-04-06T07:34:31.999Z</time></trkpt><trkpt lat="37.728840539746614" lon="14.781922939678314"><ele>400.0</ele><time>2026-04-06T07:34:32.999Z</time></trkpt><trkpt lat="37.7287768613914" lon="14.781818061164461"><ele>401.00000000000006</ele><time>2026-04-06T07:34:33.999Z</time></trkpt><trkpt lat="37.72872034585982" lon="14.78174387279724"><ele>402.0</ele><time>2026-04-06T07:34:34.999Z</time></trkpt><trkpt lat="37.72866187330979" lon="14.781695268337387"><ele>403.0</ele><time>2026-04-06T07:34:35.999Z</time></trkpt><trkpt lat="37.72860556111636" lon="14.781649684203064"><ele>404.0</ele><time>2026-04-06T07:34:36.999Z</time></trkpt><trkpt lat="37.72855335604533" lon="14.7815900017409"><ele>405.00000000000006</ele><time>2026-04-06T07:34:37.999Z</time></trkpt><trkpt lat="37.72851828379503" lon="14.781495604135479"><ele>406.0</ele><time>2026-04-06T07:34:38.999Z</time></trkpt><trkpt lat="37.72849613729007" lon="14.781368262107216"><ele>406.0</ele><time>2026-04-06T07:34:39.999Z</time></trkpt><trkpt lat="37.728468030519714" lon="14.781225398211571"><ele>406.0</ele><time>2026-04-06T07:34:40.999Z</time></trkpt><trkpt lat="37.72846837703535" lon="14.781103427404126"><ele>406.0</ele><time>2026-04-06T07:34:41.999Z</time></trkpt><trkpt lat="37.72842514699937" lon="14.78100534931266"><ele>406.0</ele><time>2026-04-06T07:34:42.999Z</time></trkpt><trkpt lat="37.728376841610846" lon="14.780914074076977"><ele>406.0</ele><time>2026-04-06T07:34:43.999Z</time></trkpt><trkpt lat="37.728321578492164" lon="14.780812569542654"><ele>407.20000000000005</ele><time>2026-04-06T07:34:44.999Z</time></trkpt><trkpt lat="37.728280932145175" lon="14.780695340002676"><ele>408.40000000000003</ele><time>2026-04-06T07:34:45.999Z</time></trkpt><trkpt lat="37.728239318505175" lon="14.780567238368333"><ele>409.6</ele><time>2026-04-06T07:34:46.999Z</time></trkpt><trkpt lat="37.728200305984764" lon="14.780455799935563"><ele>410.8</ele><time>2026-04-06T07:34:47.999Z</time></trkpt><trkpt lat="37.72817332158574" lon="14.780359538496393"><ele>412.0</ele><time>2026-04-06T07:34:48.999Z</time></trkpt><trkpt lat="37.728139093434706" lon="14.780252668626215"><ele>413.1666666666667</ele><time>2026-04-06T07:34:49.999Z</time></trkpt><trkpt lat="37.728091499929725" lon="14.780159689162335"><ele>414.33333333333337</ele><time>2026-04-06T07:34:50.999Z</time></trkpt><trkpt lat="37.72803576480486" lon="14.780096050431805"><ele>415.5</ele><time>2026-04-06T07:34:51.999Z</time></trkpt><trkpt lat="37.727977530299405" lon="14.780028331108301"><ele>416.66666666666663</ele><time>2026-04-06T07:34:52.999Z</time></trkpt><trkpt lat="37.72793047982558" lon="14.779943098368065"><ele>417.8333333333333</ele><time>2026-04-06T07:34:53.999Z</time></trkpt><trkpt lat="37.72790899776583" lon="14.77985902735507"><ele>419.0</ele><time>2026-04-06T07:34:54.999Z</time></trkpt><trkpt lat="37.727898536615804" lon="14.779763787827537"><ele>418.99999999999994</ele><time>2026-04-06T07:34:55.999Z</time></trkpt><trkpt lat="37.72786549808249" lon="14.779656597932739"><ele>419.0</ele><time>2026-04-06T07:34:56.999Z</time></trkpt><trkpt lat="37.72782061157725" lon="14.779559825684583"><ele>419.0</ele><time>2026-04-06T07:34:57.999Z</time></trkpt><trkpt lat="37.72778019572163" lon="14.779465897870137"><ele>419.0</ele><time>2026-04-06T07:34:58.999Z</time></trkpt><trkpt lat="37.72774672222571" lon="14.779370586651252"><ele>418.99999999999994</ele><time>2026-04-06T07:34:59.999Z</time></trkpt><trkpt lat="37.727716318447996" lon="14.779258259662843"><ele>419.0</ele><time>2026-04-06T07:35:00.999Z</time></trkpt><trkpt lat="37.72768157067881" lon="14.779132083880627"><ele>423.3333333333333</ele><time>2026-04-06T07:35:01.999Z</time></trkpt><trkpt lat="37.72764702843631" lon="14.779044796370199"><ele>427.66666666666663</ele><time>2026-04-06T07:35:02.999Z</time></trkpt><trkpt lat="37.72759641731407" lon="14.778945935920527"><ele>432.0</ele><time>2026-04-06T07:35:03.999Z</time></trkpt><trkpt lat="37.72755019078907" lon="14.778866008847197"><ele>436.33333333333337</ele><time>2026-04-06T07:35:04.999Z</time></trkpt><trkpt lat="37.72755148737929" lon="14.778775840237024"><ele>440.6666666666667</ele><time>2026-04-06T07:35:05.999Z</time></trkpt><trkpt lat="37.727535709169274" lon="14.778676695498772"><ele>445.0</ele><time>2026-04-06T07:35:06.999Z</time></trkpt><trkpt lat="37.72755359948889" lon="14.778555176832379"><ele>445.8</ele><time>2026-04-06T07:35:07.999Z</time></trkpt><trkpt lat="37.727582307660406" lon="14.778425835068537"><ele>446.6</ele><time>2026-04-06T07:35:08.999Z</time></trkpt><trkpt lat="37.72759743034158" lon="14.778291364585094"><ele>447.4</ele><time>2026-04-06T07:35:09.999Z</time></trkpt><trkpt lat="37.727589067860976" lon="14.7781695897101"><ele>448.2</ele><time>2026-04-06T07:35:10.999Z</time></trkpt><trkpt lat="37.727604832826025" lon="14.778082137414799"><ele>449.0</ele><time>2026-04-06T07:35:11.999Z</time></trkpt><trkpt lat="37.72761289012048" lon="14.777988260869122"><ele>449.0</ele><time>2026-04-06T07:35:12.999Z</time></trkpt><trkpt lat="37.7276200389628" lon="14.777886796013812"><ele>449.0</ele><time>2026-04-06T07:35:13.999Z</time></trkpt><trkpt lat="37.727607404027" lon="14.777761657862868"><ele>449.0</ele><time>2026-04-06T07:35:14.999Z</time></trkpt><trkpt lat="37.72761027406888" lon="14.77764159247317"><ele>449.0</ele><time>2026-04-06T07:35:15.999Z</time></trkpt><trkpt lat="37.727599168807934" lon="14.777514689571396"><ele>449.0</ele><time>2026-04-06T07:35:16.999Z</time></trkpt><trkpt lat="37.72756418631858" lon="14.777398140911894"><ele>449.66666666666663</ele><time>2026-04-06T07:35:17.999Z</time></trkpt><trkpt lat="37.727502340354675" lon="14.777310942999094"><ele>450.3333333333333</ele><time>2026-04-06T07:35:18.999Z</time></trkpt><trkpt lat="37.72742303237437" lon="14.777264112261928"><ele>451.0</ele><time>2026-04-06T07:35:19.999Z</time></trkpt><trkpt lat="37.72735865556702" lon="14.777209567802094"><ele>451.66666666666663</ele><time>2026-04-06T07:35:20.999Z</time></trkpt><trkpt lat="37.727311716970284" lon="14.77713695786444"><ele>452.3333333333333</ele><time>2026-04-06T07:35:21.999Z</time></trkpt><trkpt lat="37.727268193826774" lon="14.777043743995458"><ele>453.0</ele><time>2026-04-06T07:35:22.999Z</time></trkpt><trkpt lat="37.72726221654814" lon="14.776958220597196"><ele>453.0</ele><time>2026-04-06T07:35:23.999Z</time></trkpt><trkpt lat="37.7273054667703" lon="14.77687286850611"><ele>453.0</ele><time>2026-04-06T07:35:24.999Z</time></trkpt><trkpt lat="37.727276699596885" lon="14.776755853386085"><ele>453.0</ele><time>2026-04-06T07:35:26.999Z</time></trkpt><trkpt lat="37.727256967003704" lon="14.776663745728243"><ele>453.0</ele><time>2026-04-06T07:35:29.999Z</time></trkpt><trkpt lat="37.72723743049551" lon="14.776561170345072"><ele>453.0</ele><time>2026-04-06T07:35:32.999Z</time></trkpt><trkpt lat="37.72721699505839" lon="14.776453273305249"><ele>453.0</ele><time>2026-04-06T07:35:34.999Z</time></trkpt><trkpt lat="37.727179532720314" lon="14.776347233563722"><ele>453.0</ele><time>2026-04-06T07:35:36.999Z</time></trkpt><trkpt lat="37.72713279572277" lon="14.776268157795515"><ele>453.0</ele><time>2026-04-06T07:35:38.999Z</time></trkpt><trkpt lat="37.72707923747549" lon="14.776184556886461"><ele>453.0</ele><time>2026-04-06T07:35:40.998Z</time></trkpt><trkpt lat="37.72704690723131" lon="14.776108059681777"><ele>453.0</ele><time>2026-04-06T07:35:41.999Z</time></trkpt><trkpt lat="37.727006611344876" lon="14.776018836328818"><ele>453.0</ele><time>2026-04-06T07:35:42.999Z</time></trkpt><trkpt lat="37.726966980522356" lon="14.775929835263126"><ele>453.0</ele><time>2026-04-06T07:35:43.999Z</time></trkpt><trkpt lat="37.72693090426509" lon="14.775850037668627"><ele>452.59999999999997</ele><time>2026-04-06T07:35:44.999Z</time></trkpt><trkpt lat="37.726902983271316" lon="14.775763738557211"><ele>452.19999999999993</ele><time>2026-04-06T07:35:45.999Z</time></trkpt><trkpt lat="37.72687216107877" lon="14.775650556532717"><ele>451.8</ele><time>2026-04-06T07:35:46.999Z</time></trkpt><trkpt lat="37.7268461695903" lon="14.775540049997138"><ele>451.4</ele><time>2026-04-06T07:35:47.999Z</time></trkpt><trkpt lat="37.72680017652974" lon="14.775469947411159"><ele>451.0</ele><time>2026-04-06T07:35:48.999Z</time></trkpt><trkpt lat="37.72667990013729" lon="14.775464186734812"><ele>453.4</ele><time>2026-04-06T07:35:50.999Z</time></trkpt><trkpt lat="37.72660703449037" lon="14.775484640535828"><ele>455.8</ele><time>2026-04-06T07:35:51.999Z</time></trkpt><trkpt lat="37.726513323138725" lon="14.775483490308472"><ele>458.19999999999993</ele><time>2026-04-06T07:35:52.999Z</time></trkpt><trkpt lat="37.72643808795548" lon="14.77538810521346"><ele>460.59999999999997</ele><time>2026-04-06T07:35:54.999Z</time></trkpt><trkpt lat="37.72643785248015" lon="14.775268548191796"><ele>463.0</ele><time>2026-04-06T07:35:56.999Z</time></trkpt><trkpt lat="37.726399288377785" lon="14.775111364271408"><ele>463.59999999999997</ele><time>2026-04-06T07:35:58.999Z</time></trkpt><trkpt lat="37.7263432149511" lon="14.775001733242673"><ele>464.19999999999993</ele><time>2026-04-06T07:36:00.999Z</time></trkpt><trkpt lat="37.726295410701304" lon="14.774902443767118"><ele>464.8</ele><time>2026-04-06T07:36:01.999Z</time></trkpt><trkpt lat="37.726242546901354" lon="14.774804091157323"><ele>465.4</ele><time>2026-04-06T07:36:02.999Z</time></trkpt><trkpt lat="37.72618836843306" lon="14.774712991870388"><ele>466.0</ele><time>2026-04-06T07:36:03.999Z</time></trkpt><trkpt lat="37.72613833407377" lon="14.774621055549007"><ele>466.0</ele><time>2026-04-06T07:36:04.999Z</time></trkpt><trkpt lat="37.7260888531385" lon="14.774539934362442"><ele>466.0</ele><time>2026-04-06T07:36:05.999Z</time></trkpt><trkpt lat="37.72602321468469" lon="14.774483132924315"><ele>466.0</ele><time>2026-04-06T07:36:06.999Z</time></trkpt><trkpt lat="37.72596170943023" lon="14.774437741856406"><ele>466.0</ele><time>2026-04-06T07:36:07.999Z</time></trkpt><trkpt lat="37.72584919687012" lon="14.774374263638318"><ele>466.0</ele><time>2026-04-06T07:36:09.999Z</time></trkpt><trkpt lat="37.7257271954466" lon="14.7743572068368"><ele>468.8</ele><time>2026-04-06T07:36:11.999Z</time></trkpt><trkpt lat="37.72562380565284" lon="14.774304758073688"><ele>471.6</ele><time>2026-04-06T07:36:13.999Z</time></trkpt><trkpt lat="37.72562421259602" lon="14.774199671037707"><ele>474.4</ele><time>2026-04-06T07:36:15.999Z</time></trkpt><trkpt lat="37.72557761752111" lon="14.774051102877326"><ele>477.2</ele><time>2026-04-06T07:36:17.999Z</time></trkpt><trkpt lat="37.72554260638882" lon="14.773963840075266"><ele>480.0</ele><time>2026-04-06T07:36:18.999Z</time></trkpt><trkpt lat="37.725523598245665" lon="14.773845554199866"><ele>480.0</ele><time>2026-04-06T07:36:20.999Z</time></trkpt><trkpt lat="37.725505821855435" lon="14.77373388440166"><ele>480.0</ele><time>2026-04-06T07:36:22.999Z</time></trkpt><trkpt lat="37.72553064122884" lon="14.773609672205339"><ele>480.0</ele><time>2026-04-06T07:36:25.999Z</time></trkpt><trkpt lat="37.72552683346618" lon="14.773513360108465"><ele>480.0</ele><time>2026-04-06T07:36:27.999Z</time></trkpt><trkpt lat="37.72551223060181" lon="14.773387386233226"><ele>480.0</ele><time>2026-04-06T07:36:29.999Z</time></trkpt><trkpt lat="37.72548980891452" lon="14.773300294021793"><ele>480.0</ele><time>2026-04-06T07:36:30.999Z</time></trkpt><trkpt lat="37.725458282510154" lon="14.773201598162789"><ele>480.6</ele><time>2026-04-06T07:36:31.999Z</time></trkpt><trkpt lat="37.72542568171133" lon="14.773116270169565"><ele>481.2</ele><time>2026-04-06T07:36:32.999Z</time></trkpt><trkpt lat="37.72540591649019" lon="14.773018620868752"><ele>481.79999999999995</ele><time>2026-04-06T07:36:33.999Z</time></trkpt><trkpt lat="37.72535265393589" lon="14.772855732034651"><ele>482.4</ele><time>2026-04-06T07:36:35.999Z</time></trkpt><trkpt lat="37.7253154817627" lon="14.772753714478352"><ele>483.0</ele><time>2026-04-06T07:36:36.999Z</time></trkpt><trkpt lat="37.72526342551122" lon="14.772669813926726"><ele>485.4</ele><time>2026-04-06T07:36:37.999Z</time></trkpt><trkpt lat="37.72520565281904" lon="14.772596013984296"><ele>487.79999999999995</ele><time>2026-04-06T07:36:38.999Z</time></trkpt><trkpt lat="37.72511275178761" lon="14.772524198215262"><ele>490.2</ele><time>2026-04-06T07:36:40.999Z</time></trkpt><trkpt lat="37.7250345707276" lon="14.772412419298604"><ele>492.6</ele><time>2026-04-06T07:36:42.999Z</time></trkpt><trkpt lat="37.72495529903217" lon="14.77227169226433"><ele>495.0</ele><time>2026-04-06T07:36:44.999Z</time></trkpt><trkpt lat="37.72489000205261" lon="14.772199977611407"><ele>495.0</ele><time>2026-04-06T07:36:45.999Z</time></trkpt><trkpt lat="37.72482958240884" lon="14.772139751780648"><ele>495.0</ele><time>2026-04-06T07:36:46.999Z</time></trkpt><trkpt lat="37.72475658011195" lon="14.77209134810694"><ele>495.0</ele><time>2026-04-06T07:36:47.999Z</time></trkpt><trkpt lat="37.72466795875051" lon="14.772070065555301"><ele>495.0</ele><time>2026-04-06T07:36:48.999Z</time></trkpt><trkpt lat="37.72457616127355" lon="14.772058630904917"><ele>495.0</ele><time>2026-04-06T07:36:49.999Z</time></trkpt><trkpt lat="37.72449339120292" lon="14.772058338004198"><ele>495.0</ele><time>2026-04-06T07:36:50.999Z</time></trkpt><trkpt lat="37.72442259593854" lon="14.772039860258763"><ele>497.0</ele><time>2026-04-06T07:36:51.999Z</time></trkpt><trkpt lat="37.72434942984542" lon="14.77193755072462"><ele>499.0</ele><time>2026-04-06T07:36:53.999Z</time></trkpt><trkpt lat="37.72430369403718" lon="14.77184677516721"><ele>501.0</ele><time>2026-04-06T07:36:54.999Z</time></trkpt><trkpt lat="37.72427062591988" lon="14.771771914708975"><ele>503.0</ele><time>2026-04-06T07:36:55.999Z</time></trkpt><trkpt lat="37.724247731089946" lon="14.771667595067482"><ele>505.0</ele><time>2026-04-06T07:36:57.999Z</time></trkpt><trkpt lat="37.724250166660994" lon="14.771586578247803"><ele>507.0</ele><time>2026-04-06T07:36:59.999Z</time></trkpt><trkpt lat="37.72425726438511" lon="14.771500670838302"><ele>507.0</ele><time>2026-04-06T07:37:00.999Z</time></trkpt><trkpt lat="37.724262866654634" lon="14.771368528534936"><ele>507.0</ele><time>2026-04-06T07:37:01.999Z</time></trkpt><trkpt lat="37.72425431654627" lon="14.77125225335298"><ele>507.0</ele><time>2026-04-06T07:37:02.999Z</time></trkpt><trkpt lat="37.724236604705" lon="14.771154412856484"><ele>507.0</ele><time>2026-04-06T07:37:03.999Z</time></trkpt><trkpt lat="37.724210213967666" lon="14.771056713994955"><ele>507.0</ele><time>2026-04-06T07:37:04.999Z</time></trkpt><trkpt lat="37.72418105652494" lon="14.7709712781803"><ele>507.0</ele><time>2026-04-06T07:37:05.999Z</time></trkpt><trkpt lat="37.724144621579164" lon="14.770887421033683"><ele>508.8333333333333</ele><time>2026-04-06T07:37:06.999Z</time></trkpt><trkpt lat="37.724095847263555" lon="14.77080102408952"><ele>510.66666666666663</ele><time>2026-04-06T07:37:07.999Z</time></trkpt><trkpt lat="37.72405788681833" lon="14.770713334239087"><ele>512.5</ele><time>2026-04-06T07:37:08.999Z</time></trkpt><trkpt lat="37.724036410369855" lon="14.770630145704914"><ele>514.3333333333333</ele><time>2026-04-06T07:37:09.999Z</time></trkpt><trkpt lat="37.724012811184714" lon="14.770541240638211"><ele>516.1666666666666</ele><time>2026-04-06T07:37:10.999Z</time></trkpt><trkpt lat="37.723975489236466" lon="14.770461392110239"><ele>518.0</ele><time>2026-04-06T07:37:11.999Z</time></trkpt><trkpt lat="37.723954663230415" lon="14.770370337164854"><ele>518.0</ele><time>2026-04-06T07:37:12.999Z</time></trkpt><trkpt lat="37.72394217781714" lon="14.770271708331315"><ele>518.0</ele><time>2026-04-06T07:37:13.999Z</time></trkpt><trkpt lat="37.72391278385705" lon="14.77015954099455"><ele>518.0</ele><time>2026-04-06T07:37:14.999Z</time></trkpt><trkpt lat="37.72388933593437" lon="14.770074571011445"><ele>518.0</ele><time>2026-04-06T07:37:15.999Z</time></trkpt><trkpt lat="37.72386288002336" lon="14.769987285057237"><ele>518.0</ele><time>2026-04-06T07:37:16.999Z</time></trkpt><trkpt lat="37.7238306970439" lon="14.769886836997047"><ele>518.0</ele><time>2026-04-06T07:37:17.999Z</time></trkpt><trkpt lat="37.72380168095273" lon="14.769789357898686"><ele>520.8</ele><time>2026-04-06T07:37:18.999Z</time></trkpt><trkpt lat="37.7237775566558" lon="14.769690406393826"><ele>523.5999999999999</ele><time>2026-04-06T07:37:19.999Z</time></trkpt><trkpt lat="37.72376972484369" lon="14.76959030552265"><ele>526.4000000000001</ele><time>2026-04-06T07:37:20.999Z</time></trkpt><trkpt lat="37.72378090028027" lon="14.769425118147545"><ele>529.2</ele><time>2026-04-06T07:37:22.999Z</time></trkpt><trkpt lat="37.72377415945197" lon="14.769319431109313"><ele>532.0</ele><time>2026-04-06T07:37:23.999Z</time></trkpt><trkpt lat="37.723716137277805" lon="14.769146948476008"><ele>532.1666666666667</ele><time>2026-04-06T07:37:25.999Z</time></trkpt><trkpt lat="37.72365613596096" lon="14.7690756918235"><ele>532.3333333333334</ele><time>2026-04-06T07:37:26.999Z</time></trkpt><trkpt lat="37.72357897926842" lon="14.769003826838329"><ele>532.5</ele><time>2026-04-06T07:37:27.999Z</time></trkpt><trkpt lat="37.72350833722171" lon="14.768958716878373"><ele>532.6666666666666</ele><time>2026-04-06T07:37:28.999Z</time></trkpt><trkpt lat="37.723433169376456" lon="14.768903342377422"><ele>532.8333333333333</ele><time>2026-04-06T07:37:29.999Z</time></trkpt><trkpt lat="37.7233739749191" lon="14.768835832209412"><ele>533.0</ele><time>2026-04-06T07:37:30.999Z</time></trkpt><trkpt lat="37.723314520628044" lon="14.768776809930433"><ele>534.0</ele><time>2026-04-06T07:37:31.999Z</time></trkpt><trkpt lat="37.723252889807014" lon="14.768737482594391"><ele>535.0</ele><time>2026-04-06T07:37:32.999Z</time></trkpt><trkpt lat="37.723165730227144" lon="14.768684782955251"><ele>536.0</ele><time>2026-04-06T07:37:33.999Z</time></trkpt><trkpt lat="37.72308576455588" lon="14.76862641983989"><ele>537.0</ele><time>2026-04-06T07:37:34.999Z</time></trkpt><trkpt lat="37.72302370218278" lon="14.768584441440401"><ele>538.0</ele><time>2026-04-06T07:37:35.999Z</time></trkpt><trkpt lat="37.72298079788105" lon="14.76851071998969"><ele>539.0</ele><time>2026-04-06T07:37:37.999Z</time></trkpt><trkpt lat="37.72292057371964" lon="14.768415736760135"><ele>539.0</ele><time>2026-04-06T07:37:40.999Z</time></trkpt><trkpt lat="37.722833597577846" lon="14.76833537249606"><ele>539.0</ele><time>2026-04-06T07:37:42.999Z</time></trkpt><trkpt lat="37.72273725217673" lon="14.768322337493219"><ele>539.0</ele><time>2026-04-06T07:37:44.999Z</time></trkpt><trkpt lat="37.72261464413201" lon="14.768279171801245"><ele>539.0</ele><time>2026-04-06T07:37:46.999Z</time></trkpt><trkpt lat="37.722513836158306" lon="14.768198439751837"><ele>542.2</ele><time>2026-04-06T07:37:48.999Z</time></trkpt><trkpt lat="37.72245797628297" lon="14.768079663890349"><ele>545.4</ele><time>2026-04-06T07:37:50.999Z</time></trkpt><trkpt lat="37.72245164589377" lon="14.76792894555392"><ele>548.6</ele><time>2026-04-06T07:37:52.999Z</time></trkpt><trkpt lat="37.722431747767196" lon="14.767835843639308"><ele>551.8</ele><time>2026-04-06T07:37:53.999Z</time></trkpt><trkpt lat="37.722414314104455" lon="14.767733878353408"><ele>555.0</ele><time>2026-04-06T07:37:55Z</time></trkpt><trkpt lat="37.72240411321231" lon="14.767611673024748"><ele>555.6</ele><time>2026-04-06T07:37:56Z</time></trkpt><trkpt lat="37.72240042957765" lon="14.767496693787242"><ele>556.2</ele><time>2026-04-06T07:37:57Z</time></trkpt><trkpt lat="37.72239033068106" lon="14.767363931251971"><ele>556.8</ele><time>2026-04-06T07:37:58Z</time></trkpt><trkpt lat="37.72240531263629" lon="14.767242042214695"><ele>557.4</ele><time>2026-04-06T07:37:59Z</time></trkpt><trkpt lat="37.72240726772472" lon="14.767115314984995"><ele>558.0</ele><time>2026-04-06T07:38:00Z</time></trkpt><trkpt lat="37.72239508893968" lon="14.767017949541314"><ele>558.0</ele><time>2026-04-06T07:38:01Z</time></trkpt><trkpt lat="37.722350633137665" lon="14.766915680920508"><ele>558.0</ele><time>2026-04-06T07:38:03Z</time></trkpt><trkpt lat="37.72232777518009" lon="14.7667788417991"><ele>558.0</ele><time>2026-04-06T07:38:05Z</time></trkpt><trkpt lat="37.72235356512413" lon="14.76666543410993"><ele>558.0</ele><time>2026-04-06T07:38:07Z</time></trkpt><trkpt lat="37.722399579337925" lon="14.766506302318016"><ele>558.0</ele><time>2026-04-06T07:38:09Z</time></trkpt><trkpt lat="37.72242707692125" lon="14.766418662858358"><ele>558.6666666666666</ele><time>2026-04-06T07:38:10Z</time></trkpt><trkpt lat="37.72243512309471" lon="14.766283677355528"><ele>559.3333333333334</ele><time>2026-04-06T07:38:12Z</time></trkpt><trkpt lat="37.72243586527227" lon="14.766180333428553"><ele>560.0</ele><time>2026-04-06T07:38:13Z</time></trkpt><trkpt lat="37.72243498663383" lon="14.766063686946548"><ele>560.6666666666667</ele><time>2026-04-06T07:38:14Z</time></trkpt><trkpt lat="37.72242382165411" lon="14.765961998798034"><ele>561.3333333333334</ele><time>2026-04-06T07:38:15Z</time></trkpt><trkpt lat="37.72240216851505" lon="14.765866855133842"><ele>562.0</ele><time>2026-04-06T07:38:16Z</time></trkpt><trkpt lat="37.72238180826643" lon="14.765780740580595"><ele>562.75</ele><time>2026-04-06T07:38:17Z</time></trkpt><trkpt lat="37.72235666314044" lon="14.765645295551273"><ele>563.5</ele><time>2026-04-06T07:38:19Z</time></trkpt><trkpt lat="37.722297306170866" lon="14.765509228875313"><ele>564.25</ele><time>2026-04-06T07:38:21Z</time></trkpt><trkpt lat="37.72220708175671" lon="14.7653841317996"><ele>565.0</ele><time>2026-04-06T07:38:23Z</time></trkpt><trkpt lat="37.72209309742537" lon="14.765290525305453"><ele>565.0</ele><time>2026-04-06T07:38:25Z</time></trkpt><trkpt lat="37.72202954615935" lon="14.7652632310956"><ele>565.0</ele><time>2026-04-06T07:38:26Z</time></trkpt><trkpt lat="37.72195082167504" lon="14.765231944857728"><ele>565.0</ele><time>2026-04-06T07:38:28Z</time></trkpt><trkpt lat="37.72187680200228" lon="14.765285980024908"><ele>565.0</ele><time>2026-04-06T07:38:47Z</time></trkpt><trkpt lat="37.72176540607552" lon="14.76532158638837"><ele>565.0</ele><time>2026-04-06T07:38:49Z</time></trkpt><trkpt lat="37.72170881850272" lon="14.765264647020944"><ele>565.0</ele><time>2026-04-06T07:38:50Z</time></trkpt><trkpt lat="37.72164487469786" lon="14.76518807963185"><ele>567.5</ele><time>2026-04-06T07:38:51Z</time></trkpt><trkpt lat="37.72156803151036" lon="14.76511353382399"><ele>570.0</ele><time>2026-04-06T07:38:52Z</time></trkpt><trkpt lat="37.72152015898588" lon="14.765033618182924"><ele>572.5</ele><time>2026-04-06T07:38:53Z</time></trkpt><trkpt lat="37.72145059303122" lon="14.764962103801476"><ele>575.0</ele><time>2026-04-06T07:38:54Z</time></trkpt><trkpt lat="37.721380743542035" lon="14.76491857373847"><ele>577.5</ele><time>2026-04-06T07:38:55Z</time></trkpt><trkpt lat="37.72132329220521" lon="14.764866939438631"><ele>580.0</ele><time>2026-04-06T07:38:56Z</time></trkpt><trkpt lat="37.72121712116149" lon="14.764795684808137"><ele>580.0</ele><time>2026-04-06T07:38:58Z</time></trkpt><trkpt lat="37.72111105054225" lon="14.76476418441154"><ele>580.0</ele><time>2026-04-06T07:39:00Z</time></trkpt><trkpt lat="37.721043643377925" lon="14.76475973743347"><ele>580.0</ele><time>2026-04-06T07:39:01Z</time></trkpt><trkpt lat="37.72097826965606" lon="14.764772161814214"><ele>580.0</ele><time>2026-04-06T07:39:02Z</time></trkpt><trkpt lat="37.72088989736739" lon="14.764839744213496"><ele>580.0</ele><time>2026-04-06T07:39:04Z</time></trkpt><trkpt lat="37.72081185970234" lon="14.764928100155666"><ele>581.2</ele><time>2026-04-06T07:39:06Z</time></trkpt><trkpt lat="37.72081806882059" lon="14.765033490117466"><ele>582.4</ele><time>2026-04-06T07:39:07Z</time></trkpt><trkpt lat="37.720808546252876" lon="14.765204736012848"><ele>583.6</ele><time>2026-04-06T07:39:09Z</time></trkpt><trkpt lat="37.720804833556784" lon="14.765315921050345"><ele>584.8</ele><time>2026-04-06T07:39:10Z</time></trkpt><trkpt lat="37.72080483355902" lon="14.76541500379272"><ele>586.0</ele><time>2026-04-06T07:39:11Z</time></trkpt><trkpt lat="37.7208042955627" lon="14.765566775261767"><ele>587.3333333333334</ele><time>2026-04-06T07:39:13Z</time></trkpt><trkpt lat="37.72080130922641" lon="14.765670987424016"><ele>588.6666666666667</ele><time>2026-04-06T07:39:14Z</time></trkpt><trkpt lat="37.72079629507101" lon="14.765767200564836"><ele>590.0</ele><time>2026-04-06T07:39:15Z</time></trkpt><trkpt lat="37.72078764537038" lon="14.76587382750669"><ele>591.3333333333334</ele><time>2026-04-06T07:39:16Z</time></trkpt><trkpt lat="37.72077395502995" lon="14.765995320183022"><ele>592.6666666666666</ele><time>2026-04-06T07:39:17Z</time></trkpt><trkpt lat="37.720753933583666" lon="14.766127782072768"><ele>594.0</ele><time>2026-04-06T07:39:18Z</time></trkpt><trkpt lat="37.72077938525797" lon="14.76621816490584"><ele>595.0</ele><time>2026-04-06T07:39:19Z</time></trkpt><trkpt lat="37.72074241479243" lon="14.766371724418068"><ele>596.0</ele><time>2026-04-06T07:39:21Z</time></trkpt><trkpt lat="37.72069050105436" lon="14.766449456190182"><ele>597.0</ele><time>2026-04-06T07:39:22Z</time></trkpt><trkpt lat="37.72064453532906" lon="14.76654806493091"><ele>598.0</ele><time>2026-04-06T07:40:58Z</time></trkpt><trkpt lat="37.72059269152522" lon="14.766610631865948"><ele>599.0</ele><time>2026-04-06T07:40:59Z</time></trkpt><trkpt lat="37.72053826520109" lon="14.766681709194573"><ele>600.0</ele><time>2026-04-06T07:41:00Z</time></trkpt><trkpt lat="37.72049385471486" lon="14.766749814407799"><ele>600.0</ele><time>2026-04-06T07:41:01Z</time></trkpt><trkpt lat="37.7204595687457" lon="14.766817117823935"><ele>600.0</ele><time>2026-04-06T07:41:02Z</time></trkpt><trkpt lat="37.72042948252507" lon="14.766892631635303"><ele>600.0</ele><time>2026-04-06T07:41:17Z</time></trkpt><trkpt lat="37.72037822935746" lon="14.766966526457345"><ele>600.0</ele><time>2026-04-06T07:41:18Z</time></trkpt><trkpt lat="37.72032544155968" lon="14.767045695802281"><ele>600.0</ele><time>2026-04-06T07:41:20Z</time></trkpt><trkpt lat="37.72023476487482" lon="14.767175232398863"><ele>600.0</ele><time>2026-04-06T07:41:22Z</time></trkpt><trkpt lat="37.720164828630146" lon="14.767291891002966"><ele>603.2</ele><time>2026-04-06T07:41:23Z</time></trkpt><trkpt lat="37.720087427235406" lon="14.767417430451163"><ele>606.4</ele><time>2026-04-06T07:41:24Z</time></trkpt><trkpt lat="37.72001054046951" lon="14.767534999685134"><ele>609.6</ele><time>2026-04-06T07:41:25Z</time></trkpt><trkpt lat="37.71996063919266" lon="14.767610206504399"><ele>612.8</ele><time>2026-04-06T07:41:26Z</time></trkpt><trkpt lat="37.71991154415967" lon="14.767699082557264"><ele>616.0</ele><time>2026-04-06T07:41:27Z</time></trkpt><trkpt lat="37.71987247392027" lon="14.767784883458084"><ele>617.6</ele><time>2026-04-06T07:41:28Z</time></trkpt><trkpt lat="37.71984275616624" lon="14.76789012476235"><ele>619.2</ele><time>2026-04-06T07:41:29Z</time></trkpt><trkpt lat="37.7198100597746" lon="14.76798467375353"><ele>620.8</ele><time>2026-04-06T07:41:30Z</time></trkpt><trkpt lat="37.71978533362519" lon="14.768071861657186"><ele>622.4</ele><time>2026-04-06T07:41:31Z</time></trkpt><trkpt lat="37.71972007309405" lon="14.768201357178084"><ele>624.0</ele><time>2026-04-06T07:41:33Z</time></trkpt><trkpt lat="37.71963104628097" lon="14.768277924079843"><ele>624.0</ele><time>2026-04-06T07:41:35Z</time></trkpt><trkpt lat="37.71958820786782" lon="14.768337292547702"><ele>624.0</ele><time>2026-04-06T07:41:36Z</time></trkpt><trkpt lat="37.719574123283515" lon="14.768423418931352"><ele>624.0</ele><time>2026-04-06T07:41:37Z</time></trkpt><trkpt lat="37.719513901492874" lon="14.768491697885295"><ele>624.0</ele><time>2026-04-06T07:41:38Z</time></trkpt><trkpt lat="37.719449608135726" lon="14.768597630413366"><ele>624.0</ele><time>2026-04-06T07:41:39Z</time></trkpt><trkpt lat="37.71942186967519" lon="14.768670037875182"><ele>624.0</ele><time>2026-04-06T07:41:40Z</time></trkpt><trkpt lat="37.71936742514171" lon="14.76871822610449"><ele>625.2</ele><time>2026-04-06T07:41:42Z</time></trkpt><trkpt lat="37.7193224860842" lon="14.768782454328106"><ele>626.4</ele><time>2026-04-06T07:41:44Z</time></trkpt><trkpt lat="37.71924619655008" lon="14.768842795396784"><ele>627.6</ele><time>2026-04-06T07:41:47Z</time></trkpt><trkpt lat="37.7191237870769" lon="14.768947330105977"><ele>628.8</ele><time>2026-04-06T07:41:49Z</time></trkpt><trkpt lat="37.71905724241487" lon="14.769013161548996"><ele>630.0</ele><time>2026-04-06T07:41:50Z</time></trkpt><trkpt lat="37.71900875546212" lon="14.76907102684934"><ele>630.0</ele><time>2026-04-06T07:41:51Z</time></trkpt><trkpt lat="37.71891873522453" lon="14.769181262754627"><ele>630.0</ele><time>2026-04-06T07:41:52.999Z</time></trkpt><trkpt lat="37.718824740427465" lon="14.769275348337242"><ele>630.0</ele><time>2026-04-06T07:41:54.999Z</time></trkpt><trkpt lat="37.71873467163097" lon="14.769356402485066"><ele>630.0</ele><time>2026-04-06T07:41:56.999Z</time></trkpt><trkpt lat="37.718668808503274" lon="14.769440794922689"><ele>631.5</ele><time>2026-04-06T07:41:58.999Z</time></trkpt><trkpt lat="37.71862380430317" lon="14.769496581988037"><ele>633.0</ele><time>2026-04-06T07:42:01Z</time></trkpt><trkpt lat="37.718557637555605" lon="14.769497665284947"><ele>634.5</ele><time>2026-04-06T07:42:02Z</time></trkpt><trkpt lat="37.71849421133057" lon="14.769507536136006"><ele>636.0</ele><time>2026-04-06T07:42:03Z</time></trkpt><trkpt lat="37.71841375090578" lon="14.769533579250279"><ele>637.5</ele><time>2026-04-06T07:42:04Z</time></trkpt><trkpt lat="37.71832856146605" lon="14.769582259178854"><ele>639.0</ele><time>2026-04-06T07:42:05Z</time></trkpt><trkpt lat="37.7182560772918" lon="14.769643827228757"><ele>639.0</ele><time>2026-04-06T07:42:06Z</time></trkpt><trkpt lat="37.71820805208096" lon="14.769708936537592"><ele>639.0</ele><time>2026-04-06T07:42:07Z</time></trkpt><trkpt lat="37.71812887212876" lon="14.769830192244912"><ele>639.0</ele><time>2026-04-06T07:42:09Z</time></trkpt><trkpt lat="37.71807356268668" lon="14.769887358845352"><ele>639.0</ele><time>2026-04-06T07:42:10Z</time></trkpt><trkpt lat="37.71801068221695" lon="14.769911456631082"><ele>639.0</ele><time>2026-04-06T07:42:11Z</time></trkpt><trkpt lat="37.71790167256422" lon="14.769975442422462"><ele>639.0</ele><time>2026-04-06T07:42:13Z</time></trkpt><trkpt lat="37.71780089923804" lon="14.769999956051256"><ele>639.0</ele><time>2026-04-06T07:42:15Z</time></trkpt><trkpt lat="37.7177403575069" lon="14.770029141119796"><ele>639.0</ele><time>2026-04-06T07:42:16Z</time></trkpt><trkpt lat="37.71769274489171" lon="14.770104137698299"><ele>639.0</ele><time>2026-04-06T07:42:17Z</time></trkpt><trkpt lat="37.71764111797446" lon="14.770153905305323"><ele>639.0</ele><time>2026-04-06T07:42:18Z</time></trkpt><trkpt lat="37.71757978828447" lon="14.770179677400144"><ele>639.0</ele><time>2026-04-06T07:42:19Z</time></trkpt><trkpt lat="37.71745472930317" lon="14.770199893006417"><ele>640.6666666666666</ele><time>2026-04-06T07:42:21Z</time></trkpt><trkpt lat="37.71739294774121" lon="14.770234254641066"><ele>642.3333333333334</ele><time>2026-04-06T07:42:22Z</time></trkpt><trkpt lat="37.71729715797382" lon="14.77027298700398"><ele>644.0</ele><time>2026-04-06T07:42:24Z</time></trkpt><trkpt lat="37.71724357568388" lon="14.770320615831773"><ele>645.6666666666667</ele><time>2026-04-06T07:42:25Z</time></trkpt><trkpt lat="37.71717519197355" lon="14.770374509055038"><ele>647.3333333333334</ele><time>2026-04-06T07:42:26Z</time></trkpt><trkpt lat="37.717111374709425" lon="14.77043572541845"><ele>649.0</ele><time>2026-04-06T07:42:27Z</time></trkpt><trkpt lat="37.717059664663495" lon="14.770510166903506"><ele>649.0</ele><time>2026-04-06T07:42:28Z</time></trkpt><trkpt lat="37.717006049062526" lon="14.770584977875663"><ele>649.0</ele><time>2026-04-06T07:42:30Z</time></trkpt><trkpt lat="37.71692720531077" lon="14.77066676701469"><ele>649.0</ele><time>2026-04-06T07:42:32Z</time></trkpt><trkpt lat="37.7168487452456" lon="14.770706274613136"><ele>649.0</ele><time>2026-04-06T07:42:34Z</time></trkpt><trkpt lat="37.716786314475286" lon="14.770720153739127"><ele>649.0</ele><time>2026-04-06T07:42:35Z</time></trkpt><trkpt lat="37.716717553897624" lon="14.77071856564841"><ele>649.0</ele><time>2026-04-06T07:42:36Z</time></trkpt><trkpt lat="37.71665451144773" lon="14.770719294144328"><ele>654.75</ele><time>2026-04-06T07:42:37Z</time></trkpt><trkpt lat="37.71654431687156" lon="14.770724389721844"><ele>660.5</ele><time>2026-04-06T07:42:39Z</time></trkpt><trkpt lat="37.71642901420302" lon="14.770745927366429"><ele>666.25</ele><time>2026-04-06T07:42:41Z</time></trkpt><trkpt lat="37.716328621456164" lon="14.770778207042047"><ele>672.0</ele><time>2026-04-06T07:42:43Z</time></trkpt><trkpt lat="37.71621529013842" lon="14.770837696231037"><ele>672.0</ele><time>2026-04-06T07:42:45Z</time></trkpt><trkpt lat="37.716154808477135" lon="14.770911487539323"><ele>672.0</ele><time>2026-04-06T07:42:47Z</time></trkpt><trkpt lat="37.71611143478759" lon="14.771006014747876"><ele>672.0</ele><time>2026-04-06T07:42:49Z</time></trkpt><trkpt lat="37.71606519298797" lon="14.771071134797316"><ele>672.0</ele><time>2026-04-06T07:42:51Z</time></trkpt><trkpt lat="37.71599947810336" lon="14.771171971951345"><ele>672.0</ele><time>2026-04-06T07:42:53Z</time></trkpt><trkpt lat="37.71594444894079" lon="14.771263722885232"><ele>672.0</ele><time>2026-04-06T07:42:55Z</time></trkpt><trkpt lat="37.715885281841835" lon="14.7712977888703"><ele>676.4000000000001</ele><time>2026-04-06T07:42:56Z</time></trkpt><trkpt lat="37.71583233525922" lon="14.77135022522952"><ele>680.8000000000001</ele><time>2026-04-06T07:42:57Z</time></trkpt><trkpt lat="37.71578407444301" lon="14.771416116797317"><ele>685.2</ele><time>2026-04-06T07:42:58Z</time></trkpt><trkpt lat="37.715713033200785" lon="14.771437757426122"><ele>689.6</ele><time>2026-04-06T07:42:59Z</time></trkpt><trkpt lat="37.71561061249632" lon="14.771568117479532"><ele>694.0</ele><time>2026-04-06T07:43:01Z</time></trkpt><trkpt lat="37.71554399286815" lon="14.77165898180699"><ele>694.0</ele><time>2026-04-06T07:43:02Z</time></trkpt><trkpt lat="37.71548770789587" lon="14.771738822931345"><ele>694.0</ele><time>2026-04-06T07:43:03Z</time></trkpt><trkpt lat="37.715463410756115" lon="14.771813821088749"><ele>694.0</ele><time>2026-04-06T07:43:04Z</time></trkpt><trkpt lat="37.71545965341133" lon="14.77189793035119"><ele>694.0</ele><time>2026-04-06T07:43:05Z</time></trkpt><trkpt lat="37.715447477021016" lon="14.771997149896418"><ele>694.0</ele><time>2026-04-06T07:43:06Z</time></trkpt><trkpt lat="37.71539584476264" lon="14.7720838940121"><ele>694.0</ele><time>2026-04-06T07:43:07Z</time></trkpt><trkpt lat="37.715368140402255" lon="14.772161433170066"><ele>694.0</ele><time>2026-04-06T07:43:08Z</time></trkpt><trkpt lat="37.7153406516818" lon="14.77229606490407"><ele>694.6</ele><time>2026-04-06T07:43:10Z</time></trkpt><trkpt lat="37.715293121149585" lon="14.772427069732963"><ele>695.2</ele><time>2026-04-06T07:43:12Z</time></trkpt><trkpt lat="37.71527950546581" lon="14.7725169709272"><ele>695.8000000000001</ele><time>2026-04-06T07:43:13Z</time></trkpt><trkpt lat="37.71523658033703" lon="14.772639813166101"><ele>696.4000000000001</ele><time>2026-04-06T07:43:14Z</time></trkpt><trkpt lat="37.715211475228216" lon="14.772730028927679"><ele>697.0</ele><time>2026-04-06T07:43:15Z</time></trkpt><trkpt lat="37.71519617385472" lon="14.772861651283455"><ele>698.0</ele><time>2026-04-06T07:43:17Z</time></trkpt><trkpt lat="37.71521598870174" lon="14.773027953391763"><ele>699.0</ele><time>2026-04-06T07:43:19Z</time></trkpt><trkpt lat="37.71520595108694" lon="14.773158633826347"><ele>700.0</ele><time>2026-04-06T07:43:21Z</time></trkpt><trkpt lat="37.71520916341972" lon="14.77327984703804"><ele>701.0</ele><time>2026-04-06T07:43:23Z</time></trkpt><trkpt lat="37.71518927821508" lon="14.773426912674749"><ele>701.1666666666666</ele><time>2026-04-06T07:43:25Z</time></trkpt><trkpt lat="37.715136363637086" lon="14.773539224651623"><ele>701.3333333333333</ele><time>2026-04-06T07:43:27Z</time></trkpt><trkpt lat="37.71510285201512" lon="14.773618321512405"><ele>701.5</ele><time>2026-04-06T07:43:28Z</time></trkpt><trkpt lat="37.71507055164442" lon="14.773720941560212"><ele>701.6666666666666</ele><time>2026-04-06T07:43:29Z</time></trkpt><trkpt lat="37.71503598007022" lon="14.77380322500825"><ele>701.8333333333334</ele><time>2026-04-06T07:43:30Z</time></trkpt><trkpt lat="37.71500047456876" lon="14.773894759569716"><ele>702.0</ele><time>2026-04-06T07:43:31Z</time></trkpt><trkpt lat="37.714939982271375" lon="14.774009146704898"><ele>702.0</ele><time>2026-04-06T07:43:32Z</time></trkpt><trkpt lat="37.71490861784952" lon="14.774098283438812"><ele>702.0</ele><time>2026-04-06T07:43:33Z</time></trkpt><trkpt lat="37.714868000728245" lon="14.774223486289122"><ele>702.0</ele><time>2026-04-06T07:43:35Z</time></trkpt><trkpt lat="37.71483015312943" lon="14.774347388463656"><ele>702.0</ele><time>2026-04-06T07:43:37Z</time></trkpt><trkpt lat="37.71478943673797" lon="14.774491127107929"><ele>702.0</ele><time>2026-04-06T07:43:39Z</time></trkpt><trkpt lat="37.71476716445992" lon="14.774586083020514"><ele>700.8333333333334</ele><time>2026-04-06T07:43:40Z</time></trkpt><trkpt lat="37.71474632380456" lon="14.774689179148814"><ele>699.6666666666666</ele><time>2026-04-06T07:43:41Z</time></trkpt><trkpt lat="37.71472280552626" lon="14.774788474891244"><ele>698.5</ele><time>2026-04-06T07:43:42Z</time></trkpt><trkpt lat="37.71469769556574" lon="14.774863260884214"><ele>697.3333333333333</ele><time>2026-04-06T07:43:43Z</time></trkpt><trkpt lat="37.7146492663197" lon="14.774936670582791"><ele>696.1666666666666</ele><time>2026-04-06T07:43:44Z</time></trkpt><trkpt lat="37.71462716398604" lon="14.775018849023148"><ele>695.0</ele><time>2026-04-06T07:43:45Z</time></trkpt><trkpt lat="37.7145743611155" lon="14.775168825315912"><ele>693.2</ele><time>2026-04-06T07:43:47Z</time></trkpt><trkpt lat="37.71456199526906" lon="14.775259815955812"><ele>691.4</ele><time>2026-04-06T07:43:48Z</time></trkpt><trkpt lat="37.71444398407317" lon="14.775290417206971"><ele>689.5999999999999</ele><time>2026-04-06T07:43:50Z</time></trkpt><trkpt lat="37.71435242244707" lon="14.775257331007586"><ele>687.8</ele><time>2026-04-06T07:43:52Z</time></trkpt><trkpt lat="37.714255645781314" lon="14.775248533002259"><ele>686.0</ele><time>2026-04-06T07:43:54Z</time></trkpt><trkpt lat="37.714205770517374" lon="14.775311452022015"><ele>686.0</ele><time>2026-04-06T07:43:55Z</time></trkpt><trkpt lat="37.71415261854972" lon="14.775364343116632"><ele>686.0</ele><time>2026-04-06T07:43:56Z</time></trkpt><trkpt lat="37.714041314457745" lon="14.775412438359846"><ele>686.0</ele><time>2026-04-06T07:43:57Z</time></trkpt><trkpt lat="37.713944934368264" lon="14.775478588116856"><ele>686.0</ele><time>2026-04-06T07:43:58Z</time></trkpt><trkpt lat="37.71386742588553" lon="14.77550857660298"><ele>686.0</ele><time>2026-04-06T07:43:59Z</time></trkpt><trkpt lat="37.71376948713506" lon="14.775538191965557"><ele>686.0</ele><time>2026-04-06T07:44:00Z</time></trkpt><trkpt lat="37.71367687038345" lon="14.775579374393086"><ele>686.0</ele><time>2026-04-06T07:44:01Z</time></trkpt><trkpt lat="37.7135872710296" lon="14.775670919805254"><ele>686.0</ele><time>2026-04-06T07:44:02Z</time></trkpt><trkpt lat="37.713481514967974" lon="14.775752575722079"><ele>686.0</ele><time>2026-04-06T07:44:03Z</time></trkpt><trkpt lat="37.71339977808236" lon="14.775831175991321"><ele>686.0</ele><time>2026-04-06T07:44:04Z</time></trkpt><trkpt lat="37.713343982912846" lon="14.775899596710927"><ele>688.5999999999999</ele><time>2026-04-06T07:44:05Z</time></trkpt><trkpt lat="37.713276435953475" lon="14.775978625101951"><ele>691.2</ele><time>2026-04-06T07:44:06.001Z</time></trkpt><trkpt lat="37.71320535818382" lon="14.776056387871936"><ele>693.8</ele><time>2026-04-06T07:44:07.001Z</time></trkpt><trkpt lat="37.71313887423609" lon="14.7761415265004"><ele>696.4000000000001</ele><time>2026-04-06T07:44:08.001Z</time></trkpt><trkpt lat="37.7130834713742" lon="14.776238630727901"><ele>699.0</ele><time>2026-04-06T07:44:09.001Z</time></trkpt><trkpt lat="37.71305709578057" lon="14.77633334418349"><ele>699.8000000000001</ele><time>2026-04-06T07:44:10.001Z</time></trkpt><trkpt lat="37.71302736679499" lon="14.77645617435139"><ele>700.6</ele><time>2026-04-06T07:44:11.001Z</time></trkpt><trkpt lat="37.71300113190913" lon="14.77659848838949"><ele>701.4</ele><time>2026-04-06T07:44:12.001Z</time></trkpt><trkpt lat="37.71296372314114" lon="14.776711512187513"><ele>702.2</ele><time>2026-04-06T07:44:13.001Z</time></trkpt><trkpt lat="37.71293811667639" lon="14.776814123831553"><ele>703.0</ele><time>2026-04-06T07:44:14.001Z</time></trkpt><trkpt lat="37.71291444095116" lon="14.776908998481991"><ele>703.0</ele><time>2026-04-06T07:44:15.001Z</time></trkpt><trkpt lat="37.71288834095999" lon="14.77701358761487"><ele>703.0</ele><time>2026-04-06T07:44:16.001Z</time></trkpt><trkpt lat="37.7128595659352" lon="14.777128896492227"><ele>703.0</ele><time>2026-04-06T07:44:17Z</time></trkpt><trkpt lat="37.71283017418709" lon="14.777237900284323"><ele>703.0</ele><time>2026-04-06T07:44:18Z</time></trkpt><trkpt lat="37.71280199106738" lon="14.777328883598166"><ele>703.0</ele><time>2026-04-06T07:44:19Z</time></trkpt><trkpt lat="37.712787524771066" lon="14.777429118775537"><ele>703.0</ele><time>2026-04-06T07:44:20Z</time></trkpt><trkpt lat="37.71276239383019" lon="14.7775210677734"><ele>703.0</ele><time>2026-04-06T07:44:21Z</time></trkpt><trkpt lat="37.712747209342574" lon="14.777620531716043"><ele>703.0</ele><time>2026-04-06T07:44:22Z</time></trkpt><trkpt lat="37.7127408419814" lon="14.777719351718686"><ele>703.0</ele><time>2026-04-06T07:44:23Z</time></trkpt><trkpt lat="37.712717365951235" lon="14.777819491448174"><ele>703.0</ele><time>2026-04-06T07:44:24Z</time></trkpt><trkpt lat="37.71269821243856" lon="14.77792827249869"><ele>703.0</ele><time>2026-04-06T07:44:25Z</time></trkpt><trkpt lat="37.712689822515046" lon="14.778040265437884"><ele>703.0</ele><time>2026-04-06T07:44:26Z</time></trkpt><trkpt lat="37.71266735149503" lon="14.778156783261803"><ele>702.8333333333334</ele><time>2026-04-06T07:44:27Z</time></trkpt><trkpt lat="37.712655550090275" lon="14.778263991355356"><ele>702.6666666666667</ele><time>2026-04-06T07:44:28Z</time></trkpt><trkpt lat="37.71266175012416" lon="14.778362890958352"><ele>702.5</ele><time>2026-04-06T07:44:29Z</time></trkpt><trkpt lat="37.71268253779596" lon="14.778461437833"><ele>702.3333333333334</ele><time>2026-04-06T07:44:30Z</time></trkpt><trkpt lat="37.71271646480944" lon="14.778560849115456"><ele>702.1666666666666</ele><time>2026-04-06T07:44:31Z</time></trkpt><trkpt lat="37.71275173338931" lon="14.778654278232127"><ele>702.0</ele><time>2026-04-06T07:44:32Z</time></trkpt><trkpt lat="37.71275558958685" lon="14.778804972629544"><ele>702.0</ele><time>2026-04-06T07:44:34Z</time></trkpt><trkpt lat="37.71275317673311" lon="14.778909464728349"><ele>702.0</ele><time>2026-04-06T07:44:36Z</time></trkpt><trkpt lat="37.712764607037265" lon="14.779037424893133"><ele>702.0</ele><time>2026-04-06T07:44:39Z</time></trkpt><trkpt lat="37.712809391515" lon="14.779174890784372"><ele>702.0</ele><time>2026-04-06T07:44:41Z</time></trkpt><trkpt lat="37.712845943161945" lon="14.77929377074323"><ele>702.0</ele><time>2026-04-06T07:44:43Z</time></trkpt><trkpt lat="37.71287196385103" lon="14.779423216504586"><ele>703.1666666666666</ele><time>2026-04-06T07:44:45Z</time></trkpt><trkpt lat="37.71286651993952" lon="14.779503877207512"><ele>704.3333333333334</ele><time>2026-04-06T07:44:46Z</time></trkpt><trkpt lat="37.7128713085334" lon="14.779609788533953"><ele>705.5</ele><time>2026-04-06T07:44:48Z</time></trkpt><trkpt lat="37.71286599478631" lon="14.77974628775836"><ele>706.6666666666667</ele><time>2026-04-06T07:44:51Z</time></trkpt><trkpt lat="37.712846821624915" lon="14.779842789828157"><ele>707.8333333333334</ele><time>2026-04-06T07:44:52Z</time></trkpt><trkpt lat="37.712811960380265" lon="14.779942695021813"><ele>709.0</ele><time>2026-04-06T07:44:54Z</time></trkpt><trkpt lat="37.71278402746143" lon="14.78003618767097"><ele>710.0</ele><time>2026-04-06T07:44:56Z</time></trkpt><trkpt lat="37.71273615821458" lon="14.780129503684389"><ele>711.0</ele><time>2026-04-06T07:44:58Z</time></trkpt><trkpt lat="37.71271585087182" lon="14.780243379396444"><ele>712.0</ele><time>2026-04-06T07:45:00Z</time></trkpt><trkpt lat="37.71268761946835" lon="14.780393270352098"><ele>713.0</ele><time>2026-04-06T07:45:02Z</time></trkpt><trkpt lat="37.712647815202175" lon="14.780487266197195"><ele>714.0</ele><time>2026-04-06T07:45:04Z</time></trkpt><trkpt lat="37.71262688375598" lon="14.780567918603904"><ele>714.0</ele><time>2026-04-06T07:45:06Z</time></trkpt><trkpt lat="37.7126201850057" lon="14.780651767664693"><ele>714.0</ele><time>2026-04-06T07:45:08Z</time></trkpt><trkpt lat="37.71259695937013" lon="14.78076206649811"><ele>714.0</ele><time>2026-04-06T07:45:11Z</time></trkpt><trkpt lat="37.71257432130552" lon="14.780841476615636"><ele>714.0</ele><time>2026-04-06T07:45:13Z</time></trkpt><trkpt lat="37.71255237026464" lon="14.780946915351953"><ele>714.0</ele><time>2026-04-06T07:45:15Z</time></trkpt><trkpt lat="37.71254012385577" lon="14.781061972322748"><ele>714.0</ele><time>2026-04-06T07:45:17Z</time></trkpt><trkpt lat="37.71252446539212" lon="14.781161117320726"><ele>712.8333333333334</ele><time>2026-04-06T07:45:19Z</time></trkpt><trkpt lat="37.71252717909264" lon="14.781265433102764"><ele>711.6666666666666</ele><time>2026-04-06T07:45:21Z</time></trkpt><trkpt lat="37.71255076827284" lon="14.78136851545428"><ele>710.5</ele><time>2026-04-06T07:45:23Z</time></trkpt><trkpt lat="37.71257603656081" lon="14.781469282122345"><ele>709.3333333333333</ele><time>2026-04-06T07:45:25Z</time></trkpt><trkpt lat="37.71255854960498" lon="14.781563734890062"><ele>708.1666666666666</ele><time>2026-04-06T07:45:27Z</time></trkpt><trkpt lat="37.71246155841632" lon="14.781627484477605"><ele>707.0</ele><time>2026-04-06T07:45:29Z</time></trkpt><trkpt lat="37.71225875131801" lon="14.781617943743623"><ele>707.0</ele><time>2026-04-06T07:45:32Z</time></trkpt><trkpt lat="37.712146392959916" lon="14.781607125860623"><ele>707.0</ele><time>2026-04-06T07:45:34Z</time></trkpt><trkpt lat="37.71206028057691" lon="14.781629519688327"><ele>707.0</ele><time>2026-04-06T07:45:36Z</time></trkpt><trkpt lat="37.71198717445763" lon="14.781634136195345"><ele>707.0</ele><time>2026-04-06T07:45:38Z</time></trkpt><trkpt lat="37.71189104695983" lon="14.781644068793456"><ele>707.0</ele><time>2026-04-06T07:45:40Z</time></trkpt><trkpt lat="37.711825302273056" lon="14.781669594027372"><ele>707.0</ele><time>2026-04-06T07:45:41Z</time></trkpt><trkpt lat="37.71170687046798" lon="14.781681137894955"><ele>705.8</ele><time>2026-04-06T07:45:43Z</time></trkpt><trkpt lat="37.71163823497864" lon="14.781679529710468"><ele>704.6</ele><time>2026-04-06T07:45:44Z</time></trkpt><trkpt lat="37.711547168582484" lon="14.781679362072406"><ele>703.4</ele><time>2026-04-06T07:45:45Z</time></trkpt><trkpt lat="37.711446207247484" lon="14.781677518053707"><ele>702.1999999999999</ele><time>2026-04-06T07:45:46Z</time></trkpt><trkpt lat="37.711337090631915" lon="14.781673431984832"><ele>701.0</ele><time>2026-04-06T07:45:47Z</time></trkpt><trkpt lat="37.71122264304643" lon="14.781672366756508"><ele>701.0</ele><time>2026-04-06T07:45:48Z</time></trkpt><trkpt lat="37.71112684090779" lon="14.781648949765117"><ele>701.0</ele><time>2026-04-06T07:45:49Z</time></trkpt><trkpt lat="37.71104105548779" lon="14.781639587744257"><ele>701.0</ele><time>2026-04-06T07:45:50Z</time></trkpt><trkpt lat="37.710941275906315" lon="14.781644381127117"><ele>701.0</ele><time>2026-04-06T07:45:51Z</time></trkpt><trkpt lat="37.710854191465934" lon="14.781630003398318"><ele>701.0</ele><time>2026-04-06T07:45:52Z</time></trkpt><trkpt lat="37.7107809951627" lon="14.781611238105524"><ele>701.0</ele><time>2026-04-06T07:45:53Z</time></trkpt><trkpt lat="37.71071902291754" lon="14.781575048105559"><ele>699.8</ele><time>2026-04-06T07:45:54Z</time></trkpt><trkpt lat="37.710607362221054" lon="14.781565299978045"><ele>698.5999999999999</ele><time>2026-04-06T07:45:56Z</time></trkpt><trkpt lat="37.710535108089786" lon="14.781583148306913"><ele>697.4</ele><time>2026-04-06T07:45:57Z</time></trkpt><trkpt lat="37.71044184403251" lon="14.781622163989617"><ele>696.2</ele><time>2026-04-06T07:45:58Z</time></trkpt><trkpt lat="37.71033806747592" lon="14.781663482556537"><ele>695.0</ele><time>2026-04-06T07:45:59Z</time></trkpt><trkpt lat="37.71021591915213" lon="14.781734602412625"><ele>694.6</ele><time>2026-04-06T07:46:00Z</time></trkpt><trkpt lat="37.710118268726255" lon="14.781787151626709"><ele>694.2</ele><time>2026-04-06T07:46:01Z</time></trkpt><trkpt lat="37.710027449657524" lon="14.781830800423725"><ele>693.8</ele><time>2026-04-06T07:46:02Z</time></trkpt><trkpt lat="37.70993487515383" lon="14.781883165221947"><ele>693.4</ele><time>2026-04-06T07:46:03Z</time></trkpt><trkpt lat="37.70984969738795" lon="14.781927967439993"><ele>693.0</ele><time>2026-04-06T07:46:04Z</time></trkpt><trkpt lat="37.70976650281064" lon="14.781944403004271"><ele>692.6666666666666</ele><time>2026-04-06T07:46:05Z</time></trkpt><trkpt lat="37.70969136658028" lon="14.781972961434267"><ele>692.3333333333334</ele><time>2026-04-06T07:46:06Z</time></trkpt><trkpt lat="37.70961215404759" lon="14.782002881799478"><ele>692.0</ele><time>2026-04-06T07:46:07Z</time></trkpt><trkpt lat="37.70952787867431" lon="14.782038568080928"><ele>691.6666666666667</ele><time>2026-04-06T07:46:08Z</time></trkpt><trkpt lat="37.70944898376429" lon="14.782092508474449"><ele>691.3333333333334</ele><time>2026-04-06T07:46:09Z</time></trkpt><trkpt lat="37.70935983778122" lon="14.782104857213401"><ele>691.0</ele><time>2026-04-06T07:46:10Z</time></trkpt><trkpt lat="37.70928152474553" lon="14.78211721563471"><ele>691.0</ele><time>2026-04-06T07:46:11Z</time></trkpt><trkpt lat="37.70921351889264" lon="14.782121414363798"><ele>691.0</ele><time>2026-04-06T07:46:12.001Z</time></trkpt><trkpt lat="37.70914392433463" lon="14.782097249227787"><ele>691.0</ele><time>2026-04-06T07:46:13.001Z</time></trkpt><trkpt lat="37.70907943109796" lon="14.782141962911192"><ele>691.0</ele><time>2026-04-06T07:46:15.001Z</time></trkpt><trkpt lat="37.708979243934934" lon="14.782172012872351"><ele>691.0</ele><time>2026-04-06T07:46:17.001Z</time></trkpt><trkpt lat="37.7088590533429" lon="14.782198953077556"><ele>691.0</ele><time>2026-04-06T07:46:19.001Z</time></trkpt><trkpt lat="37.708728234646166" lon="14.782163511371392"><ele>691.0</ele><time>2026-04-06T07:46:21.001Z</time></trkpt><trkpt lat="37.7086390140863" lon="14.782144753754901"><ele>691.0</ele><time>2026-04-06T07:46:22.001Z</time></trkpt><trkpt lat="37.708566957736885" lon="14.782127600159964"><ele>691.0</ele><time>2026-04-06T07:46:23.001Z</time></trkpt><trkpt lat="37.70848759201254" lon="14.782102571689279"><ele>691.0</ele><time>2026-04-06T07:46:24.001Z</time></trkpt><trkpt lat="37.70841497439691" lon="14.782072250322317"><ele>691.0</ele><time>2026-04-06T07:46:25.001Z</time></trkpt><trkpt lat="37.7083377571182" lon="14.782083539028632"><ele>691.0</ele><time>2026-04-06T07:46:26.001Z</time></trkpt><trkpt lat="37.708251732869215" lon="14.782105999616359"><ele>694.0</ele><time>2026-04-06T07:46:27.001Z</time></trkpt><trkpt lat="37.708165086441696" lon="14.782144798732103"><ele>697.0</ele><time>2026-04-06T07:46:28Z</time></trkpt><trkpt lat="37.708089297794935" lon="14.782203995122492"><ele>700.0</ele><time>2026-04-06T07:46:29Z</time></trkpt><trkpt lat="37.70802069354354" lon="14.782264253775312"><ele>703.0</ele><time>2026-04-06T07:46:30Z</time></trkpt><trkpt lat="37.70797209133592" lon="14.782317837388673"><ele>706.0</ele><time>2026-04-06T07:46:31Z</time></trkpt><trkpt lat="37.70788675134695" lon="14.782373307376355"><ele>709.0</ele><time>2026-04-06T07:46:33Z</time></trkpt><trkpt lat="37.70780830127727" lon="14.782418055594468"><ele>715.0</ele><time>2026-04-06T07:46:35Z</time></trkpt><trkpt lat="37.707679816897624" lon="14.782433816179292"><ele>721.0</ele><time>2026-04-06T07:46:37Z</time></trkpt><trkpt lat="37.7075781017399" lon="14.782488734439047"><ele>727.0</ele><time>2026-04-06T07:46:39Z</time></trkpt><trkpt lat="37.7075044543872" lon="14.782590018754293"><ele>733.0</ele><time>2026-04-06T07:46:41Z</time></trkpt><trkpt lat="37.70742327441918" lon="14.782677130525167"><ele>733.0</ele><time>2026-04-06T07:46:43Z</time></trkpt><trkpt lat="37.70735487086611" lon="14.782665588007239"><ele>733.0</ele><time>2026-04-06T07:46:44Z</time></trkpt><trkpt lat="37.70729561998882" lon="14.782701029446617"><ele>733.0</ele><time>2026-04-06T07:46:45Z</time></trkpt><trkpt lat="37.70718545672368" lon="14.782721082071985"><ele>733.0</ele><time>2026-04-06T07:46:47Z</time></trkpt><trkpt lat="37.70712105158055" lon="14.782727427393416"><ele>733.0</ele><time>2026-04-06T07:46:48Z</time></trkpt><trkpt lat="37.70701468241047" lon="14.782730643310064"><ele>733.0</ele><time>2026-04-06T07:46:50Z</time></trkpt><trkpt lat="37.70693115000872" lon="14.782773648406506"><ele>732.9999999999999</ele><time>2026-04-06T07:46:52Z</time></trkpt><trkpt lat="37.70686731518521" lon="14.782717943012228"><ele>733.0</ele><time>2026-04-06T07:46:54Z</time></trkpt><trkpt lat="37.70685642101678" lon="14.78280208673844"><ele>733.0</ele><time>2026-04-06T07:46:56Z</time></trkpt><trkpt lat="37.706891379743965" lon="14.782878608774533"><ele>733.0</ele><time>2026-04-06T07:48:01Z</time></trkpt><trkpt lat="37.70688296173678" lon="14.782795737285461"><ele>733.0</ele><time>2026-04-06T07:48:51Z</time></trkpt><trkpt lat="37.70682706470772" lon="14.782743661692125"><ele>732.9999999999999</ele><time>2026-04-06T07:51:38Z</time></trkpt><trkpt lat="37.70675654229461" lon="14.782723952751939"><ele>733.0</ele><time>2026-04-06T07:51:40.999Z</time></trkpt><trkpt lat="37.70666520016431" lon="14.78267613977232"><ele>733.0</ele><time>2026-04-06T07:51:43.999Z</time></trkpt><trkpt lat="37.7065893686111" lon="14.782643486808228"><ele>733.0</ele><time>2026-04-06T07:51:45.999Z</time></trkpt><trkpt lat="37.706479134217695" lon="14.78260713716824"><ele>733.0</ele><time>2026-04-06T07:51:47.999Z</time></trkpt><trkpt lat="37.706366196235166" lon="14.782550272552134"><ele>733.0</ele><time>2026-04-06T07:51:49.999Z</time></trkpt><trkpt lat="37.706294254706435" lon="14.782512639754831"><ele>733.0</ele><time>2026-04-06T07:51:50.999Z</time></trkpt><trkpt lat="37.70622068342107" lon="14.782465196138832"><ele>733.0</ele><time>2026-04-06T07:51:51.999Z</time></trkpt><trkpt lat="37.70615149353154" lon="14.782396201357278"><ele>733.0</ele><time>2026-04-06T07:51:52.999Z</time></trkpt><trkpt lat="37.70608403318139" lon="14.782336609459774"><ele>733.0</ele><time>2026-04-06T07:51:53.999Z</time></trkpt><trkpt lat="37.70602194349307" lon="14.782294820504122"><ele>733.0</ele><time>2026-04-06T07:51:54.999Z</time></trkpt><trkpt lat="37.70592241227693" lon="14.782210072826128"><ele>733.0</ele><time>2026-04-06T07:51:56.999Z</time></trkpt><trkpt lat="37.70581885486739" lon="14.782146938006393"><ele>730.4</ele><time>2026-04-06T07:51:58.999Z</time></trkpt><trkpt lat="37.70569834191765" lon="14.78208925227223"><ele>727.8</ele><time>2026-04-06T07:52:00.999Z</time></trkpt><trkpt lat="37.70557646477923" lon="14.782035762118516"><ele>725.2</ele><time>2026-04-06T07:52:02.999Z</time></trkpt><trkpt lat="37.7055026906343" lon="14.781996288361565"><ele>722.6</ele><time>2026-04-06T07:52:03.999Z</time></trkpt><trkpt lat="37.705433408242065" lon="14.781963006278454"><ele>720.0</ele><time>2026-04-06T07:52:04.999Z</time></trkpt><trkpt lat="37.70536966127491" lon="14.78194137730826"><ele>720.0</ele><time>2026-04-06T07:52:05.999Z</time></trkpt><trkpt lat="37.70529261020364" lon="14.781914582774295"><ele>720.0</ele><time>2026-04-06T07:52:06.999Z</time></trkpt><trkpt lat="37.705207540765386" lon="14.781880393558188"><ele>720.0</ele><time>2026-04-06T07:52:07.999Z</time></trkpt><trkpt lat="37.70511640145503" lon="14.781845418879314"><ele>720.0</ele><time>2026-04-06T07:52:08.999Z</time></trkpt><trkpt lat="37.70503657344252" lon="14.781823851925264"><ele>720.0</ele><time>2026-04-06T07:52:09.999Z</time></trkpt><trkpt lat="37.70496640279696" lon="14.781801314258521"><ele>720.0</ele><time>2026-04-06T07:52:10.999Z</time></trkpt><trkpt lat="37.704890029573896" lon="14.781771579937868"><ele>719.4285714285714</ele><time>2026-04-06T07:52:11.999Z</time></trkpt><trkpt lat="37.70482263699864" lon="14.781752904471771"><ele>718.8571428571429</ele><time>2026-04-06T07:52:12.999Z</time></trkpt><trkpt lat="37.704751033402744" lon="14.781740880337166"><ele>718.2857142857143</ele><time>2026-04-06T07:52:13.999Z</time></trkpt><trkpt lat="37.70467396722552" lon="14.781725473766137"><ele>717.7142857142858</ele><time>2026-04-06T07:52:14.999Z</time></trkpt><trkpt lat="37.704608081022656" lon="14.781717489447868"><ele>717.1428571428571</ele><time>2026-04-06T07:52:15.999Z</time></trkpt><trkpt lat="37.70452943259429" lon="14.781710014979403"><ele>716.5714285714287</ele><time>2026-04-06T07:52:16.999Z</time></trkpt><trkpt lat="37.704464619795495" lon="14.781711183491788"><ele>716.0</ele><time>2026-04-06T07:52:17.999Z</time></trkpt><trkpt lat="37.70438690282082" lon="14.781713133734753"><ele>716.0</ele><time>2026-04-06T07:52:18.999Z</time></trkpt><trkpt lat="37.70430739375678" lon="14.781713171626022"><ele>716.0</ele><time>2026-04-06T07:52:19.999Z</time></trkpt><trkpt lat="37.70423131027504" lon="14.781718723864685"><ele>716.0</ele><time>2026-04-06T07:52:20.999Z</time></trkpt><trkpt lat="37.704163679746166" lon="14.781736592515307"><ele>716.0</ele><time>2026-04-06T07:52:21.999Z</time></trkpt><trkpt lat="37.70409333700326" lon="14.781754714868732"><ele>716.0</ele><time>2026-04-06T07:52:22.999Z</time></trkpt><trkpt lat="37.704029682656696" lon="14.781769448855185"><ele>716.0</ele><time>2026-04-06T07:52:23.999Z</time></trkpt><trkpt lat="37.703920745903034" lon="14.781752649638369"><ele>716.0</ele><time>2026-04-06T07:52:25.999Z</time></trkpt><trkpt lat="37.70380818762984" lon="14.781682376706044"><ele>716.0</ele><time>2026-04-06T07:52:27.999Z</time></trkpt><trkpt lat="37.703711558106384" lon="14.781620611922277"><ele>716.0</ele><time>2026-04-06T07:52:30Z</time></trkpt><trkpt lat="37.7036127841761" lon="14.78156660830225"><ele>716.0</ele><time>2026-04-06T07:52:32Z</time></trkpt><trkpt lat="37.703514989336554" lon="14.781524378281226"><ele>716.0</ele><time>2026-04-06T07:52:34Z</time></trkpt><trkpt lat="37.70340335064521" lon="14.781454896003947"><ele>716.0</ele><time>2026-04-06T07:52:36Z</time></trkpt><trkpt lat="37.70332996293697" lon="14.781407114076426"><ele>716.0</ele><time>2026-04-06T07:52:37Z</time></trkpt><trkpt lat="37.70325756328052" lon="14.781360189351659"><ele>716.0</ele><time>2026-04-06T07:52:38Z</time></trkpt><trkpt lat="37.70318707894981" lon="14.781320530582791"><ele>716.0</ele><time>2026-04-06T07:52:39Z</time></trkpt><trkpt lat="37.70311886197374" lon="14.781280022475771"><ele>716.0</ele><time>2026-04-06T07:52:40Z</time></trkpt><trkpt lat="37.703049444342405" lon="14.781242194363458"><ele>716.0</ele><time>2026-04-06T07:52:41Z</time></trkpt><trkpt lat="37.70297407431138" lon="14.781206049801117"><ele>716.0</ele><time>2026-04-06T07:52:42Z</time></trkpt><trkpt lat="37.70290116939048" lon="14.781173570372024"><ele>716.0</ele><time>2026-04-06T07:52:43Z</time></trkpt><trkpt lat="37.702787652212436" lon="14.781107381167244"><ele>716.0</ele><time>2026-04-06T07:52:45Z</time></trkpt><trkpt lat="37.702705211860625" lon="14.7810616407071"><ele>716.0</ele><time>2026-04-06T07:52:47Z</time></trkpt><trkpt lat="37.70264556421879" lon="14.78112230289961"><ele>716.0</ele><time>2026-04-06T07:52:50Z</time></trkpt><trkpt lat="37.70261824428001" lon="14.781231360187984"><ele>713.5999999999999</ele><time>2026-04-06T07:52:52Z</time></trkpt><trkpt lat="37.70253931479138" lon="14.781330293779416"><ele>711.2</ele><time>2026-04-06T07:52:54Z</time></trkpt><trkpt lat="37.70245154735035" lon="14.78138411179911"><ele>708.8</ele><time>2026-04-06T07:52:56Z</time></trkpt><trkpt lat="37.70235736527898" lon="14.781408875750934"><ele>706.4000000000001</ele><time>2026-04-06T07:52:58Z</time></trkpt><trkpt lat="37.70227820955348" lon="14.781380662732957"><ele>704.0</ele><time>2026-04-06T07:53:01Z</time></trkpt><trkpt lat="37.70212951235209" lon="14.78136119343045"><ele>704.0</ele><time>2026-04-06T07:53:03Z</time></trkpt><trkpt lat="37.70203340273878" lon="14.781385051740592"><ele>704.0</ele><time>2026-04-06T07:53:05Z</time></trkpt><trkpt lat="37.701931432098874" lon="14.781389586325382"><ele>704.0</ele><time>2026-04-06T07:53:07Z</time></trkpt><trkpt lat="37.70180951084412" lon="14.781363112803742"><ele>704.0</ele><time>2026-04-06T07:53:09Z</time></trkpt><trkpt lat="37.70173818227659" lon="14.781358917440693"><ele>704.0</ele><time>2026-04-06T07:53:10Z</time></trkpt><trkpt lat="37.701677115663315" lon="14.781326643751168"><ele>700.0</ele><time>2026-04-06T07:53:11Z</time></trkpt><trkpt lat="37.7016114960607" lon="14.781304632978529"><ele>696.0</ele><time>2026-04-06T07:53:12Z</time></trkpt><trkpt lat="37.70154766256185" lon="14.781295530784384"><ele>692.0</ele><time>2026-04-06T07:53:13Z</time></trkpt><trkpt lat="37.70142317050172" lon="14.781285910553851"><ele>688.0</ele><time>2026-04-06T07:53:15Z</time></trkpt><trkpt lat="37.70132534879311" lon="14.78124123450115"><ele>684.0</ele><time>2026-04-06T07:53:17Z</time></trkpt><trkpt lat="37.70126410107858" lon="14.781213931655083"><ele>680.0</ele><time>2026-04-06T07:53:18Z</time></trkpt><trkpt lat="37.7011416567949" lon="14.781195825878173"><ele>675.6</ele><time>2026-04-06T07:53:20Z</time></trkpt><trkpt lat="37.70106962470232" lon="14.781177922406982"><ele>671.2</ele><time>2026-04-06T07:53:21Z</time></trkpt><trkpt lat="37.70095234580252" lon="14.781139266229086"><ele>666.8</ele><time>2026-04-06T07:53:23Z</time></trkpt><trkpt lat="37.70083150588437" lon="14.78110991538348"><ele>662.4</ele><time>2026-04-06T07:53:25Z</time></trkpt><trkpt lat="37.70073621948779" lon="14.781162934782134"><ele>658.0</ele><time>2026-04-06T07:53:27Z</time></trkpt><trkpt lat="37.700632054145004" lon="14.781261673807943"><ele>658.0</ele><time>2026-04-06T07:53:29Z</time></trkpt><trkpt lat="37.70056449598139" lon="14.781316962457156"><ele>658.0</ele><time>2026-04-06T07:53:30Z</time></trkpt><trkpt lat="37.70051031221905" lon="14.781359913516201"><ele>658.0</ele><time>2026-04-06T07:53:31Z</time></trkpt><trkpt lat="37.70043524208299" lon="14.781479274363463"><ele>658.0</ele><time>2026-04-06T07:53:33Z</time></trkpt><trkpt lat="37.70036658401129" lon="14.781550120918451"><ele>658.0</ele><time>2026-04-06T07:53:35Z</time></trkpt><trkpt lat="37.700343537905894" lon="14.781681776703074"><ele>658.0</ele><time>2026-04-06T07:53:37Z</time></trkpt><trkpt lat="37.70033140919582" lon="14.781766945980756"><ele>658.0</ele><time>2026-04-06T07:53:38Z</time></trkpt><trkpt lat="37.70032290467043" lon="14.781856197003309"><ele>658.0</ele><time>2026-04-06T07:53:39Z</time></trkpt><trkpt lat="37.70032343480174" lon="14.781945210929765"><ele>658.0</ele><time>2026-04-06T07:53:40Z</time></trkpt><trkpt lat="37.700334012678475" lon="14.782030330326712"><ele>658.0</ele><time>2026-04-06T07:53:41Z</time></trkpt><trkpt lat="37.70032851114924" lon="14.78212759048193"><ele>658.0</ele><time>2026-04-06T07:53:42Z</time></trkpt><trkpt lat="37.700305986602935" lon="14.78223360956211"><ele>658.0</ele><time>2026-04-06T07:53:44Z</time></trkpt><trkpt lat="37.70032491406821" lon="14.782395420449742"><ele>657.8</ele><time>2026-04-06T07:53:46Z</time></trkpt><trkpt lat="37.70033888670226" lon="14.7824909146508"><ele>657.5999999999999</ele><time>2026-04-06T07:53:46.999Z</time></trkpt><trkpt lat="37.700357252611276" lon="14.782620665091835"><ele>657.4000000000001</ele><time>2026-04-06T07:53:48.999Z</time></trkpt><trkpt lat="37.70040802395103" lon="14.782745232796948"><ele>657.2</ele><time>2026-04-06T07:53:50.999Z</time></trkpt><trkpt lat="37.70051867469453" lon="14.782834251496052"><ele>657.0</ele><time>2026-04-06T07:53:52.999Z</time></trkpt><trkpt lat="37.70058814310096" lon="14.78287680470974"><ele>654.7142857142857</ele><time>2026-04-06T07:53:53.999Z</time></trkpt><trkpt lat="37.7006427720986" lon="14.78293249061836"><ele>652.4285714285714</ele><time>2026-04-06T07:53:54.999Z</time></trkpt><trkpt lat="37.70069914520391" lon="14.782981442024699"><ele>650.1428571428571</ele><time>2026-04-06T07:53:55.999Z</time></trkpt><trkpt lat="37.700758304530176" lon="14.783031703983474"><ele>647.8571428571429</ele><time>2026-04-06T07:53:56.999Z</time></trkpt><trkpt lat="37.70081804785538" lon="14.783076479334492"><ele>645.5714285714286</ele><time>2026-04-06T07:53:57.999Z</time></trkpt><trkpt lat="37.700881540275994" lon="14.783122672223234"><ele>643.2857142857143</ele><time>2026-04-06T07:53:58.999Z</time></trkpt><trkpt lat="37.700939914617514" lon="14.78316318276402"><ele>641.0</ele><time>2026-04-06T07:53:59.999Z</time></trkpt><trkpt lat="37.700997541211464" lon="14.783211805924697"><ele>641.0</ele><time>2026-04-06T07:54:00.999Z</time></trkpt><trkpt lat="37.701071697383185" lon="14.783267463743837"><ele>641.0</ele><time>2026-04-06T07:54:01.999Z</time></trkpt><trkpt lat="37.701148737669065" lon="14.78332024780423"><ele>641.0</ele><time>2026-04-06T07:54:02.999Z</time></trkpt><trkpt lat="37.70121469722569" lon="14.78337484752373"><ele>641.0</ele><time>2026-04-06T07:54:03.999Z</time></trkpt><trkpt lat="37.70127091185717" lon="14.783441934628371"><ele>641.0</ele><time>2026-04-06T07:54:04.999Z</time></trkpt><trkpt lat="37.70137353908281" lon="14.783548608114618"><ele>641.3333333333333</ele><time>2026-04-06T07:54:06.999Z</time></trkpt><trkpt lat="37.701425308939726" lon="14.783629631944828"><ele>641.6666666666666</ele><time>2026-04-06T07:54:07.999Z</time></trkpt><trkpt lat="37.70144949533127" lon="14.783709266194188"><ele>642.0</ele><time>2026-04-06T07:54:08.999Z</time></trkpt><trkpt lat="37.70147213598672" lon="14.783797359127625"><ele>642.3333333333334</ele><time>2026-04-06T07:54:09.999Z</time></trkpt><trkpt lat="37.70149993447299" lon="14.783881305119522"><ele>642.6666666666667</ele><time>2026-04-06T07:54:10.999Z</time></trkpt><trkpt lat="37.70154680675267" lon="14.78396595593649"><ele>643.0</ele><time>2026-04-06T07:54:11.999Z</time></trkpt><trkpt lat="37.70159788827742" lon="14.784078631389326"><ele>643.0</ele><time>2026-04-06T07:54:12.999Z</time></trkpt><trkpt lat="37.7016402172808" lon="14.784202294001947"><ele>643.0</ele><time>2026-04-06T07:54:13.999Z</time></trkpt><trkpt lat="37.70167224736181" lon="14.784308777768222"><ele>643.0</ele><time>2026-04-06T07:54:14.999Z</time></trkpt><trkpt lat="37.7016961543667" lon="14.784402993713632"><ele>643.0</ele><time>2026-04-06T07:54:15.999Z</time></trkpt><trkpt lat="37.701729385774954" lon="14.784496527462089"><ele>643.0</ele><time>2026-04-06T07:54:16.999Z</time></trkpt><trkpt lat="37.70175445121266" lon="14.784593648728823"><ele>643.0</ele><time>2026-04-06T07:54:17.999Z</time></trkpt><trkpt lat="37.70177110039756" lon="14.784678901250322"><ele>641.3333333333334</ele><time>2026-04-06T07:54:18.999Z</time></trkpt><trkpt lat="37.7017627402593" lon="14.784760041446157"><ele>639.6666666666667</ele><time>2026-04-06T07:54:19.999Z</time></trkpt><trkpt lat="37.70171108005759" lon="14.784806900340772"><ele>638.0</ele><time>2026-04-06T07:54:20.999Z</time></trkpt><trkpt lat="37.701645355613714" lon="14.78487228893305"><ele>636.3333333333334</ele><time>2026-04-06T07:54:21.999Z</time></trkpt><trkpt lat="37.701593621612254" lon="14.784950589181037"><ele>634.6666666666666</ele><time>2026-04-06T07:54:22.999Z</time></trkpt><trkpt lat="37.701536745977876" lon="14.785037948133258"><ele>633.0</ele><time>2026-04-06T07:54:23.999Z</time></trkpt><trkpt lat="37.701486843885775" lon="14.785125851101084"><ele>630.1666666666666</ele><time>2026-04-06T07:54:24.999Z</time></trkpt><trkpt lat="37.701424189028266" lon="14.785217440477625"><ele>627.3333333333334</ele><time>2026-04-06T07:54:25.999Z</time></trkpt><trkpt lat="37.70135391758972" lon="14.785297429542778"><ele>624.5</ele><time>2026-04-06T07:54:26.999Z</time></trkpt><trkpt lat="37.70128258987508" lon="14.785369587462805"><ele>621.6666666666667</ele><time>2026-04-06T07:54:27.999Z</time></trkpt><trkpt lat="37.701228894684505" lon="14.785441696814607"><ele>618.8333333333334</ele><time>2026-04-06T07:54:28.999Z</time></trkpt><trkpt lat="37.70118436862085" lon="14.785522059903021"><ele>616.0</ele><time>2026-04-06T07:54:29.999Z</time></trkpt><trkpt lat="37.70110444315135" lon="14.785626624577635"><ele>616.5</ele><time>2026-04-06T07:54:31.999Z</time></trkpt><trkpt lat="37.70104336639042" lon="14.7856497022605"><ele>617.0</ele><time>2026-04-06T07:54:32.999Z</time></trkpt><trkpt lat="37.70097827169763" lon="14.785665424319891"><ele>617.5</ele><time>2026-04-06T07:54:33.999Z</time></trkpt><trkpt lat="37.700921216526496" lon="14.785701002138552"><ele>618.0</ele><time>2026-04-06T07:54:34.999Z</time></trkpt><trkpt lat="37.70082941991374" lon="14.785810568468172"><ele>618.5</ele><time>2026-04-06T07:54:37Z</time></trkpt><trkpt lat="37.700758713590545" lon="14.785843926511772"><ele>619.0</ele><time>2026-04-06T07:54:38Z</time></trkpt><trkpt lat="37.70065994196368" lon="14.78591893695652"><ele>619.0</ele><time>2026-04-06T07:54:40Z</time></trkpt><trkpt lat="37.70054468769761" lon="14.785958535848685"><ele>619.0</ele><time>2026-04-06T07:54:42Z</time></trkpt><trkpt lat="37.700430798608004" lon="14.786001769937029"><ele>619.0</ele><time>2026-04-06T07:54:44Z</time></trkpt><trkpt lat="37.70039649332012" lon="14.786069908414786"><ele>619.0</ele><time>2026-04-06T07:57:47Z</time></trkpt><trkpt lat="37.70032279210565" lon="14.786173131976671"><ele>619.0</ele><time>2026-04-06T07:57:51Z</time></trkpt><trkpt lat="37.70025527320859" lon="14.786222335827224"><ele>614.6</ele><time>2026-04-06T07:57:52Z</time></trkpt><trkpt lat="37.70018228757942" lon="14.786229594852536"><ele>610.2</ele><time>2026-04-06T07:57:53Z</time></trkpt><trkpt lat="37.7001013996165" lon="14.786156170130738"><ele>605.8000000000001</ele><time>2026-04-06T07:57:54Z</time></trkpt><trkpt lat="37.699986736278525" lon="14.786142029987241"><ele>601.4</ele><time>2026-04-06T07:57:55Z</time></trkpt><trkpt lat="37.69990133243454" lon="14.786086035606298"><ele>597.0</ele><time>2026-04-06T07:57:56Z</time></trkpt><trkpt lat="37.69982676511317" lon="14.786043105359397"><ele>597.0000000000001</ele><time>2026-04-06T07:57:57Z</time></trkpt><trkpt lat="37.699760620474656" lon="14.786018430526394"><ele>597.0</ele><time>2026-04-06T07:57:58Z</time></trkpt><trkpt lat="37.699697630861266" lon="14.786001936521105"><ele>597.0</ele><time>2026-04-06T07:57:59Z</time></trkpt><trkpt lat="37.69963189889534" lon="14.785995295034645"><ele>597.0</ele><time>2026-04-06T07:58:00Z</time></trkpt><trkpt lat="37.69956430419338" lon="14.785983446550157"><ele>597.0</ele><time>2026-04-06T07:58:01Z</time></trkpt><trkpt lat="37.69949535585718" lon="14.785972885420714"><ele>597.0000000000001</ele><time>2026-04-06T07:58:02Z</time></trkpt><trkpt lat="37.69942802209493" lon="14.78595686458501"><ele>597.0</ele><time>2026-04-06T07:58:03Z</time></trkpt><trkpt lat="37.6993614677894" lon="14.785944770239146"><ele>597.2</ele><time>2026-04-06T07:58:04Z</time></trkpt><trkpt lat="37.699262233655645" lon="14.785929288829275"><ele>597.4000000000001</ele><time>2026-04-06T07:58:06Z</time></trkpt><trkpt lat="37.69919323609307" lon="14.785810499799666"><ele>597.5999999999999</ele><time>2026-04-06T07:58:08Z</time></trkpt><trkpt lat="37.69913535717839" lon="14.78577784073243"><ele>597.8</ele><time>2026-04-06T07:58:09Z</time></trkpt><trkpt lat="37.69905613085434" lon="14.785700234944489"><ele>598.0</ele><time>2026-04-06T07:58:11Z</time></trkpt><trkpt lat="37.69895464363353" lon="14.785721634551065"><ele>598.0</ele><time>2026-04-06T07:58:12.999Z</time></trkpt><trkpt lat="37.698896138439075" lon="14.78584654145777"><ele>598.0</ele><time>2026-04-06T07:58:14.999Z</time></trkpt><trkpt lat="37.69882620336349" lon="14.785983313379385"><ele>598.0</ele><time>2026-04-06T07:58:16.999Z</time></trkpt><trkpt lat="37.698782122858404" lon="14.78605256611517"><ele>598.0</ele><time>2026-04-06T07:58:17.999Z</time></trkpt><trkpt lat="37.69869747817895" lon="14.786158918986064"><ele>598.0</ele><time>2026-04-06T07:58:19.999Z</time></trkpt><trkpt lat="37.69857790018755" lon="14.786174681133907"><ele>594.6</ele><time>2026-04-06T07:58:21.999Z</time></trkpt><trkpt lat="37.69846818898542" lon="14.786228994360709"><ele>591.1999999999999</ele><time>2026-04-06T07:58:23.999Z</time></trkpt><trkpt lat="37.69843253566098" lon="14.786307054845796"><ele>587.8</ele><time>2026-04-06T07:58:24.999Z</time></trkpt><trkpt lat="37.69843860078679" lon="14.786402660060087"><ele>584.4</ele><time>2026-04-06T07:58:25.999Z</time></trkpt><trkpt lat="37.698457962206724" lon="14.786494970042392"><ele>581.0</ele><time>2026-04-06T07:58:26.999Z</time></trkpt><trkpt lat="37.698466669486706" lon="14.786651535778116"><ele>581.0</ele><time>2026-04-06T07:58:28.999Z</time></trkpt><trkpt lat="37.698477222330396" lon="14.786783121154576"><ele>581.0</ele><time>2026-04-06T07:58:30.999Z</time></trkpt><trkpt lat="37.69843525253015" lon="14.786890854825415"><ele>581.0</ele><time>2026-04-06T07:58:32.999Z</time></trkpt><trkpt lat="37.698353093946906" lon="14.786935318910453"><ele>581.0</ele><time>2026-04-06T07:58:34.999Z</time></trkpt><trkpt lat="37.69827103605784" lon="14.78694299464942"><ele>581.0</ele><time>2026-04-06T07:58:35.999Z</time></trkpt><trkpt lat="37.69817770877445" lon="14.786975951969586"><ele>579.5</ele><time>2026-04-06T07:58:36.999Z</time></trkpt><trkpt lat="37.698124251337866" lon="14.787084601786374"><ele>578.0</ele><time>2026-04-06T07:58:38.999Z</time></trkpt><trkpt lat="37.69806362794268" lon="14.787172731351218"><ele>576.5</ele><time>2026-04-06T07:58:40.999Z</time></trkpt><trkpt lat="37.69800718027401" lon="14.78722103802319"><ele>575.0</ele><time>2026-04-06T07:58:41.999Z</time></trkpt><trkpt lat="37.69794682922313" lon="14.787294167011693"><ele>573.5</ele><time>2026-04-06T07:58:42.999Z</time></trkpt><trkpt lat="37.69789145986379" lon="14.787365789592874"><ele>572.0</ele><time>2026-04-06T07:58:43.999Z</time></trkpt><trkpt lat="37.69783852967742" lon="14.78744942989787"><ele>572.0</ele><time>2026-04-06T07:58:44.999Z</time></trkpt><trkpt lat="37.69778029918986" lon="14.787538870323532"><ele>572.0</ele><time>2026-04-06T07:58:45.999Z</time></trkpt><trkpt lat="37.69770957645761" lon="14.787652831505238"><ele>572.0</ele><time>2026-04-06T07:58:46.999Z</time></trkpt><trkpt lat="37.69765437151927" lon="14.787752831780855"><ele>572.0</ele><time>2026-04-06T07:58:48Z</time></trkpt><trkpt lat="37.69760987857705" lon="14.787835723477148"><ele>572.0</ele><time>2026-04-06T07:58:49Z</time></trkpt><trkpt lat="37.69754769259426" lon="14.78790493728584"><ele>571.2</ele><time>2026-04-06T07:58:50Z</time></trkpt><trkpt lat="37.69745129145059" lon="14.787967139081525"><ele>570.4000000000001</ele><time>2026-04-06T07:58:52Z</time></trkpt><trkpt lat="37.69736260034437" lon="14.788024049429142"><ele>569.5999999999999</ele><time>2026-04-06T07:58:54Z</time></trkpt><trkpt lat="37.69726359775607" lon="14.7879802027058"><ele>568.8</ele><time>2026-04-06T07:58:56Z</time></trkpt><trkpt lat="37.69714269212084" lon="14.787959812189646"><ele>568.0</ele><time>2026-04-06T07:58:58Z</time></trkpt><trkpt lat="37.69707821113695" lon="14.787963117433357"><ele>568.0</ele><time>2026-04-06T07:58:59Z</time></trkpt><trkpt lat="37.697009472350075" lon="14.787972781201502"><ele>568.0</ele><time>2026-04-06T07:59:00Z</time></trkpt><trkpt lat="37.69693644215694" lon="14.787982651313257"><ele>568.0</ele><time>2026-04-06T07:59:01Z</time></trkpt><trkpt lat="37.69687234923612" lon="14.788009681059593"><ele>568.0</ele><time>2026-04-06T07:59:02Z</time></trkpt><trkpt lat="37.69675122378453" lon="14.787997855715128"><ele>568.0</ele><time>2026-04-06T07:59:04Z</time></trkpt><trkpt lat="37.69664185359399" lon="14.787986338476061"><ele>568.0</ele><time>2026-04-06T07:59:06Z</time></trkpt><trkpt lat="37.69653853333772" lon="14.787919341541397"><ele>566.8333333333334</ele><time>2026-04-06T07:59:08Z</time></trkpt><trkpt lat="37.69646202636091" lon="14.7878949201472"><ele>565.6666666666667</ele><time>2026-04-06T07:59:09Z</time></trkpt><trkpt lat="37.6963934852814" lon="14.787846173146308"><ele>564.5</ele><time>2026-04-06T07:59:10Z</time></trkpt><trkpt lat="37.69633126021673" lon="14.787818225454723"><ele>563.3333333333334</ele><time>2026-04-06T07:59:11Z</time></trkpt><trkpt lat="37.69623806568738" lon="14.787788852679691"><ele>562.1666666666666</ele><time>2026-04-06T07:59:12Z</time></trkpt><trkpt lat="37.69617304599983" lon="14.787765365585392"><ele>561.0</ele><time>2026-04-06T07:59:13Z</time></trkpt><trkpt lat="37.696093621508815" lon="14.787731071478698"><ele>560.6666666666666</ele><time>2026-04-06T07:59:14Z</time></trkpt><trkpt lat="37.696025748893305" lon="14.787715651535349"><ele>560.3333333333334</ele><time>2026-04-06T07:59:15Z</time></trkpt><trkpt lat="37.69595323497422" lon="14.78767671986814"><ele>560.0</ele><time>2026-04-06T07:59:16Z</time></trkpt><trkpt lat="37.69586279397736" lon="14.787668584336593"><ele>559.6666666666667</ele><time>2026-04-06T07:59:17Z</time></trkpt><trkpt lat="37.69579265710095" lon="14.787649759957018"><ele>559.3333333333334</ele><time>2026-04-06T07:59:18Z</time></trkpt><trkpt lat="37.695718016393016" lon="14.787633025201727"><ele>559.0</ele><time>2026-04-06T07:59:19Z</time></trkpt><trkpt lat="37.69561915321388" lon="14.787660666981443"><ele>559.0</ele><time>2026-04-06T07:59:20Z</time></trkpt><trkpt lat="37.69552239921711" lon="14.787678637610322"><ele>559.0</ele><time>2026-04-06T07:59:21Z</time></trkpt><trkpt lat="37.695428958419505" lon="14.78769054891967"><ele>559.0</ele><time>2026-04-06T07:59:22Z</time></trkpt><trkpt lat="37.69536264022269" lon="14.787689021068838"><ele>559.0</ele><time>2026-04-06T07:59:23Z</time></trkpt><trkpt lat="37.69527222023718" lon="14.787659030426607"><ele>559.0</ele><time>2026-04-06T07:59:25Z</time></trkpt><trkpt lat="37.69518734150583" lon="14.787658199222005"><ele>559.0</ele><time>2026-04-06T07:59:28Z</time></trkpt><trkpt lat="37.69507125768315" lon="14.787867397840582"><ele>556.1666666666667</ele><time>2026-04-06T07:59:30Z</time></trkpt><trkpt lat="37.69500121427094" lon="14.78791405244285"><ele>553.3333333333334</ele><time>2026-04-06T07:59:31Z</time></trkpt><trkpt lat="37.69492172076714" lon="14.788007735029638"><ele>550.5</ele><time>2026-04-06T07:59:33Z</time></trkpt><trkpt lat="37.69487592486975" lon="14.788146989523304"><ele>547.6666666666666</ele><time>2026-04-06T07:59:35Z</time></trkpt><trkpt lat="37.69482593314598" lon="14.788217692434111"><ele>544.8333333333333</ele><time>2026-04-06T07:59:36Z</time></trkpt><trkpt lat="37.694772817865456" lon="14.788267261745723"><ele>542.0</ele><time>2026-04-06T07:59:37Z</time></trkpt><trkpt lat="37.69468212538288" lon="14.788220733713171"><ele>542.0</ele><time>2026-04-06T07:59:39Z</time></trkpt><trkpt lat="37.694631655524006" lon="14.7881717174999"><ele>542.0</ele><time>2026-04-06T07:59:40Z</time></trkpt><trkpt lat="37.6945763262161" lon="14.788109929420944"><ele>542.0</ele><time>2026-04-06T07:59:41Z</time></trkpt><trkpt lat="37.69450807805317" lon="14.788063233624516"><ele>542.0</ele><time>2026-04-06T07:59:42Z</time></trkpt><trkpt lat="37.69442519794519" lon="14.788032357045573"><ele>542.0</ele><time>2026-04-06T07:59:43Z</time></trkpt><trkpt lat="37.69435825775919" lon="14.788039971430939"><ele>542.0</ele><time>2026-04-06T07:59:44Z</time></trkpt><trkpt lat="37.69428649204158" lon="14.788059592959682"><ele>542.0</ele><time>2026-04-06T07:59:45Z</time></trkpt><trkpt lat="37.69421115199072" lon="14.7880461777888"><ele>540.8000000000001</ele><time>2026-04-06T07:59:46Z</time></trkpt><trkpt lat="37.69413908225959" lon="14.787980904962685"><ele>539.6</ele><time>2026-04-06T07:59:47Z</time></trkpt><trkpt lat="37.69404321216242" lon="14.78791111547338"><ele>538.4000000000001</ele><time>2026-04-06T07:59:48Z</time></trkpt><trkpt lat="37.69394795105565" lon="14.78786232380626"><ele>537.2</ele><time>2026-04-06T07:59:49Z</time></trkpt><trkpt lat="37.693867015053684" lon="14.78782941711426"><ele>536.0</ele><time>2026-04-06T07:59:50Z</time></trkpt><trkpt lat="37.693792550717525" lon="14.787776856418935"><ele>536.0</ele><time>2026-04-06T07:59:51Z</time></trkpt><trkpt lat="37.69370300233984" lon="14.787722246575742"><ele>536.0</ele><time>2026-04-06T07:59:52Z</time></trkpt><trkpt lat="37.69359635564036" lon="14.787666034639917"><ele>536.0</ele><time>2026-04-06T07:59:53Z</time></trkpt><trkpt lat="37.693500884808465" lon="14.787616637482714"><ele>536.0</ele><time>2026-04-06T07:59:54Z</time></trkpt><trkpt lat="37.693425436043746" lon="14.787572772047815"><ele>536.0</ele><time>2026-04-06T07:59:55Z</time></trkpt><trkpt lat="37.69336683978432" lon="14.78752012163835"><ele>534.2</ele><time>2026-04-06T07:59:56Z</time></trkpt><trkpt lat="37.69331338227732" lon="14.787453410204337"><ele>532.4000000000001</ele><time>2026-04-06T07:59:57Z</time></trkpt><trkpt lat="37.6932779926404" lon="14.787378910242833"><ele>530.6</ele><time>2026-04-06T07:59:58Z</time></trkpt><trkpt lat="37.69327416117271" lon="14.787226522628613"><ele>528.8000000000001</ele><time>2026-04-06T08:00:00Z</time></trkpt><trkpt lat="37.6932598669922" lon="14.787073540142806"><ele>527.0</ele><time>2026-04-06T08:00:02Z</time></trkpt><trkpt lat="37.69324460360897" lon="14.78697992355952"><ele>527.0</ele><time>2026-04-06T08:00:03Z</time></trkpt><trkpt lat="37.69322634183527" lon="14.786882943673216"><ele>527.0</ele><time>2026-04-06T08:00:04Z</time></trkpt><trkpt lat="37.69320506822731" lon="14.786782291051669"><ele>527.0</ele><time>2026-04-06T08:00:05Z</time></trkpt><trkpt lat="37.69319312372338" lon="14.786694831224578"><ele>527.0</ele><time>2026-04-06T08:00:05.999Z</time></trkpt><trkpt lat="37.69311580189137" lon="14.786590693040344"><ele>527.0</ele><time>2026-04-06T08:00:07.999Z</time></trkpt><trkpt lat="37.69302717060632" lon="14.78652929618158"><ele>527.0</ele><time>2026-04-06T08:00:09.999Z</time></trkpt><trkpt lat="37.69292346228584" lon="14.786563015588436"><ele>525.0</ele><time>2026-04-06T08:00:11.999Z</time></trkpt><trkpt lat="37.692870204571896" lon="14.786606890567567"><ele>523.0</ele><time>2026-04-06T08:00:12.999Z</time></trkpt><trkpt lat="37.69275815559819" lon="14.786662274588759"><ele>521.0</ele><time>2026-04-06T08:00:14.999Z</time></trkpt><trkpt lat="37.69268029034745" lon="14.786714260194248"><ele>519.0</ele><time>2026-04-06T08:00:15.999Z</time></trkpt><trkpt lat="37.69258113205789" lon="14.786782254435826"><ele>517.0</ele><time>2026-04-06T08:00:16.999Z</time></trkpt><trkpt lat="37.69247781855036" lon="14.786849079165563"><ele>515.2</ele><time>2026-04-06T08:00:17.999Z</time></trkpt><trkpt lat="37.69238676643174" lon="14.78689900553806"><ele>513.4000000000001</ele><time>2026-04-06T08:00:18.999Z</time></trkpt><trkpt lat="37.692302935959006" lon="14.786947437161624"><ele>511.59999999999997</ele><time>2026-04-06T08:00:19.999Z</time></trkpt><trkpt lat="37.692227810444415" lon="14.78699335085585"><ele>509.79999999999995</ele><time>2026-04-06T08:00:20.999Z</time></trkpt><trkpt lat="37.692143652878784" lon="14.787046555147494"><ele>508.0</ele><time>2026-04-06T08:00:21.999Z</time></trkpt><trkpt lat="37.69205111421044" lon="14.787115461633894"><ele>508.0</ele><time>2026-04-06T08:00:22.999Z</time></trkpt><trkpt lat="37.69194693596561" lon="14.787173977524924"><ele>507.99999999999994</ele><time>2026-04-06T08:00:23.999Z</time></trkpt><trkpt lat="37.69185436291679" lon="14.78722987296915"><ele>507.99999999999994</ele><time>2026-04-06T08:00:24.999Z</time></trkpt><trkpt lat="37.6917626768414" lon="14.78727081371636"><ele>508.0</ele><time>2026-04-06T08:00:25.999Z</time></trkpt><trkpt lat="37.691670147945175" lon="14.787298331087351"><ele>508.0</ele><time>2026-04-06T08:00:26.999Z</time></trkpt><trkpt lat="37.69157676725645" lon="14.787313927902495"><ele>505.33333333333337</ele><time>2026-04-06T08:00:27.999Z</time></trkpt><trkpt lat="37.6914918656512" lon="14.787323145791165"><ele>502.6666666666667</ele><time>2026-04-06T08:00:28.999Z</time></trkpt><trkpt lat="37.69140547124188" lon="14.787327426217733"><ele>500.0</ele><time>2026-04-06T08:00:29.999Z</time></trkpt><trkpt lat="37.69132192676115" lon="14.787329582240893"><ele>497.33333333333337</ele><time>2026-04-06T08:00:30.999Z</time></trkpt><trkpt lat="37.69122582880001" lon="14.787334957751407"><ele>494.6666666666667</ele><time>2026-04-06T08:00:31.999Z</time></trkpt><trkpt lat="37.691146938483016" lon="14.787302872838724"><ele>492.0</ele><time>2026-04-06T08:00:32.999Z</time></trkpt><trkpt lat="37.69107062183108" lon="14.787269628324529"><ele>490.3333333333333</ele><time>2026-04-06T08:00:33.999Z</time></trkpt><trkpt lat="37.69100626197863" lon="14.787214355071924"><ele>488.66666666666663</ele><time>2026-04-06T08:00:34.999Z</time></trkpt><trkpt lat="37.69094605310533" lon="14.787133555817753"><ele>487.0</ele><time>2026-04-06T08:00:35.999Z</time></trkpt><trkpt lat="37.69088320393324" lon="14.787048446662537"><ele>485.3333333333333</ele><time>2026-04-06T08:00:36.999Z</time></trkpt><trkpt lat="37.69081539399539" lon="14.78698620691059"><ele>483.66666666666663</ele><time>2026-04-06T08:00:37.999Z</time></trkpt><trkpt lat="37.69076637081617" lon="14.786911732312399"><ele>482.0</ele><time>2026-04-06T08:00:38.999Z</time></trkpt><trkpt lat="37.69070864449377" lon="14.78683972001644"><ele>481.20000000000005</ele><time>2026-04-06T08:00:39.999Z</time></trkpt><trkpt lat="37.690635271664675" lon="14.786764804299631"><ele>480.40000000000003</ele><time>2026-04-06T08:00:40.999Z</time></trkpt><trkpt lat="37.6905462611571" lon="14.7866846195593"><ele>479.59999999999997</ele><time>2026-04-06T08:00:41.999Z</time></trkpt><trkpt lat="37.69047531859285" lon="14.786584192478468"><ele>478.79999999999995</ele><time>2026-04-06T08:00:42.999Z</time></trkpt><trkpt lat="37.690387332906155" lon="14.786518008747521"><ele>478.0</ele><time>2026-04-06T08:00:43.999Z</time></trkpt><trkpt lat="37.69031342860255" lon="14.786435074174543"><ele>476.0</ele><time>2026-04-06T08:00:44.999Z</time></trkpt><trkpt lat="37.69024171765068" lon="14.786339621488485"><ele>474.0</ele><time>2026-04-06T08:00:45.999Z</time></trkpt><trkpt lat="37.69016152611775" lon="14.78625530292422"><ele>472.0</ele><time>2026-04-06T08:00:46.999Z</time></trkpt><trkpt lat="37.69007016957709" lon="14.786158819723536"><ele>470.0</ele><time>2026-04-06T08:00:47.999Z</time></trkpt><trkpt lat="37.6899665543154" lon="14.786047894883904"><ele>468.5</ele><time>2026-04-06T08:00:48.999Z</time></trkpt><trkpt lat="37.68986913790199" lon="14.785942039172276"><ele>467.0</ele><time>2026-04-06T08:00:49.999Z</time></trkpt><trkpt lat="37.6897709232083" lon="14.785828207931516"><ele>465.5</ele><time>2026-04-06T08:00:50.999Z</time></trkpt><trkpt lat="37.68966975965011" lon="14.785722583444661"><ele>464.0</ele><time>2026-04-06T08:00:51.999Z</time></trkpt><trkpt lat="37.689589241025494" lon="14.785615017852708"><ele>464.0</ele><time>2026-04-06T08:00:52.999Z</time></trkpt><trkpt lat="37.68949338883257" lon="14.785533116284556"><ele>464.0</ele><time>2026-04-06T08:00:54Z</time></trkpt><trkpt lat="37.68942061285926" lon="14.785444191016744"><ele>464.0</ele><time>2026-04-06T08:00:55Z</time></trkpt><trkpt lat="37.68935014161464" lon="14.785357060606238"><ele>464.0</ele><time>2026-04-06T08:00:56Z</time></trkpt><trkpt lat="37.68927473324061" lon="14.785269189483467"><ele>464.0</ele><time>2026-04-06T08:00:57Z</time></trkpt><trkpt lat="37.689204494953366" lon="14.785199725684699"><ele>462.66666666666663</ele><time>2026-04-06T08:00:58Z</time></trkpt><trkpt lat="37.6891497459562" lon="14.785138199726008"><ele>461.3333333333333</ele><time>2026-04-06T08:00:59Z</time></trkpt><trkpt lat="37.689027569705615" lon="14.785144134262099"><ele>460.0</ele><time>2026-04-06T08:01:01Z</time></trkpt><trkpt lat="37.688951855515725" lon="14.785241658978842"><ele>458.66666666666663</ele><time>2026-04-06T08:01:03Z</time></trkpt><trkpt lat="37.68893443936194" lon="14.785319760604915"><ele>457.3333333333333</ele><time>2026-04-06T08:01:04Z</time></trkpt><trkpt lat="37.68890069251631" lon="14.785406834433486"><ele>456.0</ele><time>2026-04-06T08:01:05Z</time></trkpt><trkpt lat="37.68888194261257" lon="14.78550666442511"><ele>456.0</ele><time>2026-04-06T08:01:06Z</time></trkpt><trkpt lat="37.68887888636361" lon="14.785596299176"><ele>455.99999999999994</ele><time>2026-04-06T08:01:07Z</time></trkpt><trkpt lat="37.68886831673651" lon="14.78568624975572"><ele>456.0</ele><time>2026-04-06T08:01:08Z</time></trkpt><trkpt lat="37.68884256903493" lon="14.785767508074452"><ele>456.0</ele><time>2026-04-06T08:01:09Z</time></trkpt><trkpt lat="37.68884756795743" lon="14.78585177928489"><ele>455.99999999999994</ele><time>2026-04-06T08:01:10Z</time></trkpt><trkpt lat="37.68882725221363" lon="14.785968583345259"><ele>456.0</ele><time>2026-04-06T08:01:12Z</time></trkpt><trkpt lat="37.688797710642206" lon="14.786056307311878"><ele>456.0</ele><time>2026-04-06T08:01:16Z</time></trkpt><trkpt lat="37.688740717095406" lon="14.786094740987611"><ele>456.0</ele><time>2026-04-06T08:01:19Z</time></trkpt><trkpt lat="37.688691721558" lon="14.785937074262035"><ele>456.0</ele><time>2026-04-06T08:01:20Z</time></trkpt><trkpt lat="37.68865783255843" lon="14.785853769394627"><ele>456.0</ele><time>2026-04-06T08:01:21Z</time></trkpt><trkpt lat="37.68860601063651" lon="14.78577260364414"><ele>456.0</ele><time>2026-04-06T08:01:22Z</time></trkpt><trkpt lat="37.68857912919347" lon="14.785663688658712"><ele>456.0</ele><time>2026-04-06T08:01:23Z</time></trkpt><trkpt lat="37.68855554184501" lon="14.78554223621906"><ele>452.0</ele><time>2026-04-06T08:01:24Z</time></trkpt><trkpt lat="37.68854999939161" lon="14.785433559915507"><ele>448.0</ele><time>2026-04-06T08:01:25Z</time></trkpt><trkpt lat="37.68855327994143" lon="14.78532108287241"><ele>444.0</ele><time>2026-04-06T08:01:26Z</time></trkpt><trkpt lat="37.68855915812901" lon="14.785184524814984"><ele>440.0</ele><time>2026-04-06T08:01:27Z</time></trkpt><trkpt lat="37.68855428266156" lon="14.785029726159046"><ele>436.0</ele><time>2026-04-06T08:01:28Z</time></trkpt><trkpt lat="37.68854312494681" lon="14.784859737874099"><ele>436.0</ele><time>2026-04-06T08:01:29Z</time></trkpt><trkpt lat="37.68853877619256" lon="14.784713318523764"><ele>436.0</ele><time>2026-04-06T08:01:30Z</time></trkpt><trkpt lat="37.68854298116645" lon="14.784590190198223"><ele>436.0</ele><time>2026-04-06T08:01:31Z</time></trkpt><trkpt lat="37.688544519832995" lon="14.784474846975284"><ele>436.0</ele><time>2026-04-06T08:01:32Z</time></trkpt><trkpt lat="37.688544189238684" lon="14.784373086333689"><ele>436.0</ele><time>2026-04-06T08:01:33Z</time></trkpt><trkpt lat="37.688542422547016" lon="14.784276289177889"><ele>436.00000000000006</ele><time>2026-04-06T08:01:34Z</time></trkpt><trkpt lat="37.68855980397729" lon="14.784194116540174"><ele>436.0</ele><time>2026-04-06T08:01:37Z</time></trkpt><trkpt lat="37.688625796026294" lon="14.784312424003021"><ele>436.0</ele><time>2026-04-06T08:01:38Z</time></trkpt><trkpt lat="37.68871991430063" lon="14.784282429921635"><ele>436.0</ele><time>2026-04-06T08:01:40Z</time></trkpt><trkpt lat="37.68878580597589" lon="14.784286853832723"><ele>436.00000000000006</ele><time>2026-04-06T08:01:41Z</time></trkpt><trkpt lat="37.688871028459936" lon="14.784265221220826"><ele>436.0</ele><time>2026-04-06T08:01:42Z</time></trkpt><trkpt lat="37.688980327617536" lon="14.784261624168202"><ele>436.0</ele><time>2026-04-06T08:01:43Z</time></trkpt><trkpt lat="37.68907780873997" lon="14.784249913931419"><ele>436.0</ele><time>2026-04-06T08:01:44Z</time></trkpt><trkpt lat="37.68918209369349" lon="14.784252770430767"><ele>436.0</ele><time>2026-04-06T08:01:45Z</time></trkpt><trkpt lat="37.68928954165134" lon="14.784245733962042"><ele>436.0</ele><time>2026-04-06T08:01:46Z</time></trkpt><trkpt lat="37.6893965135219" lon="14.78421189492087"><ele>436.0</ele><time>2026-04-06T08:01:47Z</time></trkpt><trkpt lat="37.68949346510674" lon="14.784166951766231"><ele>437.20000000000005</ele><time>2026-04-06T08:01:48Z</time></trkpt><trkpt lat="37.68959599849763" lon="14.784124426878114"><ele>438.40000000000003</ele><time>2026-04-06T08:01:49Z</time></trkpt><trkpt lat="37.6896952235187" lon="14.784107238873581"><ele>439.6</ele><time>2026-04-06T08:01:50Z</time></trkpt><trkpt lat="37.68979314086513" lon="14.784082158137343"><ele>440.8</ele><time>2026-04-06T08:01:51Z</time></trkpt><trkpt lat="37.689889944435215" lon="14.784043717972295"><ele>442.0</ele><time>2026-04-06T08:01:52Z</time></trkpt><trkpt lat="37.689982429858524" lon="14.784010341607065"><ele>442.00000000000006</ele><time>2026-04-06T08:01:53Z</time></trkpt><trkpt lat="37.69005156871683" lon="14.783965228698008"><ele>442.0</ele><time>2026-04-06T08:01:54Z</time></trkpt><trkpt lat="37.69010503590328" lon="14.783915327272334"><ele>442.0</ele><time>2026-04-06T08:01:55Z</time></trkpt><trkpt lat="37.69014241309659" lon="14.783839722693438"><ele>442.0</ele><time>2026-04-06T08:01:56Z</time></trkpt><trkpt lat="37.69018870083575" lon="14.783742378784149"><ele>442.00000000000006</ele><time>2026-04-06T08:01:57Z</time></trkpt><trkpt lat="37.69022718851602" lon="14.783636724403902"><ele>442.0</ele><time>2026-04-06T08:01:58Z</time></trkpt><trkpt lat="37.69024989066075" lon="14.783512725677026"><ele>444.5</ele><time>2026-04-06T08:01:59Z</time></trkpt><trkpt lat="37.69025908721879" lon="14.78337193195287"><ele>447.0</ele><time>2026-04-06T08:02:00Z</time></trkpt><trkpt lat="37.69025522301529" lon="14.78321957091202"><ele>449.5</ele><time>2026-04-06T08:02:01Z</time></trkpt><trkpt lat="37.6902470034079" lon="14.783057716388427"><ele>452.0</ele><time>2026-04-06T08:02:01.999Z</time></trkpt><trkpt lat="37.69024472540718" lon="14.782909305424926"><ele>450.6</ele><time>2026-04-06T08:02:02.999Z</time></trkpt><trkpt lat="37.69023345959583" lon="14.782773640879178"><ele>449.20000000000005</ele><time>2026-04-06T08:02:03.999Z</time></trkpt><trkpt lat="37.69023464534243" lon="14.782647166902555"><ele>447.8</ele><time>2026-04-06T08:02:04.999Z</time></trkpt><trkpt lat="37.69024931680328" lon="14.782516119063663"><ele>446.4</ele><time>2026-04-06T08:02:05.999Z</time></trkpt><trkpt lat="37.690277649910925" lon="14.782390196190235"><ele>445.0</ele><time>2026-04-06T08:02:06.999Z</time></trkpt><trkpt lat="37.69031765187939" lon="14.782263545822289"><ele>445.0</ele><time>2026-04-06T08:02:07.999Z</time></trkpt><trkpt lat="37.69036677716654" lon="14.782147851937598"><ele>445.0</ele><time>2026-04-06T08:02:08.999Z</time></trkpt><trkpt lat="37.69041609352788" lon="14.782053746999315"><ele>445.0</ele><time>2026-04-06T08:02:09.999Z</time></trkpt><trkpt lat="37.69046600228355" lon="14.781974871780204"><ele>445.0</ele><time>2026-04-06T08:02:10.999Z</time></trkpt><trkpt lat="37.69052303272145" lon="14.781871848085183"><ele>445.0</ele><time>2026-04-06T08:02:11.999Z</time></trkpt><trkpt lat="37.69058206544133" lon="14.781745227609655"><ele>441.8</ele><time>2026-04-06T08:02:12.999Z</time></trkpt><trkpt lat="37.6906303881935" lon="14.781616187479633"><ele>438.6</ele><time>2026-04-06T08:02:13.999Z</time></trkpt><trkpt lat="37.69068683564348" lon="14.781499546054489"><ele>435.4</ele><time>2026-04-06T08:02:14.999Z</time></trkpt><trkpt lat="37.69073882406684" lon="14.781396406576187"><ele>432.2</ele><time>2026-04-06T08:02:15.999Z</time></trkpt><trkpt lat="37.6907796848795" lon="14.781280467730406"><ele>429.0</ele><time>2026-04-06T08:02:16.999Z</time></trkpt><trkpt lat="37.690811739257434" lon="14.781145243681927"><ele>427.0</ele><time>2026-04-06T08:02:17.999Z</time></trkpt><trkpt lat="37.69083116974874" lon="14.781008770118103"><ele>425.0</ele><time>2026-04-06T08:02:18.999Z</time></trkpt><trkpt lat="37.690824278620134" lon="14.780878862907931"><ele>423.0</ele><time>2026-04-06T08:02:19.999Z</time></trkpt><trkpt lat="37.690803368978976" lon="14.780758038114016"><ele>421.0</ele><time>2026-04-06T08:02:20.999Z</time></trkpt><trkpt lat="37.690769167987995" lon="14.78064064172684"><ele>419.0</ele><time>2026-04-06T08:02:21.999Z</time></trkpt><trkpt lat="37.69072543788489" lon="14.780514090591915"><ele>419.0</ele><time>2026-04-06T08:02:22.999Z</time></trkpt><trkpt lat="37.690687247053816" lon="14.780382667581236"><ele>419.0</ele><time>2026-04-06T08:02:23.999Z</time></trkpt><trkpt lat="37.690666446766926" lon="14.780257642701422"><ele>419.0</ele><time>2026-04-06T08:02:24.999Z</time></trkpt><trkpt lat="37.69063959008742" lon="14.780102808731396"><ele>419.0</ele><time>2026-04-06T08:02:25.999Z</time></trkpt><trkpt lat="37.69063801602517" lon="14.779951433269924"><ele>417.75</ele><time>2026-04-06T08:02:26.999Z</time></trkpt><trkpt lat="37.69059553991852" lon="14.779806267443348"><ele>416.5</ele><time>2026-04-06T08:02:27.999Z</time></trkpt><trkpt lat="37.69055061839904" lon="14.77966183978712"><ele>415.25</ele><time>2026-04-06T08:02:28.999Z</time></trkpt><trkpt lat="37.690500839771694" lon="14.779515315370313"><ele>414.0</ele><time>2026-04-06T08:02:29.999Z</time></trkpt><trkpt lat="37.69045883630322" lon="14.779372773289209"><ele>413.0</ele><time>2026-04-06T08:02:30.999Z</time></trkpt><trkpt lat="37.69040914002344" lon="14.779227541899964"><ele>412.0</ele><time>2026-04-06T08:02:31.999Z</time></trkpt><trkpt lat="37.690383499995136" lon="14.779100449140675"><ele>411.0</ele><time>2026-04-06T08:02:32.999Z</time></trkpt><trkpt lat="37.69037109291108" lon="14.778979354856371"><ele>410.0</ele><time>2026-04-06T08:02:33.999Z</time></trkpt><trkpt lat="37.69036518512776" lon="14.77886483786076"><ele>409.0</ele><time>2026-04-06T08:02:34.999Z</time></trkpt><trkpt lat="37.690383823069716" lon="14.778765223319036"><ele>409.0</ele><time>2026-04-06T08:02:35.999Z</time></trkpt><trkpt lat="37.690451182982265" lon="14.778687475705215"><ele>409.0</ele><time>2026-04-06T08:02:36.999Z</time></trkpt><trkpt lat="37.690494083948266" lon="14.778600310490658"><ele>409.0</ele><time>2026-04-06T08:02:37.999Z</time></trkpt><trkpt lat="37.69053785140799" lon="14.778481128107334"><ele>409.0</ele><time>2026-04-06T08:02:38.999Z</time></trkpt><trkpt lat="37.6906003574234" lon="14.778372227963166"><ele>409.0</ele><time>2026-04-06T08:02:39.999Z</time></trkpt><trkpt lat="37.690667233687265" lon="14.778283901601135"><ele>407.0</ele><time>2026-04-06T08:02:40.999Z</time></trkpt><trkpt lat="37.69072695669497" lon="14.778181837177634"><ele>405.0</ele><time>2026-04-06T08:02:41.999Z</time></trkpt><trkpt lat="37.69078586733683" lon="14.778096976824976"><ele>403.0</ele><time>2026-04-06T08:02:42.999Z</time></trkpt><trkpt lat="37.6908493865915" lon="14.77802701937963"><ele>401.0</ele><time>2026-04-06T08:02:43.999Z</time></trkpt><trkpt lat="37.69092415449385" lon="14.777970959557509"><ele>399.0</ele><time>2026-04-06T08:02:44.999Z</time></trkpt><trkpt lat="37.691023565495854" lon="14.777918555632711"><ele>399.33333333333337</ele><time>2026-04-06T08:02:45.999Z</time></trkpt><trkpt lat="37.69115204347751" lon="14.77786827723227"><ele>399.6666666666667</ele><time>2026-04-06T08:02:46.999Z</time></trkpt><trkpt lat="37.6913049539818" lon="14.777820747220032"><ele>400.0</ele><time>2026-04-06T08:02:47.999Z</time></trkpt><trkpt lat="37.691465610944974" lon="14.777759389002501"><ele>400.0</ele><time>2026-04-06T08:02:48.999Z</time></trkpt><trkpt lat="37.69160290177332" lon="14.7777248693127"><ele>400.0</ele><time>2026-04-06T08:02:49.999Z</time></trkpt><trkpt lat="37.6917109272062" lon="14.77771462441441"><ele>400.0</ele><time>2026-04-06T08:02:50.999Z</time></trkpt><trkpt lat="37.691804317238855" lon="14.777688153267594"><ele>400.0</ele><time>2026-04-06T08:02:51.999Z</time></trkpt><trkpt lat="37.69188247674875" lon="14.77763854129394"><ele>400.0</ele><time>2026-04-06T08:02:52.999Z</time></trkpt><trkpt lat="37.69195915114925" lon="14.777607454932332"><ele>396.75</ele><time>2026-04-06T08:02:53.999Z</time></trkpt><trkpt lat="37.69202331351038" lon="14.777546962245411"><ele>393.5</ele><time>2026-04-06T08:02:54.999Z</time></trkpt><trkpt lat="37.69208113023656" lon="14.77743453173358"><ele>390.25</ele><time>2026-04-06T08:02:55.999Z</time></trkpt><trkpt lat="37.69214773200985" lon="14.777287873672284"><ele>387.0</ele><time>2026-04-06T08:02:56.999Z</time></trkpt><trkpt lat="37.692212365691695" lon="14.777133438131237"><ele>387.0</ele><time>2026-04-06T08:02:57.999Z</time></trkpt><trkpt lat="37.69225276858486" lon="14.776969597606715"><ele>387.0</ele><time>2026-04-06T08:02:58.999Z</time></trkpt><trkpt lat="37.6922618496045" lon="14.77681113788385"><ele>387.0</ele><time>2026-04-06T08:03:00Z</time></trkpt><trkpt lat="37.69223315211468" lon="14.776648817927676"><ele>387.0</ele><time>2026-04-06T08:03:01Z</time></trkpt><trkpt lat="37.69217479987126" lon="14.776474428788637"><ele>391.66666666666663</ele><time>2026-04-06T08:03:02Z</time></trkpt><trkpt lat="37.692106493279724" lon="14.776288598590877"><ele>396.3333333333333</ele><time>2026-04-06T08:03:03Z</time></trkpt><trkpt lat="37.69203758887914" lon="14.77609532697447"><ele>401.0</ele><time>2026-04-06T08:03:04Z</time></trkpt><trkpt lat="37.691967993440414" lon="14.775892982274007"><ele>398.0</ele><time>2026-04-06T08:03:05Z</time></trkpt><trkpt lat="37.691901605932586" lon="14.775679163981776"><ele>395.0</ele><time>2026-04-06T08:03:06Z</time></trkpt><trkpt lat="37.691830371248734" lon="14.775456976784373"><ele>392.0</ele><time>2026-04-06T08:03:07Z</time></trkpt><trkpt lat="37.69177555204597" lon="14.775230364283255"><ele>396.3333333333333</ele><time>2026-04-06T08:03:08Z</time></trkpt><trkpt lat="37.691709459390104" lon="14.77501764147463"><ele>400.66666666666663</ele><time>2026-04-06T08:03:09Z</time></trkpt><trkpt lat="37.691630994115556" lon="14.774826190154375"><ele>405.0</ele><time>2026-04-06T08:03:10Z</time></trkpt><trkpt lat="37.69157460104202" lon="14.774655979481569"><ele>405.0</ele><time>2026-04-06T08:03:11Z</time></trkpt><trkpt lat="37.691515659375916" lon="14.774482304787167"><ele>405.0</ele><time>2026-04-06T08:03:12Z</time></trkpt><trkpt lat="37.69145134331149" lon="14.774320428759355"><ele>405.0</ele><time>2026-04-06T08:03:13Z</time></trkpt><trkpt lat="37.69138255300588" lon="14.774168288220846"><ele>405.0</ele><time>2026-04-06T08:03:14Z</time></trkpt><trkpt lat="37.691290768334525" lon="14.774033823809056"><ele>405.0</ele><time>2026-04-06T08:03:15Z</time></trkpt><trkpt lat="37.691184170674866" lon="14.773918480304614"><ele>405.0</ele><time>2026-04-06T08:03:16Z</time></trkpt><trkpt lat="37.69108126262856" lon="14.773780105964905"><ele>405.0</ele><time>2026-04-06T08:03:17Z</time></trkpt><trkpt lat="37.69095765760653" lon="14.773647673256551"><ele>408.33333333333337</ele><time>2026-04-06T08:03:18Z</time></trkpt><trkpt lat="37.69082970670658" lon="14.773510875491043"><ele>411.6666666666667</ele><time>2026-04-06T08:03:19Z</time></trkpt><trkpt lat="37.69071194308281" lon="14.77338449707021"><ele>415.0</ele><time>2026-04-06T08:03:20Z</time></trkpt><trkpt lat="37.69060345267502" lon="14.773265828288993"><ele>415.0</ele><time>2026-04-06T08:03:21Z</time></trkpt><trkpt lat="37.69049078290871" lon="14.773161737034728"><ele>415.0</ele><time>2026-04-06T08:03:22Z</time></trkpt><trkpt lat="37.690407208811244" lon="14.773014924739373"><ele>415.0</ele><time>2026-04-06T08:03:23Z</time></trkpt><trkpt lat="37.69035095361739" lon="14.772837461920684"><ele>415.0</ele><time>2026-04-06T08:03:24Z</time></trkpt><trkpt lat="37.69027040617904" lon="14.772678377256403"><ele>415.25</ele><time>2026-04-06T08:03:25Z</time></trkpt><trkpt lat="37.69022597620326" lon="14.772506741006543"><ele>415.5</ele><time>2026-04-06T08:03:26Z</time></trkpt><trkpt lat="37.69016773448113" lon="14.772364429172278"><ele>415.75</ele><time>2026-04-06T08:03:27Z</time></trkpt><trkpt lat="37.69013652387454" lon="14.772211374565954"><ele>416.0</ele><time>2026-04-06T08:03:28Z</time></trkpt><trkpt lat="37.69012604007217" lon="14.772073263438307"><ele>416.0</ele><time>2026-04-06T08:03:29Z</time></trkpt><trkpt lat="37.690158918760694" lon="14.771954252293382"><ele>416.0</ele><time>2026-04-06T08:03:30Z</time></trkpt><trkpt lat="37.69020450610268" lon="14.771835162624324"><ele>416.0</ele><time>2026-04-06T08:03:31Z</time></trkpt><trkpt lat="37.690258206352574" lon="14.771697737114584"><ele>416.0</ele><time>2026-04-06T08:03:32Z</time></trkpt><trkpt lat="37.69032070017324" lon="14.771548429941696"><ele>418.6</ele><time>2026-04-06T08:03:33Z</time></trkpt><trkpt lat="37.69038016977186" lon="14.771405846565225"><ele>421.20000000000005</ele><time>2026-04-06T08:03:34Z</time></trkpt><trkpt lat="37.69041446004444" lon="14.7712802932008"><ele>423.79999999999995</ele><time>2026-04-06T08:03:35Z</time></trkpt><trkpt lat="37.69046460125524" lon="14.77118755532722"><ele>426.4</ele><time>2026-04-06T08:03:36Z</time></trkpt><trkpt lat="37.690499897719825" lon="14.771092316241889"><ele>429.0</ele><time>2026-04-06T08:03:37Z</time></trkpt><trkpt lat="37.6905493081273" lon="14.771005511698258"><ele>429.0</ele><time>2026-04-06T08:03:38Z</time></trkpt><trkpt lat="37.69058861880436" lon="14.770913138230357"><ele>429.0</ele><time>2026-04-06T08:03:39Z</time></trkpt><trkpt lat="37.69062112736721" lon="14.770833937027593"><ele>429.0</ele><time>2026-04-06T08:03:40Z</time></trkpt><trkpt lat="37.690654451651774" lon="14.770745015620664"><ele>429.0</ele><time>2026-04-06T08:03:41Z</time></trkpt><trkpt lat="37.69068714759612" lon="14.770596005373884"><ele>429.0</ele><time>2026-04-06T08:03:43Z</time></trkpt><trkpt lat="37.69071290319653" lon="14.770515284888992"><ele>429.0</ele><time>2026-04-06T08:03:44Z</time></trkpt><trkpt lat="37.69073846635686" lon="14.770435706874041"><ele>429.0</ele><time>2026-04-06T08:03:45Z</time></trkpt><trkpt lat="37.69076326658149" lon="14.770359471988524"><ele>429.0</ele><time>2026-04-06T08:03:46Z</time></trkpt><trkpt lat="37.69081847469508" lon="14.770308429624567"><ele>429.0</ele><time>2026-04-06T08:03:47Z</time></trkpt><trkpt lat="37.69085304744793" lon="14.770190455934582"><ele>429.0</ele><time>2026-04-06T08:03:49Z</time></trkpt><trkpt lat="37.69090848810937" lon="14.770067950517584"><ele>429.0</ele><time>2026-04-06T08:03:51Z</time></trkpt><trkpt lat="37.69096291028451" lon="14.769948027887876"><ele>429.0</ele><time>2026-04-06T08:03:53Z</time></trkpt><trkpt lat="37.69100695932114" lon="14.769828808945446"><ele>429.0</ele><time>2026-04-06T08:03:56Z</time></trkpt><trkpt lat="37.691051801657295" lon="14.769658505623259"><ele>429.0</ele><time>2026-04-06T08:03:57.999Z</time></trkpt><trkpt lat="37.691068210901825" lon="14.76954799988981"><ele>429.0</ele><time>2026-04-06T08:03:58.999Z</time></trkpt><trkpt lat="37.69107652930312" lon="14.769455404301919"><ele>429.0</ele><time>2026-04-06T08:03:59.999Z</time></trkpt><trkpt lat="37.69107084631064" lon="14.769346127055663"><ele>429.0</ele><time>2026-04-06T08:04:01.999Z</time></trkpt><trkpt lat="37.69108561649701" lon="14.769173237027575"><ele>429.0</ele><time>2026-04-06T08:04:03.999Z</time></trkpt><trkpt lat="37.69106583796809" lon="14.769067283219687"><ele>429.0</ele><time>2026-04-06T08:04:04.999Z</time></trkpt><trkpt lat="37.69106240545876" lon="14.768968104897734"><ele>429.0</ele><time>2026-04-06T08:04:05.999Z</time></trkpt><trkpt lat="37.691055201037265" lon="14.7688344572371"><ele>429.0</ele><time>2026-04-06T08:04:06.999Z</time></trkpt><trkpt lat="37.69106985053294" lon="14.768721437085253"><ele>429.0</ele><time>2026-04-06T08:04:07.999Z</time></trkpt><trkpt lat="37.691050894233136" lon="14.768614487973062"><ele>429.0</ele><time>2026-04-06T08:04:08.999Z</time></trkpt><trkpt lat="37.69105317898407" lon="14.768492127518801"><ele>429.0</ele><time>2026-04-06T08:04:09.999Z</time></trkpt><trkpt lat="37.691078375337106" lon="14.768372364288831"><ele>429.0</ele><time>2026-04-06T08:04:10.999Z</time></trkpt><trkpt lat="37.69108638403948" lon="14.768267750266775"><ele>429.0</ele><time>2026-04-06T08:04:11.999Z</time></trkpt><trkpt lat="37.6910794715776" lon="14.768175741460759"><ele>429.0</ele><time>2026-04-06T08:04:12.999Z</time></trkpt><trkpt lat="37.69109024507795" lon="14.768062786146807"><ele>429.1666666666667</ele><time>2026-04-06T08:04:13.999Z</time></trkpt><trkpt lat="37.69111385956228" lon="14.767950465304343"><ele>429.33333333333337</ele><time>2026-04-06T08:04:14.999Z</time></trkpt><trkpt lat="37.69111616665012" lon="14.767835406047903"><ele>429.5</ele><time>2026-04-06T08:04:15.999Z</time></trkpt><trkpt lat="37.69108467034544" lon="14.76772927147037"><ele>429.6666666666667</ele><time>2026-04-06T08:04:16.999Z</time></trkpt><trkpt lat="37.69105268046542" lon="14.767622244555298"><ele>429.83333333333337</ele><time>2026-04-06T08:04:17.999Z</time></trkpt><trkpt lat="37.69101000989567" lon="14.767532932325897"><ele>430.0</ele><time>2026-04-06T08:04:18.999Z</time></trkpt><trkpt lat="37.69095962584514" lon="14.767436546279002"><ele>431.00000000000006</ele><time>2026-04-06T08:04:19.999Z</time></trkpt><trkpt lat="37.69090744829768" lon="14.767355863897796"><ele>432.0</ele><time>2026-04-06T08:04:20.999Z</time></trkpt><trkpt lat="37.690841738311725" lon="14.767259151481994"><ele>433.0</ele><time>2026-04-06T08:04:21.999Z</time></trkpt><trkpt lat="37.690792755284704" lon="14.767201267145472"><ele>434.0</ele><time>2026-04-06T08:04:22.999Z</time></trkpt><trkpt lat="37.69075356588221" lon="14.767125465673288"><ele>435.00000000000006</ele><time>2026-04-06T08:04:23.999Z</time></trkpt><trkpt lat="37.69070816676117" lon="14.767062541622582"><ele>436.0</ele><time>2026-04-06T08:04:24.999Z</time></trkpt><trkpt lat="37.69062068154086" lon="14.766973566205566"><ele>436.00000000000006</ele><time>2026-04-06T08:04:26.999Z</time></trkpt><trkpt lat="37.69058732777787" lon="14.766865663125447"><ele>436.0</ele><time>2026-04-06T08:04:29.999Z</time></trkpt><trkpt lat="37.69064989999318" lon="14.766800025701714"><ele>436.0</ele><time>2026-04-06T08:04:32.999Z</time></trkpt><trkpt lat="37.690748034874034" lon="14.76675220415655"><ele>436.0</ele><time>2026-04-06T08:04:34.999Z</time></trkpt><trkpt lat="37.69082595422378" lon="14.766738878484368"><ele>436.00000000000006</ele><time>2026-04-06T08:04:35.999Z</time></trkpt><trkpt lat="37.69089432289474" lon="14.766718648482966"><ele>436.0</ele><time>2026-04-06T08:04:36.999Z</time></trkpt><trkpt lat="37.69097433011654" lon="14.766689653274964"><ele>436.0</ele><time>2026-04-06T08:04:37.999Z</time></trkpt><trkpt lat="37.691087120745294" lon="14.766821121671923"><ele>436.0</ele><time>2026-04-06T08:04:38.999Z</time></trkpt><trkpt lat="37.69117986685358" lon="14.766875337496002"><ele>436.0</ele><time>2026-04-06T08:04:39.999Z</time></trkpt><trkpt lat="37.69128210722789" lon="14.766911513517668"><ele>436.0</ele><time>2026-04-06T08:04:40.999Z</time></trkpt><trkpt lat="37.691388469673264" lon="14.766951566255115"><ele>440.5</ele><time>2026-04-06T08:04:41.999Z</time></trkpt><trkpt lat="37.69149412240358" lon="14.766998145042082"><ele>445.0</ele><time>2026-04-06T08:04:43.999Z</time></trkpt><trkpt lat="37.69155694311689" lon="14.767040837422"><ele>449.5</ele><time>2026-04-06T08:04:45.999Z</time></trkpt><trkpt lat="37.69174774947071" lon="14.767084404618993"><ele>454.0</ele><time>2026-04-06T08:05:36Z</time></trkpt><trkpt lat="37.691832600525764" lon="14.767130734201164"><ele>454.0</ele><time>2026-04-06T08:05:37Z</time></trkpt><trkpt lat="37.69191596001534" lon="14.767187555868322"><ele>454.0</ele><time>2026-04-06T08:05:38Z</time></trkpt><trkpt lat="37.6920067614905" lon="14.76724209800131"><ele>454.0</ele><time>2026-04-06T08:05:39Z</time></trkpt><trkpt lat="37.69209726474753" lon="14.767293307817395"><ele>454.0</ele><time>2026-04-06T08:05:40Z</time></trkpt><trkpt lat="37.69221344771631" lon="14.767342047635138"><ele>454.0</ele><time>2026-04-06T08:05:41Z</time></trkpt><trkpt lat="37.69232970545395" lon="14.767388793394263"><ele>456.75</ele><time>2026-04-06T08:05:42Z</time></trkpt><trkpt lat="37.69244155700485" lon="14.767427105379436"><ele>459.5</ele><time>2026-04-06T08:05:43Z</time></trkpt><trkpt lat="37.692557632566704" lon="14.767460961436798"><ele>462.25</ele><time>2026-04-06T08:05:44Z</time></trkpt><trkpt lat="37.69267479717937" lon="14.76748657506917"><ele>465.0</ele><time>2026-04-06T08:05:45Z</time></trkpt><trkpt lat="37.6927806350969" lon="14.767496911009706"><ele>468.0</ele><time>2026-04-06T08:05:46Z</time></trkpt><trkpt lat="37.69287387605638" lon="14.767487162489825"><ele>471.0</ele><time>2026-04-06T08:05:47Z</time></trkpt><trkpt lat="37.69294790702963" lon="14.76745405403186"><ele>474.0</ele><time>2026-04-06T08:05:48Z</time></trkpt><trkpt lat="37.693003839148915" lon="14.767390767798773"><ele>477.0</ele><time>2026-04-06T08:05:49Z</time></trkpt><trkpt lat="37.69305265065562" lon="14.767300548583075"><ele>480.0</ele><time>2026-04-06T08:05:50Z</time></trkpt><trkpt lat="37.693093656196446" lon="14.767186184848237"><ele>483.0</ele><time>2026-04-06T08:05:51Z</time></trkpt><trkpt lat="37.69313204299644" lon="14.767055300826858"><ele>483.0</ele><time>2026-04-06T08:05:52Z</time></trkpt><trkpt lat="37.69317853565256" lon="14.76693552519195"><ele>482.99999999999994</ele><time>2026-04-06T08:05:53Z</time></trkpt><trkpt lat="37.69323645700643" lon="14.766827515335672"><ele>482.99999999999994</ele><time>2026-04-06T08:05:54Z</time></trkpt><trkpt lat="37.69328011274209" lon="14.76671282436902"><ele>483.0</ele><time>2026-04-06T08:05:55Z</time></trkpt><trkpt lat="37.69332139462164" lon="14.766584256989878"><ele>483.0</ele><time>2026-04-06T08:05:56Z</time></trkpt><trkpt lat="37.693360460968485" lon="14.766439943910258"><ele>483.2</ele><time>2026-04-06T08:05:57Z</time></trkpt><trkpt lat="37.69341064372522" lon="14.766319532284925"><ele>483.4</ele><time>2026-04-06T08:05:58Z</time></trkpt><trkpt lat="37.69346770978281" lon="14.76624921713456"><ele>483.59999999999997</ele><time>2026-04-06T08:05:59Z</time></trkpt><trkpt lat="37.69353333212639" lon="14.76620576856046"><ele>483.79999999999995</ele><time>2026-04-06T08:06:00Z</time></trkpt><trkpt lat="37.693593138098514" lon="14.766171800488456"><ele>484.0</ele><time>2026-04-06T08:06:01Z</time></trkpt><trkpt lat="37.693728745747514" lon="14.766112530837928"><ele>486.6</ele><time>2026-04-06T08:06:03Z</time></trkpt><trkpt lat="37.69382477044134" lon="14.766103668053516"><ele>489.2</ele><time>2026-04-06T08:06:04Z</time></trkpt><trkpt lat="37.69397595751265" lon="14.766112746208996"><ele>491.80000000000007</ele><time>2026-04-06T08:06:06Z</time></trkpt><trkpt lat="37.69404921857675" lon="14.766102434443845"><ele>494.40000000000003</ele><time>2026-04-06T08:06:07Z</time></trkpt><trkpt lat="37.694120323919265" lon="14.76602856223271"><ele>497.0</ele><time>2026-04-06T08:06:08.999Z</time></trkpt><trkpt lat="37.69415128625828" lon="14.765923243605215"><ele>496.99999999999994</ele><time>2026-04-06T08:06:10.999Z</time></trkpt><trkpt lat="37.694207167582796" lon="14.765850991757167"><ele>497.0</ele><time>2026-04-06T08:06:12.999Z</time></trkpt><trkpt lat="37.694222941383835" lon="14.765710402765585"><ele>497.0</ele><time>2026-04-06T08:06:14.999Z</time></trkpt><trkpt lat="37.694200801683316" lon="14.765597350068719"><ele>497.0</ele><time>2026-04-06T08:06:16.999Z</time></trkpt><trkpt lat="37.69417122415864" lon="14.765518182043332"><ele>496.99999999999994</ele><time>2026-04-06T08:06:18.999Z</time></trkpt><trkpt lat="37.69412769666133" lon="14.76541512168433"><ele>497.0</ele><time>2026-04-06T08:06:20.999Z</time></trkpt><trkpt lat="37.69408903233695" lon="14.765325996185302"><ele>496.99999999999994</ele><time>2026-04-06T08:06:22.999Z</time></trkpt><trkpt lat="37.69404896022567" lon="14.765206772301855"><ele>497.0</ele><time>2026-04-06T08:06:24.999Z</time></trkpt><trkpt lat="37.69402815368843" lon="14.765085918784171"><ele>497.0</ele><time>2026-04-06T08:06:26.999Z</time></trkpt><trkpt lat="37.69404503227111" lon="14.765004892006338"><ele>497.0</ele><time>2026-04-06T08:06:29.999Z</time></trkpt><trkpt lat="37.69404552708421" lon="14.764912574815764"><ele>496.99999999999994</ele><time>2026-04-06T08:06:31.999Z</time></trkpt><trkpt lat="37.69405585459259" lon="14.764795788586413"><ele>497.0</ele><time>2026-04-06T08:06:33.999Z</time></trkpt><trkpt lat="37.69407620315049" lon="14.764677703905813"><ele>496.99999999999994</ele><time>2026-04-06T08:06:36.999Z</time></trkpt><trkpt lat="37.694104322282264" lon="14.764594742052672"><ele>497.0</ele><time>2026-04-06T08:06:38.999Z</time></trkpt><trkpt lat="37.69413297205174" lon="14.764522185608861"><ele>497.0</ele><time>2026-04-06T08:06:40.999Z</time></trkpt><trkpt lat="37.69416461343372" lon="14.764413577748332"><ele>497.0</ele><time>2026-04-06T08:06:50.999Z</time></trkpt><trkpt lat="37.6941477879576" lon="14.76431470023889"><ele>496.99999999999994</ele><time>2026-04-06T08:06:52.999Z</time></trkpt><trkpt lat="37.694127907847566" lon="14.764234931288824"><ele>497.0</ele><time>2026-04-06T08:06:54.999Z</time></trkpt><trkpt lat="37.69412722594008" lon="14.76410999903015"><ele>495.99999999999994</ele><time>2026-04-06T08:06:57.999Z</time></trkpt><trkpt lat="37.69412364488152" lon="14.763999327808069"><ele>495.0</ele><time>2026-04-06T08:06:59.999Z</time></trkpt><trkpt lat="37.69412079149587" lon="14.763916197556588"><ele>494.0</ele><time>2026-04-06T08:07:01.999Z</time></trkpt><trkpt lat="37.69411716360313" lon="14.763834678382871"><ele>493.0</ele><time>2026-04-06T08:07:03.999Z</time></trkpt><trkpt lat="37.69413125488975" lon="14.763742450973757"><ele>491.99999999999994</ele><time>2026-04-06T08:07:21Z</time></trkpt><trkpt lat="37.694144079486996" lon="14.76365450901056"><ele>491.0</ele><time>2026-04-06T08:07:23Z</time></trkpt><trkpt lat="37.69414525357993" lon="14.763532894187005"><ele>489.0</ele><time>2026-04-06T08:07:25Z</time></trkpt><trkpt lat="37.694155678499925" lon="14.763428186238407"><ele>487.0</ele><time>2026-04-06T08:07:27Z</time></trkpt><trkpt lat="37.694164723161386" lon="14.76332876723112"><ele>485.0</ele><time>2026-04-06T08:07:29Z</time></trkpt><trkpt lat="37.69415705231594" lon="14.763210896824654"><ele>483.0</ele><time>2026-04-06T08:07:31Z</time></trkpt><trkpt lat="37.694129455801956" lon="14.763086817009535"><ele>481.0</ele><time>2026-04-06T08:07:33Z</time></trkpt><trkpt lat="37.69408927263727" lon="14.762979727855502"><ele>481.00000000000006</ele><time>2026-04-06T08:07:35Z</time></trkpt><trkpt lat="37.69411468930599" lon="14.763053036935755"><ele>481.0</ele><time>2026-04-06T08:07:51Z</time></trkpt><trkpt lat="37.69413089669634" lon="14.763133241367868"><ele>481.0</ele><time>2026-04-06T08:07:53Z</time></trkpt><trkpt lat="37.69414947152928" lon="14.763212112349365"><ele>481.0</ele><time>2026-04-06T08:07:55Z</time></trkpt><trkpt lat="37.6941566710976" lon="14.76329947229114"><ele>481.00000000000006</ele><time>2026-04-06T08:07:57Z</time></trkpt><trkpt lat="37.69414884053679" lon="14.76341626783619"><ele>481.0</ele><time>2026-04-06T08:07:59Z</time></trkpt><trkpt lat="37.694136602617405" lon="14.763543165633209"><ele>482.6666666666667</ele><time>2026-04-06T08:08:01Z</time></trkpt><trkpt lat="37.69412765815124" lon="14.763684747721989"><ele>484.33333333333337</ele><time>2026-04-06T08:08:03Z</time></trkpt><trkpt lat="37.69412615259247" lon="14.763768743891768"><ele>486.0</ele><time>2026-04-06T08:08:04Z</time></trkpt><trkpt lat="37.694124574983405" lon="14.763856335756737"><ele>487.66666666666663</ele><time>2026-04-06T08:08:05Z</time></trkpt><trkpt lat="37.69412375515375" lon="14.76393629552485"><ele>489.3333333333333</ele><time>2026-04-06T08:08:06Z</time></trkpt><trkpt lat="37.69412161686305" lon="14.764084282272458"><ele>491.0</ele><time>2026-04-06T08:08:08Z</time></trkpt><trkpt lat="37.69413197819513" lon="14.764171141360734"><ele>490.99999999999994</ele><time>2026-04-06T08:08:09Z</time></trkpt><trkpt lat="37.694142165440965" lon="14.764262109798285"><ele>491.0</ele><time>2026-04-06T08:08:10Z</time></trkpt><trkpt lat="37.694150947157894" lon="14.76435526975639"><ele>491.0</ele><time>2026-04-06T08:08:11Z</time></trkpt><trkpt lat="37.6941504903276" lon="14.764491951824121"><ele>491.0</ele><time>2026-04-06T08:08:13Z</time></trkpt><trkpt lat="37.69411629962312" lon="14.76457566051066"><ele>490.99999999999994</ele><time>2026-04-06T08:08:15Z</time></trkpt><trkpt lat="37.6940935231364" lon="14.764666285637222"><ele>491.0</ele><time>2026-04-06T08:08:17Z</time></trkpt><trkpt lat="37.69407367681521" lon="14.764761319345629"><ele>491.99999999999994</ele><time>2026-04-06T08:08:19Z</time></trkpt><trkpt lat="37.69405400478" lon="14.764858535123716"><ele>493.0</ele><time>2026-04-06T08:08:20.999Z</time></trkpt><trkpt lat="37.69404810948108" lon="14.76494571046078"><ele>494.0</ele><time>2026-04-06T08:08:22.999Z</time></trkpt><trkpt lat="37.69405799569063" lon="14.765055119849839"><ele>495.0</ele><time>2026-04-06T08:08:27.999Z</time></trkpt><trkpt lat="37.694066361921465" lon="14.765159438272837"><ele>495.99999999999994</ele><time>2026-04-06T08:08:29.999Z</time></trkpt><trkpt lat="37.69408254311255" lon="14.765247435435102"><ele>497.0</ele><time>2026-04-06T08:08:31.999Z</time></trkpt><trkpt lat="37.69411213750814" lon="14.765337991032691"><ele>497.0</ele><time>2026-04-06T08:08:33.999Z</time></trkpt><trkpt lat="37.69415786196618" lon="14.765426052111597"><ele>497.00000000000006</ele><time>2026-04-06T08:08:35.999Z</time></trkpt><trkpt lat="37.69421098457249" lon="14.76555567206956"><ele>497.00000000000006</ele><time>2026-04-06T08:08:37.999Z</time></trkpt><trkpt lat="37.69423706467374" lon="14.765635950256941"><ele>497.0</ele><time>2026-04-06T08:08:38.999Z</time></trkpt><trkpt lat="37.69424334964133" lon="14.765769465104537"><ele>497.0</ele><time>2026-04-06T08:08:40.999Z</time></trkpt><trkpt lat="37.69422704860127" lon="14.765872132459357"><ele>496.99999999999994</ele><time>2026-04-06T08:08:42.999Z</time></trkpt><trkpt lat="37.694174196967104" lon="14.765951476616571"><ele>497.0</ele><time>2026-04-06T08:08:45.999Z</time></trkpt><trkpt lat="37.6941202454229" lon="14.766012342387585"><ele>497.0</ele><time>2026-04-06T08:08:47.999Z</time></trkpt><trkpt lat="37.694069750874405" lon="14.766070644600594"><ele>497.0</ele><time>2026-04-06T08:08:49.999Z</time></trkpt><trkpt lat="37.69398677330394" lon="14.766109510283556"><ele>496.99999999999994</ele><time>2026-04-06T08:08:51.999Z</time></trkpt><trkpt lat="37.69390665944873" lon="14.766112438215757"><ele>497.0</ele><time>2026-04-06T08:08:52.999Z</time></trkpt><trkpt lat="37.69381181051691" lon="14.76611875344725"><ele>496.99999999999994</ele><time>2026-04-06T08:08:53.999Z</time></trkpt><trkpt lat="37.69372098374737" lon="14.766132821955143"><ele>497.0</ele><time>2026-04-06T08:08:54.999Z</time></trkpt><trkpt lat="37.693634260547036" lon="14.766155446735365"><ele>497.0</ele><time>2026-04-06T08:08:55.999Z</time></trkpt><trkpt lat="37.69355433277543" lon="14.766191959572641"><ele>497.0</ele><time>2026-04-06T08:08:56.999Z</time></trkpt><trkpt lat="37.69348859930864" lon="14.766238216776452"><ele>496.99999999999994</ele><time>2026-04-06T08:08:57.999Z</time></trkpt><trkpt lat="37.69342825059525" lon="14.766300760588853"><ele>497.0</ele><time>2026-04-06T08:08:58.999Z</time></trkpt><trkpt lat="37.69338535895621" lon="14.76637527156302"><ele>494.40000000000003</ele><time>2026-04-06T08:08:59.999Z</time></trkpt><trkpt lat="37.693351589346754" lon="14.766461065697097"><ele>491.80000000000007</ele><time>2026-04-06T08:09:00.999Z</time></trkpt><trkpt lat="37.693312966144596" lon="14.766563254143728"><ele>489.2</ele><time>2026-04-06T08:09:01.999Z</time></trkpt><trkpt lat="37.69327675299077" lon="14.766684312320049"><ele>486.6</ele><time>2026-04-06T08:09:02.999Z</time></trkpt><trkpt lat="37.6932455321571" lon="14.766794437970157"><ele>484.0</ele><time>2026-04-06T08:09:03.999Z</time></trkpt><trkpt lat="37.693212109059935" lon="14.766905546197828"><ele>483.83333333333337</ele><time>2026-04-06T08:09:04.999Z</time></trkpt><trkpt lat="37.693169656183606" lon="14.767013684408596"><ele>483.6666666666667</ele><time>2026-04-06T08:09:05.999Z</time></trkpt><trkpt lat="37.69312015808438" lon="14.767095648057667"><ele>483.5</ele><time>2026-04-06T08:09:06.999Z</time></trkpt><trkpt lat="37.693080244369476" lon="14.767192578968379"><ele>483.33333333333337</ele><time>2026-04-06T08:09:07.999Z</time></trkpt><trkpt lat="37.69304995273097" lon="14.767289036360584"><ele>483.1666666666667</ele><time>2026-04-06T08:09:08.999Z</time></trkpt><trkpt lat="37.69301192796532" lon="14.767361814457825"><ele>483.0</ele><time>2026-04-06T08:09:09.999Z</time></trkpt><trkpt lat="37.69296404332474" lon="14.767422116135076"><ele>483.0</ele><time>2026-04-06T08:09:10.999Z</time></trkpt><trkpt lat="37.692901238187346" lon="14.76747298311022"><ele>483.0</ele><time>2026-04-06T08:09:11.999Z</time></trkpt><trkpt lat="37.69283426904003" lon="14.76749732264874"><ele>483.0</ele><time>2026-04-06T08:09:12.999Z</time></trkpt><trkpt lat="37.69276297232406" lon="14.767501947736628"><ele>483.0</ele><time>2026-04-06T08:09:13.999Z</time></trkpt><trkpt lat="37.69267851779101" lon="14.767491111311443"><ele>483.0</ele><time>2026-04-06T08:09:14.999Z</time></trkpt><trkpt lat="37.69257393953879" lon="14.767465442382708"><ele>483.0</ele><time>2026-04-06T08:09:15.999Z</time></trkpt><trkpt lat="37.69247388424942" lon="14.76743378124665"><ele>479.4</ele><time>2026-04-06T08:09:16.999Z</time></trkpt><trkpt lat="37.692384508628024" lon="14.767402813584543"><ele>475.79999999999995</ele><time>2026-04-06T08:09:18Z</time></trkpt><trkpt lat="37.692281801400576" lon="14.767368769364156"><ele>472.2</ele><time>2026-04-06T08:09:19Z</time></trkpt><trkpt lat="37.69216886839979" lon="14.767322256788933"><ele>468.6</ele><time>2026-04-06T08:09:20Z</time></trkpt><trkpt lat="37.69206412079923" lon="14.76727000865626"><ele>465.0</ele><time>2026-04-06T08:09:21Z</time></trkpt><trkpt lat="37.691975050712145" lon="14.767227010797303"><ele>463.1666666666667</ele><time>2026-04-06T08:09:22Z</time></trkpt><trkpt lat="37.69187415513795" lon="14.767174881384213"><ele>461.33333333333337</ele><time>2026-04-06T08:09:23Z</time></trkpt><trkpt lat="37.69178917668378" lon="14.767119629031145"><ele>459.5</ele><time>2026-04-06T08:09:24Z</time></trkpt><trkpt lat="37.69172335037646" lon="14.767089996479305"><ele>457.6666666666667</ele><time>2026-04-06T08:09:25Z</time></trkpt><trkpt lat="37.691642939268846" lon="14.767051969825529"><ele>455.83333333333337</ele><time>2026-04-06T08:09:27Z</time></trkpt><trkpt lat="37.69158195248562" lon="14.767032039832905"><ele>454.0</ele><time>2026-04-06T08:09:46Z</time></trkpt><trkpt lat="37.691510527918076" lon="14.766996860364104"><ele>454.0</ele><time>2026-04-06T08:10:14Z</time></trkpt><trkpt lat="37.691438864543464" lon="14.766959804201788"><ele>454.00000000000006</ele><time>2026-04-06T08:10:16Z</time></trkpt><trkpt lat="37.69136189676518" lon="14.76694599980348"><ele>454.0</ele><time>2026-04-06T08:10:17Z</time></trkpt><trkpt lat="37.69128723756016" lon="14.766921260003372"><ele>454.0</ele><time>2026-04-06T08:10:18Z</time></trkpt><trkpt lat="37.69122533825096" lon="14.766897051579333"><ele>454.00000000000006</ele><time>2026-04-06T08:10:19Z</time></trkpt><trkpt lat="37.69116689056315" lon="14.766865936596693"><ele>454.0</ele><time>2026-04-06T08:10:20Z</time></trkpt><trkpt lat="37.69110405331754" lon="14.766835385296591"><ele>454.0</ele><time>2026-04-06T08:10:21Z</time></trkpt><trkpt lat="37.69104263822067" lon="14.766796936583118"><ele>451.42857142857144</ele><time>2026-04-06T08:10:21.999Z</time></trkpt><trkpt lat="37.69097616819876" lon="14.76676054427032"><ele>448.8571428571429</ele><time>2026-04-06T08:10:22.999Z</time></trkpt><trkpt lat="37.690903929325245" lon="14.766739432303753"><ele>446.28571428571433</ele><time>2026-04-06T08:10:23.999Z</time></trkpt><trkpt lat="37.69082871965058" lon="14.766743107783443"><ele>443.7142857142857</ele><time>2026-04-06T08:10:24.999Z</time></trkpt><trkpt lat="37.690749022205615" lon="14.7667611633033"><ele>441.14285714285717</ele><time>2026-04-06T08:10:25.999Z</time></trkpt><trkpt lat="37.69068080893645" lon="14.766772316261449"><ele>438.57142857142856</ele><time>2026-04-06T08:10:26.999Z</time></trkpt><trkpt lat="37.69060778983354" lon="14.766779532865751"><ele>436.0</ele><time>2026-04-06T08:10:27.999Z</time></trkpt><trkpt lat="37.69054025068994" lon="14.766785584529401"><ele>436.0</ele><time>2026-04-06T08:10:28.999Z</time></trkpt><trkpt lat="37.690441996622745" lon="14.766785815493137"><ele>436.0</ele><time>2026-04-06T08:10:30.999Z</time></trkpt><trkpt lat="37.69040470070969" lon="14.766668769002306"><ele>436.0</ele><time>2026-04-06T08:10:33.999Z</time></trkpt><trkpt lat="37.69037686573328" lon="14.766516033795543"><ele>436.0</ele><time>2026-04-06T08:10:35.999Z</time></trkpt><trkpt lat="37.69037225896926" lon="14.766416948745276"><ele>436.0</ele><time>2026-04-06T08:10:36.999Z</time></trkpt><trkpt lat="37.69037623089342" lon="14.766328746260845"><ele>436.00000000000006</ele><time>2026-04-06T08:10:37.999Z</time></trkpt><trkpt lat="37.69040222858659" lon="14.766236032529681"><ele>436.0</ele><time>2026-04-06T08:10:38.999Z</time></trkpt><trkpt lat="37.690396801376195" lon="14.76612738788595"><ele>436.0</ele><time>2026-04-06T08:10:39.999Z</time></trkpt><trkpt lat="37.69040811253267" lon="14.766003281825249"><ele>436.0</ele><time>2026-04-06T08:10:40.999Z</time></trkpt><trkpt lat="37.690418975772076" lon="14.765880536527805"><ele>436.00000000000006</ele><time>2026-04-06T08:10:41.999Z</time></trkpt><trkpt lat="37.69044359946962" lon="14.76578485941458"><ele>436.0</ele><time>2026-04-06T08:10:42.999Z</time></trkpt><trkpt lat="37.69045332733415" lon="14.765687818074175"><ele>435.33333333333337</ele><time>2026-04-06T08:10:43.999Z</time></trkpt><trkpt lat="37.690443702725574" lon="14.765580181081138"><ele>434.6666666666667</ele><time>2026-04-06T08:10:44.999Z</time></trkpt><trkpt lat="37.69045926696275" lon="14.765496890090587"><ele>434.0</ele><time>2026-04-06T08:10:45.999Z</time></trkpt><trkpt lat="37.69042274273256" lon="14.765425717903614"><ele>433.33333333333337</ele><time>2026-04-06T08:10:46.999Z</time></trkpt><trkpt lat="37.69036177431557" lon="14.765385819269367"><ele>432.6666666666667</ele><time>2026-04-06T08:10:47.999Z</time></trkpt><trkpt lat="37.69023907261819" lon="14.765291410798989"><ele>432.0</ele><time>2026-04-06T08:10:49.999Z</time></trkpt><trkpt lat="37.69015722448139" lon="14.76525119500661"><ele>430.1666666666667</ele><time>2026-04-06T08:10:50.999Z</time></trkpt><trkpt lat="37.69007082888398" lon="14.765215339847169"><ele>428.33333333333337</ele><time>2026-04-06T08:10:51.999Z</time></trkpt><trkpt lat="37.6900010988688" lon="14.765181756301205"><ele>426.5</ele><time>2026-04-06T08:10:52.999Z</time></trkpt><trkpt lat="37.68994625737018" lon="14.765136094629508"><ele>424.6666666666667</ele><time>2026-04-06T08:10:53.999Z</time></trkpt><trkpt lat="37.68991655146462" lon="14.765060205028503"><ele>422.83333333333337</ele><time>2026-04-06T08:10:54.999Z</time></trkpt><trkpt lat="37.68990892761761" lon="14.764967762103629"><ele>421.0</ele><time>2026-04-06T08:10:55.999Z</time></trkpt><trkpt lat="37.68990975342242" lon="14.764848812029191"><ele>418.5</ele><time>2026-04-06T08:10:56.999Z</time></trkpt><trkpt lat="37.689894527416094" lon="14.764702497412506"><ele>416.0</ele><time>2026-04-06T08:10:57.999Z</time></trkpt><trkpt lat="37.68989981494308" lon="14.764546062950448"><ele>413.5</ele><time>2026-04-06T08:10:58.999Z</time></trkpt><trkpt lat="37.68990392183537" lon="14.764393605239164"><ele>411.0</ele><time>2026-04-06T08:10:59.999Z</time></trkpt><trkpt lat="37.68991046849815" lon="14.764251101455919"><ele>410.0</ele><time>2026-04-06T08:11:00.999Z</time></trkpt><trkpt lat="37.689918378128105" lon="14.764084425643231"><ele>409.0</ele><time>2026-04-06T08:11:01.999Z</time></trkpt><trkpt lat="37.68992713456227" lon="14.763920331405238"><ele>408.0</ele><time>2026-04-06T08:11:02.999Z</time></trkpt><trkpt lat="37.68993791868298" lon="14.763757766412848"><ele>407.0</ele><time>2026-04-06T08:11:03.999Z</time></trkpt><trkpt lat="37.68995121136549" lon="14.76361865907875"><ele>406.6</ele><time>2026-04-06T08:11:04.999Z</time></trkpt><trkpt lat="37.68997664538494" lon="14.763480759630387"><ele>406.20000000000005</ele><time>2026-04-06T08:11:05.999Z</time></trkpt><trkpt lat="37.69000204253534" lon="14.763351054381593"><ele>405.8</ele><time>2026-04-06T08:11:06.999Z</time></trkpt><trkpt lat="37.69001939650009" lon="14.763221477400604"><ele>405.4</ele><time>2026-04-06T08:11:07.999Z</time></trkpt><trkpt lat="37.690035437699116" lon="14.763095556551795"><ele>405.0</ele><time>2026-04-06T08:11:08.999Z</time></trkpt><trkpt lat="37.69005464124645" lon="14.762970998989376"><ele>405.0</ele><time>2026-04-06T08:11:09.999Z</time></trkpt><trkpt lat="37.6900708359864" lon="14.762863542878796"><ele>405.0</ele><time>2026-04-06T08:11:10.999Z</time></trkpt><trkpt lat="37.69008963488209" lon="14.762748030848888"><ele>405.0</ele><time>2026-04-06T08:11:11.999Z</time></trkpt><trkpt lat="37.690103330573876" lon="14.762637453613348"><ele>405.0</ele><time>2026-04-06T08:11:12.999Z</time></trkpt><trkpt lat="37.69012303309402" lon="14.762521864822945"><ele>405.0</ele><time>2026-04-06T08:11:13.999Z</time></trkpt><trkpt lat="37.69014295149105" lon="14.762392941127567"><ele>403.0</ele><time>2026-04-06T08:11:14.999Z</time></trkpt><trkpt lat="37.69016306105045" lon="14.762270783480979"><ele>401.0</ele><time>2026-04-06T08:11:15.999Z</time></trkpt><trkpt lat="37.69017708887572" lon="14.76215127872266"><ele>399.0</ele><time>2026-04-06T08:11:16.999Z</time></trkpt><trkpt lat="37.690190016333084" lon="14.762033517742971"><ele>397.0</ele><time>2026-04-06T08:11:17.999Z</time></trkpt><trkpt lat="37.69020309424063" lon="14.761917309605353"><ele>395.0</ele><time>2026-04-06T08:11:18.999Z</time></trkpt><trkpt lat="37.69021510315816" lon="14.76180484496708"><ele>393.6</ele><time>2026-04-06T08:11:19.999Z</time></trkpt><trkpt lat="37.69022966615793" lon="14.76171222074305"><ele>392.2</ele><time>2026-04-06T08:11:20.999Z</time></trkpt><trkpt lat="37.69018546786053" lon="14.761589915325038"><ele>390.79999999999995</ele><time>2026-04-06T08:11:22.999Z</time></trkpt><trkpt lat="37.690073907175375" lon="14.761508242657369"><ele>389.4</ele><time>2026-04-06T08:11:25Z</time></trkpt><trkpt lat="37.689982669300484" lon="14.761489087548764"><ele>388.0</ele><time>2026-04-06T08:11:26Z</time></trkpt><trkpt lat="37.68988176153191" lon="14.761476117507053"><ele>388.00000000000006</ele><time>2026-04-06T08:11:27Z</time></trkpt><trkpt lat="37.68980480877127" lon="14.761439113542957"><ele>388.0</ele><time>2026-04-06T08:11:28Z</time></trkpt><trkpt lat="37.68973301288221" lon="14.761396675586282"><ele>388.0</ele><time>2026-04-06T08:11:29Z</time></trkpt><trkpt lat="37.68968183540406" lon="14.761340806734886"><ele>388.0</ele><time>2026-04-06T08:11:30Z</time></trkpt><trkpt lat="37.68963468948797" lon="14.761259980396497"><ele>388.00000000000006</ele><time>2026-04-06T08:11:31Z</time></trkpt><trkpt lat="37.689578979042466" lon="14.761158428767269"><ele>388.0</ele><time>2026-04-06T08:11:32Z</time></trkpt><trkpt lat="37.68952402916469" lon="14.761047921969203"><ele>386.50000000000006</ele><time>2026-04-06T08:11:33Z</time></trkpt><trkpt lat="37.689483625653054" lon="14.760953545439126"><ele>385.0</ele><time>2026-04-06T08:11:34Z</time></trkpt><trkpt lat="37.68944884782366" lon="14.760859767655239"><ele>383.5</ele><time>2026-04-06T08:11:35Z</time></trkpt><trkpt lat="37.68942436006958" lon="14.76075690623752"><ele>382.0</ele><time>2026-04-06T08:11:36Z</time></trkpt><trkpt lat="37.68941319741419" lon="14.760662215609857"><ele>380.5</ele><time>2026-04-06T08:11:37Z</time></trkpt><trkpt lat="37.68942477115014" lon="14.760574514153795"><ele>379.0</ele><time>2026-04-06T08:11:38Z</time></trkpt><trkpt lat="37.689422887046035" lon="14.760455048642415"><ele>379.0</ele><time>2026-04-06T08:11:39Z</time></trkpt><trkpt lat="37.68945207591187" lon="14.760334675338017"><ele>379.0</ele><time>2026-04-06T08:11:40Z</time></trkpt><trkpt lat="37.68947736744604" lon="14.760207879659502"><ele>379.0</ele><time>2026-04-06T08:11:41Z</time></trkpt><trkpt lat="37.689498098108274" lon="14.760050901289773"><ele>379.0</ele><time>2026-04-06T08:11:42Z</time></trkpt><trkpt lat="37.68951668351109" lon="14.759877357536181"><ele>379.0</ele><time>2026-04-06T08:11:43Z</time></trkpt><trkpt lat="37.68955589409993" lon="14.75973203442223"><ele>379.0</ele><time>2026-04-06T08:11:44Z</time></trkpt><trkpt lat="37.68958006655826" lon="14.759599531843534"><ele>379.0</ele><time>2026-04-06T08:11:45Z</time></trkpt><trkpt lat="37.68959266224375" lon="14.759450641480113"><ele>379.0</ele><time>2026-04-06T08:11:46Z</time></trkpt><trkpt lat="37.689629244256864" lon="14.759300277333056"><ele>379.0</ele><time>2026-04-06T08:11:47Z</time></trkpt><trkpt lat="37.68965926744725" lon="14.759126939358708"><ele>379.0</ele><time>2026-04-06T08:11:48Z</time></trkpt><trkpt lat="37.68968886551865" lon="14.758970729754557"><ele>379.0</ele><time>2026-04-06T08:11:49Z</time></trkpt><trkpt lat="37.689709820039674" lon="14.758823983281024"><ele>379.0</ele><time>2026-04-06T08:11:50Z</time></trkpt><trkpt lat="37.68972255096005" lon="14.758693177011727"><ele>379.0</ele><time>2026-04-06T08:11:51Z</time></trkpt><trkpt lat="37.6897389561912" lon="14.75856761963961"><ele>379.0</ele><time>2026-04-06T08:11:52Z</time></trkpt><trkpt lat="37.68975178329497" lon="14.7584333554831"><ele>379.0</ele><time>2026-04-06T08:11:53Z</time></trkpt><trkpt lat="37.68975778710909" lon="14.758315587537526"><ele>379.0</ele><time>2026-04-06T08:11:54Z</time></trkpt><trkpt lat="37.68973984751594" lon="14.758210482501847"><ele>379.0</ele><time>2026-04-06T08:11:55Z</time></trkpt><trkpt lat="37.689705399492965" lon="14.758123277806856"><ele>379.0</ele><time>2026-04-06T08:11:56Z</time></trkpt><trkpt lat="37.6896587015218" lon="14.75804095231539"><ele>379.0</ele><time>2026-04-06T08:11:57Z</time></trkpt><trkpt lat="37.68959281791494" lon="14.757939383918426"><ele>379.0</ele><time>2026-04-06T08:11:58Z</time></trkpt><trkpt lat="37.68952400735015" lon="14.75785867798024"><ele>379.0</ele><time>2026-04-06T08:11:59Z</time></trkpt><trkpt lat="37.689469807211594" lon="14.757751864558196"><ele>379.0</ele><time>2026-04-06T08:12:00Z</time></trkpt><trkpt lat="37.68941011164267" lon="14.757667242067614"><ele>374.75</ele><time>2026-04-06T08:12:01Z</time></trkpt><trkpt lat="37.689345796296486" lon="14.757579292559301"><ele>370.5</ele><time>2026-04-06T08:12:02Z</time></trkpt><trkpt lat="37.68926809751192" lon="14.757494535580854"><ele>366.25</ele><time>2026-04-06T08:12:03Z</time></trkpt><trkpt lat="37.68918918711803" lon="14.757383027053493"><ele>362.0</ele><time>2026-04-06T08:12:04Z</time></trkpt><trkpt lat="37.68909921148818" lon="14.757253766423393"><ele>362.0</ele><time>2026-04-06T08:12:05Z</time></trkpt><trkpt lat="37.68901241581401" lon="14.75708491496054"><ele>362.0</ele><time>2026-04-06T08:12:06Z</time></trkpt><trkpt lat="37.6889160500062" lon="14.756956002620845"><ele>362.0</ele><time>2026-04-06T08:12:07Z</time></trkpt><trkpt lat="37.68883258910498" lon="14.756841702515166"><ele>362.0</ele><time>2026-04-06T08:12:08Z</time></trkpt><trkpt lat="37.68875457635483" lon="14.75673122298911"><ele>360.40000000000003</ele><time>2026-04-06T08:12:09Z</time></trkpt><trkpt lat="37.68868900480477" lon="14.75661648547699"><ele>358.8</ele><time>2026-04-06T08:12:10Z</time></trkpt><trkpt lat="37.68861857115668" lon="14.756511920996266"><ele>357.2</ele><time>2026-04-06T08:12:11Z</time></trkpt><trkpt lat="37.6885620329892" lon="14.756412871970232"><ele>355.6</ele><time>2026-04-06T08:12:12Z</time></trkpt><trkpt lat="37.68850153233857" lon="14.756308537640644"><ele>354.0</ele><time>2026-04-06T08:12:13Z</time></trkpt><trkpt lat="37.6884521838803" lon="14.75617796845733"><ele>354.0</ele><time>2026-04-06T08:12:14Z</time></trkpt><trkpt lat="37.68840352793693" lon="14.756052129758181"><ele>354.0</ele><time>2026-04-06T08:12:15Z</time></trkpt><trkpt lat="37.68834257594504" lon="14.755932381493404"><ele>354.0</ele><time>2026-04-06T08:12:16Z</time></trkpt><trkpt lat="37.68828406958728" lon="14.75581954634254"><ele>354.0</ele><time>2026-04-06T08:12:17Z</time></trkpt><trkpt lat="37.688245825543866" lon="14.75568571259869"><ele>354.0</ele><time>2026-04-06T08:12:18Z</time></trkpt><trkpt lat="37.68822501122385" lon="14.755566866192579"><ele>356.0</ele><time>2026-04-06T08:12:19Z</time></trkpt><trkpt lat="37.688211324309655" lon="14.755430963943084"><ele>358.0</ele><time>2026-04-06T08:12:20Z</time></trkpt><trkpt lat="37.688191389060975" lon="14.75527217661979"><ele>360.0</ele><time>2026-04-06T08:12:21Z</time></trkpt><trkpt lat="37.688193671901985" lon="14.755110574347539"><ele>362.0</ele><time>2026-04-06T08:12:22Z</time></trkpt><trkpt lat="37.68820059219521" lon="14.754957272329019"><ele>362.0</ele><time>2026-04-06T08:12:23Z</time></trkpt><trkpt lat="37.688198567645586" lon="14.754821116129976"><ele>362.0</ele><time>2026-04-06T08:12:24Z</time></trkpt><trkpt lat="37.68820636741816" lon="14.754676482442243"><ele>362.0</ele><time>2026-04-06T08:12:24.999Z</time></trkpt><trkpt lat="37.688214861051144" lon="14.75453971730519"><ele>362.0</ele><time>2026-04-06T08:12:25.999Z</time></trkpt><trkpt lat="37.68822710168762" lon="14.754391468942474"><ele>362.0</ele><time>2026-04-06T08:12:26.999Z</time></trkpt><trkpt lat="37.6882231290089" lon="14.75424784231335"><ele>361.0</ele><time>2026-04-06T08:12:27.999Z</time></trkpt><trkpt lat="37.688208448792" lon="14.75412106387102"><ele>360.0</ele><time>2026-04-06T08:12:28.999Z</time></trkpt><trkpt lat="37.68818839296504" lon="14.75399038771267"><ele>359.0</ele><time>2026-04-06T08:12:29.999Z</time></trkpt><trkpt lat="37.68818272432447" lon="14.753869444142898"><ele>358.0</ele><time>2026-04-06T08:12:30.999Z</time></trkpt><trkpt lat="37.68816267394947" lon="14.753759945863527"><ele>357.0</ele><time>2026-04-06T08:12:31.999Z</time></trkpt><trkpt lat="37.688139811840216" lon="14.75365488352951"><ele>357.0</ele><time>2026-04-06T08:12:32.999Z</time></trkpt><trkpt lat="37.68812380821014" lon="14.753550833383361"><ele>357.0</ele><time>2026-04-06T08:12:33.999Z</time></trkpt><trkpt lat="37.68810526399223" lon="14.753452596572659"><ele>357.0</ele><time>2026-04-06T08:12:34.999Z</time></trkpt><trkpt lat="37.68808523585497" lon="14.753357209309689"><ele>357.0</ele><time>2026-04-06T08:12:35.999Z</time></trkpt><trkpt lat="37.688053925435575" lon="14.753264968169205"><ele>357.0</ele><time>2026-04-06T08:12:36.999Z</time></trkpt><trkpt lat="37.688022129338904" lon="14.753168891593727"><ele>357.0</ele><time>2026-04-06T08:12:37.999Z</time></trkpt><trkpt lat="37.68799163844018" lon="14.753082431892832"><ele>356.0</ele><time>2026-04-06T08:12:38.999Z</time></trkpt><trkpt lat="37.68796419206409" lon="14.753006455650711"><ele>355.0</ele><time>2026-04-06T08:12:39.999Z</time></trkpt><trkpt lat="37.68792363266091" lon="14.752924092723141"><ele>354.0</ele><time>2026-04-06T08:12:40.999Z</time></trkpt><trkpt lat="37.68786809428194" lon="14.752837095555476"><ele>353.0</ele><time>2026-04-06T08:12:41.999Z</time></trkpt><trkpt lat="37.68780566191991" lon="14.7527547032865"><ele>352.0</ele><time>2026-04-06T08:12:42.999Z</time></trkpt><trkpt lat="37.687735703529256" lon="14.75267733793401"><ele>351.0</ele><time>2026-04-06T08:12:43.999Z</time></trkpt><trkpt lat="37.68766760896295" lon="14.752589565765035"><ele>350.1666666666667</ele><time>2026-04-06T08:12:44.999Z</time></trkpt><trkpt lat="37.6876007155002" lon="14.752500055220315"><ele>349.3333333333333</ele><time>2026-04-06T08:12:45.999Z</time></trkpt><trkpt lat="37.687535840975805" lon="14.75243582003981"><ele>348.5</ele><time>2026-04-06T08:12:46.999Z</time></trkpt><trkpt lat="37.68745870672464" lon="14.752382846487201"><ele>347.66666666666663</ele><time>2026-04-06T08:12:47.999Z</time></trkpt><trkpt lat="37.68738353835263" lon="14.752335559294757"><ele>346.8333333333333</ele><time>2026-04-06T08:12:48.999Z</time></trkpt><trkpt lat="37.6873060837387" lon="14.752298934872519"><ele>346.0</ele><time>2026-04-06T08:12:49.999Z</time></trkpt><trkpt lat="37.6872275357113" lon="14.752289952933877"><ele>346.0</ele><time>2026-04-06T08:12:50.999Z</time></trkpt><trkpt lat="37.68713636665886" lon="14.752301364994333"><ele>346.0</ele><time>2026-04-06T08:12:51.999Z</time></trkpt><trkpt lat="37.687025431990136" lon="14.75232724870891"><ele>346.0</ele><time>2026-04-06T08:12:52.999Z</time></trkpt><trkpt lat="37.68691232702912" lon="14.752362081847599"><ele>346.0</ele><time>2026-04-06T08:12:53.999Z</time></trkpt><trkpt lat="37.68679329529807" lon="14.752402264224644"><ele>346.0</ele><time>2026-04-06T08:12:54.999Z</time></trkpt><trkpt lat="37.68668248725237" lon="14.752444500153091"><ele>345.8</ele><time>2026-04-06T08:12:55.999Z</time></trkpt><trkpt lat="37.686576407593435" lon="14.752474138106612"><ele>345.6</ele><time>2026-04-06T08:12:56.999Z</time></trkpt><trkpt lat="37.68646915675961" lon="14.752488057165452"><ele>345.4</ele><time>2026-04-06T08:12:57.999Z</time></trkpt><trkpt lat="37.686363047297036" lon="14.75248912647406"><ele>345.2</ele><time>2026-04-06T08:12:58.999Z</time></trkpt><trkpt lat="37.68625791209904" lon="14.752496984812408"><ele>345.0</ele><time>2026-04-06T08:12:59.999Z</time></trkpt><trkpt lat="37.68616770808533" lon="14.75247447066263"><ele>344.0</ele><time>2026-04-06T08:13:00.999Z</time></trkpt><trkpt lat="37.686081453625334" lon="14.752457737349951"><ele>343.0</ele><time>2026-04-06T08:13:01.999Z</time></trkpt><trkpt lat="37.68600843540726" lon="14.752439241823675"><ele>342.0</ele><time>2026-04-06T08:13:02.999Z</time></trkpt><trkpt lat="37.68593603321821" lon="14.75241034436562"><ele>341.0</ele><time>2026-04-06T08:13:03.999Z</time></trkpt><trkpt lat="37.685865356797436" lon="14.752388203545605"><ele>340.0</ele><time>2026-04-06T08:13:04.999Z</time></trkpt><trkpt lat="37.685798987139584" lon="14.752376690229372"><ele>339.0</ele><time>2026-04-06T08:13:05.999Z</time></trkpt><trkpt lat="37.68571528698154" lon="14.752377198905238"><ele>339.0</ele><time>2026-04-06T08:13:06.999Z</time></trkpt><trkpt lat="37.68563414664632" lon="14.752380248426496"><ele>339.0</ele><time>2026-04-06T08:13:07.999Z</time></trkpt><trkpt lat="37.685551720526576" lon="14.752380610640909"><ele>339.0</ele><time>2026-04-06T08:13:08.999Z</time></trkpt><trkpt lat="37.68547521742274" lon="14.75240382587547"><ele>339.0</ele><time>2026-04-06T08:13:09.999Z</time></trkpt><trkpt lat="37.685385225612166" lon="14.7524308963819"><ele>339.0</ele><time>2026-04-06T08:13:10.999Z</time></trkpt><trkpt lat="37.68529966948846" lon="14.752427043970417"><ele>339.0</ele><time>2026-04-06T08:13:11.999Z</time></trkpt><trkpt lat="37.685203805225576" lon="14.752418731707019"><ele>336.79999999999995</ele><time>2026-04-06T08:13:12.999Z</time></trkpt><trkpt lat="37.685123232052895" lon="14.752380504933226"><ele>334.59999999999997</ele><time>2026-04-06T08:13:13.999Z</time></trkpt><trkpt lat="37.68504300108384" lon="14.752346958550524"><ele>332.4</ele><time>2026-04-06T08:13:14.999Z</time></trkpt><trkpt lat="37.68495914369899" lon="14.752297257251367"><ele>330.2</ele><time>2026-04-06T08:13:15.999Z</time></trkpt><trkpt lat="37.684868811995635" lon="14.752252554519837"><ele>328.0</ele><time>2026-04-06T08:13:16.999Z</time></trkpt><trkpt lat="37.684785731315976" lon="14.75219624973269"><ele>328.0</ele><time>2026-04-06T08:13:17.999Z</time></trkpt><trkpt lat="37.68471532116728" lon="14.752135319484214"><ele>328.0</ele><time>2026-04-06T08:13:18.999Z</time></trkpt><trkpt lat="37.684626106313296" lon="14.752082279492441"><ele>328.0</ele><time>2026-04-06T08:13:19.999Z</time></trkpt><trkpt lat="37.68454140112202" lon="14.752031920578336"><ele>328.0</ele><time>2026-04-06T08:13:20.999Z</time></trkpt><trkpt lat="37.68445796225537" lon="14.751982314518797"><ele>328.0</ele><time>2026-04-06T08:13:21.999Z</time></trkpt><trkpt lat="37.68437026484232" lon="14.75194707969666"><ele>325.4</ele><time>2026-04-06T08:13:22.999Z</time></trkpt><trkpt lat="37.684302623188984" lon="14.751889727088622"><ele>322.79999999999995</ele><time>2026-04-06T08:13:23.999Z</time></trkpt><trkpt lat="37.68421620068731" lon="14.751821041189128"><ele>320.2</ele><time>2026-04-06T08:13:24.999Z</time></trkpt><trkpt lat="37.68411790575501" lon="14.751772413110933"><ele>317.6</ele><time>2026-04-06T08:13:25.999Z</time></trkpt><trkpt lat="37.68402468408581" lon="14.751700330377796"><ele>315.0</ele><time>2026-04-06T08:13:26.999Z</time></trkpt><trkpt lat="37.68394088599776" lon="14.751656164536804"><ele>315.0</ele><time>2026-04-06T08:13:27.999Z</time></trkpt><trkpt lat="37.68384318195368" lon="14.751622913365816"><ele>315.0</ele><time>2026-04-06T08:13:28.999Z</time></trkpt><trkpt lat="37.68375371090358" lon="14.751570513498109"><ele>315.0</ele><time>2026-04-06T08:13:30Z</time></trkpt><trkpt lat="37.68366941677476" lon="14.751529505999315"><ele>315.0</ele><time>2026-04-06T08:13:31Z</time></trkpt><trkpt lat="37.683583621636345" lon="14.751509046676805"><ele>315.0</ele><time>2026-04-06T08:13:32Z</time></trkpt><trkpt lat="37.68349894293851" lon="14.751481893692112"><ele>313.2</ele><time>2026-04-06T08:13:33Z</time></trkpt><trkpt lat="37.68341331904282" lon="14.7515121937344"><ele>311.4</ele><time>2026-04-06T08:13:34Z</time></trkpt><trkpt lat="37.683329749928326" lon="14.751524815901655"><ele>309.6</ele><time>2026-04-06T08:13:35Z</time></trkpt><trkpt lat="37.68324830907658" lon="14.751545675627622"><ele>307.8</ele><time>2026-04-06T08:13:36Z</time></trkpt><trkpt lat="37.683155413866416" lon="14.751588393065653"><ele>306.0</ele><time>2026-04-06T08:13:37Z</time></trkpt><trkpt lat="37.683042457208686" lon="14.751631159057219"><ele>306.0</ele><time>2026-04-06T08:13:38Z</time></trkpt><trkpt lat="37.68290791481828" lon="14.751687931044048"><ele>306.0</ele><time>2026-04-06T08:13:39Z</time></trkpt><trkpt lat="37.68275144188866" lon="14.751736514500069"><ele>306.0</ele><time>2026-04-06T08:13:40Z</time></trkpt><trkpt lat="37.68261396280093" lon="14.751792783197986"><ele>306.0</ele><time>2026-04-06T08:13:41Z</time></trkpt><trkpt lat="37.68249722595822" lon="14.751840562308837"><ele>304.6</ele><time>2026-04-06T08:13:42Z</time></trkpt><trkpt lat="37.682386017256896" lon="14.751885913409874"><ele>303.20000000000005</ele><time>2026-04-06T08:13:43Z</time></trkpt><trkpt lat="37.682283957258576" lon="14.751926290658018"><ele>301.79999999999995</ele><time>2026-04-06T08:13:44Z</time></trkpt><trkpt lat="37.682181282108175" lon="14.751957025656369"><ele>300.4</ele><time>2026-04-06T08:13:45Z</time></trkpt><trkpt lat="37.68208607812771" lon="14.751977640605423"><ele>299.0</ele><time>2026-04-06T08:13:46Z</time></trkpt><trkpt lat="37.68197484824871" lon="14.751989025854703"><ele>298.0</ele><time>2026-04-06T08:13:47Z</time></trkpt><trkpt lat="37.68184793112897" lon="14.751989031388943"><ele>297.0</ele><time>2026-04-06T08:13:48Z</time></trkpt><trkpt lat="37.68173311981577" lon="14.751987401142364"><ele>296.0</ele><time>2026-04-06T08:13:49Z</time></trkpt><trkpt lat="37.68161388851215" lon="14.75198560847636"><ele>295.0</ele><time>2026-04-06T08:13:50Z</time></trkpt><trkpt lat="37.68148219542713" lon="14.752003122823863"><ele>295.0</ele><time>2026-04-06T08:13:51Z</time></trkpt><trkpt lat="37.68133179909668" lon="14.75199692306605"><ele>295.0</ele><time>2026-04-06T08:13:52Z</time></trkpt><trkpt lat="37.681172357726474" lon="14.751992024888375"><ele>295.0</ele><time>2026-04-06T08:13:53Z</time></trkpt><trkpt lat="37.6810239345175" lon="14.751988988782438"><ele>294.5</ele><time>2026-04-06T08:13:54Z</time></trkpt><trkpt lat="37.68089567574705" lon="14.751971327669898"><ele>294.0</ele><time>2026-04-06T08:13:55Z</time></trkpt><trkpt lat="37.680772092658955" lon="14.751986277032964"><ele>293.5</ele><time>2026-04-06T08:13:56Z</time></trkpt><trkpt lat="37.68063618934186" lon="14.752004579570215"><ele>293.0</ele><time>2026-04-06T08:13:57Z</time></trkpt><trkpt lat="37.68049128861897" lon="14.75203209937824"><ele>293.0</ele><time>2026-04-06T08:13:58Z</time></trkpt><trkpt lat="37.68034562188247" lon="14.752061631374342"><ele>293.0</ele><time>2026-04-06T08:13:59Z</time></trkpt><trkpt lat="37.68021561544908" lon="14.752082569697391"><ele>293.0</ele><time>2026-04-06T08:14:00Z</time></trkpt><trkpt lat="37.68008329388495" lon="14.752117310337624"><ele>293.0</ele><time>2026-04-06T08:14:01Z</time></trkpt><trkpt lat="37.67995615699998" lon="14.752140993733404"><ele>293.0</ele><time>2026-04-06T08:14:02Z</time></trkpt><trkpt lat="37.67983291207327" lon="14.752161338574378"><ele>293.0</ele><time>2026-04-06T08:14:03Z</time></trkpt><trkpt lat="37.679708242443134" lon="14.75217182708853"><ele>293.0</ele><time>2026-04-06T08:14:04Z</time></trkpt><trkpt lat="37.67959919796843" lon="14.752191217549706"><ele>293.0</ele><time>2026-04-06T08:14:05Z</time></trkpt><trkpt lat="37.679505226412736" lon="14.752209818688879"><ele>292.83333333333337</ele><time>2026-04-06T08:14:06Z</time></trkpt><trkpt lat="37.67942128276885" lon="14.752227904304073"><ele>292.6666666666667</ele><time>2026-04-06T08:14:07Z</time></trkpt><trkpt lat="37.67933688913277" lon="14.752219490823336"><ele>292.5</ele><time>2026-04-06T08:14:08Z</time></trkpt><trkpt lat="37.679266952921026" lon="14.75222408839192"><ele>292.3333333333333</ele><time>2026-04-06T08:14:09Z</time></trkpt><trkpt lat="37.67917419878382" lon="14.752241098523424"><ele>292.16666666666663</ele><time>2026-04-06T08:14:10Z</time></trkpt><trkpt lat="37.67909002247451" lon="14.75224273682636"><ele>292.0</ele><time>2026-04-06T08:14:11Z</time></trkpt><trkpt lat="37.679025596848135" lon="14.75223911931949"><ele>292.0</ele><time>2026-04-06T08:14:12Z</time></trkpt><trkpt lat="37.67896129041233" lon="14.752240907518681"><ele>292.0</ele><time>2026-04-06T08:14:13Z</time></trkpt><trkpt lat="37.67888124775688" lon="14.752239506195584"><ele>292.0</ele><time>2026-04-06T08:14:14Z</time></trkpt><trkpt lat="37.67881016611537" lon="14.752238235131408"><ele>292.0</ele><time>2026-04-06T08:14:15Z</time></trkpt><trkpt lat="37.67872781614886" lon="14.752244216829961"><ele>292.0</ele><time>2026-04-06T08:14:16Z</time></trkpt><trkpt lat="37.678648154796335" lon="14.752227905226631"><ele>292.0</ele><time>2026-04-06T08:14:17Z</time></trkpt><trkpt lat="37.678554397864715" lon="14.752201002024664"><ele>290.25</ele><time>2026-04-06T08:14:18Z</time></trkpt><trkpt lat="37.67845524640738" lon="14.75216975940838"><ele>288.5</ele><time>2026-04-06T08:14:19Z</time></trkpt><trkpt lat="37.678360839136666" lon="14.752144053882333"><ele>286.75</ele><time>2026-04-06T08:14:20Z</time></trkpt><trkpt lat="37.67825309937557" lon="14.752113224565527"><ele>285.0</ele><time>2026-04-06T08:14:21Z</time></trkpt><trkpt lat="37.67807261769523" lon="14.75205208586071"><ele>285.0</ele><time>2026-04-06T08:14:23Z</time></trkpt><trkpt lat="37.677984583567834" lon="14.752018744690949"><ele>285.0</ele><time>2026-04-06T08:14:24Z</time></trkpt><trkpt lat="37.677901828897255" lon="14.751994447844556"><ele>285.0</ele><time>2026-04-06T08:14:25Z</time></trkpt><trkpt lat="37.67782619350471" lon="14.751973034044912"><ele>285.0</ele><time>2026-04-06T08:14:26Z</time></trkpt><trkpt lat="37.67774813587406" lon="14.75194398029202"><ele>285.0</ele><time>2026-04-06T08:14:27Z</time></trkpt><trkpt lat="37.67766068745641" lon="14.75191442800828"><ele>285.0</ele><time>2026-04-06T08:14:28Z</time></trkpt><trkpt lat="37.677563500655005" lon="14.751884101000602"><ele>284.1666666666667</ele><time>2026-04-06T08:14:28.999Z</time></trkpt><trkpt lat="37.67747279049053" lon="14.751850759767347"><ele>283.3333333333333</ele><time>2026-04-06T08:14:29.999Z</time></trkpt><trkpt lat="37.67738956195325" lon="14.751819792408027"><ele>282.5</ele><time>2026-04-06T08:14:30.999Z</time></trkpt><trkpt lat="37.67731370615954" lon="14.75179852330776"><ele>281.66666666666663</ele><time>2026-04-06T08:14:31.999Z</time></trkpt><trkpt lat="37.67724749847761" lon="14.751782058241405"><ele>280.8333333333333</ele><time>2026-04-06T08:14:32.999Z</time></trkpt><trkpt lat="37.67717559005577" lon="14.751764988512592"><ele>280.0</ele><time>2026-04-06T08:14:33.999Z</time></trkpt><trkpt lat="37.67710317880784" lon="14.75174414093278"><ele>280.0</ele><time>2026-04-06T08:14:34.999Z</time></trkpt><trkpt lat="37.67703586361831" lon="14.751721553296733"><ele>280.0</ele><time>2026-04-06T08:14:35.999Z</time></trkpt><trkpt lat="37.67697127651972" lon="14.751708060778993"><ele>280.0</ele><time>2026-04-06T08:14:36.999Z</time></trkpt><trkpt lat="37.676906321923795" lon="14.751720411320033"><ele>280.0</ele><time>2026-04-06T08:14:37.999Z</time></trkpt><trkpt lat="37.676837832427765" lon="14.751772196238623"><ele>280.0</ele><time>2026-04-06T08:14:38.999Z</time></trkpt><trkpt lat="37.67674300236265" lon="14.751803440673923"><ele>280.0</ele><time>2026-04-06T08:14:39.999Z</time></trkpt><trkpt lat="37.67663324559256" lon="14.751861603942638"><ele>279.4</ele><time>2026-04-06T08:14:40.999Z</time></trkpt><trkpt lat="37.67652899408221" lon="14.751906616739843"><ele>278.8</ele><time>2026-04-06T08:14:41.999Z</time></trkpt><trkpt lat="37.676432380655996" lon="14.751942161953659"><ele>278.2</ele><time>2026-04-06T08:14:42.999Z</time></trkpt><trkpt lat="37.67633268027809" lon="14.75196892295239"><ele>277.6</ele><time>2026-04-06T08:14:43.999Z</time></trkpt><trkpt lat="37.676227089233954" lon="14.751967878325715"><ele>277.0</ele><time>2026-04-06T08:14:44.999Z</time></trkpt><trkpt lat="37.67608544543485" lon="14.751961284515836"><ele>276.2</ele><time>2026-04-06T08:14:45.999Z</time></trkpt><trkpt lat="37.67595404233415" lon="14.751945259009466"><ele>275.4</ele><time>2026-04-06T08:14:46.999Z</time></trkpt><trkpt lat="37.67584118888912" lon="14.751927109872033"><ele>274.6</ele><time>2026-04-06T08:14:47.999Z</time></trkpt><trkpt lat="37.675736731513254" lon="14.751924510841881"><ele>273.8</ele><time>2026-04-06T08:14:48.999Z</time></trkpt><trkpt lat="37.675640604547254" lon="14.751900329377834"><ele>273.0</ele><time>2026-04-06T08:14:49.999Z</time></trkpt><trkpt lat="37.67554907147441" lon="14.751872656836918"><ele>272.6</ele><time>2026-04-06T08:14:50.999Z</time></trkpt><trkpt lat="37.67547099103987" lon="14.751839228473052"><ele>272.20000000000005</ele><time>2026-04-06T08:14:51.999Z</time></trkpt><trkpt lat="37.67539172238855" lon="14.75180087480767"><ele>271.8</ele><time>2026-04-06T08:14:52.999Z</time></trkpt><trkpt lat="37.67529334406925" lon="14.751766509889357"><ele>271.40000000000003</ele><time>2026-04-06T08:14:53.999Z</time></trkpt><trkpt lat="37.675192357260585" lon="14.751738385216722"><ele>271.0</ele><time>2026-04-06T08:14:54.999Z</time></trkpt><trkpt lat="37.67511067149607" lon="14.751713535638295"><ele>271.0</ele><time>2026-04-06T08:14:55.999Z</time></trkpt><trkpt lat="37.67499754331727" lon="14.751682720845148"><ele>271.0</ele><time>2026-04-06T08:14:57.999Z</time></trkpt><trkpt lat="37.674932495115776" lon="14.751662733924118"><ele>271.0</ele><time>2026-04-06T08:14:59.999Z</time></trkpt><trkpt lat="37.674859492378175" lon="14.751655373959922"><ele>271.0</ele><time>2026-04-06T08:16:13Z</time></trkpt><trkpt lat="37.67476704123449" lon="14.75170816898787"><ele>271.0</ele><time>2026-04-06T08:16:16Z</time></trkpt><trkpt lat="37.67472581089358" lon="14.75180128080642"><ele>271.0</ele><time>2026-04-06T08:16:17Z</time></trkpt><trkpt lat="37.67468010317333" lon="14.751912352543032"><ele>271.0</ele><time>2026-04-06T08:16:18Z</time></trkpt><trkpt lat="37.67461848690185" lon="14.752027998451705"><ele>271.0</ele><time>2026-04-06T08:16:19Z</time></trkpt><trkpt lat="37.67455734635364" lon="14.752157960547775"><ele>271.0</ele><time>2026-04-06T08:16:20Z</time></trkpt><trkpt lat="37.67449989976171" lon="14.75229951382437"><ele>271.0</ele><time>2026-04-06T08:16:21Z</time></trkpt><trkpt lat="37.67446031961109" lon="14.752456288537452"><ele>271.0</ele><time>2026-04-06T08:16:22Z</time></trkpt><trkpt lat="37.67443943883732" lon="14.752601771573321"><ele>271.0</ele><time>2026-04-06T08:16:23Z</time></trkpt><trkpt lat="37.67442281147071" lon="14.75272667889062"><ele>271.0</ele><time>2026-04-06T08:16:24Z</time></trkpt><trkpt lat="37.67440658545347" lon="14.752820880639744"><ele>271.0</ele><time>2026-04-06T08:16:25Z</time></trkpt><trkpt lat="37.67438669592587" lon="14.752901442097066"><ele>271.0</ele><time>2026-04-06T08:16:26Z</time></trkpt><trkpt lat="37.67434371854305" lon="14.75296844236602"><ele>271.0</ele><time>2026-04-06T08:16:28Z</time></trkpt><trkpt lat="37.6742599544131" lon="14.753041136527171"><ele>271.0</ele><time>2026-04-06T08:16:30Z</time></trkpt><trkpt lat="37.67419592861006" lon="14.753103596037292"><ele>271.0</ele><time>2026-04-06T08:16:31Z</time></trkpt><trkpt lat="37.67413323617615" lon="14.753176870598239"><ele>271.0</ele><time>2026-04-06T08:16:31.999Z</time></trkpt><trkpt lat="37.6740602657537" lon="14.753266716682054"><ele>271.0</ele><time>2026-04-06T08:16:32.999Z</time></trkpt><trkpt lat="37.673977578381994" lon="14.753370006855164"><ele>271.0</ele><time>2026-04-06T08:16:33.999Z</time></trkpt><trkpt lat="37.67390138827455" lon="14.753492111607523"><ele>270.75</ele><time>2026-04-06T08:16:34.999Z</time></trkpt><trkpt lat="37.67380588019611" lon="14.753600137974319"><ele>270.5</ele><time>2026-04-06T08:16:35.999Z</time></trkpt><trkpt lat="37.6737035370831" lon="14.753711145453595"><ele>270.25</ele><time>2026-04-06T08:16:36.999Z</time></trkpt><trkpt lat="37.67359569101669" lon="14.753826119805703"><ele>270.0</ele><time>2026-04-06T08:16:37.999Z</time></trkpt><trkpt lat="37.67348121952314" lon="14.753938920295642"><ele>269.5</ele><time>2026-04-06T08:16:38.999Z</time></trkpt><trkpt lat="37.67336371417436" lon="14.75405380200561"><ele>269.0</ele><time>2026-04-06T08:16:39.999Z</time></trkpt><trkpt lat="37.673250022129466" lon="14.754165181454777"><ele>268.5</ele><time>2026-04-06T08:16:40.999Z</time></trkpt><trkpt lat="37.67314626926277" lon="14.754263668162979"><ele>268.0</ele><time>2026-04-06T08:16:41.999Z</time></trkpt><trkpt lat="37.673047460348506" lon="14.754366328560755"><ele>268.0</ele><time>2026-04-06T08:16:42.999Z</time></trkpt><trkpt lat="37.67294094105395" lon="14.754473185245924"><ele>268.0</ele><time>2026-04-06T08:16:43.999Z</time></trkpt><trkpt lat="37.672816548639375" lon="14.75458683053671"><ele>268.0</ele><time>2026-04-06T08:16:44.999Z</time></trkpt><trkpt lat="37.672705195955906" lon="14.75468347425521"><ele>268.0</ele><time>2026-04-06T08:16:45.999Z</time></trkpt><trkpt lat="37.67259872201471" lon="14.754760586712765"><ele>267.25</ele><time>2026-04-06T08:16:46.999Z</time></trkpt><trkpt lat="37.67248212709079" lon="14.754823764165934"><ele>266.5</ele><time>2026-04-06T08:16:47.999Z</time></trkpt><trkpt lat="37.67234573542657" lon="14.754868422826153"><ele>265.75</ele><time>2026-04-06T08:16:48.999Z</time></trkpt><trkpt lat="37.67219789478718" lon="14.754908660773832"><ele>265.0</ele><time>2026-04-06T08:16:49.999Z</time></trkpt><trkpt lat="37.67204520554855" lon="14.754946888800395"><ele>264.0</ele><time>2026-04-06T08:16:50.999Z</time></trkpt><trkpt lat="37.671891324187015" lon="14.75499473003181"><ele>263.0</ele><time>2026-04-06T08:16:51.999Z</time></trkpt><trkpt lat="37.671740740377864" lon="14.755039163262193"><ele>262.0</ele><time>2026-04-06T08:16:52.999Z</time></trkpt><trkpt lat="37.67159490448272" lon="14.75507714619972"><ele>262.0</ele><time>2026-04-06T08:16:53.999Z</time></trkpt><trkpt lat="37.671469901758385" lon="14.75510795579223"><ele>262.0</ele><time>2026-04-06T08:16:54.999Z</time></trkpt><trkpt lat="37.67134681661983" lon="14.755145409727017"><ele>262.0</ele><time>2026-04-06T08:16:55.999Z</time></trkpt><trkpt lat="37.67124790945316" lon="14.755189353948332"><ele>262.0</ele><time>2026-04-06T08:16:56.999Z</time></trkpt><trkpt lat="37.67115869112842" lon="14.755192503805"><ele>262.0</ele><time>2026-04-06T08:16:57.999Z</time></trkpt><trkpt lat="37.67109798337328" lon="14.75522816163702"><ele>262.0</ele><time>2026-04-06T08:16:58.999Z</time></trkpt><trkpt lat="37.671027596085764" lon="14.755229413211984"><ele>262.0</ele><time>2026-04-06T08:16:59.999Z</time></trkpt><trkpt lat="37.67096688626274" lon="14.755260790662923"><ele>262.0</ele><time>2026-04-06T08:17:01.999Z</time></trkpt><trkpt lat="37.67087214226772" lon="14.755289755336047"><ele>262.0</ele><time>2026-04-06T08:17:03.999Z</time></trkpt><trkpt lat="37.6707906785626" lon="14.755316322483242"><ele>262.0</ele><time>2026-04-06T08:17:04.999Z</time></trkpt><trkpt lat="37.67069298836703" lon="14.75534188350922"><ele>262.0</ele><time>2026-04-06T08:17:05.999Z</time></trkpt><trkpt lat="37.67057794310217" lon="14.755368244934147"><ele>262.0</ele><time>2026-04-06T08:17:06.999Z</time></trkpt><trkpt lat="37.67045285731766" lon="14.755402023663791"><ele>262.0</ele><time>2026-04-06T08:17:07.999Z</time></trkpt><trkpt lat="37.6703120791072" lon="14.755443948214417"><ele>262.0</ele><time>2026-04-06T08:17:08.999Z</time></trkpt><trkpt lat="37.67016544368512" lon="14.755489660506129"><ele>262.0</ele><time>2026-04-06T08:17:09.999Z</time></trkpt><trkpt lat="37.67001119468804" lon="14.755538645910976"><ele>261.66666666666663</ele><time>2026-04-06T08:17:10.999Z</time></trkpt><trkpt lat="37.66984976070142" lon="14.755584848805984"><ele>261.3333333333333</ele><time>2026-04-06T08:17:11.999Z</time></trkpt><trkpt lat="37.66970693162058" lon="14.755628719619084"><ele>261.0</ele><time>2026-04-06T08:17:12.999Z</time></trkpt><trkpt lat="37.66956820714267" lon="14.755671487704864"><ele>260.25</ele><time>2026-04-06T08:17:13.999Z</time></trkpt><trkpt lat="37.66943237942815" lon="14.755709201765292"><ele>259.5</ele><time>2026-04-06T08:17:14.999Z</time></trkpt><trkpt lat="37.669307883854096" lon="14.755741858263185"><ele>258.75</ele><time>2026-04-06T08:17:15.999Z</time></trkpt><trkpt lat="37.66919230058041" lon="14.755777747128336"><ele>258.0</ele><time>2026-04-06T08:17:16.999Z</time></trkpt><trkpt lat="37.669086606117126" lon="14.755813395038693"><ele>258.0</ele><time>2026-04-06T08:17:17.999Z</time></trkpt><trkpt lat="37.6689925286635" lon="14.755851979535324"><ele>258.0</ele><time>2026-04-06T08:17:18.999Z</time></trkpt><trkpt lat="37.6689203416325" lon="14.755903829394788"><ele>258.0</ele><time>2026-04-06T08:17:19.999Z</time></trkpt><trkpt lat="37.66887396782706" lon="14.755959435221653"><ele>258.0</ele><time>2026-04-06T08:17:20.999Z</time></trkpt><trkpt lat="37.66876886758034" lon="14.755951467865374"><ele>258.0</ele><time>2026-04-06T08:17:53Z</time></trkpt><trkpt lat="37.66869889680897" lon="14.755965447251011"><ele>258.0</ele><time>2026-04-06T08:17:54Z</time></trkpt><trkpt lat="37.66861028459366" lon="14.755979867889888"><ele>257.5</ele><time>2026-04-06T08:17:55Z</time></trkpt><trkpt lat="37.6685069045591" lon="14.756007582088246"><ele>257.0</ele><time>2026-04-06T08:17:56Z</time></trkpt><trkpt lat="37.6683881475967" lon="14.756020365446947"><ele>256.5</ele><time>2026-04-06T08:17:57Z</time></trkpt><trkpt lat="37.668264286137614" lon="14.7560571007154"><ele>256.0</ele><time>2026-04-06T08:17:58Z</time></trkpt><trkpt lat="37.668134092757825" lon="14.756097863744639"><ele>256.0</ele><time>2026-04-06T08:17:59Z</time></trkpt><trkpt lat="37.66800270403381" lon="14.756143264871012"><ele>256.0</ele><time>2026-04-06T08:18:00Z</time></trkpt><trkpt lat="37.66788117581624" lon="14.756206523045869"><ele>256.0</ele><time>2026-04-06T08:18:01Z</time></trkpt><trkpt lat="37.667747927289675" lon="14.756228940118698"><ele>256.0</ele><time>2026-04-06T08:18:02Z</time></trkpt><trkpt lat="37.667606781073474" lon="14.756271394203514"><ele>255.25</ele><time>2026-04-06T08:18:03Z</time></trkpt><trkpt lat="37.66746434232209" lon="14.756311286283816"><ele>254.5</ele><time>2026-04-06T08:18:04Z</time></trkpt><trkpt lat="37.667333449390355" lon="14.75634852340073"><ele>253.75</ele><time>2026-04-06T08:18:05Z</time></trkpt><trkpt lat="37.667212956790046" lon="14.756382801774418"><ele>253.0</ele><time>2026-04-06T08:18:06Z</time></trkpt><trkpt lat="37.667090045661844" lon="14.75641776816694"><ele>253.0</ele><time>2026-04-06T08:18:07Z</time></trkpt><trkpt lat="37.66695809568565" lon="14.75645561876736"><ele>253.0</ele><time>2026-04-06T08:18:08Z</time></trkpt><trkpt lat="37.666826474301686" lon="14.756495440217952"><ele>253.0</ele><time>2026-04-06T08:18:09Z</time></trkpt><trkpt lat="37.66668411052549" lon="14.756538664275775"><ele>253.0</ele><time>2026-04-06T08:18:10Z</time></trkpt><trkpt lat="37.66654980871647" lon="14.756580566437352"><ele>253.0</ele><time>2026-04-06T08:18:11Z</time></trkpt><trkpt lat="37.666403008073154" lon="14.756626473561841"><ele>253.0</ele><time>2026-04-06T08:18:12Z</time></trkpt><trkpt lat="37.66625254471615" lon="14.756674133526424"><ele>253.0</ele><time>2026-04-06T08:18:13Z</time></trkpt><trkpt lat="37.666112728793735" lon="14.75671842085302"><ele>252.33333333333331</ele><time>2026-04-06T08:18:14Z</time></trkpt><trkpt lat="37.66597578867251" lon="14.756760137973284"><ele>251.66666666666669</ele><time>2026-04-06T08:18:15Z</time></trkpt><trkpt lat="37.66581257296089" lon="14.7568065722616"><ele>251.0</ele><time>2026-04-06T08:18:16Z</time></trkpt><trkpt lat="37.66565753293285" lon="14.756850680594386"><ele>250.5</ele><time>2026-04-06T08:18:17Z</time></trkpt><trkpt lat="37.665517971979426" lon="14.756890386410479"><ele>250.0</ele><time>2026-04-06T08:18:18Z</time></trkpt><trkpt lat="37.66539228674721" lon="14.75694942247618"><ele>249.5</ele><time>2026-04-06T08:18:19Z</time></trkpt><trkpt lat="37.6652663835339" lon="14.75696846763107"><ele>249.0</ele><time>2026-04-06T08:18:20Z</time></trkpt><trkpt lat="37.66513098786683" lon="14.757010421282908"><ele>248.66666666666669</ele><time>2026-04-06T08:18:21Z</time></trkpt><trkpt lat="37.66498332085567" lon="14.75705484527647"><ele>248.33333333333334</ele><time>2026-04-06T08:18:22Z</time></trkpt><trkpt lat="37.664832695899456" lon="14.757108360466646"><ele>248.0</ele><time>2026-04-06T08:18:23Z</time></trkpt><trkpt lat="37.66468387873116" lon="14.757154419349014"><ele>248.0</ele><time>2026-04-06T08:18:24Z</time></trkpt><trkpt lat="37.66452729227294" lon="14.757190431638378"><ele>248.0</ele><time>2026-04-06T08:18:25Z</time></trkpt><trkpt lat="37.66438114061479" lon="14.75722965120953"><ele>248.0</ele><time>2026-04-06T08:18:26Z</time></trkpt><trkpt lat="37.6642321552924" lon="14.75728249095921"><ele>248.0</ele><time>2026-04-06T08:18:27Z</time></trkpt><trkpt lat="37.664066862764905" lon="14.75732233912513"><ele>248.0</ele><time>2026-04-06T08:18:28Z</time></trkpt><trkpt lat="37.663914913634464" lon="14.757370200173849"><ele>248.0</ele><time>2026-04-06T08:18:29Z</time></trkpt><trkpt lat="37.66377817947865" lon="14.757413008745202"><ele>248.0</ele><time>2026-04-06T08:18:30Z</time></trkpt><trkpt lat="37.66366108327437" lon="14.757447333741977"><ele>248.0</ele><time>2026-04-06T08:18:31Z</time></trkpt><trkpt lat="37.66355115174086" lon="14.757496511429228"><ele>248.0</ele><time>2026-04-06T08:18:31.999Z</time></trkpt><trkpt lat="37.663435278156186" lon="14.757527922468475"><ele>248.0</ele><time>2026-04-06T08:18:32.999Z</time></trkpt><trkpt lat="37.66330307292203" lon="14.757550944501759"><ele>247.75</ele><time>2026-04-06T08:18:33.999Z</time></trkpt><trkpt lat="37.6631662692487" lon="14.757608318225655"><ele>247.5</ele><time>2026-04-06T08:18:34.999Z</time></trkpt><trkpt lat="37.66303101687572" lon="14.757628395644302"><ele>247.25</ele><time>2026-04-06T08:18:35.999Z</time></trkpt><trkpt lat="37.66289734068274" lon="14.757678258465534"><ele>247.0</ele><time>2026-04-06T08:18:36.999Z</time></trkpt><trkpt lat="37.66275979737379" lon="14.757709326269461"><ele>246.66666666666666</ele><time>2026-04-06T08:18:37.999Z</time></trkpt><trkpt lat="37.662617866520534" lon="14.757751936572792"><ele>246.33333333333331</ele><time>2026-04-06T08:18:38.999Z</time></trkpt><trkpt lat="37.662463531108365" lon="14.757801836186967"><ele>246.0</ele><time>2026-04-06T08:18:39.999Z</time></trkpt><trkpt lat="37.662301843606016" lon="14.757851019318686"><ele>246.0</ele><time>2026-04-06T08:18:40.999Z</time></trkpt><trkpt lat="37.662161876648995" lon="14.757897652240926"><ele>246.0</ele><time>2026-04-06T08:18:41.999Z</time></trkpt><trkpt lat="37.6620283793755" lon="14.757939620532621"><ele>246.0</ele><time>2026-04-06T08:18:42.999Z</time></trkpt><trkpt lat="37.66189845825824" lon="14.75798153840466"><ele>246.0</ele><time>2026-04-06T08:18:43.999Z</time></trkpt><trkpt lat="37.66176644386121" lon="14.758020875602503"><ele>246.0</ele><time>2026-04-06T08:18:44.999Z</time></trkpt><trkpt lat="37.6616459554867" lon="14.758054545521857"><ele>246.00000000000003</ele><time>2026-04-06T08:18:45.999Z</time></trkpt><trkpt lat="37.66153229611683" lon="14.758087176637853"><ele>246.00000000000003</ele><time>2026-04-06T08:18:46.999Z</time></trkpt><trkpt lat="37.66142869836142" lon="14.758122650181468"><ele>246.0</ele><time>2026-04-06T08:18:47.999Z</time></trkpt><trkpt lat="37.66133862812191" lon="14.758155815651259"><ele>246.0</ele><time>2026-04-06T08:18:48.999Z</time></trkpt><trkpt lat="37.66124793833158" lon="14.758184412996169"><ele>246.0</ele><time>2026-04-06T08:18:49.999Z</time></trkpt><trkpt lat="37.66115742634598" lon="14.758190954848757"><ele>246.00000000000003</ele><time>2026-04-06T08:18:50.999Z</time></trkpt><trkpt lat="37.66107282186158" lon="14.758224825310814"><ele>246.00000000000003</ele><time>2026-04-06T08:18:51.999Z</time></trkpt><trkpt lat="37.66096543417067" lon="14.758259279959958"><ele>246.0</ele><time>2026-04-06T08:18:52.999Z</time></trkpt><trkpt lat="37.660853058326694" lon="14.75829714221449"><ele>246.0</ele><time>2026-04-06T08:18:53.999Z</time></trkpt><trkpt lat="37.660729526832064" lon="14.758333811332331"><ele>245.5</ele><time>2026-04-06T08:18:54.999Z</time></trkpt><trkpt lat="37.66060423992719" lon="14.758368357175039"><ele>245.0</ele><time>2026-04-06T08:18:55.999Z</time></trkpt><trkpt lat="37.66047193953029" lon="14.758405729774164"><ele>244.5</ele><time>2026-04-06T08:18:56.999Z</time></trkpt><trkpt lat="37.66033050462234" lon="14.758453407859221"><ele>244.0</ele><time>2026-04-06T08:18:57.999Z</time></trkpt><trkpt lat="37.66019941884311" lon="14.758497350760049"><ele>244.0</ele><time>2026-04-06T08:18:58.999Z</time></trkpt><trkpt lat="37.66006923447408" lon="14.758535012869189"><ele>244.0</ele><time>2026-04-06T08:18:59.999Z</time></trkpt><trkpt lat="37.659946381270565" lon="14.758573076892839"><ele>244.0</ele><time>2026-04-06T08:19:00.999Z</time></trkpt><trkpt lat="37.659840250202194" lon="14.758606189382615"><ele>244.0</ele><time>2026-04-06T08:19:01.999Z</time></trkpt><trkpt lat="37.65975422877526" lon="14.758631843699517"><ele>243.99999999999997</ele><time>2026-04-06T08:19:02.999Z</time></trkpt><trkpt lat="37.65967389436365" lon="14.758658785830756"><ele>244.0</ele><time>2026-04-06T08:19:03.999Z</time></trkpt><trkpt lat="37.65960643376651" lon="14.758682842711906"><ele>244.0</ele><time>2026-04-06T08:19:04.999Z</time></trkpt><trkpt lat="37.659506203839896" lon="14.758694290368688"><ele>244.0</ele><time>2026-04-06T08:19:06.999Z</time></trkpt><trkpt lat="37.65947539789576" lon="14.758791759805279"><ele>243.99999999999997</ele><time>2026-04-06T08:19:08.999Z</time></trkpt><trkpt lat="37.65946400916987" lon="14.75891570016584"><ele>244.0</ele><time>2026-04-06T08:19:10.999Z</time></trkpt><trkpt lat="37.659456682031795" lon="14.758995439822103"><ele>243.2</ele><time>2026-04-06T08:19:11.999Z</time></trkpt><trkpt lat="37.65944763529286" lon="14.759093893365144"><ele>242.39999999999998</ele><time>2026-04-06T08:19:12.999Z</time></trkpt><trkpt lat="37.65943684643142" lon="14.75920677485521"><ele>241.6</ele><time>2026-04-06T08:19:13.999Z</time></trkpt><trkpt lat="37.6594226119585" lon="14.759331300511487"><ele>240.8</ele><time>2026-04-06T08:19:14.999Z</time></trkpt><trkpt lat="37.65940900011494" lon="14.759450379502239"><ele>240.0</ele><time>2026-04-06T08:19:15.999Z</time></trkpt><trkpt lat="37.65939500583104" lon="14.759572804141493"><ele>239.83333333333334</ele><time>2026-04-06T08:19:16.999Z</time></trkpt><trkpt lat="37.659398707494574" lon="14.759673426489934"><ele>239.66666666666669</ele><time>2026-04-06T08:19:17.999Z</time></trkpt><trkpt lat="37.659367622473916" lon="14.759783533996123"><ele>239.5</ele><time>2026-04-06T08:19:18.999Z</time></trkpt><trkpt lat="37.659348394160475" lon="14.75986901398158"><ele>239.33333333333334</ele><time>2026-04-06T08:19:19.999Z</time></trkpt><trkpt lat="37.65932622886468" lon="14.7599554954695"><ele>239.16666666666669</ele><time>2026-04-06T08:19:20.999Z</time></trkpt><trkpt lat="37.65929617643151" lon="14.760037954449249"><ele>239.0</ele><time>2026-04-06T08:19:21.999Z</time></trkpt><trkpt lat="37.659262231911896" lon="14.760120079464295"><ele>238.66666666666669</ele><time>2026-04-06T08:19:22.999Z</time></trkpt><trkpt lat="37.65921450272522" lon="14.760208944483127"><ele>238.33333333333334</ele><time>2026-04-06T08:19:23.999Z</time></trkpt><trkpt lat="37.65915393374808" lon="14.760282749531052"><ele>238.0</ele><time>2026-04-06T08:19:24.999Z</time></trkpt><trkpt lat="37.659097418532255" lon="14.760351585624862"><ele>237.66666666666669</ele><time>2026-04-06T08:19:25.999Z</time></trkpt><trkpt lat="37.65904001369516" lon="14.760423057459862"><ele>237.33333333333334</ele><time>2026-04-06T08:19:26.999Z</time></trkpt><trkpt lat="37.65898826529257" lon="14.760492643387591"><ele>237.0</ele><time>2026-04-06T08:19:27.999Z</time></trkpt><trkpt lat="37.65895157398962" lon="14.760570771225543"><ele>237.0</ele><time>2026-04-06T08:19:28.999Z</time></trkpt><trkpt lat="37.658906178603445" lon="14.760639874641404"><ele>237.0</ele><time>2026-04-06T08:19:29.999Z</time></trkpt><trkpt lat="37.65884295892943" lon="14.760740288756537"><ele>237.0</ele><time>2026-04-06T08:19:31.999Z</time></trkpt><trkpt lat="37.65879041341343" lon="14.760808531807909"><ele>237.0</ele><time>2026-04-06T08:19:33.999Z</time></trkpt><trkpt lat="37.65873537303291" lon="14.760924945007002"><ele>237.0</ele><time>2026-04-06T08:19:35.999Z</time></trkpt><trkpt lat="37.6587019874279" lon="14.761059563890326"><ele>236.6</ele><time>2026-04-06T08:19:37.999Z</time></trkpt><trkpt lat="37.65863457055308" lon="14.761183489574023"><ele>236.2</ele><time>2026-04-06T08:19:39.999Z</time></trkpt><trkpt lat="37.658581104491915" lon="14.761321009247201"><ele>235.8</ele><time>2026-04-06T08:19:41.999Z</time></trkpt><trkpt lat="37.658510726171606" lon="14.761465666959822"><ele>235.4</ele><time>2026-04-06T08:19:43.999Z</time></trkpt><trkpt lat="37.65846172823914" lon="14.761529807193625"><ele>235.0</ele><time>2026-04-06T08:19:44.999Z</time></trkpt><trkpt lat="37.65839825567686" lon="14.761635457182827"><ele>234.0</ele><time>2026-04-06T08:19:46.999Z</time></trkpt><trkpt lat="37.658307313843586" lon="14.761708631014583"><ele>233.0</ele><time>2026-04-06T08:19:49Z</time></trkpt><trkpt lat="37.658234742812624" lon="14.761673920516508"><ele>232.0</ele><time>2026-04-06T08:19:50Z</time></trkpt><trkpt lat="37.65816082629721" lon="14.7616833345623"><ele>231.0</ele><time>2026-04-06T08:19:51Z</time></trkpt><trkpt lat="37.65809555811225" lon="14.761718108292756"><ele>230.0</ele><time>2026-04-06T08:19:52Z</time></trkpt><trkpt lat="37.65799948145396" lon="14.761826991461799"><ele>230.16666666666669</ele><time>2026-04-06T08:19:54Z</time></trkpt><trkpt lat="37.657962290155176" lon="14.761906972775693"><ele>230.33333333333334</ele><time>2026-04-06T08:19:55Z</time></trkpt><trkpt lat="37.65791674668498" lon="14.761967905276125"><ele>230.5</ele><time>2026-04-06T08:19:56Z</time></trkpt><trkpt lat="37.657886564134515" lon="14.76204790876748"><ele>230.66666666666669</ele><time>2026-04-06T08:19:57Z</time></trkpt><trkpt lat="37.65784053779053" lon="14.762138028944925"><ele>230.83333333333334</ele><time>2026-04-06T08:19:58Z</time></trkpt><trkpt lat="37.65780058375076" lon="14.76223156457966"><ele>231.0</ele><time>2026-04-06T08:19:59Z</time></trkpt><trkpt lat="37.65775943410153" lon="14.762322169636082"><ele>230.66666666666666</ele><time>2026-04-06T08:20:00Z</time></trkpt><trkpt lat="37.65773871325588" lon="14.762424912667205"><ele>230.33333333333331</ele><time>2026-04-06T08:20:01Z</time></trkpt><trkpt lat="37.657732083648085" lon="14.762544449702549"><ele>230.0</ele><time>2026-04-06T08:20:02Z</time></trkpt><trkpt lat="37.657715337667106" lon="14.76264390512977"><ele>229.66666666666666</ele><time>2026-04-06T08:20:03Z</time></trkpt><trkpt lat="37.65768872298161" lon="14.762743063326226"><ele>229.33333333333331</ele><time>2026-04-06T08:20:04Z</time></trkpt><trkpt lat="37.65767095759658" lon="14.762828338261038"><ele>229.0</ele><time>2026-04-06T08:20:05Z</time></trkpt><trkpt lat="37.65766717867186" lon="14.762931421845892"><ele>228.99999999999997</ele><time>2026-04-06T08:20:06Z</time></trkpt><trkpt lat="37.65766140253885" lon="14.763014402759948"><ele>229.0</ele><time>2026-04-06T08:20:07Z</time></trkpt><trkpt lat="37.657678693595244" lon="14.763116458806117"><ele>229.0</ele><time>2026-04-06T08:20:08Z</time></trkpt><trkpt lat="37.65769383637921" lon="14.763221679184497"><ele>229.0</ele><time>2026-04-06T08:20:09Z</time></trkpt><trkpt lat="37.657716151148975" lon="14.763337600705114"><ele>228.99999999999997</ele><time>2026-04-06T08:20:10Z</time></trkpt><trkpt lat="37.65774047637594" lon="14.763469578566527"><ele>229.0</ele><time>2026-04-06T08:20:11Z</time></trkpt><trkpt lat="37.65776210372125" lon="14.763606654991712"><ele>230.0</ele><time>2026-04-06T08:20:12Z</time></trkpt><trkpt lat="37.657781255191" lon="14.76375341569557"><ele>230.99999999999997</ele><time>2026-04-06T08:20:13Z</time></trkpt><trkpt lat="37.657797547478935" lon="14.763912170556672"><ele>231.99999999999997</ele><time>2026-04-06T08:20:14Z</time></trkpt><trkpt lat="37.65781092590176" lon="14.764051621143171"><ele>233.0</ele><time>2026-04-06T08:20:15Z</time></trkpt><trkpt lat="37.65781892708267" lon="14.764166015252382"><ele>234.0</ele><time>2026-04-06T08:20:16Z</time></trkpt><trkpt lat="37.6578265180804" lon="14.764274545050359"><ele>234.0</ele><time>2026-04-06T08:20:18Z</time></trkpt><trkpt lat="37.65777347138709" lon="14.764339607860082"><ele>233.99999999999997</ele><time>2026-04-06T08:20:22Z</time></trkpt><trkpt lat="37.65765570636362" lon="14.76441649221531"><ele>233.99999999999997</ele><time>2026-04-06T08:20:24Z</time></trkpt><trkpt lat="37.65757360660975" lon="14.764462174884212"><ele>234.0</ele><time>2026-04-06T08:20:25Z</time></trkpt><trkpt lat="37.65748117163003" lon="14.76449017756207"><ele>234.0</ele><time>2026-04-06T08:20:26Z</time></trkpt><trkpt lat="37.65737961977732" lon="14.764542899163526"><ele>234.0</ele><time>2026-04-06T08:20:27Z</time></trkpt><trkpt lat="37.65727016692145" lon="14.764599722524531"><ele>233.99999999999997</ele><time>2026-04-06T08:20:28Z</time></trkpt><trkpt lat="37.6571649305496" lon="14.764654356936221"><ele>233.99999999999997</ele><time>2026-04-06T08:20:29Z</time></trkpt><trkpt lat="37.65707186933445" lon="14.764702670467463"><ele>234.0</ele><time>2026-04-06T08:20:30Z</time></trkpt><trkpt lat="37.65698459871647" lon="14.76474797776474"><ele>234.0</ele><time>2026-04-06T08:20:31Z</time></trkpt><trkpt lat="37.656889037274325" lon="14.764798873512529"><ele>234.0</ele><time>2026-04-06T08:20:32Z</time></trkpt><trkpt lat="37.656783557604875" lon="14.76485619095869"><ele>233.99999999999997</ele><time>2026-04-06T08:20:33Z</time></trkpt><trkpt lat="37.65667595453888" lon="14.764936877159458"><ele>233.99999999999997</ele><time>2026-04-06T08:20:34Z</time></trkpt><trkpt lat="37.65657376287557" lon="14.764987711681858"><ele>234.0</ele><time>2026-04-06T08:20:35Z</time></trkpt><trkpt lat="37.65648933490472" lon="14.765041135079503"><ele>234.0</ele><time>2026-04-06T08:20:36Z</time></trkpt><trkpt lat="37.65639495366052" lon="14.765087551110607"><ele>234.0</ele><time>2026-04-06T08:20:36.999Z</time></trkpt><trkpt lat="37.6563094004273" lon="14.76513665149285"><ele>233.99999999999997</ele><time>2026-04-06T08:20:37.999Z</time></trkpt><trkpt lat="37.65620779763941" lon="14.765187062716747"><ele>233.99999999999997</ele><time>2026-04-06T08:20:38.999Z</time></trkpt><trkpt lat="37.656099290078174" lon="14.765243751281965"><ele>234.0</ele><time>2026-04-06T08:20:39.999Z</time></trkpt><trkpt lat="37.655986505412024" lon="14.765307164635745"><ele>234.0</ele><time>2026-04-06T08:20:40.999Z</time></trkpt><trkpt lat="37.65588085223158" lon="14.76537914883126"><ele>233.5</ele><time>2026-04-06T08:20:41.999Z</time></trkpt><trkpt lat="37.65578829003592" lon="14.76546069139481"><ele>233.0</ele><time>2026-04-06T08:20:42.999Z</time></trkpt><trkpt lat="37.65568940795208" lon="14.76554505815251"><ele>232.5</ele><time>2026-04-06T08:20:43.999Z</time></trkpt><trkpt lat="37.65557669824557" lon="14.7656270442585"><ele>232.0</ele><time>2026-04-06T08:20:44.999Z</time></trkpt><trkpt lat="37.65549138352189" lon="14.765733304316628"><ele>232.0</ele><time>2026-04-06T08:20:45.999Z</time></trkpt><trkpt lat="37.65539189504878" lon="14.765867916391546"><ele>232.0</ele><time>2026-04-06T08:20:46.999Z</time></trkpt><trkpt lat="37.655293853537" lon="14.765992654292381"><ele>232.0</ele><time>2026-04-06T08:20:47.999Z</time></trkpt><trkpt lat="37.65519185954364" lon="14.766132247672594"><ele>232.0</ele><time>2026-04-06T08:20:48.999Z</time></trkpt><trkpt lat="37.65509485163008" lon="14.766265468992303"><ele>231.25</ele><time>2026-04-06T08:20:49.999Z</time></trkpt><trkpt lat="37.655000993967306" lon="14.766404037198438"><ele>230.5</ele><time>2026-04-06T08:20:50.999Z</time></trkpt><trkpt lat="37.654909300012385" lon="14.7665357669809"><ele>229.75</ele><time>2026-04-06T08:20:51.999Z</time></trkpt><trkpt lat="37.654818586411295" lon="14.76665563101101"><ele>229.0</ele><time>2026-04-06T08:20:52.999Z</time></trkpt><trkpt lat="37.65473313452323" lon="14.766777078779027"><ele>229.5</ele><time>2026-04-06T08:20:53.999Z</time></trkpt><trkpt lat="37.65464958052788" lon="14.766906342001638"><ele>230.0</ele><time>2026-04-06T08:20:54.999Z</time></trkpt><trkpt lat="37.654573749991194" lon="14.767027607329036"><ele>230.5</ele><time>2026-04-06T08:20:55.999Z</time></trkpt><trkpt lat="37.654495915689" lon="14.767147507234206"><ele>231.0</ele><time>2026-04-06T08:20:56.999Z</time></trkpt><trkpt lat="37.65442097830735" lon="14.767276077127484"><ele>228.75</ele><time>2026-04-06T08:20:57.999Z</time></trkpt><trkpt lat="37.65435278248867" lon="14.767422367564494"><ele>226.5</ele><time>2026-04-06T08:20:58.999Z</time></trkpt><trkpt lat="37.654295770991105" lon="14.767567442326984"><ele>224.25</ele><time>2026-04-06T08:20:59.999Z</time></trkpt><trkpt lat="37.65424295853687" lon="14.767723181938406"><ele>222.0</ele><time>2026-04-06T08:21:00.999Z</time></trkpt><trkpt lat="37.65418389054937" lon="14.767880491338701"><ele>222.0</ele><time>2026-04-06T08:21:01.999Z</time></trkpt><trkpt lat="37.65411960190949" lon="14.768027908111707"><ele>222.0</ele><time>2026-04-06T08:21:02.999Z</time></trkpt><trkpt lat="37.654067236055425" lon="14.768168346686519"><ele>222.0</ele><time>2026-04-06T08:21:03.999Z</time></trkpt><trkpt lat="37.6540164383223" lon="14.76830668173359"><ele>222.0</ele><time>2026-04-06T08:21:04.999Z</time></trkpt><trkpt lat="37.653973272611935" lon="14.768438707113573"><ele>222.0</ele><time>2026-04-06T08:21:05.999Z</time></trkpt><trkpt lat="37.65393107315802" lon="14.768569570055206"><ele>222.0</ele><time>2026-04-06T08:21:06.999Z</time></trkpt><trkpt lat="37.65387958456978" lon="14.768681530771463"><ele>222.0</ele><time>2026-04-06T08:21:07.999Z</time></trkpt><trkpt lat="37.65383111466648" lon="14.76878938981184"><ele>222.0</ele><time>2026-04-06T08:21:08.999Z</time></trkpt><trkpt lat="37.65375495789921" lon="14.76890125601302"><ele>222.0</ele><time>2026-04-06T08:21:09.999Z</time></trkpt><trkpt lat="37.653665194999355" lon="14.76901906078137"><ele>219.8</ele><time>2026-04-06T08:21:10.999Z</time></trkpt><trkpt lat="37.65358134518604" lon="14.769125714409718"><ele>217.6</ele><time>2026-04-06T08:21:11.999Z</time></trkpt><trkpt lat="37.653492793922126" lon="14.76921256921892"><ele>215.4</ele><time>2026-04-06T08:21:12.999Z</time></trkpt><trkpt lat="37.653397714705534" lon="14.769273224922738"><ele>213.20000000000002</ele><time>2026-04-06T08:21:13.999Z</time></trkpt><trkpt lat="37.65329328729939" lon="14.769319605693754"><ele>211.0</ele><time>2026-04-06T08:21:14.999Z</time></trkpt><trkpt lat="37.6531849276631" lon="14.769365833628072"><ele>211.0</ele><time>2026-04-06T08:21:15.999Z</time></trkpt><trkpt lat="37.653072720955834" lon="14.769413251893253"><ele>211.0</ele><time>2026-04-06T08:21:16.999Z</time></trkpt><trkpt lat="37.65296170917727" lon="14.769458165226903"><ele>211.0</ele><time>2026-04-06T08:21:17.999Z</time></trkpt><trkpt lat="37.65284339604631" lon="14.76950949277866"><ele>211.0</ele><time>2026-04-06T08:21:18.999Z</time></trkpt><trkpt lat="37.652722244284675" lon="14.76956057096443"><ele>211.0</ele><time>2026-04-06T08:21:19.999Z</time></trkpt><trkpt lat="37.65260342524815" lon="14.76961046355443"><ele>211.0</ele><time>2026-04-06T08:21:20.999Z</time></trkpt><trkpt lat="37.652476919671194" lon="14.769660616967933"><ele>211.0</ele><time>2026-04-06T08:21:21.999Z</time></trkpt><trkpt lat="37.652341777347836" lon="14.7697128740656"><ele>211.0</ele><time>2026-04-06T08:21:22.999Z</time></trkpt><trkpt lat="37.65221176385265" lon="14.76976666902164"><ele>211.0</ele><time>2026-04-06T08:21:23.999Z</time></trkpt><trkpt lat="37.6520979355136" lon="14.769808545838774"><ele>211.0</ele><time>2026-04-06T08:21:24.999Z</time></trkpt><trkpt lat="37.65199494844647" lon="14.76984150761504"><ele>211.0</ele><time>2026-04-06T08:21:25.999Z</time></trkpt><trkpt lat="37.65189952408602" lon="14.769881703513725"><ele>211.0</ele><time>2026-04-06T08:21:26.999Z</time></trkpt><trkpt lat="37.6518096125195" lon="14.769925079150568"><ele>211.0</ele><time>2026-04-06T08:21:27.999Z</time></trkpt><trkpt lat="37.65170723873655" lon="14.769984971953203"><ele>210.8</ele><time>2026-04-06T08:21:28.999Z</time></trkpt><trkpt lat="37.65161634917504" lon="14.770066643517604"><ele>210.60000000000002</ele><time>2026-04-06T08:21:29.999Z</time></trkpt><trkpt lat="37.65154479767127" lon="14.77015720767444"><ele>210.4</ele><time>2026-04-06T08:21:30.999Z</time></trkpt><trkpt lat="37.65148514413139" lon="14.770245675273452"><ele>210.2</ele><time>2026-04-06T08:21:31.999Z</time></trkpt><trkpt lat="37.65143663378892" lon="14.770340929577841"><ele>210.0</ele><time>2026-04-06T08:21:32.999Z</time></trkpt><trkpt lat="37.651382101596695" lon="14.770446928619448"><ele>210.0</ele><time>2026-04-06T08:21:33.999Z</time></trkpt><trkpt lat="37.651333688080776" lon="14.770569085618638"><ele>210.0</ele><time>2026-04-06T08:21:34.999Z</time></trkpt><trkpt lat="37.65128520062504" lon="14.770692476293787"><ele>210.0</ele><time>2026-04-06T08:21:35.999Z</time></trkpt><trkpt lat="37.65124007579295" lon="14.770826467160628"><ele>210.0</ele><time>2026-04-06T08:21:36.999Z</time></trkpt><trkpt lat="37.651194105668004" lon="14.770966056491142"><ele>210.0</ele><time>2026-04-06T08:21:37.999Z</time></trkpt><trkpt lat="37.65112890320087" lon="14.771119372167734"><ele>210.0</ele><time>2026-04-06T08:21:38.999Z</time></trkpt><trkpt lat="37.651060766893494" lon="14.771288182247712"><ele>210.0</ele><time>2026-04-06T08:21:39.999Z</time></trkpt><trkpt lat="37.650990744953226" lon="14.771464369036574"><ele>210.0</ele><time>2026-04-06T08:21:40.999Z</time></trkpt><trkpt lat="37.65091504417051" lon="14.77165054109262"><ele>209.0</ele><time>2026-04-06T08:21:41.999Z</time></trkpt><trkpt lat="37.650838782234885" lon="14.771844277292228"><ele>208.0</ele><time>2026-04-06T08:21:42.999Z</time></trkpt><trkpt lat="37.65077021468757" lon="14.77202091791631"><ele>207.0</ele><time>2026-04-06T08:21:43.999Z</time></trkpt><trkpt lat="37.65070871082207" lon="14.772180911536063"><ele>207.0</ele><time>2026-04-06T08:21:44.999Z</time></trkpt><trkpt lat="37.65065280181225" lon="14.772329489404596"><ele>207.0</ele><time>2026-04-06T08:21:45.999Z</time></trkpt><trkpt lat="37.65059624340355" lon="14.772467013747375"><ele>207.0</ele><time>2026-04-06T08:21:46.999Z</time></trkpt><trkpt lat="37.6505419537443" lon="14.772597302918715"><ele>207.0</ele><time>2026-04-06T08:21:47.999Z</time></trkpt><trkpt lat="37.65048843521805" lon="14.772734094949035"><ele>207.0</ele><time>2026-04-06T08:21:48.999Z</time></trkpt><trkpt lat="37.650429289922435" lon="14.772882810968348"><ele>207.0</ele><time>2026-04-06T08:21:49.999Z</time></trkpt><trkpt lat="37.65036212914489" lon="14.773042758478859"><ele>207.0</ele><time>2026-04-06T08:21:50.999Z</time></trkpt><trkpt lat="37.65029666194322" lon="14.77320257240035"><ele>207.0</ele><time>2026-04-06T08:21:51.999Z</time></trkpt><trkpt lat="37.65023452408064" lon="14.773348200438962"><ele>207.0</ele><time>2026-04-06T08:21:52.999Z</time></trkpt><trkpt lat="37.65017938805914" lon="14.773481683950651"><ele>207.0</ele><time>2026-04-06T08:21:54Z</time></trkpt><trkpt lat="37.650120799303345" lon="14.773601099828587"><ele>207.0</ele><time>2026-04-06T08:21:55Z</time></trkpt><trkpt lat="37.65006743154218" lon="14.773719170163337"><ele>207.0</ele><time>2026-04-06T08:21:56Z</time></trkpt><trkpt lat="37.65001772194134" lon="14.773860835765488"><ele>207.0</ele><time>2026-04-06T08:21:57Z</time></trkpt><trkpt lat="37.64996973666345" lon="14.774025806623625"><ele>207.0</ele><time>2026-04-06T08:21:58Z</time></trkpt><trkpt lat="37.64990889717085" lon="14.774194183757094"><ele>207.0</ele><time>2026-04-06T08:21:59Z</time></trkpt><trkpt lat="37.649834132588715" lon="14.774364224333603"><ele>207.0</ele><time>2026-04-06T08:22:00Z</time></trkpt><trkpt lat="37.64977166387524" lon="14.774509803049993"><ele>207.39999999999998</ele><time>2026-04-06T08:22:01Z</time></trkpt><trkpt lat="37.64970575097405" lon="14.774619485623859"><ele>207.79999999999998</ele><time>2026-04-06T08:22:02Z</time></trkpt><trkpt lat="37.64964579764504" lon="14.774727752941486"><ele>208.2</ele><time>2026-04-06T08:22:03Z</time></trkpt><trkpt lat="37.64957491120913" lon="14.774831715593937"><ele>208.6</ele><time>2026-04-06T08:22:04Z</time></trkpt><trkpt lat="37.64950399521592" lon="14.774916745361521"><ele>209.0</ele><time>2026-04-06T08:22:05Z</time></trkpt><trkpt lat="37.64942405417284" lon="14.775013484497025"><ele>210.5</ele><time>2026-04-06T08:22:06Z</time></trkpt><trkpt lat="37.64932228497988" lon="14.775100861717158"><ele>212.0</ele><time>2026-04-06T08:22:07Z</time></trkpt><trkpt lat="37.6492186151546" lon="14.775196958069797"><ele>213.5</ele><time>2026-04-06T08:22:08Z</time></trkpt><trkpt lat="37.649124499313935" lon="14.775290976164774"><ele>215.0</ele><time>2026-04-06T08:22:09Z</time></trkpt><trkpt lat="37.649043396067434" lon="14.7753809709413"><ele>216.0</ele><time>2026-04-06T08:22:10Z</time></trkpt><trkpt lat="37.64897638501596" lon="14.775455884598477"><ele>217.0</ele><time>2026-04-06T08:22:11Z</time></trkpt><trkpt lat="37.64891234495198" lon="14.775520810360456"><ele>218.0</ele><time>2026-04-06T08:22:12Z</time></trkpt><trkpt lat="37.64881933380448" lon="14.775635590100599"><ele>219.0</ele><time>2026-04-06T08:22:14Z</time></trkpt><trkpt lat="37.64866158541164" lon="14.775598477323106"><ele>218.79999999999998</ele><time>2026-04-06T08:22:16Z</time></trkpt><trkpt lat="37.64856784507289" lon="14.775551281534517"><ele>218.59999999999997</ele><time>2026-04-06T08:22:18Z</time></trkpt><trkpt lat="37.64848932760011" lon="14.775424778590267"><ele>218.4</ele><time>2026-04-06T08:22:20Z</time></trkpt><trkpt lat="37.648437495713246" lon="14.775329446688286"><ele>218.2</ele><time>2026-04-06T08:22:21Z</time></trkpt><trkpt lat="37.64837802220496" lon="14.775226262470825"><ele>218.0</ele><time>2026-04-06T08:22:22Z</time></trkpt><trkpt lat="37.64831286017007" lon="14.775115022300218"><ele>217.75</ele><time>2026-04-06T08:22:23Z</time></trkpt><trkpt lat="37.648246827501616" lon="14.774994656649493"><ele>217.5</ele><time>2026-04-06T08:22:24Z</time></trkpt><trkpt lat="37.64817198619398" lon="14.774854490604518"><ele>217.25</ele><time>2026-04-06T08:22:25Z</time></trkpt><trkpt lat="37.64809292171373" lon="14.774710118247057"><ele>217.0</ele><time>2026-04-06T08:22:26Z</time></trkpt><trkpt lat="37.64801171571196" lon="14.774554335834463"><ele>217.0</ele><time>2026-04-06T08:22:27Z</time></trkpt><trkpt lat="37.64793138831532" lon="14.77438936780757"><ele>217.0</ele><time>2026-04-06T08:22:28Z</time></trkpt><trkpt lat="37.647858079511245" lon="14.774214192004017"><ele>217.0</ele><time>2026-04-06T08:22:29Z</time></trkpt><trkpt lat="37.64779281724352" lon="14.774029268288349"><ele>215.33333333333331</ele><time>2026-04-06T08:22:30Z</time></trkpt><trkpt lat="37.64772846789585" lon="14.773847822821324"><ele>213.66666666666669</ele><time>2026-04-06T08:22:31Z</time></trkpt><trkpt lat="37.64766110527279" lon="14.773666914008196"><ele>212.0</ele><time>2026-04-06T08:22:32Z</time></trkpt><trkpt lat="37.64759526513868" lon="14.7734786483192"><ele>209.66666666666669</ele><time>2026-04-06T08:22:33Z</time></trkpt><trkpt lat="37.64752989020341" lon="14.77328746275625"><ele>207.33333333333331</ele><time>2026-04-06T08:22:34Z</time></trkpt><trkpt lat="37.64746654219369" lon="14.773094290169006"><ele>205.0</ele><time>2026-04-06T08:22:35Z</time></trkpt><trkpt lat="37.64739891230125" lon="14.772905830515088"><ele>205.0</ele><time>2026-04-06T08:22:36Z</time></trkpt><trkpt lat="37.64732253573422" lon="14.77271007815084"><ele>205.0</ele><time>2026-04-06T08:22:37Z</time></trkpt><trkpt lat="37.647252301900195" lon="14.772518541265143"><ele>205.0</ele><time>2026-04-06T08:22:38Z</time></trkpt><trkpt lat="37.64718642473342" lon="14.772327923686802"><ele>205.0</ele><time>2026-04-06T08:22:39Z</time></trkpt><trkpt lat="37.64711459172172" lon="14.772131851747478"><ele>205.0</ele><time>2026-04-06T08:22:40Z</time></trkpt><trkpt lat="37.64704757264454" lon="14.771938818171927"><ele>205.0</ele><time>2026-04-06T08:22:41Z</time></trkpt><trkpt lat="37.646981664763096" lon="14.771755923147488"><ele>206.0</ele><time>2026-04-06T08:22:42Z</time></trkpt><trkpt lat="37.64691465746846" lon="14.771567420655746"><ele>207.0</ele><time>2026-04-06T08:22:43Z</time></trkpt><trkpt lat="37.64685535311181" lon="14.771389873105912"><ele>208.0</ele><time>2026-04-06T08:22:44Z</time></trkpt><trkpt lat="37.646795915330166" lon="14.771229895413805"><ele>208.0</ele><time>2026-04-06T08:22:45Z</time></trkpt><trkpt lat="37.64674331004809" lon="14.77108170760223"><ele>208.0</ele><time>2026-04-06T08:22:46Z</time></trkpt><trkpt lat="37.64669644824538" lon="14.770938028761007"><ele>208.0</ele><time>2026-04-06T08:22:47Z</time></trkpt><trkpt lat="37.64664951294951" lon="14.770811797676892"><ele>208.0</ele><time>2026-04-06T08:22:48Z</time></trkpt><trkpt lat="37.646620929548334" lon="14.770674726817166"><ele>209.4</ele><time>2026-04-06T08:22:49Z</time></trkpt><trkpt lat="37.64659627654803" lon="14.770532417172443"><ele>210.8</ele><time>2026-04-06T08:22:50Z</time></trkpt><trkpt lat="37.646574889523464" lon="14.770401094959224"><ele>212.2</ele><time>2026-04-06T08:22:51Z</time></trkpt><trkpt lat="37.646561375261925" lon="14.770284095661864"><ele>213.6</ele><time>2026-04-06T08:22:52Z</time></trkpt><trkpt lat="37.646545065509166" lon="14.770183489671254"><ele>215.0</ele><time>2026-04-06T08:22:53Z</time></trkpt><trkpt lat="37.64654250824653" lon="14.770089547692109"><ele>215.0</ele><time>2026-04-06T08:22:54.999Z</time></trkpt><trkpt lat="37.64638120368071" lon="14.770173551418083"><ele>215.0</ele><time>2026-04-06T08:22:56.999Z</time></trkpt><trkpt lat="37.646306172872485" lon="14.770375674187369"><ele>215.0</ele><time>2026-04-06T08:22:58.999Z</time></trkpt><trkpt lat="37.64626525140415" lon="14.770500793632857"><ele>215.0</ele><time>2026-04-06T08:22:59.999Z</time></trkpt><trkpt lat="37.64622519516307" lon="14.77062326747893"><ele>215.0</ele><time>2026-04-06T08:23:00.999Z</time></trkpt><trkpt lat="37.646191507750174" lon="14.770734675270672"><ele>215.0</ele><time>2026-04-06T08:23:01.999Z</time></trkpt><trkpt lat="37.64614944710869" lon="14.770836883949832"><ele>215.0</ele><time>2026-04-06T08:23:02.999Z</time></trkpt><trkpt lat="37.646094461652986" lon="14.77092325562621"><ele>215.0</ele><time>2026-04-06T08:23:03.999Z</time></trkpt><trkpt lat="37.64602836883792" lon="14.770981946606154"><ele>215.8</ele><time>2026-04-06T08:23:04.999Z</time></trkpt><trkpt lat="37.645952351932024" lon="14.771014914515018"><ele>216.6</ele><time>2026-04-06T08:23:05.999Z</time></trkpt><trkpt lat="37.64584721545082" lon="14.770998225716232"><ele>217.39999999999998</ele><time>2026-04-06T08:23:06.999Z</time></trkpt><trkpt lat="37.6457512990191" lon="14.770993203668036"><ele>218.2</ele><time>2026-04-06T08:23:07.999Z</time></trkpt><trkpt lat="37.645635914296896" lon="14.77099388613314"><ele>219.0</ele><time>2026-04-06T08:23:08.999Z</time></trkpt><trkpt lat="37.645515485315556" lon="14.770965009164062"><ele>219.0</ele><time>2026-04-06T08:23:09.999Z</time></trkpt><trkpt lat="37.64540271019599" lon="14.770930584849358"><ele>218.99999999999997</ele><time>2026-04-06T08:23:10.999Z</time></trkpt><trkpt lat="37.64528716902383" lon="14.770905716125693"><ele>218.99999999999997</ele><time>2026-04-06T08:23:11.999Z</time></trkpt><trkpt lat="37.64518037988376" lon="14.770893422324901"><ele>219.0</ele><time>2026-04-06T08:23:12.999Z</time></trkpt><trkpt lat="37.64507962258538" lon="14.770900976070187"><ele>219.0</ele><time>2026-04-06T08:23:13.999Z</time></trkpt><trkpt lat="37.64498815865044" lon="14.770935643601428"><ele>218.39999999999998</ele><time>2026-04-06T08:23:14.999Z</time></trkpt><trkpt lat="37.64490997944405" lon="14.771004047247716"><ele>217.79999999999998</ele><time>2026-04-06T08:23:15.999Z</time></trkpt><trkpt lat="37.64482817397584" lon="14.77107154468903"><ele>217.20000000000002</ele><time>2026-04-06T08:23:16.999Z</time></trkpt><trkpt lat="37.64476182007649" lon="14.771179125692118"><ele>216.60000000000002</ele><time>2026-04-06T08:23:17.999Z</time></trkpt><trkpt lat="37.64471427988135" lon="14.771303760637409"><ele>216.0</ele><time>2026-04-06T08:23:18.999Z</time></trkpt><trkpt lat="37.644666027788766" lon="14.771446906980508"><ele>213.5</ele><time>2026-04-06T08:23:19.999Z</time></trkpt><trkpt lat="37.64463243947489" lon="14.77160934117952"><ele>211.0</ele><time>2026-04-06T08:23:20.999Z</time></trkpt><trkpt lat="37.644581697604266" lon="14.771758000680151"><ele>208.5</ele><time>2026-04-06T08:23:21.999Z</time></trkpt><trkpt lat="37.64453836588849" lon="14.771895129729787"><ele>206.0</ele><time>2026-04-06T08:23:22.999Z</time></trkpt><trkpt lat="37.6444976675835" lon="14.772016892620822"><ele>205.66666666666669</ele><time>2026-04-06T08:23:23.999Z</time></trkpt><trkpt lat="37.644462495914624" lon="14.772133818080027"><ele>205.33333333333334</ele><time>2026-04-06T08:23:24.999Z</time></trkpt><trkpt lat="37.644428864700906" lon="14.77223933940585"><ele>205.0</ele><time>2026-04-06T08:23:25.999Z</time></trkpt><trkpt lat="37.64440018807077" lon="14.77232442329462"><ele>204.66666666666669</ele><time>2026-04-06T08:23:26.999Z</time></trkpt><trkpt lat="37.64437221171064" lon="14.7723999355314"><ele>204.33333333333334</ele><time>2026-04-06T08:23:27.999Z</time></trkpt><trkpt lat="37.64429153029792" lon="14.772491173636377"><ele>204.0</ele><time>2026-04-06T08:23:29.999Z</time></trkpt><trkpt lat="37.64417890995825" lon="14.772514239881565"><ele>204.0</ele><time>2026-04-06T08:23:31.999Z</time></trkpt><trkpt lat="37.64408844216745" lon="14.772525220657082"><ele>204.0</ele><time>2026-04-06T08:23:32.999Z</time></trkpt><trkpt lat="37.64398086866062" lon="14.772535945811642"><ele>204.0</ele><time>2026-04-06T08:23:33.999Z</time></trkpt><trkpt lat="37.64385807384053" lon="14.772544625501533"><ele>204.0</ele><time>2026-04-06T08:23:34.999Z</time></trkpt><trkpt lat="37.64372874230977" lon="14.772549910325015"><ele>203.75</ele><time>2026-04-06T08:23:35.999Z</time></trkpt><trkpt lat="37.64359864724296" lon="14.772547717605924"><ele>203.5</ele><time>2026-04-06T08:23:36.999Z</time></trkpt><trkpt lat="37.64346738098483" lon="14.772547322641893"><ele>203.25</ele><time>2026-04-06T08:23:37.999Z</time></trkpt><trkpt lat="37.64333870594645" lon="14.772544771322613"><ele>203.0</ele><time>2026-04-06T08:23:38.999Z</time></trkpt><trkpt lat="37.64320967263553" lon="14.772536184609125"><ele>203.0</ele><time>2026-04-06T08:23:39.999Z</time></trkpt><trkpt lat="37.643082112943915" lon="14.772529945705363"><ele>203.0</ele><time>2026-04-06T08:23:40.999Z</time></trkpt><trkpt lat="37.64294559306092" lon="14.772543586843007"><ele>203.0</ele><time>2026-04-06T08:23:41.999Z</time></trkpt><trkpt lat="37.64280730404723" lon="14.772584529055246"><ele>203.0</ele><time>2026-04-06T08:23:42.999Z</time></trkpt><trkpt lat="37.64266234023386" lon="14.772635515701625"><ele>203.25</ele><time>2026-04-06T08:23:43.999Z</time></trkpt><trkpt lat="37.642525950486814" lon="14.772689986457017"><ele>203.5</ele><time>2026-04-06T08:23:44.999Z</time></trkpt><trkpt lat="37.64239947227009" lon="14.772720808847836"><ele>203.75</ele><time>2026-04-06T08:23:45.999Z</time></trkpt><trkpt lat="37.642284538649854" lon="14.772694811389412"><ele>204.0</ele><time>2026-04-06T08:23:46.999Z</time></trkpt><trkpt lat="37.64214871012638" lon="14.77268125750145"><ele>204.0</ele><time>2026-04-06T08:23:47.999Z</time></trkpt><trkpt lat="37.642001724145594" lon="14.772658934684715"><ele>204.0</ele><time>2026-04-06T08:23:48.999Z</time></trkpt><trkpt lat="37.64184712060732" lon="14.77265334256751"><ele>204.0</ele><time>2026-04-06T08:23:49.999Z</time></trkpt><trkpt lat="37.641682577140244" lon="14.772621861936194"><ele>203.33333333333331</ele><time>2026-04-06T08:23:50.999Z</time></trkpt><trkpt lat="37.64152131369516" lon="14.772590332806868"><ele>202.66666666666666</ele><time>2026-04-06T08:23:51.999Z</time></trkpt><trkpt lat="37.64136003352367" lon="14.77255695625447"><ele>202.0</ele><time>2026-04-06T08:23:52.999Z</time></trkpt><trkpt lat="37.64120570831561" lon="14.772487281709724"><ele>202.33333333333331</ele><time>2026-04-06T08:23:53.999Z</time></trkpt><trkpt lat="37.64104420736877" lon="14.772429214990412"><ele>202.66666666666669</ele><time>2026-04-06T08:23:54.999Z</time></trkpt><trkpt lat="37.640879293666885" lon="14.772390669512461"><ele>203.0</ele><time>2026-04-06T08:23:55.999Z</time></trkpt><trkpt lat="37.64071683217961" lon="14.772331938067584"><ele>203.0</ele><time>2026-04-06T08:23:56.999Z</time></trkpt><trkpt lat="37.640556868811366" lon="14.772273249399763"><ele>203.0</ele><time>2026-04-06T08:23:57.999Z</time></trkpt><trkpt lat="37.64039944396201" lon="14.772213823499316"><ele>203.0</ele><time>2026-04-06T08:23:58.999Z</time></trkpt><trkpt lat="37.64024478007488" lon="14.77215678593614"><ele>202.66666666666669</ele><time>2026-04-06T08:24:00Z</time></trkpt><trkpt lat="37.640095471253325" lon="14.772103468927387"><ele>202.33333333333331</ele><time>2026-04-06T08:24:01Z</time></trkpt><trkpt lat="37.63993394170359" lon="14.772042949203762"><ele>202.0</ele><time>2026-04-06T08:24:02Z</time></trkpt><trkpt lat="37.63977531031765" lon="14.771983657014513"><ele>202.0</ele><time>2026-04-06T08:24:03Z</time></trkpt><trkpt lat="37.63961615767471" lon="14.771926582633263"><ele>202.0</ele><time>2026-04-06T08:24:04Z</time></trkpt><trkpt lat="37.63946178204731" lon="14.771849407008553"><ele>202.0</ele><time>2026-04-06T08:24:05Z</time></trkpt><trkpt lat="37.639313055127474" lon="14.771815234910433"><ele>204.25</ele><time>2026-04-06T08:24:06Z</time></trkpt><trkpt lat="37.63917453757227" lon="14.771762696666778"><ele>206.5</ele><time>2026-04-06T08:24:07Z</time></trkpt><trkpt lat="37.639046379130924" lon="14.771722103327113"><ele>208.75</ele><time>2026-04-06T08:24:08Z</time></trkpt><trkpt lat="37.638927992522696" lon="14.77169951904878"><ele>211.0</ele><time>2026-04-06T08:24:09Z</time></trkpt><trkpt lat="37.63882502703511" lon="14.771706073651927"><ele>211.0</ele><time>2026-04-06T08:24:10Z</time></trkpt><trkpt lat="37.638718328603765" lon="14.771745303778319"><ele>211.0</ele><time>2026-04-06T08:24:11Z</time></trkpt><trkpt lat="37.63860370257732" lon="14.77180820250778"><ele>211.0</ele><time>2026-04-06T08:24:12Z</time></trkpt><trkpt lat="37.63847574956887" lon="14.771887518487075"><ele>211.0</ele><time>2026-04-06T08:24:13Z</time></trkpt><trkpt lat="37.63836997623734" lon="14.771953574691427"><ele>209.60000000000002</ele><time>2026-04-06T08:24:14Z</time></trkpt><trkpt lat="37.63826127085865" lon="14.771987668003602"><ele>208.2</ele><time>2026-04-06T08:24:15Z</time></trkpt><trkpt lat="37.63816602729545" lon="14.772032491027606"><ele>206.8</ele><time>2026-04-06T08:24:16Z</time></trkpt><trkpt lat="37.63807737063826" lon="14.772078564329089"><ele>205.39999999999998</ele><time>2026-04-06T08:24:17Z</time></trkpt><trkpt lat="37.637986520754005" lon="14.772058636316887"><ele>204.0</ele><time>2026-04-06T08:24:18Z</time></trkpt><trkpt lat="37.63789856622775" lon="14.772064727302626"><ele>204.0</ele><time>2026-04-06T08:24:19Z</time></trkpt><trkpt lat="37.63782493630209" lon="14.772076199883664"><ele>204.0</ele><time>2026-04-06T08:24:20Z</time></trkpt><trkpt lat="37.6377077674203" lon="14.772137805615497"><ele>204.0</ele><time>2026-04-06T08:24:22Z</time></trkpt><trkpt lat="37.63762270204399" lon="14.772170432166496"><ele>204.0</ele><time>2026-04-06T08:24:23Z</time></trkpt><trkpt lat="37.637528919470846" lon="14.772247215696257"><ele>204.0</ele><time>2026-04-06T08:24:24Z</time></trkpt><trkpt lat="37.6374180680815" lon="14.772304766261815"><ele>204.0</ele><time>2026-04-06T08:24:25Z</time></trkpt><trkpt lat="37.63730423275624" lon="14.772365841304401"><ele>204.0</ele><time>2026-04-06T08:24:26Z</time></trkpt><trkpt lat="37.63719180533813" lon="14.772425345632811"><ele>204.0</ele><time>2026-04-06T08:24:27Z</time></trkpt><trkpt lat="37.637086299847795" lon="14.772475536048361"><ele>204.0</ele><time>2026-04-06T08:24:28Z</time></trkpt><trkpt lat="37.6369663093449" lon="14.772516815509524"><ele>206.0</ele><time>2026-04-06T08:24:29Z</time></trkpt><trkpt lat="37.63682287108136" lon="14.772523502517013"><ele>208.0</ele><time>2026-04-06T08:24:30Z</time></trkpt><trkpt lat="37.636670515767776" lon="14.772589943707874"><ele>210.0</ele><time>2026-04-06T08:24:31Z</time></trkpt><trkpt lat="37.63651668767789" lon="14.772649177040094"><ele>209.5</ele><time>2026-04-06T08:24:32Z</time></trkpt><trkpt lat="37.63635771169287" lon="14.772719487528278"><ele>209.0</ele><time>2026-04-06T08:24:33Z</time></trkpt><trkpt lat="37.63623252161656" lon="14.772763575510448"><ele>208.5</ele><time>2026-04-06T08:24:34Z</time></trkpt><trkpt lat="37.636112035724615" lon="14.772820368044373"><ele>208.0</ele><time>2026-04-06T08:24:35Z</time></trkpt><trkpt lat="37.63601877086491" lon="14.772867094944651"><ele>207.99999999999997</ele><time>2026-04-06T08:24:36Z</time></trkpt><trkpt lat="37.63594367382617" lon="14.772924013219454"><ele>208.0</ele><time>2026-04-06T08:24:37Z</time></trkpt><trkpt lat="37.63589958973433" lon="14.772994334716502"><ele>208.0</ele><time>2026-04-06T08:24:38Z</time></trkpt><trkpt lat="37.63586132365252" lon="14.773082243567941"><ele>208.0</ele><time>2026-04-06T08:24:39Z</time></trkpt><trkpt lat="37.635847731259716" lon="14.773170339655188"><ele>207.99999999999997</ele><time>2026-04-06T08:24:40Z</time></trkpt><trkpt lat="37.6358590446978" lon="14.773263308344132"><ele>208.0</ele><time>2026-04-06T08:24:41Z</time></trkpt><trkpt lat="37.63590779694889" lon="14.773368024396945"><ele>208.0</ele><time>2026-04-06T08:24:42Z</time></trkpt><trkpt lat="37.635965778330075" lon="14.773490008484243"><ele>208.0</ele><time>2026-04-06T08:24:43Z</time></trkpt><trkpt lat="37.636013587411334" lon="14.773607348047731"><ele>208.0</ele><time>2026-04-06T08:24:44Z</time></trkpt><trkpt lat="37.63604735425975" lon="14.7737145132831"><ele>208.0</ele><time>2026-04-06T08:24:45Z</time></trkpt><trkpt lat="37.63605694572967" lon="14.773833847803974"><ele>208.0</ele><time>2026-04-06T08:24:46Z</time></trkpt><trkpt lat="37.6360313913938" lon="14.773953138076163"><ele>206.4</ele><time>2026-04-06T08:24:47Z</time></trkpt><trkpt lat="37.63596208231715" lon="14.774055471426493"><ele>204.8</ele><time>2026-04-06T08:24:48Z</time></trkpt><trkpt lat="37.63589842484359" lon="14.774174519340816"><ele>203.2</ele><time>2026-04-06T08:24:49Z</time></trkpt><trkpt lat="37.63581381257715" lon="14.774260239169825"><ele>201.6</ele><time>2026-04-06T08:24:50Z</time></trkpt><trkpt lat="37.635746310598336" lon="14.774345619743276"><ele>200.0</ele><time>2026-04-06T08:24:51Z</time></trkpt><trkpt lat="37.63567318472159" lon="14.774435063880015"><ele>199.75</ele><time>2026-04-06T08:24:51.999Z</time></trkpt><trkpt lat="37.63556768630149" lon="14.774471785800703"><ele>199.5</ele><time>2026-04-06T08:24:52.999Z</time></trkpt><trkpt lat="37.635453327580684" lon="14.774515965161768"><ele>199.25</ele><time>2026-04-06T08:24:53.999Z</time></trkpt><trkpt lat="37.63533319329827" lon="14.774571081692603"><ele>199.0</ele><time>2026-04-06T08:24:54.999Z</time></trkpt><trkpt lat="37.635226101266475" lon="14.774604409006848"><ele>201.0</ele><time>2026-04-06T08:24:55.999Z</time></trkpt><trkpt lat="37.63514564087602" lon="14.774636772978226"><ele>203.0</ele><time>2026-04-06T08:24:56.999Z</time></trkpt><trkpt lat="37.6350972471285" lon="14.774695738799023"><ele>205.0</ele><time>2026-04-06T08:24:57.999Z</time></trkpt><trkpt lat="37.63505721220658" lon="14.774852175164321"><ele>207.0</ele><time>2026-04-06T08:24:59.999Z</time></trkpt><trkpt lat="37.63507217622446" lon="14.774961878587531"><ele>209.0</ele><time>2026-04-06T08:25:00.999Z</time></trkpt><trkpt lat="37.635074989556394" lon="14.775093390946163"><ele>209.39999999999998</ele><time>2026-04-06T08:25:01.999Z</time></trkpt><trkpt lat="37.6350552024474" lon="14.775231281834962"><ele>209.8</ele><time>2026-04-06T08:25:02.999Z</time></trkpt><trkpt lat="37.63505343420364" lon="14.775376589240555"><ele>210.2</ele><time>2026-04-06T08:25:03.999Z</time></trkpt><trkpt lat="37.63504766361724" lon="14.77551833867793"><ele>210.60000000000002</ele><time>2026-04-06T08:25:04.999Z</time></trkpt><trkpt lat="37.63504171888044" lon="14.77564912296414"><ele>211.0</ele><time>2026-04-06T08:25:05.999Z</time></trkpt><trkpt lat="37.63503343499223" lon="14.775759347554196"><ele>211.0</ele><time>2026-04-06T08:25:06.999Z</time></trkpt><trkpt lat="37.63504515786317" lon="14.775855543191797"><ele>211.0</ele><time>2026-04-06T08:25:07.999Z</time></trkpt><trkpt lat="37.63507116766435" lon="14.775953162925397"><ele>211.0</ele><time>2026-04-06T08:25:08.999Z</time></trkpt><trkpt lat="37.63515695865718" lon="14.776055264530303"><ele>211.0</ele><time>2026-04-06T08:25:09.999Z</time></trkpt><trkpt lat="37.63523522599947" lon="14.776166651100263"><ele>211.0</ele><time>2026-04-06T08:25:10.999Z</time></trkpt><trkpt lat="37.63530073883833" lon="14.77628134993452"><ele>209.25</ele><time>2026-04-06T08:25:11.999Z</time></trkpt><trkpt lat="37.63534520601471" lon="14.776432035304115"><ele>207.5</ele><time>2026-04-06T08:25:12.999Z</time></trkpt><trkpt lat="37.63538631142185" lon="14.776599861832537"><ele>205.75</ele><time>2026-04-06T08:25:13.999Z</time></trkpt><trkpt lat="37.63544389259316" lon="14.776715357567674"><ele>204.0</ele><time>2026-04-06T08:25:14.999Z</time></trkpt><trkpt lat="37.63549292912158" lon="14.776861335292027"><ele>204.0</ele><time>2026-04-06T08:25:15.999Z</time></trkpt><trkpt lat="37.63556869700616" lon="14.776975149414698"><ele>204.0</ele><time>2026-04-06T08:25:16.999Z</time></trkpt><trkpt lat="37.63566790744399" lon="14.777080947342817"><ele>204.0</ele><time>2026-04-06T08:25:17.999Z</time></trkpt><trkpt lat="37.63574974333835" lon="14.777213161156961"><ele>204.0</ele><time>2026-04-06T08:25:18.999Z</time></trkpt><trkpt lat="37.635829058417" lon="14.777314759626737"><ele>204.0</ele><time>2026-04-06T08:25:19.999Z</time></trkpt><trkpt lat="37.63588509866969" lon="14.777394936574055"><ele>204.0</ele><time>2026-04-06T08:25:20.999Z</time></trkpt><trkpt lat="37.635943852515794" lon="14.777471891315676"><ele>204.0</ele><time>2026-04-06T08:25:21.999Z</time></trkpt><trkpt lat="37.635979781449436" lon="14.777581964149375"><ele>204.0</ele><time>2026-04-06T08:25:22.999Z</time></trkpt><trkpt lat="37.63600214507059" lon="14.777730162992608"><ele>204.0</ele><time>2026-04-06T08:25:23.999Z</time></trkpt><trkpt lat="37.63604878172449" lon="14.777868349241674"><ele>205.25</ele><time>2026-04-06T08:25:24.999Z</time></trkpt><trkpt lat="37.63607603890806" lon="14.778022116074206"><ele>206.5</ele><time>2026-04-06T08:25:25.999Z</time></trkpt><trkpt lat="37.636108256641315" lon="14.778171380058435"><ele>207.75</ele><time>2026-04-06T08:25:26.999Z</time></trkpt><trkpt lat="37.63614808715995" lon="14.77829248214549"><ele>209.0</ele><time>2026-04-06T08:25:27.999Z</time></trkpt><trkpt lat="37.63618035871311" lon="14.77841799327998"><ele>206.39999999999998</ele><time>2026-04-06T08:25:28.999Z</time></trkpt><trkpt lat="37.636216147323964" lon="14.77852152239512"><ele>203.8</ele><time>2026-04-06T08:25:29.999Z</time></trkpt><trkpt lat="37.636263880308725" lon="14.778619057115629"><ele>201.2</ele><time>2026-04-06T08:25:30.999Z</time></trkpt><trkpt lat="37.63628358150385" lon="14.778738849140087"><ele>198.60000000000002</ele><time>2026-04-06T08:25:31.999Z</time></trkpt><trkpt lat="37.63629255234916" lon="14.778866916716149"><ele>196.0</ele><time>2026-04-06T08:25:32.999Z</time></trkpt><trkpt lat="37.63626188608022" lon="14.77899821049657"><ele>196.0</ele><time>2026-04-06T08:25:33.999Z</time></trkpt><trkpt lat="37.636253998189" lon="14.779135852298447"><ele>196.0</ele><time>2026-04-06T08:25:34.999Z</time></trkpt><trkpt lat="37.63621023673816" lon="14.779295259596429"><ele>196.0</ele><time>2026-04-06T08:25:35.999Z</time></trkpt><trkpt lat="37.63616217483688" lon="14.779441681251678"><ele>196.0</ele><time>2026-04-06T08:25:36.999Z</time></trkpt><trkpt lat="37.636132951518995" lon="14.77956683473771"><ele>200.0</ele><time>2026-04-06T08:25:37.999Z</time></trkpt><trkpt lat="37.63612131958549" lon="14.77971638186147"><ele>204.0</ele><time>2026-04-06T08:25:38.999Z</time></trkpt><trkpt lat="37.63611622781472" lon="14.779863263019305"><ele>208.00000000000003</ele><time>2026-04-06T08:25:39.999Z</time></trkpt><trkpt lat="37.63611379178176" lon="14.780000484390841"><ele>212.0</ele><time>2026-04-06T08:25:40.999Z</time></trkpt><trkpt lat="37.63611780262728" lon="14.780127635437987"><ele>216.0</ele><time>2026-04-06T08:25:41.999Z</time></trkpt><trkpt lat="37.636127805536745" lon="14.780223277305222"><ele>216.0</ele><time>2026-04-06T08:25:42.999Z</time></trkpt><trkpt lat="37.63614688736598" lon="14.780337592879762"><ele>216.00000000000003</ele><time>2026-04-06T08:25:43.999Z</time></trkpt><trkpt lat="37.636157719631235" lon="14.780448929006486"><ele>216.00000000000003</ele><time>2026-04-06T08:25:44.999Z</time></trkpt><trkpt lat="37.636149368395245" lon="14.780528386196169"><ele>216.0</ele><time>2026-04-06T08:25:45.999Z</time></trkpt><trkpt lat="37.636089623388116" lon="14.780633278478144"><ele>216.0</ele><time>2026-04-06T08:25:47.999Z</time></trkpt><trkpt lat="37.63598380101036" lon="14.780713560141923"><ele>216.0</ele><time>2026-04-06T08:25:49.999Z</time></trkpt><trkpt lat="37.6359093139062" lon="14.780734243789547"><ele>216.0</ele><time>2026-04-06T08:25:50.999Z</time></trkpt><trkpt lat="37.63585506426721" lon="14.780796580861816"><ele>216.0</ele><time>2026-04-06T08:25:51.999Z</time></trkpt><trkpt lat="37.635804275370894" lon="14.780859593722802"><ele>216.0</ele><time>2026-04-06T08:25:52.999Z</time></trkpt><trkpt lat="37.635762581744196" lon="14.780954907057131"><ele>216.0</ele><time>2026-04-06T08:25:53.999Z</time></trkpt><trkpt lat="37.635745220388806" lon="14.781065422394516"><ele>216.0</ele><time>2026-04-06T08:25:54.999Z</time></trkpt><trkpt lat="37.63573155373982" lon="14.781154826497698"><ele>216.0</ele><time>2026-04-06T08:25:55.999Z</time></trkpt><trkpt lat="37.635686190758996" lon="14.7812436293747"><ele>216.00000000000003</ele><time>2026-04-06T08:25:57.999Z</time></trkpt><trkpt lat="37.63561341693364" lon="14.781271853194644"><ele>216.00000000000003</ele><time>2026-04-06T08:25:59.999Z</time></trkpt><trkpt lat="37.635576907836054" lon="14.781191608385596"><ele>216.0</ele><time>2026-04-06T08:26:00.999Z</time></trkpt><trkpt lat="37.635653385088084" lon="14.781102449835634"><ele>216.0</ele><time>2026-04-06T08:26:01.999Z</time></trkpt><trkpt lat="37.63568104054912" lon="14.78093697768636"><ele>216.0</ele><time>2026-04-06T08:26:03.999Z</time></trkpt><trkpt lat="37.63568007895817" lon="14.780855414318824"><ele>216.0</ele><time>2026-04-06T08:26:04.999Z</time></trkpt><trkpt lat="37.635656694592605" lon="14.78075805645138"><ele>216.0</ele><time>2026-04-06T08:26:07Z</time></trkpt><trkpt lat="37.635616893093186" lon="14.780657963902712"><ele>216.0</ele><time>2026-04-06T08:26:09Z</time></trkpt><trkpt lat="37.63554577899146" lon="14.780553614930026"><ele>216.0</ele><time>2026-04-06T08:26:11Z</time></trkpt><trkpt lat="37.63548159818292" lon="14.78053433994043"><ele>216.0</ele><time>2026-04-06T08:26:12Z</time></trkpt><trkpt lat="37.635416887889576" lon="14.780540441460195"><ele>216.0</ele><time>2026-04-06T08:26:13Z</time></trkpt><trkpt lat="37.63536820890473" lon="14.78063638972693"><ele>216.00000000000003</ele><time>2026-04-06T08:26:14Z</time></trkpt><trkpt lat="37.63531522687485" lon="14.780696707126435"><ele>216.00000000000003</ele><time>2026-04-06T08:26:15Z</time></trkpt><trkpt lat="37.635252168648975" lon="14.78076655967994"><ele>216.0</ele><time>2026-04-06T08:26:16Z</time></trkpt><trkpt lat="37.63515091625763" lon="14.780829827381455"><ele>216.0</ele><time>2026-04-06T08:26:17Z</time></trkpt><trkpt lat="37.63505617166148" lon="14.780934599246855"><ele>218.83333333333334</ele><time>2026-04-06T08:26:18Z</time></trkpt><trkpt lat="37.63497235739889" lon="14.780994393019283"><ele>221.66666666666669</ele><time>2026-04-06T08:26:19Z</time></trkpt><trkpt lat="37.634920008634026" lon="14.781050769886578"><ele>224.5</ele><time>2026-04-06T08:26:20Z</time></trkpt><trkpt lat="37.63493307239787" lon="14.78115601967605"><ele>227.33333333333334</ele><time>2026-04-06T08:26:22Z</time></trkpt><trkpt lat="37.63498204524444" lon="14.781211921067372"><ele>230.16666666666669</ele><time>2026-04-06T08:26:23Z</time></trkpt><trkpt lat="37.63501505288927" lon="14.781315966305987"><ele>233.0</ele><time>2026-04-06T08:26:24Z</time></trkpt><trkpt lat="37.63507432707465" lon="14.781427794210284"><ele>233.83333333333334</ele><time>2026-04-06T08:26:25Z</time></trkpt><trkpt lat="37.635127482024096" lon="14.781540574904179"><ele>234.66666666666669</ele><time>2026-04-06T08:26:26Z</time></trkpt><trkpt lat="37.63518447960225" lon="14.781638129353542"><ele>235.5</ele><time>2026-04-06T08:26:27Z</time></trkpt><trkpt lat="37.63520205790232" lon="14.781732471727006"><ele>236.33333333333331</ele><time>2026-04-06T08:26:28Z</time></trkpt><trkpt lat="37.63518646751943" lon="14.781813595041385"><ele>237.16666666666666</ele><time>2026-04-06T08:26:29Z</time></trkpt><trkpt lat="37.63511996124597" lon="14.781878399167415"><ele>238.0</ele><time>2026-04-06T08:26:30Z</time></trkpt><trkpt lat="37.63506111464063" lon="14.781952356698044"><ele>238.66666666666666</ele><time>2026-04-06T08:26:31Z</time></trkpt><trkpt lat="37.634993079925444" lon="14.782041487548817"><ele>239.33333333333331</ele><time>2026-04-06T08:26:32Z</time></trkpt><trkpt lat="37.63493349632941" lon="14.78212577599542"><ele>240.0</ele><time>2026-04-06T08:26:33Z</time></trkpt><trkpt lat="37.63488206496575" lon="14.782179764699537"><ele>240.66666666666669</ele><time>2026-04-06T08:26:34Z</time></trkpt><trkpt lat="37.63482911313839" lon="14.782260039422239"><ele>241.33333333333334</ele><time>2026-04-06T08:26:35Z</time></trkpt><trkpt lat="37.634767914480285" lon="14.78233405943601"><ele>242.0</ele><time>2026-04-06T08:26:36Z</time></trkpt><trkpt lat="37.63469469773222" lon="14.782436549225814"><ele>242.0</ele><time>2026-04-06T08:26:37Z</time></trkpt><trkpt lat="37.634637009510634" lon="14.782545054895607"><ele>242.0</ele><time>2026-04-06T08:26:38Z</time></trkpt><trkpt lat="37.63456219152577" lon="14.782615929706004"><ele>242.0</ele><time>2026-04-06T08:26:39Z</time></trkpt><trkpt lat="37.634493767953714" lon="14.782695024850032"><ele>242.0</ele><time>2026-04-06T08:26:40Z</time></trkpt><trkpt lat="37.63441016236528" lon="14.782760416300363"><ele>242.0</ele><time>2026-04-06T08:26:41Z</time></trkpt><trkpt lat="37.63430680111231" lon="14.782833330183259"><ele>244.0</ele><time>2026-04-06T08:26:42Z</time></trkpt><trkpt lat="37.63419911524646" lon="14.78290689821481"><ele>246.0</ele><time>2026-04-06T08:26:43Z</time></trkpt><trkpt lat="37.63409045061869" lon="14.782960087026996"><ele>248.0</ele><time>2026-04-06T08:26:44Z</time></trkpt><trkpt lat="37.63396966497606" lon="14.783027547807214"><ele>250.0</ele><time>2026-04-06T08:26:45Z</time></trkpt><trkpt lat="37.63384085222985" lon="14.78310528934899"><ele>250.0</ele><time>2026-04-06T08:26:46Z</time></trkpt><trkpt lat="37.63371683385046" lon="14.783199251200227"><ele>250.0</ele><time>2026-04-06T08:26:47Z</time></trkpt><trkpt lat="37.633573757247156" lon="14.78327160647664"><ele>250.0</ele><time>2026-04-06T08:26:48Z</time></trkpt><trkpt lat="37.63342919688692" lon="14.783358022487857"><ele>250.33333333333331</ele><time>2026-04-06T08:26:49Z</time></trkpt><trkpt lat="37.63327771462917" lon="14.783446993918417"><ele>250.66666666666669</ele><time>2026-04-06T08:26:50Z</time></trkpt><trkpt lat="37.63313103118304" lon="14.783525203563563"><ele>251.0</ele><time>2026-04-06T08:26:51Z</time></trkpt><trkpt lat="37.63300249965224" lon="14.783603966631755"><ele>250.66666666666669</ele><time>2026-04-06T08:26:52Z</time></trkpt><trkpt lat="37.632855681167214" lon="14.783684725098658"><ele>250.33333333333331</ele><time>2026-04-06T08:26:53Z</time></trkpt><trkpt lat="37.63270822925285" lon="14.78376921748133"><ele>250.0</ele><time>2026-04-06T08:26:54Z</time></trkpt><trkpt lat="37.63257010772442" lon="14.78385816263934"><ele>250.0</ele><time>2026-04-06T08:26:55Z</time></trkpt><trkpt lat="37.632433537157" lon="14.783943494998235"><ele>250.0</ele><time>2026-04-06T08:26:56Z</time></trkpt><trkpt lat="37.63230219410533" lon="14.784045520443659"><ele>250.0</ele><time>2026-04-06T08:26:57Z</time></trkpt><trkpt lat="37.63217138467477" lon="14.784154661415283"><ele>250.0</ele><time>2026-04-06T08:26:58Z</time></trkpt><trkpt lat="37.632041780673646" lon="14.784273020116812"><ele>250.0</ele><time>2026-04-06T08:26:58.999Z</time></trkpt><trkpt lat="37.631924467630625" lon="14.784387609891562"><ele>250.0</ele><time>2026-04-06T08:26:59.999Z</time></trkpt><trkpt lat="37.631810871703145" lon="14.784493992750514"><ele>249.75</ele><time>2026-04-06T08:27:00.999Z</time></trkpt><trkpt lat="37.63171028051037" lon="14.78459309383087"><ele>249.5</ele><time>2026-04-06T08:27:01.999Z</time></trkpt><trkpt lat="37.63161926340606" lon="14.78468376323898"><ele>249.25</ele><time>2026-04-06T08:27:02.999Z</time></trkpt><trkpt lat="37.63153437202004" lon="14.784777981232768"><ele>249.0</ele><time>2026-04-06T08:27:03.999Z</time></trkpt><trkpt lat="37.631469396048594" lon="14.784900918271045"><ele>249.0</ele><time>2026-04-06T08:27:04.999Z</time></trkpt><trkpt lat="37.63141079314807" lon="14.785060634179024"><ele>249.0</ele><time>2026-04-06T08:27:05.999Z</time></trkpt><trkpt lat="37.63135746613651" lon="14.78521760491854"><ele>249.0</ele><time>2026-04-06T08:27:06.999Z</time></trkpt><trkpt lat="37.63129766990284" lon="14.785365589533907"><ele>249.0</ele><time>2026-04-06T08:27:07.999Z</time></trkpt><trkpt lat="37.6312382031638" lon="14.785505689208728"><ele>248.75</ele><time>2026-04-06T08:27:08.999Z</time></trkpt><trkpt lat="37.6311668718876" lon="14.785672472770747"><ele>248.5</ele><time>2026-04-06T08:27:09.999Z</time></trkpt><trkpt lat="37.63108777553516" lon="14.785842578308701"><ele>248.25</ele><time>2026-04-06T08:27:10.999Z</time></trkpt><trkpt lat="37.63102089537312" lon="14.785996383632746"><ele>248.0</ele><time>2026-04-06T08:27:11.999Z</time></trkpt><trkpt lat="37.63093017311296" lon="14.786219654551816"><ele>248.66666666666669</ele><time>2026-04-06T08:27:12.999Z</time></trkpt><trkpt lat="37.63086179446478" lon="14.786377911356604"><ele>249.33333333333331</ele><time>2026-04-06T08:27:13.999Z</time></trkpt><trkpt lat="37.63077610566965" lon="14.786535965124603"><ele>250.0</ele><time>2026-04-06T08:27:14.999Z</time></trkpt><trkpt lat="37.6307012786023" lon="14.786707733854364"><ele>250.0</ele><time>2026-04-06T08:27:15.999Z</time></trkpt><trkpt lat="37.63062411647002" lon="14.786885764814354"><ele>250.0</ele><time>2026-04-06T08:27:16.999Z</time></trkpt><trkpt lat="37.63054736311739" lon="14.787062852627026"><ele>250.0</ele><time>2026-04-06T08:27:17.999Z</time></trkpt><trkpt lat="37.630475478486076" lon="14.78723138387053"><ele>250.0</ele><time>2026-04-06T08:27:18.999Z</time></trkpt><trkpt lat="37.63041272078605" lon="14.787380894854916"><ele>250.0</ele><time>2026-04-06T08:27:19.999Z</time></trkpt><trkpt lat="37.63036921310537" lon="14.787484545581357"><ele>250.0</ele><time>2026-04-06T08:27:20.999Z</time></trkpt><trkpt lat="37.63034610343498" lon="14.787559916122222"><ele>250.0</ele><time>2026-04-06T08:27:22.999Z</time></trkpt><trkpt lat="37.63021822143167" lon="14.787455993738309"><ele>250.0</ele><time>2026-04-06T08:27:52.999Z</time></trkpt><trkpt lat="37.63015686226752" lon="14.787405580320499"><ele>250.4</ele><time>2026-04-06T08:27:53.999Z</time></trkpt><trkpt lat="37.63007714451198" lon="14.787343156709287"><ele>250.8</ele><time>2026-04-06T08:27:54.999Z</time></trkpt><trkpt lat="37.630001290926934" lon="14.787265577770764"><ele>251.2</ele><time>2026-04-06T08:27:55.999Z</time></trkpt><trkpt lat="37.62990873866462" lon="14.78719475341014"><ele>251.6</ele><time>2026-04-06T08:27:56.999Z</time></trkpt><trkpt lat="37.62981309541468" lon="14.787121562474967"><ele>252.0</ele><time>2026-04-06T08:27:57.999Z</time></trkpt><trkpt lat="37.62972738533652" lon="14.787055972958356"><ele>252.0</ele><time>2026-04-06T08:27:58.999Z</time></trkpt><trkpt lat="37.62965274017679" lon="14.786999802910117"><ele>252.0</ele><time>2026-04-06T08:27:59.999Z</time></trkpt><trkpt lat="37.62958144559628" lon="14.786946577018263"><ele>252.0</ele><time>2026-04-06T08:28:00.999Z</time></trkpt><trkpt lat="37.629515301437095" lon="14.7868971963773"><ele>252.0</ele><time>2026-04-06T08:28:01.999Z</time></trkpt><trkpt lat="37.629447373444975" lon="14.786869726469353"><ele>252.0</ele><time>2026-04-06T08:28:02.999Z</time></trkpt><trkpt lat="37.62937419164437" lon="14.786812991540103"><ele>252.0</ele><time>2026-04-06T08:28:03.999Z</time></trkpt><trkpt lat="37.629292011969085" lon="14.786754732065203"><ele>252.6</ele><time>2026-04-06T08:28:04.999Z</time></trkpt><trkpt lat="37.6292113453881" lon="14.786693875363499"><ele>253.2</ele><time>2026-04-06T08:28:05.999Z</time></trkpt><trkpt lat="37.62912963662158" lon="14.78662771406784"><ele>253.8</ele><time>2026-04-06T08:28:06.999Z</time></trkpt><trkpt lat="37.629043712590075" lon="14.786563010132319"><ele>254.4</ele><time>2026-04-06T08:28:07.999Z</time></trkpt><trkpt lat="37.62896583283781" lon="14.786484919264764"><ele>255.0</ele><time>2026-04-06T08:28:08.999Z</time></trkpt><trkpt lat="37.62888549747742" lon="14.786423638281319"><ele>255.0</ele><time>2026-04-06T08:28:09.999Z</time></trkpt><trkpt lat="37.62881018693106" lon="14.786364705155174"><ele>255.0</ele><time>2026-04-06T08:28:10.999Z</time></trkpt><trkpt lat="37.62873986501992" lon="14.786333915879895"><ele>255.0</ele><time>2026-04-06T08:28:12Z</time></trkpt><trkpt lat="37.628692740857005" lon="14.786272560002248"><ele>255.0</ele><time>2026-04-06T08:28:13Z</time></trkpt><trkpt lat="37.628627816302185" lon="14.786220054907167"><ele>255.0</ele><time>2026-04-06T08:28:14Z</time></trkpt><trkpt lat="37.628555900053605" lon="14.786161836980368"><ele>255.0</ele><time>2026-04-06T08:28:15Z</time></trkpt><trkpt lat="37.628483640895695" lon="14.786102499329292"><ele>255.0</ele><time>2026-04-06T08:28:16Z</time></trkpt><trkpt lat="37.62842270686641" lon="14.786049822183227"><ele>255.0</ele><time>2026-04-06T08:28:17Z</time></trkpt><trkpt lat="37.62835847104301" lon="14.786017456883346"><ele>255.0</ele><time>2026-04-06T08:28:18Z</time></trkpt><trkpt lat="37.62826803993913" lon="14.785943156912513"><ele>255.0</ele><time>2026-04-06T08:28:20Z</time></trkpt><trkpt lat="37.62814793351945" lon="14.785855681265632"><ele>255.0</ele><time>2026-04-06T08:28:22Z</time></trkpt><trkpt lat="37.62807015587649" lon="14.785796811545683"><ele>255.0</ele><time>2026-04-06T08:28:23Z</time></trkpt><trkpt lat="37.627987864907986" lon="14.78574513396173"><ele>255.0</ele><time>2026-04-06T08:28:24Z</time></trkpt><trkpt lat="37.62791890353543" lon="14.785688606076421"><ele>255.0</ele><time>2026-04-06T08:28:25Z</time></trkpt><trkpt lat="37.6277983883899" lon="14.785595477149226"><ele>255.0</ele><time>2026-04-06T08:28:27Z</time></trkpt><trkpt lat="37.627723639031835" lon="14.785541262759065"><ele>255.0</ele><time>2026-04-06T08:28:28Z</time></trkpt><trkpt lat="37.62766455583939" lon="14.78549873793692"><ele>256.0</ele><time>2026-04-06T08:28:29Z</time></trkpt><trkpt lat="37.62760561610501" lon="14.785448260130881"><ele>257.0</ele><time>2026-04-06T08:28:30Z</time></trkpt><trkpt lat="37.627535274958674" lon="14.785394694356672"><ele>258.0</ele><time>2026-04-06T08:28:31Z</time></trkpt><trkpt lat="37.62746849846277" lon="14.785343299387813"><ele>259.0</ele><time>2026-04-06T08:28:32Z</time></trkpt><trkpt lat="37.62740071864199" lon="14.78529331123101"><ele>260.0</ele><time>2026-04-06T08:28:33Z</time></trkpt><trkpt lat="37.62733718038347" lon="14.785225939065196"><ele>261.0</ele><time>2026-04-06T08:28:34Z</time></trkpt><trkpt lat="37.62727584896169" lon="14.785178917249494"><ele>261.3333333333333</ele><time>2026-04-06T08:28:35Z</time></trkpt><trkpt lat="37.62717398052382" lon="14.78510081641614"><ele>261.6666666666667</ele><time>2026-04-06T08:28:37Z</time></trkpt><trkpt lat="37.62709608072958" lon="14.785039885146324"><ele>262.0</ele><time>2026-04-06T08:28:39Z</time></trkpt><trkpt lat="37.62703358024269" lon="14.785005860512358"><ele>262.33333333333337</ele><time>2026-04-06T08:28:41Z</time></trkpt><trkpt lat="37.62698725003412" lon="14.784951418707967"><ele>262.6666666666667</ele><time>2026-04-06T08:29:05.999Z</time></trkpt><trkpt lat="37.62690329007613" lon="14.784983160840545"><ele>263.0</ele><time>2026-04-06T08:29:29.999Z</time></trkpt><trkpt lat="37.62684888843868" lon="14.785119418248316"><ele>262.83333333333337</ele><time>2026-04-06T08:29:31.999Z</time></trkpt><trkpt lat="37.62679593228554" lon="14.78520175194188"><ele>262.6666666666667</ele><time>2026-04-06T08:29:32.999Z</time></trkpt><trkpt lat="37.626755161670914" lon="14.785298758657937"><ele>262.5</ele><time>2026-04-06T08:29:33.999Z</time></trkpt><trkpt lat="37.626728891057304" lon="14.78540609217808"><ele>262.3333333333333</ele><time>2026-04-06T08:29:34.999Z</time></trkpt><trkpt lat="37.62670844297728" lon="14.785525327611678"><ele>262.16666666666663</ele><time>2026-04-06T08:29:35.999Z</time></trkpt><trkpt lat="37.626692858028015" lon="14.785640482610452"><ele>262.0</ele><time>2026-04-06T08:29:36.999Z</time></trkpt><trkpt lat="37.626688058610256" lon="14.785737577768769"><ele>262.0</ele><time>2026-04-06T08:29:37.999Z</time></trkpt><trkpt lat="37.62664745232513" lon="14.785872956661851"><ele>262.0</ele><time>2026-04-06T08:29:39.999Z</time></trkpt><trkpt lat="37.62657325274987" lon="14.785923374805854"><ele>262.0</ele><time>2026-04-06T08:29:40.999Z</time></trkpt><trkpt lat="37.62650736769139" lon="14.78601625610117"><ele>262.0</ele><time>2026-04-06T08:29:41.999Z</time></trkpt><trkpt lat="37.62634666961422" lon="14.786204992589864"><ele>262.75</ele><time>2026-04-06T08:29:43.999Z</time></trkpt><trkpt lat="37.62628786378608" lon="14.786240986688789"><ele>263.5</ele><time>2026-04-06T08:29:44.999Z</time></trkpt><trkpt lat="37.62613349537644" lon="14.785983249007753"><ele>264.25</ele><time>2026-04-06T08:29:49.999Z</time></trkpt><trkpt lat="37.62605406805344" lon="14.785874278971715"><ele>265.0</ele><time>2026-04-06T08:29:50.999Z</time></trkpt><trkpt lat="37.62595123787591" lon="14.785785852495835"><ele>265.0</ele><time>2026-04-06T08:29:51.999Z</time></trkpt><trkpt lat="37.62586470722814" lon="14.785662867806671"><ele>265.0</ele><time>2026-04-06T08:29:52.999Z</time></trkpt><trkpt lat="37.62574909840347" lon="14.785547227432469"><ele>265.0</ele><time>2026-04-06T08:29:53.999Z</time></trkpt><trkpt lat="37.625627020150326" lon="14.785451646639629"><ele>265.0</ele><time>2026-04-06T08:29:54.999Z</time></trkpt><trkpt lat="37.62551342596484" lon="14.785343237170503"><ele>265.0</ele><time>2026-04-06T08:29:55.999Z</time></trkpt><trkpt lat="37.62542010787969" lon="14.785228561185285"><ele>265.0</ele><time>2026-04-06T08:29:56.999Z</time></trkpt><trkpt lat="37.62531704783916" lon="14.785133163602202"><ele>265.0</ele><time>2026-04-06T08:29:57.999Z</time></trkpt><trkpt lat="37.62521213238876" lon="14.785061371676534"><ele>265.0</ele><time>2026-04-06T08:29:58.999Z</time></trkpt><trkpt lat="37.62512885434986" lon="14.784959219904687"><ele>265.6</ele><time>2026-04-06T08:29:59.999Z</time></trkpt><trkpt lat="37.62502225046459" lon="14.784879715127378"><ele>266.2</ele><time>2026-04-06T08:30:00.999Z</time></trkpt><trkpt lat="37.62493497900672" lon="14.784788199539138"><ele>266.8</ele><time>2026-04-06T08:30:01.999Z</time></trkpt><trkpt lat="37.62487206937766" lon="14.78469296725597"><ele>267.4</ele><time>2026-04-06T08:30:02.999Z</time></trkpt><trkpt lat="37.62479994595863" lon="14.784607775515934"><ele>268.0</ele><time>2026-04-06T08:30:03.999Z</time></trkpt><trkpt lat="37.62473954348412" lon="14.784515271442078"><ele>268.0</ele><time>2026-04-06T08:30:04.999Z</time></trkpt><trkpt lat="37.624694476002695" lon="14.784412502304425"><ele>268.0</ele><time>2026-04-06T08:30:05.999Z</time></trkpt><trkpt lat="37.62464732611191" lon="14.784276189014335"><ele>268.0</ele><time>2026-04-06T08:30:06.999Z</time></trkpt><trkpt lat="37.624593349553315" lon="14.784133297879665"><ele>268.0</ele><time>2026-04-06T08:30:07.999Z</time></trkpt><trkpt lat="37.624523700683575" lon="14.784001690348939"><ele>269.6</ele><time>2026-04-06T08:30:08.999Z</time></trkpt><trkpt lat="37.62446705357662" lon="14.783878983975479"><ele>271.20000000000005</ele><time>2026-04-06T08:30:09.999Z</time></trkpt><trkpt lat="37.624421561917124" lon="14.78376731074302"><ele>272.8</ele><time>2026-04-06T08:30:10.999Z</time></trkpt><trkpt lat="37.624353061714764" lon="14.78367678662168"><ele>274.40000000000003</ele><time>2026-04-06T08:30:11.999Z</time></trkpt><trkpt lat="37.62426504085044" lon="14.783565832451044"><ele>276.0</ele><time>2026-04-06T08:30:12.999Z</time></trkpt><trkpt lat="37.62417028929047" lon="14.78344767672903"><ele>276.75</ele><time>2026-04-06T08:30:13.999Z</time></trkpt><trkpt lat="37.62407335879973" lon="14.783331227165203"><ele>277.5</ele><time>2026-04-06T08:30:14.999Z</time></trkpt><trkpt lat="37.62396734739891" lon="14.783204044662934"><ele>278.25</ele><time>2026-04-06T08:30:15.999Z</time></trkpt><trkpt lat="37.62385610157757" lon="14.783078506481209"><ele>279.0</ele><time>2026-04-06T08:30:16.999Z</time></trkpt><trkpt lat="37.62374613715323" lon="14.782951965231796"><ele>279.6666666666667</ele><time>2026-04-06T08:30:18Z</time></trkpt><trkpt lat="37.62363404188293" lon="14.782820915554778"><ele>280.33333333333337</ele><time>2026-04-06T08:30:19Z</time></trkpt><trkpt lat="37.6234998186576" lon="14.782663582748174"><ele>281.0</ele><time>2026-04-06T08:30:20Z</time></trkpt><trkpt lat="37.62339233844973" lon="14.782537597196233"><ele>281.5</ele><time>2026-04-06T08:30:21Z</time></trkpt><trkpt lat="37.62328604114397" lon="14.782412998329447"><ele>282.0</ele><time>2026-04-06T08:30:22Z</time></trkpt><trkpt lat="37.623194799395705" lon="14.782303711891046"><ele>282.5</ele><time>2026-04-06T08:30:23Z</time></trkpt><trkpt lat="37.623106569010886" lon="14.78219755451686"><ele>283.0</ele><time>2026-04-06T08:30:24Z</time></trkpt><trkpt lat="37.62300567235186" lon="14.782076766643712"><ele>283.0</ele><time>2026-04-06T08:30:25Z</time></trkpt><trkpt lat="37.62289154098998" lon="14.781944887631212"><ele>283.0</ele><time>2026-04-06T08:30:26Z</time></trkpt><trkpt lat="37.622782293992195" lon="14.781820131557128"><ele>283.0</ele><time>2026-04-06T08:30:27Z</time></trkpt><trkpt lat="37.62267961329604" lon="14.781699750701799"><ele>283.0</ele><time>2026-04-06T08:30:28Z</time></trkpt><trkpt lat="37.62258658113478" lon="14.781592570342438"><ele>284.25</ele><time>2026-04-06T08:30:29Z</time></trkpt><trkpt lat="37.62249718269973" lon="14.781491273350593"><ele>285.5</ele><time>2026-04-06T08:30:30Z</time></trkpt><trkpt lat="37.62241490332101" lon="14.781397457675622"><ele>286.75</ele><time>2026-04-06T08:30:31Z</time></trkpt><trkpt lat="37.62233158337135" lon="14.781300844266537"><ele>288.0</ele><time>2026-04-06T08:30:32Z</time></trkpt><trkpt lat="37.62222774098126" lon="14.781180434161707"><ele>288.0</ele><time>2026-04-06T08:30:33Z</time></trkpt><trkpt lat="37.62214525899431" lon="14.78108479260464"><ele>288.0</ele><time>2026-04-06T08:30:34Z</time></trkpt><trkpt lat="37.622055402213206" lon="14.780985117169152"><ele>288.0</ele><time>2026-04-06T08:30:35Z</time></trkpt><trkpt lat="37.62195300407836" lon="14.780898115810396"><ele>288.0</ele><time>2026-04-06T08:30:36Z</time></trkpt><trkpt lat="37.62187379711294" lon="14.780784549083544"><ele>289.2</ele><time>2026-04-06T08:30:37Z</time></trkpt><trkpt lat="37.621784698206" lon="14.7806856282243"><ele>290.4</ele><time>2026-04-06T08:30:38Z</time></trkpt><trkpt lat="37.62170033332566" lon="14.78059253226493"><ele>291.59999999999997</ele><time>2026-04-06T08:30:39Z</time></trkpt><trkpt lat="37.62162179596063" lon="14.780544755288973"><ele>292.8</ele><time>2026-04-06T08:30:40Z</time></trkpt><trkpt lat="37.621544152221695" lon="14.780519057413878"><ele>294.0</ele><time>2026-04-06T08:30:42Z</time></trkpt><trkpt lat="37.621454607574826" lon="14.780643415641855"><ele>294.0</ele><time>2026-04-06T08:30:44Z</time></trkpt><trkpt lat="37.621397924943984" lon="14.780711176714302"><ele>294.0</ele><time>2026-04-06T08:30:45Z</time></trkpt><trkpt lat="37.62131927348547" lon="14.780756057354163"><ele>294.0</ele><time>2026-04-06T08:30:47Z</time></trkpt><trkpt lat="37.62125181080954" lon="14.78068456795304"><ele>294.0</ele><time>2026-04-06T08:30:49Z</time></trkpt><trkpt lat="37.62122842178081" lon="14.78057868716584"><ele>294.0</ele><time>2026-04-06T08:30:50Z</time></trkpt><trkpt lat="37.62116441056516" lon="14.780483585720898"><ele>294.0</ele><time>2026-04-06T08:30:51Z</time></trkpt><trkpt lat="37.62109501925098" lon="14.78038049104327"><ele>294.2</ele><time>2026-04-06T08:30:52Z</time></trkpt><trkpt lat="37.62103475183069" lon="14.78028410365372"><ele>294.4</ele><time>2026-04-06T08:30:53Z</time></trkpt><trkpt lat="37.62099802721314" lon="14.78019312704575"><ele>294.6</ele><time>2026-04-06T08:30:54Z</time></trkpt><trkpt lat="37.62096968899617" lon="14.780071350276511"><ele>294.8</ele><time>2026-04-06T08:30:55Z</time></trkpt><trkpt lat="37.620922763325765" lon="14.779960972456799"><ele>295.0</ele><time>2026-04-06T08:30:56Z</time></trkpt><trkpt lat="37.62086681787573" lon="14.779863747924264"><ele>295.2</ele><time>2026-04-06T08:30:57Z</time></trkpt><trkpt lat="37.62078329823755" lon="14.779781638190919"><ele>295.4</ele><time>2026-04-06T08:30:58Z</time></trkpt><trkpt lat="37.620686233872995" lon="14.779741194922327"><ele>295.6</ele><time>2026-04-06T08:30:59Z</time></trkpt><trkpt lat="37.620590453713106" lon="14.779693597433672"><ele>295.8</ele><time>2026-04-06T08:31:00Z</time></trkpt><trkpt lat="37.62051619113845" lon="14.779629811534885"><ele>296.0</ele><time>2026-04-06T08:31:01Z</time></trkpt><trkpt lat="37.620454874332324" lon="14.779575789852702"><ele>296.0</ele><time>2026-04-06T08:31:02Z</time></trkpt><trkpt lat="37.62040296150121" lon="14.779513379651027"><ele>296.0</ele><time>2026-04-06T08:31:03Z</time></trkpt><trkpt lat="37.620352446220075" lon="14.77943167901563"><ele>296.0</ele><time>2026-04-06T08:31:04Z</time></trkpt><trkpt lat="37.62028788161666" lon="14.779333461892604"><ele>296.0</ele><time>2026-04-06T08:31:05Z</time></trkpt><trkpt lat="37.620215255294035" lon="14.779243225859915"><ele>296.0</ele><time>2026-04-06T08:31:06Z</time></trkpt><trkpt lat="37.620130471354436" lon="14.779197991382519"><ele>296.0</ele><time>2026-04-06T08:31:07Z</time></trkpt><trkpt lat="37.62005363908225" lon="14.779159938201586"><ele>297.2</ele><time>2026-04-06T08:31:08Z</time></trkpt><trkpt lat="37.619958592437314" lon="14.779128623387582"><ele>298.40000000000003</ele><time>2026-04-06T08:31:09Z</time></trkpt><trkpt lat="37.61985597832971" lon="14.77906679068784"><ele>299.6</ele><time>2026-04-06T08:31:09.999Z</time></trkpt><trkpt lat="37.619743223376375" lon="14.77904828994741"><ele>300.8</ele><time>2026-04-06T08:31:10.999Z</time></trkpt><trkpt lat="37.61964856961403" lon="14.779016348323353"><ele>302.0</ele><time>2026-04-06T08:31:11.999Z</time></trkpt><trkpt lat="37.61957693245744" lon="14.778973140389384"><ele>302.6</ele><time>2026-04-06T08:31:12.999Z</time></trkpt><trkpt lat="37.619478539071" lon="14.778897288326533"><ele>303.2</ele><time>2026-04-06T08:31:14.999Z</time></trkpt><trkpt lat="37.61945771044976" lon="14.778816303110055"><ele>303.8</ele><time>2026-04-06T08:31:15.999Z</time></trkpt><trkpt lat="37.61939943773775" lon="14.77872924212073"><ele>304.4</ele><time>2026-04-06T08:31:16.999Z</time></trkpt><trkpt lat="37.6193241729631" lon="14.77863334600932"><ele>305.0</ele><time>2026-04-06T08:31:17.999Z</time></trkpt><trkpt lat="37.61925095081393" lon="14.778572366715629"><ele>305.8</ele><time>2026-04-06T08:31:18.999Z</time></trkpt><trkpt lat="37.61914911028728" lon="14.778501060706574"><ele>306.6</ele><time>2026-04-06T08:31:19.999Z</time></trkpt><trkpt lat="37.61905510717876" lon="14.778454834576888"><ele>307.4</ele><time>2026-04-06T08:31:20.999Z</time></trkpt><trkpt lat="37.61895853179271" lon="14.77842918897223"><ele>308.2</ele><time>2026-04-06T08:31:21.999Z</time></trkpt><trkpt lat="37.61885339961685" lon="14.778418207544966"><ele>309.0</ele><time>2026-04-06T08:31:22.999Z</time></trkpt><trkpt lat="37.6187532839823" lon="14.778409395701118"><ele>309.0</ele><time>2026-04-06T08:31:23.999Z</time></trkpt><trkpt lat="37.618675747577534" lon="14.778375916798957"><ele>309.0</ele><time>2026-04-06T08:31:24.999Z</time></trkpt><trkpt lat="37.61860425532166" lon="14.77835602471959"><ele>309.0</ele><time>2026-04-06T08:31:25.999Z</time></trkpt><trkpt lat="37.6185112065692" lon="14.778272333647202"><ele>309.0</ele><time>2026-04-06T08:31:27.999Z</time></trkpt><trkpt lat="37.61849770368474" lon="14.77819086675179"><ele>309.0</ele><time>2026-04-06T08:31:28.999Z</time></trkpt><trkpt lat="37.61847085480495" lon="14.778073411503394"><ele>309.0</ele><time>2026-04-06T08:31:29.999Z</time></trkpt><trkpt lat="37.61842934561875" lon="14.777984679227526"><ele>309.4</ele><time>2026-04-06T08:31:30.999Z</time></trkpt><trkpt lat="37.61838989611333" lon="14.777900346444222"><ele>309.79999999999995</ele><time>2026-04-06T08:31:31.999Z</time></trkpt><trkpt lat="37.618294513123786" lon="14.777839197673742"><ele>310.20000000000005</ele><time>2026-04-06T08:31:32.999Z</time></trkpt><trkpt lat="37.61823514906974" lon="14.77776051170683"><ele>310.6</ele><time>2026-04-06T08:31:33.999Z</time></trkpt><trkpt lat="37.61813518755735" lon="14.777735093116396"><ele>311.0</ele><time>2026-04-06T08:31:34.999Z</time></trkpt><trkpt lat="37.618036375162376" lon="14.777724112256871"><ele>311.0</ele><time>2026-04-06T08:31:35.999Z</time></trkpt><trkpt lat="37.617930461176634" lon="14.777732546614597"><ele>311.0</ele><time>2026-04-06T08:31:36.999Z</time></trkpt><trkpt lat="37.6178408440458" lon="14.777734353187299"><ele>311.0</ele><time>2026-04-06T08:31:37.999Z</time></trkpt><trkpt lat="37.617771646154765" lon="14.77772744015244"><ele>311.0</ele><time>2026-04-06T08:31:38.999Z</time></trkpt><trkpt lat="37.617710223527794" lon="14.777709132307601"><ele>311.0</ele><time>2026-04-06T08:31:39.999Z</time></trkpt><trkpt lat="37.61766415955009" lon="14.777649554735259"><ele>311.0</ele><time>2026-04-06T08:31:40.999Z</time></trkpt><trkpt lat="37.617641262966266" lon="14.777504603306559"><ele>312.0</ele><time>2026-04-06T08:31:42.999Z</time></trkpt><trkpt lat="37.61762381680588" lon="14.777393844912963"><ele>313.0</ele><time>2026-04-06T08:31:43.999Z</time></trkpt><trkpt lat="37.617601029618854" lon="14.777261347107196"><ele>314.0</ele><time>2026-04-06T08:31:44.999Z</time></trkpt><trkpt lat="37.61757367251345" lon="14.77712189675872"><ele>315.0</ele><time>2026-04-06T08:31:45.999Z</time></trkpt><trkpt lat="37.61754393773941" lon="14.776995895943564"><ele>316.0</ele><time>2026-04-06T08:31:46.999Z</time></trkpt><trkpt lat="37.617495791007194" lon="14.776890999661509"><ele>316.25</ele><time>2026-04-06T08:31:47.999Z</time></trkpt><trkpt lat="37.61742758237244" lon="14.776787626923438"><ele>316.5</ele><time>2026-04-06T08:31:48.999Z</time></trkpt><trkpt lat="37.61735094048768" lon="14.776678347534709"><ele>316.75</ele><time>2026-04-06T08:31:49.999Z</time></trkpt><trkpt lat="37.61725002266091" lon="14.776589480601082"><ele>317.0</ele><time>2026-04-06T08:31:50.999Z</time></trkpt><trkpt lat="37.617156101236496" lon="14.776505482693546"><ele>317.0</ele><time>2026-04-06T08:31:51.999Z</time></trkpt><trkpt lat="37.61705592019503" lon="14.776434512443801"><ele>317.0</ele><time>2026-04-06T08:31:52.999Z</time></trkpt><trkpt lat="37.616978035840894" lon="14.776361100217569"><ele>317.0</ele><time>2026-04-06T08:31:53.999Z</time></trkpt><trkpt lat="37.61692756337702" lon="14.776305348190045"><ele>317.0</ele><time>2026-04-06T08:31:54.999Z</time></trkpt><trkpt lat="37.61689054271663" lon="14.776146825958152"><ele>317.0</ele><time>2026-04-06T08:31:56.999Z</time></trkpt><trkpt lat="37.61686786302517" lon="14.776039970992409"><ele>318.33333333333337</ele><time>2026-04-06T08:31:57.999Z</time></trkpt><trkpt lat="37.61684990462438" lon="14.775914330499209"><ele>319.6666666666667</ele><time>2026-04-06T08:31:58.999Z</time></trkpt><trkpt lat="37.6168426375536" lon="14.77579529084981"><ele>321.0</ele><time>2026-04-06T08:31:59.999Z</time></trkpt><trkpt lat="37.61683282362363" lon="14.775692008979568"><ele>322.3333333333333</ele><time>2026-04-06T08:32:00.999Z</time></trkpt><trkpt lat="37.61679485304736" lon="14.77559739397645"><ele>323.66666666666663</ele><time>2026-04-06T08:32:01.999Z</time></trkpt><trkpt lat="37.616722255641236" lon="14.775549825390085"><ele>325.0</ele><time>2026-04-06T08:32:02.999Z</time></trkpt><trkpt lat="37.616636626284084" lon="14.775447018887624"><ele>325.0</ele><time>2026-04-06T08:32:04.999Z</time></trkpt><trkpt lat="37.61652433052631" lon="14.775352571485916"><ele>325.0</ele><time>2026-04-06T08:32:07.999Z</time></trkpt><trkpt lat="37.616429253413266" lon="14.7752692434907"><ele>325.0</ele><time>2026-04-06T08:32:09.999Z</time></trkpt><trkpt lat="37.61638857027116" lon="14.775153017792384"><ele>325.0</ele><time>2026-04-06T08:32:11.999Z</time></trkpt><trkpt lat="37.61644741808268" lon="14.775019903481494"><ele>325.6</ele><time>2026-04-06T08:32:13.999Z</time></trkpt><trkpt lat="37.61645954040468" lon="14.774927510795072"><ele>326.2</ele><time>2026-04-06T08:32:14.999Z</time></trkpt><trkpt lat="37.61641643740376" lon="14.774784815016655"><ele>326.79999999999995</ele><time>2026-04-06T08:32:16.999Z</time></trkpt><trkpt lat="37.61634494211996" lon="14.774716314108145"><ele>327.4</ele><time>2026-04-06T08:32:17.999Z</time></trkpt><trkpt lat="37.616262969845" lon="14.774673073721948"><ele>328.0</ele><time>2026-04-06T08:32:18.999Z</time></trkpt><trkpt lat="37.616184433522115" lon="14.774615961938014"><ele>328.4</ele><time>2026-04-06T08:32:19.999Z</time></trkpt><trkpt lat="37.61609891987629" lon="14.774565902959132"><ele>328.79999999999995</ele><time>2026-04-06T08:32:20.999Z</time></trkpt><trkpt lat="37.616030371752515" lon="14.77452433939128"><ele>329.2</ele><time>2026-04-06T08:32:21.999Z</time></trkpt><trkpt lat="37.61593839487366" lon="14.77450029241268"><ele>329.6</ele><time>2026-04-06T08:32:24Z</time></trkpt><trkpt lat="37.61581067818525" lon="14.774450502839136"><ele>330.0</ele><time>2026-04-06T08:32:26Z</time></trkpt><trkpt lat="37.61574523343009" lon="14.774385520456677"><ele>330.1666666666667</ele><time>2026-04-06T08:32:27Z</time></trkpt><trkpt lat="37.61566869350912" lon="14.774323311210876"><ele>330.3333333333333</ele><time>2026-04-06T08:32:28Z</time></trkpt><trkpt lat="37.615593996396115" lon="14.774252977912058"><ele>330.5</ele><time>2026-04-06T08:32:29Z</time></trkpt><trkpt lat="37.61553218864253" lon="14.774177891194917"><ele>330.66666666666663</ele><time>2026-04-06T08:32:30Z</time></trkpt><trkpt lat="37.61549258699376" lon="14.77408627052327"><ele>330.8333333333333</ele><time>2026-04-06T08:32:31Z</time></trkpt><trkpt lat="37.61546754642332" lon="14.773972467494884"><ele>331.0</ele><time>2026-04-06T08:32:32Z</time></trkpt><trkpt lat="37.61541869868408" lon="14.773859348253058"><ele>331.0</ele><time>2026-04-06T08:32:33Z</time></trkpt><trkpt lat="37.61540941444655" lon="14.77373827361687"><ele>331.0</ele><time>2026-04-06T08:32:34Z</time></trkpt><trkpt lat="37.615407998489374" lon="14.773623628833557"><ele>331.0</ele><time>2026-04-06T08:32:35Z</time></trkpt><trkpt lat="37.61541198250316" lon="14.773523905973176"><ele>331.0</ele><time>2026-04-06T08:32:36Z</time></trkpt><trkpt lat="37.6154311629562" lon="14.773434847196585"><ele>331.0</ele><time>2026-04-06T08:32:37Z</time></trkpt><trkpt lat="37.615454558477666" lon="14.773341426111275"><ele>331.0</ele><time>2026-04-06T08:32:38Z</time></trkpt><trkpt lat="37.615472066215226" lon="14.773258522482768"><ele>331.6</ele><time>2026-04-06T08:32:39Z</time></trkpt><trkpt lat="37.61547836739767" lon="14.773151982000954"><ele>332.20000000000005</ele><time>2026-04-06T08:32:41Z</time></trkpt><trkpt lat="37.61539392389774" lon="14.773071816301888"><ele>332.79999999999995</ele><time>2026-04-06T08:32:43Z</time></trkpt><trkpt lat="37.61530424111258" lon="14.773142632278912"><ele>333.4</ele><time>2026-04-06T08:32:44Z</time></trkpt><trkpt lat="37.61522755855501" lon="14.773149244726076"><ele>334.0</ele><time>2026-04-06T08:32:45Z</time></trkpt><trkpt lat="37.61514473133356" lon="14.77316707326633"><ele>335.79999999999995</ele><time>2026-04-06T08:32:46Z</time></trkpt><trkpt lat="37.61505972827435" lon="14.773185370185736"><ele>337.59999999999997</ele><time>2026-04-06T08:32:47Z</time></trkpt><trkpt lat="37.61499148719042" lon="14.773199039532358"><ele>339.4</ele><time>2026-04-06T08:32:48Z</time></trkpt><trkpt lat="37.614925922466895" lon="14.77320971286188"><ele>341.2</ele><time>2026-04-06T08:32:49Z</time></trkpt><trkpt lat="37.61486304739713" lon="14.773215331080314"><ele>343.0</ele><time>2026-04-06T08:32:50Z</time></trkpt><trkpt lat="37.614797294313796" lon="14.773425176853284"><ele>342.2</ele><time>2026-04-06T08:33:04Z</time></trkpt><trkpt lat="37.61480271912807" lon="14.77354275674571"><ele>341.4</ele><time>2026-04-06T08:33:05Z</time></trkpt><trkpt lat="37.61480151424323" lon="14.773677174322536"><ele>340.59999999999997</ele><time>2026-04-06T08:33:06Z</time></trkpt><trkpt lat="37.61480325144373" lon="14.773823881371083"><ele>339.79999999999995</ele><time>2026-04-06T08:33:07Z</time></trkpt><trkpt lat="37.614803416619665" lon="14.77397912276133"><ele>339.0</ele><time>2026-04-06T08:33:08Z</time></trkpt><trkpt lat="37.61479985475982" lon="14.774123000746256"><ele>338.75</ele><time>2026-04-06T08:33:09Z</time></trkpt><trkpt lat="37.61479239985974" lon="14.77437866406116"><ele>338.5</ele><time>2026-04-06T08:33:11Z</time></trkpt><trkpt lat="37.61478450783174" lon="14.774494815668238"><ele>338.25</ele><time>2026-04-06T08:33:12Z</time></trkpt><trkpt lat="37.61477257453015" lon="14.774603283766874"><ele>338.0</ele><time>2026-04-06T08:33:12.999Z</time></trkpt><trkpt lat="37.61476139036472" lon="14.774708104301826"><ele>338.0</ele><time>2026-04-06T08:33:13.999Z</time></trkpt><trkpt lat="37.6147472813661" lon="14.774807249339935"><ele>338.0</ele><time>2026-04-06T08:33:14.999Z</time></trkpt><trkpt lat="37.614732865631474" lon="14.774910716591021"><ele>338.0</ele><time>2026-04-06T08:33:15.999Z</time></trkpt><trkpt lat="37.61471797493987" lon="14.775012457919663"><ele>338.0</ele><time>2026-04-06T08:33:16.999Z</time></trkpt><trkpt lat="37.614714585705464" lon="14.775115200407349"><ele>338.0</ele><time>2026-04-06T08:33:17.999Z</time></trkpt><trkpt lat="37.61470986971944" lon="14.775215373697588"><ele>338.0</ele><time>2026-04-06T08:33:18.999Z</time></trkpt><trkpt lat="37.61470153456345" lon="14.775317484281224"><ele>337.33333333333337</ele><time>2026-04-06T08:33:19.999Z</time></trkpt><trkpt lat="37.61469107904618" lon="14.775424641353217"><ele>336.6666666666667</ele><time>2026-04-06T08:33:20.999Z</time></trkpt><trkpt lat="37.614680414520016" lon="14.775527214645267"><ele>336.0</ele><time>2026-04-06T08:33:21.999Z</time></trkpt><trkpt lat="37.614670103376" lon="14.775623568462624"><ele>335.3333333333333</ele><time>2026-04-06T08:33:22.999Z</time></trkpt><trkpt lat="37.61466701051102" lon="14.775710733625505"><ele>334.66666666666663</ele><time>2026-04-06T08:33:23.999Z</time></trkpt><trkpt lat="37.61466775081665" lon="14.775793104343627"><ele>334.0</ele><time>2026-04-06T08:33:24.999Z</time></trkpt><trkpt lat="37.61466695493391" lon="14.775927369843977"><ele>334.0</ele><time>2026-04-06T08:33:26.999Z</time></trkpt><trkpt lat="37.61466648667925" lon="14.776007655410364"><ele>334.0</ele><time>2026-04-06T08:33:28.999Z</time></trkpt><trkpt lat="37.614680082509544" lon="14.775881093265225"><ele>334.0</ele><time>2026-04-06T08:33:33.999Z</time></trkpt><trkpt lat="37.61468478784777" lon="14.775673130658012"><ele>334.0</ele><time>2026-04-06T08:33:35.999Z</time></trkpt><trkpt lat="37.61469014995397" lon="14.775553938875394"><ele>334.0</ele><time>2026-04-06T08:33:36.999Z</time></trkpt><trkpt lat="37.61470167350196" lon="14.775418378869448"><ele>334.0</ele><time>2026-04-06T08:33:37.999Z</time></trkpt><trkpt lat="37.61472379791545" lon="14.77528223384733"><ele>334.0</ele><time>2026-04-06T08:33:38.999Z</time></trkpt><trkpt lat="37.61474398412246" lon="14.775142057897526"><ele>334.0</ele><time>2026-04-06T08:33:39.999Z</time></trkpt><trkpt lat="37.61476216448771" lon="14.77500903688045"><ele>334.0</ele><time>2026-04-06T08:33:40.999Z</time></trkpt><trkpt lat="37.614771134309194" lon="14.774878825820156"><ele>334.0</ele><time>2026-04-06T08:33:41.999Z</time></trkpt><trkpt lat="37.61477938130778" lon="14.774750643718605"><ele>334.79999999999995</ele><time>2026-04-06T08:33:42.999Z</time></trkpt><trkpt lat="37.61478716325316" lon="14.774621648890163"><ele>335.59999999999997</ele><time>2026-04-06T08:33:43.999Z</time></trkpt><trkpt lat="37.61479824842097" lon="14.77449703093824"><ele>336.4</ele><time>2026-04-06T08:33:44.999Z</time></trkpt><trkpt lat="37.61480868677066" lon="14.77436747505343"><ele>337.2</ele><time>2026-04-06T08:33:45.999Z</time></trkpt><trkpt lat="37.61481248381327" lon="14.774243506104918"><ele>338.0</ele><time>2026-04-06T08:33:46.999Z</time></trkpt><trkpt lat="37.614814288992385" lon="14.774035125437697"><ele>338.1666666666667</ele><time>2026-04-06T08:33:48.999Z</time></trkpt><trkpt lat="37.61481600584666" lon="14.773950801667867"><ele>338.33333333333337</ele><time>2026-04-06T08:33:49.999Z</time></trkpt><trkpt lat="37.61481288289467" lon="14.773870608655187"><ele>338.5</ele><time>2026-04-06T08:33:50.999Z</time></trkpt><trkpt lat="37.61481389095723" lon="14.773787478702316"><ele>338.6666666666667</ele><time>2026-04-06T08:33:51.999Z</time></trkpt><trkpt lat="37.61481576842802" lon="14.773624429845912"><ele>338.8333333333333</ele><time>2026-04-06T08:33:53.999Z</time></trkpt><trkpt lat="37.61481897540305" lon="14.773534841872896"><ele>339.0</ele><time>2026-04-06T08:33:54.999Z</time></trkpt><trkpt lat="37.61482161781113" lon="14.773436300105224"><ele>339.6666666666667</ele><time>2026-04-06T08:33:55.999Z</time></trkpt><trkpt lat="37.61481588876775" lon="14.773335120840557"><ele>340.3333333333333</ele><time>2026-04-06T08:33:56.999Z</time></trkpt><trkpt lat="37.61481200418151" lon="14.773230511143003"><ele>341.0</ele><time>2026-04-06T08:33:57.999Z</time></trkpt><trkpt lat="37.614816194481385" lon="14.773134054528862"><ele>341.66666666666663</ele><time>2026-04-06T08:33:58.999Z</time></trkpt><trkpt lat="37.6148212055305" lon="14.773023200783902"><ele>342.3333333333333</ele><time>2026-04-06T08:34:00.999Z</time></trkpt><trkpt lat="37.61483335294401" lon="14.773108768242807"><ele>343.0</ele><time>2026-04-06T08:34:03.999Z</time></trkpt><trkpt lat="37.61479059014017" lon="14.773198392397"><ele>343.0</ele><time>2026-04-06T08:34:04.999Z</time></trkpt><trkpt lat="37.614807863591565" lon="14.773275504330094"><ele>343.0</ele><time>2026-04-06T08:34:05.999Z</time></trkpt><trkpt lat="37.614804311872184" lon="14.773371376641698"><ele>343.0</ele><time>2026-04-06T08:34:06.999Z</time></trkpt><trkpt lat="37.61479941374222" lon="14.77345674994685"><ele>343.0</ele><time>2026-04-06T08:34:07.999Z</time></trkpt><trkpt lat="37.614792118768" lon="14.773586064267386"><ele>343.0</ele><time>2026-04-06T08:34:09.999Z</time></trkpt><trkpt lat="37.614785355595174" lon="14.77375572328981"><ele>343.0</ele><time>2026-04-06T08:34:11.999Z</time></trkpt><trkpt lat="37.61478165212483" lon="14.773867329848025"><ele>342.2</ele><time>2026-04-06T08:34:12.999Z</time></trkpt><trkpt lat="37.61478351642115" lon="14.773988535360042"><ele>341.4</ele><time>2026-04-06T08:34:13.999Z</time></trkpt><trkpt lat="37.61478749709927" lon="14.77410194695098"><ele>340.59999999999997</ele><time>2026-04-06T08:34:14.999Z</time></trkpt><trkpt lat="37.61478538491177" lon="14.774208283129099"><ele>339.79999999999995</ele><time>2026-04-06T08:34:15.999Z</time></trkpt><trkpt lat="37.614782803697146" lon="14.774343767411146"><ele>339.0</ele><time>2026-04-06T08:34:16.999Z</time></trkpt><trkpt lat="37.61478041680513" lon="14.774486253100761"><ele>338.79999999999995</ele><time>2026-04-06T08:34:17.999Z</time></trkpt><trkpt lat="37.614770337775205" lon="14.774616788540962"><ele>338.59999999999997</ele><time>2026-04-06T08:34:18.999Z</time></trkpt><trkpt lat="37.61475804174813" lon="14.77474154712977"><ele>338.4</ele><time>2026-04-06T08:34:19.999Z</time></trkpt><trkpt lat="37.61474531121328" lon="14.774858957889865"><ele>338.2</ele><time>2026-04-06T08:34:20.999Z</time></trkpt><trkpt lat="37.61473171610134" lon="14.774972039228446"><ele>338.0</ele><time>2026-04-06T08:34:21.999Z</time></trkpt><trkpt lat="37.61472127300609" lon="14.775078992304875"><ele>338.0</ele><time>2026-04-06T08:34:22.999Z</time></trkpt><trkpt lat="37.61471247932182" lon="14.775179142026388"><ele>338.0</ele><time>2026-04-06T08:34:23.999Z</time></trkpt><trkpt lat="37.61470099817539" lon="14.775275766401741"><ele>338.0</ele><time>2026-04-06T08:34:24.999Z</time></trkpt><trkpt lat="37.614691118724785" lon="14.775375251003396"><ele>338.0</ele><time>2026-04-06T08:34:25.999Z</time></trkpt><trkpt lat="37.6146757397249" lon="14.775463737179043"><ele>338.0</ele><time>2026-04-06T08:34:26.999Z</time></trkpt><trkpt lat="37.61466700962176" lon="14.775557544254127"><ele>338.0</ele><time>2026-04-06T08:34:27.999Z</time></trkpt><trkpt lat="37.61465919353213" lon="14.775736194830134"><ele>337.42857142857144</ele><time>2026-04-06T08:34:30Z</time></trkpt><trkpt lat="37.61466396863546" lon="14.77582657724477"><ele>336.85714285714283</ele><time>2026-04-06T08:34:31Z</time></trkpt><trkpt lat="37.61466608167441" lon="14.775919098677461"><ele>336.2857142857143</ele><time>2026-04-06T08:34:32Z</time></trkpt><trkpt lat="37.614671256523955" lon="14.776010708997276"><ele>335.7142857142857</ele><time>2026-04-06T08:34:33Z</time></trkpt><trkpt lat="37.61467603559732" lon="14.77609550213769"><ele>335.14285714285717</ele><time>2026-04-06T08:34:34Z</time></trkpt><trkpt lat="37.61467736001881" lon="14.776182100690503"><ele>334.57142857142856</ele><time>2026-04-06T08:34:35Z</time></trkpt><trkpt lat="37.61468159917183" lon="14.776265731058116"><ele>334.0</ele><time>2026-04-06T08:34:36Z</time></trkpt><trkpt lat="37.614690777629" lon="14.776353705735346"><ele>333.4</ele><time>2026-04-06T08:34:37Z</time></trkpt><trkpt lat="37.614700935510356" lon="14.776513216719083"><ele>332.79999999999995</ele><time>2026-04-06T08:34:39Z</time></trkpt><trkpt lat="37.61470869231579" lon="14.776615877743168"><ele>332.20000000000005</ele><time>2026-04-06T08:34:40Z</time></trkpt><trkpt lat="37.61471957460428" lon="14.776734362597825"><ele>331.6</ele><time>2026-04-06T08:34:41Z</time></trkpt><trkpt lat="37.61473080785615" lon="14.77686079467438"><ele>331.0</ele><time>2026-04-06T08:34:42Z</time></trkpt><trkpt lat="37.614745539821676" lon="14.77697676573747"><ele>329.8</ele><time>2026-04-06T08:34:43Z</time></trkpt><trkpt lat="37.614762423174724" lon="14.777084338236163"><ele>328.6</ele><time>2026-04-06T08:34:44Z</time></trkpt><trkpt lat="37.61478088131468" lon="14.777188728080345"><ele>327.4</ele><time>2026-04-06T08:34:45Z</time></trkpt><trkpt lat="37.61479851275381" lon="14.777296953405754"><ele>326.2</ele><time>2026-04-06T08:34:46Z</time></trkpt><trkpt lat="37.61483342090828" lon="14.77742497363825"><ele>325.0</ele><time>2026-04-06T08:34:47Z</time></trkpt><trkpt lat="37.614870806199384" lon="14.777553702754291"><ele>323.5</ele><time>2026-04-06T08:34:48Z</time></trkpt><trkpt lat="37.6149112064227" lon="14.777695965505245"><ele>322.0</ele><time>2026-04-06T08:34:49Z</time></trkpt><trkpt lat="37.614950792240464" lon="14.777838340737938"><ele>320.5</ele><time>2026-04-06T08:34:50Z</time></trkpt><trkpt lat="37.61498290252199" lon="14.777977246376025"><ele>319.0</ele><time>2026-04-06T08:34:51Z</time></trkpt><trkpt lat="37.61500925358907" lon="14.77812833442614"><ele>319.0</ele><time>2026-04-06T08:34:52Z</time></trkpt><trkpt lat="37.61502979437682" lon="14.778287039746923"><ele>319.0</ele><time>2026-04-06T08:34:53Z</time></trkpt><trkpt lat="37.61504783536055" lon="14.77844090904134"><ele>319.0</ele><time>2026-04-06T08:34:54Z</time></trkpt><trkpt lat="37.6150723761504" lon="14.778594098375695"><ele>319.0</ele><time>2026-04-06T08:34:55Z</time></trkpt><trkpt lat="37.615101365530556" lon="14.778742615189973"><ele>318.25</ele><time>2026-04-06T08:34:56Z</time></trkpt><trkpt lat="37.615140492764304" lon="14.778881433461294"><ele>317.5</ele><time>2026-04-06T08:34:57Z</time></trkpt><trkpt lat="37.615186943667" lon="14.779013525238577"><ele>316.75</ele><time>2026-04-06T08:34:58Z</time></trkpt><trkpt lat="37.61523754725459" lon="14.779137081838027"><ele>316.0</ele><time>2026-04-06T08:34:59Z</time></trkpt><trkpt lat="37.6152918760168" lon="14.779260723297844"><ele>314.5</ele><time>2026-04-06T08:35:00Z</time></trkpt><trkpt lat="37.615348260583644" lon="14.779394797375703"><ele>313.0</ele><time>2026-04-06T08:35:01Z</time></trkpt><trkpt lat="37.61540462398834" lon="14.779511640831817"><ele>311.5</ele><time>2026-04-06T08:35:02Z</time></trkpt><trkpt lat="37.61546789049174" lon="14.779627062466568"><ele>310.0</ele><time>2026-04-06T08:35:03Z</time></trkpt><trkpt lat="37.615533574027666" lon="14.77973972521609"><ele>310.0</ele><time>2026-04-06T08:35:04Z</time></trkpt><trkpt lat="37.61559742221521" lon="14.77985096067873"><ele>310.0</ele><time>2026-04-06T08:35:05Z</time></trkpt><trkpt lat="37.61566087009815" lon="14.779958222352258"><ele>310.0</ele><time>2026-04-06T08:35:06Z</time></trkpt><trkpt lat="37.615724252744805" lon="14.780064619475937"><ele>310.0</ele><time>2026-04-06T08:35:07Z</time></trkpt><trkpt lat="37.61578784236027" lon="14.780167133234265"><ele>310.0</ele><time>2026-04-06T08:35:08Z</time></trkpt><trkpt lat="37.61585131794688" lon="14.780262525336331"><ele>309.2</ele><time>2026-04-06T08:35:09Z</time></trkpt><trkpt lat="37.61591496279295" lon="14.780358599262238"><ele>308.4</ele><time>2026-04-06T08:35:10Z</time></trkpt><trkpt lat="37.61597555066728" lon="14.78045272588781"><ele>307.6</ele><time>2026-04-06T08:35:11Z</time></trkpt><trkpt lat="37.61603380632496" lon="14.780544256578562"><ele>306.8</ele><time>2026-04-06T08:35:12Z</time></trkpt><trkpt lat="37.61609412292358" lon="14.780633572145517"><ele>306.0</ele><time>2026-04-06T08:35:13Z</time></trkpt><trkpt lat="37.61615317975828" lon="14.780725463640309"><ele>306.0</ele><time>2026-04-06T08:35:13.999Z</time></trkpt><trkpt lat="37.61621121985162" lon="14.780814266663375"><ele>306.0</ele><time>2026-04-06T08:35:14.999Z</time></trkpt><trkpt lat="37.61626861516481" lon="14.780905491615707"><ele>306.0</ele><time>2026-04-06T08:35:15.999Z</time></trkpt><trkpt lat="37.61633051446709" lon="14.780986282250566"><ele>306.0</ele><time>2026-04-06T08:35:16.999Z</time></trkpt><trkpt lat="37.616398662704526" lon="14.78106096174343"><ele>306.0</ele><time>2026-04-06T08:35:17.999Z</time></trkpt><trkpt lat="37.61644942420166" lon="14.781132897905119"><ele>306.0</ele><time>2026-04-06T08:35:18.999Z</time></trkpt><trkpt lat="37.6164877463279" lon="14.7812078322072"><ele>305.1666666666667</ele><time>2026-04-06T08:35:19.999Z</time></trkpt><trkpt lat="37.61646830097682" lon="14.781286263909589"><ele>304.3333333333333</ele><time>2026-04-06T08:35:20.999Z</time></trkpt><trkpt lat="37.61649637788116" lon="14.781362777441343"><ele>303.5</ele><time>2026-04-06T08:35:22.999Z</time></trkpt><trkpt lat="37.61647157536825" lon="14.781441528370904"><ele>302.66666666666663</ele><time>2026-04-06T08:35:30.999Z</time></trkpt><trkpt lat="37.61637287361044" lon="14.781474330955875"><ele>301.8333333333333</ele><time>2026-04-06T08:35:32.999Z</time></trkpt><trkpt lat="37.6162985846162" lon="14.781503208427786"><ele>301.0</ele><time>2026-04-06T08:35:33.999Z</time></trkpt><trkpt lat="37.6162101991308" lon="14.78155723995198"><ele>301.2</ele><time>2026-04-06T08:35:34.999Z</time></trkpt><trkpt lat="37.61611654522725" lon="14.781609694263928"><ele>301.40000000000003</ele><time>2026-04-06T08:35:35.999Z</time></trkpt><trkpt lat="37.616019091886045" lon="14.781665475532808"><ele>301.6</ele><time>2026-04-06T08:35:36.999Z</time></trkpt><trkpt lat="37.61591942003528" lon="14.781717988413671"><ele>301.8</ele><time>2026-04-06T08:35:37.999Z</time></trkpt><trkpt lat="37.61582518330289" lon="14.781771679987711"><ele>302.0</ele><time>2026-04-06T08:35:38.999Z</time></trkpt><trkpt lat="37.615748453574625" lon="14.781817381997984"><ele>301.5</ele><time>2026-04-06T08:35:39.999Z</time></trkpt><trkpt lat="37.61568573279277" lon="14.781849522296936"><ele>301.0</ele><time>2026-04-06T08:35:40.999Z</time></trkpt><trkpt lat="37.615612892668786" lon="14.781877131949503"><ele>300.5</ele><time>2026-04-06T08:35:41.999Z</time></trkpt><trkpt lat="37.61553897807161" lon="14.781884255050704"><ele>300.0</ele><time>2026-04-06T08:35:42.999Z</time></trkpt><trkpt lat="37.61547302461126" lon="14.78187355011573"><ele>299.5</ele><time>2026-04-06T08:35:43.999Z</time></trkpt><trkpt lat="37.615404287281564" lon="14.781851686955074"><ele>299.0</ele><time>2026-04-06T08:35:44.999Z</time></trkpt><trkpt lat="37.615310020585355" lon="14.78181916319493"><ele>298.0</ele><time>2026-04-06T08:35:46.999Z</time></trkpt><trkpt lat="37.615214242928054" lon="14.781968387824442"><ele>297.0</ele><time>2026-04-06T08:35:53.999Z</time></trkpt><trkpt lat="37.615172397879284" lon="14.782065186940384"><ele>296.0</ele><time>2026-04-06T08:35:54.999Z</time></trkpt><trkpt lat="37.61510390722083" lon="14.78216007271071"><ele>295.0</ele><time>2026-04-06T08:35:55.999Z</time></trkpt><trkpt lat="37.61504057576271" lon="14.782280201848339"><ele>295.0</ele><time>2026-04-06T08:35:56.999Z</time></trkpt><trkpt lat="37.61496710941336" lon="14.78239799559428"><ele>295.0</ele><time>2026-04-06T08:35:57.999Z</time></trkpt><trkpt lat="37.61488574503454" lon="14.782519774352474"><ele>295.0</ele><time>2026-04-06T08:35:58.999Z</time></trkpt><trkpt lat="37.614811154415655" lon="14.782629011957475"><ele>295.0</ele><time>2026-04-06T08:35:59.999Z</time></trkpt><trkpt lat="37.61475537223646" lon="14.782711345939761"><ele>295.0</ele><time>2026-04-06T08:36:00.999Z</time></trkpt><trkpt lat="37.61470306191444" lon="14.782781398984442"><ele>295.0</ele><time>2026-04-06T08:36:01.999Z</time></trkpt><trkpt lat="37.61476563123065" lon="14.782683907840985"><ele>295.0</ele><time>2026-04-06T08:36:09.999Z</time></trkpt><trkpt lat="37.61484293727596" lon="14.782574082085386"><ele>295.0</ele><time>2026-04-06T08:36:10.999Z</time></trkpt><trkpt lat="37.614912884502864" lon="14.78247484917869"><ele>295.0</ele><time>2026-04-06T08:36:11.999Z</time></trkpt><trkpt lat="37.614982550668124" lon="14.782366212899712"><ele>295.0</ele><time>2026-04-06T08:36:12.999Z</time></trkpt><trkpt lat="37.61504594656275" lon="14.78226118812737"><ele>295.0</ele><time>2026-04-06T08:36:13.999Z</time></trkpt><trkpt lat="37.61510091201355" lon="14.782168862714864"><ele>295.0</ele><time>2026-04-06T08:36:14.999Z</time></trkpt><trkpt lat="37.615145590432455" lon="14.782086441297857"><ele>295.0</ele><time>2026-04-06T08:36:15.999Z</time></trkpt><trkpt lat="37.61518596907745" lon="14.782019344594083"><ele>295.0</ele><time>2026-04-06T08:36:16.999Z</time></trkpt><trkpt lat="37.61522736095714" lon="14.781955723228934"><ele>295.0</ele><time>2026-04-06T08:36:17.999Z</time></trkpt><trkpt lat="37.61528580027059" lon="14.781860853069052"><ele>295.0</ele><time>2026-04-06T08:36:19.999Z</time></trkpt><trkpt lat="37.61521878821949" lon="14.78175095280355"><ele>295.8</ele><time>2026-04-06T08:36:28.999Z</time></trkpt><trkpt lat="37.61516623627476" lon="14.781605693681605"><ele>296.6</ele><time>2026-04-06T08:36:30.999Z</time></trkpt><trkpt lat="37.6151201619298" lon="14.781513077602327"><ele>297.4</ele><time>2026-04-06T08:36:31.999Z</time></trkpt><trkpt lat="37.61507161137624" lon="14.781416683209027"><ele>298.2</ele><time>2026-04-06T08:36:32.999Z</time></trkpt><trkpt lat="37.61502071315317" lon="14.781317924913067"><ele>299.0</ele><time>2026-04-06T08:36:33.999Z</time></trkpt><trkpt lat="37.614968099538956" lon="14.78121583853766"><ele>299.0</ele><time>2026-04-06T08:36:34.999Z</time></trkpt><trkpt lat="37.6149160666326" lon="14.781117551125979"><ele>299.0</ele><time>2026-04-06T08:36:36Z</time></trkpt><trkpt lat="37.61487060895165" lon="14.781034901531825"><ele>299.0</ele><time>2026-04-06T08:36:37Z</time></trkpt><trkpt lat="37.61478152889703" lon="14.780922010385128"><ele>299.0</ele><time>2026-04-06T08:36:39Z</time></trkpt><trkpt lat="37.614727836990255" lon="14.780839640513841"><ele>299.0</ele><time>2026-04-06T08:36:40Z</time></trkpt><trkpt lat="37.61467105812893" lon="14.780757448450892"><ele>299.4</ele><time>2026-04-06T08:36:41Z</time></trkpt><trkpt lat="37.61460475879209" lon="14.780663528221732"><ele>299.79999999999995</ele><time>2026-04-06T08:36:42Z</time></trkpt><trkpt lat="37.61455498966388" lon="14.78056249252921"><ele>300.20000000000005</ele><time>2026-04-06T08:36:43Z</time></trkpt><trkpt lat="37.614498863507684" lon="14.780473201249716"><ele>300.6</ele><time>2026-04-06T08:36:44Z</time></trkpt><trkpt lat="37.61443749214691" lon="14.780365316596265"><ele>301.0</ele><time>2026-04-06T08:36:45Z</time></trkpt><trkpt lat="37.61437124222472" lon="14.780243368734586"><ele>302.75</ele><time>2026-04-06T08:36:46Z</time></trkpt><trkpt lat="37.61430665574164" lon="14.780115787036554"><ele>304.5</ele><time>2026-04-06T08:36:47Z</time></trkpt><trkpt lat="37.614241581011" lon="14.779983033740498"><ele>306.25</ele><time>2026-04-06T08:36:48Z</time></trkpt><trkpt lat="37.6141823129227" lon="14.779863666921456"><ele>308.0</ele><time>2026-04-06T08:36:49Z</time></trkpt><trkpt lat="37.614120900473324" lon="14.77974271172235"><ele>308.0</ele><time>2026-04-06T08:36:50Z</time></trkpt><trkpt lat="37.61405619181221" lon="14.779621939865848"><ele>308.0</ele><time>2026-04-06T08:36:51Z</time></trkpt><trkpt lat="37.61399222822532" lon="14.779511368342874"><ele>308.0</ele><time>2026-04-06T08:36:52Z</time></trkpt><trkpt lat="37.61393753484946" lon="14.779419872315493"><ele>308.0</ele><time>2026-04-06T08:36:53Z</time></trkpt><trkpt lat="37.613878471969215" lon="14.77935258530182"><ele>308.0</ele><time>2026-04-06T08:36:54Z</time></trkpt><trkpt lat="37.613827505953374" lon="14.779258021409063"><ele>307.5</ele><time>2026-04-06T08:36:55Z</time></trkpt><trkpt lat="37.61377398264287" lon="14.779162334599429"><ele>307.0</ele><time>2026-04-06T08:36:56Z</time></trkpt><trkpt lat="37.61373160760987" lon="14.779084881957726"><ele>306.5</ele><time>2026-04-06T08:36:57Z</time></trkpt><trkpt lat="37.61369757312381" lon="14.778987330764485"><ele>306.0</ele><time>2026-04-06T08:36:58Z</time></trkpt><trkpt lat="37.613659868014466" lon="14.778905269689158"><ele>305.5</ele><time>2026-04-06T08:36:59Z</time></trkpt><trkpt lat="37.61361898475438" lon="14.77882923518478"><ele>305.0</ele><time>2026-04-06T08:37:00Z</time></trkpt><trkpt lat="37.61358476654188" lon="14.778744163693572"><ele>305.0</ele><time>2026-04-06T08:37:01Z</time></trkpt><trkpt lat="37.61355333471448" lon="14.77864463422774"><ele>305.0</ele><time>2026-04-06T08:37:02Z</time></trkpt><trkpt lat="37.61352789184148" lon="14.778547458702315"><ele>305.0</ele><time>2026-04-06T08:37:03Z</time></trkpt><trkpt lat="37.61349216645595" lon="14.77845694681309"><ele>305.0</ele><time>2026-04-06T08:37:04Z</time></trkpt><trkpt lat="37.61346494033729" lon="14.778364938578516"><ele>305.0</ele><time>2026-04-06T08:37:05Z</time></trkpt><trkpt lat="37.61342644172898" lon="14.778293678024868"><ele>305.0</ele><time>2026-04-06T08:37:06Z</time></trkpt><trkpt lat="37.61337875954759" lon="14.77822239005441"><ele>306.33333333333337</ele><time>2026-04-06T08:37:07Z</time></trkpt><trkpt lat="37.61331601964615" lon="14.778163266571141"><ele>307.6666666666667</ele><time>2026-04-06T08:37:08Z</time></trkpt><trkpt lat="37.61323704586204" lon="14.7781217930806"><ele>309.0</ele><time>2026-04-06T08:37:09Z</time></trkpt><trkpt lat="37.61319076356399" lon="14.778060836675216"><ele>310.3333333333333</ele><time>2026-04-06T08:37:10Z</time></trkpt><trkpt lat="37.61312362243883" lon="14.777947145605808"><ele>311.66666666666663</ele><time>2026-04-06T08:37:12Z</time></trkpt><trkpt lat="37.61308027270684" lon="14.777869041984902"><ele>313.0</ele><time>2026-04-06T08:37:13Z</time></trkpt><trkpt lat="37.61303111862329" lon="14.77777758654237"><ele>313.0</ele><time>2026-04-06T08:37:14Z</time></trkpt><trkpt lat="37.61297870239527" lon="14.777676108092935"><ele>313.0</ele><time>2026-04-06T08:37:15Z</time></trkpt><trkpt lat="37.61292749010314" lon="14.77756789840268"><ele>313.0</ele><time>2026-04-06T08:37:16Z</time></trkpt><trkpt lat="37.612876588431114" lon="14.777451720532605"><ele>313.0</ele><time>2026-04-06T08:37:17Z</time></trkpt><trkpt lat="37.612811230791976" lon="14.777324218586626"><ele>313.0</ele><time>2026-04-06T08:37:18Z</time></trkpt><trkpt lat="37.61276418077542" lon="14.777200488510577"><ele>313.0</ele><time>2026-04-06T08:37:18.999Z</time></trkpt><trkpt lat="37.61271602467713" lon="14.777096888205694"><ele>313.0</ele><time>2026-04-06T08:37:19.999Z</time></trkpt><trkpt lat="37.61265501269404" lon="14.777008133416967"><ele>313.0</ele><time>2026-04-06T08:37:20.999Z</time></trkpt><trkpt lat="37.61260443196477" lon="14.776893207139109"><ele>313.0</ele><time>2026-04-06T08:37:21.999Z</time></trkpt><trkpt lat="37.61254989346511" lon="14.776787779974443"><ele>313.0</ele><time>2026-04-06T08:37:22.999Z</time></trkpt><trkpt lat="37.612493368207886" lon="14.776691573105847"><ele>315.0</ele><time>2026-04-06T08:37:23.999Z</time></trkpt><trkpt lat="37.612430771424634" lon="14.77658399578235"><ele>317.0</ele><time>2026-04-06T08:37:24.999Z</time></trkpt><trkpt lat="37.61239432416365" lon="14.776489178422272"><ele>319.0</ele><time>2026-04-06T08:37:25.999Z</time></trkpt><trkpt lat="37.61233751736549" lon="14.776435033080276"><ele>321.0</ele><time>2026-04-06T08:37:26.999Z</time></trkpt><trkpt lat="37.61224610095785" lon="14.776386466080325"><ele>323.0</ele><time>2026-04-06T08:37:28.999Z</time></trkpt><trkpt lat="37.61211941121054" lon="14.776460152261473"><ele>323.0</ele><time>2026-04-06T08:37:30.999Z</time></trkpt><trkpt lat="37.61202864788018" lon="14.776503668002707"><ele>323.0</ele><time>2026-04-06T08:37:31.999Z</time></trkpt><trkpt lat="37.61195204493308" lon="14.776571065880024"><ele>323.0</ele><time>2026-04-06T08:37:32.999Z</time></trkpt><trkpt lat="37.61186701418141" lon="14.77664962761711"><ele>323.0</ele><time>2026-04-06T08:37:33.999Z</time></trkpt><trkpt lat="37.61179343739881" lon="14.776724959755622"><ele>323.0</ele><time>2026-04-06T08:37:34.999Z</time></trkpt><trkpt lat="37.61172987352921" lon="14.776809426941904"><ele>320.83333333333337</ele><time>2026-04-06T08:37:35.999Z</time></trkpt><trkpt lat="37.61165914504494" lon="14.776873164625547"><ele>318.6666666666667</ele><time>2026-04-06T08:37:36.999Z</time></trkpt><trkpt lat="37.61159440601549" lon="14.776933824700377"><ele>316.5</ele><time>2026-04-06T08:37:37.999Z</time></trkpt><trkpt lat="37.61152069394915" lon="14.77695686726691"><ele>314.3333333333333</ele><time>2026-04-06T08:37:38.999Z</time></trkpt><trkpt lat="37.611444582150575" lon="14.776975612621117"><ele>312.16666666666663</ele><time>2026-04-06T08:37:42.999Z</time></trkpt><trkpt lat="37.61136208764169" lon="14.776940526395293"><ele>310.0</ele><time>2026-04-06T08:37:44.999Z</time></trkpt><trkpt lat="37.61129924871131" lon="14.776911652087882"><ele>310.0</ele><time>2026-04-06T08:37:45.999Z</time></trkpt><trkpt lat="37.611229735056554" lon="14.776853515980962"><ele>310.0</ele><time>2026-04-06T08:37:46.999Z</time></trkpt><trkpt lat="37.61115032821402" lon="14.776790335471418"><ele>310.0</ele><time>2026-04-06T08:37:47.999Z</time></trkpt><trkpt lat="37.611057795974936" lon="14.776714116100601"><ele>310.0</ele><time>2026-04-06T08:37:48.999Z</time></trkpt><trkpt lat="37.61097284785194" lon="14.776635454505335"><ele>310.0</ele><time>2026-04-06T08:37:49.999Z</time></trkpt><trkpt lat="37.610887170990345" lon="14.776581725558437"><ele>313.0</ele><time>2026-04-06T08:37:50.999Z</time></trkpt><trkpt lat="37.610811916564934" lon="14.776532983264751"><ele>316.0</ele><time>2026-04-06T08:37:51.999Z</time></trkpt><trkpt lat="37.61072236664182" lon="14.776464800908098"><ele>319.0</ele><time>2026-04-06T08:37:53.999Z</time></trkpt><trkpt lat="37.6106066163065" lon="14.776571630119605"><ele>322.0</ele><time>2026-04-06T08:37:57.999Z</time></trkpt><trkpt lat="37.61055979496399" lon="14.776657828601461"><ele>325.0</ele><time>2026-04-06T08:37:58.999Z</time></trkpt><trkpt lat="37.61049274325511" lon="14.776753223048862"><ele>325.0</ele><time>2026-04-06T08:37:59.999Z</time></trkpt><trkpt lat="37.61041553483842" lon="14.776845351258967"><ele>325.0</ele><time>2026-04-06T08:38:00.999Z</time></trkpt><trkpt lat="37.61033156772986" lon="14.776938569997231"><ele>325.0</ele><time>2026-04-06T08:38:01.999Z</time></trkpt><trkpt lat="37.61025095830243" lon="14.77704041852158"><ele>325.0</ele><time>2026-04-06T08:38:02.999Z</time></trkpt><trkpt lat="37.61017158293782" lon="14.77713739006042"><ele>325.0</ele><time>2026-04-06T08:38:03.999Z</time></trkpt><trkpt lat="37.61009846120013" lon="14.777225744531538"><ele>324.6</ele><time>2026-04-06T08:38:04.999Z</time></trkpt><trkpt lat="37.61004028711871" lon="14.777302103767036"><ele>324.2</ele><time>2026-04-06T08:38:05.999Z</time></trkpt><trkpt lat="37.60996869432337" lon="14.777371386091573"><ele>323.79999999999995</ele><time>2026-04-06T08:38:06.999Z</time></trkpt><trkpt lat="37.6098954615162" lon="14.777463227800572"><ele>323.4</ele><time>2026-04-06T08:38:07.999Z</time></trkpt><trkpt lat="37.6098291188301" lon="14.77753943212093"><ele>323.0</ele><time>2026-04-06T08:38:08.999Z</time></trkpt><trkpt lat="37.60976832258939" lon="14.777610454398054"><ele>322.33333333333337</ele><time>2026-04-06T08:38:09.999Z</time></trkpt><trkpt lat="37.60971474034228" lon="14.777685412640558"><ele>321.6666666666667</ele><time>2026-04-06T08:38:10.999Z</time></trkpt><trkpt lat="37.60965778139707" lon="14.777754286673927"><ele>321.0</ele><time>2026-04-06T08:38:11.999Z</time></trkpt><trkpt lat="37.60959372171292" lon="14.777825008480606"><ele>320.3333333333333</ele><time>2026-04-06T08:38:12.999Z</time></trkpt><trkpt lat="37.609533852933055" lon="14.777907022217088"><ele>319.66666666666663</ele><time>2026-04-06T08:38:13.999Z</time></trkpt><trkpt lat="37.60945828718838" lon="14.778000652427766"><ele>319.0</ele><time>2026-04-06T08:38:14.999Z</time></trkpt><trkpt lat="37.6093884514884" lon="14.778090575335385"><ele>319.0</ele><time>2026-04-06T08:38:15.999Z</time></trkpt><trkpt lat="37.60932274288333" lon="14.778172880055353"><ele>319.0</ele><time>2026-04-06T08:38:16.999Z</time></trkpt><trkpt lat="37.60926277488704" lon="14.778245993465902"><ele>319.0</ele><time>2026-04-06T08:38:17.999Z</time></trkpt><trkpt lat="37.609203626008146" lon="14.77832513029377"><ele>319.0</ele><time>2026-04-06T08:38:18.999Z</time></trkpt><trkpt lat="37.60914298266307" lon="14.778392221612778"><ele>319.0</ele><time>2026-04-06T08:38:19.999Z</time></trkpt><trkpt lat="37.609078554017415" lon="14.778463394883762"><ele>319.0</ele><time>2026-04-06T08:38:20.999Z</time></trkpt><trkpt lat="37.60900766057132" lon="14.778548699196824"><ele>317.5</ele><time>2026-04-06T08:38:21.999Z</time></trkpt><trkpt lat="37.6089308874124" lon="14.778642391054527"><ele>316.0</ele><time>2026-04-06T08:38:22.999Z</time></trkpt><trkpt lat="37.6088418927217" lon="14.778745699451724"><ele>314.5</ele><time>2026-04-06T08:38:23.999Z</time></trkpt><trkpt lat="37.6087511706939" lon="14.77885508729918"><ele>313.0</ele><time>2026-04-06T08:38:24.999Z</time></trkpt><trkpt lat="37.60865916635398" lon="14.778961136424542"><ele>313.0</ele><time>2026-04-06T08:38:25.999Z</time></trkpt><trkpt lat="37.60857573792686" lon="14.779064805493391"><ele>313.0</ele><time>2026-04-06T08:38:26.999Z</time></trkpt><trkpt lat="37.60849115926683" lon="14.779172132405632"><ele>313.0</ele><time>2026-04-06T08:38:27.999Z</time></trkpt><trkpt lat="37.608395703535" lon="14.779282377405787"><ele>313.0</ele><time>2026-04-06T08:38:28.999Z</time></trkpt><trkpt lat="37.60831242139187" lon="14.779386590291207"><ele>312.0</ele><time>2026-04-06T08:38:29.999Z</time></trkpt><trkpt lat="37.60823484007948" lon="14.77949029262999"><ele>311.0</ele><time>2026-04-06T08:38:30.999Z</time></trkpt><trkpt lat="37.60815807202057" lon="14.779596618694656"><ele>310.0</ele><time>2026-04-06T08:38:31.999Z</time></trkpt><trkpt lat="37.60806593845995" lon="14.77970975866739"><ele>309.0</ele><time>2026-04-06T08:38:32.999Z</time></trkpt><trkpt lat="37.60797756313823" lon="14.779816821571151"><ele>309.0</ele><time>2026-04-06T08:38:33.999Z</time></trkpt><trkpt lat="37.6078777890906" lon="14.779927426409113"><ele>309.0</ele><time>2026-04-06T08:38:34.999Z</time></trkpt><trkpt lat="37.607767615181565" lon="14.780057452009794"><ele>309.0</ele><time>2026-04-06T08:38:35.999Z</time></trkpt><trkpt lat="37.60764598453783" lon="14.780202559501097"><ele>309.5</ele><time>2026-04-06T08:38:36.999Z</time></trkpt><trkpt lat="37.607542940326525" lon="14.780332295206817"><ele>310.0</ele><time>2026-04-06T08:38:37.999Z</time></trkpt><trkpt lat="37.60745104164416" lon="14.780445884792696"><ele>310.5</ele><time>2026-04-06T08:38:38.999Z</time></trkpt><trkpt lat="37.607360274536944" lon="14.78055118121472"><ele>311.0</ele><time>2026-04-06T08:38:39.999Z</time></trkpt><trkpt lat="37.60727899401214" lon="14.780649006531847"><ele>311.0</ele><time>2026-04-06T08:38:40.999Z</time></trkpt><trkpt lat="37.60720079394882" lon="14.780739199672823"><ele>311.0</ele><time>2026-04-06T08:38:42Z</time></trkpt><trkpt lat="37.60712725005067" lon="14.780824544601321"><ele>311.0</ele><time>2026-04-06T08:38:43Z</time></trkpt><trkpt lat="37.607057781544476" lon="14.780910365144207"><ele>311.0</ele><time>2026-04-06T08:38:44Z</time></trkpt><trkpt lat="37.60699715971149" lon="14.781000978017417"><ele>311.0</ele><time>2026-04-06T08:38:45Z</time></trkpt><trkpt lat="37.6069311091376" lon="14.781112473196307"><ele>308.75</ele><time>2026-04-06T08:38:46Z</time></trkpt><trkpt lat="37.60685719390221" lon="14.781234115962455"><ele>306.5</ele><time>2026-04-06T08:38:47Z</time></trkpt><trkpt lat="37.60678469417081" lon="14.78134626818296"><ele>304.25</ele><time>2026-04-06T08:38:48Z</time></trkpt><trkpt lat="37.60671042099915" lon="14.781447858249466"><ele>302.0</ele><time>2026-04-06T08:38:49Z</time></trkpt><trkpt lat="37.60663171876045" lon="14.781549083795895"><ele>302.0</ele><time>2026-04-06T08:38:50Z</time></trkpt><trkpt lat="37.60653272598437" lon="14.781665099785538"><ele>302.0</ele><time>2026-04-06T08:38:51Z</time></trkpt><trkpt lat="37.6064444214739" lon="14.781779572842455"><ele>302.0</ele><time>2026-04-06T08:38:52Z</time></trkpt><trkpt lat="37.60636573933902" lon="14.781893868363625"><ele>302.0</ele><time>2026-04-06T08:38:53Z</time></trkpt><trkpt lat="37.60629215067621" lon="14.782012988966613"><ele>300.25</ele><time>2026-04-06T08:38:54Z</time></trkpt><trkpt lat="37.606209799242876" lon="14.782133857386535"><ele>298.5</ele><time>2026-04-06T08:38:55Z</time></trkpt><trkpt lat="37.60610350462054" lon="14.78226444180194"><ele>296.75</ele><time>2026-04-06T08:38:56Z</time></trkpt><trkpt lat="37.60600621244891" lon="14.782379950008396"><ele>295.0</ele><time>2026-04-06T08:38:57Z</time></trkpt><trkpt lat="37.60591227256181" lon="14.782486659660814"><ele>295.0</ele><time>2026-04-06T08:38:58Z</time></trkpt><trkpt lat="37.605822316316186" lon="14.782602261335933"><ele>295.0</ele><time>2026-04-06T08:38:59Z</time></trkpt><trkpt lat="37.60573823530712" lon="14.78271810340968"><ele>295.0</ele><time>2026-04-06T08:39:00Z</time></trkpt><trkpt lat="37.605657378361165" lon="14.782836627626544"><ele>295.0</ele><time>2026-04-06T08:39:01Z</time></trkpt><trkpt lat="37.605566247521736" lon="14.782966368457979"><ele>294.25</ele><time>2026-04-06T08:39:02Z</time></trkpt><trkpt lat="37.605470814946166" lon="14.783104734541135"><ele>293.5</ele><time>2026-04-06T08:39:03Z</time></trkpt><trkpt lat="37.60538513307782" lon="14.783222116898198"><ele>292.75</ele><time>2026-04-06T08:39:04Z</time></trkpt><trkpt lat="37.60530319466949" lon="14.783327169335884"><ele>292.0</ele><time>2026-04-06T08:39:05Z</time></trkpt><trkpt lat="37.60522734450403" lon="14.78342795551884"><ele>292.0</ele><time>2026-04-06T08:39:06Z</time></trkpt><trkpt lat="37.60515774389102" lon="14.783527345820492"><ele>292.0</ele><time>2026-04-06T08:39:07Z</time></trkpt><trkpt lat="37.60508562704834" lon="14.783621238066997"><ele>292.0</ele><time>2026-04-06T08:39:08Z</time></trkpt><trkpt lat="37.60501634594388" lon="14.783724450089432"><ele>292.0</ele><time>2026-04-06T08:39:09Z</time></trkpt><trkpt lat="37.604943996414875" lon="14.783835128722256"><ele>292.0</ele><time>2026-04-06T08:39:10Z</time></trkpt><trkpt lat="37.60486519648967" lon="14.783956569223385"><ele>292.0</ele><time>2026-04-06T08:39:11Z</time></trkpt><trkpt lat="37.60479370126186" lon="14.784059602975804"><ele>292.0</ele><time>2026-04-06T08:39:12Z</time></trkpt><trkpt lat="37.60472842417836" lon="14.784157461269853"><ele>292.0</ele><time>2026-04-06T08:39:13Z</time></trkpt><trkpt lat="37.60466297522043" lon="14.78425413503844"><ele>292.0</ele><time>2026-04-06T08:39:14Z</time></trkpt><trkpt lat="37.60458781046839" lon="14.784371782772231"><ele>292.0</ele><time>2026-04-06T08:39:15Z</time></trkpt><trkpt lat="37.6045123249016" lon="14.784498635142361"><ele>289.75</ele><time>2026-04-06T08:39:16Z</time></trkpt><trkpt lat="37.60444768491424" lon="14.78461892866346"><ele>287.5</ele><time>2026-04-06T08:39:17Z</time></trkpt><trkpt lat="37.60437807433371" lon="14.784749451254195"><ele>285.25</ele><time>2026-04-06T08:39:18Z</time></trkpt><trkpt lat="37.60432079781796" lon="14.784875296569808"><ele>283.0</ele><time>2026-04-06T08:39:19Z</time></trkpt><trkpt lat="37.60427044816939" lon="14.784994131798749"><ele>283.0</ele><time>2026-04-06T08:39:20Z</time></trkpt><trkpt lat="37.60422878194365" lon="14.785110175200638"><ele>283.0</ele><time>2026-04-06T08:39:21Z</time></trkpt><trkpt lat="37.60420007990654" lon="14.785227569291987"><ele>283.0</ele><time>2026-04-06T08:39:22Z</time></trkpt><trkpt lat="37.60419051856368" lon="14.785341707982257"><ele>283.0</ele><time>2026-04-06T08:39:23Z</time></trkpt><trkpt lat="37.604191232920584" lon="14.785458049805115"><ele>283.0</ele><time>2026-04-06T08:39:23.999Z</time></trkpt><trkpt lat="37.60419609963359" lon="14.785559584623137"><ele>283.16666666666663</ele><time>2026-04-06T08:39:24.999Z</time></trkpt><trkpt lat="37.604185326912436" lon="14.785639065347002"><ele>283.3333333333333</ele><time>2026-04-06T08:39:25.999Z</time></trkpt><trkpt lat="37.60414950119869" lon="14.785717656469505"><ele>283.5</ele><time>2026-04-06T08:39:26.999Z</time></trkpt><trkpt lat="37.60410468972895" lon="14.785790091576951"><ele>283.6666666666667</ele><time>2026-04-06T08:39:27.999Z</time></trkpt><trkpt lat="37.60405798033213" lon="14.785852645759022"><ele>283.83333333333337</ele><time>2026-04-06T08:39:28.999Z</time></trkpt><trkpt lat="37.60398416008339" lon="14.785930601886367"><ele>284.0</ele><time>2026-04-06T08:39:29.999Z</time></trkpt><trkpt lat="37.60391642489035" lon="14.786011289868858"><ele>282.85714285714283</ele><time>2026-04-06T08:39:30.999Z</time></trkpt><trkpt lat="37.60387178282279" lon="14.786089127237927"><ele>281.71428571428567</ele><time>2026-04-06T08:39:31.999Z</time></trkpt><trkpt lat="37.603829441277725" lon="14.786164782999778"><ele>280.57142857142856</ele><time>2026-04-06T08:39:32.999Z</time></trkpt><trkpt lat="37.60376545876454" lon="14.786200784069324"><ele>279.42857142857144</ele><time>2026-04-06T08:39:33.999Z</time></trkpt><trkpt lat="37.60368592186653" lon="14.78623513781176"><ele>278.28571428571433</ele><time>2026-04-06T08:39:35.999Z</time></trkpt><trkpt lat="37.603623045407005" lon="14.786274664872337"><ele>277.14285714285717</ele><time>2026-04-06T08:41:29Z</time></trkpt><trkpt lat="37.60355606005837" lon="14.786292682603362"><ele>276.0</ele><time>2026-04-06T08:41:31Z</time></trkpt><trkpt lat="37.6034792928517" lon="14.78634336784434"><ele>274.2</ele><time>2026-04-06T08:41:33Z</time></trkpt><trkpt lat="37.60337739480105" lon="14.78637172794047"><ele>272.40000000000003</ele><time>2026-04-06T08:41:35Z</time></trkpt><trkpt lat="37.60332449281705" lon="14.786416774930618"><ele>270.6</ele><time>2026-04-06T08:41:37Z</time></trkpt><trkpt lat="37.60325948575521" lon="14.786524413560075"><ele>268.8</ele><time>2026-04-06T08:41:39Z</time></trkpt><trkpt lat="37.60317221131332" lon="14.786632485708399"><ele>267.0</ele><time>2026-04-06T08:41:41Z</time></trkpt><trkpt lat="37.60307007344882" lon="14.786701320860919"><ele>267.0</ele><time>2026-04-06T08:41:43Z</time></trkpt><trkpt lat="37.602987458761106" lon="14.786798851312225"><ele>267.0</ele><time>2026-04-06T08:41:45Z</time></trkpt><trkpt lat="37.602891324313056" lon="14.786882132333965"><ele>267.0</ele><time>2026-04-06T08:41:47Z</time></trkpt><trkpt lat="37.60284182730501" lon="14.78697414509653"><ele>267.0</ele><time>2026-04-06T08:41:48.999Z</time></trkpt><trkpt lat="37.602791798841196" lon="14.78712191316401"><ele>267.0</ele><time>2026-04-06T08:41:50.999Z</time></trkpt><trkpt lat="37.60275421299513" lon="14.787255124662583"><ele>263.8333333333333</ele><time>2026-04-06T08:41:52.999Z</time></trkpt><trkpt lat="37.60275070333902" lon="14.787394390486325"><ele>260.6666666666667</ele><time>2026-04-06T08:41:54.999Z</time></trkpt><trkpt lat="37.602763077376665" lon="14.787524731751837"><ele>257.5</ele><time>2026-04-06T08:41:56.999Z</time></trkpt><trkpt lat="37.6027866507974" lon="14.787634297841741"><ele>254.33333333333334</ele><time>2026-04-06T08:41:58.999Z</time></trkpt><trkpt lat="37.60280129267745" lon="14.787717211085239"><ele>251.16666666666669</ele><time>2026-04-06T08:42:00.999Z</time></trkpt><trkpt lat="37.60281060902658" lon="14.787800207019488"><ele>248.0</ele><time>2026-04-06T08:42:03.999Z</time></trkpt><trkpt lat="37.60285704138052" lon="14.787869337219972"><ele>245.83333333333334</ele><time>2026-04-06T08:42:05.999Z</time></trkpt><trkpt lat="37.60288294224041" lon="14.787965118710316"><ele>243.66666666666669</ele><time>2026-04-06T08:42:07.999Z</time></trkpt><trkpt lat="37.60289729926765" lon="14.788046862240444"><ele>241.5</ele><time>2026-04-06T08:42:09.999Z</time></trkpt><trkpt lat="37.602915655654776" lon="14.788151379258004"><ele>239.33333333333331</ele><time>2026-04-06T08:42:13.999Z</time></trkpt><trkpt lat="37.602924774842734" lon="14.788268664880894"><ele>237.16666666666666</ele><time>2026-04-06T08:42:15.999Z</time></trkpt><trkpt lat="37.60289983051433" lon="14.788351589517172"><ele>235.0</ele><time>2026-04-06T08:42:16.999Z</time></trkpt><trkpt lat="37.602877403347186" lon="14.78844427996958"><ele>234.66666666666666</ele><time>2026-04-06T08:42:17.999Z</time></trkpt><trkpt lat="37.60285612017527" lon="14.78852840979476"><ele>234.33333333333331</ele><time>2026-04-06T08:42:18.999Z</time></trkpt><trkpt lat="37.60282756247738" lon="14.788666395015255"><ele>234.0</ele><time>2026-04-06T08:42:20.999Z</time></trkpt><trkpt lat="37.602817169480176" lon="14.788756567659352"><ele>233.66666666666669</ele><time>2026-04-06T08:42:21.999Z</time></trkpt><trkpt lat="37.602794566313335" lon="14.788834875304564"><ele>233.33333333333334</ele><time>2026-04-06T08:42:22.999Z</time></trkpt><trkpt lat="37.60279250322621" lon="14.788979641906348"><ele>233.0</ele><time>2026-04-06T08:42:24.999Z</time></trkpt><trkpt lat="37.60280354402473" lon="14.789074881083913"><ele>234.4</ele><time>2026-04-06T08:42:25.999Z</time></trkpt><trkpt lat="37.6028032178568" lon="14.789175006784365"><ele>235.8</ele><time>2026-04-06T08:42:26.999Z</time></trkpt><trkpt lat="37.60278413377747" lon="14.789341443144092"><ele>237.2</ele><time>2026-04-06T08:42:28.999Z</time></trkpt><trkpt lat="37.60275858078388" lon="14.789447148851874"><ele>238.6</ele><time>2026-04-06T08:42:29.999Z</time></trkpt><trkpt lat="37.602730923155626" lon="14.789569073151847"><ele>240.0</ele><time>2026-04-06T08:42:30.999Z</time></trkpt><trkpt lat="37.60271459416023" lon="14.789675019087674"><ele>241.0</ele><time>2026-04-06T08:42:31.999Z</time></trkpt><trkpt lat="37.6027149569306" lon="14.789781547294728"><ele>242.0</ele><time>2026-04-06T08:42:32.999Z</time></trkpt><trkpt lat="37.60272958385598" lon="14.78988257939043"><ele>243.0</ele><time>2026-04-06T08:42:33.999Z</time></trkpt><trkpt lat="37.60274555691518" lon="14.789967387188016"><ele>244.0</ele><time>2026-04-06T08:42:34.999Z</time></trkpt><trkpt lat="37.60274347223601" lon="14.790066925532962"><ele>245.0</ele><time>2026-04-06T08:42:36.999Z</time></trkpt><trkpt lat="37.60269592752243" lon="14.790169031397198"><ele>246.0</ele><time>2026-04-06T08:42:39.999Z</time></trkpt><trkpt lat="37.60265060259039" lon="14.790229774568427"><ele>246.0</ele><time>2026-04-06T08:44:08.999Z</time></trkpt><trkpt lat="37.60259673408674" lon="14.790274939578929"><ele>246.00000000000003</ele><time>2026-04-06T08:44:11.999Z</time></trkpt><trkpt lat="37.6025075704314" lon="14.790364522443467"><ele>246.00000000000003</ele><time>2026-04-06T08:44:14.999Z</time></trkpt><trkpt lat="37.60243307575396" lon="14.790425754364762"><ele>246.0</ele><time>2026-04-06T08:44:15.999Z</time></trkpt><trkpt lat="37.60235068655475" lon="14.79047877379703"><ele>246.0</ele><time>2026-04-06T08:44:16.999Z</time></trkpt><trkpt lat="37.6022612997992" lon="14.790523324744123"><ele>246.0</ele><time>2026-04-06T08:44:17.999Z</time></trkpt><trkpt lat="37.60216834023874" lon="14.790563545418532"><ele>246.00000000000003</ele><time>2026-04-06T08:44:18.999Z</time></trkpt><trkpt lat="37.60207463835966" lon="14.790611677920772"><ele>246.00000000000003</ele><time>2026-04-06T08:44:19.999Z</time></trkpt><trkpt lat="37.60199814853198" lon="14.79067499328019"><ele>246.0</ele><time>2026-04-06T08:44:20.999Z</time></trkpt><trkpt lat="37.60194442040492" lon="14.790749448852592"><ele>246.0</ele><time>2026-04-06T08:44:21.999Z</time></trkpt><trkpt lat="37.60189798069682" lon="14.790849743009602"><ele>246.83333333333334</ele><time>2026-04-06T08:44:22.999Z</time></trkpt><trkpt lat="37.60184801799199" lon="14.790952129423893"><ele>247.66666666666669</ele><time>2026-04-06T08:44:23.999Z</time></trkpt><trkpt lat="37.60179670587902" lon="14.791017695356146"><ele>248.5</ele><time>2026-04-06T08:44:24.999Z</time></trkpt><trkpt lat="37.601739297349305" lon="14.791074520483424"><ele>249.33333333333334</ele><time>2026-04-06T08:44:25.999Z</time></trkpt><trkpt lat="37.60165950490537" lon="14.791107358479309"><ele>250.16666666666669</ele><time>2026-04-06T08:44:26.999Z</time></trkpt><trkpt lat="37.60159071193292" lon="14.791169096572228"><ele>251.0</ele><time>2026-04-06T08:44:27.999Z</time></trkpt><trkpt lat="37.601523735466635" lon="14.791219162486462"><ele>251.16666666666669</ele><time>2026-04-06T08:44:28.999Z</time></trkpt><trkpt lat="37.60143925226282" lon="14.791353957437527"><ele>251.33333333333334</ele><time>2026-04-06T08:44:30.999Z</time></trkpt><trkpt lat="37.601414840989094" lon="14.7914327408998"><ele>251.5</ele><time>2026-04-06T08:44:31.999Z</time></trkpt><trkpt lat="37.60139901733141" lon="14.791519126658867"><ele>251.66666666666669</ele><time>2026-04-06T08:44:32.999Z</time></trkpt><trkpt lat="37.601381516948926" lon="14.791602449227012"><ele>251.83333333333334</ele><time>2026-04-06T08:44:33.999Z</time></trkpt><trkpt lat="37.60137350987144" lon="14.79168715157835"><ele>252.0</ele><time>2026-04-06T08:44:34.999Z</time></trkpt><trkpt lat="37.60137889864258" lon="14.791773644551467"><ele>252.8</ele><time>2026-04-06T08:44:35.999Z</time></trkpt><trkpt lat="37.601403642354605" lon="14.791889917855144"><ele>253.6</ele><time>2026-04-06T08:44:36.999Z</time></trkpt><trkpt lat="37.60142431016491" lon="14.791993831000877"><ele>254.40000000000003</ele><time>2026-04-06T08:44:37.999Z</time></trkpt><trkpt lat="37.60144067462047" lon="14.792083150878367"><ele>255.20000000000002</ele><time>2026-04-06T08:44:38.999Z</time></trkpt><trkpt lat="37.60148212333012" lon="14.79227929713648"><ele>256.0</ele><time>2026-04-06T08:44:40.999Z</time></trkpt><trkpt lat="37.601497329394874" lon="14.792356544360143"><ele>256.0</ele><time>2026-04-06T08:44:41.999Z</time></trkpt><trkpt lat="37.60147888394879" lon="14.792471952403375"><ele>256.0</ele><time>2026-04-06T08:44:43.999Z</time></trkpt><trkpt lat="37.60135916558727" lon="14.7925362392814"><ele>256.0</ele><time>2026-04-06T08:44:45.999Z</time></trkpt><trkpt lat="37.601288220613014" lon="14.792539623388805"><ele>256.0</ele><time>2026-04-06T08:44:46.999Z</time></trkpt><trkpt lat="37.601208168353196" lon="14.792568232192334"><ele>256.0</ele><time>2026-04-06T08:44:47.999Z</time></trkpt><trkpt lat="37.60111597714944" lon="14.792588476159354"><ele>257.3333333333333</ele><time>2026-04-06T08:44:48.999Z</time></trkpt><trkpt lat="37.60102589586126" lon="14.792616203166975"><ele>258.66666666666663</ele><time>2026-04-06T08:44:49.999Z</time></trkpt><trkpt lat="37.60094518642768" lon="14.79262415965783"><ele>260.0</ele><time>2026-04-06T08:44:50.999Z</time></trkpt><trkpt lat="37.60086365769502" lon="14.792620782770877"><ele>261.3333333333333</ele><time>2026-04-06T08:44:51.999Z</time></trkpt><trkpt lat="37.60078447327498" lon="14.79261889053884"><ele>262.6666666666667</ele><time>2026-04-06T08:44:52.999Z</time></trkpt><trkpt lat="37.60070338418381" lon="14.79261059953467"><ele>264.0</ele><time>2026-04-06T08:44:53.999Z</time></trkpt><trkpt lat="37.60061387353104" lon="14.79259991037351"><ele>264.0</ele><time>2026-04-06T08:44:54.999Z</time></trkpt><trkpt lat="37.60053755923661" lon="14.792597165903713"><ele>264.0</ele><time>2026-04-06T08:44:55.999Z</time></trkpt><trkpt lat="37.600448145145776" lon="14.792600465213477"><ele>264.0</ele><time>2026-04-06T08:44:56.999Z</time></trkpt><trkpt lat="37.60035875446616" lon="14.792600131564356"><ele>264.0</ele><time>2026-04-06T08:44:57.999Z</time></trkpt><trkpt lat="37.600285169578726" lon="14.792605200580663"><ele>264.0</ele><time>2026-04-06T08:44:58.999Z</time></trkpt><trkpt lat="37.600212543945446" lon="14.792619157532812"><ele>264.0</ele><time>2026-04-06T08:45:00Z</time></trkpt><trkpt lat="37.60014495587243" lon="14.792637355656145"><ele>262.8333333333333</ele><time>2026-04-06T08:45:01Z</time></trkpt><trkpt lat="37.600085582470385" lon="14.792664425516204"><ele>261.6666666666667</ele><time>2026-04-06T08:45:02Z</time></trkpt><trkpt lat="37.59998336618989" lon="14.792693676176611"><ele>260.5</ele><time>2026-04-06T08:45:04Z</time></trkpt><trkpt lat="37.59992668398573" lon="14.79258368773487"><ele>259.33333333333337</ele><time>2026-04-06T08:45:06Z</time></trkpt><trkpt lat="37.59987347152767" lon="14.792527390980306"><ele>258.1666666666667</ele><time>2026-04-06T08:45:07Z</time></trkpt><trkpt lat="37.59982521034994" lon="14.792446843090522"><ele>257.0</ele><time>2026-04-06T08:45:08Z</time></trkpt><trkpt lat="37.599778812052676" lon="14.792376938843988"><ele>257.0</ele><time>2026-04-06T08:45:09Z</time></trkpt><trkpt lat="37.59969686485608" lon="14.792299414588216"><ele>257.0</ele><time>2026-04-06T08:45:11Z</time></trkpt><trkpt lat="37.599612863470085" lon="14.79235375051202"><ele>257.0</ele><time>2026-04-06T08:45:13Z</time></trkpt><trkpt lat="37.599571017670876" lon="14.79243485251781"><ele>257.0</ele><time>2026-04-06T08:45:14Z</time></trkpt><trkpt lat="37.599510798441095" lon="14.792484566844243"><ele>257.0</ele><time>2026-04-06T08:45:15Z</time></trkpt><trkpt lat="37.5994439736084" lon="14.792502219566586"><ele>257.0</ele><time>2026-04-06T08:45:16Z</time></trkpt><trkpt lat="37.59936896341969" lon="14.792521751864376"><ele>257.0</ele><time>2026-04-06T08:45:17Z</time></trkpt><trkpt lat="37.59929325642515" lon="14.79250884330028"><ele>257.0</ele><time>2026-04-06T08:45:18Z</time></trkpt><trkpt lat="37.599181352760546" lon="14.79253871569257"><ele>257.0</ele><time>2026-04-06T08:45:20Z</time></trkpt><trkpt lat="37.59911377219924" lon="14.79259504494646"><ele>257.0</ele><time>2026-04-06T08:45:21Z</time></trkpt><trkpt lat="37.59902448747294" lon="14.792637720964082"><ele>257.0</ele><time>2026-04-06T08:45:22Z</time></trkpt><trkpt lat="37.598957582818095" lon="14.792710473904078"><ele>257.0</ele><time>2026-04-06T08:45:23Z</time></trkpt><trkpt lat="37.59888968272669" lon="14.792761808085503"><ele>257.0</ele><time>2026-04-06T08:45:24Z</time></trkpt><trkpt lat="37.59883409233843" lon="14.792821540600485"><ele>257.0</ele><time>2026-04-06T08:45:25Z</time></trkpt><trkpt lat="37.598775820781135" lon="14.79288969937157"><ele>257.0</ele><time>2026-04-06T08:45:26Z</time></trkpt><trkpt lat="37.59873124376289" lon="14.792957828739725"><ele>257.0</ele><time>2026-04-06T08:45:27Z</time></trkpt><trkpt lat="37.59869862070295" lon="14.793036199993265"><ele>257.0</ele><time>2026-04-06T08:45:28Z</time></trkpt><trkpt lat="37.59867427905546" lon="14.793126921884408"><ele>257.0</ele><time>2026-04-06T08:45:29Z</time></trkpt><trkpt lat="37.5986577425744" lon="14.793207447018785"><ele>254.66666666666669</ele><time>2026-04-06T08:45:30Z</time></trkpt><trkpt lat="37.59860554005524" lon="14.793314763478369"><ele>252.33333333333334</ele><time>2026-04-06T08:45:32Z</time></trkpt><trkpt lat="37.598550353463025" lon="14.79335460129026"><ele>250.0</ele><time>2026-04-06T08:45:33Z</time></trkpt><trkpt lat="37.59847383752619" lon="14.793361751865316"><ele>247.66666666666669</ele><time>2026-04-06T08:45:34Z</time></trkpt><trkpt lat="37.598397801192334" lon="14.793384461626088"><ele>245.33333333333334</ele><time>2026-04-06T08:45:35Z</time></trkpt><trkpt lat="37.59831890767218" lon="14.793407320537828"><ele>243.0</ele><time>2026-04-06T08:45:36Z</time></trkpt><trkpt lat="37.59825320107429" lon="14.793459479231695"><ele>243.0</ele><time>2026-04-06T08:45:37Z</time></trkpt><trkpt lat="37.59819346538314" lon="14.793504651798834"><ele>243.0</ele><time>2026-04-06T08:45:38Z</time></trkpt><trkpt lat="37.59814210812634" lon="14.793564015280772"><ele>243.0</ele><time>2026-04-06T08:45:39Z</time></trkpt><trkpt lat="37.59808152118394" lon="14.793638088656566"><ele>243.0</ele><time>2026-04-06T08:45:40Z</time></trkpt><trkpt lat="37.59801230804958" lon="14.79371539070942"><ele>243.0</ele><time>2026-04-06T08:45:41Z</time></trkpt><trkpt lat="37.59794036114017" lon="14.793792229997358"><ele>243.0</ele><time>2026-04-06T08:45:42Z</time></trkpt><trkpt lat="37.5978734846833" lon="14.793856006793815"><ele>242.42857142857142</ele><time>2026-04-06T08:45:43Z</time></trkpt><trkpt lat="37.59781763554116" lon="14.79390284936732"><ele>241.8571428571429</ele><time>2026-04-06T08:45:44Z</time></trkpt><trkpt lat="37.59775274368416" lon="14.793960658242924"><ele>241.2857142857143</ele><time>2026-04-06T08:45:45Z</time></trkpt><trkpt lat="37.59770277144701" lon="14.79403948553768"><ele>240.71428571428572</ele><time>2026-04-06T08:45:45.999Z</time></trkpt><trkpt lat="37.59767645782052" lon="14.794126638292354"><ele>240.14285714285717</ele><time>2026-04-06T08:45:46.999Z</time></trkpt><trkpt lat="37.59767721219611" lon="14.79420688096919"><ele>239.5714285714286</ele><time>2026-04-06T08:45:47.999Z</time></trkpt><trkpt lat="37.59770707613739" lon="14.794284017866497"><ele>239.00000000000003</ele><time>2026-04-06T08:45:48.999Z</time></trkpt><trkpt lat="37.59775535675673" lon="14.794367916276816"><ele>238.79999999999998</ele><time>2026-04-06T08:45:49.999Z</time></trkpt><trkpt lat="37.59781555768477" lon="14.794464400245035"><ele>238.59999999999997</ele><time>2026-04-06T08:45:50.999Z</time></trkpt><trkpt lat="37.59785470926991" lon="14.794572619953911"><ele>238.4</ele><time>2026-04-06T08:45:51.999Z</time></trkpt><trkpt lat="37.597901940871246" lon="14.794642206463537"><ele>238.2</ele><time>2026-04-06T08:45:52.999Z</time></trkpt><trkpt lat="37.597912446708854" lon="14.794789158532199"><ele>238.0</ele><time>2026-04-06T08:45:54.999Z</time></trkpt><trkpt lat="37.597914523987825" lon="14.794879900084155"><ele>237.99999999999997</ele><time>2026-04-06T08:45:55.999Z</time></trkpt><trkpt lat="37.597935865401794" lon="14.794979398282875"><ele>238.0</ele><time>2026-04-06T08:45:56.999Z</time></trkpt><trkpt lat="37.597943059283466" lon="14.795080393108465"><ele>238.0</ele><time>2026-04-06T08:45:57.999Z</time></trkpt><trkpt lat="37.59795966231934" lon="14.795186925151148"><ele>238.0</ele><time>2026-04-06T08:45:58.999Z</time></trkpt><trkpt lat="37.5979761577922" lon="14.79527782186418"><ele>237.99999999999997</ele><time>2026-04-06T08:45:59.999Z</time></trkpt><trkpt lat="37.597985111967155" lon="14.79535998361815"><ele>238.0</ele><time>2026-04-06T08:46:00.999Z</time></trkpt><trkpt lat="37.59795510975833" lon="14.795516348990555"><ele>238.16666666666666</ele><time>2026-04-06T08:46:02.999Z</time></trkpt><trkpt lat="37.59788045298722" lon="14.795632748932642"><ele>238.33333333333331</ele><time>2026-04-06T08:46:04.999Z</time></trkpt><trkpt lat="37.59782406514296" lon="14.795688091891448"><ele>238.5</ele><time>2026-04-06T08:46:05.999Z</time></trkpt><trkpt lat="37.597764902857534" lon="14.795749396609615"><ele>238.66666666666669</ele><time>2026-04-06T08:46:06.999Z</time></trkpt><trkpt lat="37.5977087133098" lon="14.795815979300013"><ele>238.83333333333334</ele><time>2026-04-06T08:46:07.999Z</time></trkpt><trkpt lat="37.59765122940453" lon="14.795879225167042"><ele>239.0</ele><time>2026-04-06T08:46:08.999Z</time></trkpt><trkpt lat="37.59759019803679" lon="14.79593207632054"><ele>239.16666666666669</ele><time>2026-04-06T08:46:09.999Z</time></trkpt><trkpt lat="37.59752261185873" lon="14.795978623088617"><ele>239.33333333333334</ele><time>2026-04-06T08:46:10.999Z</time></trkpt><trkpt lat="37.59745785593268" lon="14.79602825215313"><ele>239.5</ele><time>2026-04-06T08:46:11.999Z</time></trkpt><trkpt lat="37.59740015649623" lon="14.796090145758953"><ele>239.66666666666669</ele><time>2026-04-06T08:46:12.999Z</time></trkpt><trkpt lat="37.59733901915315" lon="14.79615921648624"><ele>239.83333333333334</ele><time>2026-04-06T08:46:13.999Z</time></trkpt><trkpt lat="37.59726419378281" lon="14.79624480487137"><ele>240.0</ele><time>2026-04-06T08:46:14.999Z</time></trkpt><trkpt lat="37.59716551615861" lon="14.796309581565108"><ele>240.0</ele><time>2026-04-06T08:46:15.999Z</time></trkpt><trkpt lat="37.59711584283107" lon="14.796384015718022"><ele>240.0</ele><time>2026-04-06T08:46:16.999Z</time></trkpt><trkpt lat="37.59706732360305" lon="14.796440183532544"><ele>240.0</ele><time>2026-04-06T08:46:17.999Z</time></trkpt><trkpt lat="37.59706344836123" lon="14.796540586712362"><ele>240.0</ele><time>2026-04-06T08:46:18.999Z</time></trkpt><trkpt lat="37.59704322562947" lon="14.796644049154771"><ele>240.0</ele><time>2026-04-06T08:46:19.999Z</time></trkpt><trkpt lat="37.59699837649455" lon="14.79671469628118"><ele>240.0</ele><time>2026-04-06T08:46:20.999Z</time></trkpt><trkpt lat="37.596981709423545" lon="14.796803336251807"><ele>239.4</ele><time>2026-04-06T08:46:21.999Z</time></trkpt><trkpt lat="37.59694412687596" lon="14.796955424240904"><ele>238.8</ele><time>2026-04-06T08:46:23.999Z</time></trkpt><trkpt lat="37.59701128351104" lon="14.797076497225753"><ele>238.2</ele><time>2026-04-06T08:46:25.999Z</time></trkpt><trkpt lat="37.59705789658127" lon="14.797148713581748"><ele>237.6</ele><time>2026-04-06T08:46:26.999Z</time></trkpt><trkpt lat="37.59703384637151" lon="14.797299156131578"><ele>237.0</ele><time>2026-04-06T08:46:28.999Z</time></trkpt><trkpt lat="37.597017517419246" lon="14.797396974025553"><ele>238.0</ele><time>2026-04-06T08:46:29.999Z</time></trkpt><trkpt lat="37.59698263180946" lon="14.797497416480669"><ele>239.0</ele><time>2026-04-06T08:46:30.999Z</time></trkpt><trkpt lat="37.5969534885692" lon="14.797607018711714"><ele>240.0</ele><time>2026-04-06T08:46:31.999Z</time></trkpt><trkpt lat="37.596928834954" lon="14.797710811141213"><ele>241.0</ele><time>2026-04-06T08:46:32.999Z</time></trkpt><trkpt lat="37.59690402750547" lon="14.797792361650878"><ele>242.0</ele><time>2026-04-06T08:46:33.999Z</time></trkpt><trkpt lat="37.596897260256874" lon="14.797890630650743"><ele>243.0</ele><time>2026-04-06T08:46:35.999Z</time></trkpt><trkpt lat="37.59688198482462" lon="14.798029562022695"><ele>243.0</ele><time>2026-04-06T08:46:46.999Z</time></trkpt><trkpt lat="37.59691353193809" lon="14.798107870027092"><ele>243.0</ele><time>2026-04-06T08:46:50.999Z</time></trkpt><trkpt lat="37.59693778907015" lon="14.798231612714819"><ele>243.0</ele><time>2026-04-06T08:47:00.999Z</time></trkpt><trkpt lat="37.59695137578822" lon="14.798324757109846"><ele>243.0</ele><time>2026-04-06T08:47:02.999Z</time></trkpt><trkpt lat="37.59699851937638" lon="14.798398103600713"><ele>243.0</ele><time>2026-04-06T08:47:06Z</time></trkpt><trkpt lat="37.59694662084844" lon="14.798340118698606"><ele>243.0</ele><time>2026-04-06T08:47:11Z</time></trkpt><trkpt lat="37.59693452096954" lon="14.798250596185586"><ele>243.0</ele><time>2026-04-06T08:47:13Z</time></trkpt><trkpt lat="37.59692118114919" lon="14.798151876832016"><ele>243.0</ele><time>2026-04-06T08:47:15Z</time></trkpt><trkpt lat="37.59690206187921" lon="14.798064126200408"><ele>243.0</ele><time>2026-04-06T08:47:17Z</time></trkpt><trkpt lat="37.59687810825863" lon="14.797972330053696"><ele>243.0</ele><time>2026-04-06T08:47:25Z</time></trkpt><trkpt lat="37.59693878040282" lon="14.797932972514172"><ele>243.0</ele><time>2026-04-06T08:48:06.999Z</time></trkpt><trkpt lat="37.59704754597922" lon="14.797943994532536"><ele>243.0</ele><time>2026-04-06T08:48:19.999Z</time></trkpt><trkpt lat="37.59714281148254" lon="14.79795593966458"><ele>244.16666666666666</ele><time>2026-04-06T08:48:20.999Z</time></trkpt><trkpt lat="37.59722641053844" lon="14.797953192822895"><ele>245.33333333333331</ele><time>2026-04-06T08:48:21.999Z</time></trkpt><trkpt lat="37.59729854818698" lon="14.797967960858221"><ele>246.5</ele><time>2026-04-06T08:48:22.999Z</time></trkpt><trkpt lat="37.59737215538886" lon="14.798002979592312"><ele>247.66666666666666</ele><time>2026-04-06T08:48:23.999Z</time></trkpt><trkpt lat="37.59744676737445" lon="14.79807455276485"><ele>248.83333333333331</ele><time>2026-04-06T08:48:24.999Z</time></trkpt><trkpt lat="37.59751094980663" lon="14.798152296961918"><ele>250.0</ele><time>2026-04-06T08:48:25.999Z</time></trkpt><trkpt lat="37.59757834960776" lon="14.798245768010293"><ele>249.99999999999997</ele><time>2026-04-06T08:48:26.999Z</time></trkpt><trkpt lat="37.59763550153607" lon="14.798327215331607"><ele>250.0</ele><time>2026-04-06T08:48:27.999Z</time></trkpt><trkpt lat="37.597679827026724" lon="14.798424167595151"><ele>250.0</ele><time>2026-04-06T08:48:28.999Z</time></trkpt><trkpt lat="37.59771293044228" lon="14.798530453729626"><ele>250.0</ele><time>2026-04-06T08:48:29.999Z</time></trkpt><trkpt lat="37.59772920946199" lon="14.798641148948652"><ele>249.99999999999997</ele><time>2026-04-06T08:48:30.999Z</time></trkpt><trkpt lat="37.597733525105944" lon="14.798739690800065"><ele>250.0</ele><time>2026-04-06T08:48:31.999Z</time></trkpt><trkpt lat="37.5977324171381" lon="14.79882888645483"><ele>250.33333333333331</ele><time>2026-04-06T08:48:32.999Z</time></trkpt><trkpt lat="37.59773963943819" lon="14.798977588976538"><ele>250.66666666666666</ele><time>2026-04-06T08:48:34.999Z</time></trkpt><trkpt lat="37.597771711528715" lon="14.799050296759983"><ele>251.0</ele><time>2026-04-06T08:48:35.999Z</time></trkpt><trkpt lat="37.597823786496" lon="14.799120433826515"><ele>251.33333333333331</ele><time>2026-04-06T08:48:36.999Z</time></trkpt><trkpt lat="37.597882493277" lon="14.799189405485441"><ele>251.66666666666666</ele><time>2026-04-06T08:48:37.999Z</time></trkpt><trkpt lat="37.597935378277555" lon="14.799267671001234"><ele>252.0</ele><time>2026-04-06T08:48:38.999Z</time></trkpt><trkpt lat="37.59797514384554" lon="14.799354497930512"><ele>249.66666666666666</ele><time>2026-04-06T08:48:39.999Z</time></trkpt><trkpt lat="37.598004410603075" lon="14.799450655091942"><ele>247.33333333333331</ele><time>2026-04-06T08:48:40.999Z</time></trkpt><trkpt lat="37.59801728210364" lon="14.79954413697481"><ele>245.0</ele><time>2026-04-06T08:48:41.999Z</time></trkpt><trkpt lat="37.598032794709916" lon="14.79963094857313"><ele>242.66666666666666</ele><time>2026-04-06T08:48:42.999Z</time></trkpt><trkpt lat="37.598053023727054" lon="14.799712841370884"><ele>240.33333333333331</ele><time>2026-04-06T08:48:43.999Z</time></trkpt><trkpt lat="37.59811789689975" lon="14.799845286666736"><ele>238.0</ele><time>2026-04-06T08:48:45.999Z</time></trkpt><trkpt lat="37.59816173467805" lon="14.799904855951418"><ele>238.0</ele><time>2026-04-06T08:48:46.999Z</time></trkpt><trkpt lat="37.59821218909261" lon="14.800053485735027"><ele>238.0</ele><time>2026-04-06T08:48:48.999Z</time></trkpt><trkpt lat="37.59822214984817" lon="14.800151970669225"><ele>238.0</ele><time>2026-04-06T08:48:49.999Z</time></trkpt><trkpt lat="37.59822312042665" lon="14.800277682906268"><ele>238.0</ele><time>2026-04-06T08:48:50.999Z</time></trkpt><trkpt lat="37.59821633746936" lon="14.800416159251736"><ele>238.0</ele><time>2026-04-06T08:48:51.999Z</time></trkpt><trkpt lat="37.59821201382251" lon="14.800548782336941"><ele>237.16666666666666</ele><time>2026-04-06T08:48:52.999Z</time></trkpt><trkpt lat="37.598210086856874" lon="14.800669840886288"><ele>236.33333333333331</ele><time>2026-04-06T08:48:53.999Z</time></trkpt><trkpt lat="37.598208643723694" lon="14.800767475351664"><ele>235.5</ele><time>2026-04-06T08:48:54.999Z</time></trkpt><trkpt lat="37.59821050899795" lon="14.800852708129018"><ele>234.66666666666669</ele><time>2026-04-06T08:48:55.999Z</time></trkpt><trkpt lat="37.59821116642674" lon="14.800952673524927"><ele>233.83333333333334</ele><time>2026-04-06T08:48:56.999Z</time></trkpt><trkpt lat="37.598204408831656" lon="14.801058776241607"><ele>233.0</ele><time>2026-04-06T08:48:57.999Z</time></trkpt><trkpt lat="37.59820416303024" lon="14.80117152113017"><ele>231.0</ele><time>2026-04-06T08:48:58.999Z</time></trkpt><trkpt lat="37.598198712544765" lon="14.801283889421907"><ele>229.0</ele><time>2026-04-06T08:48:59.999Z</time></trkpt><trkpt lat="37.59818409829557" lon="14.801417528979519"><ele>227.0</ele><time>2026-04-06T08:49:00.999Z</time></trkpt><trkpt lat="37.598166277898095" lon="14.801576523050814"><ele>225.0</ele><time>2026-04-06T08:49:01.999Z</time></trkpt><trkpt lat="37.59814557715314" lon="14.801748220414938"><ele>223.5</ele><time>2026-04-06T08:49:02.999Z</time></trkpt><trkpt lat="37.59811882172024" lon="14.801903122683667"><ele>222.0</ele><time>2026-04-06T08:49:03.999Z</time></trkpt><trkpt lat="37.59809238094028" lon="14.802057884730827"><ele>220.5</ele><time>2026-04-06T08:49:04.999Z</time></trkpt><trkpt lat="37.598068107149636" lon="14.802213463959752"><ele>219.0</ele><time>2026-04-06T08:49:05.999Z</time></trkpt><trkpt lat="37.598046584972266" lon="14.802361161850024"><ele>219.0</ele><time>2026-04-06T08:49:06.999Z</time></trkpt><trkpt lat="37.59801934224127" lon="14.802517215955097"><ele>219.0</ele><time>2026-04-06T08:49:07.999Z</time></trkpt><trkpt lat="37.59799163689121" lon="14.802665736144336"><ele>219.0</ele><time>2026-04-06T08:49:08.999Z</time></trkpt><trkpt lat="37.59796492727902" lon="14.802801645550039"><ele>219.0</ele><time>2026-04-06T08:49:09.999Z</time></trkpt><trkpt lat="37.597935255444035" lon="14.802929057863572"><ele>218.66666666666666</ele><time>2026-04-06T08:49:10.999Z</time></trkpt><trkpt lat="37.59790055218922" lon="14.803037288369822"><ele>218.33333333333331</ele><time>2026-04-06T08:49:12Z</time></trkpt><trkpt lat="37.597863938268105" lon="14.803136231893285"><ele>218.0</ele><time>2026-04-06T08:49:13Z</time></trkpt><trkpt lat="37.597834684463315" lon="14.803239622992857"><ele>217.66666666666666</ele><time>2026-04-06T08:49:14Z</time></trkpt><trkpt lat="37.5978166375458" lon="14.803336926642329"><ele>217.33333333333331</ele><time>2026-04-06T08:49:15Z</time></trkpt><trkpt lat="37.59780418198307" lon="14.803427424068381"><ele>217.0</ele><time>2026-04-06T08:49:16Z</time></trkpt><trkpt lat="37.597793667656575" lon="14.803518978758209"><ele>215.49999999999997</ele><time>2026-04-06T08:49:17Z</time></trkpt><trkpt lat="37.59778940912762" lon="14.803610879312554"><ele>214.0</ele><time>2026-04-06T08:49:18Z</time></trkpt><trkpt lat="37.59779469146241" lon="14.803700329053687"><ele>212.5</ele><time>2026-04-06T08:49:19Z</time></trkpt><trkpt lat="37.59779916147157" lon="14.803805686127223"><ele>211.0</ele><time>2026-04-06T08:49:20Z</time></trkpt><trkpt lat="37.59780841903331" lon="14.803938926502147"><ele>209.49999999999997</ele><time>2026-04-06T08:49:21Z</time></trkpt><trkpt lat="37.597810531086594" lon="14.804084963616932"><ele>208.0</ele><time>2026-04-06T08:49:22Z</time></trkpt><trkpt lat="37.59781420207713" lon="14.804210810769026"><ele>208.0</ele><time>2026-04-06T08:49:23Z</time></trkpt><trkpt lat="37.59782525350362" lon="14.804323254682737"><ele>208.0</ele><time>2026-04-06T08:49:24Z</time></trkpt><trkpt lat="37.597836709598084" lon="14.804416893613501"><ele>208.0</ele><time>2026-04-06T08:49:25Z</time></trkpt><trkpt lat="37.597839294654044" lon="14.804529529134388"><ele>208.0</ele><time>2026-04-06T08:49:26Z</time></trkpt><trkpt lat="37.59786072371704" lon="14.804620242313392"><ele>208.0</ele><time>2026-04-06T08:49:27Z</time></trkpt><trkpt lat="37.59784124596839" lon="14.804778880885845"><ele>207.28571428571428</ele><time>2026-04-06T08:49:29Z</time></trkpt><trkpt lat="37.59781615575051" lon="14.804856687305705"><ele>206.57142857142858</ele><time>2026-04-06T08:49:30Z</time></trkpt><trkpt lat="37.59777735869493" lon="14.804926763403543"><ele>205.85714285714286</ele><time>2026-04-06T08:49:31Z</time></trkpt><trkpt lat="37.597735305288765" lon="14.804990599328887"><ele>205.14285714285714</ele><time>2026-04-06T08:49:32Z</time></trkpt><trkpt lat="37.597709730205125" lon="14.805066965793586"><ele>204.42857142857144</ele><time>2026-04-06T08:49:33Z</time></trkpt><trkpt lat="37.597708414302936" lon="14.805148984070525"><ele>203.71428571428572</ele><time>2026-04-06T08:49:34Z</time></trkpt><trkpt lat="37.59771551929663" lon="14.805244924129875"><ele>203.0</ele><time>2026-04-06T08:49:35Z</time></trkpt><trkpt lat="37.59772905626073" lon="14.805362546391354"><ele>201.5</ele><time>2026-04-06T08:49:36Z</time></trkpt><trkpt lat="37.59774507407516" lon="14.805499787319302"><ele>200.0</ele><time>2026-04-06T08:49:37Z</time></trkpt><trkpt lat="37.59775667502355" lon="14.805658659395089"><ele>198.5</ele><time>2026-04-06T08:49:38Z</time></trkpt><trkpt lat="37.59777019456658" lon="14.805825576672744"><ele>197.0</ele><time>2026-04-06T08:49:39Z</time></trkpt><trkpt lat="37.59778165439657" lon="14.805965842043529"><ele>196.83333333333334</ele><time>2026-04-06T08:49:40Z</time></trkpt><trkpt lat="37.59778947916997" lon="14.806090659304882"><ele>196.66666666666669</ele><time>2026-04-06T08:49:41Z</time></trkpt><trkpt lat="37.59779663133533" lon="14.806203022857396"><ele>196.5</ele><time>2026-04-06T08:49:42Z</time></trkpt><trkpt lat="37.59781688844306" lon="14.806291954010714"><ele>196.33333333333331</ele><time>2026-04-06T08:49:43Z</time></trkpt><trkpt lat="37.59784931915678" lon="14.806361970295743"><ele>196.16666666666666</ele><time>2026-04-06T08:49:44Z</time></trkpt><trkpt lat="37.59790413235119" lon="14.806422358466811"><ele>196.0</ele><time>2026-04-06T08:49:45Z</time></trkpt><trkpt lat="37.59796889389" lon="14.80650486907867"><ele>196.0</ele><time>2026-04-06T08:49:46Z</time></trkpt><trkpt lat="37.59799093552676" lon="14.806634417591717"><ele>196.0</ele><time>2026-04-06T08:49:47Z</time></trkpt><trkpt lat="37.59802946084504" lon="14.806770843380578"><ele>196.0</ele><time>2026-04-06T08:49:48Z</time></trkpt><trkpt lat="37.59808470408278" lon="14.80691595102903"><ele>196.0</ele><time>2026-04-06T08:49:49Z</time></trkpt><trkpt lat="37.59811644075591" lon="14.807066420784649"><ele>195.4</ele><time>2026-04-06T08:49:50Z</time></trkpt><trkpt lat="37.598147316279494" lon="14.807198621617225"><ele>194.8</ele><time>2026-04-06T08:49:51Z</time></trkpt><trkpt lat="37.598173588771324" lon="14.807329851104393"><ele>194.20000000000002</ele><time>2026-04-06T08:49:52Z</time></trkpt><trkpt lat="37.598190649827906" lon="14.807458210742219"><ele>193.60000000000002</ele><time>2026-04-06T08:49:53Z</time></trkpt><trkpt lat="37.59820607952271" lon="14.807576474008295"><ele>193.0</ele><time>2026-04-06T08:49:54Z</time></trkpt><trkpt lat="37.59822492690761" lon="14.807694640836743"><ele>192.0</ele><time>2026-04-06T08:49:55Z</time></trkpt><trkpt lat="37.59824102820557" lon="14.807813766387323"><ele>191.0</ele><time>2026-04-06T08:49:56Z</time></trkpt><trkpt lat="37.598257471559954" lon="14.807953803002224"><ele>190.0</ele><time>2026-04-06T08:49:57Z</time></trkpt><trkpt lat="37.59827282878606" lon="14.808103273931954"><ele>189.0</ele><time>2026-04-06T08:49:58Z</time></trkpt><trkpt lat="37.598288713339784" lon="14.808258031449263"><ele>189.0</ele><time>2026-04-06T08:49:59Z</time></trkpt><trkpt lat="37.59830080911747" lon="14.808403645725617"><ele>189.0</ele><time>2026-04-06T08:50:00Z</time></trkpt><trkpt lat="37.59831609075444" lon="14.808546528848293"><ele>189.0</ele><time>2026-04-06T08:50:01Z</time></trkpt><trkpt lat="37.598327762347886" lon="14.80869539113201"><ele>189.0</ele><time>2026-04-06T08:50:02Z</time></trkpt><trkpt lat="37.598335963160146" lon="14.808824466592393"><ele>188.16666666666666</ele><time>2026-04-06T08:50:03Z</time></trkpt><trkpt lat="37.598344983316046" lon="14.808932215605077"><ele>187.33333333333334</ele><time>2026-04-06T08:50:04Z</time></trkpt><trkpt lat="37.598353890079046" lon="14.809033498567427"><ele>186.5</ele><time>2026-04-06T08:50:05Z</time></trkpt><trkpt lat="37.59836415159202" lon="14.809129120367878"><ele>185.66666666666669</ele><time>2026-04-06T08:50:06Z</time></trkpt><trkpt lat="37.598365661880706" lon="14.809223667736491"><ele>184.83333333333334</ele><time>2026-04-06T08:50:07Z</time></trkpt><trkpt lat="37.598372881691326" lon="14.809328108264255"><ele>184.0</ele><time>2026-04-06T08:50:08Z</time></trkpt><trkpt lat="37.59838945951172" lon="14.809432469693734"><ele>183.16666666666669</ele><time>2026-04-06T08:50:09Z</time></trkpt><trkpt lat="37.598409920009466" lon="14.809536802663212"><ele>182.33333333333334</ele><time>2026-04-06T08:50:10Z</time></trkpt><trkpt lat="37.59841605112742" lon="14.809628276030942"><ele>181.5</ele><time>2026-04-06T08:50:11Z</time></trkpt><trkpt lat="37.59842651815519" lon="14.809717526730205"><ele>180.66666666666666</ele><time>2026-04-06T08:50:12Z</time></trkpt><trkpt lat="37.59843655346564" lon="14.809812617433067"><ele>179.83333333333331</ele><time>2026-04-06T08:50:13Z</time></trkpt><trkpt lat="37.59844053243858" lon="14.809939509178864"><ele>179.0</ele><time>2026-04-06T08:50:15Z</time></trkpt><trkpt lat="37.59845871415416" lon="14.810037443805582"><ele>179.0</ele><time>2026-04-06T08:51:26Z</time></trkpt><trkpt lat="37.598464988958824" lon="14.810146470051242"><ele>179.0</ele><time>2026-04-06T08:51:28Z</time></trkpt><trkpt lat="37.59845145166941" lon="14.810242977919096"><ele>179.0</ele><time>2026-04-06T08:51:30Z</time></trkpt><trkpt lat="37.59839393458375" lon="14.810374190684994"><ele>179.0</ele><time>2026-04-06T08:51:32Z</time></trkpt><trkpt lat="37.59826876998256" lon="14.81064137794725"><ele>177.75</ele><time>2026-04-06T08:51:33Z</time></trkpt><trkpt lat="37.59820564462947" lon="14.810760687372388"><ele>176.5</ele><time>2026-04-06T08:51:34Z</time></trkpt><trkpt lat="37.59813993703531" lon="14.810907905954386"><ele>175.25</ele><time>2026-04-06T08:51:35Z</time></trkpt><trkpt lat="37.598085133857175" lon="14.811039966772597"><ele>174.0</ele><time>2026-04-06T08:51:36Z</time></trkpt><trkpt lat="37.59803796766735" lon="14.811159281545875"><ele>173.2</ele><time>2026-04-06T08:51:37Z</time></trkpt><trkpt lat="37.598005137847615" lon="14.811285668039545"><ele>172.39999999999998</ele><time>2026-04-06T08:51:38Z</time></trkpt><trkpt lat="37.59797945253329" lon="14.811414596413025"><ele>171.6</ele><time>2026-04-06T08:51:39Z</time></trkpt><trkpt lat="37.597964203953616" lon="14.811544571853387"><ele>170.8</ele><time>2026-04-06T08:51:40Z</time></trkpt><trkpt lat="37.59795851078197" lon="14.81167668703535"><ele>170.0</ele><time>2026-04-06T08:51:41Z</time></trkpt><trkpt lat="37.59795954057369" lon="14.81179972381904"><ele>168.0</ele><time>2026-04-06T08:51:42Z</time></trkpt><trkpt lat="37.597958843877024" lon="14.811939767521539"><ele>166.0</ele><time>2026-04-06T08:51:43Z</time></trkpt><trkpt lat="37.5979619522128" lon="14.812100845904379"><ele>164.0</ele><time>2026-04-06T08:51:44Z</time></trkpt><trkpt lat="37.597969691014995" lon="14.812257694875413"><ele>162.0</ele><time>2026-04-06T08:51:45Z</time></trkpt><trkpt lat="37.59797421093746" lon="14.812411214027462"><ele>162.0</ele><time>2026-04-06T08:51:46Z</time></trkpt><trkpt lat="37.597988302386995" lon="14.812556529470292"><ele>162.0</ele><time>2026-04-06T08:51:47Z</time></trkpt><trkpt lat="37.59802226338187" lon="14.812690359582595"><ele>162.0</ele><time>2026-04-06T08:51:48Z</time></trkpt><trkpt lat="37.598053262437226" lon="14.812810586930208"><ele>162.0</ele><time>2026-04-06T08:51:49Z</time></trkpt><trkpt lat="37.598079369168765" lon="14.812929820465286"><ele>162.0</ele><time>2026-04-06T08:51:50Z</time></trkpt><trkpt lat="37.5981102007959" lon="14.813043201962577"><ele>160.66666666666666</ele><time>2026-04-06T08:51:51Z</time></trkpt><trkpt lat="37.59812987817866" lon="14.813150120833056"><ele>159.33333333333334</ele><time>2026-04-06T08:51:52Z</time></trkpt><trkpt lat="37.59816411593729" lon="14.813248465757074"><ele>158.0</ele><time>2026-04-06T08:51:53Z</time></trkpt><trkpt lat="37.598219102920325" lon="14.813328415468042"><ele>156.66666666666669</ele><time>2026-04-06T08:51:54Z</time></trkpt><trkpt lat="37.59828995741003" lon="14.813380122311965"><ele>155.33333333333334</ele><time>2026-04-06T08:51:55Z</time></trkpt><trkpt lat="37.59838106382326" lon="14.813393392540542"><ele>154.0</ele><time>2026-04-06T08:51:56Z</time></trkpt><trkpt lat="37.598455062557704" lon="14.813451600104772"><ele>153.33333333333334</ele><time>2026-04-06T08:51:57Z</time></trkpt><trkpt lat="37.598521859224306" lon="14.813517769119734"><ele>152.66666666666669</ele><time>2026-04-06T08:51:58Z</time></trkpt><trkpt lat="37.59858550775934" lon="14.813599063557014"><ele>152.0</ele><time>2026-04-06T08:51:59Z</time></trkpt><trkpt lat="37.59863487110364" lon="14.81367674909491"><ele>151.33333333333334</ele><time>2026-04-06T08:52:00Z</time></trkpt><trkpt lat="37.59867719705959" lon="14.813766614850243"><ele>150.66666666666666</ele><time>2026-04-06T08:52:01Z</time></trkpt><trkpt lat="37.598707537348076" lon="14.813865967157009"><ele>150.0</ele><time>2026-04-06T08:52:02Z</time></trkpt><trkpt lat="37.59874030924321" lon="14.813975317434442"><ele>149.83333333333334</ele><time>2026-04-06T08:52:03Z</time></trkpt><trkpt lat="37.598780867350094" lon="14.814084934209008"><ele>149.66666666666666</ele><time>2026-04-06T08:52:04Z</time></trkpt><trkpt lat="37.598820263064596" lon="14.814183629103972"><ele>149.5</ele><time>2026-04-06T08:52:05Z</time></trkpt><trkpt lat="37.598861985060225" lon="14.814274284874802"><ele>149.33333333333331</ele><time>2026-04-06T08:52:06Z</time></trkpt><trkpt lat="37.598907147791685" lon="14.814349428529757"><ele>149.16666666666666</ele><time>2026-04-06T08:52:07Z</time></trkpt><trkpt lat="37.59895705868304" lon="14.814420557454639"><ele>149.0</ele><time>2026-04-06T08:52:08Z</time></trkpt><trkpt lat="37.59897963196642" lon="14.81452043562407"><ele>148.0</ele><time>2026-04-06T08:52:10Z</time></trkpt><trkpt lat="37.59889805304632" lon="14.814547315616977"><ele>147.0</ele><time>2026-04-06T08:52:12Z</time></trkpt><trkpt lat="37.59886344851017" lon="14.81461559429819"><ele>146.0</ele><time>2026-04-06T08:52:13Z</time></trkpt><trkpt lat="37.598775162479434" lon="14.814665447649187"><ele>145.0</ele><time>2026-04-06T08:52:14Z</time></trkpt><trkpt lat="37.59869156424029" lon="14.814749894601102"><ele>144.0</ele><time>2026-04-06T08:52:15Z</time></trkpt><trkpt lat="37.59860320148823" lon="14.814865463597524"><ele>144.0</ele><time>2026-04-06T08:52:16Z</time></trkpt><trkpt lat="37.598507892426994" lon="14.814986234519681"><ele>144.0</ele><time>2026-04-06T08:52:17Z</time></trkpt><trkpt lat="37.59840640508726" lon="14.815080896258292"><ele>144.0</ele><time>2026-04-06T08:52:18Z</time></trkpt><trkpt lat="37.59830992806211" lon="14.81515496464962"><ele>144.0</ele><time>2026-04-06T08:52:19Z</time></trkpt><trkpt lat="37.59821873041787" lon="14.815199842778894"><ele>144.0</ele><time>2026-04-06T08:52:19.999Z</time></trkpt><trkpt lat="37.598127442663404" lon="14.815209214874226"><ele>144.0</ele><time>2026-04-06T08:52:20.999Z</time></trkpt><trkpt lat="37.598039514473726" lon="14.815160210708848"><ele>144.0</ele><time>2026-04-06T08:52:21.999Z</time></trkpt><trkpt lat="37.59796343121116" lon="14.815089292501458"><ele>144.0</ele><time>2026-04-06T08:52:22.999Z</time></trkpt><trkpt lat="37.59789336827685" lon="14.814992101707068"><ele>144.0</ele><time>2026-04-06T08:52:23.999Z</time></trkpt><trkpt lat="37.597805836073604" lon="14.814884936007184"><ele>142.0</ele><time>2026-04-06T08:52:24.999Z</time></trkpt><trkpt lat="37.597707897931" lon="14.81476503031653"><ele>140.0</ele><time>2026-04-06T08:52:25.999Z</time></trkpt><trkpt lat="37.59759441793931" lon="14.814641475871051"><ele>138.0</ele><time>2026-04-06T08:52:26.999Z</time></trkpt><trkpt lat="37.59747774503388" lon="14.814510224608892"><ele>136.0</ele><time>2026-04-06T08:52:27.999Z</time></trkpt><trkpt lat="37.597363665074" lon="14.814369542302963"><ele>136.0</ele><time>2026-04-06T08:52:28.999Z</time></trkpt><trkpt lat="37.597248789421705" lon="14.814233900186863"><ele>136.0</ele><time>2026-04-06T08:52:29.999Z</time></trkpt><trkpt lat="37.597147944358674" lon="14.814113275257268"><ele>136.0</ele><time>2026-04-06T08:52:30.999Z</time></trkpt><trkpt lat="37.5970522154332" lon="14.814001592999187"><ele>136.0</ele><time>2026-04-06T08:52:31.999Z</time></trkpt><trkpt lat="37.59695238193617" lon="14.813890420504974"><ele>136.0</ele><time>2026-04-06T08:52:32.999Z</time></trkpt><trkpt lat="37.596841987900355" lon="14.813786397665309"><ele>136.0</ele><time>2026-04-06T08:52:33.999Z</time></trkpt><trkpt lat="37.596720971106464" lon="14.813688769487761"><ele>136.0</ele><time>2026-04-06T08:52:34.999Z</time></trkpt><trkpt lat="37.596590493249316" lon="14.813587738002909"><ele>136.0</ele><time>2026-04-06T08:52:35.999Z</time></trkpt><trkpt lat="37.596466578191084" lon="14.813499429852296"><ele>136.5</ele><time>2026-04-06T08:52:36.999Z</time></trkpt><trkpt lat="37.59634463697124" lon="14.813423534046942"><ele>137.0</ele><time>2026-04-06T08:52:37.999Z</time></trkpt><trkpt lat="37.59621170683932" lon="14.81335199777646"><ele>137.5</ele><time>2026-04-06T08:52:38.999Z</time></trkpt><trkpt lat="37.59607508090967" lon="14.813286612225948"><ele>138.0</ele><time>2026-04-06T08:52:39.999Z</time></trkpt><trkpt lat="37.59593506876709" lon="14.813230634546606"><ele>138.0</ele><time>2026-04-06T08:52:40.999Z</time></trkpt><trkpt lat="37.59579576784055" lon="14.813181325045358"><ele>138.0</ele><time>2026-04-06T08:52:41.999Z</time></trkpt><trkpt lat="37.59565236099265" lon="14.81314053118292"><ele>138.0</ele><time>2026-04-06T08:52:42.999Z</time></trkpt><trkpt lat="37.59551453631072" lon="14.813114336851934"><ele>138.0</ele><time>2026-04-06T08:52:43.999Z</time></trkpt><trkpt lat="37.59539165203407" lon="14.813097589189862"><ele>137.75</ele><time>2026-04-06T08:52:44.999Z</time></trkpt><trkpt lat="37.59527881016273" lon="14.813066859731174"><ele>137.5</ele><time>2026-04-06T08:52:45.999Z</time></trkpt><trkpt lat="37.595173210397" lon="14.81302292872866"><ele>137.25</ele><time>2026-04-06T08:52:46.999Z</time></trkpt><trkpt lat="37.59507420142874" lon="14.812960082652591"><ele>137.0</ele><time>2026-04-06T08:52:47.999Z</time></trkpt><trkpt lat="37.59497839618647" lon="14.81287579120645"><ele>137.0</ele><time>2026-04-06T08:52:48.999Z</time></trkpt><trkpt lat="37.59488221981198" lon="14.812776455076078"><ele>137.0</ele><time>2026-04-06T08:52:49.999Z</time></trkpt><trkpt lat="37.59478874933798" lon="14.812674749962856"><ele>137.0</ele><time>2026-04-06T08:52:50.999Z</time></trkpt><trkpt lat="37.59470365694271" lon="14.812576891120978"><ele>137.0</ele><time>2026-04-06T08:52:51.999Z</time></trkpt><trkpt lat="37.59462767569476" lon="14.81248072972789"><ele>137.4</ele><time>2026-04-06T08:52:52.999Z</time></trkpt><trkpt lat="37.594557156156036" lon="14.81240868786816"><ele>137.79999999999998</ele><time>2026-04-06T08:52:53.999Z</time></trkpt><trkpt lat="37.59448586405735" lon="14.812380066920591"><ele>138.2</ele><time>2026-04-06T08:52:54.999Z</time></trkpt><trkpt lat="37.59441157564317" lon="14.812383763194884"><ele>138.6</ele><time>2026-04-06T08:52:55.999Z</time></trkpt><trkpt lat="37.594309841503524" lon="14.812399728028145"><ele>139.0</ele><time>2026-04-06T08:52:57.999Z</time></trkpt><trkpt lat="37.594286029896736" lon="14.812228125881296"><ele>139.0</ele><time>2026-04-06T08:53:00.999Z</time></trkpt><trkpt lat="37.59428099806185" lon="14.812124039071497"><ele>139.0</ele><time>2026-04-06T08:53:01.999Z</time></trkpt><trkpt lat="37.59427714547713" lon="14.812001245040868"><ele>139.0</ele><time>2026-04-06T08:53:02.999Z</time></trkpt><trkpt lat="37.594255901338144" lon="14.81186229817281"><ele>139.0</ele><time>2026-04-06T08:53:03.999Z</time></trkpt><trkpt lat="37.594242775654024" lon="14.811721432731527"><ele>139.0</ele><time>2026-04-06T08:53:04.999Z</time></trkpt><trkpt lat="37.59422798202181" lon="14.811586604998359"><ele>140.2</ele><time>2026-04-06T08:53:05.999Z</time></trkpt><trkpt lat="37.59423211778029" lon="14.811427513124716"><ele>141.4</ele><time>2026-04-06T08:53:06.999Z</time></trkpt><trkpt lat="37.59422339102207" lon="14.811282386007617"><ele>142.6</ele><time>2026-04-06T08:53:07.999Z</time></trkpt><trkpt lat="37.59420728152095" lon="14.81115206017532"><ele>143.8</ele><time>2026-04-06T08:53:08.999Z</time></trkpt><trkpt lat="37.59417515533862" lon="14.811046681473956"><ele>145.0</ele><time>2026-04-06T08:53:09.999Z</time></trkpt><trkpt lat="37.59411914896541" lon="14.81094008824344"><ele>146.16666666666669</ele><time>2026-04-06T08:53:10.999Z</time></trkpt><trkpt lat="37.594062879885485" lon="14.810846747737456"><ele>147.33333333333334</ele><time>2026-04-06T08:53:11.999Z</time></trkpt><trkpt lat="37.5940215246429" lon="14.810767833908143"><ele>148.5</ele><time>2026-04-06T08:53:12.999Z</time></trkpt><trkpt lat="37.59398563517605" lon="14.810682484509782"><ele>149.66666666666666</ele><time>2026-04-06T08:53:13.999Z</time></trkpt><trkpt lat="37.59397016950035" lon="14.810588784638616"><ele>150.83333333333331</ele><time>2026-04-06T08:53:14.999Z</time></trkpt><trkpt lat="37.593968625350584" lon="14.810478653838828"><ele>152.0</ele><time>2026-04-06T08:53:15.999Z</time></trkpt><trkpt lat="37.5940017930286" lon="14.810370890081295"><ele>152.0</ele><time>2026-04-06T08:53:16.999Z</time></trkpt><trkpt lat="37.59403693224488" lon="14.81026628906929"><ele>152.0</ele><time>2026-04-06T08:53:17.999Z</time></trkpt><trkpt lat="37.59404692290913" lon="14.810145977305227"><ele>152.0</ele><time>2026-04-06T08:53:18.999Z</time></trkpt><trkpt lat="37.59407781990453" lon="14.810025026916893"><ele>152.0</ele><time>2026-04-06T08:53:19.999Z</time></trkpt><trkpt lat="37.594100460404896" lon="14.809914625162492"><ele>152.0</ele><time>2026-04-06T08:53:20.999Z</time></trkpt><trkpt lat="37.59411646325472" lon="14.809797799949788"><ele>153.5</ele><time>2026-04-06T08:53:21.999Z</time></trkpt><trkpt lat="37.59412216311521" lon="14.809667304562609"><ele>155.0</ele><time>2026-04-06T08:53:22.999Z</time></trkpt><trkpt lat="37.59413179825129" lon="14.809529243766441"><ele>156.5</ele><time>2026-04-06T08:53:24Z</time></trkpt><trkpt lat="37.5941508765488" lon="14.809376449223786"><ele>158.0</ele><time>2026-04-06T08:53:25Z</time></trkpt><trkpt lat="37.594171435241655" lon="14.809220479880961"><ele>159.66666666666666</ele><time>2026-04-06T08:53:26Z</time></trkpt><trkpt lat="37.59419201461163" lon="14.809071629501174"><ele>161.33333333333331</ele><time>2026-04-06T08:53:27Z</time></trkpt><trkpt lat="37.59419212797628" lon="14.808947255944036"><ele>163.0</ele><time>2026-04-06T08:53:28Z</time></trkpt><trkpt lat="37.59420543288376" lon="14.80885249737178"><ele>164.66666666666666</ele><time>2026-04-06T08:53:29Z</time></trkpt><trkpt lat="37.59419601412003" lon="14.808766999145533"><ele>166.33333333333334</ele><time>2026-04-06T08:53:30Z</time></trkpt><trkpt lat="37.59415916977454" lon="14.808700694613647"><ele>168.0</ele><time>2026-04-06T08:53:31Z</time></trkpt><trkpt lat="37.59410537860204" lon="14.80863661919395"><ele>168.0</ele><time>2026-04-06T08:53:32Z</time></trkpt><trkpt lat="37.59403822703698" lon="14.808582469290021"><ele>168.0</ele><time>2026-04-06T08:53:33Z</time></trkpt><trkpt lat="37.593979515350526" lon="14.808490978778233"><ele>168.0</ele><time>2026-04-06T08:53:34Z</time></trkpt><trkpt lat="37.593909829525295" lon="14.808407159499057"><ele>168.0</ele><time>2026-04-06T08:53:35Z</time></trkpt><trkpt lat="37.59383067033925" lon="14.808348971240418"><ele>168.0</ele><time>2026-04-06T08:53:36Z</time></trkpt><trkpt lat="37.59377966730737" lon="14.808274137735118"><ele>168.0</ele><time>2026-04-06T08:53:37Z</time></trkpt><trkpt lat="37.59377238535008" lon="14.808152999592565"><ele>169.4</ele><time>2026-04-06T08:53:38Z</time></trkpt><trkpt lat="37.59371678315252" lon="14.808044734383524"><ele>170.8</ele><time>2026-04-06T08:53:39Z</time></trkpt><trkpt lat="37.593670633084855" lon="14.807911824264725"><ele>172.2</ele><time>2026-04-06T08:53:40Z</time></trkpt><trkpt lat="37.59361693589799" lon="14.80781454071674"><ele>173.6</ele><time>2026-04-06T08:53:41Z</time></trkpt><trkpt lat="37.593565978853675" lon="14.807736223017514"><ele>175.0</ele><time>2026-04-06T08:53:42Z</time></trkpt><trkpt lat="37.59349408837103" lon="14.807676607706561"><ele>176.6</ele><time>2026-04-06T08:53:43Z</time></trkpt><trkpt lat="37.59341419787826" lon="14.80762169848548"><ele>178.2</ele><time>2026-04-06T08:53:44Z</time></trkpt><trkpt lat="37.59332667441447" lon="14.807565427346947"><ele>179.8</ele><time>2026-04-06T08:53:45Z</time></trkpt><trkpt lat="37.593263044532605" lon="14.807489342524294"><ele>181.4</ele><time>2026-04-06T08:53:46Z</time></trkpt><trkpt lat="37.593224548577815" lon="14.807418104782515"><ele>183.0</ele><time>2026-04-06T08:53:47Z</time></trkpt><trkpt lat="37.593192100341085" lon="14.807265031065509"><ele>183.0</ele><time>2026-04-06T08:53:49Z</time></trkpt><trkpt lat="37.59316081028875" lon="14.807177573016903"><ele>183.0</ele><time>2026-04-06T08:53:50Z</time></trkpt><trkpt lat="37.593111192263535" lon="14.807117849704207"><ele>183.0</ele><time>2026-04-06T08:53:51Z</time></trkpt><trkpt lat="37.593016097417824" lon="14.807113366510164"><ele>183.0</ele><time>2026-04-06T08:53:52Z</time></trkpt><trkpt lat="37.59292387532797" lon="14.807106921386726"><ele>183.0</ele><time>2026-04-06T08:53:53Z</time></trkpt><trkpt lat="37.59283837848067" lon="14.807061739489857"><ele>183.0</ele><time>2026-04-06T08:53:54Z</time></trkpt><trkpt lat="37.59273791692518" lon="14.807028023171679"><ele>183.4</ele><time>2026-04-06T08:53:55Z</time></trkpt><trkpt lat="37.59262732617198" lon="14.80700916007033"><ele>183.8</ele><time>2026-04-06T08:53:56Z</time></trkpt><trkpt lat="37.5925142149903" lon="14.806967499848222"><ele>184.2</ele><time>2026-04-06T08:53:57Z</time></trkpt><trkpt lat="37.592405845288525" lon="14.80694897861551"><ele>184.6</ele><time>2026-04-06T08:53:58Z</time></trkpt><trkpt lat="37.59230754736312" lon="14.806946134290959"><ele>185.0</ele><time>2026-04-06T08:53:59Z</time></trkpt><trkpt lat="37.59223227862859" lon="14.806924299455623"><ele>185.0</ele><time>2026-04-06T08:54:00Z</time></trkpt><trkpt lat="37.59216512670919" lon="14.806872387387166"><ele>185.0</ele><time>2026-04-06T08:54:01Z</time></trkpt><trkpt lat="37.59208700094518" lon="14.806793918827575"><ele>185.0</ele><time>2026-04-06T08:54:02Z</time></trkpt><trkpt lat="37.59200995054413" lon="14.80670514321067"><ele>185.0</ele><time>2026-04-06T08:54:03Z</time></trkpt><trkpt lat="37.59195093760156" lon="14.806623981470898"><ele>185.0</ele><time>2026-04-06T08:54:04Z</time></trkpt><trkpt lat="37.59190776815761" lon="14.806547169389967"><ele>185.0</ele><time>2026-04-06T08:54:05Z</time></trkpt><trkpt lat="37.59189534232308" lon="14.806443282674547"><ele>188.2</ele><time>2026-04-06T08:54:06Z</time></trkpt><trkpt lat="37.59186399134897" lon="14.806329020747466"><ele>191.4</ele><time>2026-04-06T08:54:07Z</time></trkpt><trkpt lat="37.59183388011015" lon="14.806212592419344"><ele>194.60000000000002</ele><time>2026-04-06T08:54:08Z</time></trkpt><trkpt lat="37.59178884118247" lon="14.806077831630956"><ele>197.8</ele><time>2026-04-06T08:54:09Z</time></trkpt><trkpt lat="37.591766057232824" lon="14.805957748133848"><ele>201.0</ele><time>2026-04-06T08:54:10Z</time></trkpt><trkpt lat="37.59173775695374" lon="14.805833442918933"><ele>202.33333333333334</ele><time>2026-04-06T08:54:11Z</time></trkpt><trkpt lat="37.59171196675938" lon="14.805729549884672"><ele>203.66666666666669</ele><time>2026-04-06T08:54:12Z</time></trkpt><trkpt lat="37.59167358421303" lon="14.80563158813096"><ele>205.0</ele><time>2026-04-06T08:54:13Z</time></trkpt><trkpt lat="37.59162367166866" lon="14.805534491591217"><ele>206.33333333333334</ele><time>2026-04-06T08:54:14Z</time></trkpt><trkpt lat="37.591596160265794" lon="14.805439188939898"><ele>207.66666666666669</ele><time>2026-04-06T08:54:15Z</time></trkpt><trkpt lat="37.5915495690559" lon="14.805363424370663"><ele>209.0</ele><time>2026-04-06T08:54:16Z</time></trkpt><trkpt lat="37.59153568803428" lon="14.805265739675395"><ele>209.0</ele><time>2026-04-06T08:54:17Z</time></trkpt><trkpt lat="37.591599342840325" lon="14.805190827740544"><ele>209.0</ele><time>2026-04-06T08:54:18Z</time></trkpt><trkpt lat="37.59163991224003" lon="14.805094029376168"><ele>209.0</ele><time>2026-04-06T08:54:19Z</time></trkpt><trkpt lat="37.59169766993212" lon="14.804995779248577"><ele>209.0</ele><time>2026-04-06T08:54:20Z</time></trkpt><trkpt lat="37.59175760735945" lon="14.80489878286044"><ele>209.0</ele><time>2026-04-06T08:54:21Z</time></trkpt><trkpt lat="37.59182442168042" lon="14.804800919506535"><ele>208.83333333333334</ele><time>2026-04-06T08:54:22Z</time></trkpt><trkpt lat="37.59188056979683" lon="14.804697669645495"><ele>208.66666666666669</ele><time>2026-04-06T08:54:23Z</time></trkpt><trkpt lat="37.59192098102083" lon="14.80459007714518"><ele>208.5</ele><time>2026-04-06T08:54:24Z</time></trkpt><trkpt lat="37.591961864188136" lon="14.804508518009843"><ele>208.33333333333331</ele><time>2026-04-06T08:54:25Z</time></trkpt><trkpt lat="37.591988466748084" lon="14.80442376002711"><ele>208.16666666666666</ele><time>2026-04-06T08:54:26Z</time></trkpt><trkpt lat="37.592035749131725" lon="14.804341331943533"><ele>208.0</ele><time>2026-04-06T08:54:27Z</time></trkpt><trkpt lat="37.59208235711854" lon="14.804247922873465"><ele>209.33333333333331</ele><time>2026-04-06T08:54:28Z</time></trkpt><trkpt lat="37.59211980055527" lon="14.804158532753656"><ele>210.66666666666666</ele><time>2026-04-06T08:54:29Z</time></trkpt><trkpt lat="37.592144175004606" lon="14.804077906803283"><ele>212.0</ele><time>2026-04-06T08:54:29.999Z</time></trkpt><trkpt lat="37.59218882464677" lon="14.803928831587873"><ele>213.33333333333331</ele><time>2026-04-06T08:54:31.999Z</time></trkpt><trkpt lat="37.59219748125215" lon="14.803841981828269"><ele>214.66666666666666</ele><time>2026-04-06T08:54:32.999Z</time></trkpt><trkpt lat="37.592199484446965" lon="14.803752030140599"><ele>216.0</ele><time>2026-04-06T08:54:33.999Z</time></trkpt><trkpt lat="37.592216667736274" lon="14.803651397654582"><ele>216.0</ele><time>2026-04-06T08:54:34.999Z</time></trkpt><trkpt lat="37.592197346137766" lon="14.8035410142701"><ele>216.0</ele><time>2026-04-06T08:54:35.999Z</time></trkpt><trkpt lat="37.59220924260632" lon="14.803434045867599"><ele>216.0</ele><time>2026-04-06T08:54:36.999Z</time></trkpt><trkpt lat="37.59219718351576" lon="14.803320300674073"><ele>216.0</ele><time>2026-04-06T08:54:37.999Z</time></trkpt><trkpt lat="37.59219156630367" lon="14.803202673301678"><ele>216.0</ele><time>2026-04-06T08:54:38.999Z</time></trkpt><trkpt lat="37.59219280366992" lon="14.803089345054108"><ele>216.0</ele><time>2026-04-06T08:54:39.999Z</time></trkpt><trkpt lat="37.592196507627364" lon="14.802974730783161"><ele>216.66666666666666</ele><time>2026-04-06T08:54:40.999Z</time></trkpt><trkpt lat="37.59220335355651" lon="14.802853610195934"><ele>217.33333333333331</ele><time>2026-04-06T08:54:41.999Z</time></trkpt><trkpt lat="37.592211038018085" lon="14.802770679435037"><ele>218.0</ele><time>2026-04-06T08:54:42.999Z</time></trkpt><trkpt lat="37.59222705086821" lon="14.802668561667263"><ele>218.66666666666666</ele><time>2026-04-06T08:54:43.999Z</time></trkpt><trkpt lat="37.5922199127519" lon="14.802558538761513"><ele>219.33333333333331</ele><time>2026-04-06T08:54:44.999Z</time></trkpt><trkpt lat="37.59222577615446" lon="14.802458915055897"><ele>220.0</ele><time>2026-04-06T08:54:45.999Z</time></trkpt><trkpt lat="37.592243980209716" lon="14.80237616621452"><ele>221.0</ele><time>2026-04-06T08:54:46.999Z</time></trkpt><trkpt lat="37.59225677124115" lon="14.80227313386851"><ele>222.0</ele><time>2026-04-06T08:54:48.999Z</time></trkpt><trkpt lat="37.592122098866824" lon="14.80224919239311"><ele>223.0</ele><time>2026-04-06T08:54:51.999Z</time></trkpt><trkpt lat="37.59204099278941" lon="14.802335674324306"><ele>224.0</ele><time>2026-04-06T08:54:53.999Z</time></trkpt><trkpt lat="37.59195934322986" lon="14.802412168110953"><ele>225.0</ele><time>2026-04-06T08:54:55.999Z</time></trkpt><trkpt lat="37.59187908031896" lon="14.802440884988176"><ele>225.00000000000003</ele><time>2026-04-06T08:54:57.999Z</time></trkpt><trkpt lat="37.59181114291547" lon="14.802486477985923"><ele>225.0</ele><time>2026-04-06T08:54:59.999Z</time></trkpt><trkpt lat="37.59176884910119" lon="14.802549029588445"><ele>225.00000000000003</ele><time>2026-04-06T08:55:01.999Z</time></trkpt><trkpt lat="37.591755117746466" lon="14.802647248875301"><ele>225.00000000000003</ele><time>2026-04-06T08:55:03.999Z</time></trkpt><trkpt lat="37.59177582786846" lon="14.80275416177235"><ele>225.0</ele><time>2026-04-06T08:55:05.999Z</time></trkpt><trkpt lat="37.59176886898508" lon="14.802849952187076"><ele>225.00000000000003</ele><time>2026-04-06T08:55:07.999Z</time></trkpt><trkpt lat="37.59174774327222" lon="14.802925500949035"><ele>225.00000000000003</ele><time>2026-04-06T08:55:09.999Z</time></trkpt><trkpt lat="37.5917154683692" lon="14.803003083684263"><ele>226.8571428571429</ele><time>2026-04-06T08:55:11.999Z</time></trkpt><trkpt lat="37.59167417216055" lon="14.803072812917486"><ele>228.71428571428572</ele><time>2026-04-06T08:55:13.999Z</time></trkpt><trkpt lat="37.59162111736171" lon="14.803123463015307"><ele>230.57142857142858</ele><time>2026-04-06T08:55:17.999Z</time></trkpt><trkpt lat="37.591568077122986" lon="14.803169379524672"><ele>232.42857142857144</ele><time>2026-04-06T08:55:38Z</time></trkpt><trkpt lat="37.591532942713364" lon="14.803246333188502"><ele>234.28571428571428</ele><time>2026-04-06T08:55:43Z</time></trkpt><trkpt lat="37.59146922556304" lon="14.803295471625862"><ele>236.14285714285714</ele><time>2026-04-06T08:55:49Z</time></trkpt><trkpt lat="37.59140635098309" lon="14.80334312957974"><ele>238.0</ele><time>2026-04-06T08:55:56Z</time></trkpt><trkpt lat="37.59134318400829" lon="14.803367616318917"><ele>238.0</ele><time>2026-04-06T08:56:01Z</time></trkpt><trkpt lat="37.59129057581947" lon="14.803423784113983"><ele>238.0</ele><time>2026-04-06T08:56:12Z</time></trkpt><trkpt lat="37.59125089754473" lon="14.803485740641323"><ele>238.0</ele><time>2026-04-06T08:56:19Z</time></trkpt><trkpt lat="37.5913023960324" lon="14.803428443860236"><ele>238.0</ele><time>2026-04-06T08:58:03Z</time></trkpt><trkpt lat="37.59135036350953" lon="14.803375145144622"><ele>238.0</ele><time>2026-04-06T08:58:32.999Z</time></trkpt><trkpt lat="37.59140595977448" lon="14.803336655090403"><ele>238.0</ele><time>2026-04-06T08:58:37.999Z</time></trkpt><trkpt lat="37.59147453584824" lon="14.80329573559692"><ele>238.0</ele><time>2026-04-06T08:58:44.999Z</time></trkpt><trkpt lat="37.5915388632416" lon="14.803263258493507"><ele>238.0</ele><time>2026-04-06T08:58:51.999Z</time></trkpt><trkpt lat="37.59158686421266" lon="14.803190139872717"><ele>238.0</ele><time>2026-04-06T08:58:58.999Z</time></trkpt><trkpt lat="37.59164529854927" lon="14.803156254577678"><ele>238.0</ele><time>2026-04-06T08:59:12.999Z</time></trkpt><trkpt lat="37.591714683124586" lon="14.80313164510156"><ele>238.0</ele><time>2026-04-06T08:59:18.999Z</time></trkpt><trkpt lat="37.5917793464934" lon="14.803146882009882"><ele>238.0</ele><time>2026-04-06T08:59:24.999Z</time></trkpt><trkpt lat="37.591839600707026" lon="14.80319292515063"><ele>238.0</ele><time>2026-04-06T08:59:32.999Z</time></trkpt><trkpt lat="37.5917751328175" lon="14.803163478255595"><ele>238.0</ele><time>2026-04-06T08:59:55.999Z</time></trkpt><trkpt lat="37.591704470853216" lon="14.803152956294893"><ele>237.99999999999997</ele><time>2026-04-06T09:00:03.999Z</time></trkpt><trkpt lat="37.59170355039868" lon="14.803019418504737"><ele>238.0</ele><time>2026-04-06T09:01:23.999Z</time></trkpt><trkpt lat="37.59174741362373" lon="14.802958018026207"><ele>238.0</ele><time>2026-04-06T09:01:27.999Z</time></trkpt><trkpt lat="37.591768787701234" lon="14.802843756361426"><ele>238.0</ele><time>2026-04-06T09:01:31.999Z</time></trkpt><trkpt lat="37.59177807040378" lon="14.802752071828396"><ele>237.99999999999997</ele><time>2026-04-06T09:01:33.999Z</time></trkpt><trkpt lat="37.59176255441509" lon="14.802655300345736"><ele>238.0</ele><time>2026-04-06T09:01:35.999Z</time></trkpt><trkpt lat="37.59176326313325" lon="14.802559387752995"><ele>236.28571428571428</ele><time>2026-04-06T09:01:37.999Z</time></trkpt><trkpt lat="37.591808832597685" lon="14.802498823949996"><ele>234.57142857142856</ele><time>2026-04-06T09:01:39.999Z</time></trkpt><trkpt lat="37.59187163773407" lon="14.802458022563444"><ele>232.85714285714286</ele><time>2026-04-06T09:01:41.999Z</time></trkpt><trkpt lat="37.591940696283196" lon="14.802425208632194"><ele>231.14285714285714</ele><time>2026-04-06T09:01:43.999Z</time></trkpt><trkpt lat="37.592011967161206" lon="14.80237648834593"><ele>229.42857142857142</ele><time>2026-04-06T09:01:45.999Z</time></trkpt><trkpt lat="37.59207992046316" lon="14.80231974501049"><ele>227.71428571428572</ele><time>2026-04-06T09:01:47.999Z</time></trkpt><trkpt lat="37.59213281954856" lon="14.802270944891006"><ele>226.0</ele><time>2026-04-06T09:01:49.999Z</time></trkpt><trkpt lat="37.59219998880202" lon="14.8022459583816"><ele>225.99999999999997</ele><time>2026-04-06T09:01:51.999Z</time></trkpt><trkpt lat="37.59226962885415" lon="14.802181156364194"><ele>226.0</ele><time>2026-04-06T09:01:53.999Z</time></trkpt><trkpt lat="37.59231034176337" lon="14.802094303350243"><ele>226.0</ele><time>2026-04-06T09:01:55.999Z</time></trkpt><trkpt lat="37.592365975311054" lon="14.802042313242818"><ele>226.0</ele><time>2026-04-06T09:01:59Z</time></trkpt><trkpt lat="37.59227740050058" lon="14.80208028759001"><ele>225.99999999999997</ele><time>2026-04-06T09:02:02Z</time></trkpt><trkpt lat="37.5922440462327" lon="14.802186214174736"><ele>226.0</ele><time>2026-04-06T09:02:04Z</time></trkpt><trkpt lat="37.59222724807427" lon="14.802338524458872"><ele>225.99999999999997</ele><time>2026-04-06T09:02:06Z</time></trkpt><trkpt lat="37.592217860961796" lon="14.8024206699708"><ele>226.0</ele><time>2026-04-06T09:02:07Z</time></trkpt><trkpt lat="37.59221744731979" lon="14.802508179952605"><ele>226.0</ele><time>2026-04-06T09:02:08Z</time></trkpt><trkpt lat="37.592196626611596" lon="14.802604865305335"><ele>226.0</ele><time>2026-04-06T09:02:09Z</time></trkpt><trkpt lat="37.592191395521716" lon="14.802715589595191"><ele>225.99999999999997</ele><time>2026-04-06T09:02:10Z</time></trkpt><trkpt lat="37.59218549267767" lon="14.802836105964971"><ele>226.0</ele><time>2026-04-06T09:02:11Z</time></trkpt><trkpt lat="37.59219360867353" lon="14.802947651834021"><ele>225.14285714285714</ele><time>2026-04-06T09:02:12Z</time></trkpt><trkpt lat="37.59218753376466" lon="14.803045417976639"><ele>224.28571428571428</ele><time>2026-04-06T09:02:13Z</time></trkpt><trkpt lat="37.59218256692263" lon="14.803137469024966"><ele>223.42857142857142</ele><time>2026-04-06T09:02:14Z</time></trkpt><trkpt lat="37.59218146585649" lon="14.803231600407134"><ele>222.57142857142856</ele><time>2026-04-06T09:02:15Z</time></trkpt><trkpt lat="37.59218453011542" lon="14.803328423630138"><ele>221.71428571428572</ele><time>2026-04-06T09:02:16Z</time></trkpt><trkpt lat="37.59218646444419" lon="14.803420920049508"><ele>220.85714285714283</ele><time>2026-04-06T09:02:17Z</time></trkpt><trkpt lat="37.592189427174304" lon="14.803512937213993"><ele>220.0</ele><time>2026-04-06T09:02:18Z</time></trkpt><trkpt lat="37.59219139861983" lon="14.803601848494159"><ele>219.42857142857142</ele><time>2026-04-06T09:02:19Z</time></trkpt><trkpt lat="37.592192298737274" lon="14.803697722551592"><ele>218.85714285714286</ele><time>2026-04-06T09:02:20Z</time></trkpt><trkpt lat="37.592195741300856" lon="14.803790492550368"><ele>218.28571428571428</ele><time>2026-04-06T09:02:21Z</time></trkpt><trkpt lat="37.59218998729482" lon="14.803879270785485"><ele>217.71428571428572</ele><time>2026-04-06T09:02:22Z</time></trkpt><trkpt lat="37.59217626662901" lon="14.803960165700044"><ele>217.14285714285714</ele><time>2026-04-06T09:02:23Z</time></trkpt><trkpt lat="37.59215224300021" lon="14.804044421138943"><ele>216.57142857142856</ele><time>2026-04-06T09:02:24Z</time></trkpt><trkpt lat="37.59211834299635" lon="14.804131604195447"><ele>216.0</ele><time>2026-04-06T09:02:25Z</time></trkpt><trkpt lat="37.592078728097746" lon="14.804217143474224"><ele>216.0</ele><time>2026-04-06T09:02:26Z</time></trkpt><trkpt lat="37.592047076539245" lon="14.804304663940718"><ele>216.0</ele><time>2026-04-06T09:02:27Z</time></trkpt><trkpt lat="37.59199463655483" lon="14.804375070324387"><ele>216.0</ele><time>2026-04-06T09:02:28Z</time></trkpt><trkpt lat="37.59196276598728" lon="14.80447017998181"><ele>216.0</ele><time>2026-04-06T09:02:29Z</time></trkpt><trkpt lat="37.591912997874076" lon="14.80454242679834"><ele>216.0</ele><time>2026-04-06T09:02:30Z</time></trkpt><trkpt lat="37.59188373555597" lon="14.804633007735632"><ele>216.0</ele><time>2026-04-06T09:02:31Z</time></trkpt><trkpt lat="37.59183788848155" lon="14.804705249435882"><ele>216.33333333333334</ele><time>2026-04-06T09:02:32Z</time></trkpt><trkpt lat="37.591805816878804" lon="14.804794506699903"><ele>216.66666666666669</ele><time>2026-04-06T09:02:33Z</time></trkpt><trkpt lat="37.591741953304094" lon="14.804857766493514"><ele>217.0</ele><time>2026-04-06T09:02:34Z</time></trkpt><trkpt lat="37.59170120482055" lon="14.804945383858998"><ele>217.33333333333334</ele><time>2026-04-06T09:02:35Z</time></trkpt><trkpt lat="37.59165114556282" lon="14.805030214003523"><ele>217.66666666666669</ele><time>2026-04-06T09:02:36Z</time></trkpt><trkpt lat="37.59160538197599" lon="14.805118915720477"><ele>218.0</ele><time>2026-04-06T09:02:37Z</time></trkpt><trkpt lat="37.59156326156916" lon="14.80520209694633"><ele>216.2</ele><time>2026-04-06T09:02:38Z</time></trkpt><trkpt lat="37.59153374879242" lon="14.80535254684551"><ele>214.4</ele><time>2026-04-06T09:02:40Z</time></trkpt><trkpt lat="37.591602442293194" lon="14.80549972498501"><ele>212.6</ele><time>2026-04-06T09:02:42Z</time></trkpt><trkpt lat="37.591626436601004" lon="14.805586810549428"><ele>210.79999999999998</ele><time>2026-04-06T09:02:43Z</time></trkpt><trkpt lat="37.59166199135702" lon="14.8056667117797"><ele>209.0</ele><time>2026-04-06T09:02:43.999Z</time></trkpt><trkpt lat="37.591692988766475" lon="14.805751335801538"><ele>209.00000000000003</ele><time>2026-04-06T09:02:44.999Z</time></trkpt><trkpt lat="37.591720220300104" lon="14.805839637492118"><ele>209.0</ele><time>2026-04-06T09:02:45.999Z</time></trkpt><trkpt lat="37.59174526670227" lon="14.805934362466719"><ele>209.0</ele><time>2026-04-06T09:02:46.999Z</time></trkpt><trkpt lat="37.59176017190077" lon="14.806028503592747"><ele>209.0</ele><time>2026-04-06T09:02:47.999Z</time></trkpt><trkpt lat="37.5917906221542" lon="14.806124063633684"><ele>209.00000000000003</ele><time>2026-04-06T09:02:48.999Z</time></trkpt><trkpt lat="37.591814277759994" lon="14.80621575359286"><ele>209.0</ele><time>2026-04-06T09:02:49.999Z</time></trkpt><trkpt lat="37.59182504832323" lon="14.80631534183047"><ele>207.66666666666669</ele><time>2026-04-06T09:02:50.999Z</time></trkpt><trkpt lat="37.59186420155891" lon="14.806399870219959"><ele>206.33333333333334</ele><time>2026-04-06T09:02:51.999Z</time></trkpt><trkpt lat="37.5918889324904" lon="14.806497437268185"><ele>205.0</ele><time>2026-04-06T09:02:52.999Z</time></trkpt><trkpt lat="37.59190199031509" lon="14.806587108892199"><ele>203.66666666666669</ele><time>2026-04-06T09:02:53.999Z</time></trkpt><trkpt lat="37.59194659013484" lon="14.806665566667856"><ele>202.33333333333334</ele><time>2026-04-06T09:02:54.999Z</time></trkpt><trkpt lat="37.592006854002264" lon="14.806737495835508"><ele>201.0</ele><time>2026-04-06T09:02:55.999Z</time></trkpt><trkpt lat="37.59206666004381" lon="14.806802327475683"><ele>198.7142857142857</ele><time>2026-04-06T09:02:56.999Z</time></trkpt><trkpt lat="37.59212400241592" lon="14.80686307933968"><ele>196.42857142857144</ele><time>2026-04-06T09:02:57.999Z</time></trkpt><trkpt lat="37.592182571501304" lon="14.806918616084324"><ele>194.14285714285714</ele><time>2026-04-06T09:02:58.999Z</time></trkpt><trkpt lat="37.592251120621775" lon="14.806962591888654"><ele>191.85714285714283</ele><time>2026-04-06T09:02:59.999Z</time></trkpt><trkpt lat="37.59232421871911" lon="14.806988035472536"><ele>189.57142857142856</ele><time>2026-04-06T09:03:00.999Z</time></trkpt><trkpt lat="37.59239842126222" lon="14.806992168357654"><ele>187.28571428571428</ele><time>2026-04-06T09:03:01.999Z</time></trkpt><trkpt lat="37.59246724375527" lon="14.807002664784333"><ele>185.0</ele><time>2026-04-06T09:03:02.999Z</time></trkpt><trkpt lat="37.59253516046768" lon="14.807013023137849"><ele>185.0</ele><time>2026-04-06T09:03:03.999Z</time></trkpt><trkpt lat="37.592659778418806" lon="14.807045001656174"><ele>185.0</ele><time>2026-04-06T09:03:05.999Z</time></trkpt><trkpt lat="37.592722468225155" lon="14.807066186268713"><ele>185.0</ele><time>2026-04-06T09:03:06.999Z</time></trkpt><trkpt lat="37.59285248805445" lon="14.807102719709865"><ele>185.0</ele><time>2026-04-06T09:03:08.999Z</time></trkpt><trkpt lat="37.59292564529404" lon="14.807114667079064"><ele>185.0</ele><time>2026-04-06T09:03:09.999Z</time></trkpt><trkpt lat="37.59300094520508" lon="14.80714033253596"><ele>184.66666666666666</ele><time>2026-04-06T09:03:10.999Z</time></trkpt><trkpt lat="37.593064046300846" lon="14.807151957425273"><ele>184.33333333333331</ele><time>2026-04-06T09:03:11.999Z</time></trkpt><trkpt lat="37.59316067918273" lon="14.807227037274313"><ele>184.0</ele><time>2026-04-06T09:03:13.999Z</time></trkpt><trkpt lat="37.593187847174796" lon="14.8073029430993"><ele>183.66666666666666</ele><time>2026-04-06T09:03:14.999Z</time></trkpt><trkpt lat="37.593185947895826" lon="14.807393142929591"><ele>183.33333333333334</ele><time>2026-04-06T09:03:15.999Z</time></trkpt><trkpt lat="37.593222253065555" lon="14.807471196273319"><ele>183.0</ele><time>2026-04-06T09:03:16.999Z</time></trkpt><trkpt lat="37.59326798573053" lon="14.807540062488343"><ele>183.0</ele><time>2026-04-06T09:03:17.999Z</time></trkpt><trkpt lat="37.59332683303416" lon="14.807586712163298"><ele>183.0</ele><time>2026-04-06T09:03:18.999Z</time></trkpt><trkpt lat="37.59339574477999" lon="14.807623301848428"><ele>183.0</ele><time>2026-04-06T09:03:19.999Z</time></trkpt><trkpt lat="37.59345144094566" lon="14.807664593409934"><ele>183.0</ele><time>2026-04-06T09:03:20.999Z</time></trkpt><trkpt lat="37.593510748124466" lon="14.807721694861277"><ele>183.0</ele><time>2026-04-06T09:03:23.999Z</time></trkpt><trkpt lat="37.593583963522704" lon="14.807784960881975"><ele>183.0</ele><time>2026-04-06T09:03:25.999Z</time></trkpt><trkpt lat="37.59364042517138" lon="14.807923218407808"><ele>181.66666666666666</ele><time>2026-04-06T09:03:27.999Z</time></trkpt><trkpt lat="37.59368517758666" lon="14.807985842892371"><ele>180.33333333333334</ele><time>2026-04-06T09:03:28.999Z</time></trkpt><trkpt lat="37.59370848252755" lon="14.808062751493468"><ele>179.0</ele><time>2026-04-06T09:03:29.999Z</time></trkpt><trkpt lat="37.59376282718467" lon="14.808191235203541"><ele>177.66666666666669</ele><time>2026-04-06T09:03:31.999Z</time></trkpt><trkpt lat="37.59379397784689" lon="14.808339235054941"><ele>176.33333333333334</ele><time>2026-04-06T09:03:33.999Z</time></trkpt><trkpt lat="37.59383145279377" lon="14.808407360716098"><ele>175.0</ele><time>2026-04-06T09:03:34.999Z</time></trkpt><trkpt lat="37.59389186918993" lon="14.808440389471418"><ele>175.0</ele><time>2026-04-06T09:03:35.999Z</time></trkpt><trkpt lat="37.59395223271169" lon="14.808486641340911"><ele>175.0</ele><time>2026-04-06T09:03:37.999Z</time></trkpt><trkpt lat="37.59403344062535" lon="14.808616553964338"><ele>175.0</ele><time>2026-04-06T09:03:39.999Z</time></trkpt><trkpt lat="37.59408663766149" lon="14.808678812052245"><ele>175.0</ele><time>2026-04-06T09:03:40.999Z</time></trkpt><trkpt lat="37.59413546839645" lon="14.808741831087785"><ele>175.0</ele><time>2026-04-06T09:03:41.999Z</time></trkpt><trkpt lat="37.59417886073517" lon="14.808873449670719"><ele>173.6</ele><time>2026-04-06T09:03:43.999Z</time></trkpt><trkpt lat="37.594162551047575" lon="14.809044790525432"><ele>172.2</ele><time>2026-04-06T09:03:45.999Z</time></trkpt><trkpt lat="37.594145084036654" lon="14.809166347983156"><ele>170.8</ele><time>2026-04-06T09:03:46.999Z</time></trkpt><trkpt lat="37.59412871131851" lon="14.80928477128602"><ele>169.4</ele><time>2026-04-06T09:03:47.999Z</time></trkpt><trkpt lat="37.594114420534446" lon="14.809398171149912"><ele>168.0</ele><time>2026-04-06T09:03:48.999Z</time></trkpt><trkpt lat="37.594112477423806" lon="14.809512539603288"><ele>166.33333333333334</ele><time>2026-04-06T09:03:49.999Z</time></trkpt><trkpt lat="37.594102963443234" lon="14.809613987733652"><ele>164.66666666666666</ele><time>2026-04-06T09:03:50.999Z</time></trkpt><trkpt lat="37.59408126163829" lon="14.809713708185413"><ele>163.0</ele><time>2026-04-06T09:03:51.999Z</time></trkpt><trkpt lat="37.59410344143739" lon="14.809811826163306"><ele>161.33333333333331</ele><time>2026-04-06T09:03:52.999Z</time></trkpt><trkpt lat="37.594095830031904" lon="14.809900919048012"><ele>159.66666666666666</ele><time>2026-04-06T09:03:54Z</time></trkpt><trkpt lat="37.5940761246119" lon="14.80998795629757"><ele>158.0</ele><time>2026-04-06T09:03:55Z</time></trkpt><trkpt lat="37.59405205838833" lon="14.810075636405209"><ele>157.0</ele><time>2026-04-06T09:03:56Z</time></trkpt><trkpt lat="37.5940351995946" lon="14.810172685873393"><ele>156.0</ele><time>2026-04-06T09:03:57Z</time></trkpt><trkpt lat="37.59401450873141" lon="14.810267674210627"><ele>155.0</ele><time>2026-04-06T09:03:58Z</time></trkpt><trkpt lat="37.593976865505525" lon="14.810357121955503"><ele>154.0</ele><time>2026-04-06T09:03:59Z</time></trkpt><trkpt lat="37.59395513796079" lon="14.81044913794396"><ele>153.0</ele><time>2026-04-06T09:04:00Z</time></trkpt><trkpt lat="37.5939596046411" lon="14.810547803829731"><ele>152.0</ele><time>2026-04-06T09:04:01Z</time></trkpt><trkpt lat="37.59396464954995" lon="14.810654657076121"><ele>152.0</ele><time>2026-04-06T09:04:02Z</time></trkpt><trkpt lat="37.59399488441169" lon="14.810746494445057"><ele>152.0</ele><time>2026-04-06T09:04:03Z</time></trkpt><trkpt lat="37.5940228732532" lon="14.810837577796912"><ele>152.0</ele><time>2026-04-06T09:04:04Z</time></trkpt><trkpt lat="37.59406765770099" lon="14.810915426089085"><ele>152.0</ele><time>2026-04-06T09:04:05Z</time></trkpt><trkpt lat="37.5941106340376" lon="14.810999482129718"><ele>152.0</ele><time>2026-04-06T09:04:06Z</time></trkpt><trkpt lat="37.59414952421925" lon="14.811082027731565"><ele>152.0</ele><time>2026-04-06T09:04:07Z</time></trkpt><trkpt lat="37.59417697622655" lon="14.811168446291568"><ele>150.83333333333331</ele><time>2026-04-06T09:04:08Z</time></trkpt><trkpt lat="37.59420812463914" lon="14.811257963907355"><ele>149.66666666666666</ele><time>2026-04-06T09:04:09Z</time></trkpt><trkpt lat="37.594194882880835" lon="14.81135859187906"><ele>148.5</ele><time>2026-04-06T09:04:10Z</time></trkpt><trkpt lat="37.594200819081664" lon="14.811465742105794"><ele>147.33333333333334</ele><time>2026-04-06T09:04:11Z</time></trkpt><trkpt lat="37.59420650912482" lon="14.811576884288655"><ele>146.16666666666669</ele><time>2026-04-06T09:04:12Z</time></trkpt><trkpt lat="37.59422452560293" lon="14.811684264373774"><ele>145.0</ele><time>2026-04-06T09:04:13Z</time></trkpt><trkpt lat="37.59422776106775" lon="14.811792195552718"><ele>144.0</ele><time>2026-04-06T09:04:14Z</time></trkpt><trkpt lat="37.59425301502987" lon="14.811887348926595"><ele>143.0</ele><time>2026-04-06T09:04:15Z</time></trkpt><trkpt lat="37.59424383821772" lon="14.812002984634026"><ele>142.0</ele><time>2026-04-06T09:04:16Z</time></trkpt><trkpt lat="37.59424738073605" lon="14.812115892350016"><ele>141.0</ele><time>2026-04-06T09:04:17Z</time></trkpt><trkpt lat="37.59426738172129" lon="14.812212924707042"><ele>140.0</ele><time>2026-04-06T09:04:18Z</time></trkpt><trkpt lat="37.594273031146834" lon="14.812301363607181"><ele>139.0</ele><time>2026-04-06T09:04:19Z</time></trkpt><trkpt lat="37.594287061656196" lon="14.812414732731341"><ele>139.0</ele><time>2026-04-06T09:04:21Z</time></trkpt><trkpt lat="37.594191997584964" lon="14.812504281015187"><ele>139.0</ele><time>2026-04-06T09:04:24Z</time></trkpt><trkpt lat="37.59410863323177" lon="14.812539368655818"><ele>139.0</ele><time>2026-04-06T09:04:25Z</time></trkpt><trkpt lat="37.59401459109219" lon="14.812574976368179"><ele>139.0</ele><time>2026-04-06T09:04:26Z</time></trkpt><trkpt lat="37.59391618539993" lon="14.812625578268513"><ele>139.0</ele><time>2026-04-06T09:04:27Z</time></trkpt><trkpt lat="37.593810396502654" lon="14.812686686485012"><ele>138.75</ele><time>2026-04-06T09:04:28Z</time></trkpt><trkpt lat="37.593700883544265" lon="14.81274757572089"><ele>138.5</ele><time>2026-04-06T09:04:29Z</time></trkpt><trkpt lat="37.59358504285436" lon="14.812803188016684"><ele>138.25</ele><time>2026-04-06T09:04:30Z</time></trkpt><trkpt lat="37.59346024867411" lon="14.812865673453356"><ele>138.0</ele><time>2026-04-06T09:04:31Z</time></trkpt><trkpt lat="37.593330509762474" lon="14.812937639116807"><ele>138.0</ele><time>2026-04-06T09:04:32Z</time></trkpt><trkpt lat="37.59319282715602" lon="14.813012186698273"><ele>138.0</ele><time>2026-04-06T09:04:33Z</time></trkpt><trkpt lat="37.59305188371715" lon="14.813080921609961"><ele>138.0</ele><time>2026-04-06T09:04:34Z</time></trkpt><trkpt lat="37.592905557396755" lon="14.813155797449491"><ele>139.33333333333334</ele><time>2026-04-06T09:04:35Z</time></trkpt><trkpt lat="37.59274969881322" lon="14.81322867007785"><ele>140.66666666666669</ele><time>2026-04-06T09:04:36Z</time></trkpt><trkpt lat="37.59259638399369" lon="14.813298199578382"><ele>142.0</ele><time>2026-04-06T09:04:37Z</time></trkpt><trkpt lat="37.592444905125696" lon="14.813372563721506"><ele>142.0</ele><time>2026-04-06T09:04:38Z</time></trkpt><trkpt lat="37.59229556754163" lon="14.813452235576875"><ele>142.0</ele><time>2026-04-06T09:04:39Z</time></trkpt><trkpt lat="37.5921436263661" lon="14.813531758459092"><ele>142.0</ele><time>2026-04-06T09:04:40Z</time></trkpt><trkpt lat="37.59200067228856" lon="14.813605143218751"><ele>141.0</ele><time>2026-04-06T09:04:41Z</time></trkpt><trkpt lat="37.59185993012001" lon="14.813675716556366"><ele>140.0</ele><time>2026-04-06T09:04:42Z</time></trkpt><trkpt lat="37.59172051292421" lon="14.813738649923568"><ele>139.0</ele><time>2026-04-06T09:04:43Z</time></trkpt><trkpt lat="37.591579626599206" lon="14.813797191136015"><ele>138.0</ele><time>2026-04-06T09:04:44Z</time></trkpt><trkpt lat="37.59143850398442" lon="14.813855694919424"><ele>138.0</ele><time>2026-04-06T09:04:45Z</time></trkpt><trkpt lat="37.59129955041685" lon="14.81391154383195"><ele>138.0</ele><time>2026-04-06T09:04:46Z</time></trkpt><trkpt lat="37.59116194791768" lon="14.81396430616909"><ele>138.0</ele><time>2026-04-06T09:04:47Z</time></trkpt><trkpt lat="37.59102609055738" lon="14.814011910682222"><ele>138.0</ele><time>2026-04-06T09:04:48Z</time></trkpt><trkpt lat="37.590889201287034" lon="14.81405931006063"><ele>137.75</ele><time>2026-04-06T09:04:49Z</time></trkpt><trkpt lat="37.59075340980237" lon="14.814109028031812"><ele>137.5</ele><time>2026-04-06T09:04:50Z</time></trkpt><trkpt lat="37.59061756178842" lon="14.814164471185528"><ele>137.25</ele><time>2026-04-06T09:04:51Z</time></trkpt><trkpt lat="37.590483303593885" lon="14.814227794031098"><ele>137.0</ele><time>2026-04-06T09:04:52Z</time></trkpt><trkpt lat="37.59035452322941" lon="14.814303280804392"><ele>137.25</ele><time>2026-04-06T09:04:53Z</time></trkpt><trkpt lat="37.59022801294579" lon="14.814392909936114"><ele>137.5</ele><time>2026-04-06T09:04:54Z</time></trkpt><trkpt lat="37.5901078511332" lon="14.8144911827904"><ele>137.75</ele><time>2026-04-06T09:04:55Z</time></trkpt><trkpt lat="37.589991191628975" lon="14.814585009572886"><ele>138.0</ele><time>2026-04-06T09:04:56Z</time></trkpt><trkpt lat="37.589874403100204" lon="14.814671996181648"><ele>138.0</ele><time>2026-04-06T09:04:57Z</time></trkpt><trkpt lat="37.58975465550529" lon="14.814759483006638"><ele>138.0</ele><time>2026-04-06T09:04:58Z</time></trkpt><trkpt lat="37.58963458838745" lon="14.814844596208609"><ele>138.0</ele><time>2026-04-06T09:04:59Z</time></trkpt><trkpt lat="37.5895081972114" lon="14.814923339689607"><ele>138.0</ele><time>2026-04-06T09:05:00Z</time></trkpt><trkpt lat="37.58937475394155" lon="14.815000094866628"><ele>138.66666666666666</ele><time>2026-04-06T09:05:01Z</time></trkpt><trkpt lat="37.58923804882342" lon="14.815076900799673"><ele>139.33333333333331</ele><time>2026-04-06T09:05:02Z</time></trkpt><trkpt lat="37.58909865251373" lon="14.815154751301685"><ele>140.0</ele><time>2026-04-06T09:05:03Z</time></trkpt><trkpt lat="37.588958184425124" lon="14.815231371489084"><ele>138.66666666666666</ele><time>2026-04-06T09:05:04Z</time></trkpt><trkpt lat="37.58881522923033" lon="14.815306381231931"><ele>137.33333333333334</ele><time>2026-04-06T09:05:05Z</time></trkpt><trkpt lat="37.58866842545315" lon="14.815383596234113"><ele>136.0</ele><time>2026-04-06T09:05:06Z</time></trkpt><trkpt lat="37.588516130586406" lon="14.815455439963902"><ele>135.66666666666669</ele><time>2026-04-06T09:05:07Z</time></trkpt><trkpt lat="37.5883644199473" lon="14.815530249456664"><ele>135.33333333333334</ele><time>2026-04-06T09:05:08Z</time></trkpt><trkpt lat="37.5882186735392" lon="14.81560651998753"><ele>135.0</ele><time>2026-04-06T09:05:09Z</time></trkpt><trkpt lat="37.58807692152391" lon="14.815683398337075"><ele>135.0</ele><time>2026-04-06T09:05:10Z</time></trkpt><trkpt lat="37.58793628102321" lon="14.815757691505306"><ele>135.0</ele><time>2026-04-06T09:05:11Z</time></trkpt><trkpt lat="37.58779846457986" lon="14.815832686680164"><ele>135.0</ele><time>2026-04-06T09:05:12Z</time></trkpt><trkpt lat="37.58766131415668" lon="14.815909605321291"><ele>135.75</ele><time>2026-04-06T09:05:13Z</time></trkpt><trkpt lat="37.58752414222574" lon="14.815986560141434"><ele>136.5</ele><time>2026-04-06T09:05:14Z</time></trkpt><trkpt lat="37.58739153642096" lon="14.816066393945741"><ele>137.25</ele><time>2026-04-06T09:05:15Z</time></trkpt><trkpt lat="37.5872596277249" lon="14.816147189262256"><ele>138.0</ele><time>2026-04-06T09:05:16Z</time></trkpt><trkpt lat="37.58713396796507" lon="14.816228660286033"><ele>138.0</ele><time>2026-04-06T09:05:17Z</time></trkpt><trkpt lat="37.58700990054628" lon="14.816314348487778"><ele>138.0</ele><time>2026-04-06T09:05:18Z</time></trkpt><trkpt lat="37.58688496508885" lon="14.816400603468514"><ele>138.0</ele><time>2026-04-06T09:05:19Z</time></trkpt><trkpt lat="37.58675956705709" lon="14.816487948142726"><ele>138.0</ele><time>2026-04-06T09:05:20Z</time></trkpt><trkpt lat="37.58663773130878" lon="14.816578534550883"><ele>138.0</ele><time>2026-04-06T09:05:21Z</time></trkpt><trkpt lat="37.58651999094154" lon="14.816668583658808"><ele>138.0</ele><time>2026-04-06T09:05:22Z</time></trkpt><trkpt lat="37.58640286002066" lon="14.816751231374596"><ele>138.0</ele><time>2026-04-06T09:05:23Z</time></trkpt><trkpt lat="37.58629184709692" lon="14.816826871473543"><ele>138.0</ele><time>2026-04-06T09:05:24Z</time></trkpt><trkpt lat="37.58618666779974" lon="14.816903103391173"><ele>136.20000000000002</ele><time>2026-04-06T09:05:25Z</time></trkpt><trkpt lat="37.586090924573796" lon="14.816969543552062"><ele>134.4</ele><time>2026-04-06T09:05:26Z</time></trkpt><trkpt lat="37.58600006001475" lon="14.81702548483393"><ele>132.60000000000002</ele><time>2026-04-06T09:05:27Z</time></trkpt><trkpt lat="37.58591103969763" lon="14.81706886131784"><ele>130.8</ele><time>2026-04-06T09:05:28Z</time></trkpt><trkpt lat="37.585823115638206" lon="14.817100400652263"><ele>129.0</ele><time>2026-04-06T09:05:29Z</time></trkpt><trkpt lat="37.58572759097549" lon="14.817107998722896"><ele>129.0</ele><time>2026-04-06T09:05:30Z</time></trkpt><trkpt lat="37.58562509798301" lon="14.817085227164197"><ele>129.0</ele><time>2026-04-06T09:05:31Z</time></trkpt><trkpt lat="37.585520948863355" lon="14.817033494955384"><ele>129.0</ele><time>2026-04-06T09:05:32Z</time></trkpt><trkpt lat="37.58541435188177" lon="14.816970735726365"><ele>129.0</ele><time>2026-04-06T09:05:33Z</time></trkpt><trkpt lat="37.58531273114127" lon="14.816904484759792"><ele>129.0</ele><time>2026-04-06T09:05:34Z</time></trkpt><trkpt lat="37.585218522097975" lon="14.816835559949569"><ele>129.4</ele><time>2026-04-06T09:05:35Z</time></trkpt><trkpt lat="37.58513725860894" lon="14.816772675512679"><ele>129.8</ele><time>2026-04-06T09:05:36Z</time></trkpt><trkpt lat="37.58503407000388" lon="14.81670442827037"><ele>130.2</ele><time>2026-04-06T09:05:37Z</time></trkpt><trkpt lat="37.58494383765047" lon="14.81663287975786"><ele>130.6</ele><time>2026-04-06T09:05:38Z</time></trkpt><trkpt lat="37.58484990460947" lon="14.81654861076441"><ele>131.0</ele><time>2026-04-06T09:05:39Z</time></trkpt><trkpt lat="37.58474899490247" lon="14.816457494627189"><ele>131.0</ele><time>2026-04-06T09:05:40Z</time></trkpt><trkpt lat="37.58464163951444" lon="14.8163670086321"><ele>131.0</ele><time>2026-04-06T09:05:40.999Z</time></trkpt><trkpt lat="37.584531539356284" lon="14.816277358952789"><ele>131.0</ele><time>2026-04-06T09:05:41.999Z</time></trkpt><trkpt lat="37.584427735833884" lon="14.816185893040261"><ele>131.0</ele><time>2026-04-06T09:05:42.999Z</time></trkpt><trkpt lat="37.58433074488849" lon="14.816100262734565"><ele>130.8</ele><time>2026-04-06T09:05:43.999Z</time></trkpt><trkpt lat="37.58423559892375" lon="14.816022265345708"><ele>130.6</ele><time>2026-04-06T09:05:44.999Z</time></trkpt><trkpt lat="37.58414803561116" lon="14.81594788552819"><ele>130.4</ele><time>2026-04-06T09:05:45.999Z</time></trkpt><trkpt lat="37.584058065571405" lon="14.815863034172837"><ele>130.2</ele><time>2026-04-06T09:05:46.999Z</time></trkpt><trkpt lat="37.583968801127234" lon="14.815770685171719"><ele>130.0</ele><time>2026-04-06T09:05:47.999Z</time></trkpt><trkpt lat="37.58386492065207" lon="14.81567544014203"><ele>130.0</ele><time>2026-04-06T09:05:48.999Z</time></trkpt><trkpt lat="37.58376097953294" lon="14.81558030081851"><ele>130.0</ele><time>2026-04-06T09:05:49.999Z</time></trkpt><trkpt lat="37.58365248656497" lon="14.815482640664776"><ele>130.0</ele><time>2026-04-06T09:05:50.999Z</time></trkpt><trkpt lat="37.58354250795204" lon="14.815384645818341"><ele>130.0</ele><time>2026-04-06T09:05:51.999Z</time></trkpt><trkpt lat="37.58342915827049" lon="14.815287711732632"><ele>130.0</ele><time>2026-04-06T09:05:52.999Z</time></trkpt><trkpt lat="37.583317178245856" lon="14.81518842084332"><ele>130.0</ele><time>2026-04-06T09:05:53.999Z</time></trkpt><trkpt lat="37.583201286292095" lon="14.815084192683937"><ele>130.0</ele><time>2026-04-06T09:05:54.999Z</time></trkpt><trkpt lat="37.583089119578645" lon="14.81498692569265"><ele>130.0</ele><time>2026-04-06T09:05:55.999Z</time></trkpt><trkpt lat="37.58298950699467" lon="14.814895981824327"><ele>130.0</ele><time>2026-04-06T09:05:56.999Z</time></trkpt><trkpt lat="37.582891056660486" lon="14.814816206131384"><ele>130.0</ele><time>2026-04-06T09:05:57.999Z</time></trkpt><trkpt lat="37.58280831616865" lon="14.814739558922659"><ele>130.0</ele><time>2026-04-06T09:05:58.999Z</time></trkpt><trkpt lat="37.5827295468294" lon="14.814657626127357"><ele>130.0</ele><time>2026-04-06T09:06:00.001Z</time></trkpt><trkpt lat="37.58263264552557" lon="14.814573848561997"><ele>130.0</ele><time>2026-04-06T09:06:01.001Z</time></trkpt><trkpt lat="37.582542802812085" lon="14.814467977155916"><ele>130.0</ele><time>2026-04-06T09:06:02.001Z</time></trkpt><trkpt lat="37.58244983978552" lon="14.814378314583973"><ele>130.0</ele><time>2026-04-06T09:06:03.001Z</time></trkpt><trkpt lat="37.582361803513336" lon="14.814271104650249"><ele>130.0</ele><time>2026-04-06T09:06:04.001Z</time></trkpt><trkpt lat="37.58227326457036" lon="14.814154372733613"><ele>130.0</ele><time>2026-04-06T09:06:05.001Z</time></trkpt><trkpt lat="37.582185633006766" lon="14.814033502113144"><ele>130.0</ele><time>2026-04-06T09:06:06.001Z</time></trkpt><trkpt lat="37.582101310036904" lon="14.813905589845316"><ele>130.0</ele><time>2026-04-06T09:06:07.001Z</time></trkpt><trkpt lat="37.582026949458275" lon="14.81378077233412"><ele>130.0</ele><time>2026-04-06T09:06:08.001Z</time></trkpt><trkpt lat="37.58196652215396" lon="14.813656397032043"><ele>130.0</ele><time>2026-04-06T09:06:09.001Z</time></trkpt><trkpt lat="37.581908702235836" lon="14.813513506478447"><ele>131.0</ele><time>2026-04-06T09:06:10.001Z</time></trkpt><trkpt lat="37.58185694365771" lon="14.813361577986663"><ele>132.0</ele><time>2026-04-06T09:06:11.001Z</time></trkpt><trkpt lat="37.58180558679775" lon="14.81322351791926"><ele>133.0</ele><time>2026-04-06T09:06:12.001Z</time></trkpt><trkpt lat="37.58176432772806" lon="14.813093742342774"><ele>134.0</ele><time>2026-04-06T09:06:13.001Z</time></trkpt><trkpt lat="37.58173490108471" lon="14.812964158033706"><ele>134.0</ele><time>2026-04-06T09:06:14.001Z</time></trkpt><trkpt lat="37.58171793456795" lon="14.812817602210206"><ele>134.0</ele><time>2026-04-06T09:06:15.001Z</time></trkpt><trkpt lat="37.58170790084917" lon="14.812663617738297"><ele>134.0</ele><time>2026-04-06T09:06:16.001Z</time></trkpt><trkpt lat="37.58169650725788" lon="14.812510804624127"><ele>134.0</ele><time>2026-04-06T09:06:17.001Z</time></trkpt><trkpt lat="37.581685105738615" lon="14.812351197186347"><ele>134.0</ele><time>2026-04-06T09:06:18Z</time></trkpt><trkpt lat="37.58167809662743" lon="14.812187626933657"><ele>134.0</ele><time>2026-04-06T09:06:19Z</time></trkpt><trkpt lat="37.58169408899267" lon="14.812027176375855"><ele>134.0</ele><time>2026-04-06T09:06:20Z</time></trkpt><trkpt lat="37.581692115568856" lon="14.811867085492777"><ele>134.0</ele><time>2026-04-06T09:06:21Z</time></trkpt><trkpt lat="37.58170708235075" lon="14.8117114233946"><ele>134.0</ele><time>2026-04-06T09:06:22Z</time></trkpt><trkpt lat="37.58171574500987" lon="14.811555208799392"><ele>134.0</ele><time>2026-04-06T09:06:23Z</time></trkpt><trkpt lat="37.58171921119103" lon="14.811402790333668"><ele>134.0</ele><time>2026-04-06T09:06:24Z</time></trkpt><trkpt lat="37.581720298044694" lon="14.811259811284348"><ele>134.0</ele><time>2026-04-06T09:06:25Z</time></trkpt><trkpt lat="37.58171452457411" lon="14.811119420396174"><ele>134.0</ele><time>2026-04-06T09:06:26Z</time></trkpt><trkpt lat="37.58169658678155" lon="14.810992216329808"><ele>134.0</ele><time>2026-04-06T09:06:27Z</time></trkpt><trkpt lat="37.581658801257944" lon="14.810862548086748"><ele>134.0</ele><time>2026-04-06T09:06:28Z</time></trkpt><trkpt lat="37.58161087292907" lon="14.810727524156945"><ele>134.0</ele><time>2026-04-06T09:06:29Z</time></trkpt><trkpt lat="37.58156013151726" lon="14.810592909440091"><ele>134.0</ele><time>2026-04-06T09:06:30Z</time></trkpt><trkpt lat="37.58151581068779" lon="14.810464177825258"><ele>134.33333333333331</ele><time>2026-04-06T09:06:31Z</time></trkpt><trkpt lat="37.58147407059157" lon="14.81034231756206"><ele>134.66666666666666</ele><time>2026-04-06T09:06:32Z</time></trkpt><trkpt lat="37.581432984593256" lon="14.810243952915622"><ele>135.0</ele><time>2026-04-06T09:06:33Z</time></trkpt><trkpt lat="37.58140197841794" lon="14.810170353810308"><ele>135.33333333333334</ele><time>2026-04-06T09:06:34Z</time></trkpt><trkpt lat="37.58136693351428" lon="14.81008621976264"><ele>135.66666666666669</ele><time>2026-04-06T09:06:36Z</time></trkpt><trkpt lat="37.581452050684966" lon="14.810014929247536"><ele>136.0</ele><time>2026-04-06T09:10:20Z</time></trkpt><trkpt lat="37.58150465292654" lon="14.809970719968224"><ele>136.0</ele><time>2026-04-06T09:10:23Z</time></trkpt><trkpt lat="37.58157946148414" lon="14.81017203169363"><ele>136.0</ele><time>2026-04-06T09:10:26Z</time></trkpt><trkpt lat="37.58165875850137" lon="14.810280879708676"><ele>136.0</ele><time>2026-04-06T09:10:27Z</time></trkpt><trkpt lat="37.58172034858259" lon="14.810389383253868"><ele>136.0</ele><time>2026-04-06T09:10:28Z</time></trkpt><trkpt lat="37.581763586016535" lon="14.81047825311453"><ele>136.0</ele><time>2026-04-06T09:10:29Z</time></trkpt><trkpt lat="37.58180732590978" lon="14.810545417897538"><ele>136.0</ele><time>2026-04-06T09:10:30Z</time></trkpt><trkpt lat="37.58189463017276" lon="14.810583546630152"><ele>136.0</ele><time>2026-04-06T09:10:32Z</time></trkpt><trkpt lat="37.5820068192245" lon="14.810558253120567"><ele>136.0</ele><time>2026-04-06T09:10:34Z</time></trkpt><trkpt lat="37.582118269993686" lon="14.810478092234886"><ele>136.0</ele><time>2026-04-06T09:10:36Z</time></trkpt><trkpt lat="37.5821808661292" lon="14.81043976691987"><ele>136.0</ele><time>2026-04-06T09:10:37Z</time></trkpt><trkpt lat="37.58227663811936" lon="14.810385863925388"><ele>136.0</ele><time>2026-04-06T09:10:39Z</time></trkpt><trkpt lat="37.58234194477374" lon="14.810340832402746"><ele>136.0</ele><time>2026-04-06T09:10:41Z</time></trkpt><trkpt lat="37.58239165035808" lon="14.810288603713117"><ele>136.0</ele><time>2026-04-06T09:10:42Z</time></trkpt><trkpt lat="37.58243096725172" lon="14.810219126006505"><ele>136.0</ele><time>2026-04-06T09:10:43Z</time></trkpt><trkpt lat="37.582463804410324" lon="14.810061623118505"><ele>136.0</ele><time>2026-04-06T09:10:45Z</time></trkpt><trkpt lat="37.582512850638324" lon="14.809942516516461"><ele>136.2</ele><time>2026-04-06T09:10:46Z</time></trkpt><trkpt lat="37.58255010476444" lon="14.809780204056619"><ele>136.39999999999998</ele><time>2026-04-06T09:10:47Z</time></trkpt><trkpt lat="37.5825798181801" lon="14.809619333884124"><ele>136.6</ele><time>2026-04-06T09:10:48Z</time></trkpt><trkpt lat="37.582604169755214" lon="14.80950248376038"><ele>136.79999999999998</ele><time>2026-04-06T09:10:49Z</time></trkpt><trkpt lat="37.582624057497654" lon="14.809422664237156"><ele>137.0</ele><time>2026-04-06T09:10:50Z</time></trkpt><trkpt lat="37.58269707993363" lon="14.809310267381187"><ele>137.0</ele><time>2026-04-06T09:10:52Z</time></trkpt><trkpt lat="37.58282370913283" lon="14.809249062670553"><ele>137.0</ele><time>2026-04-06T09:10:54Z</time></trkpt><trkpt lat="37.582891586318276" lon="14.8091900782236"><ele>137.0</ele><time>2026-04-06T09:10:55Z</time></trkpt><trkpt lat="37.58296644599081" lon="14.809121693601483"><ele>137.0</ele><time>2026-04-06T09:10:56Z</time></trkpt><trkpt lat="37.58304198739979" lon="14.80903828850241"><ele>137.0</ele><time>2026-04-06T09:10:57Z</time></trkpt><trkpt lat="37.58311331810175" lon="14.808969981125447"><ele>136.79999999999998</ele><time>2026-04-06T09:10:58Z</time></trkpt><trkpt lat="37.58318405560504" lon="14.808922752618951"><ele>136.6</ele><time>2026-04-06T09:10:59Z</time></trkpt><trkpt lat="37.583273901159814" lon="14.808839774044163"><ele>136.39999999999998</ele><time>2026-04-06T09:11:00Z</time></trkpt><trkpt lat="37.583351771541416" lon="14.808752707182396"><ele>136.2</ele><time>2026-04-06T09:11:01Z</time></trkpt><trkpt lat="37.58341155491142" lon="14.808689453367954"><ele>136.0</ele><time>2026-04-06T09:11:02Z</time></trkpt><trkpt lat="37.583458903350824" lon="14.808567759924552"><ele>136.5</ele><time>2026-04-06T09:11:04Z</time></trkpt><trkpt lat="37.583537060774844" lon="14.808481955572868"><ele>137.0</ele><time>2026-04-06T09:11:06Z</time></trkpt><trkpt lat="37.58360193145653" lon="14.808416387742534"><ele>137.5</ele><time>2026-04-06T09:11:08Z</time></trkpt><trkpt lat="37.58364232275227" lon="14.808314553199116"><ele>138.0</ele><time>2026-04-06T09:11:11Z</time></trkpt><trkpt lat="37.583651396707715" lon="14.808219663267645"><ele>138.5</ele><time>2026-04-06T09:11:13Z</time></trkpt><trkpt lat="37.5837457225523" lon="14.8082058653074"><ele>139.0</ele><time>2026-04-06T09:11:15Z</time></trkpt><trkpt lat="37.583847187803535" lon="14.808268343697327"><ele>139.0</ele><time>2026-04-06T09:11:16.999Z</time></trkpt><trkpt lat="37.58395000825288" lon="14.808249391391564"><ele>139.0</ele><time>2026-04-06T09:11:18.999Z</time></trkpt><trkpt lat="37.58402574235921" lon="14.808208149899974"><ele>139.0</ele><time>2026-04-06T09:11:19.999Z</time></trkpt><trkpt lat="37.58410684972468" lon="14.80816550641883"><ele>139.0</ele><time>2026-04-06T09:11:20.999Z</time></trkpt><trkpt lat="37.58419282402659" lon="14.808118411969563"><ele>139.0</ele><time>2026-04-06T09:11:21.999Z</time></trkpt><trkpt lat="37.58431699280951" lon="14.808039302597189"><ele>139.0</ele><time>2026-04-06T09:11:23.999Z</time></trkpt><trkpt lat="37.58438748339507" lon="14.808000419594855"><ele>139.0</ele><time>2026-04-06T09:11:24.999Z</time></trkpt><trkpt lat="37.58445676562038" lon="14.807957877911898"><ele>139.0</ele><time>2026-04-06T09:11:25.999Z</time></trkpt><trkpt lat="37.58451735344779" lon="14.80792142299441"><ele>139.0</ele><time>2026-04-06T09:11:26.999Z</time></trkpt><trkpt lat="37.584579801755474" lon="14.807881804122783"><ele>139.0</ele><time>2026-04-06T09:11:27.999Z</time></trkpt><trkpt lat="37.584643450685" lon="14.80782994496619"><ele>139.0</ele><time>2026-04-06T09:11:28.999Z</time></trkpt><trkpt lat="37.58470582733655" lon="14.807765677626191"><ele>139.0</ele><time>2026-04-06T09:11:29.999Z</time></trkpt><trkpt lat="37.5847481004948" lon="14.807692754793926"><ele>139.6</ele><time>2026-04-06T09:11:30.999Z</time></trkpt><trkpt lat="37.58479136812756" lon="14.807602581686824"><ele>140.2</ele><time>2026-04-06T09:11:31.999Z</time></trkpt><trkpt lat="37.58482315327792" lon="14.807528705971976"><ele>140.79999999999998</ele><time>2026-04-06T09:11:32.999Z</time></trkpt><trkpt lat="37.58487023713025" lon="14.80739909887402"><ele>141.4</ele><time>2026-04-06T09:11:34.999Z</time></trkpt><trkpt lat="37.58494818511961" lon="14.807293679915183"><ele>142.0</ele><time>2026-04-06T09:11:36.999Z</time></trkpt><trkpt lat="37.58502849779431" lon="14.807189904450457"><ele>142.0</ele><time>2026-04-06T09:11:38.999Z</time></trkpt><trkpt lat="37.585085115996044" lon="14.807141018150386"><ele>142.0</ele><time>2026-04-06T09:11:39.999Z</time></trkpt><trkpt lat="37.58514763979569" lon="14.807093824062303"><ele>142.0</ele><time>2026-04-06T09:11:40.999Z</time></trkpt><trkpt lat="37.58522534595362" lon="14.807060598484323"><ele>142.0</ele><time>2026-04-06T09:11:41.999Z</time></trkpt><trkpt lat="37.585325947349375" lon="14.807035066120008"><ele>142.0</ele><time>2026-04-06T09:11:42.999Z</time></trkpt><trkpt lat="37.585421845465405" lon="14.807011460041334"><ele>142.0</ele><time>2026-04-06T09:11:43.999Z</time></trkpt><trkpt lat="37.58550579296206" lon="14.806968970810683"><ele>142.14285714285714</ele><time>2026-04-06T09:11:44.999Z</time></trkpt><trkpt lat="37.585569205657734" lon="14.806913884553362"><ele>142.28571428571428</ele><time>2026-04-06T09:11:45.999Z</time></trkpt><trkpt lat="37.585630136446966" lon="14.806846547132116"><ele>142.42857142857142</ele><time>2026-04-06T09:11:46.999Z</time></trkpt><trkpt lat="37.58567481557423" lon="14.80678424635554"><ele>142.57142857142856</ele><time>2026-04-06T09:11:47.999Z</time></trkpt><trkpt lat="37.58572461468924" lon="14.806711786941825"><ele>142.71428571428572</ele><time>2026-04-06T09:11:48.999Z</time></trkpt><trkpt lat="37.585771063609364" lon="14.806649491061986"><ele>142.85714285714283</ele><time>2026-04-06T09:11:49.999Z</time></trkpt><trkpt lat="37.58581571113897" lon="14.80658972836226"><ele>143.0</ele><time>2026-04-06T09:11:50.999Z</time></trkpt><trkpt lat="37.585856766183866" lon="14.806502117336924"><ele>143.0</ele><time>2026-04-06T09:11:55.999Z</time></trkpt><trkpt lat="37.5859037391669" lon="14.806406101411323"><ele>143.0</ele><time>2026-04-06T09:11:57.999Z</time></trkpt><trkpt lat="37.58593724448648" lon="14.806322991399615"><ele>143.0</ele><time>2026-04-06T09:11:58.999Z</time></trkpt><trkpt lat="37.58596350122458" lon="14.806232598291842"><ele>143.0</ele><time>2026-04-06T09:11:59.999Z</time></trkpt><trkpt lat="37.5860006269036" lon="14.806140360845228"><ele>143.0</ele><time>2026-04-06T09:12:00.999Z</time></trkpt><trkpt lat="37.586040868045856" lon="14.806070865751531"><ele>143.0</ele><time>2026-04-06T09:12:01.999Z</time></trkpt><trkpt lat="37.58612611451978" lon="14.806000091341193"><ele>143.5</ele><time>2026-04-06T09:12:03.999Z</time></trkpt><trkpt lat="37.58622025561987" lon="14.806000707612588"><ele>144.0</ele><time>2026-04-06T09:12:05.999Z</time></trkpt><trkpt lat="37.586306989165195" lon="14.806020160849277"><ele>144.5</ele><time>2026-04-06T09:12:07.999Z</time></trkpt><trkpt lat="37.58642605576557" lon="14.806034452987483"><ele>145.0</ele><time>2026-04-06T09:12:09.999Z</time></trkpt><trkpt lat="37.58650094276232" lon="14.80602730798553"><ele>145.5</ele><time>2026-04-06T09:12:10.999Z</time></trkpt><trkpt lat="37.58655885532083" lon="14.805992358188421"><ele>146.0</ele><time>2026-04-06T09:12:11.999Z</time></trkpt><trkpt lat="37.586673106851265" lon="14.80590645406497"><ele>146.0</ele><time>2026-04-06T09:12:13.999Z</time></trkpt><trkpt lat="37.58678468189328" lon="14.80588577309442"><ele>146.0</ele><time>2026-04-06T09:12:15.999Z</time></trkpt><trkpt lat="37.586883027567225" lon="14.805843359067927"><ele>146.0</ele><time>2026-04-06T09:12:18Z</time></trkpt><trkpt lat="37.58695694120949" lon="14.80572132157013"><ele>146.0</ele><time>2026-04-06T09:12:20Z</time></trkpt><trkpt lat="37.58697526183709" lon="14.805631125482748"><ele>146.0</ele><time>2026-04-06T09:12:21Z</time></trkpt><trkpt lat="37.587003052751044" lon="14.80554537323863"><ele>146.6</ele><time>2026-04-06T09:12:22Z</time></trkpt><trkpt lat="37.58710255602917" lon="14.80545487561719"><ele>147.2</ele><time>2026-04-06T09:12:24Z</time></trkpt><trkpt lat="37.587167507568324" lon="14.805419225859106"><ele>147.8</ele><time>2026-04-06T09:12:25Z</time></trkpt><trkpt lat="37.587234828819895" lon="14.805382845573071"><ele>148.4</ele><time>2026-04-06T09:12:26Z</time></trkpt><trkpt lat="37.58728791243146" lon="14.805275978903783"><ele>149.0</ele><time>2026-04-06T09:12:28Z</time></trkpt><trkpt lat="37.58731164820442" lon="14.805108330660776"><ele>149.0</ele><time>2026-04-06T09:12:30Z</time></trkpt><trkpt lat="37.58733853630956" lon="14.8049891843295"><ele>149.0</ele><time>2026-04-06T09:12:31Z</time></trkpt><trkpt lat="37.58737637422406" lon="14.804882925758584"><ele>149.0</ele><time>2026-04-06T09:12:32Z</time></trkpt><trkpt lat="37.58742518980826" lon="14.804787207926573"><ele>149.0</ele><time>2026-04-06T09:12:33Z</time></trkpt><trkpt lat="37.587485879871885" lon="14.80468566657232"><ele>149.0</ele><time>2026-04-06T09:12:34Z</time></trkpt><trkpt lat="37.587529397272846" lon="14.804588359800249"><ele>149.0</ele><time>2026-04-06T09:12:35Z</time></trkpt><trkpt lat="37.58756530764609" lon="14.804504881220083"><ele>149.0</ele><time>2026-04-06T09:12:36Z</time></trkpt><trkpt lat="37.587621067888826" lon="14.804402400084063"><ele>149.0</ele><time>2026-04-06T09:12:38Z</time></trkpt><trkpt lat="37.58766882162345" lon="14.804335439800882"><ele>149.0</ele><time>2026-04-06T09:12:40Z</time></trkpt><trkpt lat="37.58777416482685" lon="14.804246666406677"><ele>149.0</ele><time>2026-04-06T09:12:42Z</time></trkpt><trkpt lat="37.587873446248125" lon="14.804177924989677"><ele>150.16666666666666</ele><time>2026-04-06T09:12:44Z</time></trkpt><trkpt lat="37.58791598273195" lon="14.804065955413929"><ele>151.33333333333331</ele><time>2026-04-06T09:12:46Z</time></trkpt><trkpt lat="37.587944118091215" lon="14.803979902278089"><ele>152.5</ele><time>2026-04-06T09:12:47Z</time></trkpt><trkpt lat="37.58797257289261" lon="14.803891837777293"><ele>153.66666666666666</ele><time>2026-04-06T09:12:48Z</time></trkpt><trkpt lat="37.5879945608639" lon="14.803787612520521"><ele>154.83333333333334</ele><time>2026-04-06T09:12:49Z</time></trkpt><trkpt lat="37.58802007548474" lon="14.803703949628163"><ele>156.0</ele><time>2026-04-06T09:12:50Z</time></trkpt><trkpt lat="37.5880370379139" lon="14.803622211771719"><ele>156.0</ele><time>2026-04-06T09:12:51Z</time></trkpt><trkpt lat="37.58804952414554" lon="14.803537124266665"><ele>156.0</ele><time>2026-04-06T09:12:52Z</time></trkpt><trkpt lat="37.58805990475178" lon="14.803373318048413"><ele>156.0</ele><time>2026-04-06T09:12:54Z</time></trkpt><trkpt lat="37.58805544269327" lon="14.803278841367083"><ele>156.0</ele><time>2026-04-06T09:12:55Z</time></trkpt><trkpt lat="37.58803866243818" lon="14.803178646626526"><ele>156.0</ele><time>2026-04-06T09:12:56Z</time></trkpt><trkpt lat="37.58802887173793" lon="14.803084910984547"><ele>156.0</ele><time>2026-04-06T09:12:57Z</time></trkpt><trkpt lat="37.58802575892175" lon="14.802966859791676"><ele>155.5</ele><time>2026-04-06T09:12:59Z</time></trkpt><trkpt lat="37.58809557089433" lon="14.802952088539268"><ele>155.0</ele><time>2026-04-06T09:13:17Z</time></trkpt><trkpt lat="37.588083991504035" lon="14.803042301080692"><ele>154.5</ele><time>2026-04-06T09:13:19Z</time></trkpt><trkpt lat="37.58804677374284" lon="14.803110191735467"><ele>154.0</ele><time>2026-04-06T09:13:20Z</time></trkpt><trkpt lat="37.58801870291864" lon="14.803243234150944"><ele>153.5</ele><time>2026-04-06T09:13:22Z</time></trkpt><trkpt lat="37.5880281831061" lon="14.803323445059023"><ele>153.0</ele><time>2026-04-06T09:13:23Z</time></trkpt><trkpt lat="37.588010729977206" lon="14.803460728808862"><ele>153.6</ele><time>2026-04-06T09:13:25Z</time></trkpt><trkpt lat="37.58797849993727" lon="14.803575468772562"><ele>154.20000000000002</ele><time>2026-04-06T09:13:27Z</time></trkpt><trkpt lat="37.587985381366074" lon="14.803714166988662"><ele>154.8</ele><time>2026-04-06T09:13:28.999Z</time></trkpt><trkpt lat="37.587991890695804" lon="14.803801542023383"><ele>155.4</ele><time>2026-04-06T09:13:29.999Z</time></trkpt><trkpt lat="37.58797038559405" lon="14.803946224232233"><ele>156.0</ele><time>2026-04-06T09:13:31.999Z</time></trkpt><trkpt lat="37.58793178907169" lon="14.80402814646516"><ele>156.0</ele><time>2026-04-06T09:13:32.999Z</time></trkpt><trkpt lat="37.58789841415346" lon="14.804122280074187"><ele>156.0</ele><time>2026-04-06T09:13:33.999Z</time></trkpt><trkpt lat="37.58783473445848" lon="14.80421807116634"><ele>156.0</ele><time>2026-04-06T09:13:35.999Z</time></trkpt><trkpt lat="37.587774168986584" lon="14.804263979467647"><ele>156.0</ele><time>2026-04-06T09:13:36.999Z</time></trkpt><trkpt lat="37.58770492362004" lon="14.804309874256957"><ele>156.0</ele><time>2026-04-06T09:13:37.999Z</time></trkpt><trkpt lat="37.587647605717024" lon="14.804363435793112"><ele>156.0</ele><time>2026-04-06T09:13:38.999Z</time></trkpt><trkpt lat="37.58758162803819" lon="14.80445575978631"><ele>154.6</ele><time>2026-04-06T09:13:40.999Z</time></trkpt><trkpt lat="37.5875473164783" lon="14.804534710312335"><ele>153.2</ele><time>2026-04-06T09:13:42.999Z</time></trkpt><trkpt lat="37.58749132688783" lon="14.804640050833683"><ele>151.8</ele><time>2026-04-06T09:13:44.999Z</time></trkpt><trkpt lat="37.58743410884971" lon="14.804741599647208"><ele>150.4</ele><time>2026-04-06T09:13:46.999Z</time></trkpt><trkpt lat="37.58737896633458" lon="14.804861186161238"><ele>149.0</ele><time>2026-04-06T09:13:48.999Z</time></trkpt><trkpt lat="37.587334935162275" lon="14.804987420893049"><ele>149.0</ele><time>2026-04-06T09:13:50.999Z</time></trkpt><trkpt lat="37.58729117523877" lon="14.805118223595905"><ele>149.0</ele><time>2026-04-06T09:13:52.999Z</time></trkpt><trkpt lat="37.58727466494551" lon="14.805260420360632"><ele>149.0</ele><time>2026-04-06T09:13:54.999Z</time></trkpt><trkpt lat="37.58724255952363" lon="14.805377321382867"><ele>149.0</ele><time>2026-04-06T09:13:56.999Z</time></trkpt><trkpt lat="37.58718508738088" lon="14.805425417290694"><ele>149.0</ele><time>2026-04-06T09:13:57.999Z</time></trkpt><trkpt lat="37.58710729337149" lon="14.805473231589957"><ele>149.5</ele><time>2026-04-06T09:13:58.999Z</time></trkpt><trkpt lat="37.587044325049284" lon="14.805505669216425"><ele>150.0</ele><time>2026-04-06T09:13:59.999Z</time></trkpt><trkpt lat="37.58699040386596" lon="14.805562963257136"><ele>150.5</ele><time>2026-04-06T09:14:00.999Z</time></trkpt><trkpt lat="37.58693285006264" lon="14.805676664777437"><ele>151.0</ele><time>2026-04-06T09:14:02.999Z</time></trkpt><trkpt lat="37.58689675702079" lon="14.805796121068338"><ele>151.5</ele><time>2026-04-06T09:14:04.999Z</time></trkpt><trkpt lat="37.58685268680772" lon="14.80585298049301"><ele>152.0</ele><time>2026-04-06T09:14:05.999Z</time></trkpt><trkpt lat="37.58675033020568" lon="14.805899041074005"><ele>151.33333333333331</ele><time>2026-04-06T09:14:07.999Z</time></trkpt><trkpt lat="37.586681971245184" lon="14.805918949705468"><ele>150.66666666666666</ele><time>2026-04-06T09:14:08.999Z</time></trkpt><trkpt lat="37.5865958692389" lon="14.805947169689448"><ele>150.0</ele><time>2026-04-06T09:14:09.999Z</time></trkpt><trkpt lat="37.58651656571787" lon="14.805999546044836"><ele>149.33333333333334</ele><time>2026-04-06T09:14:10.999Z</time></trkpt><trkpt lat="37.58643300025174" lon="14.806045648062334"><ele>148.66666666666669</ele><time>2026-04-06T09:14:11.999Z</time></trkpt><trkpt lat="37.586358465597904" lon="14.806053317962395"><ele>148.0</ele><time>2026-04-06T09:14:12.999Z</time></trkpt><trkpt lat="37.58629190820839" lon="14.806027546272757"><ele>148.0</ele><time>2026-04-06T09:14:13.999Z</time></trkpt><trkpt lat="37.5862192846645" lon="14.80600490555292"><ele>148.0</ele><time>2026-04-06T09:14:14.999Z</time></trkpt><trkpt lat="37.58612058086933" lon="14.806000931877325"><ele>148.0</ele><time>2026-04-06T09:14:16.999Z</time></trkpt><trkpt lat="37.58606053158097" lon="14.8060455603039"><ele>148.0</ele><time>2026-04-06T09:14:18.999Z</time></trkpt><trkpt lat="37.585999353026196" lon="14.806119228063514"><ele>148.0</ele><time>2026-04-06T09:14:20.999Z</time></trkpt><trkpt lat="37.5859467506467" lon="14.806221056626221"><ele>148.0</ele><time>2026-04-06T09:14:22.999Z</time></trkpt><trkpt lat="37.5859089619813" lon="14.806347433181372"><ele>147.16666666666669</ele><time>2026-04-06T09:14:25Z</time></trkpt><trkpt lat="37.5858787147995" lon="14.806439811248401"><ele>146.33333333333334</ele><time>2026-04-06T09:14:27Z</time></trkpt><trkpt lat="37.58583444897832" lon="14.80653348057566"><ele>145.5</ele><time>2026-04-06T09:14:30Z</time></trkpt><trkpt lat="37.5857821239754" lon="14.80662244674389"><ele>144.66666666666666</ele><time>2026-04-06T09:14:32Z</time></trkpt><trkpt lat="37.58573408453384" lon="14.806689747423974"><ele>143.83333333333331</ele><time>2026-04-06T09:14:33Z</time></trkpt><trkpt lat="37.58567628170918" lon="14.806776366241836"><ele>143.0</ele><time>2026-04-06T09:14:34Z</time></trkpt><trkpt lat="37.58562447811393" lon="14.806833427193725"><ele>143.0</ele><time>2026-04-06T09:14:35Z</time></trkpt><trkpt lat="37.58553160709337" lon="14.806929212086875"><ele>143.0</ele><time>2026-04-06T09:14:37Z</time></trkpt><trkpt lat="37.58542515133142" lon="14.806998109359217"><ele>143.0</ele><time>2026-04-06T09:14:39Z</time></trkpt><trkpt lat="37.58535095266669" lon="14.807031749615746"><ele>143.0</ele><time>2026-04-06T09:14:40Z</time></trkpt><trkpt lat="37.58527211431608" lon="14.807055485138282"><ele>143.0</ele><time>2026-04-06T09:14:41Z</time></trkpt><trkpt lat="37.58518049661566" lon="14.80707558325219"><ele>142.8</ele><time>2026-04-06T09:14:42Z</time></trkpt><trkpt lat="37.58510478667356" lon="14.807105021356449"><ele>142.60000000000002</ele><time>2026-04-06T09:14:43Z</time></trkpt><trkpt lat="37.58504904988309" lon="14.807149389581639"><ele>142.39999999999998</ele><time>2026-04-06T09:14:44Z</time></trkpt><trkpt lat="37.584979339844665" lon="14.807231367836941"><ele>142.2</ele><time>2026-04-06T09:14:46Z</time></trkpt><trkpt lat="37.58490527072168" lon="14.807358038529427"><ele>142.0</ele><time>2026-04-06T09:14:48Z</time></trkpt><trkpt lat="37.58483507293161" lon="14.807464509876635"><ele>142.0</ele><time>2026-04-06T09:14:50Z</time></trkpt><trkpt lat="37.58479072172549" lon="14.807576505050779"><ele>142.0</ele><time>2026-04-06T09:14:52Z</time></trkpt><trkpt lat="37.584718724189166" lon="14.80771093957085"><ele>142.0</ele><time>2026-04-06T09:14:54Z</time></trkpt><trkpt lat="37.58467689856391" lon="14.807778365190936"><ele>142.0</ele><time>2026-04-06T09:14:55Z</time></trkpt><trkpt lat="37.584588965540355" lon="14.807861660736133"><ele>142.0</ele><time>2026-04-06T09:14:57Z</time></trkpt><trkpt lat="37.584531557351546" lon="14.807902781062213"><ele>142.16666666666669</ele><time>2026-04-06T09:14:58Z</time></trkpt><trkpt lat="37.584459057782105" lon="14.807942558473993"><ele>142.33333333333334</ele><time>2026-04-06T09:15:00Z</time></trkpt><trkpt lat="37.584450754022455" lon="14.80785194250058"><ele>142.5</ele><time>2026-04-06T09:15:04Z</time></trkpt><trkpt lat="37.584470280862625" lon="14.807703533284105"><ele>142.66666666666666</ele><time>2026-04-06T09:15:06Z</time></trkpt><trkpt lat="37.584452967947094" lon="14.807586771213298"><ele>142.83333333333331</ele><time>2026-04-06T09:15:08Z</time></trkpt><trkpt lat="37.584428021120985" lon="14.807493857976574"><ele>143.0</ele><time>2026-04-06T09:15:10Z</time></trkpt><trkpt lat="37.58438171502832" lon="14.807429940411966"><ele>143.0</ele><time>2026-04-06T09:15:12Z</time></trkpt><trkpt lat="37.58440936011885" lon="14.80733822571554"><ele>143.0</ele><time>2026-04-06T09:15:17Z</time></trkpt><trkpt lat="37.584470561964004" lon="14.80738492857616"><ele>143.0</ele><time>2026-04-06T09:15:19Z</time></trkpt><trkpt lat="37.58447037648445" lon="14.80749552685648"><ele>143.0</ele><time>2026-04-06T09:15:21Z</time></trkpt><trkpt lat="37.58447583867168" lon="14.807611488625199"><ele>143.0</ele><time>2026-04-06T09:15:23Z</time></trkpt><trkpt lat="37.584479439433586" lon="14.80771798487555"><ele>143.0</ele><time>2026-04-06T09:15:25Z</time></trkpt><trkpt lat="37.58448802432492" lon="14.807830471324868"><ele>142.20000000000002</ele><time>2026-04-06T09:15:27Z</time></trkpt><trkpt lat="37.584461048736735" lon="14.807936357344152"><ele>141.4</ele><time>2026-04-06T09:15:29Z</time></trkpt><trkpt lat="37.584356958160434" lon="14.808022237250578"><ele>140.60000000000002</ele><time>2026-04-06T09:15:31Z</time></trkpt><trkpt lat="37.5842683031998" lon="14.808067240490919"><ele>139.8</ele><time>2026-04-06T09:15:32Z</time></trkpt><trkpt lat="37.584167316604244" lon="14.808122956797801"><ele>139.0</ele><time>2026-04-06T09:15:33Z</time></trkpt><trkpt lat="37.58409022650058" lon="14.80816715683766"><ele>139.0</ele><time>2026-04-06T09:15:33.999Z</time></trkpt><trkpt lat="37.58401836111917" lon="14.808201779597768"><ele>139.0</ele><time>2026-04-06T09:15:34.999Z</time></trkpt><trkpt lat="37.583920439069985" lon="14.808237444102566"><ele>139.0</ele><time>2026-04-06T09:15:36.999Z</time></trkpt><trkpt lat="37.583827372005594" lon="14.808265799104662"><ele>139.0</ele><time>2026-04-06T09:15:38.999Z</time></trkpt><trkpt lat="37.58372726128241" lon="14.808208944635508"><ele>139.0</ele><time>2026-04-06T09:15:40.999Z</time></trkpt><trkpt lat="37.5836509430138" lon="14.808212848227518"><ele>138.4</ele><time>2026-04-06T09:15:42.999Z</time></trkpt><trkpt lat="37.5836039276406" lon="14.808314188581173"><ele>137.8</ele><time>2026-04-06T09:15:44.999Z</time></trkpt><trkpt lat="37.5835992354626" lon="14.80840138296055"><ele>137.2</ele><time>2026-04-06T09:15:45.999Z</time></trkpt><trkpt lat="37.583520681936214" lon="14.80851358749013"><ele>136.6</ele><time>2026-04-06T09:15:47.999Z</time></trkpt><trkpt lat="37.58345644156464" lon="14.808579419052963"><ele>136.0</ele><time>2026-04-06T09:15:48.999Z</time></trkpt><trkpt lat="37.58338679376146" lon="14.80865448850441"><ele>136.0</ele><time>2026-04-06T09:15:49.999Z</time></trkpt><trkpt lat="37.58332953926248" lon="14.808761350253315"><ele>136.0</ele><time>2026-04-06T09:15:51.999Z</time></trkpt><trkpt lat="37.583270383630214" lon="14.80883085226337"><ele>136.0</ele><time>2026-04-06T09:15:52.999Z</time></trkpt><trkpt lat="37.58321484223103" lon="14.808895413090953"><ele>136.0</ele><time>2026-04-06T09:15:53.999Z</time></trkpt><trkpt lat="37.5831532520369" lon="14.808945806241947"><ele>136.0</ele><time>2026-04-06T09:15:54.999Z</time></trkpt><trkpt lat="37.583063543842734" lon="14.809022337410894"><ele>136.0</ele><time>2026-04-06T09:15:56.999Z</time></trkpt><trkpt lat="37.58296021375308" lon="14.80910538098019"><ele>136.0</ele><time>2026-04-06T09:15:58.999Z</time></trkpt><trkpt lat="37.58288779865341" lon="14.809163504664463"><ele>136.0</ele><time>2026-04-06T09:15:59.999Z</time></trkpt><trkpt lat="37.58281743462345" lon="14.80921729185812"><ele>136.0</ele><time>2026-04-06T09:16:00.999Z</time></trkpt><trkpt lat="37.58270775688889" lon="14.809301268207603"><ele>136.0</ele><time>2026-04-06T09:16:02.999Z</time></trkpt><trkpt lat="37.582620199445316" lon="14.809378926295318"><ele>136.0</ele><time>2026-04-06T09:16:04.999Z</time></trkpt><trkpt lat="37.58257570600738" lon="14.809493463819736"><ele>135.6</ele><time>2026-04-06T09:16:06.999Z</time></trkpt><trkpt lat="37.58255863009378" lon="14.809583115937492"><ele>135.2</ele><time>2026-04-06T09:16:07.999Z</time></trkpt><trkpt lat="37.58253964504504" lon="14.809700730705611"><ele>134.8</ele><time>2026-04-06T09:16:08.999Z</time></trkpt><trkpt lat="37.58250967225169" lon="14.809836757563296"><ele>134.4</ele><time>2026-04-06T09:16:09.999Z</time></trkpt><trkpt lat="37.582486008467704" lon="14.809964138864947"><ele>134.0</ele><time>2026-04-06T09:16:10.999Z</time></trkpt><trkpt lat="37.582467059728806" lon="14.810067898611779"><ele>134.4</ele><time>2026-04-06T09:16:11.999Z</time></trkpt><trkpt lat="37.582425071091414" lon="14.810181546278018"><ele>134.8</ele><time>2026-04-06T09:16:13.999Z</time></trkpt><trkpt lat="37.58236285396941" lon="14.810309626568355"><ele>135.2</ele><time>2026-04-06T09:16:15.999Z</time></trkpt><trkpt lat="37.58232736636926" lon="14.810389772025436"><ele>135.6</ele><time>2026-04-06T09:16:16.999Z</time></trkpt><trkpt lat="37.58225905817076" lon="14.810444247370656"><ele>136.0</ele><time>2026-04-06T09:16:18.999Z</time></trkpt><trkpt lat="37.58217161635886" lon="14.810495437221402"><ele>136.0</ele><time>2026-04-06T09:16:20.999Z</time></trkpt><trkpt lat="37.58206871346234" lon="14.810523130667258"><ele>136.0</ele><time>2026-04-06T09:16:22.999Z</time></trkpt><trkpt lat="37.58200279729447" lon="14.810546464185402"><ele>136.0</ele><time>2026-04-06T09:16:23.999Z</time></trkpt><trkpt lat="37.581873219202514" lon="14.810555397382247"><ele>136.0</ele><time>2026-04-06T09:16:25.999Z</time></trkpt><trkpt lat="37.581799197911074" lon="14.81054971521134"><ele>136.0</ele><time>2026-04-06T09:16:26.999Z</time></trkpt><trkpt lat="37.581701089155715" lon="14.810406260400695"><ele>136.0</ele><time>2026-04-06T09:16:28.999Z</time></trkpt><trkpt lat="37.58164128157608" lon="14.810255548158882"><ele>136.0</ele><time>2026-04-06T09:16:30Z</time></trkpt><trkpt lat="37.581563966424184" lon="14.81012160843648"><ele>136.0</ele><time>2026-04-06T09:16:31Z</time></trkpt><trkpt lat="37.58141806098352" lon="14.810069906371913"><ele>136.0</ele><time>2026-04-06T09:16:32Z</time></trkpt><trkpt lat="37.581360009547964" lon="14.810024222359486"><ele>136.0</ele><time>2026-04-06T09:16:36Z</time></trkpt><trkpt lat="37.58130953885081" lon="14.809916372280005"><ele>136.0</ele><time>2026-04-06T09:16:39Z</time></trkpt><trkpt lat="37.58125859053526" lon="14.809824305245808"><ele>136.0</ele><time>2026-04-06T09:16:41Z</time></trkpt><trkpt lat="37.58125603072095" lon="14.809922344158597"><ele>136.0</ele><time>2026-04-06T09:17:10Z</time></trkpt><trkpt lat="37.581298295093056" lon="14.809986108981944"><ele>136.0</ele><time>2026-04-06T09:17:11Z</time></trkpt><trkpt lat="37.581334499728506" lon="14.81007318661128"><ele>136.0</ele><time>2026-04-06T09:17:12Z</time></trkpt><trkpt lat="37.5813822103159" lon="14.810187824315527"><ele>136.0</ele><time>2026-04-06T09:17:13Z</time></trkpt><trkpt lat="37.58143241914564" lon="14.810301875265381"><ele>136.0</ele><time>2026-04-06T09:17:14Z</time></trkpt><trkpt lat="37.58146854588522" lon="14.810391610584118"><ele>136.0</ele><time>2026-04-06T09:17:15Z</time></trkpt><trkpt lat="37.58151889261411" lon="14.81050773165498"><ele>136.0</ele><time>2026-04-06T09:17:17Z</time></trkpt><trkpt lat="37.58156776893371" lon="14.810651485846384"><ele>136.0</ele><time>2026-04-06T09:17:19Z</time></trkpt><trkpt lat="37.5815993593488" lon="14.810767525911164"><ele>136.0</ele><time>2026-04-06T09:17:20Z</time></trkpt><trkpt lat="37.58163520619549" lon="14.81089835143778"><ele>136.0</ele><time>2026-04-06T09:17:21Z</time></trkpt><trkpt lat="37.58167171750562" lon="14.811037929740898"><ele>136.0</ele><time>2026-04-06T09:17:22Z</time></trkpt><trkpt lat="37.58169518791987" lon="14.811180966603265"><ele>136.0</ele><time>2026-04-06T09:17:23Z</time></trkpt><trkpt lat="37.581702740250606" lon="14.81133375114083"><ele>135.75</ele><time>2026-04-06T09:17:24Z</time></trkpt><trkpt lat="37.581699258147445" lon="14.811506675925306"><ele>135.5</ele><time>2026-04-06T09:17:25Z</time></trkpt><trkpt lat="37.58168699131666" lon="14.811697809367677"><ele>135.25</ele><time>2026-04-06T09:17:26Z</time></trkpt><trkpt lat="37.58167363773666" lon="14.811887849745458"><ele>135.0</ele><time>2026-04-06T09:17:27Z</time></trkpt><trkpt lat="37.58166750734771" lon="14.812062669698284"><ele>135.0</ele><time>2026-04-06T09:17:28Z</time></trkpt><trkpt lat="37.58165760157386" lon="14.812218438854037"><ele>135.0</ele><time>2026-04-06T09:17:29Z</time></trkpt><trkpt lat="37.58165917470585" lon="14.812372508340568"><ele>135.0</ele><time>2026-04-06T09:17:30Z</time></trkpt><trkpt lat="37.5816609249546" lon="14.812516549642263"><ele>135.0</ele><time>2026-04-06T09:17:31Z</time></trkpt><trkpt lat="37.5816723750206" lon="14.812650884953959"><ele>134.8</ele><time>2026-04-06T09:17:32Z</time></trkpt><trkpt lat="37.581684887557124" lon="14.812778035006543"><ele>134.6</ele><time>2026-04-06T09:17:33Z</time></trkpt><trkpt lat="37.58169764942485" lon="14.812900301978562"><ele>134.4</ele><time>2026-04-06T09:17:34Z</time></trkpt><trkpt lat="37.58171362433974" lon="14.813015024085521"><ele>134.2</ele><time>2026-04-06T09:17:34.999Z</time></trkpt><trkpt lat="37.58174377003845" lon="14.813118843433935"><ele>134.0</ele><time>2026-04-06T09:17:35.999Z</time></trkpt><trkpt lat="37.581779570391646" lon="14.813216696503593"><ele>134.0</ele><time>2026-04-06T09:17:36.999Z</time></trkpt><trkpt lat="37.58180979044097" lon="14.813308093662599"><ele>134.0</ele><time>2026-04-06T09:17:37.999Z</time></trkpt><trkpt lat="37.58183484087809" lon="14.813397384536273"><ele>134.0</ele><time>2026-04-06T09:17:38.999Z</time></trkpt><trkpt lat="37.581874110329515" lon="14.813460433972436"><ele>134.0</ele><time>2026-04-06T09:17:39.999Z</time></trkpt><trkpt lat="37.58190411314884" lon="14.813537139574493"><ele>134.0</ele><time>2026-04-06T09:17:40.999Z</time></trkpt><trkpt lat="37.581932178930956" lon="14.81360996094485"><ele>134.0</ele><time>2026-04-06T09:17:41.999Z</time></trkpt><trkpt lat="37.58196597621037" lon="14.813695406719582"><ele>134.0</ele><time>2026-04-06T09:17:42.999Z</time></trkpt><trkpt lat="37.58200488070509" lon="14.8137922877955"><ele>133.33333333333331</ele><time>2026-04-06T09:17:43.999Z</time></trkpt><trkpt lat="37.58204893529757" lon="14.813874767521114"><ele>132.66666666666666</ele><time>2026-04-06T09:17:44.999Z</time></trkpt><trkpt lat="37.58208434547005" lon="14.813944205129125"><ele>132.0</ele><time>2026-04-06T09:17:45.999Z</time></trkpt><trkpt lat="37.58212589277094" lon="14.814006251717814"><ele>131.33333333333334</ele><time>2026-04-06T09:17:46.999Z</time></trkpt><trkpt lat="37.58220801929884" lon="14.814104258677455"><ele>130.66666666666669</ele><time>2026-04-06T09:17:48.999Z</time></trkpt><trkpt lat="37.58225262755367" lon="14.814162266535767"><ele>130.0</ele><time>2026-04-06T09:17:49.999Z</time></trkpt><trkpt lat="37.58233176649577" lon="14.814277641489902"><ele>130.0</ele><time>2026-04-06T09:17:51.999Z</time></trkpt><trkpt lat="37.58241640721776" lon="14.814392838499437"><ele>130.0</ele><time>2026-04-06T09:17:53.999Z</time></trkpt><trkpt lat="37.58246252677366" lon="14.81445178668723"><ele>130.0</ele><time>2026-04-06T09:17:54.999Z</time></trkpt><trkpt lat="37.582508941744315" lon="14.814508787607972"><ele>130.0</ele><time>2026-04-06T09:17:55.999Z</time></trkpt><trkpt lat="37.582556697126904" lon="14.814563792227919"><ele>130.0</ele><time>2026-04-06T09:17:56.999Z</time></trkpt><trkpt lat="37.582613599976256" lon="14.814617903672874"><ele>130.0</ele><time>2026-04-06T09:17:57.999Z</time></trkpt><trkpt lat="37.58272105054429" lon="14.814700961805407"><ele>130.0</ele><time>2026-04-06T09:17:59.999Z</time></trkpt><trkpt lat="37.582821686848135" lon="14.814791072873119"><ele>130.0</ele><time>2026-04-06T09:18:01.999Z</time></trkpt><trkpt lat="37.58291365464777" lon="14.814881548928374"><ele>130.0</ele><time>2026-04-06T09:18:03.999Z</time></trkpt><trkpt lat="37.58300682691742" lon="14.814955687464924"><ele>130.0</ele><time>2026-04-06T09:18:05.999Z</time></trkpt><trkpt lat="37.58312360440997" lon="14.815043555287316"><ele>130.0</ele><time>2026-04-06T09:18:07.999Z</time></trkpt><trkpt lat="37.583195040839726" lon="14.815104439757947"><ele>130.0</ele><time>2026-04-06T09:18:08.999Z</time></trkpt><trkpt lat="37.58328088810513" lon="14.815180666674252"><ele>130.0</ele><time>2026-04-06T09:18:09.999Z</time></trkpt><trkpt lat="37.58338358601085" lon="14.815264888299565"><ele>130.0</ele><time>2026-04-06T09:18:10.999Z</time></trkpt><trkpt lat="37.58348687368715" lon="14.815364928077061"><ele>130.0</ele><time>2026-04-06T09:18:11.999Z</time></trkpt><trkpt lat="37.58359075905032" lon="14.815472207427433"><ele>130.0</ele><time>2026-04-06T09:18:12.999Z</time></trkpt><trkpt lat="37.583704561196484" lon="14.815577281825517"><ele>130.0</ele><time>2026-04-06T09:18:13.999Z</time></trkpt><trkpt lat="37.583820136995385" lon="14.81567698237029"><ele>130.0</ele><time>2026-04-06T09:18:14.999Z</time></trkpt><trkpt lat="37.58392934012705" lon="14.815776018078196"><ele>130.0</ele><time>2026-04-06T09:18:15.999Z</time></trkpt><trkpt lat="37.58404738168782" lon="14.815882985689314"><ele>128.66666666666669</ele><time>2026-04-06T09:18:16.999Z</time></trkpt><trkpt lat="37.584172528086626" lon="14.815999621525473"><ele>127.33333333333334</ele><time>2026-04-06T09:18:17.999Z</time></trkpt><trkpt lat="37.58430067411085" lon="14.816110498241017"><ele>126.0</ele><time>2026-04-06T09:18:18.999Z</time></trkpt><trkpt lat="37.58443492885952" lon="14.816219358434113"><ele>127.25</ele><time>2026-04-06T09:18:19.999Z</time></trkpt><trkpt lat="37.584564352083056" lon="14.816327744305509"><ele>128.5</ele><time>2026-04-06T09:18:20.999Z</time></trkpt><trkpt lat="37.58468649937424" lon="14.81643280487789"><ele>129.75</ele><time>2026-04-06T09:18:21.999Z</time></trkpt><trkpt lat="37.58479608838369" lon="14.816534141756591"><ele>131.0</ele><time>2026-04-06T09:18:22.999Z</time></trkpt><trkpt lat="37.584904246155766" lon="14.81663054088902"><ele>131.0</ele><time>2026-04-06T09:18:23.999Z</time></trkpt><trkpt lat="37.58502880941945" lon="14.816730631366852"><ele>131.0</ele><time>2026-04-06T09:18:24.999Z</time></trkpt><trkpt lat="37.585163321944016" lon="14.81682855429052"><ele>131.0</ele><time>2026-04-06T09:18:25.999Z</time></trkpt><trkpt lat="37.58529020688552" lon="14.816927992751564"><ele>130.6</ele><time>2026-04-06T09:18:26.999Z</time></trkpt><trkpt lat="37.585397182475205" lon="14.81701165479313"><ele>130.2</ele><time>2026-04-06T09:18:27.999Z</time></trkpt><trkpt lat="37.58549369704367" lon="14.81707958373607"><ele>129.8</ele><time>2026-04-06T09:18:28.999Z</time></trkpt><trkpt lat="37.585598400610124" lon="14.817124874493242"><ele>129.4</ele><time>2026-04-06T09:18:29.999Z</time></trkpt><trkpt lat="37.58569607348538" lon="14.817151341892032"><ele>129.0</ele><time>2026-04-06T09:18:30.999Z</time></trkpt><trkpt lat="37.58579645295994" lon="14.817153627889093"><ele>129.0</ele><time>2026-04-06T09:18:31.999Z</time></trkpt><trkpt lat="37.58589858853872" lon="14.817119894538305"><ele>129.0</ele><time>2026-04-06T09:18:32.999Z</time></trkpt><trkpt lat="37.58599647349267" lon="14.817071657240442"><ele>129.0</ele><time>2026-04-06T09:18:33.999Z</time></trkpt><trkpt lat="37.58611050327794" lon="14.81699167380108"><ele>129.0</ele><time>2026-04-06T09:18:34.999Z</time></trkpt><trkpt lat="37.58624361047008" lon="14.81691868782563"><ele>129.0</ele><time>2026-04-06T09:18:36Z</time></trkpt><trkpt lat="37.58635637180957" lon="14.816835817186746"><ele>129.0</ele><time>2026-04-06T09:18:37Z</time></trkpt><trkpt lat="37.586469134611185" lon="14.816753446644306"><ele>129.0</ele><time>2026-04-06T09:18:38Z</time></trkpt><trkpt lat="37.58658373989614" lon="14.816669871482524"><ele>129.0</ele><time>2026-04-06T09:18:39Z</time></trkpt><trkpt lat="37.58669595710122" lon="14.816588038192982"><ele>129.75</ele><time>2026-04-06T09:18:40Z</time></trkpt><trkpt lat="37.586803048050044" lon="14.816509942990468"><ele>130.5</ele><time>2026-04-06T09:18:41Z</time></trkpt><trkpt lat="37.586912099423245" lon="14.816432782972047"><ele>131.25</ele><time>2026-04-06T09:18:42Z</time></trkpt><trkpt lat="37.587015222608386" lon="14.816360347743663"><ele>132.0</ele><time>2026-04-06T09:18:43Z</time></trkpt><trkpt lat="37.58711704209299" lon="14.816288828256951"><ele>132.0</ele><time>2026-04-06T09:18:44Z</time></trkpt><trkpt lat="37.587227206199195" lon="14.816214048570576"><ele>132.0</ele><time>2026-04-06T09:18:45Z</time></trkpt><trkpt lat="37.58732560910777" lon="14.816104981862429"><ele>132.0</ele><time>2026-04-06T09:18:46Z</time></trkpt><trkpt lat="37.58744466077734" lon="14.816034913335747"><ele>132.0</ele><time>2026-04-06T09:18:47Z</time></trkpt><trkpt lat="37.58757190839848" lon="14.81596855716959"><ele>132.75</ele><time>2026-04-06T09:18:48Z</time></trkpt><trkpt lat="37.58770266838718" lon="14.815898479269324"><ele>133.5</ele><time>2026-04-06T09:18:49Z</time></trkpt><trkpt lat="37.58783703624756" lon="14.815829847130278"><ele>134.25</ele><time>2026-04-06T09:18:50Z</time></trkpt><trkpt lat="37.5879636290236" lon="14.81576794567221"><ele>135.0</ele><time>2026-04-06T09:18:51Z</time></trkpt><trkpt lat="37.58808649775719" lon="14.815706345963303"><ele>135.0</ele><time>2026-04-06T09:18:52Z</time></trkpt><trkpt lat="37.58820591247956" lon="14.815645836001753"><ele>135.0</ele><time>2026-04-06T09:18:53Z</time></trkpt><trkpt lat="37.58832061808532" lon="14.815588807667801"><ele>135.0</ele><time>2026-04-06T09:18:54Z</time></trkpt><trkpt lat="37.58842101890014" lon="14.815538469662174"><ele>135.0</ele><time>2026-04-06T09:18:55Z</time></trkpt><trkpt lat="37.58852007065674" lon="14.815488228012178"><ele>135.0</ele><time>2026-04-06T09:18:56Z</time></trkpt><trkpt lat="37.588613840948035" lon="14.81544299757408"><ele>135.0</ele><time>2026-04-06T09:18:57Z</time></trkpt><trkpt lat="37.58870034541801" lon="14.815394633141112"><ele>135.0</ele><time>2026-04-06T09:18:58Z</time></trkpt><trkpt lat="37.588780863850246" lon="14.8153502759142"><ele>135.0</ele><time>2026-04-06T09:18:59Z</time></trkpt><trkpt lat="37.58885522720344" lon="14.815305886832224"><ele>135.0</ele><time>2026-04-06T09:19:00Z</time></trkpt><trkpt lat="37.58893682406503" lon="14.815255443142537"><ele>135.2</ele><time>2026-04-06T09:19:01Z</time></trkpt><trkpt lat="37.58902785471288" lon="14.815228253890393"><ele>135.4</ele><time>2026-04-06T09:19:02Z</time></trkpt><trkpt lat="37.58910784152751" lon="14.815164007229185"><ele>135.6</ele><time>2026-04-06T09:19:03Z</time></trkpt><trkpt lat="37.58919899821285" lon="14.815138105062623"><ele>135.8</ele><time>2026-04-06T09:19:04Z</time></trkpt><trkpt lat="37.58928499459978" lon="14.815098590911688"><ele>136.0</ele><time>2026-04-06T09:19:05Z</time></trkpt><trkpt lat="37.58937650300862" lon="14.815049932916688"><ele>136.33333333333334</ele><time>2026-04-06T09:19:06Z</time></trkpt><trkpt lat="37.58945165592413" lon="14.81498349505347"><ele>136.66666666666669</ele><time>2026-04-06T09:19:07Z</time></trkpt><trkpt lat="37.58954005126151" lon="14.814936320410528"><ele>137.0</ele><time>2026-04-06T09:19:08Z</time></trkpt><trkpt lat="37.58962606962493" lon="14.81488680328503"><ele>137.33333333333334</ele><time>2026-04-06T09:19:09Z</time></trkpt><trkpt lat="37.589694046112385" lon="14.814844078163299"><ele>137.66666666666666</ele><time>2026-04-06T09:19:10Z</time></trkpt><trkpt lat="37.58975624473414" lon="14.814800342495113"><ele>138.0</ele><time>2026-04-06T09:19:11Z</time></trkpt><trkpt lat="37.58982464796753" lon="14.814736158576283"><ele>138.0</ele><time>2026-04-06T09:19:12Z</time></trkpt><trkpt lat="37.589910823011216" lon="14.814694572127886"><ele>138.0</ele><time>2026-04-06T09:19:13Z</time></trkpt><trkpt lat="37.58998536904574" lon="14.814637488378546"><ele>138.0</ele><time>2026-04-06T09:19:14Z</time></trkpt><trkpt lat="37.59005428882813" lon="14.814583108831581"><ele>138.0</ele><time>2026-04-06T09:19:15Z</time></trkpt><trkpt lat="37.5901200407376" lon="14.814531228821386"><ele>138.0</ele><time>2026-04-06T09:19:16Z</time></trkpt><trkpt lat="37.590189228965194" lon="14.814475023184787"><ele>138.0</ele><time>2026-04-06T09:19:17Z</time></trkpt><trkpt lat="37.59026017820975" lon="14.814417321892234"><ele>137.8</ele><time>2026-04-06T09:19:18Z</time></trkpt><trkpt lat="37.59034156446609" lon="14.814351132525928"><ele>137.60000000000002</ele><time>2026-04-06T09:19:19Z</time></trkpt><trkpt lat="37.59043165086605" lon="14.814290752398604"><ele>137.39999999999998</ele><time>2026-04-06T09:19:20Z</time></trkpt><trkpt lat="37.59052207604223" lon="14.814248370255665"><ele>137.2</ele><time>2026-04-06T09:19:21Z</time></trkpt><trkpt lat="37.59060452854991" lon="14.814213829392845"><ele>137.0</ele><time>2026-04-06T09:19:22Z</time></trkpt><trkpt lat="37.59067845832883" lon="14.814186755451937"><ele>137.0</ele><time>2026-04-06T09:19:23Z</time></trkpt><trkpt lat="37.59074571030378" lon="14.81416212700436"><ele>137.0</ele><time>2026-04-06T09:19:24Z</time></trkpt><trkpt lat="37.59081138257634" lon="14.814137260695336"><ele>137.0</ele><time>2026-04-06T09:19:25Z</time></trkpt><trkpt lat="37.59087222706626" lon="14.81411367821967"><ele>137.0</ele><time>2026-04-06T09:19:26Z</time></trkpt><trkpt lat="37.59096712490638" lon="14.814076897186167"><ele>137.0</ele><time>2026-04-06T09:19:27Z</time></trkpt><trkpt lat="37.591059735831436" lon="14.814041002450658"><ele>137.0</ele><time>2026-04-06T09:19:28Z</time></trkpt><trkpt lat="37.5911746845208" lon="14.813998284173502"><ele>137.25</ele><time>2026-04-06T09:19:29Z</time></trkpt><trkpt lat="37.59130188280999" lon="14.813953471665192"><ele>137.5</ele><time>2026-04-06T09:19:29.999Z</time></trkpt><trkpt lat="37.591429759286456" lon="14.813886347388358"><ele>137.75</ele><time>2026-04-06T09:19:30.999Z</time></trkpt><trkpt lat="37.59156228658559" lon="14.813833761432022"><ele>138.0</ele><time>2026-04-06T09:19:31.999Z</time></trkpt><trkpt lat="37.59168377218059" lon="14.813780983974269"><ele>138.0</ele><time>2026-04-06T09:19:32.999Z</time></trkpt><trkpt lat="37.591796145261256" lon="14.813729745996623"><ele>138.0</ele><time>2026-04-06T09:19:33.999Z</time></trkpt><trkpt lat="37.59190548179753" lon="14.813672881706866"><ele>138.0</ele><time>2026-04-06T09:19:34.999Z</time></trkpt><trkpt lat="37.59201444962941" lon="14.81361562701189"><ele>138.0</ele><time>2026-04-06T09:19:36Z</time></trkpt><trkpt lat="37.59213532995759" lon="14.81357702874331"><ele>137.25</ele><time>2026-04-06T09:19:36.999Z</time></trkpt><trkpt lat="37.59225555154627" lon="14.813516414332442"><ele>136.5</ele><time>2026-04-06T09:19:37.999Z</time></trkpt><trkpt lat="37.59236556790699" lon="14.813440235492756"><ele>135.75</ele><time>2026-04-06T09:19:38.999Z</time></trkpt><trkpt lat="37.59249092305057" lon="14.813399466810209"><ele>135.0</ele><time>2026-04-06T09:19:39.999Z</time></trkpt><trkpt lat="37.59260470943555" lon="14.81334377534471"><ele>135.75</ele><time>2026-04-06T09:19:40.999Z</time></trkpt><trkpt lat="37.59271002509986" lon="14.813292229763896"><ele>136.5</ele><time>2026-04-06T09:19:41.999Z</time></trkpt><trkpt lat="37.59289426434798" lon="14.813202197837438"><ele>137.25</ele><time>2026-04-06T09:19:43.999Z</time></trkpt><trkpt lat="37.59299407914451" lon="14.813153618972523"><ele>138.0</ele><time>2026-04-06T09:19:44.999Z</time></trkpt><trkpt lat="37.59309428386614" lon="14.81310485035296"><ele>138.0</ele><time>2026-04-06T09:19:45.999Z</time></trkpt><trkpt lat="37.59319899204538" lon="14.813053889927616"><ele>138.0</ele><time>2026-04-06T09:19:46.999Z</time></trkpt><trkpt lat="37.59330394033924" lon="14.813001115216641"><ele>138.0</ele><time>2026-04-06T09:19:47.999Z</time></trkpt><trkpt lat="37.593409964004955" lon="14.812947499667365"><ele>138.0</ele><time>2026-04-06T09:19:48.999Z</time></trkpt><trkpt lat="37.59350935086495" lon="14.812897240313745"><ele>138.0</ele><time>2026-04-06T09:19:49.999Z</time></trkpt><trkpt lat="37.59360178722339" lon="14.812850495966945"><ele>138.16666666666666</ele><time>2026-04-06T09:19:50.999Z</time></trkpt><trkpt lat="37.593683872443506" lon="14.812791892238536"><ele>138.33333333333334</ele><time>2026-04-06T09:19:51.999Z</time></trkpt><trkpt lat="37.59376899841323" lon="14.812762686097916"><ele>138.5</ele><time>2026-04-06T09:19:52.999Z</time></trkpt><trkpt lat="37.59384237689084" lon="14.812702070305845"><ele>138.66666666666669</ele><time>2026-04-06T09:19:53.999Z</time></trkpt><trkpt lat="37.59392168739319" lon="14.812660485684981"><ele>138.83333333333334</ele><time>2026-04-06T09:19:54.999Z</time></trkpt><trkpt lat="37.593998982529115" lon="14.812620984035823"><ele>139.0</ele><time>2026-04-06T09:19:55.999Z</time></trkpt><trkpt lat="37.59407051218715" lon="14.81258024516543"><ele>139.0</ele><time>2026-04-06T09:19:56.999Z</time></trkpt><trkpt lat="37.59415603434136" lon="14.812534831957526"><ele>139.0</ele><time>2026-04-06T09:19:57.999Z</time></trkpt><trkpt lat="37.59424021497908" lon="14.812483117148723"><ele>139.0</ele><time>2026-04-06T09:19:58.999Z</time></trkpt><trkpt lat="37.594318947342664" lon="14.81244613389966"><ele>139.0</ele><time>2026-04-06T09:19:59.999Z</time></trkpt><trkpt lat="37.594384938571785" lon="14.812423073047063"><ele>139.0</ele><time>2026-04-06T09:20:00.999Z</time></trkpt><trkpt lat="37.59447067760082" lon="14.812427863719353"><ele>139.0</ele><time>2026-04-06T09:20:01.999Z</time></trkpt><trkpt lat="37.59453967495724" lon="14.812442312286702"><ele>139.0</ele><time>2026-04-06T09:20:02.999Z</time></trkpt><trkpt lat="37.59460435493829" lon="14.812477019911094"><ele>139.0</ele><time>2026-04-06T09:20:03.999Z</time></trkpt><trkpt lat="37.59465558380569" lon="14.812546298537637"><ele>139.0</ele><time>2026-04-06T09:20:04.999Z</time></trkpt><trkpt lat="37.59471977962324" lon="14.812626578413155"><ele>139.0</ele><time>2026-04-06T09:20:05.999Z</time></trkpt><trkpt lat="37.59480380228452" lon="14.812695780698004"><ele>139.0</ele><time>2026-04-06T09:20:06.999Z</time></trkpt><trkpt lat="37.594882355380065" lon="14.81279390141837"><ele>139.0</ele><time>2026-04-06T09:20:07.999Z</time></trkpt><trkpt lat="37.59496877388872" lon="14.81288000788257"><ele>138.83333333333334</ele><time>2026-04-06T09:20:08.999Z</time></trkpt><trkpt lat="37.59504900387791" lon="14.812960165813948"><ele>138.66666666666669</ele><time>2026-04-06T09:20:09.999Z</time></trkpt><trkpt lat="37.595111491552245" lon="14.813031003835818"><ele>138.5</ele><time>2026-04-06T09:20:10.999Z</time></trkpt><trkpt lat="37.595184294970345" lon="14.813074811402284"><ele>138.33333333333334</ele><time>2026-04-06T09:20:11.999Z</time></trkpt><trkpt lat="37.5952527191883" lon="14.813080066366956"><ele>138.16666666666666</ele><time>2026-04-06T09:20:12.999Z</time></trkpt><trkpt lat="37.59534566832758" lon="14.813121598111811"><ele>138.0</ele><time>2026-04-06T09:20:13.999Z</time></trkpt><trkpt lat="37.595457738510994" lon="14.813125695640235"><ele>138.0</ele><time>2026-04-06T09:20:14.999Z</time></trkpt><trkpt lat="37.59558213860267" lon="14.813153991541656"><ele>138.0</ele><time>2026-04-06T09:20:15.999Z</time></trkpt><trkpt lat="37.59570881351182" lon="14.813178774478132"><ele>138.0</ele><time>2026-04-06T09:20:16.999Z</time></trkpt><trkpt lat="37.595819061377455" lon="14.813212999963445"><ele>138.0</ele><time>2026-04-06T09:20:17.999Z</time></trkpt><trkpt lat="37.59592347061549" lon="14.813268185201698"><ele>138.0</ele><time>2026-04-06T09:20:18.999Z</time></trkpt><trkpt lat="37.5960237539406" lon="14.813337514820715"><ele>138.0</ele><time>2026-04-06T09:20:19.999Z</time></trkpt><trkpt lat="37.59612742588191" lon="14.813427334124977"><ele>138.0</ele><time>2026-04-06T09:20:20.999Z</time></trkpt><trkpt lat="37.59626637455425" lon="14.81348545580006"><ele>138.0</ele><time>2026-04-06T09:20:21.999Z</time></trkpt><trkpt lat="37.59641342158029" lon="14.813575327143703"><ele>137.33333333333334</ele><time>2026-04-06T09:20:22.999Z</time></trkpt><trkpt lat="37.59661938358543" lon="14.813654769232631"><ele>136.66666666666669</ele><time>2026-04-06T09:20:23.999Z</time></trkpt><trkpt lat="37.59676704218489" lon="14.813766181889894"><ele>136.0</ele><time>2026-04-06T09:20:24.999Z</time></trkpt><trkpt lat="37.59690988752225" lon="14.813890778127309"><ele>136.0</ele><time>2026-04-06T09:20:25.999Z</time></trkpt><trkpt lat="37.59703958228315" lon="14.814030796260136"><ele>136.0</ele><time>2026-04-06T09:20:26.999Z</time></trkpt><trkpt lat="37.59718000044662" lon="14.81418917653809"><ele>136.0</ele><time>2026-04-06T09:20:27.999Z</time></trkpt><trkpt lat="37.597317145554655" lon="14.814351969820567"><ele>136.0</ele><time>2026-04-06T09:20:28.999Z</time></trkpt><trkpt lat="37.597447976388324" lon="14.814509268027214"><ele>136.0</ele><time>2026-04-06T09:20:29.999Z</time></trkpt><trkpt lat="37.59756935007714" lon="14.814655165999728"><ele>136.0</ele><time>2026-04-06T09:20:30.999Z</time></trkpt><trkpt lat="37.5976889597704" lon="14.814800334420086"><ele>136.0</ele><time>2026-04-06T09:20:31.999Z</time></trkpt><trkpt lat="37.59779622211231" lon="14.814931655777729"><ele>136.0</ele><time>2026-04-06T09:20:32.999Z</time></trkpt><trkpt lat="37.5978940971316" lon="14.815051484066297"><ele>136.0</ele><time>2026-04-06T09:20:33.999Z</time></trkpt><trkpt lat="37.597983052069246" lon="14.815155563842943"><ele>136.0</ele><time>2026-04-06T09:20:34.999Z</time></trkpt><trkpt lat="37.598074546050505" lon="14.815213986876403"><ele>136.6</ele><time>2026-04-06T09:20:35.999Z</time></trkpt><trkpt lat="37.59815200018547" lon="14.815260665563168"><ele>137.2</ele><time>2026-04-06T09:20:36.999Z</time></trkpt><trkpt lat="37.59823141916649" lon="14.815264593684518"><ele>137.8</ele><time>2026-04-06T09:20:37.999Z</time></trkpt><trkpt lat="37.59832407758446" lon="14.815235753281417"><ele>138.4</ele><time>2026-04-06T09:20:38.999Z</time></trkpt><trkpt lat="37.598417800426354" lon="14.815165920322013"><ele>139.0</ele><time>2026-04-06T09:20:39.999Z</time></trkpt><trkpt lat="37.5985139622177" lon="14.815084645370176"><ele>140.25</ele><time>2026-04-06T09:20:40.999Z</time></trkpt><trkpt lat="37.598611586688754" lon="14.814970533459233"><ele>141.5</ele><time>2026-04-06T09:20:41.999Z</time></trkpt><trkpt lat="37.59870439324647" lon="14.814851701053783"><ele>142.75</ele><time>2026-04-06T09:20:42.999Z</time></trkpt><trkpt lat="37.59878568668072" lon="14.814739503468736"><ele>144.0</ele><time>2026-04-06T09:20:43.999Z</time></trkpt><trkpt lat="37.59885695554559" lon="14.814650752293456"><ele>144.0</ele><time>2026-04-06T09:20:44.999Z</time></trkpt><trkpt lat="37.59891362100992" lon="14.814600917243432"><ele>144.0</ele><time>2026-04-06T09:20:45.999Z</time></trkpt><trkpt lat="37.599021598759286" lon="14.814588690020441"><ele>144.0</ele><time>2026-04-06T09:20:49.999Z</time></trkpt><trkpt lat="37.59900707492354" lon="14.814411161055334"><ele>144.0</ele><time>2026-04-06T09:20:50.999Z</time></trkpt><trkpt lat="37.59892161240071" lon="14.81432135570164"><ele>144.0</ele><time>2026-04-06T09:20:52.999Z</time></trkpt><trkpt lat="37.5988766793013" lon="14.81425224712431"><ele>145.0</ele><time>2026-04-06T09:20:53.999Z</time></trkpt><trkpt lat="37.59883784986183" lon="14.814153200494204"><ele>146.0</ele><time>2026-04-06T09:20:54.999Z</time></trkpt><trkpt lat="37.59880478376865" lon="14.814043870987819"><ele>147.0</ele><time>2026-04-06T09:20:55.999Z</time></trkpt><trkpt lat="37.598768973343645" lon="14.813926026789481"><ele>148.0</ele><time>2026-04-06T09:20:56.999Z</time></trkpt><trkpt lat="37.59872500831374" lon="14.813806095277265"><ele>149.0</ele><time>2026-04-06T09:20:57.999Z</time></trkpt><trkpt lat="37.59869511821415" lon="14.813698483431343"><ele>149.2</ele><time>2026-04-06T09:20:58.999Z</time></trkpt><trkpt lat="37.59865995053221" lon="14.81361161393939"><ele>149.4</ele><time>2026-04-06T09:20:59.999Z</time></trkpt><trkpt lat="37.59858492422163" lon="14.81352372843846"><ele>149.6</ele><time>2026-04-06T09:21:00.999Z</time></trkpt><trkpt lat="37.59849788917063" lon="14.813437387437292"><ele>149.8</ele><time>2026-04-06T09:21:01.999Z</time></trkpt><trkpt lat="37.598402984906016" lon="14.813363270391132"><ele>150.0</ele><time>2026-04-06T09:21:02.999Z</time></trkpt><trkpt lat="37.598315433571265" lon="14.813303593853988"><ele>150.8</ele><time>2026-04-06T09:21:03.999Z</time></trkpt><trkpt lat="37.59823916884592" lon="14.813255501997078"><ele>151.6</ele><time>2026-04-06T09:21:04.999Z</time></trkpt><trkpt lat="37.59817806094485" lon="14.813187824248523"><ele>152.4</ele><time>2026-04-06T09:21:05.999Z</time></trkpt><trkpt lat="37.59813024206536" lon="14.81307915911861"><ele>153.2</ele><time>2026-04-06T09:21:06.999Z</time></trkpt><trkpt lat="37.5981146028976" lon="14.812934425447656"><ele>154.0</ele><time>2026-04-06T09:21:07.999Z</time></trkpt><trkpt lat="37.59807618044521" lon="14.812790148678898"><ele>156.0</ele><time>2026-04-06T09:21:08.999Z</time></trkpt><trkpt lat="37.59805402524003" lon="14.81264024264052"><ele>158.0</ele><time>2026-04-06T09:21:09.999Z</time></trkpt><trkpt lat="37.59801913831915" lon="14.812480789187482"><ele>160.0</ele><time>2026-04-06T09:21:10.999Z</time></trkpt><trkpt lat="37.59799600554639" lon="14.812312623956439"><ele>162.0</ele><time>2026-04-06T09:21:11.999Z</time></trkpt><trkpt lat="37.59799471558748" lon="14.812137901599103"><ele>162.0</ele><time>2026-04-06T09:21:12.999Z</time></trkpt><trkpt lat="37.59799381495276" lon="14.811957102978146"><ele>162.0</ele><time>2026-04-06T09:21:13.999Z</time></trkpt><trkpt lat="37.59799061455173" lon="14.811773206667826"><ele>162.0</ele><time>2026-04-06T09:21:14.999Z</time></trkpt><trkpt lat="37.59799538781254" lon="14.811615343504187"><ele>162.0</ele><time>2026-04-06T09:21:15.999Z</time></trkpt><trkpt lat="37.598019934459" lon="14.811464873810557"><ele>164.0</ele><time>2026-04-06T09:21:16.999Z</time></trkpt><trkpt lat="37.59804591702944" lon="14.81130814996314"><ele>166.0</ele><time>2026-04-06T09:21:17.999Z</time></trkpt><trkpt lat="37.598081914149176" lon="14.811160449990256"><ele>168.0</ele><time>2026-04-06T09:21:18.999Z</time></trkpt><trkpt lat="37.59812619751145" lon="14.81102155570339"><ele>170.0</ele><time>2026-04-06T09:21:19.999Z</time></trkpt><trkpt lat="37.59818154308932" lon="14.810878118923943"><ele>170.8</ele><time>2026-04-06T09:21:20.999Z</time></trkpt><trkpt lat="37.598241464685685" lon="14.810750662719078"><ele>171.6</ele><time>2026-04-06T09:21:21.999Z</time></trkpt><trkpt lat="37.59828913434958" lon="14.810654741548504"><ele>172.39999999999998</ele><time>2026-04-06T09:21:22.999Z</time></trkpt><trkpt lat="37.59832593195135" lon="14.810564733052079"><ele>173.2</ele><time>2026-04-06T09:21:24.999Z</time></trkpt><trkpt lat="37.59837312912746" lon="14.810498557017473"><ele>174.0</ele><time>2026-04-06T09:21:31.999Z</time></trkpt><trkpt lat="37.598436985530554" lon="14.810406295393083"><ele>174.0</ele><time>2026-04-06T09:21:33.999Z</time></trkpt><trkpt lat="37.59846502585444" lon="14.81031592020416"><ele>174.0</ele><time>2026-04-06T09:21:34.999Z</time></trkpt><trkpt lat="37.59850921296387" lon="14.810227370299755"><ele>174.0</ele><time>2026-04-06T09:21:35.999Z</time></trkpt><trkpt lat="37.59852449039152" lon="14.810128141356042"><ele>174.0</ele><time>2026-04-06T09:21:36.999Z</time></trkpt><trkpt lat="37.59850450356308" lon="14.810013830831656"><ele>174.0</ele><time>2026-04-06T09:21:37.999Z</time></trkpt><trkpt lat="37.5984783618418" lon="14.809897701033432"><ele>174.0</ele><time>2026-04-06T09:21:38.999Z</time></trkpt><trkpt lat="37.59845675614178" lon="14.809770868421275"><ele>175.25</ele><time>2026-04-06T09:21:39.999Z</time></trkpt><trkpt lat="37.59843628028739" lon="14.809623848110878"><ele>176.5</ele><time>2026-04-06T09:21:40.999Z</time></trkpt><trkpt lat="37.59841634036776" lon="14.809470293612147"><ele>177.75</ele><time>2026-04-06T09:21:41.999Z</time></trkpt><trkpt lat="37.598396646051796" lon="14.809313136236828"><ele>179.0</ele><time>2026-04-06T09:21:42.999Z</time></trkpt><trkpt lat="37.59838352447627" lon="14.809154674685466"><ele>180.25</ele><time>2026-04-06T09:21:43.999Z</time></trkpt><trkpt lat="37.59836864947328" lon="14.80899521915973"><ele>181.5</ele><time>2026-04-06T09:21:44.999Z</time></trkpt><trkpt lat="37.59835711882889" lon="14.80881976634573"><ele>182.75</ele><time>2026-04-06T09:21:45.999Z</time></trkpt><trkpt lat="37.59834379337743" lon="14.808634279679987"><ele>184.0</ele><time>2026-04-06T09:21:46.999Z</time></trkpt><trkpt lat="37.59832897145335" lon="14.808450665797698"><ele>185.66666666666669</ele><time>2026-04-06T09:21:47.999Z</time></trkpt><trkpt lat="37.59830631856165" lon="14.808253448087896"><ele>187.33333333333334</ele><time>2026-04-06T09:21:48.999Z</time></trkpt><trkpt lat="37.59828599558841" lon="14.80805978506277"><ele>189.0</ele><time>2026-04-06T09:21:49.999Z</time></trkpt><trkpt lat="37.598264939751246" lon="14.80786759120064"><ele>189.0</ele><time>2026-04-06T09:21:50.999Z</time></trkpt><trkpt lat="37.598245760398434" lon="14.807674757953517"><ele>189.0</ele><time>2026-04-06T09:21:51.999Z</time></trkpt><trkpt lat="37.598224099174196" lon="14.80749230103311"><ele>189.0</ele><time>2026-04-06T09:21:52.999Z</time></trkpt><trkpt lat="37.59820050137579" lon="14.807318518073314"><ele>189.0</ele><time>2026-04-06T09:21:53.999Z</time></trkpt><trkpt lat="37.59816846612633" lon="14.807147488145691"><ele>190.0</ele><time>2026-04-06T09:21:54.999Z</time></trkpt><trkpt lat="37.59812993123446" lon="14.8069778152234"><ele>191.0</ele><time>2026-04-06T09:21:55.999Z</time></trkpt><trkpt lat="37.598086731300654" lon="14.806824265139829"><ele>192.0</ele><time>2026-04-06T09:21:56.999Z</time></trkpt><trkpt lat="37.59805149609467" lon="14.806691002206527"><ele>193.0</ele><time>2026-04-06T09:21:57.999Z</time></trkpt><trkpt lat="37.598017315963865" lon="14.806576479455433"><ele>193.0</ele><time>2026-04-06T09:21:58.999Z</time></trkpt><trkpt lat="37.59797709730274" lon="14.806462937487394"><ele>193.0</ele><time>2026-04-06T09:21:59.999Z</time></trkpt><trkpt lat="37.59792125980209" lon="14.806366174309144"><ele>193.0</ele><time>2026-04-06T09:22:00.999Z</time></trkpt><trkpt lat="37.59784613311254" lon="14.806275340708957"><ele>193.0</ele><time>2026-04-06T09:22:01.999Z</time></trkpt><trkpt lat="37.59781092970795" lon="14.806183208494046"><ele>193.0</ele><time>2026-04-06T09:22:02.999Z</time></trkpt><trkpt lat="37.59781390582476" lon="14.806048860338604"><ele>194.0</ele><time>2026-04-06T09:22:03.999Z</time></trkpt><trkpt lat="37.59778782782306" lon="14.805899467500032"><ele>195.0</ele><time>2026-04-06T09:22:04.999Z</time></trkpt><trkpt lat="37.59778123841268" lon="14.80573287068301"><ele>196.0</ele><time>2026-04-06T09:22:05.999Z</time></trkpt><trkpt lat="37.597771822184164" lon="14.80556411058369"><ele>197.0</ele><time>2026-04-06T09:22:06.999Z</time></trkpt><trkpt lat="37.59775811932664" lon="14.805404488117338"><ele>197.0</ele><time>2026-04-06T09:22:07.999Z</time></trkpt><trkpt lat="37.597747259037234" lon="14.805258784554546"><ele>197.0</ele><time>2026-04-06T09:22:08.999Z</time></trkpt><trkpt lat="37.597737731671415" lon="14.805118568207812"><ele>197.0</ele><time>2026-04-06T09:22:09.999Z</time></trkpt><trkpt lat="37.59775547714126" lon="14.805001940891255"><ele>197.0</ele><time>2026-04-06T09:22:10.999Z</time></trkpt><trkpt lat="37.59782602892434" lon="14.804899249561448"><ele>197.0</ele><time>2026-04-06T09:22:11.999Z</time></trkpt><trkpt lat="37.597851233643915" lon="14.804774475333485"><ele>199.0</ele><time>2026-04-06T09:22:12.999Z</time></trkpt><trkpt lat="37.597893932858426" lon="14.804682482449113"><ele>201.0</ele><time>2026-04-06T09:22:13.999Z</time></trkpt><trkpt lat="37.597896990092" lon="14.80456545911669"><ele>203.0</ele><time>2026-04-06T09:22:14.999Z</time></trkpt><trkpt lat="37.59787575892278" lon="14.80444768953848"><ele>205.0</ele><time>2026-04-06T09:22:15.999Z</time></trkpt><trkpt lat="37.59784752068328" lon="14.80430694340479"><ele>207.0</ele><time>2026-04-06T09:22:16.999Z</time></trkpt><trkpt lat="37.59782847652931" lon="14.804165075926752"><ele>207.2</ele><time>2026-04-06T09:22:17.999Z</time></trkpt><trkpt lat="37.59781934622629" lon="14.804016145509907"><ele>207.39999999999998</ele><time>2026-04-06T09:22:18.999Z</time></trkpt><trkpt lat="37.597822363955636" lon="14.80386432861996"><ele>207.60000000000002</ele><time>2026-04-06T09:22:19.999Z</time></trkpt><trkpt lat="37.59781379288113" lon="14.803720407678643"><ele>207.8</ele><time>2026-04-06T09:22:20.999Z</time></trkpt><trkpt lat="37.5978227205957" lon="14.80360379387358"><ele>208.0</ele><time>2026-04-06T09:22:21.999Z</time></trkpt><trkpt lat="37.5978290437137" lon="14.80347778889431"><ele>208.60000000000002</ele><time>2026-04-06T09:22:22.999Z</time></trkpt><trkpt lat="37.597830286910465" lon="14.803342094158747"><ele>209.20000000000002</ele><time>2026-04-06T09:22:23.999Z</time></trkpt><trkpt lat="37.59785368014462" lon="14.803215629531394"><ele>209.8</ele><time>2026-04-06T09:22:24.999Z</time></trkpt><trkpt lat="37.59789176171514" lon="14.803081639765777"><ele>210.4</ele><time>2026-04-06T09:22:25.999Z</time></trkpt><trkpt lat="37.59794337062507" lon="14.80293820397453"><ele>211.0</ele><time>2026-04-06T09:22:26.999Z</time></trkpt><trkpt lat="37.59798920606221" lon="14.802774669310345"><ele>213.66666666666666</ele><time>2026-04-06T09:22:27.999Z</time></trkpt><trkpt lat="37.59802732465771" lon="14.802596758437248"><ele>216.33333333333331</ele><time>2026-04-06T09:22:28.999Z</time></trkpt><trkpt lat="37.598058693675426" lon="14.802406588700324"><ele>219.0</ele><time>2026-04-06T09:22:29.999Z</time></trkpt><trkpt lat="37.598087359974066" lon="14.80221017957133"><ele>219.0</ele><time>2026-04-06T09:22:30.999Z</time></trkpt><trkpt lat="37.5981191672147" lon="14.80199768386811"><ele>219.0</ele><time>2026-04-06T09:22:31.999Z</time></trkpt><trkpt lat="37.59815501141203" lon="14.801781240523256"><ele>219.0</ele><time>2026-04-06T09:22:32.999Z</time></trkpt><trkpt lat="37.59818435060635" lon="14.801579084868777"><ele>220.5</ele><time>2026-04-06T09:22:33.999Z</time></trkpt><trkpt lat="37.59820652399881" lon="14.801390607830896"><ele>222.0</ele><time>2026-04-06T09:22:34.999Z</time></trkpt><trkpt lat="37.59822100315003" lon="14.801192974090176"><ele>223.5</ele><time>2026-04-06T09:22:35.999Z</time></trkpt><trkpt lat="37.598229430793026" lon="14.801022327910665"><ele>225.0</ele><time>2026-04-06T09:22:36.999Z</time></trkpt><trkpt lat="37.59823188677129" lon="14.800880092265698"><ele>226.6</ele><time>2026-04-06T09:22:37.999Z</time></trkpt><trkpt lat="37.59823101313372" lon="14.80076816006289"><ele>228.2</ele><time>2026-04-06T09:22:38.999Z</time></trkpt><trkpt lat="37.598231863465585" lon="14.800638165614888"><ele>229.8</ele><time>2026-04-06T09:22:39.999Z</time></trkpt><trkpt lat="37.5982329131808" lon="14.800516065221714"><ele>231.4</ele><time>2026-04-06T09:22:40.999Z</time></trkpt><trkpt lat="37.59823604526328" lon="14.80039121216902"><ele>233.0</ele><time>2026-04-06T09:22:41.998Z</time></trkpt><trkpt lat="37.5982432415071" lon="14.800290080242469"><ele>233.0</ele><time>2026-04-06T09:22:42.998Z</time></trkpt><trkpt lat="37.598250536424885" lon="14.800207076190079"><ele>233.0</ele><time>2026-04-06T09:22:43.998Z</time></trkpt><trkpt lat="37.59824824911126" lon="14.800113498312482"><ele>233.0</ele><time>2026-04-06T09:22:44.998Z</time></trkpt><trkpt lat="37.59824255547718" lon="14.80003055924322"><ele>233.0</ele><time>2026-04-06T09:22:45.998Z</time></trkpt><trkpt lat="37.59822535050554" lon="14.799948371953164"><ele>233.0</ele><time>2026-04-06T09:22:46.998Z</time></trkpt><trkpt lat="37.59818948289018" lon="14.799868623516597"><ele>233.0</ele><time>2026-04-06T09:22:47.999Z</time></trkpt><trkpt lat="37.59813794903489" lon="14.799794200132999"><ele>233.0</ele><time>2026-04-06T09:22:48.999Z</time></trkpt><trkpt lat="37.598082617891336" lon="14.799719686958031"><ele>233.83333333333334</ele><time>2026-04-06T09:22:49.999Z</time></trkpt><trkpt lat="37.59806241882268" lon="14.799618697800607"><ele>234.66666666666669</ele><time>2026-04-06T09:22:50.999Z</time></trkpt><trkpt lat="37.598026877344125" lon="14.799522141936125"><ele>235.5</ele><time>2026-04-06T09:22:51.999Z</time></trkpt><trkpt lat="37.598010674309094" lon="14.79940985469851"><ele>236.33333333333331</ele><time>2026-04-06T09:22:52.999Z</time></trkpt><trkpt lat="37.59798627665187" lon="14.79930629660811"><ele>237.16666666666666</ele><time>2026-04-06T09:22:53.999Z</time></trkpt><trkpt lat="37.59794040771871" lon="14.799214937149276"><ele>238.0</ele><time>2026-04-06T09:22:54.999Z</time></trkpt><trkpt lat="37.59788045630256" lon="14.799127589292947"><ele>240.8</ele><time>2026-04-06T09:22:56Z</time></trkpt><trkpt lat="37.597809667598725" lon="14.799054253162915"><ele>243.60000000000002</ele><time>2026-04-06T09:22:57Z</time></trkpt><trkpt lat="37.59775219816763" lon="14.798910422237004"><ele>246.39999999999998</ele><time>2026-04-06T09:22:59Z</time></trkpt><trkpt lat="37.59774271767995" lon="14.798801405301417"><ele>249.2</ele><time>2026-04-06T09:23:00Z</time></trkpt><trkpt lat="37.597741184460524" lon="14.798699092215537"><ele>252.0</ele><time>2026-04-06T09:23:01Z</time></trkpt><trkpt lat="37.597739371412004" lon="14.798595503020834"><ele>252.0</ele><time>2026-04-06T09:23:02Z</time></trkpt><trkpt lat="37.597727695578556" lon="14.798507988073478"><ele>252.0</ele><time>2026-04-06T09:23:03Z</time></trkpt><trkpt lat="37.59770374370345" lon="14.798422360351186"><ele>252.0</ele><time>2026-04-06T09:23:04Z</time></trkpt><trkpt lat="37.597661918317996" lon="14.798331491535299"><ele>252.0</ele><time>2026-04-06T09:23:05Z</time></trkpt><trkpt lat="37.59759940137307" lon="14.798232649850235"><ele>252.0</ele><time>2026-04-06T09:23:06Z</time></trkpt><trkpt lat="37.597523760807135" lon="14.798134357541926"><ele>252.0</ele><time>2026-04-06T09:23:07Z</time></trkpt><trkpt lat="37.59745114484819" lon="14.798050818336684"><ele>251.66666666666666</ele><time>2026-04-06T09:23:08Z</time></trkpt><trkpt lat="37.59738674145585" lon="14.797991115297597"><ele>251.33333333333331</ele><time>2026-04-06T09:23:09Z</time></trkpt><trkpt lat="37.597312493616776" lon="14.797953013141536"><ele>251.0</ele><time>2026-04-06T09:23:10Z</time></trkpt><trkpt lat="37.597219794263985" lon="14.797933470807795"><ele>250.66666666666666</ele><time>2026-04-06T09:23:11Z</time></trkpt><trkpt lat="37.59712413668023" lon="14.797940044757588"><ele>250.33333333333331</ele><time>2026-04-06T09:23:12Z</time></trkpt><trkpt lat="37.59704411660964" lon="14.797954364816972"><ele>250.0</ele><time>2026-04-06T09:23:13Z</time></trkpt><trkpt lat="37.59698306906363" lon="14.797922068506805"><ele>249.99999999999997</ele><time>2026-04-06T09:23:14Z</time></trkpt><trkpt lat="37.596920826085686" lon="14.797876470648072"><ele>250.0</ele><time>2026-04-06T09:23:16Z</time></trkpt><trkpt lat="37.59694218490583" lon="14.79771910277616"><ele>250.0</ele><time>2026-04-06T09:23:19Z</time></trkpt><trkpt lat="37.59696521148737" lon="14.797635761036563"><ele>250.0</ele><time>2026-04-06T09:23:20Z</time></trkpt><trkpt lat="37.596994437593935" lon="14.797530527604549"><ele>249.99999999999997</ele><time>2026-04-06T09:23:21Z</time></trkpt><trkpt lat="37.59702562949711" lon="14.797430201788716"><ele>250.0</ele><time>2026-04-06T09:23:22Z</time></trkpt><trkpt lat="37.59705649047481" lon="14.797333659717943"><ele>249.99999999999997</ele><time>2026-04-06T09:23:23Z</time></trkpt><trkpt lat="37.59707884652126" lon="14.797255876458596"><ele>250.0</ele><time>2026-04-06T09:23:24Z</time></trkpt><trkpt lat="37.59708372744836" lon="14.79717258417322"><ele>250.0</ele><time>2026-04-06T09:23:25Z</time></trkpt><trkpt lat="37.59702255439729" lon="14.797039157234561"><ele>250.0</ele><time>2026-04-06T09:23:27Z</time></trkpt><trkpt lat="37.5969606767213" lon="14.796936797665218"><ele>249.99999999999997</ele><time>2026-04-06T09:23:29Z</time></trkpt><trkpt lat="37.596978244143976" lon="14.796827798888847"><ele>250.0</ele><time>2026-04-06T09:23:31Z</time></trkpt><trkpt lat="37.59701180719905" lon="14.796752400016913"><ele>248.33333333333331</ele><time>2026-04-06T09:23:32Z</time></trkpt><trkpt lat="37.59704509605663" lon="14.796677204629189"><ele>246.66666666666666</ele><time>2026-04-06T09:23:33Z</time></trkpt><trkpt lat="37.597076279319914" lon="14.796595228217782"><ele>245.0</ele><time>2026-04-06T09:23:33.999Z</time></trkpt><trkpt lat="37.59710985992019" lon="14.7964551344443"><ele>243.33333333333331</ele><time>2026-04-06T09:23:35.999Z</time></trkpt><trkpt lat="37.59713847623388" lon="14.796357737509954"><ele>241.66666666666666</ele><time>2026-04-06T09:23:36.999Z</time></trkpt><trkpt lat="37.597200890525016" lon="14.796319955047755"><ele>240.0</ele><time>2026-04-06T09:23:37.999Z</time></trkpt><trkpt lat="37.59726701944208" lon="14.796273679448328"><ele>240.0</ele><time>2026-04-06T09:23:38.999Z</time></trkpt><trkpt lat="37.59733619336052" lon="14.796207788529886"><ele>240.0</ele><time>2026-04-06T09:23:39.999Z</time></trkpt><trkpt lat="37.59738793570732" lon="14.796159423519136"><ele>240.0</ele><time>2026-04-06T09:23:40.999Z</time></trkpt><trkpt lat="37.597442590804924" lon="14.796073490169103"><ele>240.0</ele><time>2026-04-06T09:23:41.999Z</time></trkpt><trkpt lat="37.59752462428619" lon="14.796010978366027"><ele>240.0</ele><time>2026-04-06T09:23:42.999Z</time></trkpt><trkpt lat="37.59763074285818" lon="14.795915340446122"><ele>239.8</ele><time>2026-04-06T09:23:43.999Z</time></trkpt><trkpt lat="37.597719459487905" lon="14.79584234641842"><ele>239.6</ele><time>2026-04-06T09:23:44.999Z</time></trkpt><trkpt lat="37.59779828066847" lon="14.795769221272305"><ele>239.39999999999998</ele><time>2026-04-06T09:23:45.999Z</time></trkpt><trkpt lat="37.59786488174623" lon="14.795684100874405"><ele>239.2</ele><time>2026-04-06T09:23:46.999Z</time></trkpt><trkpt lat="37.597918000610456" lon="14.795614810254467"><ele>239.0</ele><time>2026-04-06T09:23:47.999Z</time></trkpt><trkpt lat="37.59798912067777" lon="14.795502681338338"><ele>239.0</ele><time>2026-04-06T09:23:49.999Z</time></trkpt><trkpt lat="37.597999916247595" lon="14.795370587619276"><ele>238.99999999999997</ele><time>2026-04-06T09:23:51.999Z</time></trkpt><trkpt lat="37.59799181886784" lon="14.795227094865997"><ele>238.99999999999997</ele><time>2026-04-06T09:23:53.999Z</time></trkpt><trkpt lat="37.59797652424736" lon="14.795146162643707"><ele>239.0</ele><time>2026-04-06T09:23:54.999Z</time></trkpt><trkpt lat="37.597957586869434" lon="14.795043999122345"><ele>239.0</ele><time>2026-04-06T09:23:55.999Z</time></trkpt><trkpt lat="37.59794161939035" lon="14.79492996305505"><ele>238.83333333333334</ele><time>2026-04-06T09:23:56.999Z</time></trkpt><trkpt lat="37.59793525111701" lon="14.794836712833076"><ele>238.66666666666669</ele><time>2026-04-06T09:23:57.999Z</time></trkpt><trkpt lat="37.597933920565154" lon="14.794751700175478"><ele>238.5</ele><time>2026-04-06T09:23:58.999Z</time></trkpt><trkpt lat="37.59791875492499" lon="14.794658706149331"><ele>238.33333333333331</ele><time>2026-04-06T09:23:59.999Z</time></trkpt><trkpt lat="37.5978798572914" lon="14.79456217671616"><ele>238.16666666666666</ele><time>2026-04-06T09:24:00.999Z</time></trkpt><trkpt lat="37.59782969612082" lon="14.794464017739147"><ele>238.0</ele><time>2026-04-06T09:24:01.999Z</time></trkpt><trkpt lat="37.59778153548044" lon="14.79437324158366"><ele>238.2</ele><time>2026-04-06T09:24:02.999Z</time></trkpt><trkpt lat="37.59773929310887" lon="14.794304555540624"><ele>238.4</ele><time>2026-04-06T09:24:03.999Z</time></trkpt><trkpt lat="37.597696769269334" lon="14.794163052136836"><ele>238.59999999999997</ele><time>2026-04-06T09:24:05.999Z</time></trkpt><trkpt lat="37.59775827068971" lon="14.794016294406"><ele>238.79999999999998</ele><time>2026-04-06T09:24:07.999Z</time></trkpt><trkpt lat="37.59784331649683" lon="14.79391508769867"><ele>239.0</ele><time>2026-04-06T09:24:09.999Z</time></trkpt><trkpt lat="37.59793399741134" lon="14.793819450817955"><ele>239.39999999999998</ele><time>2026-04-06T09:24:11.999Z</time></trkpt><trkpt lat="37.598033804763055" lon="14.793711483259283"><ele>239.79999999999998</ele><time>2026-04-06T09:24:13.999Z</time></trkpt><trkpt lat="37.59809916971052" lon="14.793643123669458"><ele>240.20000000000002</ele><time>2026-04-06T09:24:14.999Z</time></trkpt><trkpt lat="37.59816836767717" lon="14.793568186004775"><ele>240.60000000000002</ele><time>2026-04-06T09:24:15.999Z</time></trkpt><trkpt lat="37.59824277228694" lon="14.79349242669137"><ele>241.0</ele><time>2026-04-06T09:24:16.999Z</time></trkpt><trkpt lat="37.59831588780816" lon="14.793431500837688"><ele>241.4</ele><time>2026-04-06T09:24:17.999Z</time></trkpt><trkpt lat="37.598387010048725" lon="14.79342498323689"><ele>241.8</ele><time>2026-04-06T09:24:18.999Z</time></trkpt><trkpt lat="37.598496400607544" lon="14.79337989358192"><ele>242.20000000000002</ele><time>2026-04-06T09:24:20.999Z</time></trkpt><trkpt lat="37.59862455313264" lon="14.793340245369999"><ele>242.60000000000002</ele><time>2026-04-06T09:24:22.999Z</time></trkpt><trkpt lat="37.598669213207714" lon="14.793271402711042"><ele>243.0</ele><time>2026-04-06T09:24:23.999Z</time></trkpt><trkpt lat="37.59874918564513" lon="14.793224760818674"><ele>246.5</ele><time>2026-04-06T09:24:26.999Z</time></trkpt><trkpt lat="37.598733896602" lon="14.793009911883141"><ele>250.0</ele><time>2026-04-06T09:24:28.999Z</time></trkpt><trkpt lat="37.59880998145879" lon="14.792895172451978"><ele>253.5</ele><time>2026-04-06T09:24:30.999Z</time></trkpt><trkpt lat="37.59890143499442" lon="14.792811478323543"><ele>257.0</ele><time>2026-04-06T09:24:32.999Z</time></trkpt><trkpt lat="37.59895791448314" lon="14.792761706362976"><ele>257.0</ele><time>2026-04-06T09:24:33.999Z</time></trkpt><trkpt lat="37.59905217849702" lon="14.792688958860728"><ele>257.0</ele><time>2026-04-06T09:24:35.999Z</time></trkpt><trkpt lat="37.59922241616121" lon="14.79306306827943"><ele>257.0</ele><time>2026-04-06T09:24:36.999Z</time></trkpt><trkpt lat="37.59914929425951" lon="14.793063121514512"><ele>257.0</ele><time>2026-04-06T09:24:45.999Z</time></trkpt><trkpt lat="37.599078672333285" lon="14.793060037438357"><ele>257.0</ele><time>2026-04-06T09:24:48.999Z</time></trkpt><trkpt lat="37.599008437429795" lon="14.793108067159437"><ele>257.0</ele><time>2026-04-06T09:24:51.999Z</time></trkpt><trkpt lat="37.598955400625975" lon="14.793162583607257"><ele>257.0</ele><time>2026-04-06T09:24:54Z</time></trkpt><trkpt lat="37.598890034757616" lon="14.793180904577394"><ele>257.0</ele><time>2026-04-06T09:24:56Z</time></trkpt><trkpt lat="37.598816462802866" lon="14.793169399340616"><ele>257.0</ele><time>2026-04-06T09:24:58Z</time></trkpt><trkpt lat="37.598743217911746" lon="14.793187561885793"><ele>257.0</ele><time>2026-04-06T09:25:00Z</time></trkpt><trkpt lat="37.59867557780654" lon="14.793179779967533"><ele>257.0</ele><time>2026-04-06T09:25:03Z</time></trkpt><trkpt lat="37.59871346741739" lon="14.793060397236989"><ele>257.0</ele><time>2026-04-06T09:25:05Z</time></trkpt><trkpt lat="37.59874610983972" lon="14.792979548115742"><ele>257.0</ele><time>2026-04-06T09:25:06Z</time></trkpt><trkpt lat="37.5987781864292" lon="14.792901710643356"><ele>257.0</ele><time>2026-04-06T09:25:07Z</time></trkpt><trkpt lat="37.59881800104527" lon="14.79283397885421"><ele>257.0</ele><time>2026-04-06T09:25:08Z</time></trkpt><trkpt lat="37.5988767603921" lon="14.792778007322894"><ele>257.0</ele><time>2026-04-06T09:25:09Z</time></trkpt><trkpt lat="37.598951882316406" lon="14.792715688454289"><ele>257.0</ele><time>2026-04-06T09:25:10Z</time></trkpt><trkpt lat="37.59904297580028" lon="14.792672728928565"><ele>257.0</ele><time>2026-04-06T09:25:11Z</time></trkpt><trkpt lat="37.599114430059174" lon="14.79262785038435"><ele>257.0</ele><time>2026-04-06T09:25:12Z</time></trkpt><trkpt lat="37.59919043535173" lon="14.792558775597033"><ele>257.0</ele><time>2026-04-06T09:25:13Z</time></trkpt><trkpt lat="37.59926219706599" lon="14.792543785642861"><ele>257.0</ele><time>2026-04-06T09:25:14Z</time></trkpt><trkpt lat="37.59939479626125" lon="14.792542317415597"><ele>257.0</ele><time>2026-04-06T09:25:16Z</time></trkpt><trkpt lat="37.59948738235871" lon="14.79252818502216"><ele>257.0</ele><time>2026-04-06T09:25:17Z</time></trkpt><trkpt lat="37.59957203431723" lon="14.792477426254917"><ele>257.0</ele><time>2026-04-06T09:25:18Z</time></trkpt><trkpt lat="37.59963566598918" lon="14.792411716068997"><ele>257.0</ele><time>2026-04-06T09:25:19Z</time></trkpt><trkpt lat="37.599680876017395" lon="14.792344399041433"><ele>257.0</ele><time>2026-04-06T09:25:20Z</time></trkpt><trkpt lat="37.599772564324184" lon="14.792365408509118"><ele>257.0</ele><time>2026-04-06T09:25:22Z</time></trkpt><trkpt lat="37.59982609817109" lon="14.792496163382308"><ele>257.0</ele><time>2026-04-06T09:25:24Z</time></trkpt><trkpt lat="37.599873931828505" lon="14.792572164090505"><ele>257.0</ele><time>2026-04-06T09:25:25Z</time></trkpt><trkpt lat="37.599929203969275" lon="14.792650816590827"><ele>257.0</ele><time>2026-04-06T09:25:26Z</time></trkpt><trkpt lat="37.59998342863334" lon="14.79271496671899"><ele>257.0</ele><time>2026-04-06T09:25:27Z</time></trkpt><trkpt lat="37.600109948802036" lon="14.792720547871685"><ele>257.0</ele><time>2026-04-06T09:25:29Z</time></trkpt><trkpt lat="37.600180841610864" lon="14.792649089417125"><ele>257.0</ele><time>2026-04-06T09:25:30Z</time></trkpt><trkpt lat="37.6002530625087" lon="14.792647221559594"><ele>257.0</ele><time>2026-04-06T09:25:31Z</time></trkpt><trkpt lat="37.60033192063132" lon="14.7926346284785"><ele>257.0</ele><time>2026-04-06T09:25:32Z</time></trkpt><trkpt lat="37.60041629448114" lon="14.792630319251874"><ele>257.0</ele><time>2026-04-06T09:25:33Z</time></trkpt><trkpt lat="37.600484591374354" lon="14.792609615348232"><ele>257.0</ele><time>2026-04-06T09:25:34Z</time></trkpt><trkpt lat="37.60055338929291" lon="14.792631586797345"><ele>257.0</ele><time>2026-04-06T09:25:35Z</time></trkpt><trkpt lat="37.60061765965708" lon="14.792633286109705"><ele>257.0</ele><time>2026-04-06T09:25:36Z</time></trkpt><trkpt lat="37.60068075405947" lon="14.792615740567348"><ele>256.83333333333337</ele><time>2026-04-06T09:25:37Z</time></trkpt><trkpt lat="37.60074966865944" lon="14.792624587300999"><ele>256.6666666666667</ele><time>2026-04-06T09:25:38Z</time></trkpt><trkpt lat="37.600871143816065" lon="14.792636061618937"><ele>256.5</ele><time>2026-04-06T09:25:40Z</time></trkpt><trkpt lat="37.60098346033739" lon="14.792649153077857"><ele>256.3333333333333</ele><time>2026-04-06T09:25:42Z</time></trkpt><trkpt lat="37.60104906553087" lon="14.792642392234796"><ele>256.16666666666663</ele><time>2026-04-06T09:25:43Z</time></trkpt><trkpt lat="37.60111079266287" lon="14.79261299031247"><ele>256.0</ele><time>2026-04-06T09:25:44Z</time></trkpt><trkpt lat="37.60117373639193" lon="14.79259996804234"><ele>255.99999999999997</ele><time>2026-04-06T09:25:45Z</time></trkpt><trkpt lat="37.601234678706675" lon="14.79257722934335"><ele>256.0</ele><time>2026-04-06T09:25:46Z</time></trkpt><trkpt lat="37.601354784396044" lon="14.792546829690972"><ele>256.0</ele><time>2026-04-06T09:25:48Z</time></trkpt><trkpt lat="37.601445164162314" lon="14.792519040666258"><ele>256.0</ele><time>2026-04-06T09:25:50Z</time></trkpt><trkpt lat="37.60151463748285" lon="14.792437270104886"><ele>255.99999999999997</ele><time>2026-04-06T09:25:52.999Z</time></trkpt><trkpt lat="37.60153200457442" lon="14.792360139735855"><ele>256.0</ele><time>2026-04-06T09:25:53.999Z</time></trkpt><trkpt lat="37.60149599998346" lon="14.792262694673497"><ele>256.0</ele><time>2026-04-06T09:25:54.999Z</time></trkpt><trkpt lat="37.6014645110922" lon="14.792160889540959"><ele>256.0</ele><time>2026-04-06T09:25:55.999Z</time></trkpt><trkpt lat="37.60145327497897" lon="14.792034770702537"><ele>256.0</ele><time>2026-04-06T09:25:56.999Z</time></trkpt><trkpt lat="37.60142739157312" lon="14.791890535075161"><ele>256.0</ele><time>2026-04-06T09:25:57.999Z</time></trkpt><trkpt lat="37.601407864241" lon="14.79175701267083"><ele>256.0</ele><time>2026-04-06T09:25:58.999Z</time></trkpt><trkpt lat="37.60140370856586" lon="14.791652658013529"><ele>255.33333333333331</ele><time>2026-04-06T09:25:59.999Z</time></trkpt><trkpt lat="37.60140563623067" lon="14.79156797620588"><ele>254.66666666666666</ele><time>2026-04-06T09:26:00.999Z</time></trkpt><trkpt lat="37.60142827905987" lon="14.791414632814035"><ele>254.0</ele><time>2026-04-06T09:26:02.999Z</time></trkpt><trkpt lat="37.60145793810155" lon="14.791334822018293"><ele>253.33333333333331</ele><time>2026-04-06T09:26:03.999Z</time></trkpt><trkpt lat="37.601492387119805" lon="14.791266519657222"><ele>252.66666666666666</ele><time>2026-04-06T09:26:04.999Z</time></trkpt><trkpt lat="37.601579348572315" lon="14.791185230466736"><ele>252.0</ele><time>2026-04-06T09:26:06.999Z</time></trkpt><trkpt lat="37.601640100137864" lon="14.791138495763494"><ele>252.0</ele><time>2026-04-06T09:26:07.999Z</time></trkpt><trkpt lat="37.60171577043943" lon="14.791116467939677"><ele>252.0</ele><time>2026-04-06T09:26:08.999Z</time></trkpt><trkpt lat="37.601774895933374" lon="14.791071786349193"><ele>252.0</ele><time>2026-04-06T09:26:09.999Z</time></trkpt><trkpt lat="37.60185766567874" lon="14.790988023106655"><ele>252.0</ele><time>2026-04-06T09:26:11.999Z</time></trkpt><trkpt lat="37.60191469589929" lon="14.790852464637783"><ele>252.0</ele><time>2026-04-06T09:26:13.999Z</time></trkpt><trkpt lat="37.60195758693996" lon="14.790778817283995"><ele>252.0</ele><time>2026-04-06T09:26:14.999Z</time></trkpt><trkpt lat="37.60202345913318" lon="14.790709649619805"><ele>251.0</ele><time>2026-04-06T09:26:15.999Z</time></trkpt><trkpt lat="37.60208580622737" lon="14.790645971012411"><ele>250.0</ele><time>2026-04-06T09:26:16.999Z</time></trkpt><trkpt lat="37.60215980619706" lon="14.79059389903893"><ele>249.0</ele><time>2026-04-06T09:26:17.999Z</time></trkpt><trkpt lat="37.60225247845085" lon="14.790555354062397"><ele>248.0</ele><time>2026-04-06T09:26:18.999Z</time></trkpt><trkpt lat="37.6023348232442" lon="14.790518095673317"><ele>247.0</ele><time>2026-04-06T09:26:19.999Z</time></trkpt><trkpt lat="37.60239591212347" lon="14.790465548661295"><ele>246.0</ele><time>2026-04-06T09:26:20.999Z</time></trkpt><trkpt lat="37.60248698618911" lon="14.790411179839273"><ele>246.0</ele><time>2026-04-06T09:26:22.999Z</time></trkpt><trkpt lat="37.60259311914581" lon="14.790340924852794"><ele>246.0</ele><time>2026-04-06T09:26:24.999Z</time></trkpt><trkpt lat="37.602661180392715" lon="14.790285640505255"><ele>246.0</ele><time>2026-04-06T09:26:25.999Z</time></trkpt><trkpt lat="37.60271080968528" lon="14.790235951774827"><ele>246.0</ele><time>2026-04-06T09:26:26.999Z</time></trkpt><trkpt lat="37.6027733493755" lon="14.790110611658445"><ele>246.0</ele><time>2026-04-06T09:26:28.999Z</time></trkpt><trkpt lat="37.60276577439154" lon="14.790031247807528"><ele>246.0</ele><time>2026-04-06T09:26:29.999Z</time></trkpt><trkpt lat="37.60278123067341" lon="14.78989822997759"><ele>246.0</ele><time>2026-04-06T09:26:31.999Z</time></trkpt><trkpt lat="37.60275087563037" lon="14.789815524112731"><ele>246.00000000000003</ele><time>2026-04-06T09:26:32.999Z</time></trkpt><trkpt lat="37.60275325526741" lon="14.789709733515501"><ele>246.00000000000003</ele><time>2026-04-06T09:26:33.999Z</time></trkpt><trkpt lat="37.602759280644854" lon="14.78961630572351"><ele>246.0</ele><time>2026-04-06T09:26:34.999Z</time></trkpt><trkpt lat="37.60278704195722" lon="14.789477855817287"><ele>246.0</ele><time>2026-04-06T09:26:36.999Z</time></trkpt><trkpt lat="37.60279777820813" lon="14.789326678573236"><ele>244.8</ele><time>2026-04-06T09:26:38.999Z</time></trkpt><trkpt lat="37.6028175431568" lon="14.789236375639229"><ele>243.60000000000002</ele><time>2026-04-06T09:26:39.999Z</time></trkpt><trkpt lat="37.602817398685964" lon="14.789087691670177"><ele>242.4</ele><time>2026-04-06T09:26:41.999Z</time></trkpt><trkpt lat="37.60281319785972" lon="14.788936251143369"><ele>241.2</ele><time>2026-04-06T09:26:43.999Z</time></trkpt><trkpt lat="37.60281394453531" lon="14.78884682099759"><ele>240.0</ele><time>2026-04-06T09:26:44.999Z</time></trkpt><trkpt lat="37.6028435125198" lon="14.78875752555977"><ele>239.16666666666666</ele><time>2026-04-06T09:26:45.999Z</time></trkpt><trkpt lat="37.602851118130076" lon="14.7886591856815"><ele>238.33333333333331</ele><time>2026-04-06T09:26:46.999Z</time></trkpt><trkpt lat="37.60288687821546" lon="14.788567809399112"><ele>237.5</ele><time>2026-04-06T09:26:47.999Z</time></trkpt><trkpt lat="37.602904007431256" lon="14.788486260276146"><ele>236.66666666666666</ele><time>2026-04-06T09:26:48.999Z</time></trkpt><trkpt lat="37.60292287468475" lon="14.788347041771875"><ele>235.83333333333331</ele><time>2026-04-06T09:26:50.999Z</time></trkpt><trkpt lat="37.60294387428412" lon="14.788237074654624"><ele>235.0</ele><time>2026-04-06T09:26:52.999Z</time></trkpt><trkpt lat="37.60296032584909" lon="14.788152331038331"><ele>235.0</ele><time>2026-04-06T09:26:54.999Z</time></trkpt><trkpt lat="37.60293506899211" lon="14.788071382182519"><ele>235.0</ele><time>2026-04-06T09:26:57.999Z</time></trkpt><trkpt lat="37.60287673543593" lon="14.787990501615418"><ele>235.0</ele><time>2026-04-06T09:27:02Z</time></trkpt><trkpt lat="37.60286375975076" lon="14.787849300408475"><ele>235.0</ele><time>2026-04-06T09:27:04Z</time></trkpt><trkpt lat="37.60284557561676" lon="14.787750200177538"><ele>235.0</ele><time>2026-04-06T09:27:06Z</time></trkpt><trkpt lat="37.602802682235534" lon="14.787631948715067"><ele>237.16666666666666</ele><time>2026-04-06T09:27:09Z</time></trkpt><trkpt lat="37.602788660679344" lon="14.787553559092073"><ele>239.33333333333331</ele><time>2026-04-06T09:27:10Z</time></trkpt><trkpt lat="37.602772118784415" lon="14.78745308994896"><ele>241.5</ele><time>2026-04-06T09:27:11Z</time></trkpt><trkpt lat="37.60276791190615" lon="14.787337284166382"><ele>243.66666666666669</ele><time>2026-04-06T09:27:12Z</time></trkpt><trkpt lat="37.60279541059644" lon="14.78722292810412"><ele>245.83333333333334</ele><time>2026-04-06T09:27:13Z</time></trkpt><trkpt lat="37.602821029252866" lon="14.787117373225572"><ele>248.0</ele><time>2026-04-06T09:27:14Z</time></trkpt><trkpt lat="37.602855459662116" lon="14.787026088593018"><ele>248.33333333333334</ele><time>2026-04-06T09:27:15Z</time></trkpt><trkpt lat="37.602879220936" lon="14.78692203818347"><ele>248.66666666666669</ele><time>2026-04-06T09:27:16Z</time></trkpt><trkpt lat="37.602927031677176" lon="14.78684243714436"><ele>249.0</ele><time>2026-04-06T09:27:17Z</time></trkpt><trkpt lat="37.60299067963286" lon="14.786783844157577"><ele>249.33333333333331</ele><time>2026-04-06T09:27:18Z</time></trkpt><trkpt lat="37.603069378755144" lon="14.786731643577552"><ele>249.66666666666666</ele><time>2026-04-06T09:27:19Z</time></trkpt><trkpt lat="37.60314957745144" lon="14.78666785342649"><ele>250.0</ele><time>2026-04-06T09:27:20Z</time></trkpt><trkpt lat="37.603225957574736" lon="14.786586034320916"><ele>252.83333333333331</ele><time>2026-04-06T09:27:21Z</time></trkpt><trkpt lat="37.603294861718744" lon="14.786495058455644"><ele>255.66666666666666</ele><time>2026-04-06T09:27:22Z</time></trkpt><trkpt lat="37.603349585713005" lon="14.786428795889163"><ele>258.5</ele><time>2026-04-06T09:27:23Z</time></trkpt><trkpt lat="37.60340872470223" lon="14.786372029489268"><ele>261.3333333333333</ele><time>2026-04-06T09:27:24Z</time></trkpt><trkpt lat="37.60349951936436" lon="14.786358268973085"><ele>264.1666666666667</ele><time>2026-04-06T09:27:25Z</time></trkpt><trkpt lat="37.60358701358083" lon="14.78632458646383"><ele>267.0</ele><time>2026-04-06T09:27:26Z</time></trkpt><trkpt lat="37.60366427565919" lon="14.786292022156776"><ele>268.8</ele><time>2026-04-06T09:27:27Z</time></trkpt><trkpt lat="37.60372725696607" lon="14.786242492166153"><ele>270.6</ele><time>2026-04-06T09:27:28Z</time></trkpt><trkpt lat="37.60385894298876" lon="14.786144758939031"><ele>272.40000000000003</ele><time>2026-04-06T09:27:30Z</time></trkpt><trkpt lat="37.60391850069658" lon="14.78606841911676"><ele>274.2</ele><time>2026-04-06T09:27:31Z</time></trkpt><trkpt lat="37.603973981943746" lon="14.785976405954207"><ele>276.0</ele><time>2026-04-06T09:27:32Z</time></trkpt><trkpt lat="37.60404749836778" lon="14.785896926724323"><ele>277.6</ele><time>2026-04-06T09:27:33Z</time></trkpt><trkpt lat="37.60410889610783" lon="14.785799093813338"><ele>279.20000000000005</ele><time>2026-04-06T09:27:34Z</time></trkpt><trkpt lat="37.60416115428225" lon="14.785714483395825"><ele>280.79999999999995</ele><time>2026-04-06T09:27:35Z</time></trkpt><trkpt lat="37.604198308889735" lon="14.785638520223346"><ele>282.4</ele><time>2026-04-06T09:27:36Z</time></trkpt><trkpt lat="37.604229131712756" lon="14.785497321517447"><ele>284.0</ele><time>2026-04-06T09:27:38Z</time></trkpt><trkpt lat="37.60423040947245" lon="14.785395189730767"><ele>284.0</ele><time>2026-04-06T09:27:39Z</time></trkpt><trkpt lat="37.604230644223044" lon="14.78528135138418"><ele>284.0</ele><time>2026-04-06T09:27:40Z</time></trkpt><trkpt lat="37.60424382812775" lon="14.785154309023394"><ele>284.0</ele><time>2026-04-06T09:27:41Z</time></trkpt><trkpt lat="37.60426891431599" lon="14.785030275391438"><ele>284.0</ele><time>2026-04-06T09:27:42Z</time></trkpt><trkpt lat="37.6043320468949" lon="14.78492293057137"><ele>284.0</ele><time>2026-04-06T09:27:43Z</time></trkpt><trkpt lat="37.604371911365654" lon="14.78479684319913"><ele>283.75</ele><time>2026-04-06T09:27:44Z</time></trkpt><trkpt lat="37.604435351434496" lon="14.784671795835752"><ele>283.5</ele><time>2026-04-06T09:27:45Z</time></trkpt><trkpt lat="37.604497454527305" lon="14.784544074971217"><ele>283.25</ele><time>2026-04-06T09:27:46Z</time></trkpt><trkpt lat="37.60457841641087" lon="14.784432327136308"><ele>283.0</ele><time>2026-04-06T09:27:47Z</time></trkpt><trkpt lat="37.60465109044163" lon="14.784322307221426"><ele>285.25</ele><time>2026-04-06T09:27:48Z</time></trkpt><trkpt lat="37.60472399210191" lon="14.784214458822623"><ele>287.5</ele><time>2026-04-06T09:27:49Z</time></trkpt><trkpt lat="37.604804965044565" lon="14.784094670009987"><ele>289.75</ele><time>2026-04-06T09:27:50Z</time></trkpt><trkpt lat="37.604890256844875" lon="14.783966921269048"><ele>292.0</ele><time>2026-04-06T09:27:51Z</time></trkpt><trkpt lat="37.60497924429027" lon="14.783828186034459"><ele>292.0</ele><time>2026-04-06T09:27:52Z</time></trkpt><trkpt lat="37.60506971695794" lon="14.783695671169351"><ele>292.0</ele><time>2026-04-06T09:27:53Z</time></trkpt><trkpt lat="37.605151127467266" lon="14.783578371130968"><ele>292.0</ele><time>2026-04-06T09:27:54Z</time></trkpt><trkpt lat="37.60522437848227" lon="14.783476200367659"><ele>292.0</ele><time>2026-04-06T09:27:55Z</time></trkpt><trkpt lat="37.60529454835834" lon="14.783386370390785"><ele>292.0</ele><time>2026-04-06T09:27:56Z</time></trkpt><trkpt lat="37.60537276677598" lon="14.783286427130912"><ele>292.0</ele><time>2026-04-06T09:27:57Z</time></trkpt><trkpt lat="37.60545744033751" lon="14.783173169905131"><ele>292.0</ele><time>2026-04-06T09:27:58Z</time></trkpt><trkpt lat="37.60552991798802" lon="14.783050370480085"><ele>292.0</ele><time>2026-04-06T09:27:59Z</time></trkpt><trkpt lat="37.60561306856889" lon="14.782947931515686"><ele>292.0</ele><time>2026-04-06T09:28:00Z</time></trkpt><trkpt lat="37.60569115840088" lon="14.782838635299605"><ele>292.0</ele><time>2026-04-06T09:28:01Z</time></trkpt><trkpt lat="37.605773047372324" lon="14.782718805574607"><ele>292.0</ele><time>2026-04-06T09:28:01.999Z</time></trkpt><trkpt lat="37.60585231248212" lon="14.782604285294184"><ele>292.0</ele><time>2026-04-06T09:28:02.999Z</time></trkpt><trkpt lat="37.605924666035726" lon="14.78250218794181"><ele>292.5</ele><time>2026-04-06T09:28:03.999Z</time></trkpt><trkpt lat="37.6059982702858" lon="14.782397133818069"><ele>293.0</ele><time>2026-04-06T09:28:04.999Z</time></trkpt><trkpt lat="37.60610283830086" lon="14.782303950899394"><ele>293.5</ele><time>2026-04-06T09:28:05.999Z</time></trkpt><trkpt lat="37.606186174167746" lon="14.78220144263868"><ele>294.0</ele><time>2026-04-06T09:28:06.999Z</time></trkpt><trkpt lat="37.606259414675336" lon="14.782088504361178"><ele>294.0</ele><time>2026-04-06T09:28:07.999Z</time></trkpt><trkpt lat="37.606339167460206" lon="14.7819767325145"><ele>294.0</ele><time>2026-04-06T09:28:08.999Z</time></trkpt><trkpt lat="37.6064200941763" lon="14.781858911532849"><ele>294.0</ele><time>2026-04-06T09:28:09.999Z</time></trkpt><trkpt lat="37.60650595203959" lon="14.781735032208577"><ele>294.0</ele><time>2026-04-06T09:28:10.999Z</time></trkpt><trkpt lat="37.60660527879086" lon="14.781613585073202"><ele>296.0</ele><time>2026-04-06T09:28:11.999Z</time></trkpt><trkpt lat="37.60669490193144" lon="14.781491726456034"><ele>298.0</ele><time>2026-04-06T09:28:12.999Z</time></trkpt><trkpt lat="37.606777630318334" lon="14.781388902787898"><ele>300.0</ele><time>2026-04-06T09:28:13.999Z</time></trkpt><trkpt lat="37.60684897679918" lon="14.781292430966667"><ele>302.0</ele><time>2026-04-06T09:28:14.999Z</time></trkpt><trkpt lat="37.60692720338818" lon="14.781176268367883"><ele>302.4</ele><time>2026-04-06T09:28:15.999Z</time></trkpt><trkpt lat="37.60701532352143" lon="14.781067626397668"><ele>302.79999999999995</ele><time>2026-04-06T09:28:16.999Z</time></trkpt><trkpt lat="37.60709181222953" lon="14.780961158077702"><ele>303.2</ele><time>2026-04-06T09:28:17.999Z</time></trkpt><trkpt lat="37.60715791205442" lon="14.780867901770232"><ele>303.59999999999997</ele><time>2026-04-06T09:28:18.999Z</time></trkpt><trkpt lat="37.60722399561657" lon="14.780777286705922"><ele>304.0</ele><time>2026-04-06T09:28:19.999Z</time></trkpt><trkpt lat="37.60730106420638" lon="14.780676825170568"><ele>305.4</ele><time>2026-04-06T09:28:20.999Z</time></trkpt><trkpt lat="37.60737616573581" lon="14.780570066865993"><ele>306.79999999999995</ele><time>2026-04-06T09:28:21.999Z</time></trkpt><trkpt lat="37.60744840450022" lon="14.78048478953952"><ele>308.20000000000005</ele><time>2026-04-06T09:28:22.999Z</time></trkpt><trkpt lat="37.60751090804653" lon="14.780411159779824"><ele>309.6</ele><time>2026-04-06T09:28:23.999Z</time></trkpt><trkpt lat="37.60756239207853" lon="14.78034828430405"><ele>311.0</ele><time>2026-04-06T09:28:24.999Z</time></trkpt><trkpt lat="37.60763667752442" lon="14.780257578506086"><ele>310.6</ele><time>2026-04-06T09:28:26.999Z</time></trkpt><trkpt lat="37.607701085528035" lon="14.78018175145906"><ele>310.20000000000005</ele><time>2026-04-06T09:28:28.999Z</time></trkpt><trkpt lat="37.60777440974651" lon="14.780086900904925"><ele>309.79999999999995</ele><time>2026-04-06T09:28:30.999Z</time></trkpt><trkpt lat="37.60783402355109" lon="14.780018265537578"><ele>309.4</ele><time>2026-04-06T09:28:31.999Z</time></trkpt><trkpt lat="37.60790771485616" lon="14.779925036268084"><ele>309.0</ele><time>2026-04-06T09:28:32.999Z</time></trkpt><trkpt lat="37.60798748234582" lon="14.779829910748514"><ele>309.0</ele><time>2026-04-06T09:28:33.999Z</time></trkpt><trkpt lat="37.60807247124404" lon="14.779722450394724"><ele>309.0</ele><time>2026-04-06T09:28:34.999Z</time></trkpt><trkpt lat="37.608154940374106" lon="14.779612255634419"><ele>309.0</ele><time>2026-04-06T09:28:35.999Z</time></trkpt><trkpt lat="37.60825451817797" lon="14.779516849157812"><ele>309.0</ele><time>2026-04-06T09:28:36.999Z</time></trkpt><trkpt lat="37.608347612569304" lon="14.779401938186224"><ele>309.4</ele><time>2026-04-06T09:28:37.999Z</time></trkpt><trkpt lat="37.608428273678264" lon="14.77930237432824"><ele>309.79999999999995</ele><time>2026-04-06T09:28:38.999Z</time></trkpt><trkpt lat="37.60850171448767" lon="14.779211722654196"><ele>310.20000000000005</ele><time>2026-04-06T09:28:39.999Z</time></trkpt><trkpt lat="37.60857036310363" lon="14.77912698625074"><ele>310.6</ele><time>2026-04-06T09:28:40.999Z</time></trkpt><trkpt lat="37.608641879955854" lon="14.77903871173893"><ele>311.0</ele><time>2026-04-06T09:28:41.999Z</time></trkpt><trkpt lat="37.608722378093795" lon="14.77893908792089"><ele>311.0</ele><time>2026-04-06T09:28:42.999Z</time></trkpt><trkpt lat="37.60880398940571" lon="14.778840044308941"><ele>311.0</ele><time>2026-04-06T09:28:43.999Z</time></trkpt><trkpt lat="37.60888799745806" lon="14.778739362340058"><ele>311.0</ele><time>2026-04-06T09:28:44.999Z</time></trkpt><trkpt lat="37.608956800397486" lon="14.77863021267568"><ele>311.0</ele><time>2026-04-06T09:28:45.999Z</time></trkpt><trkpt lat="37.60905780744961" lon="14.778540574590155"><ele>312.6</ele><time>2026-04-06T09:28:46.999Z</time></trkpt><trkpt lat="37.609137575916996" lon="14.778445237035578"><ele>314.20000000000005</ele><time>2026-04-06T09:28:47.999Z</time></trkpt><trkpt lat="37.60920806620952" lon="14.7783585666087"><ele>315.79999999999995</ele><time>2026-04-06T09:28:48.999Z</time></trkpt><trkpt lat="37.60926246875131" lon="14.778271227320714"><ele>317.4</ele><time>2026-04-06T09:28:49.999Z</time></trkpt><trkpt lat="37.609324886214736" lon="14.778205225678004"><ele>319.0</ele><time>2026-04-06T09:28:50.999Z</time></trkpt><trkpt lat="37.60937933979324" lon="14.778140248727581"><ele>319.0</ele><time>2026-04-06T09:28:51.999Z</time></trkpt><trkpt lat="37.609452217991596" lon="14.778036572403114"><ele>319.0</ele><time>2026-04-06T09:28:53.999Z</time></trkpt><trkpt lat="37.60954265125063" lon="14.777927759709709"><ele>319.0</ele><time>2026-04-06T09:28:55.999Z</time></trkpt><trkpt lat="37.609609620676565" lon="14.777831252353543"><ele>319.0</ele><time>2026-04-06T09:28:56.999Z</time></trkpt><trkpt lat="37.6096980392449" lon="14.77772950710792"><ele>320.0</ele><time>2026-04-06T09:28:57.999Z</time></trkpt><trkpt lat="37.60978379056928" lon="14.77762290542001"><ele>321.0</ele><time>2026-04-06T09:28:58.999Z</time></trkpt><trkpt lat="37.609872464224615" lon="14.777521246967556"><ele>322.0</ele><time>2026-04-06T09:28:59.999Z</time></trkpt><trkpt lat="37.609958530711815" lon="14.777419710017856"><ele>323.0</ele><time>2026-04-06T09:29:00.999Z</time></trkpt><trkpt lat="37.61004453395741" lon="14.777315371145303"><ele>323.0</ele><time>2026-04-06T09:29:01.999Z</time></trkpt><trkpt lat="37.61013474172321" lon="14.777201490310608"><ele>323.0</ele><time>2026-04-06T09:29:02.999Z</time></trkpt><trkpt lat="37.61023862105871" lon="14.777082839194271"><ele>323.0</ele><time>2026-04-06T09:29:03.999Z</time></trkpt><trkpt lat="37.61033860073457" lon="14.776963707750731"><ele>323.0</ele><time>2026-04-06T09:29:04.999Z</time></trkpt><trkpt lat="37.610424267772814" lon="14.776856221487042"><ele>323.5</ele><time>2026-04-06T09:29:06Z</time></trkpt><trkpt lat="37.61051222795913" lon="14.776745566410305"><ele>324.0</ele><time>2026-04-06T09:29:07Z</time></trkpt><trkpt lat="37.610601210666765" lon="14.776628091362536"><ele>324.5</ele><time>2026-04-06T09:29:08Z</time></trkpt><trkpt lat="37.610694662782876" lon="14.776511909511456"><ele>325.0</ele><time>2026-04-06T09:29:09Z</time></trkpt><trkpt lat="37.61079429218525" lon="14.776405650112602"><ele>325.0</ele><time>2026-04-06T09:29:10Z</time></trkpt><trkpt lat="37.61088286236982" lon="14.776287854186425"><ele>325.0</ele><time>2026-04-06T09:29:11Z</time></trkpt><trkpt lat="37.610956795789455" lon="14.776156611719584"><ele>325.0</ele><time>2026-04-06T09:29:12Z</time></trkpt><trkpt lat="37.611036483837175" lon="14.776035647808907"><ele>325.0</ele><time>2026-04-06T09:29:13Z</time></trkpt><trkpt lat="37.611114308086975" lon="14.77590976931018"><ele>326.0</ele><time>2026-04-06T09:29:14Z</time></trkpt><trkpt lat="37.61119803500626" lon="14.77576610896242"><ele>327.0</ele><time>2026-04-06T09:29:15Z</time></trkpt><trkpt lat="37.61127294600655" lon="14.77559649941262"><ele>328.0</ele><time>2026-04-06T09:29:16Z</time></trkpt><trkpt lat="37.611358430019024" lon="14.775420797162722"><ele>328.0</ele><time>2026-04-06T09:29:17Z</time></trkpt><trkpt lat="37.611431529461115" lon="14.77526515868027"><ele>328.0</ele><time>2026-04-06T09:29:18Z</time></trkpt><trkpt lat="37.611506160979836" lon="14.775128026978413"><ele>328.0</ele><time>2026-04-06T09:29:19Z</time></trkpt><trkpt lat="37.61156826470503" lon="14.774976350601095"><ele>328.0</ele><time>2026-04-06T09:29:20Z</time></trkpt><trkpt lat="37.61164613870247" lon="14.77482555502221"><ele>328.25</ele><time>2026-04-06T09:29:21Z</time></trkpt><trkpt lat="37.611718905928875" lon="14.774664475555417"><ele>328.5</ele><time>2026-04-06T09:29:22Z</time></trkpt><trkpt lat="37.611788797900765" lon="14.774511285861891"><ele>328.75</ele><time>2026-04-06T09:29:23Z</time></trkpt><trkpt lat="37.61185033856489" lon="14.774383704906713"><ele>329.0</ele><time>2026-04-06T09:29:24Z</time></trkpt><trkpt lat="37.61190598555157" lon="14.774268887893603"><ele>329.0</ele><time>2026-04-06T09:29:25Z</time></trkpt><trkpt lat="37.611954797673214" lon="14.774166041786831"><ele>329.0</ele><time>2026-04-06T09:29:26Z</time></trkpt><trkpt lat="37.612003031723376" lon="14.774071166557148"><ele>329.0</ele><time>2026-04-06T09:29:27Z</time></trkpt><trkpt lat="37.612050638791075" lon="14.773953603152714"><ele>329.0</ele><time>2026-04-06T09:29:28Z</time></trkpt><trkpt lat="37.612096618380676" lon="14.773871915345548"><ele>329.0</ele><time>2026-04-06T09:29:29Z</time></trkpt><trkpt lat="37.612130961675994" lon="14.773797776696659"><ele>329.0</ele><time>2026-04-06T09:29:30Z</time></trkpt><trkpt lat="37.61217488029204" lon="14.77371040565355"><ele>330.4</ele><time>2026-04-06T09:29:32Z</time></trkpt><trkpt lat="37.61220137202263" lon="14.773636033993379"><ele>331.79999999999995</ele><time>2026-04-06T09:29:33Z</time></trkpt><trkpt lat="37.61224665879912" lon="14.773537622760603"><ele>333.20000000000005</ele><time>2026-04-06T09:29:34Z</time></trkpt><trkpt lat="37.612311554390764" lon="14.773418199889186"><ele>334.6</ele><time>2026-04-06T09:29:35Z</time></trkpt><trkpt lat="37.61237426352116" lon="14.773276923610583"><ele>336.0</ele><time>2026-04-06T09:29:36Z</time></trkpt><trkpt lat="37.612444624934085" lon="14.773129142558373"><ele>337.0</ele><time>2026-04-06T09:29:37Z</time></trkpt><trkpt lat="37.61252306668382" lon="14.772971636994662"><ele>338.0</ele><time>2026-04-06T09:29:38Z</time></trkpt><trkpt lat="37.6126107755226" lon="14.772807616906542"><ele>339.0</ele><time>2026-04-06T09:29:39Z</time></trkpt><trkpt lat="37.6126882358179" lon="14.772636341115724"><ele>340.3333333333333</ele><time>2026-04-06T09:29:40Z</time></trkpt><trkpt lat="37.61277497485782" lon="14.7724510255017"><ele>341.66666666666663</ele><time>2026-04-06T09:29:41Z</time></trkpt><trkpt lat="37.61286618994826" lon="14.772265731029231"><ele>343.0</ele><time>2026-04-06T09:29:42Z</time></trkpt><trkpt lat="37.613042882107095" lon="14.771899973241618"><ele>346.3333333333333</ele><time>2026-04-06T09:29:44Z</time></trkpt><trkpt lat="37.61312513035445" lon="14.771722165861974"><ele>349.6666666666667</ele><time>2026-04-06T09:29:45Z</time></trkpt><trkpt lat="37.61319971177821" lon="14.771566582093474"><ele>353.0</ele><time>2026-04-06T09:29:46Z</time></trkpt><trkpt lat="37.613284554119524" lon="14.771396285872367"><ele>353.0</ele><time>2026-04-06T09:29:47Z</time></trkpt><trkpt lat="37.613363098445475" lon="14.771233089591483"><ele>353.0</ele><time>2026-04-06T09:29:48Z</time></trkpt><trkpt lat="37.613431388818455" lon="14.771080395441299"><ele>353.0</ele><time>2026-04-06T09:29:49Z</time></trkpt><trkpt lat="37.61350483655497" lon="14.77092407526088"><ele>353.0</ele><time>2026-04-06T09:29:50Z</time></trkpt><trkpt lat="37.6135919260833" lon="14.770772933198737"><ele>355.33333333333337</ele><time>2026-04-06T09:29:51Z</time></trkpt><trkpt lat="37.61365819140869" lon="14.770632820733752"><ele>357.6666666666667</ele><time>2026-04-06T09:29:52Z</time></trkpt><trkpt lat="37.61373731531808" lon="14.770443992873027"><ele>360.0</ele><time>2026-04-06T09:29:53Z</time></trkpt><trkpt lat="37.61380966554578" lon="14.770274737279342"><ele>360.75</ele><time>2026-04-06T09:29:54Z</time></trkpt><trkpt lat="37.61389774969562" lon="14.770121533883282"><ele>361.5</ele><time>2026-04-06T09:29:55Z</time></trkpt><trkpt lat="37.613967429560844" lon="14.769965161410877"><ele>362.25</ele><time>2026-04-06T09:29:56Z</time></trkpt><trkpt lat="37.614019135250466" lon="14.769828367350364"><ele>363.0</ele><time>2026-04-06T09:29:57Z</time></trkpt><trkpt lat="37.61406911014054" lon="14.769729745741635"><ele>363.0</ele><time>2026-04-06T09:29:58Z</time></trkpt><trkpt lat="37.61411346745522" lon="14.769640923585618"><ele>363.0</ele><time>2026-04-06T09:29:59Z</time></trkpt><trkpt lat="37.61414922857672" lon="14.769557714056655"><ele>363.0</ele><time>2026-04-06T09:30:00Z</time></trkpt><trkpt lat="37.61420504026455" lon="14.769446405151012"><ele>363.0</ele><time>2026-04-06T09:30:02Z</time></trkpt><trkpt lat="37.614302406848914" lon="14.769504396763246"><ele>363.0</ele><time>2026-04-06T09:30:04Z</time></trkpt><trkpt lat="37.61439677769453" lon="14.76953679507814"><ele>363.0</ele><time>2026-04-06T09:30:05Z</time></trkpt><trkpt lat="37.614461731267966" lon="14.769547467210723"><ele>363.0</ele><time>2026-04-06T09:30:06Z</time></trkpt><trkpt lat="37.61454330356252" lon="14.769575148440444"><ele>363.0</ele><time>2026-04-06T09:30:08Z</time></trkpt><trkpt lat="37.614559618345226" lon="14.769698181197949"><ele>363.0</ele><time>2026-04-06T09:30:11Z</time></trkpt><trkpt lat="37.61456885592986" lon="14.769813314350378"><ele>363.0</ele><time>2026-04-06T09:30:12Z</time></trkpt><trkpt lat="37.61456139864759" lon="14.769938780889284"><ele>363.0</ele><time>2026-04-06T09:30:13Z</time></trkpt><trkpt lat="37.61455301510307" lon="14.770087368443626"><ele>359.75</ele><time>2026-04-06T09:30:14Z</time></trkpt><trkpt lat="37.61454380694096" lon="14.77024643334584"><ele>356.5</ele><time>2026-04-06T09:30:15Z</time></trkpt><trkpt lat="37.614530151701956" lon="14.770420457304803"><ele>353.25</ele><time>2026-04-06T09:30:16Z</time></trkpt><trkpt lat="37.614520988419514" lon="14.7706082677858"><ele>350.0</ele><time>2026-04-06T09:30:17Z</time></trkpt><trkpt lat="37.614509955880656" lon="14.770807855942362"><ele>350.0</ele><time>2026-04-06T09:30:18Z</time></trkpt><trkpt lat="37.614508421816254" lon="14.771006325978258"><ele>350.0</ele><time>2026-04-06T09:30:19Z</time></trkpt><trkpt lat="37.6145208962434" lon="14.771200711821425"><ele>350.0</ele><time>2026-04-06T09:30:20Z</time></trkpt><trkpt lat="37.61454166164621" lon="14.77139093166366"><ele>349.25</ele><time>2026-04-06T09:30:21Z</time></trkpt><trkpt lat="37.61456940226249" lon="14.77157395336825"><ele>348.5</ele><time>2026-04-06T09:30:22Z</time></trkpt><trkpt lat="37.614596176529325" lon="14.77175252009956"><ele>347.75</ele><time>2026-04-06T09:30:23Z</time></trkpt><trkpt lat="37.61461888174024" lon="14.771921789159254"><ele>347.0</ele><time>2026-04-06T09:30:23.999Z</time></trkpt><trkpt lat="37.61463905362856" lon="14.77208717069772"><ele>346.0</ele><time>2026-04-06T09:30:24.999Z</time></trkpt><trkpt lat="37.61465614463051" lon="14.772249500780271"><ele>345.0</ele><time>2026-04-06T09:30:25.999Z</time></trkpt><trkpt lat="37.614677251620805" lon="14.772409056548303"><ele>344.0</ele><time>2026-04-06T09:30:26.999Z</time></trkpt><trkpt lat="37.61470552277735" lon="14.772562199094915"><ele>343.0</ele><time>2026-04-06T09:30:27.999Z</time></trkpt><trkpt lat="37.614733607532145" lon="14.772711075593042"><ele>343.0</ele><time>2026-04-06T09:30:28.999Z</time></trkpt><trkpt lat="37.61476130849413" lon="14.772846547354387"><ele>343.0</ele><time>2026-04-06T09:30:29.999Z</time></trkpt><trkpt lat="37.61478514012982" lon="14.772958270616408"><ele>343.0</ele><time>2026-04-06T09:30:30.999Z</time></trkpt><trkpt lat="37.61479633415574" lon="14.773042693781486"><ele>343.0</ele><time>2026-04-06T09:30:31.999Z</time></trkpt><trkpt lat="37.614813704179994" lon="14.773175886958448"><ele>343.0</ele><time>2026-04-06T09:30:33.999Z</time></trkpt><trkpt lat="37.6149517302261" lon="14.77323578190901"><ele>343.0</ele><time>2026-04-06T09:30:36.999Z</time></trkpt><trkpt lat="37.6150394073652" lon="14.773224268774278"><ele>343.0</ele><time>2026-04-06T09:30:37.999Z</time></trkpt><trkpt lat="37.615117339004705" lon="14.773215484496935"><ele>343.0</ele><time>2026-04-06T09:30:38.999Z</time></trkpt><trkpt lat="37.61519393379684" lon="14.773198997475358"><ele>343.0</ele><time>2026-04-06T09:30:39.999Z</time></trkpt><trkpt lat="37.61526395169004" lon="14.77318392614285"><ele>343.0</ele><time>2026-04-06T09:30:40.999Z</time></trkpt><trkpt lat="37.615333257861" lon="14.773168152466718"><ele>343.0</ele><time>2026-04-06T09:30:41.999Z</time></trkpt><trkpt lat="37.6154266301533" lon="14.773153834408863"><ele>342.2</ele><time>2026-04-06T09:30:43.999Z</time></trkpt><trkpt lat="37.61548770783978" lon="14.772975209414678"><ele>341.4</ele><time>2026-04-06T09:30:51.999Z</time></trkpt><trkpt lat="37.61549041427763" lon="14.772831497280157"><ele>340.59999999999997</ele><time>2026-04-06T09:30:53.999Z</time></trkpt><trkpt lat="37.615493757746" lon="14.772747387773757"><ele>339.79999999999995</ele><time>2026-04-06T09:30:54.999Z</time></trkpt><trkpt lat="37.61553049700142" lon="14.772653093023939"><ele>339.0</ele><time>2026-04-06T09:30:57.999Z</time></trkpt><trkpt lat="37.615607945141875" lon="14.772587099543994"><ele>339.0</ele><time>2026-04-06T09:31:02.999Z</time></trkpt><trkpt lat="37.61555695856913" lon="14.772442313794576"><ele>339.0</ele><time>2026-04-06T09:31:03.999Z</time></trkpt><trkpt lat="37.61546038679682" lon="14.772762118116491"><ele>339.0</ele><time>2026-04-06T09:31:04.999Z</time></trkpt><trkpt lat="37.61545374285782" lon="14.772843795734648"><ele>338.0</ele><time>2026-04-06T09:31:05.999Z</time></trkpt><trkpt lat="37.61546374710511" lon="14.773007222890095"><ele>337.0</ele><time>2026-04-06T09:31:07.999Z</time></trkpt><trkpt lat="37.61545458273508" lon="14.77308590961144"><ele>336.0</ele><time>2026-04-06T09:31:08.999Z</time></trkpt><trkpt lat="37.61544265763756" lon="14.77318881729765"><ele>335.0</ele><time>2026-04-06T09:31:10.999Z</time></trkpt><trkpt lat="37.615432226925996" lon="14.773347135481615"><ele>334.0</ele><time>2026-04-06T09:31:13Z</time></trkpt><trkpt lat="37.61541077904233" lon="14.773434114902981"><ele>333.5</ele><time>2026-04-06T09:31:14Z</time></trkpt><trkpt lat="37.61538928950125" lon="14.773527932233446"><ele>333.0</ele><time>2026-04-06T09:31:15Z</time></trkpt><trkpt lat="37.615376905967786" lon="14.773619257188374"><ele>332.5</ele><time>2026-04-06T09:31:16Z</time></trkpt><trkpt lat="37.61537345885687" lon="14.77372885503201"><ele>332.0</ele><time>2026-04-06T09:31:17Z</time></trkpt><trkpt lat="37.615392052378105" lon="14.773841965980601"><ele>331.5</ele><time>2026-04-06T09:31:18Z</time></trkpt><trkpt lat="37.615428664972306" lon="14.773957196556976"><ele>331.0</ele><time>2026-04-06T09:31:19Z</time></trkpt><trkpt lat="37.61546483111027" lon="14.774068251478102"><ele>331.0</ele><time>2026-04-06T09:31:20Z</time></trkpt><trkpt lat="37.61549181399031" lon="14.774163701468462"><ele>331.0</ele><time>2026-04-06T09:31:21Z</time></trkpt><trkpt lat="37.615529352763545" lon="14.774247202968617"><ele>331.0</ele><time>2026-04-06T09:31:22Z</time></trkpt><trkpt lat="37.61560624234857" lon="14.774324364529159"><ele>331.0</ele><time>2026-04-06T09:31:23Z</time></trkpt><trkpt lat="37.61569952104821" lon="14.774400656726256"><ele>331.0</ele><time>2026-04-06T09:31:24Z</time></trkpt><trkpt lat="37.61577906278088" lon="14.774465257699262"><ele>330.8333333333333</ele><time>2026-04-06T09:31:25Z</time></trkpt><trkpt lat="37.61585175134847" lon="14.774515296820603"><ele>330.66666666666663</ele><time>2026-04-06T09:31:26Z</time></trkpt><trkpt lat="37.615923019222784" lon="14.77454346036986"><ele>330.5</ele><time>2026-04-06T09:31:27Z</time></trkpt><trkpt lat="37.615987846366586" lon="14.774544596912646"><ele>330.3333333333333</ele><time>2026-04-06T09:31:28Z</time></trkpt><trkpt lat="37.616053115878536" lon="14.774560420054105"><ele>330.1666666666667</ele><time>2026-04-06T09:31:29Z</time></trkpt><trkpt lat="37.616127079812074" lon="14.774597244376348"><ele>330.0</ele><time>2026-04-06T09:31:30Z</time></trkpt><trkpt lat="37.61622691387681" lon="14.77465920443784"><ele>329.6666666666667</ele><time>2026-04-06T09:31:31Z</time></trkpt><trkpt lat="37.61631747817019" lon="14.77471335147261"><ele>329.3333333333333</ele><time>2026-04-06T09:31:32Z</time></trkpt><trkpt lat="37.61638090882492" lon="14.77476405824049"><ele>329.0</ele><time>2026-04-06T09:31:33Z</time></trkpt><trkpt lat="37.61643426684357" lon="14.774826816759441"><ele>328.66666666666663</ele><time>2026-04-06T09:31:34Z</time></trkpt><trkpt lat="37.61645607324688" lon="14.774908706159719"><ele>328.3333333333333</ele><time>2026-04-06T09:31:35Z</time></trkpt><trkpt lat="37.61645621743549" lon="14.77499249494571"><ele>328.0</ele><time>2026-04-06T09:31:36Z</time></trkpt><trkpt lat="37.61640008396163" lon="14.775060350455336"><ele>327.4</ele><time>2026-04-06T09:31:37Z</time></trkpt><trkpt lat="37.616371071883165" lon="14.77520652394554"><ele>326.79999999999995</ele><time>2026-04-06T09:31:39Z</time></trkpt><trkpt lat="37.616392326313516" lon="14.775285224450686"><ele>326.2</ele><time>2026-04-06T09:31:40Z</time></trkpt><trkpt lat="37.616444856182866" lon="14.775350892539965"><ele>325.6</ele><time>2026-04-06T09:31:41Z</time></trkpt><trkpt lat="37.616533078125414" lon="14.77539996142686"><ele>325.0</ele><time>2026-04-06T09:31:42Z</time></trkpt><trkpt lat="37.61662193338024" lon="14.775458175822575"><ele>325.0</ele><time>2026-04-06T09:31:43Z</time></trkpt><trkpt lat="37.61669171865502" lon="14.775554664004918"><ele>325.0</ele><time>2026-04-06T09:31:44Z</time></trkpt><trkpt lat="37.61676602858119" lon="14.775617879600333"><ele>325.0</ele><time>2026-04-06T09:31:45Z</time></trkpt><trkpt lat="37.61681274198229" lon="14.775711607866015"><ele>325.0</ele><time>2026-04-06T09:31:46Z</time></trkpt><trkpt lat="37.61683275471291" lon="14.775818364820063"><ele>325.0</ele><time>2026-04-06T09:31:47Z</time></trkpt><trkpt lat="37.616831914941734" lon="14.775940607688465"><ele>324.6</ele><time>2026-04-06T09:31:48Z</time></trkpt><trkpt lat="37.61683056559407" lon="14.776074371271095"><ele>324.2</ele><time>2026-04-06T09:31:49Z</time></trkpt><trkpt lat="37.61685480400931" lon="14.776196669039965"><ele>323.79999999999995</ele><time>2026-04-06T09:31:50Z</time></trkpt><trkpt lat="37.61690239835199" lon="14.776308319928708"><ele>323.4</ele><time>2026-04-06T09:31:51Z</time></trkpt><trkpt lat="37.61695003387415" lon="14.776380714161665"><ele>323.0</ele><time>2026-04-06T09:31:52Z</time></trkpt><trkpt lat="37.617011076206545" lon="14.776433576781052"><ele>321.79999999999995</ele><time>2026-04-06T09:31:53Z</time></trkpt><trkpt lat="37.61710333003268" lon="14.776484522990181"><ele>320.59999999999997</ele><time>2026-04-06T09:31:54Z</time></trkpt><trkpt lat="37.617202247420224" lon="14.776575151258594"><ele>319.4</ele><time>2026-04-06T09:31:55Z</time></trkpt><trkpt lat="37.617288608694864" lon="14.776662542197206"><ele>318.2</ele><time>2026-04-06T09:31:56Z</time></trkpt><trkpt lat="37.61736777744134" lon="14.776761141684362"><ele>317.0</ele><time>2026-04-06T09:31:57Z</time></trkpt><trkpt lat="37.61744405550063" lon="14.776847680937436"><ele>316.8</ele><time>2026-04-06T09:31:58Z</time></trkpt><trkpt lat="37.61750285667926" lon="14.77695456110375"><ele>316.6</ele><time>2026-04-06T09:31:59Z</time></trkpt><trkpt lat="37.61752667542628" lon="14.777065166548674"><ele>316.40000000000003</ele><time>2026-04-06T09:32:00Z</time></trkpt><trkpt lat="37.617551123527214" lon="14.777181968647778"><ele>316.2</ele><time>2026-04-06T09:32:01Z</time></trkpt><trkpt lat="37.61759506712213" lon="14.777326334129732"><ele>316.0</ele><time>2026-04-06T09:32:02Z</time></trkpt><trkpt lat="37.61761288880144" lon="14.77745815515692"><ele>316.0</ele><time>2026-04-06T09:32:03Z</time></trkpt><trkpt lat="37.61763143159417" lon="14.777571214144926"><ele>316.0</ele><time>2026-04-06T09:32:04Z</time></trkpt><trkpt lat="37.61765856275164" lon="14.777656334377687"><ele>316.0</ele><time>2026-04-06T09:32:05Z</time></trkpt><trkpt lat="37.61775368123151" lon="14.777750020623229"><ele>316.0</ele><time>2026-04-06T09:32:07Z</time></trkpt><trkpt lat="37.61783105648321" lon="14.777760129477704"><ele>316.0</ele><time>2026-04-06T09:32:08Z</time></trkpt><trkpt lat="37.6179341716102" lon="14.777763422404249"><ele>315.0</ele><time>2026-04-06T09:32:09Z</time></trkpt><trkpt lat="37.61805208622079" lon="14.777763375055041"><ele>314.0</ele><time>2026-04-06T09:32:10Z</time></trkpt><trkpt lat="37.61814943071056" lon="14.777791816863473"><ele>313.0</ele><time>2026-04-06T09:32:11Z</time></trkpt><trkpt lat="37.61822510045774" lon="14.777813438288833"><ele>312.0</ele><time>2026-04-06T09:32:12Z</time></trkpt><trkpt lat="37.61829555407086" lon="14.777852014212991"><ele>311.0</ele><time>2026-04-06T09:32:13Z</time></trkpt><trkpt lat="37.61834217699425" lon="14.777930685536822"><ele>311.0</ele><time>2026-04-06T09:32:14Z</time></trkpt><trkpt lat="37.61840192629512" lon="14.778005384262299"><ele>311.0</ele><time>2026-04-06T09:32:15Z</time></trkpt><trkpt lat="37.61846051419" lon="14.778071423264047"><ele>311.0</ele><time>2026-04-06T09:32:16Z</time></trkpt><trkpt lat="37.618466545304905" lon="14.778172597553155"><ele>311.0</ele><time>2026-04-06T09:32:17Z</time></trkpt><trkpt lat="37.61850296663863" lon="14.77827076031291"><ele>311.0</ele><time>2026-04-06T09:32:18Z</time></trkpt><trkpt lat="37.61853634192864" lon="14.778348526768642"><ele>311.0</ele><time>2026-04-06T09:32:19Z</time></trkpt><trkpt lat="37.6186598449348" lon="14.778411821757459"><ele>310.6</ele><time>2026-04-06T09:32:21Z</time></trkpt><trkpt lat="37.61877744783176" lon="14.778426574107627"><ele>310.20000000000005</ele><time>2026-04-06T09:32:21.999Z</time></trkpt><trkpt lat="37.61888740549412" lon="14.778457113630541"><ele>309.79999999999995</ele><time>2026-04-06T09:32:22.999Z</time></trkpt><trkpt lat="37.6190002926388" lon="14.778477673381385"><ele>309.4</ele><time>2026-04-06T09:32:23.999Z</time></trkpt><trkpt lat="37.6190919892165" lon="14.778515522099788"><ele>309.0</ele><time>2026-04-06T09:32:24.999Z</time></trkpt><trkpt lat="37.61916576931828" lon="14.778558105832643"><ele>308.2</ele><time>2026-04-06T09:32:25.999Z</time></trkpt><trkpt lat="37.619252598686465" lon="14.778620306089762"><ele>307.4</ele><time>2026-04-06T09:32:26.999Z</time></trkpt><trkpt lat="37.619338599450536" lon="14.77870448042582"><ele>306.6</ele><time>2026-04-06T09:32:27.999Z</time></trkpt><trkpt lat="37.61940731681012" lon="14.778805186429755"><ele>305.8</ele><time>2026-04-06T09:32:28.999Z</time></trkpt><trkpt lat="37.6194736951034" lon="14.778883652346174"><ele>305.0</ele><time>2026-04-06T09:32:29.999Z</time></trkpt><trkpt lat="37.61950675702214" lon="14.778959232100743"><ele>304.25</ele><time>2026-04-06T09:32:30.999Z</time></trkpt><trkpt lat="37.61963299567164" lon="14.779037464593475"><ele>303.5</ele><time>2026-04-06T09:32:32.999Z</time></trkpt><trkpt lat="37.6197335258443" lon="14.779053277955132"><ele>302.75</ele><time>2026-04-06T09:32:33.999Z</time></trkpt><trkpt lat="37.61984865643312" lon="14.779091359691174"><ele>302.0</ele><time>2026-04-06T09:32:34.999Z</time></trkpt><trkpt lat="37.619960125206276" lon="14.779155092448294"><ele>302.0</ele><time>2026-04-06T09:32:35.999Z</time></trkpt><trkpt lat="37.620062319911234" lon="14.779200595684319"><ele>302.0</ele><time>2026-04-06T09:32:36.999Z</time></trkpt><trkpt lat="37.620153029885714" lon="14.779223893907174"><ele>302.0</ele><time>2026-04-06T09:32:37.999Z</time></trkpt><trkpt lat="37.620224711355206" lon="14.779285016122966"><ele>302.0</ele><time>2026-04-06T09:32:38.999Z</time></trkpt><trkpt lat="37.62029413434192" lon="14.77937673999144"><ele>302.0</ele><time>2026-04-06T09:32:39.999Z</time></trkpt><trkpt lat="37.62036575918231" lon="14.779494343725991"><ele>300.8</ele><time>2026-04-06T09:32:40.999Z</time></trkpt><trkpt lat="37.62043471230279" lon="14.779593939381112"><ele>299.6</ele><time>2026-04-06T09:32:41.999Z</time></trkpt><trkpt lat="37.6205025700695" lon="14.779665175060343"><ele>298.40000000000003</ele><time>2026-04-06T09:32:42.999Z</time></trkpt><trkpt lat="37.62059245434509" lon="14.779719910501404"><ele>297.2</ele><time>2026-04-06T09:32:43.999Z</time></trkpt><trkpt lat="37.62068980941911" lon="14.779756210074058"><ele>296.0</ele><time>2026-04-06T09:32:44.999Z</time></trkpt><trkpt lat="37.62077950569768" lon="14.779807121917267"><ele>296.0</ele><time>2026-04-06T09:32:45.999Z</time></trkpt><trkpt lat="37.62084861592714" lon="14.779909032684152"><ele>296.0</ele><time>2026-04-06T09:32:46.999Z</time></trkpt><trkpt lat="37.62092268467353" lon="14.779985598099744"><ele>296.0</ele><time>2026-04-06T09:32:47.999Z</time></trkpt><trkpt lat="37.62094310002825" lon="14.780097941085565"><ele>296.0</ele><time>2026-04-06T09:32:48.999Z</time></trkpt><trkpt lat="37.620974009597575" lon="14.780220652305427"><ele>296.0</ele><time>2026-04-06T09:32:49.999Z</time></trkpt><trkpt lat="37.62103005183294" lon="14.780334704109482"><ele>295.75</ele><time>2026-04-06T09:32:50.999Z</time></trkpt><trkpt lat="37.6210966322952" lon="14.780454812839219"><ele>295.5</ele><time>2026-04-06T09:32:51.999Z</time></trkpt><trkpt lat="37.621182596122665" lon="14.780579159660578"><ele>295.25</ele><time>2026-04-06T09:32:52.999Z</time></trkpt><trkpt lat="37.62125312055355" lon="14.780674986495788"><ele>295.0</ele><time>2026-04-06T09:32:53.999Z</time></trkpt><trkpt lat="37.621322531612215" lon="14.78077379302736"><ele>294.8333333333333</ele><time>2026-04-06T09:32:55.999Z</time></trkpt><trkpt lat="37.62140805657552" lon="14.78073870766978"><ele>294.66666666666663</ele><time>2026-04-06T09:32:57.999Z</time></trkpt><trkpt lat="37.6214498466561" lon="14.780677549078622"><ele>294.5</ele><time>2026-04-06T09:32:58.999Z</time></trkpt><trkpt lat="37.62151817388733" lon="14.780617475292177"><ele>294.3333333333333</ele><time>2026-04-06T09:32:59.999Z</time></trkpt><trkpt lat="37.62156929419703" lon="14.780569319048347"><ele>294.1666666666667</ele><time>2026-04-06T09:33:00.999Z</time></trkpt><trkpt lat="37.6216492311931" lon="14.78054851535236"><ele>294.0</ele><time>2026-04-06T09:33:02.999Z</time></trkpt><trkpt lat="37.62169397032714" lon="14.780636771571"><ele>294.0</ele><time>2026-04-06T09:33:03.999Z</time></trkpt><trkpt lat="37.62176211484984" lon="14.78071645968353"><ele>294.0</ele><time>2026-04-06T09:33:04.999Z</time></trkpt><trkpt lat="37.621846661575645" lon="14.78081036370165"><ele>294.0</ele><time>2026-04-06T09:33:05.999Z</time></trkpt><trkpt lat="37.62193959523695" lon="14.780913001300256"><ele>294.0</ele><time>2026-04-06T09:33:06.999Z</time></trkpt><trkpt lat="37.622059673774984" lon="14.781018568324654"><ele>292.0</ele><time>2026-04-06T09:33:07.999Z</time></trkpt><trkpt lat="37.622175815223756" lon="14.781157550985938"><ele>290.0</ele><time>2026-04-06T09:33:08.999Z</time></trkpt><trkpt lat="37.622306146078195" lon="14.781302971532286"><ele>288.0</ele><time>2026-04-06T09:33:09.999Z</time></trkpt><trkpt lat="37.622433144364614" lon="14.781454052402621"><ele>288.0</ele><time>2026-04-06T09:33:10.999Z</time></trkpt><trkpt lat="37.622545419492155" lon="14.781581964921305"><ele>288.0</ele><time>2026-04-06T09:33:11.999Z</time></trkpt><trkpt lat="37.6226511078794" lon="14.78170216677305"><ele>288.0</ele><time>2026-04-06T09:33:12.999Z</time></trkpt><trkpt lat="37.62274639050014" lon="14.78181758046024"><ele>288.0</ele><time>2026-04-06T09:33:13.999Z</time></trkpt><trkpt lat="37.62284579537702" lon="14.78192772803248"><ele>286.75</ele><time>2026-04-06T09:33:14.999Z</time></trkpt><trkpt lat="37.62293523689989" lon="14.782040367213654"><ele>285.5</ele><time>2026-04-06T09:33:15.999Z</time></trkpt><trkpt lat="37.62302610167314" lon="14.78213784504421"><ele>284.25</ele><time>2026-04-06T09:33:16.999Z</time></trkpt><trkpt lat="37.62310775263574" lon="14.782240796265082"><ele>283.0</ele><time>2026-04-06T09:33:18Z</time></trkpt><trkpt lat="37.6231887609616" lon="14.782343857100594"><ele>283.0</ele><time>2026-04-06T09:33:19Z</time></trkpt><trkpt lat="37.62328935483725" lon="14.782456394033883"><ele>283.0</ele><time>2026-04-06T09:33:20Z</time></trkpt><trkpt lat="37.62338998142124" lon="14.782573593945116"><ele>283.0</ele><time>2026-04-06T09:33:21Z</time></trkpt><trkpt lat="37.62349017808819" lon="14.782693307756272"><ele>283.0</ele><time>2026-04-06T09:33:22Z</time></trkpt><trkpt lat="37.62359415876421" lon="14.782817434585388"><ele>282.0</ele><time>2026-04-06T09:33:23Z</time></trkpt><trkpt lat="37.62369845056236" lon="14.782940845914142"><ele>281.0</ele><time>2026-04-06T09:33:24Z</time></trkpt><trkpt lat="37.62379537254176" lon="14.783056806291665"><ele>280.0</ele><time>2026-04-06T09:33:25Z</time></trkpt><trkpt lat="37.62388942227404" lon="14.783156138219077"><ele>279.0</ele><time>2026-04-06T09:33:26Z</time></trkpt><trkpt lat="37.62397160750483" lon="14.783258337476845"><ele>279.0</ele><time>2026-04-06T09:33:27Z</time></trkpt><trkpt lat="37.62405437054518" lon="14.783362197176437"><ele>279.0</ele><time>2026-04-06T09:33:28Z</time></trkpt><trkpt lat="37.62413657190641" lon="14.783452712625309"><ele>279.0</ele><time>2026-04-06T09:33:29Z</time></trkpt><trkpt lat="37.62421445515999" lon="14.783549753189423"><ele>279.0</ele><time>2026-04-06T09:33:30Z</time></trkpt><trkpt lat="37.624302320804134" lon="14.783651592820778"><ele>278.4</ele><time>2026-04-06T09:33:31Z</time></trkpt><trkpt lat="37.62437831581946" lon="14.783749154775741"><ele>277.79999999999995</ele><time>2026-04-06T09:33:32Z</time></trkpt><trkpt lat="37.624446583971526" lon="14.783852863984247"><ele>277.20000000000005</ele><time>2026-04-06T09:33:33Z</time></trkpt><trkpt lat="37.62450607440667" lon="14.783968115813797"><ele>276.6</ele><time>2026-04-06T09:33:34Z</time></trkpt><trkpt lat="37.62456020546052" lon="14.784102681358473"><ele>276.0</ele><time>2026-04-06T09:33:35Z</time></trkpt><trkpt lat="37.624608001225" lon="14.784240171450223"><ele>274.40000000000003</ele><time>2026-04-06T09:33:36Z</time></trkpt><trkpt lat="37.62465662731275" lon="14.784365342600376"><ele>272.8</ele><time>2026-04-06T09:33:37Z</time></trkpt><trkpt lat="37.62469811001171" lon="14.78447958537615"><ele>271.20000000000005</ele><time>2026-04-06T09:33:38Z</time></trkpt><trkpt lat="37.62474998999753" lon="14.784590991988393"><ele>269.6</ele><time>2026-04-06T09:33:39Z</time></trkpt><trkpt lat="37.62481379692998" lon="14.784685437608681"><ele>268.0</ele><time>2026-04-06T09:33:40Z</time></trkpt><trkpt lat="37.62489395135442" lon="14.78477056275744"><ele>268.0</ele><time>2026-04-06T09:33:41Z</time></trkpt><trkpt lat="37.62498618897454" lon="14.784849717992998"><ele>268.0</ele><time>2026-04-06T09:33:42Z</time></trkpt><trkpt lat="37.6250740313668" lon="14.784958890179075"><ele>268.0</ele><time>2026-04-06T09:33:43Z</time></trkpt><trkpt lat="37.62517712985376" lon="14.785057133952282"><ele>268.0</ele><time>2026-04-06T09:33:44Z</time></trkpt><trkpt lat="37.625288691260046" lon="14.785135435769625"><ele>267.25</ele><time>2026-04-06T09:33:45Z</time></trkpt><trkpt lat="37.62537476400542" lon="14.785222452358594"><ele>266.5</ele><time>2026-04-06T09:33:46Z</time></trkpt><trkpt lat="37.62546246996557" lon="14.785302361160163"><ele>265.75</ele><time>2026-04-06T09:33:47Z</time></trkpt><trkpt lat="37.62555521231455" lon="14.785394046883887"><ele>265.0</ele><time>2026-04-06T09:33:48Z</time></trkpt><trkpt lat="37.625656730743565" lon="14.785494074388263"><ele>265.0</ele><time>2026-04-06T09:33:49Z</time></trkpt><trkpt lat="37.62577130272009" lon="14.785600568027954"><ele>265.0</ele><time>2026-04-06T09:33:50Z</time></trkpt><trkpt lat="37.625879525687154" lon="14.785715392376503"><ele>265.0</ele><time>2026-04-06T09:33:51Z</time></trkpt><trkpt lat="37.62597856475837" lon="14.785821367856885"><ele>265.0</ele><time>2026-04-06T09:33:52Z</time></trkpt><trkpt lat="37.626064185849614" lon="14.785919372388935"><ele>265.0</ele><time>2026-04-06T09:33:53Z</time></trkpt><trkpt lat="37.62613496842623" lon="14.786007187765714"><ele>265.0</ele><time>2026-04-06T09:33:54Z</time></trkpt><trkpt lat="37.6261948023993" lon="14.786084669879713"><ele>265.0</ele><time>2026-04-06T09:33:55Z</time></trkpt><trkpt lat="37.626242423398566" lon="14.786153898310136"><ele>265.0</ele><time>2026-04-06T09:33:56Z</time></trkpt><trkpt lat="37.626294490488725" lon="14.786245758195998"><ele>265.0</ele><time>2026-04-06T09:33:58Z</time></trkpt><trkpt lat="37.62640351143124" lon="14.78619932888606"><ele>264.4</ele><time>2026-04-06T09:34:00Z</time></trkpt><trkpt lat="37.62644902102588" lon="14.786098957871989"><ele>263.8</ele><time>2026-04-06T09:34:01Z</time></trkpt><trkpt lat="37.6265367852548" lon="14.786023899106494"><ele>263.2</ele><time>2026-04-06T09:34:02Z</time></trkpt><trkpt lat="37.62661140529934" lon="14.785934346970757"><ele>262.6</ele><time>2026-04-06T09:34:03Z</time></trkpt><trkpt lat="37.62667003473402" lon="14.78585928998656"><ele>262.0</ele><time>2026-04-06T09:34:04Z</time></trkpt><trkpt lat="37.62673559895436" lon="14.785742326329611"><ele>262.0</ele><time>2026-04-06T09:34:06Z</time></trkpt><trkpt lat="37.626729116889564" lon="14.785637799489573"><ele>262.0</ele><time>2026-04-06T09:34:07Z</time></trkpt><trkpt lat="37.62672688323112" lon="14.7855390771496"><ele>262.0</ele><time>2026-04-06T09:34:08Z</time></trkpt><trkpt lat="37.62675536379152" lon="14.785443363140976"><ele>262.0</ele><time>2026-04-06T09:34:09Z</time></trkpt><trkpt lat="37.62676897386337" lon="14.785344234563873"><ele>262.0</ele><time>2026-04-06T09:34:10Z</time></trkpt><trkpt lat="37.62680559165749" lon="14.785238928770333"><ele>262.0</ele><time>2026-04-06T09:34:11Z</time></trkpt><trkpt lat="37.626859003211685" lon="14.785139439186969"><ele>262.2</ele><time>2026-04-06T09:34:12Z</time></trkpt><trkpt lat="37.62691964594204" lon="14.785047895712733"><ele>262.4</ele><time>2026-04-06T09:34:12.999Z</time></trkpt><trkpt lat="37.6269834776784" lon="14.784956224929868"><ele>262.6</ele><time>2026-04-06T09:34:13.999Z</time></trkpt><trkpt lat="37.62706824310584" lon="14.784842381718297"><ele>262.8</ele><time>2026-04-06T09:34:14.999Z</time></trkpt><trkpt lat="37.62714848964465" lon="14.784734593588329"><ele>263.0</ele><time>2026-04-06T09:34:15.999Z</time></trkpt><trkpt lat="37.62722431851479" lon="14.784637591172755"><ele>263.0</ele><time>2026-04-06T09:34:16.999Z</time></trkpt><trkpt lat="37.627279280809155" lon="14.784547201514732"><ele>263.0</ele><time>2026-04-06T09:34:17.999Z</time></trkpt><trkpt lat="37.627314414435254" lon="14.784435500307437"><ele>263.0</ele><time>2026-04-06T09:34:18.999Z</time></trkpt><trkpt lat="37.62735431866564" lon="14.784297881900564"><ele>263.0</ele><time>2026-04-06T09:34:19.999Z</time></trkpt><trkpt lat="37.62739299886495" lon="14.784143638099236"><ele>263.0</ele><time>2026-04-06T09:34:20.999Z</time></trkpt><trkpt lat="37.627441757686604" lon="14.78399270088823"><ele>263.0</ele><time>2026-04-06T09:34:21.999Z</time></trkpt><trkpt lat="37.627504224473306" lon="14.783820264226243"><ele>263.0</ele><time>2026-04-06T09:34:22.999Z</time></trkpt><trkpt lat="37.6275426972594" lon="14.78364370131335"><ele>263.0</ele><time>2026-04-06T09:34:23.999Z</time></trkpt><trkpt lat="37.627577509630164" lon="14.783466067584136"><ele>263.0</ele><time>2026-04-06T09:34:24.999Z</time></trkpt><trkpt lat="37.62762130278957" lon="14.783168082326801"><ele>263.0</ele><time>2026-04-06T09:34:26.999Z</time></trkpt><trkpt lat="37.62763287915076" lon="14.783061122583886"><ele>263.0</ele><time>2026-04-06T09:34:27.999Z</time></trkpt><trkpt lat="37.62763784301582" lon="14.782976347977149"><ele>263.0</ele><time>2026-04-06T09:34:28.999Z</time></trkpt><trkpt lat="37.62763171606282" lon="14.78289622270762"><ele>263.0</ele><time>2026-04-06T09:34:29.999Z</time></trkpt><trkpt lat="37.627553900344374" lon="14.782701808900777"><ele>263.0</ele><time>2026-04-06T09:34:32.999Z</time></trkpt><trkpt lat="37.6275087884898" lon="14.782582129320577"><ele>263.0</ele><time>2026-04-06T09:34:34.999Z</time></trkpt><trkpt lat="37.62749239830904" lon="14.782475842193705"><ele>263.0</ele><time>2026-04-06T09:34:36.999Z</time></trkpt><trkpt lat="37.62752177477982" lon="14.782569125468333"><ele>263.0</ele><time>2026-04-06T09:34:40.999Z</time></trkpt><trkpt lat="37.627528669120395" lon="14.782666306197486"><ele>263.0</ele><time>2026-04-06T09:34:41.999Z</time></trkpt><trkpt lat="37.62756863492033" lon="14.782754779562863"><ele>263.0</ele><time>2026-04-06T09:34:42.999Z</time></trkpt><trkpt lat="37.627599067764194" lon="14.78284732201713"><ele>263.0</ele><time>2026-04-06T09:34:43.999Z</time></trkpt><trkpt lat="37.62763144310388" lon="14.78292644757044"><ele>263.0</ele><time>2026-04-06T09:34:44.999Z</time></trkpt><trkpt lat="37.62762945028077" lon="14.783091121526391"><ele>263.0</ele><time>2026-04-06T09:34:46.999Z</time></trkpt><trkpt lat="37.62760968238324" lon="14.7831802430571"><ele>263.0</ele><time>2026-04-06T09:34:47.999Z</time></trkpt><trkpt lat="37.627594367210186" lon="14.783267199035523"><ele>263.0</ele><time>2026-04-06T09:34:48.999Z</time></trkpt><trkpt lat="37.627578191487295" lon="14.783390379127257"><ele>263.0</ele><time>2026-04-06T09:34:50.999Z</time></trkpt><trkpt lat="37.62756195028415" lon="14.783496891131033"><ele>263.2</ele><time>2026-04-06T09:34:53.999Z</time></trkpt><trkpt lat="37.627523492867795" lon="14.783644893262494"><ele>263.4</ele><time>2026-04-06T09:34:55.999Z</time></trkpt><trkpt lat="37.6275000751072" lon="14.783750846132618"><ele>263.59999999999997</ele><time>2026-04-06T09:34:56.999Z</time></trkpt><trkpt lat="37.62747124892216" lon="14.783864911668397"><ele>263.8</ele><time>2026-04-06T09:34:57.999Z</time></trkpt><trkpt lat="37.62743987187574" lon="14.783977515174394"><ele>264.0</ele><time>2026-04-06T09:34:58.999Z</time></trkpt><trkpt lat="37.627409282248365" lon="14.784079663514108"><ele>264.0</ele><time>2026-04-06T09:34:59.999Z</time></trkpt><trkpt lat="37.627378548714574" lon="14.784177982810174"><ele>264.0</ele><time>2026-04-06T09:35:00.999Z</time></trkpt><trkpt lat="37.627349155949915" lon="14.78427628796327"><ele>264.0</ele><time>2026-04-06T09:35:01.999Z</time></trkpt><trkpt lat="37.627320136813246" lon="14.784370734804739"><ele>264.0</ele><time>2026-04-06T09:35:02.999Z</time></trkpt><trkpt lat="37.62729275239477" lon="14.784454574188768"><ele>264.0</ele><time>2026-04-06T09:35:03.999Z</time></trkpt><trkpt lat="37.62726114492119" lon="14.78453061389139"><ele>264.0</ele><time>2026-04-06T09:35:04.999Z</time></trkpt><trkpt lat="37.627213954107866" lon="14.784612664546723"><ele>263.8333333333333</ele><time>2026-04-06T09:35:05.999Z</time></trkpt><trkpt lat="37.62714784957984" lon="14.784698894802498"><ele>263.6666666666667</ele><time>2026-04-06T09:35:06.999Z</time></trkpt><trkpt lat="37.627088961741755" lon="14.784764048635056"><ele>263.5</ele><time>2026-04-06T09:35:07.999Z</time></trkpt><trkpt lat="37.62703591345169" lon="14.784834831800453"><ele>263.33333333333337</ele><time>2026-04-06T09:35:08.999Z</time></trkpt><trkpt lat="37.62698399547342" lon="14.784899103152734"><ele>263.1666666666667</ele><time>2026-04-06T09:35:10.999Z</time></trkpt><trkpt lat="37.627013091598705" lon="14.784985455217262"><ele>263.0</ele><time>2026-04-06T09:35:48Z</time></trkpt><trkpt lat="37.62706191101837" lon="14.785035671895505"><ele>263.0</ele><time>2026-04-06T09:35:52Z</time></trkpt><trkpt lat="37.6271452960963" lon="14.785110242337856"><ele>263.0</ele><time>2026-04-06T09:35:56Z</time></trkpt><trkpt lat="37.6272061859885" lon="14.785176858161007"><ele>263.0</ele><time>2026-04-06T09:35:57Z</time></trkpt><trkpt lat="37.62727700892951" lon="14.785221803985566"><ele>263.0</ele><time>2026-04-06T09:35:58Z</time></trkpt><trkpt lat="37.62735433708963" lon="14.785272167422605"><ele>263.0</ele><time>2026-04-06T09:35:59Z</time></trkpt><trkpt lat="37.627417080552895" lon="14.785336288264153"><ele>263.0</ele><time>2026-04-06T09:36:00Z</time></trkpt><trkpt lat="37.62748699323372" lon="14.78538988916202"><ele>262.6666666666667</ele><time>2026-04-06T09:36:01Z</time></trkpt><trkpt lat="37.62757377641794" lon="14.785432349591494"><ele>262.33333333333337</ele><time>2026-04-06T09:36:02Z</time></trkpt><trkpt lat="37.6276417718926" lon="14.785487017591898"><ele>262.0</ele><time>2026-04-06T09:36:03Z</time></trkpt><trkpt lat="37.62770603701438" lon="14.785540047879339"><ele>261.6666666666667</ele><time>2026-04-06T09:36:04Z</time></trkpt><trkpt lat="37.62776862153705" lon="14.785588120301338"><ele>261.3333333333333</ele><time>2026-04-06T09:36:05Z</time></trkpt><trkpt lat="37.62783251343127" lon="14.785630666821733"><ele>261.0</ele><time>2026-04-06T09:36:06Z</time></trkpt><trkpt lat="37.627897274929815" lon="14.7856787003533"><ele>260.14285714285717</ele><time>2026-04-06T09:36:07Z</time></trkpt><trkpt lat="37.62796196658183" lon="14.785729244397308"><ele>259.2857142857143</ele><time>2026-04-06T09:36:08Z</time></trkpt><trkpt lat="37.62802694693058" lon="14.785782481317595"><ele>258.42857142857144</ele><time>2026-04-06T09:36:09Z</time></trkpt><trkpt lat="37.628095689738544" lon="14.785833934303154"><ele>257.57142857142856</ele><time>2026-04-06T09:36:10Z</time></trkpt><trkpt lat="37.62815846993625" lon="14.785878694987604"><ele>256.7142857142857</ele><time>2026-04-06T09:36:11Z</time></trkpt><trkpt lat="37.628223618062265" lon="14.785927248228914"><ele>255.85714285714286</ele><time>2026-04-06T09:36:12Z</time></trkpt><trkpt lat="37.628280983802746" lon="14.785970992585542"><ele>255.0</ele><time>2026-04-06T09:36:13Z</time></trkpt><trkpt lat="37.628338090269565" lon="14.786015505201085"><ele>255.0</ele><time>2026-04-06T09:36:14Z</time></trkpt><trkpt lat="37.628400086817386" lon="14.786072566920108"><ele>255.0</ele><time>2026-04-06T09:36:15Z</time></trkpt><trkpt lat="37.628472275961066" lon="14.786132519800374"><ele>255.0</ele><time>2026-04-06T09:36:16Z</time></trkpt><trkpt lat="37.62854631496685" lon="14.7861900514362"><ele>255.0</ele><time>2026-04-06T09:36:17Z</time></trkpt><trkpt lat="37.628611915089735" lon="14.78624169224353"><ele>255.0</ele><time>2026-04-06T09:36:18Z</time></trkpt><trkpt lat="37.62867686746932" lon="14.786293611323678"><ele>255.0</ele><time>2026-04-06T09:36:19Z</time></trkpt><trkpt lat="37.62875032849157" lon="14.786344603531683"><ele>255.0</ele><time>2026-04-06T09:36:20Z</time></trkpt><trkpt lat="37.62881630475599" lon="14.786406242702466"><ele>255.0</ele><time>2026-04-06T09:36:21Z</time></trkpt><trkpt lat="37.62888685924368" lon="14.786465142706193"><ele>255.0</ele><time>2026-04-06T09:36:22Z</time></trkpt><trkpt lat="37.628975712471814" lon="14.786519992232536"><ele>255.0</ele><time>2026-04-06T09:36:23Z</time></trkpt><trkpt lat="37.629061742911375" lon="14.786607104993017"><ele>255.0</ele><time>2026-04-06T09:36:24Z</time></trkpt><trkpt lat="37.629152315564255" lon="14.78667495028547"><ele>255.0</ele><time>2026-04-06T09:36:25Z</time></trkpt><trkpt lat="37.62922644735023" lon="14.786730294251873"><ele>255.0</ele><time>2026-04-06T09:36:26Z</time></trkpt><trkpt lat="37.62931082840481" lon="14.786771606878094"><ele>255.0</ele><time>2026-04-06T09:36:27Z</time></trkpt><trkpt lat="37.62938928199699" lon="14.786831369715587"><ele>255.0</ele><time>2026-04-06T09:36:28Z</time></trkpt><trkpt lat="37.6294661878617" lon="14.786886009384476"><ele>255.0</ele><time>2026-04-06T09:36:29Z</time></trkpt><trkpt lat="37.62953123480592" lon="14.786957836954972"><ele>255.0</ele><time>2026-04-06T09:36:30Z</time></trkpt><trkpt lat="37.62961400205942" lon="14.78701962783062"><ele>254.4</ele><time>2026-04-06T09:36:31Z</time></trkpt><trkpt lat="37.629691604047125" lon="14.787059725348197"><ele>253.8</ele><time>2026-04-06T09:36:32Z</time></trkpt><trkpt lat="37.62976713559911" lon="14.787114892992472"><ele>253.2</ele><time>2026-04-06T09:36:33Z</time></trkpt><trkpt lat="37.629851319216286" lon="14.78719987954556"><ele>252.6</ele><time>2026-04-06T09:36:34Z</time></trkpt><trkpt lat="37.62993352348753" lon="14.787262786279582"><ele>252.0</ele><time>2026-04-06T09:36:35Z</time></trkpt><trkpt lat="37.630005009685135" lon="14.787317491021739"><ele>252.0</ele><time>2026-04-06T09:36:36Z</time></trkpt><trkpt lat="37.63007853506044" lon="14.787349501207611"><ele>252.0</ele><time>2026-04-06T09:36:37Z</time></trkpt><trkpt lat="37.63013447028072" lon="14.787393992596709"><ele>252.0</ele><time>2026-04-06T09:36:37.999Z</time></trkpt><trkpt lat="37.63018005114055" lon="14.787451441320746"><ele>252.0</ele><time>2026-04-06T09:36:38.999Z</time></trkpt><trkpt lat="37.630271553782116" lon="14.78750770619953"><ele>252.0</ele><time>2026-04-06T09:36:40.999Z</time></trkpt><trkpt lat="37.630347084687315" lon="14.787532148226989"><ele>252.0</ele><time>2026-04-06T09:36:51.999Z</time></trkpt><trkpt lat="37.63042455944927" lon="14.787450875383348"><ele>251.5</ele><time>2026-04-06T09:36:54.999Z</time></trkpt><trkpt lat="37.63045517351372" lon="14.78735550726218"><ele>251.0</ele><time>2026-04-06T09:36:55.999Z</time></trkpt><trkpt lat="37.63050700416894" lon="14.787229937366638"><ele>250.5</ele><time>2026-04-06T09:36:56.999Z</time></trkpt><trkpt lat="37.63056048610223" lon="14.787089277453163"><ele>250.0</ele><time>2026-04-06T09:36:57.999Z</time></trkpt><trkpt lat="37.630628112448846" lon="14.786932560678016"><ele>250.0</ele><time>2026-04-06T09:36:58.999Z</time></trkpt><trkpt lat="37.630698898155956" lon="14.786771897752713"><ele>250.0</ele><time>2026-04-06T09:36:59.999Z</time></trkpt><trkpt lat="37.63077422790731" lon="14.78660178328043"><ele>250.0</ele><time>2026-04-06T09:37:00.999Z</time></trkpt><trkpt lat="37.630849362661884" lon="14.786426268039305"><ele>250.0</ele><time>2026-04-06T09:37:01.999Z</time></trkpt><trkpt lat="37.630925064323904" lon="14.78624866350362"><ele>250.0</ele><time>2026-04-06T09:37:02.999Z</time></trkpt><trkpt lat="37.63100682615241" lon="14.786065966236993"><ele>250.0</ele><time>2026-04-06T09:37:03.999Z</time></trkpt><trkpt lat="37.63109076177069" lon="14.785878392811837"><ele>249.33333333333331</ele><time>2026-04-06T09:37:04.999Z</time></trkpt><trkpt lat="37.6311698751454" lon="14.785689716915954"><ele>248.66666666666669</ele><time>2026-04-06T09:37:05.999Z</time></trkpt><trkpt lat="37.63125814824123" lon="14.78552843418329"><ele>248.0</ele><time>2026-04-06T09:37:06.999Z</time></trkpt><trkpt lat="37.63131315526435" lon="14.785358413011892"><ele>248.0</ele><time>2026-04-06T09:37:07.999Z</time></trkpt><trkpt lat="37.631370814586376" lon="14.785199626837827"><ele>248.0</ele><time>2026-04-06T09:37:08.999Z</time></trkpt><trkpt lat="37.63142172256855" lon="14.785051647164687"><ele>248.0</ele><time>2026-04-06T09:37:09.999Z</time></trkpt><trkpt lat="37.63147321321339" lon="14.78491715147417"><ele>248.0</ele><time>2026-04-06T09:37:10.999Z</time></trkpt><trkpt lat="37.63152508927692" lon="14.784800881782928"><ele>248.25</ele><time>2026-04-06T09:37:11.999Z</time></trkpt><trkpt lat="37.63162322569897" lon="14.784719370958175"><ele>248.5</ele><time>2026-04-06T09:37:12.999Z</time></trkpt><trkpt lat="37.63172812517181" lon="14.784620802254341"><ele>248.75</ele><time>2026-04-06T09:37:13.999Z</time></trkpt><trkpt lat="37.63183846586689" lon="14.784509178299635"><ele>249.0</ele><time>2026-04-06T09:37:14.999Z</time></trkpt><trkpt lat="37.63193961281221" lon="14.784381231512452"><ele>249.33333333333331</ele><time>2026-04-06T09:37:15.999Z</time></trkpt><trkpt lat="37.63205977444441" lon="14.784266976715937"><ele>249.66666666666666</ele><time>2026-04-06T09:37:16.999Z</time></trkpt><trkpt lat="37.63218538004915" lon="14.784161998502025"><ele>250.0</ele><time>2026-04-06T09:37:17.999Z</time></trkpt><trkpt lat="37.63231899840512" lon="14.784054209638443"><ele>250.0</ele><time>2026-04-06T09:37:18.999Z</time></trkpt><trkpt lat="37.632457120812155" lon="14.783946352490029"><ele>250.0</ele><time>2026-04-06T09:37:19.999Z</time></trkpt><trkpt lat="37.63260069433975" lon="14.783852873554755"><ele>250.0</ele><time>2026-04-06T09:37:20.999Z</time></trkpt><trkpt lat="37.632757386373875" lon="14.783783895503767"><ele>250.33333333333331</ele><time>2026-04-06T09:37:21.999Z</time></trkpt><trkpt lat="37.632911261308806" lon="14.783694155966241"><ele>250.66666666666669</ele><time>2026-04-06T09:37:22.999Z</time></trkpt><trkpt lat="37.633071411215425" lon="14.783584751674432"><ele>251.0</ele><time>2026-04-06T09:37:23.999Z</time></trkpt><trkpt lat="37.6332278510427" lon="14.78349644132187"><ele>251.0</ele><time>2026-04-06T09:37:24.999Z</time></trkpt><trkpt lat="37.63338319519086" lon="14.783413160250053"><ele>251.0</ele><time>2026-04-06T09:37:25.999Z</time></trkpt><trkpt lat="37.63352719565509" lon="14.783327624664677"><ele>251.0</ele><time>2026-04-06T09:37:26.999Z</time></trkpt><trkpt lat="37.63367088638953" lon="14.78324500650409"><ele>250.75</ele><time>2026-04-06T09:37:27.999Z</time></trkpt><trkpt lat="37.63380473640521" lon="14.78316563910767"><ele>250.5</ele><time>2026-04-06T09:37:28.999Z</time></trkpt><trkpt lat="37.63393005409101" lon="14.783093070136744"><ele>250.25</ele><time>2026-04-06T09:37:30Z</time></trkpt><trkpt lat="37.63404640093284" lon="14.78302438020067"><ele>250.0</ele><time>2026-04-06T09:37:31Z</time></trkpt><trkpt lat="37.634148829614496" lon="14.782962474633896"><ele>249.99999999999997</ele><time>2026-04-06T09:37:32Z</time></trkpt><trkpt lat="37.63423087148246" lon="14.782913703043983"><ele>250.0</ele><time>2026-04-06T09:37:33Z</time></trkpt><trkpt lat="37.63429610272525" lon="14.782875759240497"><ele>250.0</ele><time>2026-04-06T09:37:34Z</time></trkpt><trkpt lat="37.63435933473147" lon="14.78284465015774"><ele>250.0</ele><time>2026-04-06T09:37:35Z</time></trkpt><trkpt lat="37.634424665890485" lon="14.782801135679765"><ele>249.99999999999997</ele><time>2026-04-06T09:37:36Z</time></trkpt><trkpt lat="37.63448894324048" lon="14.78273683942768"><ele>250.0</ele><time>2026-04-06T09:37:37Z</time></trkpt><trkpt lat="37.634551086415975" lon="14.782675464360373"><ele>248.4</ele><time>2026-04-06T09:37:38Z</time></trkpt><trkpt lat="37.63460616501016" lon="14.782601536992008"><ele>246.8</ele><time>2026-04-06T09:37:39Z</time></trkpt><trkpt lat="37.63466538986973" lon="14.782513619636951"><ele>245.2</ele><time>2026-04-06T09:37:40Z</time></trkpt><trkpt lat="37.63474469532308" lon="14.782429286870546"><ele>243.6</ele><time>2026-04-06T09:37:41Z</time></trkpt><trkpt lat="37.63481474668675" lon="14.7823312280157"><ele>242.0</ele><time>2026-04-06T09:37:42Z</time></trkpt><trkpt lat="37.63488101168704" lon="14.782210583384401"><ele>242.0</ele><time>2026-04-06T09:37:43Z</time></trkpt><trkpt lat="37.63495906334933" lon="14.78211582079637"><ele>242.0</ele><time>2026-04-06T09:37:44Z</time></trkpt><trkpt lat="37.63503810126941" lon="14.782029449712606"><ele>242.0</ele><time>2026-04-06T09:37:45Z</time></trkpt><trkpt lat="37.635110682098414" lon="14.78193437962686"><ele>242.0</ele><time>2026-04-06T09:37:46Z</time></trkpt><trkpt lat="37.6351766598712" lon="14.781836023389728"><ele>242.0</ele><time>2026-04-06T09:37:47Z</time></trkpt><trkpt lat="37.63521279391908" lon="14.781743704244159"><ele>241.2</ele><time>2026-04-06T09:37:48Z</time></trkpt><trkpt lat="37.63521999242977" lon="14.781651963992898"><ele>240.39999999999998</ele><time>2026-04-06T09:37:49Z</time></trkpt><trkpt lat="37.63519388523912" lon="14.781553545864265"><ele>239.60000000000002</ele><time>2026-04-06T09:37:50Z</time></trkpt><trkpt lat="37.63514185491056" lon="14.781461414339358"><ele>238.8</ele><time>2026-04-06T09:37:51Z</time></trkpt><trkpt lat="37.635062927232866" lon="14.781355245058883"><ele>238.0</ele><time>2026-04-06T09:37:52Z</time></trkpt><trkpt lat="37.63501212112037" lon="14.781234855671169"><ele>237.99999999999997</ele><time>2026-04-06T09:37:53Z</time></trkpt><trkpt lat="37.634974060184966" lon="14.781148849059448"><ele>238.0</ele><time>2026-04-06T09:37:54Z</time></trkpt><trkpt lat="37.63494882102223" lon="14.781066344766"><ele>238.0</ele><time>2026-04-06T09:37:55Z</time></trkpt><trkpt lat="37.635020046728336" lon="14.780984297301696"><ele>238.0</ele><time>2026-04-06T09:37:57Z</time></trkpt><trkpt lat="37.63509339548371" lon="14.780934896556287"><ele>237.99999999999997</ele><time>2026-04-06T09:37:58Z</time></trkpt><trkpt lat="37.63518364722379" lon="14.78085352194266"><ele>238.0</ele><time>2026-04-06T09:37:59Z</time></trkpt><trkpt lat="37.63528822135257" lon="14.780763947758375"><ele>233.60000000000002</ele><time>2026-04-06T09:38:00Z</time></trkpt><trkpt lat="37.63536916993836" lon="14.780660583199017"><ele>229.20000000000002</ele><time>2026-04-06T09:38:01Z</time></trkpt><trkpt lat="37.63543659440712" lon="14.78059230990617"><ele>224.8</ele><time>2026-04-06T09:38:02Z</time></trkpt><trkpt lat="37.63549079916574" lon="14.780544381051065"><ele>220.4</ele><time>2026-04-06T09:38:03Z</time></trkpt><trkpt lat="37.6355794977128" lon="14.780608254573021"><ele>216.0</ele><time>2026-04-06T09:38:05Z</time></trkpt><trkpt lat="37.635629542014655" lon="14.78074598599381"><ele>216.0</ele><time>2026-04-06T09:38:07Z</time></trkpt><trkpt lat="37.6356459439731" lon="14.780832653656265"><ele>216.0</ele><time>2026-04-06T09:38:08Z</time></trkpt><trkpt lat="37.63564832069272" lon="14.780925871540578"><ele>216.0</ele><time>2026-04-06T09:38:09Z</time></trkpt><trkpt lat="37.63564655659193" lon="14.781037348633802"><ele>216.0</ele><time>2026-04-06T09:38:10Z</time></trkpt><trkpt lat="37.63562273597524" lon="14.78112772582843"><ele>216.0</ele><time>2026-04-06T09:38:11Z</time></trkpt><trkpt lat="37.635591781371495" lon="14.781228601718311"><ele>216.0</ele><time>2026-04-06T09:38:13Z</time></trkpt><trkpt lat="37.63561294627723" lon="14.78132642442668"><ele>216.0</ele><time>2026-04-06T09:38:14Z</time></trkpt><trkpt lat="37.63570900865782" lon="14.781365801182897"><ele>216.00000000000003</ele><time>2026-04-06T09:38:15Z</time></trkpt><trkpt lat="37.63580772226692" lon="14.781227079508556"><ele>216.00000000000003</ele><time>2026-04-06T09:38:16Z</time></trkpt><trkpt lat="37.6357825492416" lon="14.781107809597138"><ele>216.0</ele><time>2026-04-06T09:38:17Z</time></trkpt><trkpt lat="37.63578918978769" lon="14.78102362063193"><ele>216.0</ele><time>2026-04-06T09:38:18Z</time></trkpt><trkpt lat="37.63582387157707" lon="14.780937713374268"><ele>216.0</ele><time>2026-04-06T09:38:19Z</time></trkpt><trkpt lat="37.635858684701034" lon="14.78086291159589"><ele>216.0</ele><time>2026-04-06T09:38:20Z</time></trkpt><trkpt lat="37.635899215037384" lon="14.780799999555372"><ele>216.0</ele><time>2026-04-06T09:38:21Z</time></trkpt><trkpt lat="37.63595365591668" lon="14.780736311132157"><ele>216.0</ele><time>2026-04-06T09:38:22Z</time></trkpt><trkpt lat="37.63604539200472" lon="14.780731926833132"><ele>216.0</ele><time>2026-04-06T09:38:23Z</time></trkpt><trkpt lat="37.63610921933266" lon="14.780672377318911"><ele>216.0</ele><time>2026-04-06T09:38:24Z</time></trkpt><trkpt lat="37.63615899291464" lon="14.78059895606822"><ele>216.33333333333334</ele><time>2026-04-06T09:38:25Z</time></trkpt><trkpt lat="37.636198299615515" lon="14.780520273323523"><ele>216.66666666666669</ele><time>2026-04-06T09:38:26Z</time></trkpt><trkpt lat="37.63617947468585" lon="14.780429651973881"><ele>217.0</ele><time>2026-04-06T09:38:27Z</time></trkpt><trkpt lat="37.63616279279701" lon="14.780326192869946"><ele>217.33333333333334</ele><time>2026-04-06T09:38:28Z</time></trkpt><trkpt lat="37.63614872721837" lon="14.780186570578445"><ele>217.66666666666669</ele><time>2026-04-06T09:38:29Z</time></trkpt><trkpt lat="37.63612633537136" lon="14.780072708418333"><ele>218.0</ele><time>2026-04-06T09:38:30Z</time></trkpt><trkpt lat="37.636134478680624" lon="14.779960472187838"><ele>213.60000000000002</ele><time>2026-04-06T09:38:31Z</time></trkpt><trkpt lat="37.63614234778177" lon="14.779825656633717"><ele>209.20000000000002</ele><time>2026-04-06T09:38:32Z</time></trkpt><trkpt lat="37.63615239838415" lon="14.779675867735232"><ele>204.8</ele><time>2026-04-06T09:38:33Z</time></trkpt><trkpt lat="37.63616603938843" lon="14.77954346098448"><ele>200.4</ele><time>2026-04-06T09:38:34Z</time></trkpt><trkpt lat="37.63618701668818" lon="14.779415326571527"><ele>196.0</ele><time>2026-04-06T09:38:35Z</time></trkpt><trkpt lat="37.63623452615152" lon="14.779307721316458"><ele>196.0</ele><time>2026-04-06T09:38:36Z</time></trkpt><trkpt lat="37.63626317349853" lon="14.779196751715444"><ele>196.0</ele><time>2026-04-06T09:38:37Z</time></trkpt><trkpt lat="37.63628596799307" lon="14.77908880250872"><ele>196.0</ele><time>2026-04-06T09:38:38Z</time></trkpt><trkpt lat="37.636298625544526" lon="14.778963172294805"><ele>196.0</ele><time>2026-04-06T09:38:39Z</time></trkpt><trkpt lat="37.636306649828484" lon="14.778828536619967"><ele>196.0</ele><time>2026-04-06T09:38:40Z</time></trkpt><trkpt lat="37.636302815049326" lon="14.778721221317056"><ele>196.0</ele><time>2026-04-06T09:38:41Z</time></trkpt><trkpt lat="37.636271232402905" lon="14.778633840117367"><ele>196.0</ele><time>2026-04-06T09:38:42Z</time></trkpt><trkpt lat="37.63625102099305" lon="14.778530603269793"><ele>196.0</ele><time>2026-04-06T09:38:43Z</time></trkpt><trkpt lat="37.63621577218942" lon="14.778414746991158"><ele>196.0</ele><time>2026-04-06T09:38:44Z</time></trkpt><trkpt lat="37.63617837459086" lon="14.778287242518374"><ele>196.0</ele><time>2026-04-06T09:38:44.999Z</time></trkpt><trkpt lat="37.636115898417536" lon="14.778144793242173"><ele>198.0</ele><time>2026-04-06T09:38:45.999Z</time></trkpt><trkpt lat="37.63608862900951" lon="14.77797601940265"><ele>200.0</ele><time>2026-04-06T09:38:46.999Z</time></trkpt><trkpt lat="37.636042942939106" lon="14.777834818064166"><ele>202.0</ele><time>2026-04-06T09:38:47.999Z</time></trkpt><trkpt lat="37.63601762093616" lon="14.777686135845302"><ele>204.0</ele><time>2026-04-06T09:38:48.999Z</time></trkpt><trkpt lat="37.63597638240266" lon="14.777540497626099"><ele>204.0</ele><time>2026-04-06T09:38:49.999Z</time></trkpt><trkpt lat="37.635934857466815" lon="14.77741559098286"><ele>204.0</ele><time>2026-04-06T09:38:50.999Z</time></trkpt><trkpt lat="37.63587776286057" lon="14.777322504475277"><ele>204.0</ele><time>2026-04-06T09:38:51.999Z</time></trkpt><trkpt lat="37.63578966779991" lon="14.777211504982425"><ele>204.0</ele><time>2026-04-06T09:38:52.999Z</time></trkpt><trkpt lat="37.63567602487681" lon="14.77708613851908"><ele>204.0</ele><time>2026-04-06T09:38:53.999Z</time></trkpt><trkpt lat="37.63557494688135" lon="14.776939558246328"><ele>204.0</ele><time>2026-04-06T09:38:54.999Z</time></trkpt><trkpt lat="37.63548955102297" lon="14.776807493698803"><ele>204.0</ele><time>2026-04-06T09:38:55.999Z</time></trkpt><trkpt lat="37.635442781116936" lon="14.776662511402193"><ele>204.0</ele><time>2026-04-06T09:38:56.999Z</time></trkpt><trkpt lat="37.63538268716243" lon="14.776519704378332"><ele>202.25</ele><time>2026-04-06T09:38:57.999Z</time></trkpt><trkpt lat="37.63535600761052" lon="14.776351817736543"><ele>200.5</ele><time>2026-04-06T09:38:58.999Z</time></trkpt><trkpt lat="37.63529060662811" lon="14.77622603408033"><ele>198.75</ele><time>2026-04-06T09:38:59.999Z</time></trkpt><trkpt lat="37.63522955099124" lon="14.776103896720794"><ele>197.0</ele><time>2026-04-06T09:39:00.999Z</time></trkpt><trkpt lat="37.635148575341674" lon="14.775996460863627"><ele>199.8</ele><time>2026-04-06T09:39:01.999Z</time></trkpt><trkpt lat="37.63507920508707" lon="14.775897265697667"><ele>202.6</ele><time>2026-04-06T09:39:02.999Z</time></trkpt><trkpt lat="37.63504593986764" lon="14.775785776909407"><ele>205.4</ele><time>2026-04-06T09:39:03.999Z</time></trkpt><trkpt lat="37.63506426769572" lon="14.775673930096945"><ele>208.20000000000002</ele><time>2026-04-06T09:39:04.999Z</time></trkpt><trkpt lat="37.635073814044375" lon="14.775551067514687"><ele>211.0</ele><time>2026-04-06T09:39:05.999Z</time></trkpt><trkpt lat="37.6350820554168" lon="14.775404878629262"><ele>211.0</ele><time>2026-04-06T09:39:06.999Z</time></trkpt><trkpt lat="37.63508815952437" lon="14.775237161937342"><ele>211.0</ele><time>2026-04-06T09:39:07.999Z</time></trkpt><trkpt lat="37.63509253614461" lon="14.77506797706938"><ele>211.0</ele><time>2026-04-06T09:39:08.999Z</time></trkpt><trkpt lat="37.63509207501312" lon="14.774932692326201"><ele>211.0</ele><time>2026-04-06T09:39:09.999Z</time></trkpt><trkpt lat="37.63509497757773" lon="14.774826171382754"><ele>210.60000000000002</ele><time>2026-04-06T09:39:10.999Z</time></trkpt><trkpt lat="37.63513423837767" lon="14.77469314398567"><ele>210.2</ele><time>2026-04-06T09:39:12.999Z</time></trkpt><trkpt lat="37.63518611625602" lon="14.77463392294922"><ele>209.8</ele><time>2026-04-06T09:39:13.999Z</time></trkpt><trkpt lat="37.6352749935247" lon="14.774616447859923"><ele>209.39999999999998</ele><time>2026-04-06T09:39:14.999Z</time></trkpt><trkpt lat="37.63537422551394" lon="14.77458817860345"><ele>209.0</ele><time>2026-04-06T09:39:15.999Z</time></trkpt><trkpt lat="37.63548952445102" lon="14.774533669237693"><ele>206.75</ele><time>2026-04-06T09:39:16.999Z</time></trkpt><trkpt lat="37.63560873755329" lon="14.774492125227049"><ele>204.5</ele><time>2026-04-06T09:39:17.999Z</time></trkpt><trkpt lat="37.63571045861889" lon="14.77443630183284"><ele>202.25</ele><time>2026-04-06T09:39:18.999Z</time></trkpt><trkpt lat="37.635800719796805" lon="14.77435094808328"><ele>200.0</ele><time>2026-04-06T09:39:19.999Z</time></trkpt><trkpt lat="37.63588286706919" lon="14.774233110278026"><ele>200.0</ele><time>2026-04-06T09:39:20.999Z</time></trkpt><trkpt lat="37.63596193225083" lon="14.774099399445388"><ele>200.0</ele><time>2026-04-06T09:39:21.999Z</time></trkpt><trkpt lat="37.63602445988705" lon="14.773984247476603"><ele>200.0</ele><time>2026-04-06T09:39:22.999Z</time></trkpt><trkpt lat="37.636067170990785" lon="14.773882552666738"><ele>200.0</ele><time>2026-04-06T09:39:23.999Z</time></trkpt><trkpt lat="37.636076954689216" lon="14.773779656414172"><ele>200.0</ele><time>2026-04-06T09:39:24.999Z</time></trkpt><trkpt lat="37.63605630696383" lon="14.77366170000114"><ele>200.0</ele><time>2026-04-06T09:39:25.999Z</time></trkpt><trkpt lat="37.636004088140176" lon="14.773528094014143"><ele>200.0</ele><time>2026-04-06T09:39:26.999Z</time></trkpt><trkpt lat="37.63594003390116" lon="14.773395611973541"><ele>200.0</ele><time>2026-04-06T09:39:27.999Z</time></trkpt><trkpt lat="37.635884347509624" lon="14.773275322011736"><ele>200.0</ele><time>2026-04-06T09:39:28.999Z</time></trkpt><trkpt lat="37.6358531346362" lon="14.773172490307012"><ele>200.0</ele><time>2026-04-06T09:39:29.999Z</time></trkpt><trkpt lat="37.6358588171466" lon="14.773070426806166"><ele>199.6</ele><time>2026-04-06T09:39:30.999Z</time></trkpt><trkpt lat="37.635912488177944" lon="14.77298405782692"><ele>199.2</ele><time>2026-04-06T09:39:31.999Z</time></trkpt><trkpt lat="37.635963389595645" lon="14.772899965089078"><ele>198.8</ele><time>2026-04-06T09:39:32.999Z</time></trkpt><trkpt lat="37.636074195877335" lon="14.772873028189505"><ele>198.4</ele><time>2026-04-06T09:39:33.999Z</time></trkpt><trkpt lat="37.636187100180855" lon="14.772829355224925"><ele>198.0</ele><time>2026-04-06T09:39:34.999Z</time></trkpt><trkpt lat="37.63631221848025" lon="14.772773304921918"><ele>198.0</ele><time>2026-04-06T09:39:36Z</time></trkpt><trkpt lat="37.63644104102077" lon="14.772707260961072"><ele>198.0</ele><time>2026-04-06T09:39:37Z</time></trkpt><trkpt lat="37.63657973304871" lon="14.772642202016026"><ele>198.0</ele><time>2026-04-06T09:39:38Z</time></trkpt><trkpt lat="37.63672729550691" lon="14.77258692899619"><ele>198.0</ele><time>2026-04-06T09:39:39Z</time></trkpt><trkpt lat="37.63687813075448" lon="14.772540126720461"><ele>199.5</ele><time>2026-04-06T09:39:40Z</time></trkpt><trkpt lat="37.6370207880339" lon="14.77250584688149"><ele>201.0</ele><time>2026-04-06T09:39:41Z</time></trkpt><trkpt lat="37.63715928833758" lon="14.772470175801372"><ele>202.5</ele><time>2026-04-06T09:39:42Z</time></trkpt><trkpt lat="37.63730010679988" lon="14.7723996795976"><ele>204.0</ele><time>2026-04-06T09:39:43Z</time></trkpt><trkpt lat="37.637441112441444" lon="14.772315295452097"><ele>204.0</ele><time>2026-04-06T09:39:44Z</time></trkpt><trkpt lat="37.63756424138878" lon="14.772235531434097"><ele>204.0</ele><time>2026-04-06T09:39:45Z</time></trkpt><trkpt lat="37.63767130733317" lon="14.772182344812437"><ele>204.0</ele><time>2026-04-06T09:39:46Z</time></trkpt><trkpt lat="37.637760922165526" lon="14.772136334978915"><ele>204.0</ele><time>2026-04-06T09:39:47Z</time></trkpt><trkpt lat="37.637827835397" lon="14.772106363939823"><ele>204.0</ele><time>2026-04-06T09:39:48Z</time></trkpt><trkpt lat="37.63790024317311" lon="14.772088280917028"><ele>204.0</ele><time>2026-04-06T09:39:49Z</time></trkpt><trkpt lat="37.63800425527861" lon="14.772101459409281"><ele>204.0</ele><time>2026-04-06T09:39:50Z</time></trkpt><trkpt lat="37.638114557842066" lon="14.772076406467415"><ele>204.0</ele><time>2026-04-06T09:39:51Z</time></trkpt><trkpt lat="37.63823844991235" lon="14.77204211648589"><ele>204.0</ele><time>2026-04-06T09:39:52Z</time></trkpt><trkpt lat="37.638367858618636" lon="14.771975762052564"><ele>204.0</ele><time>2026-04-06T09:39:53Z</time></trkpt><trkpt lat="37.63849916900579" lon="14.771901810841916"><ele>204.0</ele><time>2026-04-06T09:39:54Z</time></trkpt><trkpt lat="37.63861969860517" lon="14.771827405265993"><ele>204.0</ele><time>2026-04-06T09:39:55Z</time></trkpt><trkpt lat="37.63873065855196" lon="14.77177483498588"><ele>204.0</ele><time>2026-04-06T09:39:56Z</time></trkpt><trkpt lat="37.63882820752412" lon="14.771734807121033"><ele>205.75</ele><time>2026-04-06T09:39:57Z</time></trkpt><trkpt lat="37.63892142343744" lon="14.771736861013395"><ele>207.5</ele><time>2026-04-06T09:39:58Z</time></trkpt><trkpt lat="37.6390243826117" lon="14.771751045974671"><ele>209.25</ele><time>2026-04-06T09:39:59Z</time></trkpt><trkpt lat="37.639147980926914" lon="14.77178540387755"><ele>211.0</ele><time>2026-04-06T09:40:00Z</time></trkpt><trkpt lat="37.63929014964115" lon="14.771831012212964"><ele>208.33333333333331</ele><time>2026-04-06T09:40:01Z</time></trkpt><trkpt lat="37.63944110573933" lon="14.771873097121366"><ele>205.66666666666669</ele><time>2026-04-06T09:40:02Z</time></trkpt><trkpt lat="37.63959559320911" lon="14.77193110977043"><ele>203.0</ele><time>2026-04-06T09:40:03Z</time></trkpt><trkpt lat="37.63975702004913" lon="14.771993195373469"><ele>202.66666666666669</ele><time>2026-04-06T09:40:04Z</time></trkpt><trkpt lat="37.63992524536943" lon="14.772055013784648"><ele>202.33333333333331</ele><time>2026-04-06T09:40:05Z</time></trkpt><trkpt lat="37.6400965640167" lon="14.772118753769664"><ele>202.0</ele><time>2026-04-06T09:40:06Z</time></trkpt><trkpt lat="37.64027168200767" lon="14.772178154311181"><ele>202.33333333333331</ele><time>2026-04-06T09:40:07Z</time></trkpt><trkpt lat="37.640445197936714" lon="14.77226051944223"><ele>202.66666666666669</ele><time>2026-04-06T09:40:08Z</time></trkpt><trkpt lat="37.64061713781258" lon="14.772321086434554"><ele>203.0</ele><time>2026-04-06T09:40:09Z</time></trkpt><trkpt lat="37.640781275283445" lon="14.772364072545606"><ele>203.0</ele><time>2026-04-06T09:40:10Z</time></trkpt><trkpt lat="37.640950278747574" lon="14.772422427539686"><ele>203.0</ele><time>2026-04-06T09:40:11Z</time></trkpt><trkpt lat="37.64114002856508" lon="14.77249119258052"><ele>203.0</ele><time>2026-04-06T09:40:12Z</time></trkpt><trkpt lat="37.64132026145901" lon="14.772548226841629"><ele>202.66666666666669</ele><time>2026-04-06T09:40:13Z</time></trkpt><trkpt lat="37.64149290589702" lon="14.772597457722965"><ele>202.33333333333331</ele><time>2026-04-06T09:40:14Z</time></trkpt><trkpt lat="37.64166425817426" lon="14.772633368703671"><ele>202.0</ele><time>2026-04-06T09:40:15Z</time></trkpt><trkpt lat="37.64182162078876" lon="14.77265407948253"><ele>201.75</ele><time>2026-04-06T09:40:16Z</time></trkpt><trkpt lat="37.641965659140936" lon="14.772676503301561"><ele>201.5</ele><time>2026-04-06T09:40:17Z</time></trkpt><trkpt lat="37.64210714950751" lon="14.772700651308389"><ele>201.25</ele><time>2026-04-06T09:40:18Z</time></trkpt><trkpt lat="37.64224999130528" lon="14.77272359742683"><ele>201.0</ele><time>2026-04-06T09:40:19Z</time></trkpt><trkpt lat="37.6423906397645" lon="14.772742660006987"><ele>201.0</ele><time>2026-04-06T09:40:20Z</time></trkpt><trkpt lat="37.64252842409292" lon="14.772699093323837"><ele>201.0</ele><time>2026-04-06T09:40:21Z</time></trkpt><trkpt lat="37.642667099296766" lon="14.772651275384002"><ele>201.0</ele><time>2026-04-06T09:40:22Z</time></trkpt><trkpt lat="37.64281140043606" lon="14.772616776318715"><ele>201.0</ele><time>2026-04-06T09:40:23Z</time></trkpt><trkpt lat="37.6429534109381" lon="14.772576526770184"><ele>201.5</ele><time>2026-04-06T09:40:24Z</time></trkpt><trkpt lat="37.64308599061881" lon="14.772556717575156"><ele>202.0</ele><time>2026-04-06T09:40:25Z</time></trkpt><trkpt lat="37.64322404629073" lon="14.77256455663231"><ele>202.5</ele><time>2026-04-06T09:40:26Z</time></trkpt><trkpt lat="37.64337234155542" lon="14.772575711005613"><ele>203.0</ele><time>2026-04-06T09:40:27Z</time></trkpt><trkpt lat="37.643520923462994" lon="14.772581837144939"><ele>203.25</ele><time>2026-04-06T09:40:28Z</time></trkpt><trkpt lat="37.6436623124802" lon="14.772584016950239"><ele>203.5</ele><time>2026-04-06T09:40:29Z</time></trkpt><trkpt lat="37.64379546265492" lon="14.772581493375123"><ele>203.75</ele><time>2026-04-06T09:40:30Z</time></trkpt><trkpt lat="37.643925100655686" lon="14.772572910780939"><ele>204.0</ele><time>2026-04-06T09:40:31Z</time></trkpt><trkpt lat="37.64403861872824" lon="14.772564695550976"><ele>204.0</ele><time>2026-04-06T09:40:32Z</time></trkpt><trkpt lat="37.64413117517165" lon="14.772554976004166"><ele>204.0</ele><time>2026-04-06T09:40:33Z</time></trkpt><trkpt lat="37.64421164442123" lon="14.772544177701752"><ele>204.0</ele><time>2026-04-06T09:40:34Z</time></trkpt><trkpt lat="37.64428214026223" lon="14.772529841816285"><ele>204.0</ele><time>2026-04-06T09:40:35Z</time></trkpt><trkpt lat="37.644382307947346" lon="14.77243375477602"><ele>204.0</ele><time>2026-04-06T09:40:37Z</time></trkpt><trkpt lat="37.64440294916239" lon="14.772353105115755"><ele>204.0</ele><time>2026-04-06T09:40:38Z</time></trkpt><trkpt lat="37.64445321733237" lon="14.77226576685596"><ele>204.0</ele><time>2026-04-06T09:40:39Z</time></trkpt><trkpt lat="37.64447300430796" lon="14.772150519841707"><ele>204.0</ele><time>2026-04-06T09:40:40Z</time></trkpt><trkpt lat="37.64451068663711" lon="14.772029238376794"><ele>204.0</ele><time>2026-04-06T09:40:41Z</time></trkpt><trkpt lat="37.64456478103986" lon="14.771901281416007"><ele>204.0</ele><time>2026-04-06T09:40:42Z</time></trkpt><trkpt lat="37.64460922870344" lon="14.771752078591978"><ele>204.0</ele><time>2026-04-06T09:40:43Z</time></trkpt><trkpt lat="37.644652978969575" lon="14.77160521674468"><ele>204.39999999999998</ele><time>2026-04-06T09:40:44Z</time></trkpt><trkpt lat="37.644680135178454" lon="14.771461265115557"><ele>204.8</ele><time>2026-04-06T09:40:45Z</time></trkpt><trkpt lat="37.64473664304687" lon="14.771342371298505"><ele>205.2</ele><time>2026-04-06T09:40:46Z</time></trkpt><trkpt lat="37.64478002232127" lon="14.771226975198212"><ele>205.60000000000002</ele><time>2026-04-06T09:40:47Z</time></trkpt><trkpt lat="37.644828139782874" lon="14.771129299907061"><ele>206.0</ele><time>2026-04-06T09:40:48Z</time></trkpt><trkpt lat="37.644891746068815" lon="14.771056475859845"><ele>208.0</ele><time>2026-04-06T09:40:48.999Z</time></trkpt><trkpt lat="37.64497170739321" lon="14.770993454896557"><ele>210.0</ele><time>2026-04-06T09:40:49.999Z</time></trkpt><trkpt lat="37.64505730267502" lon="14.770942053895759"><ele>212.00000000000003</ele><time>2026-04-06T09:40:50.999Z</time></trkpt><trkpt lat="37.64515000497579" lon="14.770923366849356"><ele>214.0</ele><time>2026-04-06T09:40:51.999Z</time></trkpt><trkpt lat="37.64524709973225" lon="14.770932682369738"><ele>216.0</ele><time>2026-04-06T09:40:52.999Z</time></trkpt><trkpt lat="37.64535710400083" lon="14.770952604764663"><ele>216.60000000000002</ele><time>2026-04-06T09:40:53.999Z</time></trkpt><trkpt lat="37.64546363416808" lon="14.770974793988595"><ele>217.20000000000002</ele><time>2026-04-06T09:40:54.999Z</time></trkpt><trkpt lat="37.645574498453584" lon="14.770990940028947"><ele>217.79999999999998</ele><time>2026-04-06T09:40:55.999Z</time></trkpt><trkpt lat="37.64568561233757" lon="14.771008016526636"><ele>218.39999999999998</ele><time>2026-04-06T09:40:56.999Z</time></trkpt><trkpt lat="37.64578984615019" lon="14.771020395314352"><ele>219.0</ele><time>2026-04-06T09:40:57.999Z</time></trkpt><trkpt lat="37.6458812216619" lon="14.771023458746487"><ele>219.0</ele><time>2026-04-06T09:40:58.999Z</time></trkpt><trkpt lat="37.64597161294338" lon="14.771016947888572"><ele>219.0</ele><time>2026-04-06T09:40:59.999Z</time></trkpt><trkpt lat="37.646043337859375" lon="14.77099683445396"><ele>219.0</ele><time>2026-04-06T09:41:00.999Z</time></trkpt><trkpt lat="37.646107123472675" lon="14.770943316180977"><ele>219.0</ele><time>2026-04-06T09:41:01.999Z</time></trkpt><trkpt lat="37.64616018992588" lon="14.770857702796006"><ele>219.0</ele><time>2026-04-06T09:41:02.999Z</time></trkpt><trkpt lat="37.64620495759633" lon="14.77075014238194"><ele>219.0</ele><time>2026-04-06T09:41:03.999Z</time></trkpt><trkpt lat="37.64624243492785" lon="14.770638355498994"><ele>218.83333333333334</ele><time>2026-04-06T09:41:04.999Z</time></trkpt><trkpt lat="37.64627983491968" lon="14.770518850219839"><ele>218.66666666666669</ele><time>2026-04-06T09:41:05.999Z</time></trkpt><trkpt lat="37.6463252299515" lon="14.770427615678603"><ele>218.5</ele><time>2026-04-06T09:41:06.999Z</time></trkpt><trkpt lat="37.64635465615641" lon="14.770337643692864"><ele>218.33333333333334</ele><time>2026-04-06T09:41:07.999Z</time></trkpt><trkpt lat="37.646382731031835" lon="14.77026209772159"><ele>218.16666666666669</ele><time>2026-04-06T09:41:08.999Z</time></trkpt><trkpt lat="37.646431649562246" lon="14.770168771973667"><ele>218.0</ele><time>2026-04-06T09:41:10.999Z</time></trkpt><trkpt lat="37.64650369711445" lon="14.77013516682722"><ele>217.4</ele><time>2026-04-06T09:42:29Z</time></trkpt><trkpt lat="37.64653668714732" lon="14.770272204589855"><ele>216.8</ele><time>2026-04-06T09:42:31Z</time></trkpt><trkpt lat="37.6465319892965" lon="14.77038091437056"><ele>216.2</ele><time>2026-04-06T09:42:32Z</time></trkpt><trkpt lat="37.64654719531552" lon="14.770496509146138"><ele>215.6</ele><time>2026-04-06T09:42:33Z</time></trkpt><trkpt lat="37.6465754846925" lon="14.770629552216795"><ele>215.0</ele><time>2026-04-06T09:42:34Z</time></trkpt><trkpt lat="37.64661131350512" lon="14.77077623255766"><ele>215.0</ele><time>2026-04-06T09:42:35Z</time></trkpt><trkpt lat="37.64665315316411" lon="14.770930099200235"><ele>215.0</ele><time>2026-04-06T09:42:36Z</time></trkpt><trkpt lat="37.64669907368109" lon="14.771090756484604"><ele>215.0</ele><time>2026-04-06T09:42:37Z</time></trkpt><trkpt lat="37.64675221141763" lon="14.771254506567193"><ele>215.0</ele><time>2026-04-06T09:42:38Z</time></trkpt><trkpt lat="37.64680845985511" lon="14.771417445335302"><ele>213.25</ele><time>2026-04-06T09:42:39Z</time></trkpt><trkpt lat="37.6468667134715" lon="14.771575249589269"><ele>211.5</ele><time>2026-04-06T09:42:40Z</time></trkpt><trkpt lat="37.64693107289566" lon="14.77173509324139"><ele>209.75</ele><time>2026-04-06T09:42:41Z</time></trkpt><trkpt lat="37.64699731228831" lon="14.771901691094888"><ele>208.0</ele><time>2026-04-06T09:42:41.999Z</time></trkpt><trkpt lat="37.64706275213382" lon="14.77207052478029"><ele>205.66666666666666</ele><time>2026-04-06T09:42:42.999Z</time></trkpt><trkpt lat="37.647128699746546" lon="14.77224448721907"><ele>203.33333333333331</ele><time>2026-04-06T09:42:43.999Z</time></trkpt><trkpt lat="37.647196165855206" lon="14.772422479124533"><ele>201.0</ele><time>2026-04-06T09:42:44.999Z</time></trkpt><trkpt lat="37.647265071443066" lon="14.772610158087033"><ele>202.33333333333331</ele><time>2026-04-06T09:42:45.999Z</time></trkpt><trkpt lat="37.647330495773524" lon="14.772804469318043"><ele>203.66666666666666</ele><time>2026-04-06T09:42:46.999Z</time></trkpt><trkpt lat="37.64740018848985" lon="14.772998659675803"><ele>205.0</ele><time>2026-04-06T09:42:47.999Z</time></trkpt><trkpt lat="37.64746923093719" lon="14.773190092608166"><ele>205.0</ele><time>2026-04-06T09:42:48.999Z</time></trkpt><trkpt lat="37.64753079512539" lon="14.773367024813329"><ele>205.0</ele><time>2026-04-06T09:42:49.999Z</time></trkpt><trkpt lat="37.64757901429957" lon="14.773527540942117"><ele>205.0</ele><time>2026-04-06T09:42:50.999Z</time></trkpt><trkpt lat="37.64762372704724" lon="14.773671945689037"><ele>205.0</ele><time>2026-04-06T09:42:51.999Z</time></trkpt><trkpt lat="37.64767089442251" lon="14.773800206823736"><ele>206.4</ele><time>2026-04-06T09:42:52.999Z</time></trkpt><trkpt lat="37.64772027387681" lon="14.773914151920987"><ele>207.8</ele><time>2026-04-06T09:42:53.999Z</time></trkpt><trkpt lat="37.64775713681919" lon="14.774014012478872"><ele>209.2</ele><time>2026-04-06T09:42:54.999Z</time></trkpt><trkpt lat="37.64779060436248" lon="14.774129518377219"><ele>210.6</ele><time>2026-04-06T09:42:55.999Z</time></trkpt><trkpt lat="37.64783578041714" lon="14.774259233752744"><ele>212.0</ele><time>2026-04-06T09:42:56.999Z</time></trkpt><trkpt lat="37.64789445400805" lon="14.77439786174978"><ele>213.25</ele><time>2026-04-06T09:42:57.999Z</time></trkpt><trkpt lat="37.647965954236" lon="14.774543245566445"><ele>214.5</ele><time>2026-04-06T09:42:58.999Z</time></trkpt><trkpt lat="37.648046057588935" lon="14.7746980360361"><ele>215.75</ele><time>2026-04-06T09:42:59.999Z</time></trkpt><trkpt lat="37.64812969315823" lon="14.774855188537773"><ele>217.0</ele><time>2026-04-06T09:43:00.999Z</time></trkpt><trkpt lat="37.64820422261301" lon="14.774991853065455"><ele>217.0</ele><time>2026-04-06T09:43:01.999Z</time></trkpt><trkpt lat="37.648271485415236" lon="14.775117216605581"><ele>217.0</ele><time>2026-04-06T09:43:02.999Z</time></trkpt><trkpt lat="37.64834057638831" lon="14.775236906766503"><ele>217.0</ele><time>2026-04-06T09:43:03.999Z</time></trkpt><trkpt lat="37.6484103161949" lon="14.775343536841513"><ele>217.0</ele><time>2026-04-06T09:43:04.999Z</time></trkpt><trkpt lat="37.648472634420905" lon="14.775446456896146"><ele>217.0</ele><time>2026-04-06T09:43:05.999Z</time></trkpt><trkpt lat="37.6485143658052" lon="14.77553264800793"><ele>217.2</ele><time>2026-04-06T09:43:06.999Z</time></trkpt><trkpt lat="37.648566886971835" lon="14.775626857047364"><ele>217.39999999999998</ele><time>2026-04-06T09:43:07.999Z</time></trkpt><trkpt lat="37.64862794074525" lon="14.775715723932683"><ele>217.60000000000002</ele><time>2026-04-06T09:43:08.999Z</time></trkpt><trkpt lat="37.64866376618438" lon="14.775803985242296"><ele>217.8</ele><time>2026-04-06T09:43:09.999Z</time></trkpt><trkpt lat="37.648701069248055" lon="14.775869986655415"><ele>218.0</ele><time>2026-04-06T09:43:10.999Z</time></trkpt><trkpt lat="37.64885441767663" lon="14.775715562598803"><ele>218.2</ele><time>2026-04-06T09:43:13.999Z</time></trkpt><trkpt lat="37.64890984711942" lon="14.7756346849843"><ele>218.4</ele><time>2026-04-06T09:43:14.999Z</time></trkpt><trkpt lat="37.64895101282814" lon="14.775528487439463"><ele>218.59999999999997</ele><time>2026-04-06T09:43:15.999Z</time></trkpt><trkpt lat="37.64904023670125" lon="14.775453513369971"><ele>218.79999999999998</ele><time>2026-04-06T09:43:16.999Z</time></trkpt><trkpt lat="37.649132683522296" lon="14.775353069111915"><ele>219.0</ele><time>2026-04-06T09:43:17.999Z</time></trkpt><trkpt lat="37.64923093591475" lon="14.775249540877873"><ele>218.0</ele><time>2026-04-06T09:43:18.999Z</time></trkpt><trkpt lat="37.64932843414816" lon="14.775125160664913"><ele>217.0</ele><time>2026-04-06T09:43:19.999Z</time></trkpt><trkpt lat="37.649440622354064" lon="14.775029898305004"><ele>216.0</ele><time>2026-04-06T09:43:20.999Z</time></trkpt><trkpt lat="37.649537795784866" lon="14.774921521386117"><ele>215.0</ele><time>2026-04-06T09:43:21.999Z</time></trkpt><trkpt lat="37.64962818026418" lon="14.774806156789696"><ele>213.5</ele><time>2026-04-06T09:43:22.999Z</time></trkpt><trkpt lat="37.64971152345692" lon="14.774681327500229"><ele>212.0</ele><time>2026-04-06T09:43:23.999Z</time></trkpt><trkpt lat="37.64978888250209" lon="14.77453615197927"><ele>210.5</ele><time>2026-04-06T09:43:24.999Z</time></trkpt><trkpt lat="37.64986156177839" lon="14.77436863986639"><ele>209.0</ele><time>2026-04-06T09:43:25.999Z</time></trkpt><trkpt lat="37.64992845222578" lon="14.774203854332352"><ele>208.5</ele><time>2026-04-06T09:43:26.999Z</time></trkpt><trkpt lat="37.649990135532015" lon="14.77404793063843"><ele>208.0</ele><time>2026-04-06T09:43:27.999Z</time></trkpt><trkpt lat="37.650049961066316" lon="14.77390086359514"><ele>207.5</ele><time>2026-04-06T09:43:28.999Z</time></trkpt><trkpt lat="37.65010444008637" lon="14.773770660472639"><ele>207.0</ele><time>2026-04-06T09:43:29.999Z</time></trkpt><trkpt lat="37.650153548535904" lon="14.77363342298778"><ele>207.0</ele><time>2026-04-06T09:43:30.999Z</time></trkpt><trkpt lat="37.65020651745008" lon="14.77346535638378"><ele>207.0</ele><time>2026-04-06T09:43:31.999Z</time></trkpt><trkpt lat="37.65027617992656" lon="14.773287650191925"><ele>207.0</ele><time>2026-04-06T09:43:32.999Z</time></trkpt><trkpt lat="37.650359400990716" lon="14.773118701192313"><ele>207.0</ele><time>2026-04-06T09:43:33.999Z</time></trkpt><trkpt lat="37.65042459312316" lon="14.772926601769303"><ele>207.0</ele><time>2026-04-06T09:43:34.999Z</time></trkpt><trkpt lat="37.65051148936153" lon="14.772725052893161"><ele>207.0</ele><time>2026-04-06T09:43:35.999Z</time></trkpt><trkpt lat="37.65059882097265" lon="14.77250725672813"><ele>206.66666666666669</ele><time>2026-04-06T09:43:36.999Z</time></trkpt><trkpt lat="37.65068005468691" lon="14.772297916845632"><ele>206.33333333333334</ele><time>2026-04-06T09:43:37.999Z</time></trkpt><trkpt lat="37.6507615485125" lon="14.772088961382275"><ele>206.0</ele><time>2026-04-06T09:43:38.999Z</time></trkpt><trkpt lat="37.6508489517561" lon="14.77186307231592"><ele>206.33333333333334</ele><time>2026-04-06T09:43:39.999Z</time></trkpt><trkpt lat="37.65093477680934" lon="14.771645363296651"><ele>206.66666666666669</ele><time>2026-04-06T09:43:40.999Z</time></trkpt><trkpt lat="37.65101764146314" lon="14.771440369467467"><ele>207.0</ele><time>2026-04-06T09:43:41.999Z</time></trkpt><trkpt lat="37.6510915660629" lon="14.771251159274826"><ele>208.0</ele><time>2026-04-06T09:43:42.999Z</time></trkpt><trkpt lat="37.65116257599671" lon="14.77107046897783"><ele>209.0</ele><time>2026-04-06T09:43:43.999Z</time></trkpt><trkpt lat="37.65122912538175" lon="14.77089610697581"><ele>210.0</ele><time>2026-04-06T09:43:44.999Z</time></trkpt><trkpt lat="37.65128991036734" lon="14.770736345972807"><ele>210.0</ele><time>2026-04-06T09:43:45.999Z</time></trkpt><trkpt lat="37.65135090995571" lon="14.77058780840897"><ele>210.0</ele><time>2026-04-06T09:43:46.999Z</time></trkpt><trkpt lat="37.65141032019092" lon="14.77044530272011"><ele>210.0</ele><time>2026-04-06T09:43:48Z</time></trkpt><trkpt lat="37.65147114585153" lon="14.770314494384467"><ele>210.0</ele><time>2026-04-06T09:43:49Z</time></trkpt><trkpt lat="37.651539421977986" lon="14.770192520828191"><ele>210.0</ele><time>2026-04-06T09:43:50Z</time></trkpt><trkpt lat="37.65162141399575" lon="14.770090930150316"><ele>210.0</ele><time>2026-04-06T09:43:51Z</time></trkpt><trkpt lat="37.65173535919642" lon="14.770019924625494"><ele>210.0</ele><time>2026-04-06T09:43:52Z</time></trkpt><trkpt lat="37.65183808106265" lon="14.769949264605222"><ele>210.0</ele><time>2026-04-06T09:43:53Z</time></trkpt><trkpt lat="37.6519435532221" lon="14.769900457630346"><ele>210.2</ele><time>2026-04-06T09:43:54Z</time></trkpt><trkpt lat="37.652046640335854" lon="14.769858481240385"><ele>210.4</ele><time>2026-04-06T09:43:55Z</time></trkpt><trkpt lat="37.652142455697444" lon="14.769821227548972"><ele>210.60000000000002</ele><time>2026-04-06T09:43:56Z</time></trkpt><trkpt lat="37.65224075827179" lon="14.76978300678153"><ele>210.8</ele><time>2026-04-06T09:43:57Z</time></trkpt><trkpt lat="37.65234363045972" lon="14.769743009336775"><ele>211.0</ele><time>2026-04-06T09:43:58Z</time></trkpt><trkpt lat="37.652444380719835" lon="14.769703836895026"><ele>211.0</ele><time>2026-04-06T09:43:59Z</time></trkpt><trkpt lat="37.652547564375574" lon="14.769663718334144"><ele>211.0</ele><time>2026-04-06T09:44:00Z</time></trkpt><trkpt lat="37.65265622846707" lon="14.769621468947541"><ele>211.0</ele><time>2026-04-06T09:44:01Z</time></trkpt><trkpt lat="37.65276539236274" lon="14.769559350087363"><ele>211.0</ele><time>2026-04-06T09:44:02Z</time></trkpt><trkpt lat="37.65288701074388" lon="14.769522109758219"><ele>211.0</ele><time>2026-04-06T09:44:03Z</time></trkpt><trkpt lat="37.65300771561668" lon="14.769466679936283"><ele>211.0</ele><time>2026-04-06T09:44:04Z</time></trkpt><trkpt lat="37.653136778589975" lon="14.769434413732808"><ele>211.0</ele><time>2026-04-06T09:44:05Z</time></trkpt><trkpt lat="37.65324435633893" lon="14.76936837465503"><ele>211.0</ele><time>2026-04-06T09:44:06Z</time></trkpt><trkpt lat="37.653355084631116" lon="14.769326242856954"><ele>211.0</ele><time>2026-04-06T09:44:07Z</time></trkpt><trkpt lat="37.65346929440154" lon="14.769267589129239"><ele>211.0</ele><time>2026-04-06T09:44:08Z</time></trkpt><trkpt lat="37.65358139599308" lon="14.76918134184012"><ele>211.0</ele><time>2026-04-06T09:44:09Z</time></trkpt><trkpt lat="37.65367720692825" lon="14.769081847364875"><ele>211.0</ele><time>2026-04-06T09:44:10Z</time></trkpt><trkpt lat="37.65374661382365" lon="14.768982512998825"><ele>213.20000000000002</ele><time>2026-04-06T09:44:11Z</time></trkpt><trkpt lat="37.65381405309245" lon="14.768877287908987"><ele>215.4</ele><time>2026-04-06T09:44:12Z</time></trkpt><trkpt lat="37.653873272983304" lon="14.768795814534933"><ele>217.6</ele><time>2026-04-06T09:44:13Z</time></trkpt><trkpt lat="37.65392640894053" lon="14.768736230285024"><ele>219.8</ele><time>2026-04-06T09:44:15Z</time></trkpt><trkpt lat="37.65398350574678" lon="14.768628245691051"><ele>222.0</ele><time>2026-04-06T09:44:17Z</time></trkpt><trkpt lat="37.65405427318229" lon="14.7684984524419"><ele>222.0</ele><time>2026-04-06T09:44:19Z</time></trkpt><trkpt lat="37.654114734892104" lon="14.768389608128178"><ele>222.0</ele><time>2026-04-06T09:44:21Z</time></trkpt><trkpt lat="37.65422075167387" lon="14.768434229526498"><ele>222.0</ele><time>2026-04-06T09:44:23Z</time></trkpt><trkpt lat="37.65427412447612" lon="14.76848396099955"><ele>222.0</ele><time>2026-04-06T09:44:24Z</time></trkpt><trkpt lat="37.654406551624774" lon="14.768538495642405"><ele>222.0</ele><time>2026-04-06T09:44:26Z</time></trkpt><trkpt lat="37.654488900002704" lon="14.768557995271257"><ele>223.6</ele><time>2026-04-06T09:44:27Z</time></trkpt><trkpt lat="37.654577926975435" lon="14.76859352382231"><ele>225.2</ele><time>2026-04-06T09:44:28Z</time></trkpt><trkpt lat="37.65467227600673" lon="14.768608740645488"><ele>226.8</ele><time>2026-04-06T09:44:29Z</time></trkpt><trkpt lat="37.65477184301074" lon="14.768616522339228"><ele>228.4</ele><time>2026-04-06T09:44:29.999Z</time></trkpt><trkpt lat="37.654876841119" lon="14.768626149040328"><ele>230.0</ele><time>2026-04-06T09:44:30.999Z</time></trkpt><trkpt lat="37.65497244206489" lon="14.76863947638278"><ele>230.0</ele><time>2026-04-06T09:44:31.999Z</time></trkpt><trkpt lat="37.65505298793698" lon="14.768654032893124"><ele>230.0</ele><time>2026-04-06T09:44:32.999Z</time></trkpt><trkpt lat="37.65513260545763" lon="14.76867129818003"><ele>230.0</ele><time>2026-04-06T09:44:33.999Z</time></trkpt><trkpt lat="37.65527794658668" lon="14.768741258206234"><ele>230.0</ele><time>2026-04-06T09:44:35.999Z</time></trkpt><trkpt lat="37.6553747128022" lon="14.768760419934841"><ele>230.0</ele><time>2026-04-06T09:44:37.999Z</time></trkpt><trkpt lat="37.65542204452992" lon="14.768672742902908"><ele>230.0</ele><time>2026-04-06T09:44:38.999Z</time></trkpt><trkpt lat="37.65547990047345" lon="14.768617420607253"><ele>230.0</ele><time>2026-04-06T09:44:39.999Z</time></trkpt><trkpt lat="37.655547391358034" lon="14.768541163687617"><ele>230.0</ele><time>2026-04-06T09:44:40.999Z</time></trkpt><trkpt lat="37.655637521467646" lon="14.768471168490366"><ele>230.0</ele><time>2026-04-06T09:44:41.999Z</time></trkpt><trkpt lat="37.65573387938749" lon="14.768377855536869"><ele>230.0</ele><time>2026-04-06T09:44:42.999Z</time></trkpt><trkpt lat="37.65584014149474" lon="14.768274951376629"><ele>230.2</ele><time>2026-04-06T09:44:43.999Z</time></trkpt><trkpt lat="37.65592935296004" lon="14.768163722293263"><ele>230.4</ele><time>2026-04-06T09:44:44.999Z</time></trkpt><trkpt lat="37.656021674164364" lon="14.768088934494655"><ele>230.60000000000002</ele><time>2026-04-06T09:44:45.999Z</time></trkpt><trkpt lat="37.65609150200831" lon="14.768006167451116"><ele>230.8</ele><time>2026-04-06T09:44:46.999Z</time></trkpt><trkpt lat="37.65616687547805" lon="14.767934901546534"><ele>231.0</ele><time>2026-04-06T09:44:47.999Z</time></trkpt><trkpt lat="37.65626344714794" lon="14.767862852226486"><ele>231.5</ele><time>2026-04-06T09:44:48.999Z</time></trkpt><trkpt lat="37.65635588197518" lon="14.76777056701145"><ele>232.0</ele><time>2026-04-06T09:44:49.999Z</time></trkpt><trkpt lat="37.6564342063289" lon="14.76767537061716"><ele>232.5</ele><time>2026-04-06T09:44:50.999Z</time></trkpt><trkpt lat="37.656532046255386" lon="14.767592848815026"><ele>233.0</ele><time>2026-04-06T09:44:51.999Z</time></trkpt><trkpt lat="37.65663603396591" lon="14.767490477864065"><ele>233.0</ele><time>2026-04-06T09:44:52.999Z</time></trkpt><trkpt lat="37.656745383838626" lon="14.767376294084855"><ele>233.0</ele><time>2026-04-06T09:44:53.999Z</time></trkpt><trkpt lat="37.65684819652063" lon="14.767263547470845"><ele>233.0</ele><time>2026-04-06T09:44:54.999Z</time></trkpt><trkpt lat="37.65694705834245" lon="14.76716334321532"><ele>233.0</ele><time>2026-04-06T09:44:55.999Z</time></trkpt><trkpt lat="37.65704506741696" lon="14.767073291272894"><ele>233.75</ele><time>2026-04-06T09:44:56.999Z</time></trkpt><trkpt lat="37.65714129702061" lon="14.76697437565496"><ele>234.5</ele><time>2026-04-06T09:44:57.999Z</time></trkpt><trkpt lat="37.6572407309687" lon="14.76687289679055"><ele>235.25</ele><time>2026-04-06T09:44:58.999Z</time></trkpt><trkpt lat="37.65734398367619" lon="14.766771638001861"><ele>236.0</ele><time>2026-04-06T09:44:59.999Z</time></trkpt><trkpt lat="37.65745127976797" lon="14.766665550230092"><ele>236.0</ele><time>2026-04-06T09:45:00.999Z</time></trkpt><trkpt lat="37.65754984043656" lon="14.766564062050655"><ele>236.0</ele><time>2026-04-06T09:45:01.999Z</time></trkpt><trkpt lat="37.65764160802701" lon="14.766476443654351"><ele>236.0</ele><time>2026-04-06T09:45:02.999Z</time></trkpt><trkpt lat="37.657727677484516" lon="14.766394706502357"><ele>236.0</ele><time>2026-04-06T09:45:03.999Z</time></trkpt><trkpt lat="37.65780765105924" lon="14.76631134191705"><ele>236.8</ele><time>2026-04-06T09:45:04.999Z</time></trkpt><trkpt lat="37.6579000759883" lon="14.766239693457205"><ele>237.60000000000002</ele><time>2026-04-06T09:45:05.999Z</time></trkpt><trkpt lat="37.65798904603192" lon="14.766153744275504"><ele>238.4</ele><time>2026-04-06T09:45:06.999Z</time></trkpt><trkpt lat="37.65807730973708" lon="14.766065545009278"><ele>239.2</ele><time>2026-04-06T09:45:07.999Z</time></trkpt><trkpt lat="37.65815397166081" lon="14.765991723524856"><ele>240.0</ele><time>2026-04-06T09:45:08.999Z</time></trkpt><trkpt lat="37.658221495229995" lon="14.765937959196675"><ele>240.0</ele><time>2026-04-06T09:45:09.999Z</time></trkpt><trkpt lat="37.658291467851136" lon="14.765881600476586"><ele>240.0</ele><time>2026-04-06T09:45:10.999Z</time></trkpt><trkpt lat="37.658374094524035" lon="14.765886725524773"><ele>240.0</ele><time>2026-04-06T09:45:11.999Z</time></trkpt><trkpt lat="37.65843802618452" lon="14.765885781673239"><ele>240.0</ele><time>2026-04-06T09:45:12.999Z</time></trkpt><trkpt lat="37.65852851475325" lon="14.765923540144607"><ele>240.0</ele><time>2026-04-06T09:45:13.999Z</time></trkpt><trkpt lat="37.658643267174895" lon="14.76594457220912"><ele>240.0</ele><time>2026-04-06T09:45:14.999Z</time></trkpt><trkpt lat="37.65876970824389" lon="14.765934613649456"><ele>240.5</ele><time>2026-04-06T09:45:15.999Z</time></trkpt><trkpt lat="37.65890876220121" lon="14.765958223109054"><ele>241.0</ele><time>2026-04-06T09:45:16.999Z</time></trkpt><trkpt lat="37.659052923925366" lon="14.76596670183714"><ele>241.5</ele><time>2026-04-06T09:45:17.999Z</time></trkpt><trkpt lat="37.659190607322266" lon="14.765961483616907"><ele>242.0</ele><time>2026-04-06T09:45:18.999Z</time></trkpt><trkpt lat="37.65932036627038" lon="14.765967141854054"><ele>242.0</ele><time>2026-04-06T09:45:19.999Z</time></trkpt><trkpt lat="37.65944393007934" lon="14.765994952306698"><ele>242.0</ele><time>2026-04-06T09:45:20.999Z</time></trkpt><trkpt lat="37.65957232476329" lon="14.76600438495456"><ele>242.0</ele><time>2026-04-06T09:45:21.999Z</time></trkpt><trkpt lat="37.65970236006214" lon="14.766013516541207"><ele>242.0</ele><time>2026-04-06T09:45:22.999Z</time></trkpt><trkpt lat="37.65984237731326" lon="14.766023201317804"><ele>242.39999999999998</ele><time>2026-04-06T09:45:23.999Z</time></trkpt><trkpt lat="37.6599704849235" lon="14.766033059933097"><ele>242.79999999999998</ele><time>2026-04-06T09:45:24.999Z</time></trkpt><trkpt lat="37.66007795029556" lon="14.766044235175892"><ele>243.2</ele><time>2026-04-06T09:45:25.999Z</time></trkpt><trkpt lat="37.660176967742245" lon="14.766055191569324"><ele>243.6</ele><time>2026-04-06T09:45:26.999Z</time></trkpt><trkpt lat="37.66028171934777" lon="14.766069498455634"><ele>244.0</ele><time>2026-04-06T09:45:27.999Z</time></trkpt><trkpt lat="37.66040715863469" lon="14.76608576378737"><ele>244.0</ele><time>2026-04-06T09:45:28.999Z</time></trkpt><trkpt lat="37.66054007059877" lon="14.76610023478189"><ele>244.0</ele><time>2026-04-06T09:45:29.999Z</time></trkpt><trkpt lat="37.66065785219158" lon="14.766112840268228"><ele>244.0</ele><time>2026-04-06T09:45:30.999Z</time></trkpt><trkpt lat="37.660766859477164" lon="14.766103477644428"><ele>244.0</ele><time>2026-04-06T09:45:31.999Z</time></trkpt><trkpt lat="37.66087028957076" lon="14.766135576213667"><ele>244.0</ele><time>2026-04-06T09:45:32.999Z</time></trkpt><trkpt lat="37.66096121117977" lon="14.766144264194562"><ele>243.99999999999997</ele><time>2026-04-06T09:45:33.999Z</time></trkpt><trkpt lat="37.66105125162989" lon="14.766150380518342"><ele>243.99999999999997</ele><time>2026-04-06T09:45:34.999Z</time></trkpt><trkpt lat="37.66112517535109" lon="14.766147139796342"><ele>244.0</ele><time>2026-04-06T09:45:35.999Z</time></trkpt><trkpt lat="37.66122031255593" lon="14.766091824728548"><ele>244.0</ele><time>2026-04-06T09:45:37.999Z</time></trkpt><trkpt lat="37.66125778739625" lon="14.765954017798302"><ele>245.25</ele><time>2026-04-06T09:45:38.999Z</time></trkpt><trkpt lat="37.661299198372184" lon="14.765806138922425"><ele>246.5</ele><time>2026-04-06T09:45:39.999Z</time></trkpt><trkpt lat="37.6613588736286" lon="14.765632106932824"><ele>247.75</ele><time>2026-04-06T09:45:40.999Z</time></trkpt><trkpt lat="37.661428222666125" lon="14.765453857443132"><ele>249.0</ele><time>2026-04-06T09:45:41.999Z</time></trkpt><trkpt lat="37.66150258335359" lon="14.765290363241162"><ele>248.5</ele><time>2026-04-06T09:45:42.999Z</time></trkpt><trkpt lat="37.66156554941971" lon="14.765140549837223"><ele>248.0</ele><time>2026-04-06T09:45:43.999Z</time></trkpt><trkpt lat="37.6616245286653" lon="14.765002626751569"><ele>247.5</ele><time>2026-04-06T09:45:44.999Z</time></trkpt><trkpt lat="37.66168583537392" lon="14.764860799152464"><ele>247.0</ele><time>2026-04-06T09:45:45.999Z</time></trkpt><trkpt lat="37.661733497317485" lon="14.764746039413753"><ele>247.0</ele><time>2026-04-06T09:45:46.999Z</time></trkpt><trkpt lat="37.661769583683466" lon="14.764652551308785"><ele>247.0</ele><time>2026-04-06T09:45:47.999Z</time></trkpt><trkpt lat="37.66180683654024" lon="14.764586665590462"><ele>247.0</ele><time>2026-04-06T09:45:48.999Z</time></trkpt><trkpt lat="37.661908654308164" lon="14.764585717814688"><ele>247.0</ele><time>2026-04-06T09:45:50.999Z</time></trkpt><trkpt lat="37.66200964807" lon="14.764676194117966"><ele>247.0</ele><time>2026-04-06T09:45:52.999Z</time></trkpt><trkpt lat="37.66209829901647" lon="14.764743020157477"><ele>248.0</ele><time>2026-04-06T09:45:54Z</time></trkpt><trkpt lat="37.662207322306216" lon="14.764786937406491"><ele>249.0</ele><time>2026-04-06T09:45:55Z</time></trkpt><trkpt lat="37.66231790194915" lon="14.764849985546736"><ele>250.0</ele><time>2026-04-06T09:45:56Z</time></trkpt><trkpt lat="37.66241843429679" lon="14.764951071389882"><ele>251.0</ele><time>2026-04-06T09:45:57Z</time></trkpt><trkpt lat="37.662539722944864" lon="14.765027416789762"><ele>251.0</ele><time>2026-04-06T09:45:58Z</time></trkpt><trkpt lat="37.6626768692504" lon="14.765113893160969"><ele>251.0</ele><time>2026-04-06T09:45:59Z</time></trkpt><trkpt lat="37.66282021322436" lon="14.765204437021653"><ele>251.0</ele><time>2026-04-06T09:46:00Z</time></trkpt><trkpt lat="37.662952700352854" lon="14.765290083700432"><ele>252.0</ele><time>2026-04-06T09:46:01Z</time></trkpt><trkpt lat="37.66306263032824" lon="14.765355405002587"><ele>253.00000000000003</ele><time>2026-04-06T09:46:02Z</time></trkpt><trkpt lat="37.66316309724325" lon="14.76541503383554"><ele>254.00000000000003</ele><time>2026-04-06T09:46:03Z</time></trkpt><trkpt lat="37.663243432944526" lon="14.765465037453065"><ele>255.0</ele><time>2026-04-06T09:46:04Z</time></trkpt><trkpt lat="37.66330041277002" lon="14.765501028989659"><ele>256.0</ele><time>2026-04-06T09:46:05Z</time></trkpt><trkpt lat="37.663319597166456" lon="14.7655855219067"><ele>256.0</ele><time>2026-04-06T09:46:07Z</time></trkpt><trkpt lat="37.663265082753114" lon="14.765711867201421"><ele>256.0</ele><time>2026-04-06T09:46:09Z</time></trkpt><trkpt lat="37.663240672435634" lon="14.765832199868939"><ele>256.0</ele><time>2026-04-06T09:46:10Z</time></trkpt><trkpt lat="37.6632011831274" lon="14.765959213669912"><ele>256.0</ele><time>2026-04-06T09:46:11Z</time></trkpt><trkpt lat="37.66316085955081" lon="14.766068970096393"><ele>256.0</ele><time>2026-04-06T09:46:12Z</time></trkpt><trkpt lat="37.66311248978947" lon="14.766191911057827"><ele>257.5</ele><time>2026-04-06T09:46:13Z</time></trkpt><trkpt lat="37.663056341994114" lon="14.766311994151593"><ele>259.0</ele><time>2026-04-06T09:46:14Z</time></trkpt><trkpt lat="37.663022893976425" lon="14.766415055125899"><ele>260.5</ele><time>2026-04-06T09:46:15Z</time></trkpt><trkpt lat="37.66302188493507" lon="14.766495661087097"><ele>262.0</ele><time>2026-04-06T09:46:16Z</time></trkpt><trkpt lat="37.663066848310386" lon="14.76655342356209"><ele>263.5</ele><time>2026-04-06T09:46:18Z</time></trkpt><trkpt lat="37.663148162679136" lon="14.76650406564468"><ele>265.0</ele><time>2026-04-06T09:46:20Z</time></trkpt><trkpt lat="37.66321868505187" lon="14.76640162008506"><ele>264.99999999999994</ele><time>2026-04-06T09:46:22Z</time></trkpt><trkpt lat="37.66325994597359" lon="14.766333391601043"><ele>265.0</ele><time>2026-04-06T09:46:23Z</time></trkpt><trkpt lat="37.66330454980899" lon="14.76625963616819"><ele>265.0</ele><time>2026-04-06T09:46:24Z</time></trkpt><trkpt lat="37.66335404025343" lon="14.766205204161494"><ele>265.0</ele><time>2026-04-06T09:46:25Z</time></trkpt><trkpt lat="37.66340898399262" lon="14.766154668407694"><ele>265.0</ele><time>2026-04-06T09:46:26Z</time></trkpt><trkpt lat="37.663467614120115" lon="14.766088591826247"><ele>264.99999999999994</ele><time>2026-04-06T09:46:27Z</time></trkpt><trkpt lat="37.663548387675675" lon="14.766036701960212"><ele>265.0</ele><time>2026-04-06T09:46:28Z</time></trkpt><trkpt lat="37.66363226168556" lon="14.76597399205056"><ele>265.2</ele><time>2026-04-06T09:46:29Z</time></trkpt><trkpt lat="37.66371511126893" lon="14.765953993486958"><ele>265.4</ele><time>2026-04-06T09:46:30Z</time></trkpt><trkpt lat="37.66378556975836" lon="14.765935140965512"><ele>265.6</ele><time>2026-04-06T09:46:31Z</time></trkpt><trkpt lat="37.66391618760685" lon="14.765970720405717"><ele>265.8</ele><time>2026-04-06T09:46:33Z</time></trkpt><trkpt lat="37.66401234768439" lon="14.766059267956697"><ele>266.0</ele><time>2026-04-06T09:46:35Z</time></trkpt><trkpt lat="37.66404324392966" lon="14.766136568311513"><ele>266.0</ele><time>2026-04-06T09:46:36Z</time></trkpt><trkpt lat="37.66408110528582" lon="14.766227244170661"><ele>266.0</ele><time>2026-04-06T09:46:37Z</time></trkpt><trkpt lat="37.66411988571206" lon="14.766325148726544"><ele>266.0</ele><time>2026-04-06T09:46:38Z</time></trkpt><trkpt lat="37.664159131561455" lon="14.766414889294923"><ele>266.0</ele><time>2026-04-06T09:46:39Z</time></trkpt><trkpt lat="37.664211533556866" lon="14.766505801456626"><ele>266.0</ele><time>2026-04-06T09:46:40Z</time></trkpt><trkpt lat="37.66426708948317" lon="14.76658486201352"><ele>266.0</ele><time>2026-04-06T09:46:41Z</time></trkpt><trkpt lat="37.66435722128683" lon="14.76665204418036"><ele>266.0</ele><time>2026-04-06T09:46:42Z</time></trkpt><trkpt lat="37.66443400950079" lon="14.766747654986956"><ele>266.0</ele><time>2026-04-06T09:46:43Z</time></trkpt><trkpt lat="37.66451283724122" lon="14.766812090753962"><ele>266.0</ele><time>2026-04-06T09:46:44Z</time></trkpt><trkpt lat="37.6645728615968" lon="14.76685156445498"><ele>266.0</ele><time>2026-04-06T09:46:45Z</time></trkpt><trkpt lat="37.66465121422571" lon="14.766888804399986"><ele>266.0</ele><time>2026-04-06T09:46:46Z</time></trkpt><trkpt lat="37.664731245050376" lon="14.766932201302254"><ele>266.0</ele><time>2026-04-06T09:46:47Z</time></trkpt><trkpt lat="37.664793418093694" lon="14.766985267096997"><ele>265.40000000000003</ele><time>2026-04-06T09:46:48Z</time></trkpt><trkpt lat="37.66483874511979" lon="14.767072577012536"><ele>264.8</ele><time>2026-04-06T09:46:49Z</time></trkpt><trkpt lat="37.664878712158114" lon="14.767176551543711"><ele>264.20000000000005</ele><time>2026-04-06T09:46:50Z</time></trkpt><trkpt lat="37.66494315750971" lon="14.767321557587833"><ele>263.6</ele><time>2026-04-06T09:46:51Z</time></trkpt><trkpt lat="37.66501353821709" lon="14.767477517192829"><ele>263.0</ele><time>2026-04-06T09:46:52Z</time></trkpt><trkpt lat="37.66508081513606" lon="14.767634094386054"><ele>264.0</ele><time>2026-04-06T09:46:53Z</time></trkpt><trkpt lat="37.66513283703675" lon="14.767764872101688"><ele>265.0</ele><time>2026-04-06T09:46:54Z</time></trkpt><trkpt lat="37.66518601516931" lon="14.767901749726692"><ele>266.0</ele><time>2026-04-06T09:46:55Z</time></trkpt><trkpt lat="37.665240507168186" lon="14.768043071050542"><ele>267.0</ele><time>2026-04-06T09:46:56Z</time></trkpt><trkpt lat="37.66528583877347" lon="14.768180717606752"><ele>265.25</ele><time>2026-04-06T09:46:57Z</time></trkpt><trkpt lat="37.66532049877709" lon="14.768307573746307"><ele>263.5</ele><time>2026-04-06T09:46:58Z</time></trkpt><trkpt lat="37.665346955227385" lon="14.768455310830355"><ele>261.75</ele><time>2026-04-06T09:46:59Z</time></trkpt><trkpt lat="37.66536960388937" lon="14.768641164131934"><ele>260.0</ele><time>2026-04-06T09:47:00Z</time></trkpt><trkpt lat="37.66539578259521" lon="14.768832059579983"><ele>260.0</ele><time>2026-04-06T09:47:01Z</time></trkpt><trkpt lat="37.665441092506015" lon="14.769036197704793"><ele>260.0</ele><time>2026-04-06T09:47:02Z</time></trkpt><trkpt lat="37.665466134950464" lon="14.769220462412934"><ele>260.0</ele><time>2026-04-06T09:47:03Z</time></trkpt><trkpt lat="37.66549448603344" lon="14.76937410582708"><ele>260.0</ele><time>2026-04-06T09:47:04Z</time></trkpt><trkpt lat="37.66552388953605" lon="14.76951517565972"><ele>260.75</ele><time>2026-04-06T09:47:05Z</time></trkpt><trkpt lat="37.66556554909104" lon="14.769643939394781"><ele>261.5</ele><time>2026-04-06T09:47:06Z</time></trkpt><trkpt lat="37.665630195000894" lon="14.769772942154185"><ele>262.25</ele><time>2026-04-06T09:47:07Z</time></trkpt><trkpt lat="37.6657081490021" lon="14.7699028049807"><ele>263.0</ele><time>2026-04-06T09:47:07.999Z</time></trkpt><trkpt lat="37.665807785210895" lon="14.770023682176284"><ele>263.0</ele><time>2026-04-06T09:47:08.999Z</time></trkpt><trkpt lat="37.665930370431916" lon="14.770134239680239"><ele>263.0</ele><time>2026-04-06T09:47:09.999Z</time></trkpt><trkpt lat="37.666070919621355" lon="14.770228489898594"><ele>263.0</ele><time>2026-04-06T09:47:10.999Z</time></trkpt><trkpt lat="37.66621151710015" lon="14.770322461429906"><ele>264.0</ele><time>2026-04-06T09:47:11.999Z</time></trkpt><trkpt lat="37.66633938163882" lon="14.770403548625188"><ele>265.0</ele><time>2026-04-06T09:47:12.999Z</time></trkpt><trkpt lat="37.666453980233186" lon="14.770494284811159"><ele>266.0</ele><time>2026-04-06T09:47:13.999Z</time></trkpt><trkpt lat="37.666566227656254" lon="14.770566125956792"><ele>267.0</ele><time>2026-04-06T09:47:14.999Z</time></trkpt><trkpt lat="37.66666871793745" lon="14.770639620022274"><ele>267.0</ele><time>2026-04-06T09:47:15.999Z</time></trkpt><trkpt lat="37.666760713972636" lon="14.770718627092164"><ele>267.0</ele><time>2026-04-06T09:47:16.999Z</time></trkpt><trkpt lat="37.6668629068607" lon="14.770820532541403"><ele>267.0</ele><time>2026-04-06T09:47:17.999Z</time></trkpt><trkpt lat="37.666959153246076" lon="14.770940054767916"><ele>267.0</ele><time>2026-04-06T09:47:18.999Z</time></trkpt><trkpt lat="37.667040110673774" lon="14.77107831805908"><ele>266.75</ele><time>2026-04-06T09:47:19.999Z</time></trkpt><trkpt lat="37.66712041909485" lon="14.77121627671206"><ele>266.5</ele><time>2026-04-06T09:47:20.999Z</time></trkpt><trkpt lat="37.66719105647118" lon="14.771337145078714"><ele>266.25</ele><time>2026-04-06T09:47:21.999Z</time></trkpt><trkpt lat="37.667266304990775" lon="14.771431955198034"><ele>266.0</ele><time>2026-04-06T09:47:22.999Z</time></trkpt><trkpt lat="37.66731773935343" lon="14.771531776857993"><ele>266.0</ele><time>2026-04-06T09:47:23.999Z</time></trkpt><trkpt lat="37.66736314365195" lon="14.77159007081676"><ele>266.0</ele><time>2026-04-06T09:47:24.999Z</time></trkpt><trkpt lat="37.667416125579706" lon="14.77164324787614"><ele>266.0</ele><time>2026-04-06T09:47:25.999Z</time></trkpt><trkpt lat="37.667466127169504" lon="14.771692630668845"><ele>266.0</ele><time>2026-04-06T09:47:26.999Z</time></trkpt><trkpt lat="37.667549113133" lon="14.771689582846546"><ele>266.0</ele><time>2026-04-06T09:47:27.999Z</time></trkpt><trkpt lat="37.667638843678866" lon="14.771716324832463"><ele>266.0</ele><time>2026-04-06T09:47:28.999Z</time></trkpt><trkpt lat="37.667756181406" lon="14.771725696651602"><ele>265.6666666666667</ele><time>2026-04-06T09:47:29.999Z</time></trkpt><trkpt lat="37.66790348378253" lon="14.771736971741513"><ele>265.3333333333333</ele><time>2026-04-06T09:47:30.999Z</time></trkpt><trkpt lat="37.66805924793198" lon="14.771749825036835"><ele>265.0</ele><time>2026-04-06T09:47:31.999Z</time></trkpt><trkpt lat="37.66821307343184" lon="14.771775003866242"><ele>265.0</ele><time>2026-04-06T09:47:32.999Z</time></trkpt><trkpt lat="37.668368747542345" lon="14.771762113719955"><ele>265.0</ele><time>2026-04-06T09:47:33.999Z</time></trkpt><trkpt lat="37.66852203407405" lon="14.771789911153622"><ele>265.0</ele><time>2026-04-06T09:47:34.999Z</time></trkpt><trkpt lat="37.668682840024566" lon="14.771804547379636"><ele>266.0</ele><time>2026-04-06T09:47:35.999Z</time></trkpt><trkpt lat="37.66884821990089" lon="14.771818544558474"><ele>267.0</ele><time>2026-04-06T09:47:36.999Z</time></trkpt><trkpt lat="37.669002363621324" lon="14.771831175218978"><ele>268.0</ele><time>2026-04-06T09:47:37.999Z</time></trkpt><trkpt lat="37.66915235284097" lon="14.771846971958006"><ele>268.0</ele><time>2026-04-06T09:47:38.999Z</time></trkpt><trkpt lat="37.66930549099331" lon="14.771862693490178"><ele>268.0</ele><time>2026-04-06T09:47:39.999Z</time></trkpt><trkpt lat="37.66945133864827" lon="14.771877666531921"><ele>268.0</ele><time>2026-04-06T09:47:40.999Z</time></trkpt><trkpt lat="37.669598554724494" lon="14.77189278010217"><ele>268.0</ele><time>2026-04-06T09:47:41.999Z</time></trkpt><trkpt lat="37.66972105332312" lon="14.771900264691219"><ele>268.0</ele><time>2026-04-06T09:47:42.999Z</time></trkpt><trkpt lat="37.669827749227636" lon="14.771905256117355"><ele>268.0</ele><time>2026-04-06T09:47:43.999Z</time></trkpt><trkpt lat="37.669929405706284" lon="14.771884707369717"><ele>268.0</ele><time>2026-04-06T09:47:44.999Z</time></trkpt><trkpt lat="37.67003660427814" lon="14.771859012961182"><ele>268.0</ele><time>2026-04-06T09:47:45.999Z</time></trkpt><trkpt lat="37.670173530175376" lon="14.771836434745072"><ele>268.5</ele><time>2026-04-06T09:47:46.999Z</time></trkpt><trkpt lat="37.67030695503179" lon="14.771800829356385"><ele>269.0</ele><time>2026-04-06T09:47:47.999Z</time></trkpt><trkpt lat="37.670450222022296" lon="14.771781389226046"><ele>269.5</ele><time>2026-04-06T09:47:48.999Z</time></trkpt><trkpt lat="37.67060073800434" lon="14.771770279107072"><ele>270.0</ele><time>2026-04-06T09:47:49.999Z</time></trkpt><trkpt lat="37.670758537083664" lon="14.77175865022729"><ele>270.0</ele><time>2026-04-06T09:47:50.999Z</time></trkpt><trkpt lat="37.67090316051241" lon="14.771747629390147"><ele>270.0</ele><time>2026-04-06T09:47:51.999Z</time></trkpt><trkpt lat="37.67104852588455" lon="14.771735005309353"><ele>270.0</ele><time>2026-04-06T09:47:52.999Z</time></trkpt><trkpt lat="37.67119032981155" lon="14.771722690512252"><ele>270.0</ele><time>2026-04-06T09:47:53.999Z</time></trkpt><trkpt lat="37.67132508273662" lon="14.771710988053712"><ele>270.0</ele><time>2026-04-06T09:47:54.999Z</time></trkpt><trkpt lat="37.67144519270712" lon="14.77170063935675"><ele>270.0</ele><time>2026-04-06T09:47:55.999Z</time></trkpt><trkpt lat="37.671554636790304" lon="14.771687456476018"><ele>270.0</ele><time>2026-04-06T09:47:56.999Z</time></trkpt><trkpt lat="37.67166286782471" lon="14.771671358038043"><ele>270.0</ele><time>2026-04-06T09:47:57.999Z</time></trkpt><trkpt lat="37.67176097359616" lon="14.771655243428643"><ele>270.0</ele><time>2026-04-06T09:47:58.999Z</time></trkpt><trkpt lat="37.67185876148684" lon="14.771639637637715"><ele>270.3333333333333</ele><time>2026-04-06T09:48:00Z</time></trkpt><trkpt lat="37.67194300099293" lon="14.771629525675161"><ele>270.6666666666667</ele><time>2026-04-06T09:48:01Z</time></trkpt><trkpt lat="37.67202631551781" lon="14.771622591881911"><ele>271.0</ele><time>2026-04-06T09:48:02Z</time></trkpt><trkpt lat="37.672094574005705" lon="14.771618047023031"><ele>271.33333333333337</ele><time>2026-04-06T09:48:03Z</time></trkpt><trkpt lat="37.672196908470475" lon="14.771621396768284"><ele>271.6666666666667</ele><time>2026-04-06T09:48:05Z</time></trkpt><trkpt lat="37.67226096069098" lon="14.77163137991454"><ele>272.0</ele><time>2026-04-06T09:48:09Z</time></trkpt><trkpt lat="37.672337268714415" lon="14.771608482853043"><ele>272.0</ele><time>2026-04-06T09:48:20Z</time></trkpt><trkpt lat="37.672446819784746" lon="14.77156648275744"><ele>272.0</ele><time>2026-04-06T09:48:22Z</time></trkpt><trkpt lat="37.6725277749264" lon="14.771600140765626"><ele>272.0</ele><time>2026-04-06T09:48:23Z</time></trkpt><trkpt lat="37.672595891090005" lon="14.771581178575108"><ele>272.0</ele><time>2026-04-06T09:48:24Z</time></trkpt><trkpt lat="37.672651181611826" lon="14.77152072388866"><ele>272.0</ele><time>2026-04-06T09:48:25Z</time></trkpt><trkpt lat="37.67277915531857" lon="14.771468510212504"><ele>272.75</ele><time>2026-04-06T09:48:27Z</time></trkpt><trkpt lat="37.672935021459786" lon="14.771525114517699"><ele>273.5</ele><time>2026-04-06T09:48:28Z</time></trkpt><trkpt lat="37.67302054820425" lon="14.771452947253817"><ele>274.25</ele><time>2026-04-06T09:48:29Z</time></trkpt><trkpt lat="37.67309996804745" lon="14.771398576178862"><ele>275.0</ele><time>2026-04-06T09:48:30Z</time></trkpt><trkpt lat="37.6731917258596" lon="14.771334144910156"><ele>275.0</ele><time>2026-04-06T09:48:31Z</time></trkpt><trkpt lat="37.67326537687424" lon="14.77129015333971"><ele>275.0</ele><time>2026-04-06T09:48:32Z</time></trkpt><trkpt lat="37.673343568470344" lon="14.771254769675792"><ele>275.0</ele><time>2026-04-06T09:48:33Z</time></trkpt><trkpt lat="37.67342349387599" lon="14.771231374337827"><ele>275.0</ele><time>2026-04-06T09:48:34Z</time></trkpt><trkpt lat="37.673502060462916" lon="14.771216544310779"><ele>275.0</ele><time>2026-04-06T09:48:35Z</time></trkpt><trkpt lat="37.673576902711936" lon="14.771221210169747"><ele>275.0</ele><time>2026-04-06T09:49:12Z</time></trkpt><trkpt lat="37.673694865500494" lon="14.771237024527096"><ele>276.5</ele><time>2026-04-06T09:49:33.999Z</time></trkpt><trkpt lat="37.67382505228527" lon="14.771325777988558"><ele>278.0</ele><time>2026-04-06T09:49:35.999Z</time></trkpt><trkpt lat="37.674029634105786" lon="14.77102191956768"><ele>278.2</ele><time>2026-04-06T09:49:36.999Z</time></trkpt><trkpt lat="37.674148911187125" lon="14.771037794751512"><ele>278.4</ele><time>2026-04-06T09:49:37.999Z</time></trkpt><trkpt lat="37.67423690843046" lon="14.771038848532656"><ele>278.59999999999997</ele><time>2026-04-06T09:49:38.999Z</time></trkpt><trkpt lat="37.67434025870966" lon="14.771046900401561"><ele>278.8</ele><time>2026-04-06T09:49:39.999Z</time></trkpt><trkpt lat="37.67442972310271" lon="14.771051764388154"><ele>279.0</ele><time>2026-04-06T09:49:40.999Z</time></trkpt><trkpt lat="37.674506313871895" lon="14.771049636457919"><ele>279.8</ele><time>2026-04-06T09:49:41.999Z</time></trkpt><trkpt lat="37.674574872332386" lon="14.771011445627654"><ele>280.59999999999997</ele><time>2026-04-06T09:49:42.999Z</time></trkpt><trkpt lat="37.67465519691909" lon="14.770952113358629"><ele>281.4</ele><time>2026-04-06T09:49:43.999Z</time></trkpt><trkpt lat="37.67474140586983" lon="14.770938064115247"><ele>282.2</ele><time>2026-04-06T09:49:44.999Z</time></trkpt><trkpt lat="37.67483253771316" lon="14.770959937497269"><ele>283.0</ele><time>2026-04-06T09:49:45.999Z</time></trkpt><trkpt lat="37.67493879912235" lon="14.77099063076831"><ele>283.0</ele><time>2026-04-06T09:49:46.999Z</time></trkpt><trkpt lat="37.67505722601845" lon="14.771020292636974"><ele>283.0</ele><time>2026-04-06T09:49:47.999Z</time></trkpt><trkpt lat="37.67516487388534" lon="14.771047718205034"><ele>283.0</ele><time>2026-04-06T09:49:48.999Z</time></trkpt><trkpt lat="37.67526868515015" lon="14.77106276308785"><ele>283.0</ele><time>2026-04-06T09:49:49.999Z</time></trkpt><trkpt lat="37.675361391690586" lon="14.771075238764757"><ele>283.0</ele><time>2026-04-06T09:49:50.999Z</time></trkpt><trkpt lat="37.67544232003236" lon="14.771082411197714"><ele>283.0</ele><time>2026-04-06T09:49:51.999Z</time></trkpt><trkpt lat="37.67553397736438" lon="14.771089943362245"><ele>283.0</ele><time>2026-04-06T09:49:52.999Z</time></trkpt><trkpt lat="37.675630820202535" lon="14.771102229898203"><ele>283.0</ele><time>2026-04-06T09:49:53.999Z</time></trkpt><trkpt lat="37.67573782179558" lon="14.771117712390195"><ele>283.0</ele><time>2026-04-06T09:49:54.999Z</time></trkpt><trkpt lat="37.675836255996614" lon="14.771135090326156"><ele>283.0</ele><time>2026-04-06T09:49:55.999Z</time></trkpt><trkpt lat="37.67592157458071" lon="14.771160698598967"><ele>283.0</ele><time>2026-04-06T09:49:56.999Z</time></trkpt><trkpt lat="37.67601151538434" lon="14.771196037077456"><ele>283.0</ele><time>2026-04-06T09:49:57.999Z</time></trkpt><trkpt lat="37.676183244746326" lon="14.771237594799631"><ele>283.0</ele><time>2026-04-06T09:49:59.999Z</time></trkpt><trkpt lat="37.67625333823579" lon="14.771242554376053"><ele>283.0</ele><time>2026-04-06T09:50:00.999Z</time></trkpt><trkpt lat="37.67635322599333" lon="14.771235831295481"><ele>283.0</ele><time>2026-04-06T09:50:02.999Z</time></trkpt><trkpt lat="37.67643149549934" lon="14.771247964065303"><ele>283.2</ele><time>2026-04-06T09:50:07Z</time></trkpt><trkpt lat="37.67649225630238" lon="14.77132618720518"><ele>283.4</ele><time>2026-04-06T09:50:09Z</time></trkpt><trkpt lat="37.67650188750284" lon="14.771440989657375"><ele>283.59999999999997</ele><time>2026-04-06T09:50:12Z</time></trkpt><trkpt lat="37.676488367703826" lon="14.771583644867144"><ele>283.8</ele><time>2026-04-06T09:50:14Z</time></trkpt><trkpt lat="37.67650658468245" lon="14.771708264343308"><ele>284.0</ele><time>2026-04-06T09:50:16Z</time></trkpt><trkpt lat="37.676543987854394" lon="14.771834776517744"><ele>285.75</ele><time>2026-04-06T09:50:18Z</time></trkpt><trkpt lat="37.67642998918565" lon="14.771986144368359"><ele>287.5</ele><time>2026-04-06T09:50:19Z</time></trkpt><trkpt lat="37.67655591913648" lon="14.771936327820375"><ele>289.25</ele><time>2026-04-06T09:50:27Z</time></trkpt><trkpt lat="37.67663425575591" lon="14.771989527160937"><ele>291.0</ele><time>2026-04-06T09:51:49.999Z</time></trkpt><trkpt lat="37.676753048591564" lon="14.771946363526345"><ele>291.0</ele><time>2026-04-06T09:51:51.999Z</time></trkpt><trkpt lat="37.67682544018842" lon="14.771941684962403"><ele>291.0</ele><time>2026-04-06T09:51:52.999Z</time></trkpt><trkpt lat="37.676914018720055" lon="14.771972066203702"><ele>291.0</ele><time>2026-04-06T09:51:53.999Z</time></trkpt><trkpt lat="37.677009853244265" lon="14.771972750587432"><ele>291.0</ele><time>2026-04-06T09:51:54.999Z</time></trkpt><trkpt lat="37.67711134143181" lon="14.771984358232602"><ele>291.0</ele><time>2026-04-06T09:51:55.999Z</time></trkpt><trkpt lat="37.67721756857085" lon="14.772013739788918"><ele>291.8</ele><time>2026-04-06T09:51:56.999Z</time></trkpt><trkpt lat="37.67731928233998" lon="14.772008435967674"><ele>292.6</ele><time>2026-04-06T09:51:57.999Z</time></trkpt><trkpt lat="37.67740901790391" lon="14.772049354653769"><ele>293.4</ele><time>2026-04-06T09:51:58.999Z</time></trkpt><trkpt lat="37.6774906324698" lon="14.7721045477318"><ele>294.2</ele><time>2026-04-06T09:51:59.999Z</time></trkpt><trkpt lat="37.67755927554757" lon="14.772189195536598"><ele>295.0</ele><time>2026-04-06T09:52:00.999Z</time></trkpt><trkpt lat="37.67763024492701" lon="14.772236759083391"><ele>295.0</ele><time>2026-04-06T09:52:01.999Z</time></trkpt><trkpt lat="37.67769792502923" lon="14.772253731752366"><ele>295.0</ele><time>2026-04-06T09:52:02.999Z</time></trkpt><trkpt lat="37.677793220908484" lon="14.772165182313783"><ele>295.0</ele><time>2026-04-06T09:52:04.999Z</time></trkpt><trkpt lat="37.67786020485083" lon="14.772123729988612"><ele>295.0</ele><time>2026-04-06T09:52:06.999Z</time></trkpt><trkpt lat="37.677923935074084" lon="14.772085058263745"><ele>295.0</ele><time>2026-04-06T09:52:07.999Z</time></trkpt><trkpt lat="37.677994533090676" lon="14.772051756959595"><ele>295.0</ele><time>2026-04-06T09:52:09.999Z</time></trkpt><trkpt lat="37.67811337352156" lon="14.771999197075372"><ele>294.66666666666663</ele><time>2026-04-06T09:52:12Z</time></trkpt><trkpt lat="37.67818942619065" lon="14.771966930576319"><ele>294.3333333333333</ele><time>2026-04-06T09:52:13Z</time></trkpt><trkpt lat="37.67827311544141" lon="14.771911605745643"><ele>294.0</ele><time>2026-04-06T09:52:14Z</time></trkpt><trkpt lat="37.678359268458465" lon="14.77189246561156"><ele>293.6666666666667</ele><time>2026-04-06T09:52:15Z</time></trkpt><trkpt lat="37.678436912521015" lon="14.77183519216912"><ele>293.33333333333337</ele><time>2026-04-06T09:52:16Z</time></trkpt><trkpt lat="37.678513787137426" lon="14.771790985998438"><ele>293.0</ele><time>2026-04-06T09:52:17Z</time></trkpt><trkpt lat="37.678623419397915" lon="14.771751094392473"><ele>293.0</ele><time>2026-04-06T09:52:19Z</time></trkpt><trkpt lat="37.67870214463205" lon="14.771829326232803"><ele>293.0</ele><time>2026-04-06T09:52:21Z</time></trkpt><trkpt lat="37.67877426021756" lon="14.771862463801394"><ele>293.0</ele><time>2026-04-06T09:52:23Z</time></trkpt><trkpt lat="37.67867477844401" lon="14.771796216916997"><ele>293.0</ele><time>2026-04-06T09:52:35Z</time></trkpt><trkpt lat="37.67860858844591" lon="14.771757380588985"><ele>293.0</ele><time>2026-04-06T09:52:36Z</time></trkpt><trkpt lat="37.67850294346119" lon="14.77177849329116"><ele>293.0</ele><time>2026-04-06T09:52:38Z</time></trkpt><trkpt lat="37.67843380640433" lon="14.771825292195366"><ele>293.0</ele><time>2026-04-06T09:52:39Z</time></trkpt><trkpt lat="37.678334493319355" lon="14.771859288055355"><ele>293.0</ele><time>2026-04-06T09:52:40Z</time></trkpt><trkpt lat="37.67823741028637" lon="14.771902312278582"><ele>293.0</ele><time>2026-04-06T09:52:41Z</time></trkpt><trkpt lat="37.67813966747814" lon="14.771943781154373"><ele>293.0</ele><time>2026-04-06T09:52:42Z</time></trkpt><trkpt lat="37.678053919041915" lon="14.772001290935934"><ele>293.33333333333337</ele><time>2026-04-06T09:52:43Z</time></trkpt><trkpt lat="37.67796478327089" lon="14.772021065343147"><ele>293.6666666666667</ele><time>2026-04-06T09:52:44Z</time></trkpt><trkpt lat="37.67787734407022" lon="14.772066047148837"><ele>294.0</ele><time>2026-04-06T09:52:45Z</time></trkpt><trkpt lat="37.67779806795394" lon="14.772117034385209"><ele>294.3333333333333</ele><time>2026-04-06T09:52:46Z</time></trkpt><trkpt lat="37.677733322934884" lon="14.772181636886957"><ele>294.66666666666663</ele><time>2026-04-06T09:52:47Z</time></trkpt><trkpt lat="37.677669431766496" lon="14.77221155758868"><ele>295.0</ele><time>2026-04-06T09:52:48Z</time></trkpt><trkpt lat="37.677551984595624" lon="14.772136005824128"><ele>295.0</ele><time>2026-04-06T09:52:50Z</time></trkpt><trkpt lat="37.677467422688686" lon="14.772078905246982"><ele>295.0</ele><time>2026-04-06T09:52:51Z</time></trkpt><trkpt lat="37.67737661000585" lon="14.772038811258655"><ele>295.0</ele><time>2026-04-06T09:52:52Z</time></trkpt><trkpt lat="37.677291710225134" lon="14.772002407389028"><ele>295.0</ele><time>2026-04-06T09:52:53Z</time></trkpt><trkpt lat="37.67719871196449" lon="14.771974761035498"><ele>295.0</ele><time>2026-04-06T09:52:54Z</time></trkpt><trkpt lat="37.677090639120195" lon="14.771958894221992"><ele>295.0</ele><time>2026-04-06T09:52:55Z</time></trkpt><trkpt lat="37.67698111850954" lon="14.7719461356377"><ele>295.0</ele><time>2026-04-06T09:52:56Z</time></trkpt><trkpt lat="37.676881950455495" lon="14.771944508257485"><ele>295.0</ele><time>2026-04-06T09:52:57Z</time></trkpt><trkpt lat="37.67678829069763" lon="14.771954282034809"><ele>295.0</ele><time>2026-04-06T09:52:58Z</time></trkpt><trkpt lat="37.67669906932481" lon="14.771975230063259"><ele>295.0</ele><time>2026-04-06T09:52:59Z</time></trkpt><trkpt lat="37.67662077334276" lon="14.77196604402994"><ele>294.2</ele><time>2026-04-06T09:53:00Z</time></trkpt><trkpt lat="37.67654274219107" lon="14.771970617936915"><ele>293.4</ele><time>2026-04-06T09:53:01Z</time></trkpt><trkpt lat="37.67643474124599" lon="14.771977733768857"><ele>292.6</ele><time>2026-04-06T09:53:03Z</time></trkpt><trkpt lat="37.67634869047418" lon="14.771957426659025"><ele>291.8</ele><time>2026-04-06T09:53:05Z</time></trkpt><trkpt lat="37.67630907535219" lon="14.772057937309784"><ele>291.0</ele><time>2026-04-06T09:53:07Z</time></trkpt><trkpt lat="37.676282599532286" lon="14.772216021665066"><ele>291.0</ele><time>2026-04-06T09:53:09Z</time></trkpt><trkpt lat="37.67624674480898" lon="14.772281771640206"><ele>291.0</ele><time>2026-04-06T09:53:10Z</time></trkpt><trkpt lat="37.676210551761855" lon="14.77240028839066"><ele>291.0</ele><time>2026-04-06T09:53:12Z</time></trkpt><trkpt lat="37.67617662848887" lon="14.772508513520213"><ele>291.0</ele><time>2026-04-06T09:53:13Z</time></trkpt><trkpt lat="37.67613563702589" lon="14.772639288246545"><ele>291.0</ele><time>2026-04-06T09:53:14Z</time></trkpt><trkpt lat="37.67608788879277" lon="14.772789024968795"><ele>292.0</ele><time>2026-04-06T09:53:15Z</time></trkpt><trkpt lat="37.676033450458334" lon="14.772959817578707"><ele>293.0</ele><time>2026-04-06T09:53:16Z</time></trkpt><trkpt lat="37.67599567988475" lon="14.773127349316413"><ele>294.0</ele><time>2026-04-06T09:53:17Z</time></trkpt><trkpt lat="37.67595814462349" lon="14.773247576198687"><ele>295.0</ele><time>2026-04-06T09:53:18Z</time></trkpt><trkpt lat="37.67592402311472" lon="14.773358747356735"><ele>295.0</ele><time>2026-04-06T09:53:19Z</time></trkpt><trkpt lat="37.67588692993973" lon="14.77348711644835"><ele>295.0</ele><time>2026-04-06T09:53:20Z</time></trkpt><trkpt lat="37.67584481251182" lon="14.773635216478514"><ele>295.0</ele><time>2026-04-06T09:53:21Z</time></trkpt><trkpt lat="37.67578462447081" lon="14.77377836613211"><ele>295.0</ele><time>2026-04-06T09:53:22Z</time></trkpt><trkpt lat="37.67574074865844" lon="14.773925900070328"><ele>297.75</ele><time>2026-04-06T09:53:23Z</time></trkpt><trkpt lat="37.675698642581665" lon="14.77406748327923"><ele>300.5</ele><time>2026-04-06T09:53:24Z</time></trkpt><trkpt lat="37.67565134378593" lon="14.774222068484582"><ele>303.25</ele><time>2026-04-06T09:53:25Z</time></trkpt><trkpt lat="37.675604132567955" lon="14.77437789170132"><ele>306.0</ele><time>2026-04-06T09:53:26Z</time></trkpt><trkpt lat="37.67555504788915" lon="14.774539898242782"><ele>308.75</ele><time>2026-04-06T09:53:27Z</time></trkpt><trkpt lat="37.6755081220425" lon="14.774694779616643"><ele>311.5</ele><time>2026-04-06T09:53:28Z</time></trkpt><trkpt lat="37.67546392377363" lon="14.774840462215659"><ele>314.25</ele><time>2026-04-06T09:53:29Z</time></trkpt><trkpt lat="37.67543510843112" lon="14.774976645061944"><ele>317.0</ele><time>2026-04-06T09:53:30Z</time></trkpt><trkpt lat="37.67542014947174" lon="14.775124415841647"><ele>319.0</ele><time>2026-04-06T09:53:31Z</time></trkpt><trkpt lat="37.67542648119609" lon="14.77522309478136"><ele>321.0</ele><time>2026-04-06T09:53:32Z</time></trkpt><trkpt lat="37.67544863132121" lon="14.77535152643212"><ele>323.0</ele><time>2026-04-06T09:53:33Z</time></trkpt><trkpt lat="37.67544466540385" lon="14.775493075051756"><ele>325.0</ele><time>2026-04-06T09:53:34Z</time></trkpt><trkpt lat="37.67545088886782" lon="14.775623563852697"><ele>327.0</ele><time>2026-04-06T09:53:34.999Z</time></trkpt><trkpt lat="37.67545286351528" lon="14.77572445911736"><ele>327.0</ele><time>2026-04-06T09:53:35.999Z</time></trkpt><trkpt lat="37.67546085413563" lon="14.775807959240662"><ele>327.0</ele><time>2026-04-06T09:53:36.999Z</time></trkpt><trkpt lat="37.67542198699015" lon="14.77594903367741"><ele>327.0</ele><time>2026-04-06T09:53:38.999Z</time></trkpt><trkpt lat="37.67540938710413" lon="14.776043557520822"><ele>327.0</ele><time>2026-04-06T09:53:39.999Z</time></trkpt><trkpt lat="37.67538014288929" lon="14.776132314406727"><ele>327.0</ele><time>2026-04-06T09:53:40.999Z</time></trkpt><trkpt lat="37.67535552697779" lon="14.776213787405565"><ele>327.0</ele><time>2026-04-06T09:53:41.999Z</time></trkpt><trkpt lat="37.67531938113054" lon="14.776332598700122"><ele>327.0</ele><time>2026-04-06T09:53:43.999Z</time></trkpt><trkpt lat="37.67529528677578" lon="14.776431736250236"><ele>327.0</ele><time>2026-04-06T09:53:46.999Z</time></trkpt><trkpt lat="37.67545077247563" lon="14.776511808017078"><ele>327.0</ele><time>2026-04-06T09:53:51.999Z</time></trkpt><trkpt lat="37.67551569770802" lon="14.776545321224564"><ele>327.0</ele><time>2026-04-06T09:53:52.999Z</time></trkpt><trkpt lat="37.675579057924146" lon="14.776589094084205"><ele>327.0</ele><time>2026-04-06T09:53:53.999Z</time></trkpt><trkpt lat="37.67562722304557" lon="14.77665935591442"><ele>327.0</ele><time>2026-04-06T09:53:54.999Z</time></trkpt><trkpt lat="37.67565861534143" lon="14.776735006870139"><ele>327.0</ele><time>2026-04-06T09:53:55.999Z</time></trkpt><trkpt lat="37.67569265138011" lon="14.776834749331506"><ele>327.0</ele><time>2026-04-06T09:53:56.999Z</time></trkpt><trkpt lat="37.675706221203846" lon="14.776927756846288"><ele>327.0</ele><time>2026-04-06T09:53:57.999Z</time></trkpt><trkpt lat="37.6756951823545" lon="14.777018824927715"><ele>327.0</ele><time>2026-04-06T09:53:58.999Z</time></trkpt><trkpt lat="37.67569069552477" lon="14.777122666382981"><ele>327.0</ele><time>2026-04-06T09:53:59.999Z</time></trkpt><trkpt lat="37.675698306546096" lon="14.777238666314197"><ele>327.40000000000003</ele><time>2026-04-06T09:54:00.999Z</time></trkpt><trkpt lat="37.67569273545391" lon="14.777360576557546"><ele>327.8</ele><time>2026-04-06T09:54:01.999Z</time></trkpt><trkpt lat="37.675704102592704" lon="14.777476814842592"><ele>328.2</ele><time>2026-04-06T09:54:02.999Z</time></trkpt><trkpt lat="37.67572099650803" lon="14.777600925363595"><ele>328.6</ele><time>2026-04-06T09:54:03.999Z</time></trkpt><trkpt lat="37.675752781699124" lon="14.777733620642174"><ele>329.0</ele><time>2026-04-06T09:54:04.999Z</time></trkpt><trkpt lat="37.67577897920317" lon="14.777866009644443"><ele>329.79999999999995</ele><time>2026-04-06T09:54:05.999Z</time></trkpt><trkpt lat="37.67577015701773" lon="14.7779897430708"><ele>330.59999999999997</ele><time>2026-04-06T09:54:06.999Z</time></trkpt><trkpt lat="37.675760717159264" lon="14.778106529925104"><ele>331.4</ele><time>2026-04-06T09:54:07.999Z</time></trkpt><trkpt lat="37.67574083810511" lon="14.778233444452448"><ele>332.2</ele><time>2026-04-06T09:54:08.999Z</time></trkpt><trkpt lat="37.67567956939105" lon="14.778350106182435"><ele>333.0</ele><time>2026-04-06T09:54:09.999Z</time></trkpt><trkpt lat="37.67559749666267" lon="14.778477449413879"><ele>332.0</ele><time>2026-04-06T09:54:10.999Z</time></trkpt><trkpt lat="37.67550040771065" lon="14.77859872667267"><ele>331.0</ele><time>2026-04-06T09:54:11.999Z</time></trkpt><trkpt lat="37.675396059943814" lon="14.778707981595325"><ele>330.0</ele><time>2026-04-06T09:54:12.999Z</time></trkpt><trkpt lat="37.67531146270458" lon="14.778803459778592"><ele>329.0</ele><time>2026-04-06T09:54:13.999Z</time></trkpt><trkpt lat="37.675250949005935" lon="14.778904407822097"><ele>329.0</ele><time>2026-04-06T09:54:14.999Z</time></trkpt><trkpt lat="37.675222020760025" lon="14.779016466164103"><ele>329.0</ele><time>2026-04-06T09:54:15.999Z</time></trkpt><trkpt lat="37.67522992504336" lon="14.779123633573509"><ele>329.0</ele><time>2026-04-06T09:54:16.999Z</time></trkpt><trkpt lat="37.67524081928407" lon="14.779234126404186"><ele>329.0</ele><time>2026-04-06T09:54:18Z</time></trkpt><trkpt lat="37.6752835719321" lon="14.779339863933066"><ele>329.0</ele><time>2026-04-06T09:54:19Z</time></trkpt><trkpt lat="37.67534496254085" lon="14.7794275052923"><ele>332.2</ele><time>2026-04-06T09:54:20Z</time></trkpt><trkpt lat="37.675432347064" lon="14.779489655462696"><ele>335.4</ele><time>2026-04-06T09:54:21Z</time></trkpt><trkpt lat="37.675527309666485" lon="14.779538946715164"><ele>338.6</ele><time>2026-04-06T09:54:22Z</time></trkpt><trkpt lat="37.67563486226677" lon="14.779539729438717"><ele>341.8</ele><time>2026-04-06T09:54:23Z</time></trkpt><trkpt lat="37.67573876242293" lon="14.779508432060428"><ele>345.0</ele><time>2026-04-06T09:54:24Z</time></trkpt><trkpt lat="37.675848927291476" lon="14.779449358758702"><ele>345.0</ele><time>2026-04-06T09:54:25Z</time></trkpt><trkpt lat="37.675965831364685" lon="14.779383671191606"><ele>345.0</ele><time>2026-04-06T09:54:26Z</time></trkpt><trkpt lat="37.67608666089827" lon="14.779312364618836"><ele>345.0</ele><time>2026-04-06T09:54:27Z</time></trkpt><trkpt lat="37.676214730606155" lon="14.77923646593621"><ele>345.0</ele><time>2026-04-06T09:54:28Z</time></trkpt><trkpt lat="37.67634163725268" lon="14.779166987892522"><ele>346.5</ele><time>2026-04-06T09:54:29Z</time></trkpt><trkpt lat="37.67647120091235" lon="14.779094553900585"><ele>348.0</ele><time>2026-04-06T09:54:30Z</time></trkpt><trkpt lat="37.67658900834503" lon="14.779025401823867"><ele>349.5</ele><time>2026-04-06T09:54:31Z</time></trkpt><trkpt lat="37.676702668614176" lon="14.77895389835405"><ele>351.0</ele><time>2026-04-06T09:54:32Z</time></trkpt><trkpt lat="37.67679365251806" lon="14.77886477327052"><ele>351.0</ele><time>2026-04-06T09:54:33Z</time></trkpt><trkpt lat="37.67689411170615" lon="14.778790594825443"><ele>351.0</ele><time>2026-04-06T09:54:34Z</time></trkpt><trkpt lat="37.67697565732683" lon="14.778673777565063"><ele>351.0</ele><time>2026-04-06T09:54:35Z</time></trkpt><trkpt lat="37.67707734382348" lon="14.778593194917544"><ele>351.0</ele><time>2026-04-06T09:54:36Z</time></trkpt><trkpt lat="37.67715646499373" lon="14.778530194490388"><ele>351.3333333333333</ele><time>2026-04-06T09:54:37Z</time></trkpt><trkpt lat="37.67723442764886" lon="14.77849048916808"><ele>351.6666666666667</ele><time>2026-04-06T09:54:38Z</time></trkpt><trkpt lat="37.67732147951196" lon="14.778473949053552"><ele>352.0</ele><time>2026-04-06T09:54:39Z</time></trkpt><trkpt lat="37.67740827183619" lon="14.778492955125781"><ele>352.33333333333337</ele><time>2026-04-06T09:54:40Z</time></trkpt><trkpt lat="37.67748563271194" lon="14.778537524754563"><ele>352.6666666666667</ele><time>2026-04-06T09:54:41Z</time></trkpt><trkpt lat="37.67755937088426" lon="14.77860012772953"><ele>353.0</ele><time>2026-04-06T09:54:42Z</time></trkpt><trkpt lat="37.677645016815774" lon="14.778685992103519"><ele>354.75</ele><time>2026-04-06T09:54:43Z</time></trkpt><trkpt lat="37.67773713717126" lon="14.778780003828695"><ele>356.5</ele><time>2026-04-06T09:54:44Z</time></trkpt><trkpt lat="37.67783649528018" lon="14.7788814018835"><ele>358.25</ele><time>2026-04-06T09:54:45Z</time></trkpt><trkpt lat="37.677936262195765" lon="14.778979736864644"><ele>360.0</ele><time>2026-04-06T09:54:46Z</time></trkpt><trkpt lat="37.67803212149038" lon="14.779068120588514"><ele>360.6</ele><time>2026-04-06T09:54:47Z</time></trkpt><trkpt lat="37.67812458806969" lon="14.779153400481125"><ele>361.2</ele><time>2026-04-06T09:54:48Z</time></trkpt><trkpt lat="37.67821014950604" lon="14.779226257419054"><ele>361.79999999999995</ele><time>2026-04-06T09:54:49Z</time></trkpt><trkpt lat="37.67829405601772" lon="14.779306825949833"><ele>362.4</ele><time>2026-04-06T09:54:50Z</time></trkpt><trkpt lat="37.678373697717014" lon="14.779371971252038"><ele>363.0</ele><time>2026-04-06T09:54:51Z</time></trkpt><trkpt lat="37.67847304536536" lon="14.779431431456903"><ele>366.0</ele><time>2026-04-06T09:54:52Z</time></trkpt><trkpt lat="37.67858894576869" lon="14.779482305180386"><ele>369.0</ele><time>2026-04-06T09:54:53Z</time></trkpt><trkpt lat="37.67870874409636" lon="14.779521632032239"><ele>372.0</ele><time>2026-04-06T09:54:54Z</time></trkpt><trkpt lat="37.67883060723583" lon="14.779538288854543"><ele>375.0</ele><time>2026-04-06T09:54:55Z</time></trkpt><trkpt lat="37.67895574651141" lon="14.779535110531176"><ele>373.75</ele><time>2026-04-06T09:54:56Z</time></trkpt><trkpt lat="37.67908094261329" lon="14.779503688332918"><ele>372.5</ele><time>2026-04-06T09:54:57Z</time></trkpt><trkpt lat="37.67919923138237" lon="14.779449110904558"><ele>371.25</ele><time>2026-04-06T09:54:58Z</time></trkpt><trkpt lat="37.67929318881642" lon="14.779362638336083"><ele>370.0</ele><time>2026-04-06T09:54:59Z</time></trkpt><trkpt lat="37.67937922915851" lon="14.77924385141846"><ele>372.6</ele><time>2026-04-06T09:55:00Z</time></trkpt><trkpt lat="37.6794595164629" lon="14.779122313603832"><ele>375.2</ele><time>2026-04-06T09:55:01Z</time></trkpt><trkpt lat="37.67954139911121" lon="14.779018382403088"><ele>377.79999999999995</ele><time>2026-04-06T09:55:02Z</time></trkpt><trkpt lat="37.67961317233808" lon="14.778924891609163"><ele>380.4</ele><time>2026-04-06T09:55:03Z</time></trkpt><trkpt lat="37.67967788499983" lon="14.778843956546504"><ele>383.0</ele><time>2026-04-06T09:55:04Z</time></trkpt><trkpt lat="37.679743602832254" lon="14.778777806723676"><ele>383.0</ele><time>2026-04-06T09:55:05Z</time></trkpt><trkpt lat="37.679827364941396" lon="14.778712998342124"><ele>383.0</ele><time>2026-04-06T09:55:06Z</time></trkpt><trkpt lat="37.67990613029895" lon="14.778679409777043"><ele>383.0</ele><time>2026-04-06T09:55:07Z</time></trkpt><trkpt lat="37.68000214520985" lon="14.77866666421526"><ele>383.0</ele><time>2026-04-06T09:55:09Z</time></trkpt><trkpt lat="37.680130507972805" lon="14.778649673058862"><ele>383.0</ele><time>2026-04-06T09:55:11Z</time></trkpt><trkpt lat="37.68023181661548" lon="14.778681923987087"><ele>383.75</ele><time>2026-04-06T09:55:12Z</time></trkpt><trkpt lat="37.68032821734698" lon="14.778705472760016"><ele>384.5</ele><time>2026-04-06T09:55:13Z</time></trkpt><trkpt lat="37.680444415441066" lon="14.778736559847262"><ele>385.25</ele><time>2026-04-06T09:55:14Z</time></trkpt><trkpt lat="37.68056414398266" lon="14.77877514196966"><ele>386.0</ele><time>2026-04-06T09:55:15Z</time></trkpt><trkpt lat="37.68068041102147" lon="14.778816913123029"><ele>386.0</ele><time>2026-04-06T09:55:16Z</time></trkpt><trkpt lat="37.680775054505254" lon="14.778851802184809"><ele>386.0</ele><time>2026-04-06T09:55:17Z</time></trkpt><trkpt lat="37.68086269138416" lon="14.77890149890825"><ele>386.0</ele><time>2026-04-06T09:55:18Z</time></trkpt><trkpt lat="37.68094159408006" lon="14.77897564928181"><ele>386.0</ele><time>2026-04-06T09:55:19Z</time></trkpt><trkpt lat="37.68103573880338" lon="14.779075829276223"><ele>386.0</ele><time>2026-04-06T09:55:20Z</time></trkpt><trkpt lat="37.68114264389662" lon="14.779197043951493"><ele>385.25</ele><time>2026-04-06T09:55:21Z</time></trkpt><trkpt lat="37.68124825885704" lon="14.779320362878028"><ele>384.5</ele><time>2026-04-06T09:55:22Z</time></trkpt><trkpt lat="37.68134806577303" lon="14.779430271521692"><ele>383.75</ele><time>2026-04-06T09:55:23Z</time></trkpt><trkpt lat="37.6814543127903" lon="14.77952253263572"><ele>383.0</ele><time>2026-04-06T09:55:24Z</time></trkpt><trkpt lat="37.68155828280205" lon="14.779665000705544"><ele>383.0</ele><time>2026-04-06T09:55:25Z</time></trkpt><trkpt lat="37.681666847069806" lon="14.779788548057537"><ele>383.0</ele><time>2026-04-06T09:55:25.999Z</time></trkpt><trkpt lat="37.68176660855904" lon="14.779885160820687"><ele>383.0</ele><time>2026-04-06T09:55:26.999Z</time></trkpt><trkpt lat="37.68183552742168" lon="14.779999987367175"><ele>383.0</ele><time>2026-04-06T09:55:27.999Z</time></trkpt><trkpt lat="37.68190508763699" lon="14.780103699337142"><ele>381.75</ele><time>2026-04-06T09:55:28.999Z</time></trkpt><trkpt lat="37.68197121679724" lon="14.780211944054521"><ele>380.5</ele><time>2026-04-06T09:55:29.999Z</time></trkpt><trkpt lat="37.682034979527" lon="14.78033059752264"><ele>379.25</ele><time>2026-04-06T09:55:30.999Z</time></trkpt><trkpt lat="37.682097113470846" lon="14.780463227538757"><ele>378.0</ele><time>2026-04-06T09:55:31.999Z</time></trkpt><trkpt lat="37.68217500042221" lon="14.78059461454892"><ele>378.0</ele><time>2026-04-06T09:55:32.999Z</time></trkpt><trkpt lat="37.682221855649495" lon="14.780724328524267"><ele>378.0</ele><time>2026-04-06T09:55:33.999Z</time></trkpt><trkpt lat="37.682272468249586" lon="14.780821931604452"><ele>378.0</ele><time>2026-04-06T09:55:34.999Z</time></trkpt><trkpt lat="37.68233061929961" lon="14.78092144653106"><ele>378.0</ele><time>2026-04-06T09:55:35.999Z</time></trkpt><trkpt lat="37.68239826355339" lon="14.781019697735731"><ele>378.0</ele><time>2026-04-06T09:55:36.999Z</time></trkpt><trkpt lat="37.68248503575862" lon="14.78109952684432"><ele>377.25</ele><time>2026-04-06T09:55:37.999Z</time></trkpt><trkpt lat="37.682591013807766" lon="14.781157945026175"><ele>376.5</ele><time>2026-04-06T09:55:38.999Z</time></trkpt><trkpt lat="37.68271201912178" lon="14.781248562899174"><ele>375.75</ele><time>2026-04-06T09:55:39.999Z</time></trkpt><trkpt lat="37.68284370358853" lon="14.781333102247912"><ele>375.0</ele><time>2026-04-06T09:55:40.999Z</time></trkpt><trkpt lat="37.68297979946626" lon="14.781420358564377"><ele>377.3333333333333</ele><time>2026-04-06T09:55:41.999Z</time></trkpt><trkpt lat="37.683123640774525" lon="14.781510885652162"><ele>379.66666666666663</ele><time>2026-04-06T09:55:42.999Z</time></trkpt><trkpt lat="37.68326114145314" lon="14.781595806211243"><ele>382.0</ele><time>2026-04-06T09:55:43.999Z</time></trkpt><trkpt lat="37.683397097794426" lon="14.781681090560772"><ele>382.0</ele><time>2026-04-06T09:55:44.999Z</time></trkpt><trkpt lat="37.68352348599598" lon="14.781764591070125"><ele>382.0</ele><time>2026-04-06T09:55:45.999Z</time></trkpt><trkpt lat="37.68365136356092" lon="14.781844881237703"><ele>382.0</ele><time>2026-04-06T09:55:46.999Z</time></trkpt><trkpt lat="37.683767617914256" lon="14.781908215095024"><ele>382.0</ele><time>2026-04-06T09:55:47.999Z</time></trkpt><trkpt lat="37.6838787776097" lon="14.781955314532329"><ele>383.40000000000003</ele><time>2026-04-06T09:55:48.999Z</time></trkpt><trkpt lat="37.68398762939707" lon="14.781982548432156"><ele>384.8</ele><time>2026-04-06T09:55:49.999Z</time></trkpt><trkpt lat="37.68408680094385" lon="14.781983970974618"><ele>386.2</ele><time>2026-04-06T09:55:50.999Z</time></trkpt><trkpt lat="37.68419109019309" lon="14.781955994931375"><ele>387.6</ele><time>2026-04-06T09:55:51.999Z</time></trkpt><trkpt lat="37.684287602957" lon="14.781874439538674"><ele>389.0</ele><time>2026-04-06T09:55:52.999Z</time></trkpt><trkpt lat="37.684394663014196" lon="14.781784287202614"><ele>393.25</ele><time>2026-04-06T09:55:53.999Z</time></trkpt><trkpt lat="37.68450349156184" lon="14.781713552458251"><ele>397.5</ele><time>2026-04-06T09:55:54.999Z</time></trkpt><trkpt lat="37.68462422834099" lon="14.78161113673878"><ele>401.75</ele><time>2026-04-06T09:55:55.999Z</time></trkpt><trkpt lat="37.684736883749295" lon="14.78150964020626"><ele>406.0</ele><time>2026-04-06T09:55:56.999Z</time></trkpt><trkpt lat="37.68485036655943" lon="14.78141245703548"><ele>406.0</ele><time>2026-04-06T09:55:57.999Z</time></trkpt><trkpt lat="37.68496333733454" lon="14.781311088737374"><ele>406.0</ele><time>2026-04-06T09:55:58.999Z</time></trkpt><trkpt lat="37.68507124108317" lon="14.781215157718423"><ele>406.0</ele><time>2026-04-06T09:55:59.999Z</time></trkpt><trkpt lat="37.68518388006014" lon="14.781123868050583"><ele>406.0</ele><time>2026-04-06T09:56:00.999Z</time></trkpt><trkpt lat="37.685286823398286" lon="14.781039767549062"><ele>405.4</ele><time>2026-04-06T09:56:01.999Z</time></trkpt><trkpt lat="37.6853800487198" lon="14.78097548943026"><ele>404.8</ele><time>2026-04-06T09:56:02.999Z</time></trkpt><trkpt lat="37.685458904057896" lon="14.78090904058443"><ele>404.2</ele><time>2026-04-06T09:56:03.999Z</time></trkpt><trkpt lat="37.685533405364296" lon="14.780863492234964"><ele>403.59999999999997</ele><time>2026-04-06T09:56:04.999Z</time></trkpt><trkpt lat="37.685626813536196" lon="14.780827230075422"><ele>403.0</ele><time>2026-04-06T09:56:05.999Z</time></trkpt><trkpt lat="37.685720215570996" lon="14.780807069976202"><ele>403.00000000000006</ele><time>2026-04-06T09:56:06.999Z</time></trkpt><trkpt lat="37.68580145837475" lon="14.780806809128235"><ele>403.0</ele><time>2026-04-06T09:56:07.999Z</time></trkpt><trkpt lat="37.685880434127114" lon="14.780842985394491"><ele>403.0</ele><time>2026-04-06T09:56:08.999Z</time></trkpt><trkpt lat="37.68595141072913" lon="14.780894475718474"><ele>403.0</ele><time>2026-04-06T09:56:09.999Z</time></trkpt><trkpt lat="37.68602272924846" lon="14.780950286512452"><ele>403.00000000000006</ele><time>2026-04-06T09:56:10.999Z</time></trkpt><trkpt lat="37.68608260725872" lon="14.781013774368613"><ele>403.0</ele><time>2026-04-06T09:56:11.999Z</time></trkpt><trkpt lat="37.68613893377714" lon="14.78111532849642"><ele>404.5</ele><time>2026-04-06T09:56:12.999Z</time></trkpt><trkpt lat="37.68620023499174" lon="14.781225979698618"><ele>406.0</ele><time>2026-04-06T09:56:13.999Z</time></trkpt><trkpt lat="37.686265354419575" lon="14.781345193013559"><ele>407.5</ele><time>2026-04-06T09:56:14.999Z</time></trkpt><trkpt lat="37.686351138123314" lon="14.781453389268428"><ele>409.0</ele><time>2026-04-06T09:56:15.999Z</time></trkpt><trkpt lat="37.68642835081129" lon="14.781579721625848"><ele>409.0</ele><time>2026-04-06T09:56:16.999Z</time></trkpt><trkpt lat="37.68651128983336" lon="14.781711933634629"><ele>409.0</ele><time>2026-04-06T09:56:17.999Z</time></trkpt><trkpt lat="37.686600724434115" lon="14.781843962389376"><ele>409.0</ele><time>2026-04-06T09:56:18.999Z</time></trkpt><trkpt lat="37.68668173191012" lon="14.781952997349567"><ele>409.0</ele><time>2026-04-06T09:56:19.999Z</time></trkpt><trkpt lat="37.68674666356052" lon="14.78205691027431"><ele>412.4</ele><time>2026-04-06T09:56:20.999Z</time></trkpt><trkpt lat="37.68679325263716" lon="14.782157144231961"><ele>415.79999999999995</ele><time>2026-04-06T09:56:21.999Z</time></trkpt><trkpt lat="37.686824979821225" lon="14.782280941154095"><ele>419.20000000000005</ele><time>2026-04-06T09:56:22.999Z</time></trkpt><trkpt lat="37.6868605263028" lon="14.782423710314394"><ele>422.6</ele><time>2026-04-06T09:56:24Z</time></trkpt><trkpt lat="37.68690452109113" lon="14.782576561156274"><ele>426.0</ele><time>2026-04-06T09:56:25Z</time></trkpt><trkpt lat="37.68692931346659" lon="14.782736820754643"><ele>426.0</ele><time>2026-04-06T09:56:26Z</time></trkpt><trkpt lat="37.68696501281106" lon="14.782886936968232"><ele>426.0</ele><time>2026-04-06T09:56:27Z</time></trkpt><trkpt lat="37.68700894976591" lon="14.783005987640925"><ele>426.0</ele><time>2026-04-06T09:56:28Z</time></trkpt><trkpt lat="37.68707806497162" lon="14.783106667303155"><ele>426.0</ele><time>2026-04-06T09:56:29Z</time></trkpt><trkpt lat="37.68716203084066" lon="14.783181823989837"><ele>426.0</ele><time>2026-04-06T09:56:30Z</time></trkpt><trkpt lat="37.68726275942562" lon="14.783243828619256"><ele>426.0</ele><time>2026-04-06T09:56:31Z</time></trkpt><trkpt lat="37.68738216234688" lon="14.783292139173584"><ele>426.0</ele><time>2026-04-06T09:56:32Z</time></trkpt><trkpt lat="37.687510732500336" lon="14.783351194387702"><ele>426.0</ele><time>2026-04-06T09:56:33Z</time></trkpt><trkpt lat="37.687642468604636" lon="14.783413456810196"><ele>426.0</ele><time>2026-04-06T09:56:34Z</time></trkpt><trkpt lat="37.68777628261808" lon="14.783478798716176"><ele>428.0</ele><time>2026-04-06T09:56:35Z</time></trkpt><trkpt lat="37.68789785487387" lon="14.783565040743069"><ele>430.0</ele><time>2026-04-06T09:56:36Z</time></trkpt><trkpt lat="37.68800819862162" lon="14.783630987948694"><ele>432.0</ele><time>2026-04-06T09:56:37Z</time></trkpt><trkpt lat="37.688107203668494" lon="14.783693915311176"><ele>434.0</ele><time>2026-04-06T09:56:38Z</time></trkpt><trkpt lat="37.68820851140116" lon="14.783767728337823"><ele>434.0</ele><time>2026-04-06T09:56:39Z</time></trkpt><trkpt lat="37.68831143708055" lon="14.78383417836601"><ele>434.0</ele><time>2026-04-06T09:56:40Z</time></trkpt><trkpt lat="37.6883874349514" lon="14.783920500947652"><ele>434.0</ele><time>2026-04-06T09:56:41Z</time></trkpt><trkpt lat="37.688431096402574" lon="14.784017162034027"><ele>434.0</ele><time>2026-04-06T09:56:42Z</time></trkpt><trkpt lat="37.68847169908359" lon="14.78409252862072"><ele>434.0</ele><time>2026-04-06T09:56:43Z</time></trkpt><trkpt lat="37.68851431457491" lon="14.784228237249676"><ele>433.99999999999994</ele><time>2026-04-06T09:56:45Z</time></trkpt><trkpt lat="37.68851703752498" lon="14.784311860416565"><ele>434.0</ele><time>2026-04-06T09:56:47Z</time></trkpt><trkpt lat="37.68852220970549" lon="14.784413229373417"><ele>434.0</ele><time>2026-04-06T09:56:49Z</time></trkpt><trkpt lat="37.68852199350144" lon="14.784496393989711"><ele>434.0</ele><time>2026-04-06T09:56:50Z</time></trkpt><trkpt lat="37.688534959481345" lon="14.784591684017743"><ele>433.99999999999994</ele><time>2026-04-06T09:56:51Z</time></trkpt><trkpt lat="37.68853041136404" lon="14.784704484420818"><ele>434.0</ele><time>2026-04-06T09:56:52Z</time></trkpt><trkpt lat="37.68852859070041" lon="14.784831791156698"><ele>434.4</ele><time>2026-04-06T09:56:53Z</time></trkpt><trkpt lat="37.68852498089443" lon="14.784966934348342"><ele>434.79999999999995</ele><time>2026-04-06T09:56:54Z</time></trkpt><trkpt lat="37.68851698375265" lon="14.785098455089784"><ele>435.20000000000005</ele><time>2026-04-06T09:56:55Z</time></trkpt><trkpt lat="37.688517423933774" lon="14.785236431671494"><ele>435.6</ele><time>2026-04-06T09:56:56Z</time></trkpt><trkpt lat="37.68851932065452" lon="14.785364402148895"><ele>436.0</ele><time>2026-04-06T09:56:57Z</time></trkpt><trkpt lat="37.688523919166215" lon="14.78547226007297"><ele>436.00000000000006</ele><time>2026-04-06T09:56:58Z</time></trkpt><trkpt lat="37.688541401306004" lon="14.785568305227445"><ele>436.0</ele><time>2026-04-06T09:56:59Z</time></trkpt><trkpt lat="37.68855442814789" lon="14.78567039233023"><ele>436.0</ele><time>2026-04-06T09:57:00Z</time></trkpt><trkpt lat="37.68858747884596" lon="14.785760539825414"><ele>436.0</ele><time>2026-04-06T09:57:01Z</time></trkpt><trkpt lat="37.68862190041929" lon="14.7858511978029"><ele>436.00000000000006</ele><time>2026-04-06T09:57:02Z</time></trkpt><trkpt lat="37.68865764953069" lon="14.785931766258729"><ele>436.0</ele><time>2026-04-06T09:57:03Z</time></trkpt><trkpt lat="37.688712646166294" lon="14.78604867461555"><ele>438.6666666666667</ele><time>2026-04-06T09:57:05Z</time></trkpt><trkpt lat="37.688846700949334" lon="14.786028410266493"><ele>441.33333333333337</ele><time>2026-04-06T09:57:09Z</time></trkpt><trkpt lat="37.688859380538844" lon="14.785939259602262"><ele>444.0</ele><time>2026-04-06T09:57:10Z</time></trkpt><trkpt lat="37.688865558666" lon="14.785846348594992"><ele>446.66666666666663</ele><time>2026-04-06T09:57:11Z</time></trkpt><trkpt lat="37.68887814771958" lon="14.785754781529143"><ele>449.3333333333333</ele><time>2026-04-06T09:57:12Z</time></trkpt><trkpt lat="37.68889369986299" lon="14.785649633386571"><ele>452.0</ele><time>2026-04-06T09:57:13Z</time></trkpt><trkpt lat="37.68891181882721" lon="14.785533654446033"><ele>452.0</ele><time>2026-04-06T09:57:14Z</time></trkpt><trkpt lat="37.688932144409456" lon="14.78542132126567"><ele>452.00000000000006</ele><time>2026-04-06T09:57:15Z</time></trkpt><trkpt lat="37.68895844431224" lon="14.785309981386861"><ele>452.00000000000006</ele><time>2026-04-06T09:57:16Z</time></trkpt><trkpt lat="37.68896796814952" lon="14.785228790519524"><ele>452.0</ele><time>2026-04-06T09:57:17Z</time></trkpt><trkpt lat="37.68907771612555" lon="14.785142734376965"><ele>452.0</ele><time>2026-04-06T09:57:19Z</time></trkpt><trkpt lat="37.68917333696696" lon="14.785185974135318"><ele>453.0</ele><time>2026-04-06T09:57:21Z</time></trkpt><trkpt lat="37.68924968464031" lon="14.785275266582271"><ele>454.0</ele><time>2026-04-06T09:57:23Z</time></trkpt><trkpt lat="37.68931989268989" lon="14.785358857288358"><ele>455.0</ele><time>2026-04-06T09:57:24Z</time></trkpt><trkpt lat="37.68941081586867" lon="14.785466261165361"><ele>456.0</ele><time>2026-04-06T09:57:25Z</time></trkpt><trkpt lat="37.689510366239034" lon="14.785581365510923"><ele>458.0</ele><time>2026-04-06T09:57:26Z</time></trkpt><trkpt lat="37.68959069146544" lon="14.785673412161028"><ele>460.0</ele><time>2026-04-06T09:57:27Z</time></trkpt><trkpt lat="37.689667220874036" lon="14.78576105960402"><ele>462.0</ele><time>2026-04-06T09:57:27.999Z</time></trkpt><trkpt lat="37.6897452901593" lon="14.78585538793472"><ele>464.0</ele><time>2026-04-06T09:57:28.999Z</time></trkpt><trkpt lat="37.689843665909024" lon="14.785969651335476"><ele>465.5</ele><time>2026-04-06T09:57:29.999Z</time></trkpt><trkpt lat="37.689930438181605" lon="14.786064302499147"><ele>467.0</ele><time>2026-04-06T09:57:30.999Z</time></trkpt><trkpt lat="37.69001747231266" lon="14.786157476522586"><ele>468.5</ele><time>2026-04-06T09:57:31.999Z</time></trkpt><trkpt lat="37.69011188534365" lon="14.78625776901577"><ele>470.0</ele><time>2026-04-06T09:57:32.999Z</time></trkpt><trkpt lat="37.6902010005232" lon="14.786351470477612"><ele>472.0</ele><time>2026-04-06T09:57:33.999Z</time></trkpt><trkpt lat="37.69029451425481" lon="14.786449797917497"><ele>474.0</ele><time>2026-04-06T09:57:34.999Z</time></trkpt><trkpt lat="37.6903872017859" lon="14.786546742533673"><ele>476.0</ele><time>2026-04-06T09:57:35.999Z</time></trkpt><trkpt lat="37.6904862233392" lon="14.786650060929505"><ele>478.0</ele><time>2026-04-06T09:57:36.999Z</time></trkpt><trkpt lat="37.69058582563282" lon="14.786754233270097"><ele>479.0</ele><time>2026-04-06T09:57:37.999Z</time></trkpt><trkpt lat="37.69068667583357" lon="14.786864481960395"><ele>480.0</ele><time>2026-04-06T09:57:38.999Z</time></trkpt><trkpt lat="37.690781461347164" lon="14.786977505896978"><ele>481.0</ele><time>2026-04-06T09:57:39.999Z</time></trkpt><trkpt lat="37.69085450184821" lon="14.787071158175214"><ele>482.0</ele><time>2026-04-06T09:57:40.999Z</time></trkpt><trkpt lat="37.69092515580449" lon="14.787167531915571"><ele>482.0</ele><time>2026-04-06T09:57:41.999Z</time></trkpt><trkpt lat="37.69101250321514" lon="14.787249603864542"><ele>482.00000000000006</ele><time>2026-04-06T09:57:42.999Z</time></trkpt><trkpt lat="37.6910951976545" lon="14.787320218933946"><ele>482.00000000000006</ele><time>2026-04-06T09:57:43.999Z</time></trkpt><trkpt lat="37.691173989711956" lon="14.787355870785618"><ele>482.0</ele><time>2026-04-06T09:57:44.999Z</time></trkpt><trkpt lat="37.691260845193334" lon="14.787359632327977"><ele>482.0</ele><time>2026-04-06T09:57:45.999Z</time></trkpt><trkpt lat="37.691344803516934" lon="14.78735705901866"><ele>484.5</ele><time>2026-04-06T09:57:46.999Z</time></trkpt><trkpt lat="37.69144824517339" lon="14.78734891362421"><ele>487.0</ele><time>2026-04-06T09:57:47.999Z</time></trkpt><trkpt lat="37.69155414858196" lon="14.787339409471905"><ele>489.5</ele><time>2026-04-06T09:57:48.999Z</time></trkpt><trkpt lat="37.69167012042602" lon="14.78732273288802"><ele>492.0</ele><time>2026-04-06T09:57:49.999Z</time></trkpt><trkpt lat="37.691784762608904" lon="14.7872639839509"><ele>492.0</ele><time>2026-04-06T09:57:50.999Z</time></trkpt><trkpt lat="37.69190191422855" lon="14.787213351067708"><ele>492.0</ele><time>2026-04-06T09:57:51.999Z</time></trkpt><trkpt lat="37.69201757261677" lon="14.787152095384247"><ele>492.0</ele><time>2026-04-06T09:57:52.999Z</time></trkpt><trkpt lat="37.692136279217365" lon="14.787082059946792"><ele>492.0</ele><time>2026-04-06T09:57:53.999Z</time></trkpt><trkpt lat="37.69224810582727" lon="14.787027464241007"><ele>494.40000000000003</ele><time>2026-04-06T09:57:54.999Z</time></trkpt><trkpt lat="37.69233421686993" lon="14.786975048033884"><ele>496.80000000000007</ele><time>2026-04-06T09:57:55.999Z</time></trkpt><trkpt lat="37.69240772033141" lon="14.786933273277427"><ele>499.2</ele><time>2026-04-06T09:57:56.999Z</time></trkpt><trkpt lat="37.692498353953404" lon="14.786883576396384"><ele>501.6</ele><time>2026-04-06T09:57:57.999Z</time></trkpt><trkpt lat="37.69259953626685" lon="14.786817405858976"><ele>504.0</ele><time>2026-04-06T09:57:58.999Z</time></trkpt><trkpt lat="37.69269208363465" lon="14.786733526678963"><ele>506.1666666666667</ele><time>2026-04-06T09:57:59.999Z</time></trkpt><trkpt lat="37.69278342774458" lon="14.786669687468583"><ele>508.33333333333337</ele><time>2026-04-06T09:58:00.999Z</time></trkpt><trkpt lat="37.692859126082574" lon="14.786607532210553"><ele>510.5</ele><time>2026-04-06T09:58:01.999Z</time></trkpt><trkpt lat="37.692926269458304" lon="14.786566236071753"><ele>512.6666666666667</ele><time>2026-04-06T09:58:02.999Z</time></trkpt><trkpt lat="37.69299342241561" lon="14.786541544224853"><ele>514.8333333333334</ele><time>2026-04-06T09:58:03.999Z</time></trkpt><trkpt lat="37.69306675209636" lon="14.786529121250476"><ele>517.0</ele><time>2026-04-06T09:58:04.999Z</time></trkpt><trkpt lat="37.69312825943798" lon="14.786593439285951"><ele>517.0</ele><time>2026-04-06T09:58:06.999Z</time></trkpt><trkpt lat="37.69320083994091" lon="14.786670974193209"><ele>517.0</ele><time>2026-04-06T09:58:08.999Z</time></trkpt><trkpt lat="37.693233440989495" lon="14.786816669388948"><ele>517.0</ele><time>2026-04-06T09:58:10.999Z</time></trkpt><trkpt lat="37.69324845980052" lon="14.786919903076608"><ele>517.0</ele><time>2026-04-06T09:58:11.999Z</time></trkpt><trkpt lat="37.693266724373345" lon="14.787042635142036"><ele>517.0</ele><time>2026-04-06T09:58:12.999Z</time></trkpt><trkpt lat="37.69327687539745" lon="14.787135609827631"><ele>518.6666666666667</ele><time>2026-04-06T09:58:13.999Z</time></trkpt><trkpt lat="37.69328719081529" lon="14.78722497878735"><ele>520.3333333333334</ele><time>2026-04-06T09:58:14.999Z</time></trkpt><trkpt lat="37.69329618579051" lon="14.787339238193393"><ele>522.0</ele><time>2026-04-06T09:58:15.999Z</time></trkpt><trkpt lat="37.693307208532765" lon="14.787441679967275"><ele>523.6666666666666</ele><time>2026-04-06T09:58:16.999Z</time></trkpt><trkpt lat="37.693350325794434" lon="14.787513513062025"><ele>525.3333333333333</ele><time>2026-04-06T09:58:17.999Z</time></trkpt><trkpt lat="37.69342260819656" lon="14.787560923201925"><ele>527.0</ele><time>2026-04-06T09:58:18.999Z</time></trkpt><trkpt lat="37.69349632929345" lon="14.787617232578803"><ele>527.0</ele><time>2026-04-06T09:58:19.999Z</time></trkpt><trkpt lat="37.69357455340685" lon="14.78766417119034"><ele>527.0</ele><time>2026-04-06T09:58:20.999Z</time></trkpt><trkpt lat="37.69366737089074" lon="14.787699409752246"><ele>527.0</ele><time>2026-04-06T09:58:21.999Z</time></trkpt><trkpt lat="37.693770680207635" lon="14.787734252773893"><ele>527.0</ele><time>2026-04-06T09:58:22.999Z</time></trkpt><trkpt lat="37.69386755128854" lon="14.787780595778068"><ele>527.0</ele><time>2026-04-06T09:58:23.999Z</time></trkpt><trkpt lat="37.69394252852718" lon="14.787834918118199"><ele>528.5</ele><time>2026-04-06T09:58:24.999Z</time></trkpt><trkpt lat="37.69401044728524" lon="14.787876216637294"><ele>530.0</ele><time>2026-04-06T09:58:25.999Z</time></trkpt><trkpt lat="37.69409136316944" lon="14.787900797563541"><ele>531.5</ele><time>2026-04-06T09:58:26.999Z</time></trkpt><trkpt lat="37.694170849569154" lon="14.787950297083677"><ele>533.0</ele><time>2026-04-06T09:58:27.999Z</time></trkpt><trkpt lat="37.694249553697425" lon="14.787999241997328"><ele>534.5</ele><time>2026-04-06T09:58:28.999Z</time></trkpt><trkpt lat="37.69431708160023" lon="14.788040988548726"><ele>536.0</ele><time>2026-04-06T09:58:30Z</time></trkpt><trkpt lat="37.694386871624246" lon="14.78804291551789"><ele>537.2</ele><time>2026-04-06T09:58:31Z</time></trkpt><trkpt lat="37.69446987510543" lon="14.788026002525786"><ele>538.4000000000001</ele><time>2026-04-06T09:58:32Z</time></trkpt><trkpt lat="37.694557225922594" lon="14.788053641328345"><ele>539.6</ele><time>2026-04-06T09:58:33Z</time></trkpt><trkpt lat="37.69464811712359" lon="14.78812741594335"><ele>540.8000000000001</ele><time>2026-04-06T09:58:34Z</time></trkpt><trkpt lat="37.69472399709169" lon="14.78820952534327"><ele>542.0</ele><time>2026-04-06T09:58:35Z</time></trkpt><trkpt lat="37.694783413535454" lon="14.788261432750192"><ele>542.0</ele><time>2026-04-06T09:58:36Z</time></trkpt><trkpt lat="37.69488299372693" lon="14.78817807886579"><ele>542.0</ele><time>2026-04-06T09:58:38Z</time></trkpt><trkpt lat="37.694913065306665" lon="14.788073502147821"><ele>542.0</ele><time>2026-04-06T09:58:39Z</time></trkpt><trkpt lat="37.6949490433369" lon="14.787962759461873"><ele>542.0</ele><time>2026-04-06T09:58:40Z</time></trkpt><trkpt lat="37.69499165788574" lon="14.787872365090209"><ele>542.0</ele><time>2026-04-06T09:58:41Z</time></trkpt><trkpt lat="37.69505133218698" lon="14.787809020296312"><ele>542.0</ele><time>2026-04-06T09:58:42Z</time></trkpt><trkpt lat="37.69513552130394" lon="14.78776431726078"><ele>542.0</ele><time>2026-04-06T09:58:43Z</time></trkpt><trkpt lat="37.69522084561052" lon="14.787700210628335"><ele>542.0</ele><time>2026-04-06T09:58:44Z</time></trkpt><trkpt lat="37.695289050534996" lon="14.787649401264476"><ele>542.0</ele><time>2026-04-06T09:58:45Z</time></trkpt><trkpt lat="37.695444607230804" lon="14.787679501705044"><ele>542.0</ele><time>2026-04-06T09:58:47Z</time></trkpt><trkpt lat="37.695526987309805" lon="14.787693456768375"><ele>543.0</ele><time>2026-04-06T09:58:48Z</time></trkpt><trkpt lat="37.69563160712303" lon="14.78767188489547"><ele>544.0</ele><time>2026-04-06T09:58:49Z</time></trkpt><trkpt lat="37.695749578222255" lon="14.78767306708044"><ele>545.0</ele><time>2026-04-06T09:58:50Z</time></trkpt><trkpt lat="37.695839638507586" lon="14.787680602710962"><ele>546.0</ele><time>2026-04-06T09:58:51Z</time></trkpt><trkpt lat="37.69591789209551" lon="14.787708549101117"><ele>547.0</ele><time>2026-04-06T09:58:52Z</time></trkpt><trkpt lat="37.69600757966959" lon="14.787737730431564"><ele>549.8000000000001</ele><time>2026-04-06T09:58:53Z</time></trkpt><trkpt lat="37.696099822119216" lon="14.787767743082828"><ele>552.6</ele><time>2026-04-06T09:58:54Z</time></trkpt><trkpt lat="37.69619378242336" lon="14.787799126552306"><ele>555.4000000000001</ele><time>2026-04-06T09:58:55Z</time></trkpt><trkpt lat="37.696301659362156" lon="14.787840265174575"><ele>558.2</ele><time>2026-04-06T09:58:56Z</time></trkpt><trkpt lat="37.69640352009101" lon="14.787890290002585"><ele>561.0</ele><time>2026-04-06T09:58:57Z</time></trkpt><trkpt lat="37.69650076782884" lon="14.787942190185285"><ele>561.0</ele><time>2026-04-06T09:58:58Z</time></trkpt><trkpt lat="37.6965879635758" lon="14.787997506437817"><ele>561.0</ele><time>2026-04-06T09:58:59Z</time></trkpt><trkpt lat="37.6966598456845" lon="14.788037662847302"><ele>561.0</ele><time>2026-04-06T09:59:00Z</time></trkpt><trkpt lat="37.69674928593617" lon="14.788036634815116"><ele>561.0</ele><time>2026-04-06T09:59:01Z</time></trkpt><trkpt lat="37.69681905206582" lon="14.788031376251075"><ele>561.0</ele><time>2026-04-06T09:59:02Z</time></trkpt><trkpt lat="37.69689876109108" lon="14.78800614950011"><ele>561.0</ele><time>2026-04-06T09:59:03Z</time></trkpt><trkpt lat="37.69698529007929" lon="14.787988075564723"><ele>562.4</ele><time>2026-04-06T09:59:04Z</time></trkpt><trkpt lat="37.69707146272207" lon="14.787974196737517"><ele>563.8</ele><time>2026-04-06T09:59:05Z</time></trkpt><trkpt lat="37.69717178705758" lon="14.787969458698072"><ele>565.1999999999999</ele><time>2026-04-06T09:59:06Z</time></trkpt><trkpt lat="37.69727280583358" lon="14.787976310304675"><ele>566.6</ele><time>2026-04-06T09:59:07Z</time></trkpt><trkpt lat="37.697361406605914" lon="14.787999291762132"><ele>568.0</ele><time>2026-04-06T09:59:08Z</time></trkpt><trkpt lat="37.69743148732269" lon="14.78801472391601"><ele>568.0</ele><time>2026-04-06T09:59:09Z</time></trkpt><trkpt lat="37.69751308073155" lon="14.787956341907178"><ele>568.0</ele><time>2026-04-06T09:59:11Z</time></trkpt><trkpt lat="37.69755796810771" lon="14.787888077807713"><ele>568.0</ele><time>2026-04-06T09:59:12Z</time></trkpt><trkpt lat="37.697630997615555" lon="14.787779353890713"><ele>568.0</ele><time>2026-04-06T09:59:14Z</time></trkpt><trkpt lat="37.697685902915325" lon="14.78768925796346"><ele>568.0</ele><time>2026-04-06T09:59:18.999Z</time></trkpt><trkpt lat="37.69773211740071" lon="14.78759726221052"><ele>568.6666666666667</ele><time>2026-04-06T09:59:20.999Z</time></trkpt><trkpt lat="37.697786754127044" lon="14.787515280532487"><ele>569.3333333333334</ele><time>2026-04-06T09:59:22.999Z</time></trkpt><trkpt lat="37.6978373079537" lon="14.787439463194767"><ele>570.0</ele><time>2026-04-06T09:59:24.999Z</time></trkpt><trkpt lat="37.69789086671177" lon="14.787364795056796"><ele>570.6666666666666</ele><time>2026-04-06T09:59:26.999Z</time></trkpt><trkpt lat="37.697947440812776" lon="14.78729363748295"><ele>571.3333333333333</ele><time>2026-04-06T09:59:28.999Z</time></trkpt><trkpt lat="37.69800494101986" lon="14.787232584730416"><ele>572.0</ele><time>2026-04-06T09:59:30.999Z</time></trkpt><trkpt lat="37.69806739386952" lon="14.787154656120626"><ele>572.0</ele><time>2026-04-06T09:59:32.999Z</time></trkpt><trkpt lat="37.69815078277442" lon="14.787065216663189"><ele>572.0</ele><time>2026-04-06T09:59:34.999Z</time></trkpt><trkpt lat="37.69824405100533" lon="14.786966590265765"><ele>572.0</ele><time>2026-04-06T09:59:36.999Z</time></trkpt><trkpt lat="37.698349025974345" lon="14.786965668084084"><ele>572.0</ele><time>2026-04-06T09:59:38.999Z</time></trkpt><trkpt lat="37.69846786586235" lon="14.78692145930098"><ele>573.8000000000001</ele><time>2026-04-06T09:59:40.999Z</time></trkpt><trkpt lat="37.698524202784775" lon="14.78679605692723"><ele>575.6</ele><time>2026-04-06T09:59:42.999Z</time></trkpt><trkpt lat="37.69852027786652" lon="14.786704103276024"><ele>577.4000000000001</ele><time>2026-04-06T09:59:43.999Z</time></trkpt><trkpt lat="37.698492605288344" lon="14.786583122714438"><ele>579.2</ele><time>2026-04-06T09:59:44.999Z</time></trkpt><trkpt lat="37.69847736218651" lon="14.786462596114669"><ele>581.0</ele><time>2026-04-06T09:59:45.999Z</time></trkpt><trkpt lat="37.69846765301996" lon="14.786350587114471"><ele>581.0</ele><time>2026-04-06T09:59:46.999Z</time></trkpt><trkpt lat="37.69849307931106" lon="14.786253227713507"><ele>581.0</ele><time>2026-04-06T09:59:47.999Z</time></trkpt><trkpt lat="37.698583159377925" lon="14.786170108110527"><ele>581.0</ele><time>2026-04-06T09:59:49.999Z</time></trkpt><trkpt lat="37.698654976421736" lon="14.78614195162649"><ele>581.0</ele><time>2026-04-06T09:59:50.999Z</time></trkpt><trkpt lat="37.69874869824311" lon="14.786142523491094"><ele>581.0</ele><time>2026-04-06T09:59:51.999Z</time></trkpt><trkpt lat="37.698835797670874" lon="14.786113845771299"><ele>581.6666666666666</ele><time>2026-04-06T09:59:52.999Z</time></trkpt><trkpt lat="37.698867227592686" lon="14.786030820490204"><ele>582.3333333333333</ele><time>2026-04-06T09:59:53.999Z</time></trkpt><trkpt lat="37.69889951251289" lon="14.785904834793046"><ele>583.0</ele><time>2026-04-06T09:59:54.999Z</time></trkpt><trkpt lat="37.698950099799994" lon="14.785799877239604"><ele>583.6666666666666</ele><time>2026-04-06T09:59:55.999Z</time></trkpt><trkpt lat="37.69898974632649" lon="14.785729691319561"><ele>584.3333333333334</ele><time>2026-04-06T09:59:56.999Z</time></trkpt><trkpt lat="37.69906838491411" lon="14.785735800766037"><ele>585.0</ele><time>2026-04-06T09:59:58.999Z</time></trkpt><trkpt lat="37.699147826253224" lon="14.785775217234663"><ele>587.1666666666666</ele><time>2026-04-06T10:00:00.999Z</time></trkpt><trkpt lat="37.699180734666534" lon="14.785851434085929"><ele>589.3333333333334</ele><time>2026-04-06T10:00:01.999Z</time></trkpt><trkpt lat="37.69924306513653" lon="14.785911080960753"><ele>591.5</ele><time>2026-04-06T10:00:02.999Z</time></trkpt><trkpt lat="37.69930476983396" lon="14.785956090426607"><ele>593.6666666666667</ele><time>2026-04-06T10:00:03.999Z</time></trkpt><trkpt lat="37.69942580395529" lon="14.785968752478425"><ele>595.8333333333334</ele><time>2026-04-06T10:00:05.999Z</time></trkpt><trkpt lat="37.69949789432855" lon="14.785961966827166"><ele>598.0</ele><time>2026-04-06T10:00:06.999Z</time></trkpt><trkpt lat="37.69957458983812" lon="14.785968014300614"><ele>597.8333333333334</ele><time>2026-04-06T10:00:07.999Z</time></trkpt><trkpt lat="37.69965179930522" lon="14.78598421173463"><ele>597.6666666666667</ele><time>2026-04-06T10:00:08.999Z</time></trkpt><trkpt lat="37.69972927243371" lon="14.785997000647043"><ele>597.5</ele><time>2026-04-06T10:00:09.999Z</time></trkpt><trkpt lat="37.69979739119944" lon="14.786006963614861"><ele>597.3333333333334</ele><time>2026-04-06T10:00:10.999Z</time></trkpt><trkpt lat="37.699845024229916" lon="14.78608062010492"><ele>597.1666666666666</ele><time>2026-04-06T10:00:11.999Z</time></trkpt><trkpt lat="37.69991151277374" lon="14.786110498244348"><ele>597.0</ele><time>2026-04-06T10:00:12.999Z</time></trkpt><trkpt lat="37.69998924641269" lon="14.78614822548288"><ele>597.0</ele><time>2026-04-06T10:00:13.999Z</time></trkpt><trkpt lat="37.70008969544335" lon="14.786174242301149"><ele>597.0</ele><time>2026-04-06T10:00:14.999Z</time></trkpt><trkpt lat="37.700168374794856" lon="14.78623005136544"><ele>597.0</ele><time>2026-04-06T10:00:15.999Z</time></trkpt><trkpt lat="37.70024508657862" lon="14.786235799643121"><ele>597.0</ele><time>2026-04-06T10:00:16.999Z</time></trkpt><trkpt lat="37.70031619710049" lon="14.786213054156274"><ele>597.0</ele><time>2026-04-06T10:00:17.999Z</time></trkpt><trkpt lat="37.70036705165502" lon="14.786137020380037"><ele>597.0</ele><time>2026-04-06T10:00:18.999Z</time></trkpt><trkpt lat="37.700427382997034" lon="14.78606481467054"><ele>600.6666666666666</ele><time>2026-04-06T10:00:19.999Z</time></trkpt><trkpt lat="37.70048314969472" lon="14.786009624936337"><ele>604.3333333333334</ele><time>2026-04-06T10:00:20.999Z</time></trkpt><trkpt lat="37.700551605651405" lon="14.785967983575741"><ele>608.0</ele><time>2026-04-06T10:00:21.999Z</time></trkpt><trkpt lat="37.700636591727665" lon="14.785932206998318"><ele>611.6666666666667</ele><time>2026-04-06T10:00:22.999Z</time></trkpt><trkpt lat="37.700709905987466" lon="14.785902695706946"><ele>615.3333333333334</ele><time>2026-04-06T10:00:23.999Z</time></trkpt><trkpt lat="37.70077215851959" lon="14.785861914038142"><ele>619.0</ele><time>2026-04-06T10:00:24.999Z</time></trkpt><trkpt lat="37.700836223372114" lon="14.78579033790209"><ele>619.0</ele><time>2026-04-06T10:00:25.999Z</time></trkpt><trkpt lat="37.70089044379719" lon="14.78571854957631"><ele>619.0</ele><time>2026-04-06T10:00:26.999Z</time></trkpt><trkpt lat="37.70093406530844" lon="14.785647774749936"><ele>619.0</ele><time>2026-04-06T10:00:27.999Z</time></trkpt><trkpt lat="37.70097374873225" lon="14.785579856688642"><ele>619.0</ele><time>2026-04-06T10:00:28.999Z</time></trkpt><trkpt lat="37.701017041172335" lon="14.78550576159131"><ele>619.0</ele><time>2026-04-06T10:00:29.999Z</time></trkpt><trkpt lat="37.7011760802514" lon="14.785534779949721"><ele>618.4</ele><time>2026-04-06T10:00:30.999Z</time></trkpt><trkpt lat="37.701236673020134" lon="14.785471846800567"><ele>617.8</ele><time>2026-04-06T10:00:31.999Z</time></trkpt><trkpt lat="37.70128141293268" lon="14.785353968417585"><ele>617.2</ele><time>2026-04-06T10:00:32.999Z</time></trkpt><trkpt lat="37.70135340358145" lon="14.78522822228779"><ele>616.6</ele><time>2026-04-06T10:00:33.999Z</time></trkpt><trkpt lat="37.70143901659146" lon="14.785126681279928"><ele>616.0</ele><time>2026-04-06T10:00:34.999Z</time></trkpt><trkpt lat="37.70151975288523" lon="14.785050842014382"><ele>619.4</ele><time>2026-04-06T10:00:36Z</time></trkpt><trkpt lat="37.70157661040229" lon="14.78498076646054"><ele>622.8</ele><time>2026-04-06T10:00:37Z</time></trkpt><trkpt lat="37.701629983319" lon="14.784870099474247"><ele>626.1999999999999</ele><time>2026-04-06T10:00:38Z</time></trkpt><trkpt lat="37.7016918879427" lon="14.784779101006427"><ele>629.6</ele><time>2026-04-06T10:00:39Z</time></trkpt><trkpt lat="37.70175804359798" lon="14.78468635873626"><ele>633.0</ele><time>2026-04-06T10:00:40Z</time></trkpt><trkpt lat="37.70175551757388" lon="14.784531140155833"><ele>633.0</ele><time>2026-04-06T10:00:42Z</time></trkpt><trkpt lat="37.70170132167331" lon="14.78441204498163"><ele>633.0</ele><time>2026-04-06T10:00:43Z</time></trkpt><trkpt lat="37.70165321811147" lon="14.784275525044121"><ele>633.0</ele><time>2026-04-06T10:00:44Z</time></trkpt><trkpt lat="37.7016014911777" lon="14.784089880226533"><ele>633.0</ele><time>2026-04-06T10:00:45Z</time></trkpt><trkpt lat="37.70155947973315" lon="14.783924607111505"><ele>635.0</ele><time>2026-04-06T10:00:46Z</time></trkpt><trkpt lat="37.70148667985533" lon="14.783804373694887"><ele>637.0</ele><time>2026-04-06T10:00:47Z</time></trkpt><trkpt lat="37.70143282046763" lon="14.783702245026092"><ele>639.0</ele><time>2026-04-06T10:00:48Z</time></trkpt><trkpt lat="37.7013991842028" lon="14.783592315580613"><ele>641.0</ele><time>2026-04-06T10:00:49Z</time></trkpt><trkpt lat="37.70136443474357" lon="14.783503194607755"><ele>643.0</ele><time>2026-04-06T10:00:50Z</time></trkpt><trkpt lat="37.70131087136092" lon="14.783429541312014"><ele>642.5999999999999</ele><time>2026-04-06T10:00:51Z</time></trkpt><trkpt lat="37.701232103884955" lon="14.783366025544044"><ele>642.1999999999999</ele><time>2026-04-06T10:00:52Z</time></trkpt><trkpt lat="37.70115197639392" lon="14.783298327741797"><ele>641.8</ele><time>2026-04-06T10:00:53Z</time></trkpt><trkpt lat="37.70106586481621" lon="14.783224997634973"><ele>641.4</ele><time>2026-04-06T10:00:54Z</time></trkpt><trkpt lat="37.700967618269345" lon="14.783156986037781"><ele>641.0</ele><time>2026-04-06T10:00:55Z</time></trkpt><trkpt lat="37.700876830218576" lon="14.783099326079538"><ele>641.0</ele><time>2026-04-06T10:00:56Z</time></trkpt><trkpt lat="37.70077296622544" lon="14.783018009181673"><ele>641.0</ele><time>2026-04-06T10:00:57Z</time></trkpt><trkpt lat="37.70067668347622" lon="14.782946053880032"><ele>641.0</ele><time>2026-04-06T10:00:58Z</time></trkpt><trkpt lat="37.70060124308276" lon="14.782881990446379"><ele>641.0</ele><time>2026-04-06T10:00:59Z</time></trkpt><trkpt lat="37.700524776300234" lon="14.782815262547635"><ele>641.0</ele><time>2026-04-06T10:01:00Z</time></trkpt><trkpt lat="37.700453602602444" lon="14.782755122804565"><ele>641.0</ele><time>2026-04-06T10:01:01Z</time></trkpt><trkpt lat="37.700388491458426" lon="14.782702871882465"><ele>641.0</ele><time>2026-04-06T10:01:02Z</time></trkpt><trkpt lat="37.70034584408616" lon="14.782574770382693"><ele>641.0</ele><time>2026-04-06T10:01:04Z</time></trkpt><trkpt lat="37.70034041687927" lon="14.782412074891775"><ele>641.0</ele><time>2026-04-06T10:01:06Z</time></trkpt><trkpt lat="37.70032708382738" lon="14.782324606595921"><ele>641.0</ele><time>2026-04-06T10:01:07Z</time></trkpt><trkpt lat="37.70031562427168" lon="14.782229669202092"><ele>643.6666666666666</ele><time>2026-04-06T10:01:08Z</time></trkpt><trkpt lat="37.70031091949574" lon="14.782131597555521"><ele>646.3333333333333</ele><time>2026-04-06T10:01:09Z</time></trkpt><trkpt lat="37.7003215027248" lon="14.782029447060399"><ele>649.0</ele><time>2026-04-06T10:01:10Z</time></trkpt><trkpt lat="37.70034428903415" lon="14.781914467513888"><ele>651.6666666666666</ele><time>2026-04-06T10:01:11Z</time></trkpt><trkpt lat="37.70033748058115" lon="14.781792606718867"><ele>654.3333333333334</ele><time>2026-04-06T10:01:12Z</time></trkpt><trkpt lat="37.7003297708811" lon="14.781694678173682"><ele>657.0</ele><time>2026-04-06T10:01:13Z</time></trkpt><trkpt lat="37.7003382295593" lon="14.781604315287014"><ele>657.2</ele><time>2026-04-06T10:01:14Z</time></trkpt><trkpt lat="37.70041511075336" lon="14.781442490374005"><ele>657.4000000000001</ele><time>2026-04-06T10:01:16Z</time></trkpt><trkpt lat="37.700480615465366" lon="14.78140308630342"><ele>657.5999999999999</ele><time>2026-04-06T10:01:17Z</time></trkpt><trkpt lat="37.7005398349968" lon="14.781338759458874"><ele>657.8</ele><time>2026-04-06T10:01:18Z</time></trkpt><trkpt lat="37.70061043987483" lon="14.781243713060027"><ele>658.0</ele><time>2026-04-06T10:01:19Z</time></trkpt><trkpt lat="37.7006982430489" lon="14.781198673107047"><ele>658.0</ele><time>2026-04-06T10:01:20Z</time></trkpt><trkpt lat="37.70079188537792" lon="14.781135263195903"><ele>658.0</ele><time>2026-04-06T10:01:21Z</time></trkpt><trkpt lat="37.70087526380185" lon="14.78107175453137"><ele>658.0</ele><time>2026-04-06T10:01:22Z</time></trkpt><trkpt lat="37.70093637337561" lon="14.781033979864613"><ele>658.0</ele><time>2026-04-06T10:01:23Z</time></trkpt><trkpt lat="37.700998182094715" lon="14.780989349408102"><ele>658.0</ele><time>2026-04-06T10:01:24Z</time></trkpt><trkpt lat="37.70108839735621" lon="14.780925978824602"><ele>658.0</ele><time>2026-04-06T10:01:25Z</time></trkpt><trkpt lat="37.70115291470821" lon="14.780907370447622"><ele>661.3333333333334</ele><time>2026-04-06T10:01:26Z</time></trkpt><trkpt lat="37.701230195237095" lon="14.78096668301713"><ele>664.6666666666667</ele><time>2026-04-06T10:01:29Z</time></trkpt><trkpt lat="37.701264338500124" lon="14.781045506499991"><ele>668.0</ele><time>2026-04-06T10:01:31Z</time></trkpt><trkpt lat="37.70122918284918" lon="14.781136969772891"><ele>671.3333333333334</ele><time>2026-04-06T10:01:34Z</time></trkpt><trkpt lat="37.701253875345614" lon="14.781218160902547"><ele>674.6666666666666</ele><time>2026-04-06T10:01:37Z</time></trkpt><trkpt lat="37.70137206805172" lon="14.781237733402927"><ele>678.0</ele><time>2026-04-06T10:01:39Z</time></trkpt><trkpt lat="37.70148775583435" lon="14.781272424748495"><ele>678.3333333333334</ele><time>2026-04-06T10:01:41Z</time></trkpt><trkpt lat="37.70157489161964" lon="14.781290449940592"><ele>678.6666666666666</ele><time>2026-04-06T10:01:42Z</time></trkpt><trkpt lat="37.70164077400907" lon="14.781297640536467"><ele>679.0</ele><time>2026-04-06T10:01:43Z</time></trkpt><trkpt lat="37.70172077179933" lon="14.781316152771561"><ele>679.3333333333333</ele><time>2026-04-06T10:01:43.999Z</time></trkpt><trkpt lat="37.701813711072965" lon="14.781350080191551"><ele>679.6666666666666</ele><time>2026-04-06T10:01:44.999Z</time></trkpt><trkpt lat="37.70189684414866" lon="14.781365196929869"><ele>680.0</ele><time>2026-04-06T10:01:45.999Z</time></trkpt><trkpt lat="37.70199408177381" lon="14.781380248481348"><ele>684.8</ele><time>2026-04-06T10:01:46.999Z</time></trkpt><trkpt lat="37.70208584030967" lon="14.781370707258551"><ele>689.6</ele><time>2026-04-06T10:01:47.999Z</time></trkpt><trkpt lat="37.70217748266536" lon="14.781338449964016"><ele>694.4000000000001</ele><time>2026-04-06T10:01:48.999Z</time></trkpt><trkpt lat="37.70228495598838" lon="14.781332529873476"><ele>699.2</ele><time>2026-04-06T10:01:49.999Z</time></trkpt><trkpt lat="37.702370765894514" lon="14.781361017401908"><ele>704.0</ele><time>2026-04-06T10:01:50.999Z</time></trkpt><trkpt lat="37.70244306076154" lon="14.781371655598111"><ele>704.0</ele><time>2026-04-06T10:01:51.999Z</time></trkpt><trkpt lat="37.702522413482434" lon="14.781337035755493"><ele>704.0</ele><time>2026-04-06T10:01:52.999Z</time></trkpt><trkpt lat="37.70260168714013" lon="14.78126961619814"><ele>704.0</ele><time>2026-04-06T10:01:53.999Z</time></trkpt><trkpt lat="37.70265483644521" lon="14.78118832662705"><ele>704.0</ele><time>2026-04-06T10:01:54.999Z</time></trkpt><trkpt lat="37.702696003577664" lon="14.781106771288622"><ele>704.0</ele><time>2026-04-06T10:01:55.999Z</time></trkpt><trkpt lat="37.70275446685254" lon="14.781016915237588"><ele>704.0</ele><time>2026-04-06T10:01:57.999Z</time></trkpt><trkpt lat="37.70281012982243" lon="14.78107999947744"><ele>706.4000000000001</ele><time>2026-04-06T10:01:59.999Z</time></trkpt><trkpt lat="37.70286547632967" lon="14.7811376699947"><ele>708.8</ele><time>2026-04-06T10:02:00.999Z</time></trkpt><trkpt lat="37.70293994191216" lon="14.78118876078873"><ele>711.2</ele><time>2026-04-06T10:02:01.999Z</time></trkpt><trkpt lat="37.70302519750738" lon="14.781233490801318"><ele>713.5999999999999</ele><time>2026-04-06T10:02:02.999Z</time></trkpt><trkpt lat="37.703128536679785" lon="14.781282599156965"><ele>716.0</ele><time>2026-04-06T10:02:03.999Z</time></trkpt><trkpt lat="37.70322283059433" lon="14.781333715927001"><ele>716.0</ele><time>2026-04-06T10:02:04.999Z</time></trkpt><trkpt lat="37.703314170743376" lon="14.78139069267116"><ele>716.0</ele><time>2026-04-06T10:02:05.999Z</time></trkpt><trkpt lat="37.70339807208397" lon="14.781444672007263"><ele>716.0</ele><time>2026-04-06T10:02:06.999Z</time></trkpt><trkpt lat="37.703472241958096" lon="14.781496551321311"><ele>716.0</ele><time>2026-04-06T10:02:07.999Z</time></trkpt><trkpt lat="37.70354482733328" lon="14.781537504471162"><ele>716.0</ele><time>2026-04-06T10:02:08.999Z</time></trkpt><trkpt lat="37.703611197311375" lon="14.781567257296432"><ele>716.0</ele><time>2026-04-06T10:02:09.999Z</time></trkpt><trkpt lat="37.70368351437231" lon="14.781603038747354"><ele>716.0</ele><time>2026-04-06T10:02:10.999Z</time></trkpt><trkpt lat="37.70375734654327" lon="14.781644365919613"><ele>716.0</ele><time>2026-04-06T10:02:11.999Z</time></trkpt><trkpt lat="37.70384115208419" lon="14.78169731801037"><ele>716.0</ele><time>2026-04-06T10:02:12.999Z</time></trkpt><trkpt lat="37.70392739819187" lon="14.781742038669819"><ele>716.0</ele><time>2026-04-06T10:02:13.999Z</time></trkpt><trkpt lat="37.704004831647715" lon="14.781767712075808"><ele>716.0</ele><time>2026-04-06T10:02:14.999Z</time></trkpt><trkpt lat="37.70407148124387" lon="14.781773239067586"><ele>716.0</ele><time>2026-04-06T10:02:15.999Z</time></trkpt><trkpt lat="37.70416193101509" lon="14.781739151568528"><ele>716.0</ele><time>2026-04-06T10:02:17.999Z</time></trkpt><trkpt lat="37.70427293892739" lon="14.781753649307186"><ele>716.0</ele><time>2026-04-06T10:04:09.999Z</time></trkpt><trkpt lat="37.704358394894086" lon="14.781768691382627"><ele>716.0</ele><time>2026-04-06T10:04:10.999Z</time></trkpt><trkpt lat="37.70448056158399" lon="14.781770959147737"><ele>716.0</ele><time>2026-04-06T10:04:11.999Z</time></trkpt><trkpt lat="37.70461065763724" lon="14.781781051677306"><ele>716.0</ele><time>2026-04-06T10:04:12.999Z</time></trkpt><trkpt lat="37.70477515386677" lon="14.78178625180357"><ele>716.0</ele><time>2026-04-06T10:04:13.999Z</time></trkpt><trkpt lat="37.70487504042017" lon="14.781814004759061"><ele>716.0</ele><time>2026-04-06T10:04:14.999Z</time></trkpt><trkpt lat="37.70496649922833" lon="14.781840326586938"><ele>716.0</ele><time>2026-04-06T10:04:15.999Z</time></trkpt><trkpt lat="37.70506234827996" lon="14.781871659748758"><ele>716.8</ele><time>2026-04-06T10:04:16.999Z</time></trkpt><trkpt lat="37.705159864158986" lon="14.781898462991117"><ele>717.5999999999999</ele><time>2026-04-06T10:04:17.999Z</time></trkpt><trkpt lat="37.70526153263853" lon="14.78193173632363"><ele>718.4</ele><time>2026-04-06T10:04:18.999Z</time></trkpt><trkpt lat="37.705372875570106" lon="14.781979672515687"><ele>719.2</ele><time>2026-04-06T10:04:19.999Z</time></trkpt><trkpt lat="37.70547515250305" lon="14.782030121613465"><ele>720.0</ele><time>2026-04-06T10:04:20.999Z</time></trkpt><trkpt lat="37.7055813475094" lon="14.78207197295874"><ele>720.0</ele><time>2026-04-06T10:04:21.999Z</time></trkpt><trkpt lat="37.70567856989836" lon="14.782128919446578"><ele>720.0</ele><time>2026-04-06T10:04:22.999Z</time></trkpt><trkpt lat="37.7057908915421" lon="14.782176389493799"><ele>720.0</ele><time>2026-04-06T10:04:23.999Z</time></trkpt><trkpt lat="37.70587328827846" lon="14.78224141351051"><ele>720.0</ele><time>2026-04-06T10:04:24.999Z</time></trkpt><trkpt lat="37.70596549545642" lon="14.782316950290438"><ele>720.0</ele><time>2026-04-06T10:04:25.999Z</time></trkpt><trkpt lat="37.70606073048116" lon="14.782382216664404"><ele>723.25</ele><time>2026-04-06T10:04:26.999Z</time></trkpt><trkpt lat="37.70616625001854" lon="14.782451735870179"><ele>726.5</ele><time>2026-04-06T10:04:27.999Z</time></trkpt><trkpt lat="37.706269891497755" lon="14.782534677878537"><ele>729.75</ele><time>2026-04-06T10:04:28.999Z</time></trkpt><trkpt lat="37.7063616257874" lon="14.782606297312752"><ele>733.0</ele><time>2026-04-06T10:04:29.999Z</time></trkpt><trkpt lat="37.70646201145721" lon="14.78266344275745"><ele>731.0</ele><time>2026-04-06T10:04:30.999Z</time></trkpt><trkpt lat="37.706590804727824" lon="14.782701489530977"><ele>729.0</ele><time>2026-04-06T10:04:31.999Z</time></trkpt><trkpt lat="37.70670438637103" lon="14.782729676074064"><ele>727.0</ele><time>2026-04-06T10:04:32.999Z</time></trkpt><trkpt lat="37.70679812332929" lon="14.78277790532515"><ele>725.0</ele><time>2026-04-06T10:04:33.999Z</time></trkpt><trkpt lat="37.70688212450517" lon="14.782803276066224"><ele>723.0</ele><time>2026-04-06T10:04:34.999Z</time></trkpt><trkpt lat="37.70697630772021" lon="14.782789470421235"><ele>723.0</ele><time>2026-04-06T10:04:35.999Z</time></trkpt><trkpt lat="37.7070510703871" lon="14.782747691583388"><ele>723.0</ele><time>2026-04-06T10:04:36.999Z</time></trkpt><trkpt lat="37.707123553434414" lon="14.782718582676285"><ele>723.0</ele><time>2026-04-06T10:04:37.999Z</time></trkpt><trkpt lat="37.70719421189462" lon="14.78272667087029"><ele>723.0</ele><time>2026-04-06T10:04:38.999Z</time></trkpt><trkpt lat="37.7072748705923" lon="14.782730257445692"><ele>723.0</ele><time>2026-04-06T10:04:39.999Z</time></trkpt><trkpt lat="37.70740890015622" lon="14.782691468893889"><ele>723.0</ele><time>2026-04-06T10:04:41.999Z</time></trkpt><trkpt lat="37.70748812514976" lon="14.7826626193012"><ele>724.6666666666666</ele><time>2026-04-06T10:04:42.999Z</time></trkpt><trkpt lat="37.70754706819284" lon="14.782581990037723"><ele>726.3333333333334</ele><time>2026-04-06T10:04:43.999Z</time></trkpt><trkpt lat="37.70758898467711" lon="14.782508372425363"><ele>728.0</ele><time>2026-04-06T10:04:44.999Z</time></trkpt><trkpt lat="37.70766588319886" lon="14.782429820276993"><ele>729.6666666666667</ele><time>2026-04-06T10:04:46.999Z</time></trkpt><trkpt lat="37.70774486515033" lon="14.782433236643438"><ele>731.3333333333334</ele><time>2026-04-06T10:04:48Z</time></trkpt><trkpt lat="37.70781972635875" lon="14.782426451014429"><ele>733.0</ele><time>2026-04-06T10:04:49Z</time></trkpt><trkpt lat="37.707933583082344" lon="14.782381384711355"><ele>729.0</ele><time>2026-04-06T10:04:51Z</time></trkpt><trkpt lat="37.70799204855414" lon="14.782318817962135"><ele>725.0</ele><time>2026-04-06T10:04:52Z</time></trkpt><trkpt lat="37.70805291376479" lon="14.782265761067464"><ele>721.0</ele><time>2026-04-06T10:04:53Z</time></trkpt><trkpt lat="37.70813201484364" lon="14.782222654118263"><ele>717.0</ele><time>2026-04-06T10:04:54Z</time></trkpt><trkpt lat="37.70821664052989" lon="14.782161517196293"><ele>713.0</ele><time>2026-04-06T10:04:55Z</time></trkpt><trkpt lat="37.70830354730319" lon="14.78211832173308"><ele>709.0</ele><time>2026-04-06T10:04:56Z</time></trkpt><trkpt lat="37.708391246251495" lon="14.7821062370472"><ele>709.0</ele><time>2026-04-06T10:04:57Z</time></trkpt><trkpt lat="37.70847855178997" lon="14.78214667525211"><ele>709.0</ele><time>2026-04-06T10:04:58Z</time></trkpt><trkpt lat="37.70858058057978" lon="14.782173734991288"><ele>709.0</ele><time>2026-04-06T10:04:59Z</time></trkpt><trkpt lat="37.70867586991992" lon="14.782195039467192"><ele>709.0</ele><time>2026-04-06T10:05:00Z</time></trkpt><trkpt lat="37.708770676593375" lon="14.782220085454325"><ele>709.0</ele><time>2026-04-06T10:05:02Z</time></trkpt><trkpt lat="37.708861515530636" lon="14.782209500930403"><ele>706.0</ele><time>2026-04-06T10:05:03Z</time></trkpt><trkpt lat="37.70893776328058" lon="14.782208716858849"><ele>703.0</ele><time>2026-04-06T10:05:04Z</time></trkpt><trkpt lat="37.70900318618849" lon="14.782199508384277"><ele>700.0</ele><time>2026-04-06T10:05:05Z</time></trkpt><trkpt lat="37.709090139340205" lon="14.782207156717213"><ele>697.0</ele><time>2026-04-06T10:05:07Z</time></trkpt><trkpt lat="37.709148684188705" lon="14.782168959333317"><ele>694.0</ele><time>2026-04-06T10:05:08Z</time></trkpt><trkpt lat="37.709261795914365" lon="14.782148745958384"><ele>691.0</ele><time>2026-04-06T10:05:10Z</time></trkpt><trkpt lat="37.709327931442914" lon="14.782160100011092"><ele>689.1999999999999</ele><time>2026-04-06T10:05:11Z</time></trkpt><trkpt lat="37.7094237284248" lon="14.782152279457533"><ele>687.4</ele><time>2026-04-06T10:05:12Z</time></trkpt><trkpt lat="37.70951158750389" lon="14.782088972447355"><ele>685.6</ele><time>2026-04-06T10:05:13Z</time></trkpt><trkpt lat="37.709619582831664" lon="14.782039963841994"><ele>683.8</ele><time>2026-04-06T10:05:14Z</time></trkpt><trkpt lat="37.709720332746976" lon="14.781998614087302"><ele>682.0</ele><time>2026-04-06T10:05:15Z</time></trkpt><trkpt lat="37.70981157522461" lon="14.78196317226088"><ele>682.0</ele><time>2026-04-06T10:05:16Z</time></trkpt><trkpt lat="37.70988971928111" lon="14.781917463146728"><ele>682.0</ele><time>2026-04-06T10:05:17Z</time></trkpt><trkpt lat="37.709968904241165" lon="14.781895944102615"><ele>682.0</ele><time>2026-04-06T10:05:18Z</time></trkpt><trkpt lat="37.71006066277014" lon="14.781850244979271"><ele>682.0</ele><time>2026-04-06T10:05:19Z</time></trkpt><trkpt lat="37.710161875117805" lon="14.781799837553878"><ele>682.0</ele><time>2026-04-06T10:05:20Z</time></trkpt><trkpt lat="37.71028960733977" lon="14.781738587892065"><ele>684.6</ele><time>2026-04-06T10:05:21Z</time></trkpt><trkpt lat="37.71043490160504" lon="14.781669527951706"><ele>687.2</ele><time>2026-04-06T10:05:22Z</time></trkpt><trkpt lat="37.7105520355277" lon="14.781620504887735"><ele>689.8</ele><time>2026-04-06T10:05:23Z</time></trkpt><trkpt lat="37.71061425679775" lon="14.781606544152618"><ele>692.4</ele><time>2026-04-06T10:05:24Z</time></trkpt><trkpt lat="37.7106811306976" lon="14.781601957555274"><ele>695.0</ele><time>2026-04-06T10:05:25Z</time></trkpt><trkpt lat="37.710765149327734" lon="14.78163676554448"><ele>695.0</ele><time>2026-04-06T10:05:26Z</time></trkpt><trkpt lat="37.710878329649354" lon="14.781656044759396"><ele>695.0</ele><time>2026-04-06T10:05:27Z</time></trkpt><trkpt lat="37.7110049064751" lon="14.781659492427421"><ele>695.0</ele><time>2026-04-06T10:05:28Z</time></trkpt><trkpt lat="37.71115486043172" lon="14.781685011446717"><ele>695.0</ele><time>2026-04-06T10:05:29Z</time></trkpt><trkpt lat="37.71128575780998" lon="14.781699993888925"><ele>696.5</ele><time>2026-04-06T10:05:30Z</time></trkpt><trkpt lat="37.71142440344188" lon="14.781697881359285"><ele>698.0</ele><time>2026-04-06T10:05:31Z</time></trkpt><trkpt lat="37.71157336745225" lon="14.781696950773654"><ele>699.5</ele><time>2026-04-06T10:05:32Z</time></trkpt><trkpt lat="37.711717744767896" lon="14.781692954683265"><ele>701.0</ele><time>2026-04-06T10:05:33Z</time></trkpt><trkpt lat="37.71184269263502" lon="14.78168834775211"><ele>702.1999999999999</ele><time>2026-04-06T10:05:34Z</time></trkpt><trkpt lat="37.71196370183186" lon="14.781679598182826"><ele>703.4</ele><time>2026-04-06T10:05:35Z</time></trkpt><trkpt lat="37.712075697805545" lon="14.78166621718218"><ele>704.6</ele><time>2026-04-06T10:05:36Z</time></trkpt><trkpt lat="37.712192466369515" lon="14.781630119960724"><ele>705.8</ele><time>2026-04-06T10:05:37Z</time></trkpt><trkpt lat="37.71228271025178" lon="14.7816237486237"><ele>707.0</ele><time>2026-04-06T10:05:38Z</time></trkpt><trkpt lat="37.71238276201348" lon="14.781632787237793"><ele>707.0</ele><time>2026-04-06T10:05:39Z</time></trkpt><trkpt lat="37.71248165716055" lon="14.781624963413472"><ele>707.0</ele><time>2026-04-06T10:05:40Z</time></trkpt><trkpt lat="37.712555220041374" lon="14.781581414931832"><ele>707.0</ele><time>2026-04-06T10:05:41Z</time></trkpt><trkpt lat="37.7126100375694" lon="14.781513779011382"><ele>707.0</ele><time>2026-04-06T10:05:42Z</time></trkpt><trkpt lat="37.71261871918369" lon="14.781431846804772"><ele>707.0</ele><time>2026-04-06T10:05:43Z</time></trkpt><trkpt lat="37.71257639344849" lon="14.781347705191104"><ele>707.0</ele><time>2026-04-06T10:05:44Z</time></trkpt><trkpt lat="37.71256840357601" lon="14.781214857530216"><ele>707.0</ele><time>2026-04-06T10:05:46Z</time></trkpt><trkpt lat="37.71256937033962" lon="14.781055891902213"><ele>707.0</ele><time>2026-04-06T10:05:48Z</time></trkpt><trkpt lat="37.712579201749705" lon="14.780951495997325"><ele>707.0</ele><time>2026-04-06T10:05:49Z</time></trkpt><trkpt lat="37.71259637939973" lon="14.780826735925885"><ele>707.0</ele><time>2026-04-06T10:05:50Z</time></trkpt><trkpt lat="37.71261772599888" lon="14.780731429949816"><ele>707.0</ele><time>2026-04-06T10:05:51Z</time></trkpt><trkpt lat="37.712649040726475" lon="14.78061578190504"><ele>707.4000000000001</ele><time>2026-04-06T10:05:52Z</time></trkpt><trkpt lat="37.71266946828108" lon="14.78047418993121"><ele>707.8000000000001</ele><time>2026-04-06T10:05:53Z</time></trkpt><trkpt lat="37.71270119295109" lon="14.780342488929595"><ele>708.2</ele><time>2026-04-06T10:05:54Z</time></trkpt><trkpt lat="37.712725493154004" lon="14.780224219379619"><ele>708.6</ele><time>2026-04-06T10:05:55Z</time></trkpt><trkpt lat="37.71274363827922" lon="14.780102791422815"><ele>709.0</ele><time>2026-04-06T10:05:56Z</time></trkpt><trkpt lat="37.71280210729517" lon="14.77998510496399"><ele>709.0</ele><time>2026-04-06T10:05:57Z</time></trkpt><trkpt lat="37.71284217340798" lon="14.779894931765034"><ele>709.0</ele><time>2026-04-06T10:05:58Z</time></trkpt><trkpt lat="37.7128721952933" lon="14.779808987981847"><ele>709.0</ele><time>2026-04-06T10:05:59Z</time></trkpt><trkpt lat="37.712881555771084" lon="14.779727085467622"><ele>709.0</ele><time>2026-04-06T10:06:00Z</time></trkpt><trkpt lat="37.712879691848066" lon="14.779569370007621"><ele>709.0</ele><time>2026-04-06T10:06:02Z</time></trkpt><trkpt lat="37.71288663946641" lon="14.779477822582155"><ele>709.0</ele><time>2026-04-06T10:06:03Z</time></trkpt><trkpt lat="37.712875419548624" lon="14.779395001140088"><ele>707.8333333333334</ele><time>2026-04-06T10:06:04Z</time></trkpt><trkpt lat="37.71284638991483" lon="14.779271243241446"><ele>706.6666666666667</ele><time>2026-04-06T10:06:05.999Z</time></trkpt><trkpt lat="37.7128342220469" lon="14.779189155143598"><ele>705.5</ele><time>2026-04-06T10:06:06.999Z</time></trkpt><trkpt lat="37.71278631430918" lon="14.77909552764869"><ele>704.3333333333334</ele><time>2026-04-06T10:06:07.999Z</time></trkpt><trkpt lat="37.71275550542446" lon="14.7790258182934"><ele>703.1666666666666</ele><time>2026-04-06T10:06:09.999Z</time></trkpt><trkpt lat="37.7127462524223" lon="14.778904955108445"><ele>702.0</ele><time>2026-04-06T10:06:11.999Z</time></trkpt><trkpt lat="37.71277860284566" lon="14.778814224563872"><ele>702.0</ele><time>2026-04-06T10:06:14.999Z</time></trkpt><trkpt lat="37.71275004307135" lon="14.778694243974636"><ele>702.0</ele><time>2026-04-06T10:06:17.999Z</time></trkpt><trkpt lat="37.71277103435789" lon="14.778611581848581"><ele>702.0</ele><time>2026-04-06T10:06:19.999Z</time></trkpt><trkpt lat="37.712791190682054" lon="14.778509172256369"><ele>702.0</ele><time>2026-04-06T10:06:22.999Z</time></trkpt><trkpt lat="37.712791349086196" lon="14.777582097328391"><ele>702.2</ele><time>2026-04-06T10:06:25.999Z</time></trkpt><trkpt lat="37.71280559156644" lon="14.777473167919844"><ele>702.4000000000001</ele><time>2026-04-06T10:06:26.999Z</time></trkpt><trkpt lat="37.71282787804129" lon="14.777365553046852"><ele>702.5999999999999</ele><time>2026-04-06T10:06:27.999Z</time></trkpt><trkpt lat="37.71285005823172" lon="14.777245567157564"><ele>702.8</ele><time>2026-04-06T10:06:28.999Z</time></trkpt><trkpt lat="37.71289332808358" lon="14.777087425995235"><ele>703.0</ele><time>2026-04-06T10:06:29.999Z</time></trkpt><trkpt lat="37.71291452048008" lon="14.776976386474894"><ele>703.0</ele><time>2026-04-06T10:06:30.999Z</time></trkpt><trkpt lat="37.7129360080152" lon="14.776876088819316"><ele>703.0</ele><time>2026-04-06T10:06:31.999Z</time></trkpt><trkpt lat="37.71297164407253" lon="14.776774768401017"><ele>703.0</ele><time>2026-04-06T10:06:32.999Z</time></trkpt><trkpt lat="37.71299417452083" lon="14.776662689087292"><ele>703.0</ele><time>2026-04-06T10:06:33.999Z</time></trkpt><trkpt lat="37.71303008635872" lon="14.776590022982903"><ele>703.0</ele><time>2026-04-06T10:06:34.999Z</time></trkpt><trkpt lat="37.71304916223969" lon="14.776479016205522"><ele>703.0</ele><time>2026-04-06T10:06:35.999Z</time></trkpt><trkpt lat="37.71308551270633" lon="14.776389868458855"><ele>703.6666666666667</ele><time>2026-04-06T10:06:36.999Z</time></trkpt><trkpt lat="37.713113818916284" lon="14.776280780437766"><ele>704.3333333333334</ele><time>2026-04-06T10:06:37.999Z</time></trkpt><trkpt lat="37.71313471574391" lon="14.776175953456644"><ele>705.0</ele><time>2026-04-06T10:06:38.999Z</time></trkpt><trkpt lat="37.71318280186672" lon="14.776117219480222"><ele>705.6666666666666</ele><time>2026-04-06T10:06:39.999Z</time></trkpt><trkpt lat="37.71323490277227" lon="14.776052672723887"><ele>706.3333333333333</ele><time>2026-04-06T10:06:40.999Z</time></trkpt><trkpt lat="37.71328934576352" lon="14.775992545083465"><ele>707.0</ele><time>2026-04-06T10:06:41.999Z</time></trkpt><trkpt lat="37.713336685599415" lon="14.775877844512708"><ele>705.4000000000001</ele><time>2026-04-06T10:06:42.999Z</time></trkpt><trkpt lat="37.71340310778893" lon="14.775812309493839"><ele>703.8000000000001</ele><time>2026-04-06T10:06:43.999Z</time></trkpt><trkpt lat="37.713476160045225" lon="14.775743715449808"><ele>702.2</ele><time>2026-04-06T10:06:44.999Z</time></trkpt><trkpt lat="37.71356258733241" lon="14.775654495453777"><ele>700.6</ele><time>2026-04-06T10:06:45.999Z</time></trkpt><trkpt lat="37.71363655306348" lon="14.775587169218644"><ele>699.0</ele><time>2026-04-06T10:06:46.999Z</time></trkpt><trkpt lat="37.71371415439542" lon="14.775551474593433"><ele>696.4000000000001</ele><time>2026-04-06T10:06:47.999Z</time></trkpt><trkpt lat="37.71382609152168" lon="14.775542004648218"><ele>693.8</ele><time>2026-04-06T10:06:48.999Z</time></trkpt><trkpt lat="37.71395161790846" lon="14.775542574590895"><ele>691.2</ele><time>2026-04-06T10:06:49.999Z</time></trkpt><trkpt lat="37.714057073514155" lon="14.77548851700622"><ele>688.5999999999999</ele><time>2026-04-06T10:06:50.999Z</time></trkpt><trkpt lat="37.71412962660804" lon="14.775429332048867"><ele>686.0</ele><time>2026-04-06T10:06:51.999Z</time></trkpt><trkpt lat="37.71419267931276" lon="14.775361577761245"><ele>686.0</ele><time>2026-04-06T10:06:52.999Z</time></trkpt><trkpt lat="37.71425742340116" lon="14.775316103373955"><ele>686.0</ele><time>2026-04-06T10:06:54.001Z</time></trkpt><trkpt lat="37.7143215220978" lon="14.775304903159018"><ele>686.0</ele><time>2026-04-06T10:06:55.001Z</time></trkpt><trkpt lat="37.71439196984245" lon="14.775275509318789"><ele>686.0</ele><time>2026-04-06T10:06:57.001Z</time></trkpt><trkpt lat="37.71450007637021" lon="14.77530933922105"><ele>686.0</ele><time>2026-04-06T10:06:59Z</time></trkpt><trkpt lat="37.71459158873209" lon="14.775246706672508"><ele>686.0</ele><time>2026-04-06T10:07:01Z</time></trkpt><trkpt lat="37.71461886095883" lon="14.77510103587094"><ele>690.5</ele><time>2026-04-06T10:07:03Z</time></trkpt><trkpt lat="37.71465903164405" lon="14.775032842338133"><ele>695.0</ele><time>2026-04-06T10:07:07Z</time></trkpt><trkpt lat="37.714802931875965" lon="14.774580882948335"><ele>695.0</ele><time>2026-04-06T10:07:09Z</time></trkpt><trkpt lat="37.71483156841362" lon="14.77447939047064"><ele>695.0</ele><time>2026-04-06T10:07:10Z</time></trkpt><trkpt lat="37.71484852863856" lon="14.774365830904076"><ele>695.0</ele><time>2026-04-06T10:07:11Z</time></trkpt><trkpt lat="37.71489669138485" lon="14.774265762261589"><ele>695.0</ele><time>2026-04-06T10:07:12Z</time></trkpt><trkpt lat="37.71491793880353" lon="14.774180535780253"><ele>695.0</ele><time>2026-04-06T10:07:13Z</time></trkpt><trkpt lat="37.71495297215913" lon="14.774103207945497"><ele>695.0</ele><time>2026-04-06T10:07:14Z</time></trkpt><trkpt lat="37.71499008378304" lon="14.77397246158468"><ele>696.0</ele><time>2026-04-06T10:07:15Z</time></trkpt><trkpt lat="37.71503508296731" lon="14.773893165953188"><ele>697.0</ele><time>2026-04-06T10:07:16Z</time></trkpt><trkpt lat="37.71506111831013" lon="14.773786848641114"><ele>698.0</ele><time>2026-04-06T10:07:17Z</time></trkpt><trkpt lat="37.71509775725703" lon="14.773700102141586"><ele>699.0</ele><time>2026-04-06T10:07:18Z</time></trkpt><trkpt lat="37.715147666265864" lon="14.77360339854275"><ele>700.0</ele><time>2026-04-06T10:07:19Z</time></trkpt><trkpt lat="37.715185442598084" lon="14.773536284912263"><ele>701.0</ele><time>2026-04-06T10:07:20Z</time></trkpt><trkpt lat="37.715238137810054" lon="14.773427032321539"><ele>701.0</ele><time>2026-04-06T10:07:22Z</time></trkpt><trkpt lat="37.7152542308377" lon="14.773342011103537"><ele>701.0</ele><time>2026-04-06T10:07:23Z</time></trkpt><trkpt lat="37.71530475219129" lon="14.773227664713756"><ele>701.0</ele><time>2026-04-06T10:07:24Z</time></trkpt><trkpt lat="37.71524107830441" lon="14.773193356214003"><ele>701.0</ele><time>2026-04-06T10:07:25Z</time></trkpt><trkpt lat="37.71523455707143" lon="14.7730624297258"><ele>701.0</ele><time>2026-04-06T10:07:26Z</time></trkpt><trkpt lat="37.715229484337826" lon="14.77296058500313"><ele>701.0</ele><time>2026-04-06T10:07:27Z</time></trkpt><trkpt lat="37.71522436967903" lon="14.772857898505725"><ele>701.0</ele><time>2026-04-06T10:07:28Z</time></trkpt><trkpt lat="37.7152245661521" lon="14.772770669352726"><ele>701.0</ele><time>2026-04-06T10:07:29Z</time></trkpt><trkpt lat="37.71526805145554" lon="14.772640723967232"><ele>701.0</ele><time>2026-04-06T10:07:31Z</time></trkpt><trkpt lat="37.715308151540754" lon="14.772501931646973"><ele>701.0</ele><time>2026-04-06T10:07:32Z</time></trkpt><trkpt lat="37.71535412969729" lon="14.772364888253286"><ele>701.0</ele><time>2026-04-06T10:07:34Z</time></trkpt><trkpt lat="37.71537215904524" lon="14.772266124975813"><ele>700.5</ele><time>2026-04-06T10:07:35Z</time></trkpt><trkpt lat="37.715384894983444" lon="14.772173136419482"><ele>700.0</ele><time>2026-04-06T10:07:36Z</time></trkpt><trkpt lat="37.715424353526224" lon="14.772096478823945"><ele>699.5</ele><time>2026-04-06T10:07:37Z</time></trkpt><trkpt lat="37.71546654405645" lon="14.771992458313134"><ele>699.0</ele><time>2026-04-06T10:07:38Z</time></trkpt><trkpt lat="37.71547893197047" lon="14.771893010945258"><ele>698.5</ele><time>2026-04-06T10:07:39Z</time></trkpt><trkpt lat="37.715498257991044" lon="14.771805077231155"><ele>698.0</ele><time>2026-04-06T10:07:40Z</time></trkpt><trkpt lat="37.71552382518279" lon="14.771727536764855"><ele>697.2</ele><time>2026-04-06T10:07:41Z</time></trkpt><trkpt lat="37.71560684230082" lon="14.771605017406014"><ele>696.4</ele><time>2026-04-06T10:07:43Z</time></trkpt><trkpt lat="37.71566495233965" lon="14.771548309658554"><ele>695.6</ele><time>2026-04-06T10:07:44Z</time></trkpt><trkpt lat="37.715728727419595" lon="14.771485168316694"><ele>694.8000000000001</ele><time>2026-04-06T10:07:45Z</time></trkpt><trkpt lat="37.71584061316856" lon="14.77139541476261"><ele>694.0</ele><time>2026-04-06T10:07:47Z</time></trkpt><trkpt lat="37.71589226327034" lon="14.77132000502305"><ele>694.0</ele><time>2026-04-06T10:07:48Z</time></trkpt><trkpt lat="37.71595519748149" lon="14.771293729215195"><ele>694.0</ele><time>2026-04-06T10:07:49Z</time></trkpt><trkpt lat="37.716009066207704" lon="14.771240318396403"><ele>694.0</ele><time>2026-04-06T10:07:52Z</time></trkpt><trkpt lat="37.71608718871736" lon="14.771186475513705"><ele>694.0</ele><time>2026-04-06T10:07:54Z</time></trkpt><trkpt lat="37.71612950876709" lon="14.771067857812206"><ele>694.0</ele><time>2026-04-06T10:07:59Z</time></trkpt><trkpt lat="37.716168582538856" lon="14.770961571243102"><ele>694.0</ele><time>2026-04-06T10:08:03Z</time></trkpt><trkpt lat="37.71626758591447" lon="14.770916565283091"><ele>690.3333333333334</ele><time>2026-04-06T10:08:06Z</time></trkpt><trkpt lat="37.716352839103294" lon="14.770868532134088"><ele>686.6666666666667</ele><time>2026-04-06T10:08:08Z</time></trkpt><trkpt lat="37.71639104351338" lon="14.770790179219029"><ele>683.0</ele><time>2026-04-06T10:08:11Z</time></trkpt><trkpt lat="37.7164398103177" lon="14.770730662225363"><ele>679.3333333333334</ele><time>2026-04-06T10:08:12Z</time></trkpt><trkpt lat="37.716523273963844" lon="14.770666825581925"><ele>675.6666666666666</ele><time>2026-04-06T10:08:13.999Z</time></trkpt><trkpt lat="37.716621769403204" lon="14.770622676660809"><ele>672.0</ele><time>2026-04-06T10:08:15.999Z</time></trkpt><trkpt lat="37.71670424153219" lon="14.770504414098859"><ele>672.0</ele><time>2026-04-06T10:08:18.999Z</time></trkpt><trkpt lat="37.71689020904549" lon="14.770275655344669"><ele>672.0</ele><time>2026-04-06T10:08:21.999Z</time></trkpt><trkpt lat="37.71701468613704" lon="14.770205854216602"><ele>672.0</ele><time>2026-04-06T10:08:23.999Z</time></trkpt><trkpt lat="37.717120634419054" lon="14.770177388550376"><ele>668.1666666666666</ele><time>2026-04-06T10:08:25.999Z</time></trkpt><trkpt lat="37.71723490244411" lon="14.77019892276663"><ele>664.3333333333334</ele><time>2026-04-06T10:08:27.999Z</time></trkpt><trkpt lat="37.71730342401865" lon="14.770232909807675"><ele>660.5</ele><time>2026-04-06T10:08:28.999Z</time></trkpt><trkpt lat="37.71735280016275" lon="14.770290580566678"><ele>656.6666666666667</ele><time>2026-04-06T10:08:29.999Z</time></trkpt><trkpt lat="37.717432624550064" lon="14.770259568952287"><ele>652.8333333333334</ele><time>2026-04-06T10:08:30.999Z</time></trkpt><trkpt lat="37.71749923031593" lon="14.770212851708491"><ele>649.0</ele><time>2026-04-06T10:08:31.999Z</time></trkpt><trkpt lat="37.7176078831745" lon="14.770188632800574"><ele>649.0</ele><time>2026-04-06T10:08:33.999Z</time></trkpt><trkpt lat="37.71770375002607" lon="14.770119336019762"><ele>649.0</ele><time>2026-04-06T10:08:35.999Z</time></trkpt><trkpt lat="37.71776642606603" lon="14.770052517310365"><ele>649.0</ele><time>2026-04-06T10:08:36.999Z</time></trkpt><trkpt lat="37.71784876771752" lon="14.770006684115726"><ele>649.0</ele><time>2026-04-06T10:08:37.999Z</time></trkpt><trkpt lat="37.71795972069667" lon="14.769979640254427"><ele>649.0</ele><time>2026-04-06T10:08:40.999Z</time></trkpt><trkpt lat="37.71806345786692" lon="14.769927907373676"><ele>647.0</ele><time>2026-04-06T10:08:42.999Z</time></trkpt><trkpt lat="37.71816102696159" lon="14.769832851936773"><ele>645.0</ele><time>2026-04-06T10:09:11Z</time></trkpt><trkpt lat="37.71821258729718" lon="14.769766698502043"><ele>643.0</ele><time>2026-04-06T10:09:12Z</time></trkpt><trkpt lat="37.718273683280316" lon="14.769668363249329"><ele>641.0</ele><time>2026-04-06T10:09:13Z</time></trkpt><trkpt lat="37.71835211989758" lon="14.769610836610374"><ele>639.0</ele><time>2026-04-06T10:09:14Z</time></trkpt><trkpt lat="37.71842168239346" lon="14.769562846604797"><ele>639.0</ele><time>2026-04-06T10:09:15Z</time></trkpt><trkpt lat="37.718497145516174" lon="14.769539028592932"><ele>639.0</ele><time>2026-04-06T10:09:16Z</time></trkpt><trkpt lat="37.71858459248093" lon="14.76951410583311"><ele>639.0</ele><time>2026-04-06T10:09:17Z</time></trkpt><trkpt lat="37.71865975669018" lon="14.769476227835048"><ele>639.0</ele><time>2026-04-06T10:09:18Z</time></trkpt><trkpt lat="37.718749439889805" lon="14.769416425044751"><ele>639.0</ele><time>2026-04-06T10:09:20Z</time></trkpt><trkpt lat="37.71882529734778" lon="14.769323397970739"><ele>637.2</ele><time>2026-04-06T10:09:22Z</time></trkpt><trkpt lat="37.718885034750706" lon="14.769234332471283"><ele>635.4</ele><time>2026-04-06T10:09:23Z</time></trkpt><trkpt lat="37.718958368187465" lon="14.769164812181666"><ele>633.6</ele><time>2026-04-06T10:09:24Z</time></trkpt><trkpt lat="37.71901824608965" lon="14.76909510051798"><ele>631.8</ele><time>2026-04-06T10:09:25Z</time></trkpt><trkpt lat="37.719098332175626" lon="14.76900791695956"><ele>630.0</ele><time>2026-04-06T10:09:26Z</time></trkpt><trkpt lat="37.71917457435547" lon="14.768928546895335"><ele>630.0</ele><time>2026-04-06T10:09:27Z</time></trkpt><trkpt lat="37.719247057742216" lon="14.768884352693625"><ele>630.0</ele><time>2026-04-06T10:09:28Z</time></trkpt><trkpt lat="37.71930886093253" lon="14.768833558475427"><ele>630.0</ele><time>2026-04-06T10:09:29Z</time></trkpt><trkpt lat="37.71937946068725" lon="14.76881370641688"><ele>630.0</ele><time>2026-04-06T10:09:30Z</time></trkpt><trkpt lat="37.719445639851344" lon="14.768668864091678"><ele>630.0</ele><time>2026-04-06T10:09:32Z</time></trkpt><trkpt lat="37.719489966516925" lon="14.768578418179988"><ele>630.0</ele><time>2026-04-06T10:09:33Z</time></trkpt><trkpt lat="37.71954690402518" lon="14.768477902733405"><ele>629.0</ele><time>2026-04-06T10:09:34Z</time></trkpt><trkpt lat="37.71961376576073" lon="14.768376903892216"><ele>628.0</ele><time>2026-04-06T10:09:35Z</time></trkpt><trkpt lat="37.71966023418" lon="14.768280932638257"><ele>627.0</ele><time>2026-04-06T10:09:36Z</time></trkpt><trkpt lat="37.71971720271535" lon="14.768247036999906"><ele>626.0</ele><time>2026-04-06T10:09:37Z</time></trkpt><trkpt lat="37.71975171002147" lon="14.768172980560493"><ele>625.0</ele><time>2026-04-06T10:09:38Z</time></trkpt><trkpt lat="37.71979393569831" lon="14.768110217186853"><ele>624.0</ele><time>2026-04-06T10:09:39Z</time></trkpt><trkpt lat="37.71982211471762" lon="14.7680277506336"><ele>624.0</ele><time>2026-04-06T10:09:40Z</time></trkpt><trkpt lat="37.719849649482704" lon="14.767916185685916"><ele>624.0</ele><time>2026-04-06T10:09:41Z</time></trkpt><trkpt lat="37.719870365080574" lon="14.76782061190979"><ele>624.0</ele><time>2026-04-06T10:09:42Z</time></trkpt><trkpt lat="37.71992556556946" lon="14.767729161084342"><ele>624.0</ele><time>2026-04-06T10:09:43Z</time></trkpt><trkpt lat="37.71997698047216" lon="14.76762981783974"><ele>624.0</ele><time>2026-04-06T10:09:44Z</time></trkpt><trkpt lat="37.720044764008726" lon="14.767526310505323"><ele>622.4</ele><time>2026-04-06T10:09:45Z</time></trkpt><trkpt lat="37.72011172009689" lon="14.767423091121737"><ele>620.8</ele><time>2026-04-06T10:09:46Z</time></trkpt><trkpt lat="37.72017835077129" lon="14.767320373445767"><ele>619.2</ele><time>2026-04-06T10:09:47Z</time></trkpt><trkpt lat="37.72024574238462" lon="14.767216483102608"><ele>617.6</ele><time>2026-04-06T10:09:48Z</time></trkpt><trkpt lat="37.72031735527086" lon="14.767111912222658"><ele>616.0</ele><time>2026-04-06T10:09:49Z</time></trkpt><trkpt lat="37.72038156394278" lon="14.76701885532363"><ele>613.8333333333334</ele><time>2026-04-06T10:09:50Z</time></trkpt><trkpt lat="37.72041314788685" lon="14.766939577753282"><ele>611.6666666666667</ele><time>2026-04-06T10:09:51Z</time></trkpt><trkpt lat="37.72045827753189" lon="14.766874437242588"><ele>609.5</ele><time>2026-04-06T10:09:52Z</time></trkpt><trkpt lat="37.72050225657601" lon="14.766806194394485"><ele>607.3333333333334</ele><time>2026-04-06T10:09:53Z</time></trkpt><trkpt lat="37.72053860286413" lon="14.766728227661272"><ele>605.1666666666666</ele><time>2026-04-06T10:09:54Z</time></trkpt><trkpt lat="37.720591299754375" lon="14.766614245504242"><ele>603.0</ele><time>2026-04-06T10:09:55Z</time></trkpt><trkpt lat="37.72067345816888" lon="14.766545166337341"><ele>602.4</ele><time>2026-04-06T10:09:56Z</time></trkpt><trkpt lat="37.720726123717775" lon="14.766453785464973"><ele>601.8</ele><time>2026-04-06T10:09:57Z</time></trkpt><trkpt lat="37.72079312714202" lon="14.766370242443665"><ele>601.2</ele><time>2026-04-06T10:09:58Z</time></trkpt><trkpt lat="37.720835307116296" lon="14.766273020016044"><ele>600.6</ele><time>2026-04-06T10:09:59Z</time></trkpt><trkpt lat="37.72084570891499" lon="14.76618204905217"><ele>600.0</ele><time>2026-04-06T10:10:00Z</time></trkpt><trkpt lat="37.72079843388344" lon="14.76604517340163"><ele>598.8</ele><time>2026-04-06T10:10:01Z</time></trkpt><trkpt lat="37.72081453136657" lon="14.765937849192808"><ele>597.6</ele><time>2026-04-06T10:10:02Z</time></trkpt><trkpt lat="37.7208265988992" lon="14.765820796303949"><ele>596.4</ele><time>2026-04-06T10:10:03Z</time></trkpt><trkpt lat="37.72083265527635" lon="14.765670914813011"><ele>595.2</ele><time>2026-04-06T10:10:04Z</time></trkpt><trkpt lat="37.72082841923068" lon="14.765535292421344"><ele>594.0</ele><time>2026-04-06T10:10:05Z</time></trkpt><trkpt lat="37.7208241812984" lon="14.765407803705413"><ele>594.0</ele><time>2026-04-06T10:10:06Z</time></trkpt><trkpt lat="37.72082829316844" lon="14.765274012159585"><ele>594.0</ele><time>2026-04-06T10:10:07Z</time></trkpt><trkpt lat="37.720845897026685" lon="14.765139003927644"><ele>594.0</ele><time>2026-04-06T10:10:08Z</time></trkpt><trkpt lat="37.72085104007164" lon="14.765041725745915"><ele>594.0</ele><time>2026-04-06T10:10:09Z</time></trkpt><trkpt lat="37.720859947004975" lon="14.764921439008338"><ele>594.0</ele><time>2026-04-06T10:10:11Z</time></trkpt><trkpt lat="37.72087675753212" lon="14.764793620074984"><ele>592.4</ele><time>2026-04-06T10:10:12.999Z</time></trkpt><trkpt lat="37.72096160966125" lon="14.764697137930087"><ele>590.8</ele><time>2026-04-06T10:10:14.999Z</time></trkpt><trkpt lat="37.72106798604732" lon="14.764765319345264"><ele>589.2</ele><time>2026-04-06T10:10:15.999Z</time></trkpt><trkpt lat="37.721163507300325" lon="14.764772469828928"><ele>587.6</ele><time>2026-04-06T10:10:16.999Z</time></trkpt><trkpt lat="37.721232891177806" lon="14.764823396160976"><ele>586.0</ele><time>2026-04-06T10:10:17.999Z</time></trkpt><trkpt lat="37.72131114628106" lon="14.764862854674572"><ele>585.5</ele><time>2026-04-06T10:10:18.999Z</time></trkpt><trkpt lat="37.72138404790821" lon="14.764924936989837"><ele>585.0</ele><time>2026-04-06T10:10:19.999Z</time></trkpt><trkpt lat="37.7214492520741" lon="14.765014107717173"><ele>584.5</ele><time>2026-04-06T10:10:20.999Z</time></trkpt><trkpt lat="37.721518482440565" lon="14.765087867998163"><ele>584.0</ele><time>2026-04-06T10:10:21.999Z</time></trkpt><trkpt lat="37.72158640806871" lon="14.765163815823781"><ele>583.5</ele><time>2026-04-06T10:10:22.999Z</time></trkpt><trkpt lat="37.72164147411397" lon="14.765236437936917"><ele>583.0</ele><time>2026-04-06T10:10:23.999Z</time></trkpt><trkpt lat="37.72170120389878" lon="14.765297484141588"><ele>583.0</ele><time>2026-04-06T10:10:24.999Z</time></trkpt><trkpt lat="37.72177746934862" lon="14.765351288874923"><ele>583.0</ele><time>2026-04-06T10:10:25.999Z</time></trkpt><trkpt lat="37.72185087586092" lon="14.765372089141406"><ele>583.0</ele><time>2026-04-06T10:10:26.999Z</time></trkpt><trkpt lat="37.72197162686698" lon="14.765335041471303"><ele>583.0</ele><time>2026-04-06T10:10:28.999Z</time></trkpt><trkpt lat="37.72208380902659" lon="14.765292421035783"><ele>583.0</ele><time>2026-04-06T10:10:30.999Z</time></trkpt><trkpt lat="37.72220270442205" lon="14.765415799828245"><ele>580.0</ele><time>2026-04-06T10:10:32.999Z</time></trkpt><trkpt lat="37.72224693370817" lon="14.765482405989276"><ele>577.0</ele><time>2026-04-06T10:10:33.999Z</time></trkpt><trkpt lat="37.72227872837997" lon="14.765565022421146"><ele>574.0</ele><time>2026-04-06T10:10:34.999Z</time></trkpt><trkpt lat="37.722315699088234" lon="14.765663027512199"><ele>571.0</ele><time>2026-04-06T10:10:35.999Z</time></trkpt><trkpt lat="37.72234349120372" lon="14.765747013252891"><ele>568.0</ele><time>2026-04-06T10:10:36.999Z</time></trkpt><trkpt lat="37.72236537354684" lon="14.765833533466518"><ele>565.0</ele><time>2026-04-06T10:10:37.999Z</time></trkpt><trkpt lat="37.722377911994066" lon="14.76593157232943"><ele>564.4</ele><time>2026-04-06T10:10:38.999Z</time></trkpt><trkpt lat="37.722387047182764" lon="14.766058117888178"><ele>563.8</ele><time>2026-04-06T10:10:39.999Z</time></trkpt><trkpt lat="37.72239181463917" lon="14.766210225637085"><ele>563.2</ele><time>2026-04-06T10:10:40.999Z</time></trkpt><trkpt lat="37.722393033494285" lon="14.76632701179849"><ele>562.6</ele><time>2026-04-06T10:10:41.999Z</time></trkpt><trkpt lat="37.722387487403964" lon="14.766420480750082"><ele>562.0</ele><time>2026-04-06T10:10:42.999Z</time></trkpt><trkpt lat="37.722352857210296" lon="14.766576332165755"><ele>562.0</ele><time>2026-04-06T10:10:44.999Z</time></trkpt><trkpt lat="37.722317860161716" lon="14.766667495271108"><ele>562.0</ele><time>2026-04-06T10:10:45.999Z</time></trkpt><trkpt lat="37.722312368961006" lon="14.766796129474423"><ele>562.0</ele><time>2026-04-06T10:10:46.999Z</time></trkpt><trkpt lat="37.722305414221246" lon="14.766909585188104"><ele>562.0</ele><time>2026-04-06T10:10:47.999Z</time></trkpt><trkpt lat="37.72230582414691" lon="14.767005170173007"><ele>562.0</ele><time>2026-04-06T10:10:48.999Z</time></trkpt><trkpt lat="37.72234953583795" lon="14.767064910655488"><ele>562.0</ele><time>2026-04-06T10:10:49.999Z</time></trkpt><trkpt lat="37.7223693824909" lon="14.767214574261162"><ele>561.0</ele><time>2026-04-06T10:10:51.999Z</time></trkpt><trkpt lat="37.72237183347801" lon="14.767357872483222"><ele>560.0</ele><time>2026-04-06T10:10:52.999Z</time></trkpt><trkpt lat="37.72238848558516" lon="14.767521801098653"><ele>559.0</ele><time>2026-04-06T10:10:53.999Z</time></trkpt><trkpt lat="37.72237752764659" lon="14.767672993050079"><ele>558.0</ele><time>2026-04-06T10:10:54.999Z</time></trkpt><trkpt lat="37.72238453603195" lon="14.767829584838598"><ele>557.5</ele><time>2026-04-06T10:10:55.999Z</time></trkpt><trkpt lat="37.72240159390354" lon="14.767944384041504"><ele>557.0</ele><time>2026-04-06T10:10:56.999Z</time></trkpt><trkpt lat="37.72241394414345" lon="14.768048586999274"><ele>556.5</ele><time>2026-04-06T10:10:57.999Z</time></trkpt><trkpt lat="37.72245276401553" lon="14.768130697237694"><ele>556.0</ele><time>2026-04-06T10:10:58.999Z</time></trkpt><trkpt lat="37.72249392316193" lon="14.768204137863128"><ele>555.5</ele><time>2026-04-06T10:10:59.999Z</time></trkpt><trkpt lat="37.72253514243181" lon="14.768265348353106"><ele>555.0</ele><time>2026-04-06T10:11:00.999Z</time></trkpt><trkpt lat="37.722608434384654" lon="14.768321932049835"><ele>555.0</ele><time>2026-04-06T10:11:01.999Z</time></trkpt><trkpt lat="37.722681529716915" lon="14.768366045224921"><ele>555.0</ele><time>2026-04-06T10:11:02.999Z</time></trkpt><trkpt lat="37.722773090725866" lon="14.768389061795405"><ele>555.0</ele><time>2026-04-06T10:11:03.999Z</time></trkpt><trkpt lat="37.72285126412369" lon="14.76842057547832"><ele>555.0</ele><time>2026-04-06T10:11:04.999Z</time></trkpt><trkpt lat="37.7229303075433" lon="14.768470484633617"><ele>555.0</ele><time>2026-04-06T10:11:07Z</time></trkpt><trkpt lat="37.72298664560951" lon="14.768552989328633"><ele>555.0</ele><time>2026-04-06T10:11:09Z</time></trkpt><trkpt lat="37.723050934911484" lon="14.768655825230201"><ele>553.2</ele><time>2026-04-06T10:11:11Z</time></trkpt><trkpt lat="37.72311499230539" lon="14.768706622012791"><ele>551.4</ele><time>2026-04-06T10:11:12Z</time></trkpt><trkpt lat="37.723210086750804" lon="14.768754714055373"><ele>549.6</ele><time>2026-04-06T10:11:13Z</time></trkpt><trkpt lat="37.723308260886576" lon="14.76881789145307"><ele>547.8</ele><time>2026-04-06T10:11:14Z</time></trkpt><trkpt lat="37.723393975607614" lon="14.768896965685414"><ele>546.0</ele><time>2026-04-06T10:11:15Z</time></trkpt><trkpt lat="37.72347732181868" lon="14.76897838093329"><ele>546.0</ele><time>2026-04-06T10:11:16Z</time></trkpt><trkpt lat="37.72356262139011" lon="14.76904806414529"><ele>546.0</ele><time>2026-04-06T10:11:17Z</time></trkpt><trkpt lat="37.7236318645257" lon="14.769119566573142"><ele>546.0</ele><time>2026-04-06T10:11:18Z</time></trkpt><trkpt lat="37.72369332413347" lon="14.7691939162959"><ele>546.0</ele><time>2026-04-06T10:11:19Z</time></trkpt><trkpt lat="37.72373760419595" lon="14.769273250085151"><ele>546.0</ele><time>2026-04-06T10:11:20Z</time></trkpt><trkpt lat="37.723742265475245" lon="14.769359855220385"><ele>546.0</ele><time>2026-04-06T10:11:21Z</time></trkpt><trkpt lat="37.723749660259635" lon="14.769444547786561"><ele>543.2</ele><time>2026-04-06T10:11:22Z</time></trkpt><trkpt lat="37.72374034907952" lon="14.769631341311804"><ele>540.4000000000001</ele><time>2026-04-06T10:11:24Z</time></trkpt><trkpt lat="37.72374957206373" lon="14.769735833465536"><ele>537.6</ele><time>2026-04-06T10:11:25Z</time></trkpt><trkpt lat="37.72379027175817" lon="14.769835706612842"><ele>534.8000000000001</ele><time>2026-04-06T10:11:26Z</time></trkpt><trkpt lat="37.72381272174072" lon="14.76994291611696"><ele>532.0</ele><time>2026-04-06T10:11:27Z</time></trkpt><trkpt lat="37.72384913391764" lon="14.770058750058595"><ele>532.0</ele><time>2026-04-06T10:11:28Z</time></trkpt><trkpt lat="37.72387897468851" lon="14.770164468434048"><ele>532.0</ele><time>2026-04-06T10:11:29Z</time></trkpt><trkpt lat="37.72390915680383" lon="14.770279643302082"><ele>532.0</ele><time>2026-04-06T10:11:30Z</time></trkpt><trkpt lat="37.72393960706194" lon="14.770395841624218"><ele>532.0</ele><time>2026-04-06T10:11:31Z</time></trkpt><trkpt lat="37.72396615421996" lon="14.770497145685162"><ele>532.0</ele><time>2026-04-06T10:11:32Z</time></trkpt><trkpt lat="37.723990625151515" lon="14.770590061810099"><ele>532.0</ele><time>2026-04-06T10:11:33Z</time></trkpt><trkpt lat="37.724016660428035" lon="14.770688144399424"><ele>529.6666666666667</ele><time>2026-04-06T10:11:34Z</time></trkpt><trkpt lat="37.72406075578671" lon="14.770783038503803"><ele>527.3333333333334</ele><time>2026-04-06T10:11:35Z</time></trkpt><trkpt lat="37.72408897237851" lon="14.770873250629727"><ele>525.0</ele><time>2026-04-06T10:11:36Z</time></trkpt><trkpt lat="37.72413630599835" lon="14.770967564428922"><ele>522.6666666666666</ele><time>2026-04-06T10:11:37Z</time></trkpt><trkpt lat="37.72418075318902" lon="14.77105144384875"><ele>520.3333333333333</ele><time>2026-04-06T10:11:38Z</time></trkpt><trkpt lat="37.724212236889734" lon="14.771149191779713"><ele>518.0</ele><time>2026-04-06T10:11:39Z</time></trkpt><trkpt lat="37.72423512817058" lon="14.771257967002057"><ele>515.8</ele><time>2026-04-06T10:11:40Z</time></trkpt><trkpt lat="37.72423145452801" lon="14.771388091376933"><ele>513.5999999999999</ele><time>2026-04-06T10:11:41Z</time></trkpt><trkpt lat="37.72422514524609" lon="14.771502582122775"><ele>511.40000000000003</ele><time>2026-04-06T10:11:42Z</time></trkpt><trkpt lat="37.72421764550295" lon="14.771623378974777"><ele>509.20000000000005</ele><time>2026-04-06T10:11:43Z</time></trkpt><trkpt lat="37.72424107133498" lon="14.771723832203033"><ele>507.0</ele><time>2026-04-06T10:11:44Z</time></trkpt><trkpt lat="37.72423449291835" lon="14.77182729816041"><ele>507.20000000000005</ele><time>2026-04-06T10:11:45Z</time></trkpt><trkpt lat="37.7243155718969" lon="14.771953935939997"><ele>507.40000000000003</ele><time>2026-04-06T10:11:47Z</time></trkpt><trkpt lat="37.72438452076458" lon="14.772050882286699"><ele>507.59999999999997</ele><time>2026-04-06T10:11:48Z</time></trkpt><trkpt lat="37.724462302604344" lon="14.772104824546444"><ele>507.79999999999995</ele><time>2026-04-06T10:11:49Z</time></trkpt><trkpt lat="37.724523733833145" lon="14.77213189086451"><ele>508.0</ele><time>2026-04-06T10:11:50Z</time></trkpt><trkpt lat="37.72459524572075" lon="14.772094290852658"><ele>505.83333333333337</ele><time>2026-04-06T10:11:51Z</time></trkpt><trkpt lat="37.72468591311472" lon="14.772115071180878"><ele>503.6666666666667</ele><time>2026-04-06T10:11:52Z</time></trkpt><trkpt lat="37.72477914535932" lon="14.772147829632358"><ele>501.5</ele><time>2026-04-06T10:11:53Z</time></trkpt><trkpt lat="37.72485541451617" lon="14.772195160173451"><ele>499.33333333333337</ele><time>2026-04-06T10:11:54Z</time></trkpt><trkpt lat="37.72489867092426" lon="14.77225654732036"><ele>497.1666666666667</ele><time>2026-04-06T10:11:55Z</time></trkpt><trkpt lat="37.72496790414872" lon="14.77234573689757"><ele>495.0</ele><time>2026-04-06T10:11:56Z</time></trkpt><trkpt lat="37.725034360972415" lon="14.772435799352767"><ele>495.0</ele><time>2026-04-06T10:11:57Z</time></trkpt><trkpt lat="37.72509022624608" lon="14.772541446584308"><ele>495.0</ele><time>2026-04-06T10:11:58Z</time></trkpt><trkpt lat="37.72514822021592" lon="14.77263455360525"><ele>495.0</ele><time>2026-04-06T10:11:59Z</time></trkpt><trkpt lat="37.72520901390369" lon="14.772703095221562"><ele>495.0</ele><time>2026-04-06T10:12:00Z</time></trkpt><trkpt lat="37.72527671976036" lon="14.772767406354696"><ele>495.0</ele><time>2026-04-06T10:12:01Z</time></trkpt><trkpt lat="37.72532139415496" lon="14.772866274671992"><ele>493.0</ele><time>2026-04-06T10:12:02Z</time></trkpt><trkpt lat="37.725358938716504" lon="14.772972036891627"><ele>491.0</ele><time>2026-04-06T10:12:03Z</time></trkpt><trkpt lat="37.72542271470051" lon="14.77306240507611"><ele>489.0</ele><time>2026-04-06T10:12:04Z</time></trkpt><trkpt lat="37.7254602121154" lon="14.773167996422025"><ele>487.0</ele><time>2026-04-06T10:12:05Z</time></trkpt><trkpt lat="37.72548998381396" lon="14.773291871605549"><ele>485.0</ele><time>2026-04-06T10:12:06Z</time></trkpt><trkpt lat="37.72549955355092" lon="14.77337634591284"><ele>483.0</ele><time>2026-04-06T10:12:07Z</time></trkpt><trkpt lat="37.72552797658471" lon="14.77347166049944"><ele>482.5</ele><time>2026-04-06T10:12:08Z</time></trkpt><trkpt lat="37.725536891428725" lon="14.773556842093354"><ele>482.0</ele><time>2026-04-06T10:12:09Z</time></trkpt><trkpt lat="37.72553139977144" lon="14.773669508192304"><ele>481.5</ele><time>2026-04-06T10:12:11Z</time></trkpt><trkpt lat="37.725528356471536" lon="14.773756635644949"><ele>481.0</ele><time>2026-04-06T10:12:11.999Z</time></trkpt><trkpt lat="37.72552232566819" lon="14.773842585425214"><ele>480.5</ele><time>2026-04-06T10:12:12.999Z</time></trkpt><trkpt lat="37.7255229369628" lon="14.773922929690812"><ele>480.0</ele><time>2026-04-06T10:12:13.999Z</time></trkpt><trkpt lat="37.72556813829798" lon="14.774067097920161"><ele>480.0</ele><time>2026-04-06T10:12:15.999Z</time></trkpt><trkpt lat="37.7256093845883" lon="14.77414413473333"><ele>480.0</ele><time>2026-04-06T10:12:16.999Z</time></trkpt><trkpt lat="37.725633357684366" lon="14.774241287262665"><ele>480.0</ele><time>2026-04-06T10:12:17.999Z</time></trkpt><trkpt lat="37.72564758922123" lon="14.774341055509504"><ele>480.0</ele><time>2026-04-06T10:12:18.999Z</time></trkpt><trkpt lat="37.72573489434847" lon="14.77443171849025"><ele>480.0</ele><time>2026-04-06T10:12:20.999Z</time></trkpt><trkpt lat="37.72580660410901" lon="14.774431672703082"><ele>480.0</ele><time>2026-04-06T10:12:21.999Z</time></trkpt><trkpt lat="37.72589736012864" lon="14.774434243013081"><ele>479.3333333333333</ele><time>2026-04-06T10:12:22.999Z</time></trkpt><trkpt lat="37.72597584426062" lon="14.774466194434904"><ele>478.66666666666663</ele><time>2026-04-06T10:12:23.999Z</time></trkpt><trkpt lat="37.72605163875812" lon="14.774503111186261"><ele>478.0</ele><time>2026-04-06T10:12:24.999Z</time></trkpt><trkpt lat="37.726108524923944" lon="14.774568033886371"><ele>477.3333333333333</ele><time>2026-04-06T10:12:25.999Z</time></trkpt><trkpt lat="37.72616220385755" lon="14.774646887796427"><ele>476.66666666666663</ele><time>2026-04-06T10:12:26.999Z</time></trkpt><trkpt lat="37.72622010601046" lon="14.774730863859034"><ele>476.0</ele><time>2026-04-06T10:12:27.999Z</time></trkpt><trkpt lat="37.726268956049715" lon="14.774841882895174"><ele>474.0</ele><time>2026-04-06T10:12:28.999Z</time></trkpt><trkpt lat="37.726313500248374" lon="14.774972435846239"><ele>472.0</ele><time>2026-04-06T10:12:29.999Z</time></trkpt><trkpt lat="37.72637121528012" lon="14.77507965294042"><ele>470.0</ele><time>2026-04-06T10:12:30.999Z</time></trkpt><trkpt lat="37.72642443659682" lon="14.775178435135716"><ele>468.0</ele><time>2026-04-06T10:12:31.999Z</time></trkpt><trkpt lat="37.72644196778628" lon="14.775281697857688"><ele>466.0</ele><time>2026-04-06T10:12:32.999Z</time></trkpt><trkpt lat="37.726445446055756" lon="14.775378427642188"><ele>465.50000000000006</ele><time>2026-04-06T10:12:33.999Z</time></trkpt><trkpt lat="37.72648386652139" lon="14.775494992745271"><ele>465.0</ele><time>2026-04-06T10:12:35.999Z</time></trkpt><trkpt lat="37.72655861967337" lon="14.775524476132997"><ele>464.5</ele><time>2026-04-06T10:12:36.999Z</time></trkpt><trkpt lat="37.726649065956515" lon="14.775540511823772"><ele>464.0</ele><time>2026-04-06T10:12:37.999Z</time></trkpt><trkpt lat="37.726755410511984" lon="14.775524887288329"><ele>463.50000000000006</ele><time>2026-04-06T10:12:38.999Z</time></trkpt><trkpt lat="37.72682481179876" lon="14.77554114358273"><ele>463.0</ele><time>2026-04-06T10:12:39.999Z</time></trkpt><trkpt lat="37.72687806919071" lon="14.775583947216301"><ele>461.0</ele><time>2026-04-06T10:12:40.999Z</time></trkpt><trkpt lat="37.72691589340921" lon="14.775658674187984"><ele>458.99999999999994</ele><time>2026-04-06T10:12:41.999Z</time></trkpt><trkpt lat="37.72692611418253" lon="14.775779036563309"><ele>456.99999999999994</ele><time>2026-04-06T10:12:42.999Z</time></trkpt><trkpt lat="37.726949809462404" lon="14.775929295198745"><ele>455.0</ele><time>2026-04-06T10:12:43.999Z</time></trkpt><trkpt lat="37.72703522977741" lon="14.776078878195314"><ele>453.0</ele><time>2026-04-06T10:12:45.999Z</time></trkpt><trkpt lat="37.727070032054385" lon="14.776167821610962"><ele>453.0</ele><time>2026-04-06T10:12:46.999Z</time></trkpt><trkpt lat="37.72713460352713" lon="14.776320642378527"><ele>452.99999999999994</ele><time>2026-04-06T10:12:48.999Z</time></trkpt><trkpt lat="37.727180773447294" lon="14.776391368114398"><ele>452.99999999999994</ele><time>2026-04-06T10:12:49.999Z</time></trkpt><trkpt lat="37.72722167666239" lon="14.776458112015435"><ele>453.0</ele><time>2026-04-06T10:12:50.999Z</time></trkpt><trkpt lat="37.72725151262435" lon="14.77659401415504"><ele>453.0</ele><time>2026-04-06T10:12:52.999Z</time></trkpt><trkpt lat="37.727247102238536" lon="14.776676496455709"><ele>453.0</ele><time>2026-04-06T10:12:53.999Z</time></trkpt><trkpt lat="37.72727488851994" lon="14.776767798833696"><ele>453.0</ele><time>2026-04-06T10:12:54.999Z</time></trkpt><trkpt lat="37.72728779313155" lon="14.776864513901577"><ele>453.0</ele><time>2026-04-06T10:12:55.999Z</time></trkpt><trkpt lat="37.72728137009237" lon="14.776984252314861"><ele>453.0</ele><time>2026-04-06T10:12:56.999Z</time></trkpt><trkpt lat="37.72729093005919" lon="14.777089128337337"><ele>453.0</ele><time>2026-04-06T10:12:57.999Z</time></trkpt><trkpt lat="37.727317820378246" lon="14.777175587766047"><ele>453.0</ele><time>2026-04-06T10:12:58.999Z</time></trkpt><trkpt lat="37.72736410196892" lon="14.777250657913815"><ele>453.0</ele><time>2026-04-06T10:12:59.999Z</time></trkpt><trkpt lat="37.7274792612713" lon="14.777367118134963"><ele>452.99999999999994</ele><time>2026-04-06T10:13:01.999Z</time></trkpt><trkpt lat="37.727526234660644" lon="14.77745551245281"><ele>452.99999999999994</ele><time>2026-04-06T10:13:02.999Z</time></trkpt><trkpt lat="37.72755684165527" lon="14.777543469411826"><ele>453.0</ele><time>2026-04-06T10:13:03.999Z</time></trkpt><trkpt lat="37.7275791291133" lon="14.777636169141752"><ele>453.0</ele><time>2026-04-06T10:13:04.999Z</time></trkpt><trkpt lat="37.727587900253006" lon="14.777728571030282"><ele>452.3333333333333</ele><time>2026-04-06T10:13:05.999Z</time></trkpt><trkpt lat="37.72758879751479" lon="14.777818657345152"><ele>451.66666666666663</ele><time>2026-04-06T10:13:06.999Z</time></trkpt><trkpt lat="37.72760130347631" lon="14.777913552052764"><ele>451.0</ele><time>2026-04-06T10:13:07.999Z</time></trkpt><trkpt lat="37.727576044544534" lon="14.778029812304274"><ele>450.3333333333333</ele><time>2026-04-06T10:13:08.999Z</time></trkpt><trkpt lat="37.72756995349555" lon="14.778133382890305"><ele>449.66666666666663</ele><time>2026-04-06T10:13:09.999Z</time></trkpt><trkpt lat="37.72757710058226" lon="14.778257865857915"><ele>449.0</ele><time>2026-04-06T10:13:10.999Z</time></trkpt><trkpt lat="37.72755365895995" lon="14.778383458933275"><ele>449.0</ele><time>2026-04-06T10:13:12Z</time></trkpt><trkpt lat="37.72754128496052" lon="14.778501213168294"><ele>449.0</ele><time>2026-04-06T10:13:13Z</time></trkpt><trkpt lat="37.727533782177396" lon="14.778610599155519"><ele>449.0</ele><time>2026-04-06T10:13:14Z</time></trkpt><trkpt lat="37.727529933181096" lon="14.778749174454848"><ele>449.0</ele><time>2026-04-06T10:13:15Z</time></trkpt><trkpt lat="37.727533111121154" lon="14.778862547488862"><ele>449.0</ele><time>2026-04-06T10:13:16Z</time></trkpt><trkpt lat="37.727561956231305" lon="14.778956709783495"><ele>448.2</ele><time>2026-04-06T10:13:17Z</time></trkpt><trkpt lat="37.72762687217848" lon="14.779081105585137"><ele>447.4</ele><time>2026-04-06T10:13:19Z</time></trkpt><trkpt lat="37.72765658990978" lon="14.779176759331541"><ele>446.6</ele><time>2026-04-06T10:13:20Z</time></trkpt><trkpt lat="37.727693076287565" lon="14.779311416138333"><ele>445.8</ele><time>2026-04-06T10:13:21Z</time></trkpt><trkpt lat="37.727730667710965" lon="14.77943953450197"><ele>445.0</ele><time>2026-04-06T10:13:22Z</time></trkpt><trkpt lat="37.72777614999144" lon="14.779571873801341"><ele>439.8</ele><time>2026-04-06T10:13:23Z</time></trkpt><trkpt lat="37.72783141988332" lon="14.77967416612143"><ele>434.6</ele><time>2026-04-06T10:13:24Z</time></trkpt><trkpt lat="37.72787238900892" lon="14.7797819141886"><ele>429.4</ele><time>2026-04-06T10:13:25Z</time></trkpt><trkpt lat="37.727900435856796" lon="14.779897060983812"><ele>424.2</ele><time>2026-04-06T10:13:26Z</time></trkpt><trkpt lat="37.727933618838925" lon="14.780005220884703"><ele>419.0</ele><time>2026-04-06T10:13:27Z</time></trkpt><trkpt lat="37.72797341431012" lon="14.780093103469886"><ele>417.8333333333333</ele><time>2026-04-06T10:13:28Z</time></trkpt><trkpt lat="37.72804057209538" lon="14.780212284002241"><ele>416.66666666666663</ele><time>2026-04-06T10:13:30Z</time></trkpt><trkpt lat="37.728089958562386" lon="14.780271262151182"><ele>415.5</ele><time>2026-04-06T10:13:31Z</time></trkpt><trkpt lat="37.72812964247769" lon="14.78034886257307"><ele>414.33333333333337</ele><time>2026-04-06T10:13:32Z</time></trkpt><trkpt lat="37.72815412950689" lon="14.780434498163263"><ele>413.1666666666667</ele><time>2026-04-06T10:13:33Z</time></trkpt><trkpt lat="37.72818373811668" lon="14.780530066568723"><ele>412.0</ele><time>2026-04-06T10:13:34Z</time></trkpt><trkpt lat="37.72821906322039" lon="14.780626545698693"><ele>412.0</ele><time>2026-04-06T10:13:35Z</time></trkpt><trkpt lat="37.72825903087108" lon="14.780721675345799"><ele>412.0</ele><time>2026-04-06T10:13:36Z</time></trkpt><trkpt lat="37.728310550381096" lon="14.780840632116663"><ele>412.0</ele><time>2026-04-06T10:13:37Z</time></trkpt><trkpt lat="37.728377384165356" lon="14.78094417944634"><ele>412.0</ele><time>2026-04-06T10:13:38Z</time></trkpt><trkpt lat="37.72843210402919" lon="14.781070372778291"><ele>412.0</ele><time>2026-04-06T10:13:39Z</time></trkpt><trkpt lat="37.72844941413865" lon="14.781207646196997"><ele>411.20000000000005</ele><time>2026-04-06T10:13:40Z</time></trkpt><trkpt lat="37.72845640169724" lon="14.781321528745769"><ele>410.4</ele><time>2026-04-06T10:13:41Z</time></trkpt><trkpt lat="37.72848418318075" lon="14.781436249706706"><ele>409.6</ele><time>2026-04-06T10:13:42Z</time></trkpt><trkpt lat="37.72852482169557" lon="14.781535555741058"><ele>408.79999999999995</ele><time>2026-04-06T10:13:43Z</time></trkpt><trkpt lat="37.7285563636102" lon="14.781631968446677"><ele>408.0</ele><time>2026-04-06T10:13:44Z</time></trkpt><trkpt lat="37.72863760004823" lon="14.781747801072058"><ele>408.0</ele><time>2026-04-06T10:13:46Z</time></trkpt><trkpt lat="37.72873797190063" lon="14.781802733526382"><ele>408.0</ele><time>2026-04-06T10:13:48Z</time></trkpt><trkpt lat="37.728811832681686" lon="14.78186780591476"><ele>408.0</ele><time>2026-04-06T10:13:50Z</time></trkpt><trkpt lat="37.728843168403785" lon="14.78196666999906"><ele>408.0</ele><time>2026-04-06T10:13:51Z</time></trkpt><trkpt lat="37.728903952755196" lon="14.782069285787225"><ele>408.0</ele><time>2026-04-06T10:13:52Z</time></trkpt><trkpt lat="37.7290218407041" lon="14.782235905673074"><ele>405.33333333333337</ele><time>2026-04-06T10:13:53Z</time></trkpt><trkpt lat="37.729125280716396" lon="14.782456579924748"><ele>402.6666666666667</ele><time>2026-04-06T10:13:54Z</time></trkpt><trkpt lat="37.729244651773215" lon="14.782655197529074"><ele>400.0</ele><time>2026-04-06T10:13:55Z</time></trkpt><trkpt lat="37.72937986485552" lon="14.782878290251327"><ele>400.0</ele><time>2026-04-06T10:13:56Z</time></trkpt><trkpt lat="37.72950617270987" lon="14.783084877025326"><ele>400.0</ele><time>2026-04-06T10:13:57Z</time></trkpt><trkpt lat="37.72961875343717" lon="14.783269011918028"><ele>400.0</ele><time>2026-04-06T10:13:58Z</time></trkpt><trkpt lat="37.72970021826086" lon="14.783402254269065"><ele>399.6666666666667</ele><time>2026-04-06T10:13:59Z</time></trkpt><trkpt lat="37.729795110231876" lon="14.783557522700711"><ele>399.33333333333337</ele><time>2026-04-06T10:14:00Z</time></trkpt><trkpt lat="37.72988587163289" lon="14.783704088453206"><ele>399.0</ele><time>2026-04-06T10:14:01Z</time></trkpt><trkpt lat="37.729982352033886" lon="14.783859890239693"><ele>399.0</ele><time>2026-04-06T10:14:02Z</time></trkpt><trkpt lat="37.73008054251762" lon="14.78401845352405"><ele>399.0</ele><time>2026-04-06T10:14:03Z</time></trkpt><trkpt lat="37.73019242430195" lon="14.784199126215581"><ele>399.0</ele><time>2026-04-06T10:14:04Z</time></trkpt><trkpt lat="37.73028608153362" lon="14.784351734513809"><ele>400.5</ele><time>2026-04-06T10:14:05Z</time></trkpt><trkpt lat="37.73037020569033" lon="14.784488974033474"><ele>402.0</ele><time>2026-04-06T10:14:06Z</time></trkpt><trkpt lat="37.73045159267338" lon="14.784621748303813"><ele>403.5</ele><time>2026-04-06T10:14:07Z</time></trkpt><trkpt lat="37.730525309617015" lon="14.784742009711563"><ele>405.0</ele><time>2026-04-06T10:14:08Z</time></trkpt><trkpt lat="37.73059686873998" lon="14.784858750937952"><ele>405.0</ele><time>2026-04-06T10:14:09Z</time></trkpt><trkpt lat="37.73066365694414" lon="14.784970758426313"><ele>405.0</ele><time>2026-04-06T10:14:09.999Z</time></trkpt><trkpt lat="37.73073518059456" lon="14.785054252044983"><ele>405.0</ele><time>2026-04-06T10:14:10.999Z</time></trkpt><trkpt lat="37.73079113608716" lon="14.785150328211158"><ele>405.0</ele><time>2026-04-06T10:14:11.999Z</time></trkpt><trkpt lat="37.730853087877264" lon="14.785244191538752"><ele>405.0</ele><time>2026-04-06T10:14:12.999Z</time></trkpt><trkpt lat="37.73089313551418" lon="14.78531719768339"><ele>405.2</ele><time>2026-04-06T10:14:13.999Z</time></trkpt><trkpt lat="37.73093839312645" lon="14.785387324387914"><ele>405.4</ele><time>2026-04-06T10:14:14.999Z</time></trkpt><trkpt lat="37.73100591203501" lon="14.78539536199712"><ele>405.6</ele><time>2026-04-06T10:14:15.999Z</time></trkpt><trkpt lat="37.731096375121325" lon="14.785430202133035"><ele>405.8</ele><time>2026-04-06T10:14:17.999Z</time></trkpt><trkpt lat="37.731163255485015" lon="14.785430578218705"><ele>406.0</ele><time>2026-04-06T10:14:19.999Z</time></trkpt><trkpt lat="37.731234154352" lon="14.785219808222461"><ele>406.75</ele><time>2026-04-06T10:14:20.999Z</time></trkpt><trkpt lat="37.731261236141464" lon="14.785106557918335"><ele>407.5</ele><time>2026-04-06T10:14:21.999Z</time></trkpt><trkpt lat="37.73129763617451" lon="14.784973665190702"><ele>408.25</ele><time>2026-04-06T10:14:22.999Z</time></trkpt><trkpt lat="37.73134103698936" lon="14.784831619902027"><ele>409.0</ele><time>2026-04-06T10:14:23.999Z</time></trkpt><trkpt lat="37.731389824829655" lon="14.78468165868217"><ele>409.0</ele><time>2026-04-06T10:14:24.999Z</time></trkpt><trkpt lat="37.73145301690975" lon="14.784533502096352"><ele>409.0</ele><time>2026-04-06T10:14:25.999Z</time></trkpt><trkpt lat="37.731542716434255" lon="14.784408478019461"><ele>409.0</ele><time>2026-04-06T10:14:26.999Z</time></trkpt><trkpt lat="37.731650117148824" lon="14.784307667565036"><ele>409.0</ele><time>2026-04-06T10:14:27.999Z</time></trkpt><trkpt lat="37.73176688557909" lon="14.784231098088831"><ele>409.25</ele><time>2026-04-06T10:14:28.999Z</time></trkpt><trkpt lat="37.73189010474956" lon="14.784202076765013"><ele>409.5</ele><time>2026-04-06T10:14:29.999Z</time></trkpt><trkpt lat="37.732020131580676" lon="14.784165079654311"><ele>409.75</ele><time>2026-04-06T10:14:30.999Z</time></trkpt><trkpt lat="37.732157351064096" lon="14.784113927611362"><ele>410.0</ele><time>2026-04-06T10:14:31.999Z</time></trkpt><trkpt lat="37.7323024977736" lon="14.784069044668811"><ele>410.0</ele><time>2026-04-06T10:14:32.999Z</time></trkpt><trkpt lat="37.73245076649225" lon="14.78402638919892"><ele>410.0</ele><time>2026-04-06T10:14:33.999Z</time></trkpt><trkpt lat="37.732601525036166" lon="14.783994025459304"><ele>410.0</ele><time>2026-04-06T10:14:34.999Z</time></trkpt><trkpt lat="37.73275343691216" lon="14.783961892343072"><ele>410.0</ele><time>2026-04-06T10:14:35.999Z</time></trkpt><trkpt lat="37.7329062097135" lon="14.783925102744757"><ele>410.0</ele><time>2026-04-06T10:14:36.999Z</time></trkpt><trkpt lat="37.7330555735069" lon="14.78390119357016"><ele>410.0</ele><time>2026-04-06T10:14:37.999Z</time></trkpt><trkpt lat="37.73319672755917" lon="14.783877146728782"><ele>410.0</ele><time>2026-04-06T10:14:38.999Z</time></trkpt><trkpt lat="37.7333363663321" lon="14.783870084918304"><ele>410.0</ele><time>2026-04-06T10:14:39.999Z</time></trkpt><trkpt lat="37.733468691137034" lon="14.783850945086686"><ele>410.0</ele><time>2026-04-06T10:14:40.999Z</time></trkpt><trkpt lat="37.733598947872885" lon="14.783818907800102"><ele>410.0</ele><time>2026-04-06T10:14:41.999Z</time></trkpt><trkpt lat="37.733738742546294" lon="14.783772372650281"><ele>410.0</ele><time>2026-04-06T10:14:42.999Z</time></trkpt><trkpt lat="37.733871220241056" lon="14.783719233573416"><ele>409.75</ele><time>2026-04-06T10:14:43.999Z</time></trkpt><trkpt lat="37.73401664186595" lon="14.783680448808443"><ele>409.5</ele><time>2026-04-06T10:14:44.999Z</time></trkpt><trkpt lat="37.73413781928142" lon="14.783631942582742"><ele>409.25</ele><time>2026-04-06T10:14:45.999Z</time></trkpt><trkpt lat="37.73425941844115" lon="14.783583267782864"><ele>409.0</ele><time>2026-04-06T10:14:46.999Z</time></trkpt><trkpt lat="37.73438074639581" lon="14.783536482062752"><ele>408.75</ele><time>2026-04-06T10:14:47.999Z</time></trkpt><trkpt lat="37.734498080649786" lon="14.783502226675282"><ele>408.5</ele><time>2026-04-06T10:14:48.999Z</time></trkpt><trkpt lat="37.734617696260266" lon="14.783490841566248"><ele>408.25</ele><time>2026-04-06T10:14:49.999Z</time></trkpt><trkpt lat="37.7347226219788" lon="14.783504378150807"><ele>408.0</ele><time>2026-04-06T10:14:50.999Z</time></trkpt><trkpt lat="37.73483561570998" lon="14.783499084035958"><ele>408.75</ele><time>2026-04-06T10:14:51.999Z</time></trkpt><trkpt lat="37.73494644693924" lon="14.783542295223654"><ele>409.5</ele><time>2026-04-06T10:14:52.999Z</time></trkpt><trkpt lat="37.73506866868644" lon="14.783604465986295"><ele>410.25</ele><time>2026-04-06T10:14:53.999Z</time></trkpt><trkpt lat="37.73517451450803" lon="14.78371069070266"><ele>411.0</ele><time>2026-04-06T10:14:54.999Z</time></trkpt><trkpt lat="37.735305586095805" lon="14.783812217204542"><ele>411.0</ele><time>2026-04-06T10:14:55.999Z</time></trkpt><trkpt lat="37.735450696349055" lon="14.783909291262798"><ele>411.0</ele><time>2026-04-06T10:14:56.999Z</time></trkpt><trkpt lat="37.73559613272631" lon="14.783989869235066"><ele>411.0</ele><time>2026-04-06T10:14:57.999Z</time></trkpt><trkpt lat="37.73574198251657" lon="14.784083528072955"><ele>411.0</ele><time>2026-04-06T10:14:58.999Z</time></trkpt><trkpt lat="37.735912541066185" lon="14.78418742087385"><ele>411.0</ele><time>2026-04-06T10:14:59.999Z</time></trkpt><trkpt lat="37.736069059215" lon="14.784300899641254"><ele>411.0</ele><time>2026-04-06T10:15:00.999Z</time></trkpt><trkpt lat="37.73622932021389" lon="14.784400693635584"><ele>411.0</ele><time>2026-04-06T10:15:01.999Z</time></trkpt><trkpt lat="37.73638632518607" lon="14.784474401403504"><ele>411.0</ele><time>2026-04-06T10:15:02.999Z</time></trkpt><trkpt lat="37.7365575982794" lon="14.784515438265322"><ele>411.0</ele><time>2026-04-06T10:15:03.999Z</time></trkpt><trkpt lat="37.73673213213438" lon="14.784514640838164"><ele>411.0</ele><time>2026-04-06T10:15:04.999Z</time></trkpt><trkpt lat="37.73691391853937" lon="14.784488636187698"><ele>411.0</ele><time>2026-04-06T10:15:05.999Z</time></trkpt><trkpt lat="37.73709349117188" lon="14.78445725355391"><ele>411.0</ele><time>2026-04-06T10:15:06.999Z</time></trkpt><trkpt lat="37.73728462445693" lon="14.784438231625158"><ele>411.0</ele><time>2026-04-06T10:15:07.999Z</time></trkpt><trkpt lat="37.73746017475314" lon="14.784407754242611"><ele>411.0</ele><time>2026-04-06T10:15:08.999Z</time></trkpt><trkpt lat="37.73763911397848" lon="14.7843698405508"><ele>411.0</ele><time>2026-04-06T10:15:09.999Z</time></trkpt><trkpt lat="37.73781003944756" lon="14.784338342333141"><ele>411.66666666666663</ele><time>2026-04-06T10:15:10.999Z</time></trkpt><trkpt lat="37.73798056429393" lon="14.784319175664832"><ele>412.3333333333333</ele><time>2026-04-06T10:15:11.999Z</time></trkpt><trkpt lat="37.73814377214715" lon="14.784310339085776"><ele>413.0</ele><time>2026-04-06T10:15:12.999Z</time></trkpt><trkpt lat="37.73831519893286" lon="14.784315955916966"><ele>413.0</ele><time>2026-04-06T10:15:13.999Z</time></trkpt><trkpt lat="37.73847919522971" lon="14.78435217492055"><ele>413.0</ele><time>2026-04-06T10:15:14.999Z</time></trkpt><trkpt lat="37.73863895096951" lon="14.784408815385582"><ele>413.0</ele><time>2026-04-06T10:15:15.999Z</time></trkpt><trkpt lat="37.73880352420895" lon="14.784480328233778"><ele>413.0</ele><time>2026-04-06T10:15:16.999Z</time></trkpt><trkpt lat="37.73897133062336" lon="14.784556590526618"><ele>413.0</ele><time>2026-04-06T10:15:18Z</time></trkpt><trkpt lat="37.73913605137313" lon="14.784625238101532"><ele>413.0</ele><time>2026-04-06T10:15:19Z</time></trkpt><trkpt lat="37.73929641597494" lon="14.784684807373068"><ele>412.0</ele><time>2026-04-06T10:15:20Z</time></trkpt><trkpt lat="37.73944912779712" lon="14.784781776808538"><ele>411.0</ele><time>2026-04-06T10:15:21Z</time></trkpt><trkpt lat="37.73958694896163" lon="14.78491599715489"><ele>410.0</ele><time>2026-04-06T10:15:22Z</time></trkpt><trkpt lat="37.73971597024562" lon="14.78507093253415"><ele>411.0</ele><time>2026-04-06T10:15:23Z</time></trkpt><trkpt lat="37.73986118289687" lon="14.785221042794744"><ele>412.0</ele><time>2026-04-06T10:15:24Z</time></trkpt><trkpt lat="37.740000778355736" lon="14.785378304386983"><ele>413.0</ele><time>2026-04-06T10:15:25Z</time></trkpt><trkpt lat="37.74014599426698" lon="14.785538530208957"><ele>412.3333333333333</ele><time>2026-04-06T10:15:26Z</time></trkpt><trkpt lat="37.74028656922026" lon="14.785696294433931"><ele>411.66666666666663</ele><time>2026-04-06T10:15:27Z</time></trkpt><trkpt lat="37.740420675930466" lon="14.78585209322716"><ele>411.0</ele><time>2026-04-06T10:15:28Z</time></trkpt><trkpt lat="37.740542604606205" lon="14.785994750111369"><ele>412.33333333333337</ele><time>2026-04-06T10:15:29Z</time></trkpt><trkpt lat="37.74069285630021" lon="14.786129470058894"><ele>413.6666666666667</ele><time>2026-04-06T10:15:30Z</time></trkpt><trkpt lat="37.740858959317244" lon="14.786226563272777"><ele>415.0</ele><time>2026-04-06T10:15:31Z</time></trkpt><trkpt lat="37.7410258105171" lon="14.78629332998307"><ele>414.6666666666667</ele><time>2026-04-06T10:15:32Z</time></trkpt><trkpt lat="37.741190946395925" lon="14.786362380752566"><ele>414.33333333333337</ele><time>2026-04-06T10:15:33Z</time></trkpt><trkpt lat="37.74136376380601" lon="14.786428073331102"><ele>414.0</ele><time>2026-04-06T10:15:34Z</time></trkpt><trkpt lat="37.741523336380574" lon="14.78647169123981"><ele>414.0</ele><time>2026-04-06T10:15:35Z</time></trkpt><trkpt lat="37.741689891305" lon="14.786506512113784"><ele>414.0</ele><time>2026-04-06T10:15:36Z</time></trkpt><trkpt lat="37.74181534043954" lon="14.786550067692668"><ele>414.0</ele><time>2026-04-06T10:15:37Z</time></trkpt><trkpt lat="37.7419414213123" lon="14.786582646206837"><ele>414.0</ele><time>2026-04-06T10:15:38Z</time></trkpt><trkpt lat="37.7420516747131" lon="14.786625167760077"><ele>414.25</ele><time>2026-04-06T10:15:39Z</time></trkpt><trkpt lat="37.74215483773556" lon="14.786686204777611"><ele>414.5</ele><time>2026-04-06T10:15:40Z</time></trkpt><trkpt lat="37.74226942800634" lon="14.78677621876265"><ele>414.75</ele><time>2026-04-06T10:15:41Z</time></trkpt><trkpt lat="37.74235429599295" lon="14.786891104525102"><ele>415.0</ele><time>2026-04-06T10:15:42Z</time></trkpt><trkpt lat="37.742418810821704" lon="14.787031470235355"><ele>415.5</ele><time>2026-04-06T10:15:43Z</time></trkpt><trkpt lat="37.74245220662196" lon="14.787192829246859"><ele>416.0</ele><time>2026-04-06T10:15:44Z</time></trkpt><trkpt lat="37.74246996702961" lon="14.787381078809462"><ele>416.5</ele><time>2026-04-06T10:15:45Z</time></trkpt><trkpt lat="37.742463823207196" lon="14.787587855418941"><ele>417.0</ele><time>2026-04-06T10:15:46Z</time></trkpt><trkpt lat="37.74244192210157" lon="14.787805015779295"><ele>417.0</ele><time>2026-04-06T10:15:47Z</time></trkpt><trkpt lat="37.7424205701636" lon="14.78803737217379"><ele>417.0</ele><time>2026-04-06T10:15:48Z</time></trkpt><trkpt lat="37.74241249098422" lon="14.788276793998323"><ele>417.0</ele><time>2026-04-06T10:15:49Z</time></trkpt><trkpt lat="37.74240221017501" lon="14.788524383041569"><ele>417.66666666666663</ele><time>2026-04-06T10:15:50Z</time></trkpt><trkpt lat="37.742384962141095" lon="14.78877255669171"><ele>418.3333333333333</ele><time>2026-04-06T10:15:51Z</time></trkpt><trkpt lat="37.74237119108591" lon="14.789023307849215"><ele>419.0</ele><time>2026-04-06T10:15:52Z</time></trkpt><trkpt lat="37.74235261847753" lon="14.789265378032104"><ele>420.66666666666663</ele><time>2026-04-06T10:15:53Z</time></trkpt><trkpt lat="37.74233987058812" lon="14.78950884065584"><ele>422.33333333333337</ele><time>2026-04-06T10:15:54Z</time></trkpt><trkpt lat="37.742326364921425" lon="14.789743472504547"><ele>424.0</ele><time>2026-04-06T10:15:55Z</time></trkpt><trkpt lat="37.742316733662385" lon="14.789937801903523"><ele>424.0</ele><time>2026-04-06T10:15:56Z</time></trkpt><trkpt lat="37.7423162705183" lon="14.79012746313387"><ele>424.0</ele><time>2026-04-06T10:15:57Z</time></trkpt><trkpt lat="37.74234519965244" lon="14.790302275091328"><ele>424.0</ele><time>2026-04-06T10:15:58Z</time></trkpt><trkpt lat="37.74241918209495" lon="14.790458216779852"><ele>424.0</ele><time>2026-04-06T10:15:59Z</time></trkpt><trkpt lat="37.74252096665937" lon="14.790565534537674"><ele>425.5</ele><time>2026-04-06T10:16:00Z</time></trkpt><trkpt lat="37.74264631360518" lon="14.790629423125884"><ele>427.0</ele><time>2026-04-06T10:16:01Z</time></trkpt><trkpt lat="37.74278549872929" lon="14.790673829273839"><ele>428.5</ele><time>2026-04-06T10:16:02Z</time></trkpt><trkpt lat="37.7429293486657" lon="14.790712929553274"><ele>430.0</ele><time>2026-04-06T10:16:03Z</time></trkpt><trkpt lat="37.743077876124474" lon="14.790721908254259"><ele>432.25</ele><time>2026-04-06T10:16:04Z</time></trkpt><trkpt lat="37.74321097308895" lon="14.790675906594874"><ele>434.5</ele><time>2026-04-06T10:16:05Z</time></trkpt><trkpt lat="37.74334724312986" lon="14.790600577510071"><ele>436.75</ele><time>2026-04-06T10:16:06Z</time></trkpt><trkpt lat="37.74346532620752" lon="14.790534859271526"><ele>439.0</ele><time>2026-04-06T10:16:07Z</time></trkpt><trkpt lat="37.743589671037604" lon="14.790521695192657"><ele>439.25</ele><time>2026-04-06T10:16:08Z</time></trkpt><trkpt lat="37.743706728289844" lon="14.790561286032935"><ele>439.5</ele><time>2026-04-06T10:16:08.999Z</time></trkpt><trkpt lat="37.743814522113006" lon="14.790652465535363"><ele>439.75</ele><time>2026-04-06T10:16:09.999Z</time></trkpt><trkpt lat="37.74392803146586" lon="14.79077215695514"><ele>440.0</ele><time>2026-04-06T10:16:10.999Z</time></trkpt><trkpt lat="37.74404401332365" lon="14.79090686578811"><ele>442.3333333333333</ele><time>2026-04-06T10:16:11.999Z</time></trkpt><trkpt lat="37.744171873444095" lon="14.79104617520339"><ele>444.66666666666663</ele><time>2026-04-06T10:16:12.999Z</time></trkpt><trkpt lat="37.744261525059805" lon="14.791208635007989"><ele>447.0</ele><time>2026-04-06T10:16:13.999Z</time></trkpt><trkpt lat="37.74437713091653" lon="14.79136793855979"><ele>446.66666666666663</ele><time>2026-04-06T10:16:14.999Z</time></trkpt><trkpt lat="37.74450479060487" lon="14.791522935225657"><ele>446.3333333333333</ele><time>2026-04-06T10:16:15.999Z</time></trkpt><trkpt lat="37.744636014259314" lon="14.791650715171931"><ele>446.0</ele><time>2026-04-06T10:16:16.999Z</time></trkpt><trkpt lat="37.7447862105413" lon="14.791726476396734"><ele>446.0</ele><time>2026-04-06T10:16:17.999Z</time></trkpt><trkpt lat="37.7449333435737" lon="14.791820835157809"><ele>446.0</ele><time>2026-04-06T10:16:18.999Z</time></trkpt><trkpt lat="37.745067630582945" lon="14.791901577352345"><ele>446.0</ele><time>2026-04-06T10:16:19.999Z</time></trkpt><trkpt lat="37.74519931827059" lon="14.792000643929773"><ele>448.0</ele><time>2026-04-06T10:16:20.999Z</time></trkpt><trkpt lat="37.74530169391705" lon="14.792102708781929"><ele>450.0</ele><time>2026-04-06T10:16:21.999Z</time></trkpt><trkpt lat="37.745395298386974" lon="14.792246623884855"><ele>452.0</ele><time>2026-04-06T10:16:22.999Z</time></trkpt><trkpt lat="37.74546702936204" lon="14.792403293854024"><ele>454.0</ele><time>2026-04-06T10:16:23.999Z</time></trkpt><trkpt lat="37.74551960290588" lon="14.792562172176458"><ele>454.0</ele><time>2026-04-06T10:16:24.999Z</time></trkpt><trkpt lat="37.745591482441874" lon="14.792679700073002"><ele>454.0</ele><time>2026-04-06T10:16:25.999Z</time></trkpt><trkpt lat="37.74569122617249" lon="14.792746191075562"><ele>454.0</ele><time>2026-04-06T10:16:26.999Z</time></trkpt><trkpt lat="37.74580554112175" lon="14.792761023491078"><ele>454.0</ele><time>2026-04-06T10:16:27.999Z</time></trkpt><trkpt lat="37.74589922988775" lon="14.792730889327904"><ele>454.0</ele><time>2026-04-06T10:16:28.999Z</time></trkpt><trkpt lat="37.74602896617889" lon="14.792664398959268"><ele>454.75</ele><time>2026-04-06T10:16:29.999Z</time></trkpt><trkpt lat="37.74614757283219" lon="14.792612307977858"><ele>455.5</ele><time>2026-04-06T10:16:30.999Z</time></trkpt><trkpt lat="37.746261178969235" lon="14.792599174553283"><ele>456.25</ele><time>2026-04-06T10:16:31.999Z</time></trkpt><trkpt lat="37.74638112659886" lon="14.792617094094542"><ele>457.0</ele><time>2026-04-06T10:16:32.999Z</time></trkpt><trkpt lat="37.74651164354434" lon="14.79264313794741"><ele>457.0</ele><time>2026-04-06T10:16:33.999Z</time></trkpt><trkpt lat="37.74665929604322" lon="14.79265768964312"><ele>457.0</ele><time>2026-04-06T10:16:34.999Z</time></trkpt><trkpt lat="37.74679520491342" lon="14.792684466146495"><ele>457.0</ele><time>2026-04-06T10:16:35.999Z</time></trkpt><trkpt lat="37.74692098453183" lon="14.792713753939685"><ele>457.0</ele><time>2026-04-06T10:16:36.999Z</time></trkpt><trkpt lat="37.74704561427618" lon="14.79275448688235"><ele>457.75</ele><time>2026-04-06T10:16:37.999Z</time></trkpt><trkpt lat="37.74715676899939" lon="14.792756716946045"><ele>458.5</ele><time>2026-04-06T10:16:38.999Z</time></trkpt><trkpt lat="37.747250591958114" lon="14.792725091365861"><ele>459.25</ele><time>2026-04-06T10:16:39.999Z</time></trkpt><trkpt lat="37.74741367133697" lon="14.792650113033384"><ele>460.0</ele><time>2026-04-06T10:16:40.999Z</time></trkpt><trkpt lat="37.74753572186993" lon="14.792577555351947"><ele>460.0</ele><time>2026-04-06T10:16:41.999Z</time></trkpt><trkpt lat="37.74765237827641" lon="14.792529610473359"><ele>460.0</ele><time>2026-04-06T10:16:42.999Z</time></trkpt><trkpt lat="37.747754894974875" lon="14.792462305137704"><ele>460.0</ele><time>2026-04-06T10:16:43.999Z</time></trkpt><trkpt lat="37.747861551025544" lon="14.79243475584854"><ele>460.0</ele><time>2026-04-06T10:16:44.999Z</time></trkpt><trkpt lat="37.74795706199696" lon="14.79246441183711"><ele>460.0</ele><time>2026-04-06T10:16:45.999Z</time></trkpt><trkpt lat="37.74806556226825" lon="14.792521833835858"><ele>459.75</ele><time>2026-04-06T10:16:46.999Z</time></trkpt><trkpt lat="37.74817962454884" lon="14.792596488580122"><ele>459.5</ele><time>2026-04-06T10:16:47.999Z</time></trkpt><trkpt lat="37.74830517515479" lon="14.792680892986223"><ele>459.25</ele><time>2026-04-06T10:16:48.999Z</time></trkpt><trkpt lat="37.74843959247275" lon="14.792759099005034"><ele>459.0</ele><time>2026-04-06T10:16:49.999Z</time></trkpt><trkpt lat="37.7485785764668" lon="14.792838642960112"><ele>460.75</ele><time>2026-04-06T10:16:50.999Z</time></trkpt><trkpt lat="37.74868931914486" lon="14.79293238204754"><ele>462.5</ele><time>2026-04-06T10:16:51.999Z</time></trkpt><trkpt lat="37.74879849313372" lon="14.793052478941746"><ele>464.25</ele><time>2026-04-06T10:16:52.999Z</time></trkpt><trkpt lat="37.74889783666315" lon="14.79319954870616"><ele>466.0</ele><time>2026-04-06T10:16:53.999Z</time></trkpt><trkpt lat="37.74898290081885" lon="14.79335507810489"><ele>465.75</ele><time>2026-04-06T10:16:54.999Z</time></trkpt><trkpt lat="37.749067453021304" lon="14.793510505226005"><ele>465.5</ele><time>2026-04-06T10:16:55.999Z</time></trkpt><trkpt lat="37.74912650190686" lon="14.793643201587413"><ele>465.25</ele><time>2026-04-06T10:16:56.999Z</time></trkpt><trkpt lat="37.749196129085334" lon="14.793769563427906"><ele>465.0</ele><time>2026-04-06T10:16:57.999Z</time></trkpt><trkpt lat="37.7492568223067" lon="14.793888515973588"><ele>465.0</ele><time>2026-04-06T10:16:58.999Z</time></trkpt><trkpt lat="37.7493084969113" lon="14.794009865413356"><ele>465.0</ele><time>2026-04-06T10:16:59.999Z</time></trkpt><trkpt lat="37.74937554128036" lon="14.794152721000005"><ele>465.0</ele><time>2026-04-06T10:17:00.999Z</time></trkpt><trkpt lat="37.74945545819008" lon="14.794313194793085"><ele>465.0</ele><time>2026-04-06T10:17:01.999Z</time></trkpt><trkpt lat="37.74955438314437" lon="14.794486250521459"><ele>465.66666666666663</ele><time>2026-04-06T10:17:02.999Z</time></trkpt><trkpt lat="37.749655208500016" lon="14.794667120224636"><ele>466.3333333333333</ele><time>2026-04-06T10:17:03.999Z</time></trkpt><trkpt lat="37.749758639928295" lon="14.794851303492683"><ele>467.0</ele><time>2026-04-06T10:17:04.999Z</time></trkpt><trkpt lat="37.74986527901983" lon="14.79504390556196"><ele>467.0</ele><time>2026-04-06T10:17:05.999Z</time></trkpt><trkpt lat="37.74996299294989" lon="14.795228265111525"><ele>467.0</ele><time>2026-04-06T10:17:06.999Z</time></trkpt><trkpt lat="37.75005815542353" lon="14.795416512846437"><ele>467.0</ele><time>2026-04-06T10:17:07.999Z</time></trkpt><trkpt lat="37.750157820635245" lon="14.79560238660658"><ele>468.0</ele><time>2026-04-06T10:17:08.999Z</time></trkpt><trkpt lat="37.7502589165711" lon="14.795795042429521"><ele>469.0</ele><time>2026-04-06T10:17:09.999Z</time></trkpt><trkpt lat="37.75035594555289" lon="14.795989696678843"><ele>470.0</ele><time>2026-04-06T10:17:10.999Z</time></trkpt><trkpt lat="37.750466822098346" lon="14.796162498886103"><ele>470.0</ele><time>2026-04-06T10:17:11.999Z</time></trkpt><trkpt lat="37.750555437822825" lon="14.796331061446908"><ele>470.0</ele><time>2026-04-06T10:17:12.999Z</time></trkpt><trkpt lat="37.750644094215154" lon="14.796507802240383"><ele>470.0</ele><time>2026-04-06T10:17:13.999Z</time></trkpt><trkpt lat="37.75073394156925" lon="14.796686075983201"><ele>470.0</ele><time>2026-04-06T10:17:14.999Z</time></trkpt><trkpt lat="37.75080366757115" lon="14.796871481497735"><ele>470.0</ele><time>2026-04-06T10:17:15.999Z</time></trkpt><trkpt lat="37.750823177296695" lon="14.797065068773906"><ele>470.0</ele><time>2026-04-06T10:17:16.999Z</time></trkpt><trkpt lat="37.7508067605897" lon="14.797246767982594"><ele>470.0</ele><time>2026-04-06T10:17:17.999Z</time></trkpt><trkpt lat="37.75080150373043" lon="14.79748895526055"><ele>470.0</ele><time>2026-04-06T10:17:18.999Z</time></trkpt><trkpt lat="37.75079089490425" lon="14.797713731795342"><ele>470.0</ele><time>2026-04-06T10:17:19.999Z</time></trkpt><trkpt lat="37.75077059536144" lon="14.797945827063844"><ele>472.0</ele><time>2026-04-06T10:17:20.999Z</time></trkpt><trkpt lat="37.75076422014954" lon="14.798183661705057"><ele>474.0</ele><time>2026-04-06T10:17:21.998Z</time></trkpt><trkpt lat="37.75077421333644" lon="14.798402430158053"><ele>476.0</ele><time>2026-04-06T10:17:22.998Z</time></trkpt><trkpt lat="37.75082314146666" lon="14.798608347606756"><ele>477.0</ele><time>2026-04-06T10:17:24Z</time></trkpt><trkpt lat="37.750889602187364" lon="14.798827477893452"><ele>478.0</ele><time>2026-04-06T10:17:25Z</time></trkpt><trkpt lat="37.75095788505774" lon="14.799052111184068"><ele>479.0</ele><time>2026-04-06T10:17:26Z</time></trkpt><trkpt lat="37.75102494031986" lon="14.799265272849475"><ele>479.3333333333333</ele><time>2026-04-06T10:17:27Z</time></trkpt><trkpt lat="37.75110981596663" lon="14.799445476868783"><ele>479.66666666666663</ele><time>2026-04-06T10:17:28Z</time></trkpt><trkpt lat="37.751218305541535" lon="14.799600601038948"><ele>480.0</ele><time>2026-04-06T10:17:29Z</time></trkpt><trkpt lat="37.7513647565946" lon="14.799736229815998"><ele>480.0</ele><time>2026-04-06T10:17:30Z</time></trkpt><trkpt lat="37.75152358842706" lon="14.79984979735522"><ele>480.0</ele><time>2026-04-06T10:17:31Z</time></trkpt><trkpt lat="37.751688532289485" lon="14.799973561671393"><ele>480.0</ele><time>2026-04-06T10:17:32Z</time></trkpt><trkpt lat="37.751852384345646" lon="14.800116096656252"><ele>479.33333333333337</ele><time>2026-04-06T10:17:33Z</time></trkpt><trkpt lat="37.75201579223061" lon="14.80026424888395"><ele>478.6666666666667</ele><time>2026-04-06T10:17:34Z</time></trkpt><trkpt lat="37.75217629578499" lon="14.800402843332716"><ele>478.0</ele><time>2026-04-06T10:17:35Z</time></trkpt><trkpt lat="37.75234174863072" lon="14.800540301998332"><ele>478.0</ele><time>2026-04-06T10:17:36Z</time></trkpt><trkpt lat="37.75249349847539" lon="14.80067104768837"><ele>478.0</ele><time>2026-04-06T10:17:37Z</time></trkpt><trkpt lat="37.75265020240404" lon="14.800805147282007"><ele>478.0</ele><time>2026-04-06T10:17:38Z</time></trkpt><trkpt lat="37.752791208346316" lon="14.800922476977505"><ele>480.0</ele><time>2026-04-06T10:17:39Z</time></trkpt><trkpt lat="37.7529198424172" lon="14.80102683171527"><ele>482.0</ele><time>2026-04-06T10:17:40Z</time></trkpt><trkpt lat="37.753038227930325" lon="14.801132595662336"><ele>484.0</ele><time>2026-04-06T10:17:41Z</time></trkpt><trkpt lat="37.75313509910123" lon="14.801261180341548"><ele>486.0</ele><time>2026-04-06T10:17:42Z</time></trkpt><trkpt lat="37.75318784133368" lon="14.801403074307947"><ele>486.0</ele><time>2026-04-06T10:17:43Z</time></trkpt><trkpt lat="37.75319866754705" lon="14.801537918969595"><ele>486.0</ele><time>2026-04-06T10:17:44Z</time></trkpt><trkpt lat="37.753167388030135" lon="14.801681236452788"><ele>486.0</ele><time>2026-04-06T10:17:45Z</time></trkpt><trkpt lat="37.753120309868315" lon="14.801825514449654"><ele>486.0</ele><time>2026-04-06T10:17:46Z</time></trkpt><trkpt lat="37.75308785933761" lon="14.801977344927579"><ele>487.25</ele><time>2026-04-06T10:17:47Z</time></trkpt><trkpt lat="37.75310279643022" lon="14.802151006304287"><ele>488.5</ele><time>2026-04-06T10:17:48Z</time></trkpt><trkpt lat="37.75314372260427" lon="14.802306106041806"><ele>489.75</ele><time>2026-04-06T10:17:49Z</time></trkpt><trkpt lat="37.7531949771602" lon="14.80244550602265"><ele>491.0</ele><time>2026-04-06T10:17:50Z</time></trkpt><trkpt lat="37.753274586475996" lon="14.802540950806128"><ele>491.0</ele><time>2026-04-06T10:17:51Z</time></trkpt><trkpt lat="37.75336954738791" lon="14.802578705216742"><ele>491.0</ele><time>2026-04-06T10:17:52Z</time></trkpt><trkpt lat="37.7534756467676" lon="14.802572813283483"><ele>491.0</ele><time>2026-04-06T10:17:53Z</time></trkpt><trkpt lat="37.75358032784019" lon="14.802518780484258"><ele>491.0</ele><time>2026-04-06T10:17:54Z</time></trkpt><trkpt lat="37.75367918377682" lon="14.802450937490859"><ele>491.0</ele><time>2026-04-06T10:17:55Z</time></trkpt><trkpt lat="37.753781959954736" lon="14.802430152074091"><ele>492.6</ele><time>2026-04-06T10:17:56Z</time></trkpt><trkpt lat="37.75386890324904" lon="14.802465765682568"><ele>494.20000000000005</ele><time>2026-04-06T10:17:57Z</time></trkpt><trkpt lat="37.75394367023147" lon="14.80254477830188"><ele>495.79999999999995</ele><time>2026-04-06T10:17:58Z</time></trkpt><trkpt lat="37.75397945130465" lon="14.802661584470062"><ele>497.4</ele><time>2026-04-06T10:17:59Z</time></trkpt><trkpt lat="37.75402327791231" lon="14.802787537791819"><ele>499.0</ele><time>2026-04-06T10:18:00Z</time></trkpt><trkpt lat="37.75408316597565" lon="14.80291513611068"><ele>500.0</ele><time>2026-04-06T10:18:01Z</time></trkpt><trkpt lat="37.75419053412653" lon="14.803010773073424"><ele>501.0</ele><time>2026-04-06T10:18:02Z</time></trkpt><trkpt lat="37.75431078083759" lon="14.803072392307206"><ele>502.0</ele><time>2026-04-06T10:18:03Z</time></trkpt><trkpt lat="37.754449279798635" lon="14.803124533423812"><ele>503.0</ele><time>2026-04-06T10:18:04Z</time></trkpt><trkpt lat="37.75458783662152" lon="14.803163843888452"><ele>505.0</ele><time>2026-04-06T10:18:05Z</time></trkpt><trkpt lat="37.754729710548766" lon="14.803211347779374"><ele>507.0</ele><time>2026-04-06T10:18:06Z</time></trkpt><trkpt lat="37.75488783240981" lon="14.803265449137"><ele>509.0</ele><time>2026-04-06T10:18:07Z</time></trkpt><trkpt lat="37.755040544790305" lon="14.803312669979022"><ele>509.0</ele><time>2026-04-06T10:18:08Z</time></trkpt><trkpt lat="37.75519714592079" lon="14.803358586016714"><ele>509.0</ele><time>2026-04-06T10:18:09Z</time></trkpt><trkpt lat="37.75536324381266" lon="14.80340975227241"><ele>509.0</ele><time>2026-04-06T10:18:10Z</time></trkpt><trkpt lat="37.75553113480977" lon="14.80345971425355"><ele>510.0</ele><time>2026-04-06T10:18:10.999Z</time></trkpt><trkpt lat="37.755704442818164" lon="14.80351695688295"><ele>511.0</ele><time>2026-04-06T10:18:11.999Z</time></trkpt><trkpt lat="37.75588045598677" lon="14.80360294010871"><ele>512.0</ele><time>2026-04-06T10:18:12.999Z</time></trkpt><trkpt lat="37.75601310008163" lon="14.803706140277727"><ele>513.3333333333333</ele><time>2026-04-06T10:18:13.999Z</time></trkpt><trkpt lat="37.756138751853946" lon="14.803819156431484"><ele>514.6666666666666</ele><time>2026-04-06T10:18:14.999Z</time></trkpt><trkpt lat="37.756251226328" lon="14.80396392288037"><ele>516.0</ele><time>2026-04-06T10:18:15.999Z</time></trkpt><trkpt lat="37.75634403342177" lon="14.804139566217746"><ele>516.0</ele><time>2026-04-06T10:18:16.999Z</time></trkpt><trkpt lat="37.75643993084195" lon="14.804311972588648"><ele>516.0</ele><time>2026-04-06T10:18:17.999Z</time></trkpt><trkpt lat="37.75655141860411" lon="14.804480360951336"><ele>516.0</ele><time>2026-04-06T10:18:18.999Z</time></trkpt><trkpt lat="37.75667463875688" lon="14.804647484335307"><ele>515.3333333333334</ele><time>2026-04-06T10:18:19.999Z</time></trkpt><trkpt lat="37.75679495357668" lon="14.804831464034361"><ele>514.6666666666667</ele><time>2026-04-06T10:18:20.999Z</time></trkpt><trkpt lat="37.756908630318804" lon="14.805029278191896"><ele>514.0</ele><time>2026-04-06T10:18:21.999Z</time></trkpt><trkpt lat="37.75701634523921" lon="14.805201007835445"><ele>517.0</ele><time>2026-04-06T10:18:22.999Z</time></trkpt><trkpt lat="37.757123628489644" lon="14.805381449435888"><ele>520.0</ele><time>2026-04-06T10:18:23.999Z</time></trkpt><trkpt lat="37.75722713598561" lon="14.80556030583179"><ele>523.0</ele><time>2026-04-06T10:18:24.999Z</time></trkpt><trkpt lat="37.7573413829839" lon="14.805715529030264"><ele>523.0</ele><time>2026-04-06T10:18:25.999Z</time></trkpt><trkpt lat="37.75747569506185" lon="14.805850539948539"><ele>523.0</ele><time>2026-04-06T10:18:26.999Z</time></trkpt><trkpt lat="37.75760220918735" lon="14.805975319680131"><ele>523.0</ele><time>2026-04-06T10:18:27.999Z</time></trkpt><trkpt lat="37.75775694952881" lon="14.80609908512292"><ele>524.3333333333334</ele><time>2026-04-06T10:18:28.999Z</time></trkpt><trkpt lat="37.75789638552736" lon="14.806223262628494"><ele>525.6666666666666</ele><time>2026-04-06T10:18:29.999Z</time></trkpt><trkpt lat="37.75805469704547" lon="14.806349437679023"><ele>527.0</ele><time>2026-04-06T10:18:30.999Z</time></trkpt><trkpt lat="37.7582025623954" lon="14.806471097502666"><ele>527.0</ele><time>2026-04-06T10:18:31.999Z</time></trkpt><trkpt lat="37.75834806157551" lon="14.806581805880285"><ele>527.0</ele><time>2026-04-06T10:18:32.999Z</time></trkpt><trkpt lat="37.7585543761946" lon="14.806691890328977"><ele>527.0</ele><time>2026-04-06T10:18:33.999Z</time></trkpt><trkpt lat="37.75876842880556" lon="14.806787045355225"><ele>528.0</ele><time>2026-04-06T10:18:34.999Z</time></trkpt><trkpt lat="37.75899037083719" lon="14.806889648962402"><ele>529.0</ele><time>2026-04-06T10:18:35.999Z</time></trkpt><trkpt lat="37.75921563732656" lon="14.806991888401402"><ele>529.3333333333334</ele><time>2026-04-06T10:18:36.999Z</time></trkpt><trkpt lat="37.759429103587514" lon="14.807096618884213"><ele>529.6666666666666</ele><time>2026-04-06T10:18:37.999Z</time></trkpt><trkpt lat="37.75961415670835" lon="14.80720851840589"><ele>530.0</ele><time>2026-04-06T10:18:38.999Z</time></trkpt><trkpt lat="37.75978908731842" lon="14.807297214198467"><ele>530.0</ele><time>2026-04-06T10:18:39.999Z</time></trkpt><trkpt lat="37.75993711565424" lon="14.807380891050265"><ele>530.0</ele><time>2026-04-06T10:18:40.999Z</time></trkpt><trkpt lat="37.76006336233252" lon="14.807497966819085"><ele>530.0</ele><time>2026-04-06T10:18:41.999Z</time></trkpt><trkpt lat="37.76015878688017" lon="14.80765335448643"><ele>530.0</ele><time>2026-04-06T10:18:42.999Z</time></trkpt><trkpt lat="37.76025993375776" lon="14.807839906640984"><ele>530.0</ele><time>2026-04-06T10:18:43.999Z</time></trkpt><trkpt lat="37.76036274946295" lon="14.808029899686755"><ele>530.0</ele><time>2026-04-06T10:18:44.999Z</time></trkpt><trkpt lat="37.76046057629589" lon="14.808211662270345"><ele>530.0</ele><time>2026-04-06T10:18:45.999Z</time></trkpt><trkpt lat="37.760546339503236" lon="14.80837291464512"><ele>530.0</ele><time>2026-04-06T10:18:46.999Z</time></trkpt><trkpt lat="37.76063475073451" lon="14.808532967072223"><ele>530.0</ele><time>2026-04-06T10:18:47.999Z</time></trkpt><trkpt lat="37.76073716325666" lon="14.80867573622775"><ele>530.3333333333333</ele><time>2026-04-06T10:18:48.999Z</time></trkpt><trkpt lat="37.760859661428285" lon="14.808755748724513"><ele>530.6666666666666</ele><time>2026-04-06T10:18:49.999Z</time></trkpt><trkpt lat="37.760996016832124" lon="14.808828178042432"><ele>531.0</ele><time>2026-04-06T10:18:50.999Z</time></trkpt><trkpt lat="37.76116448442491" lon="14.808863002464765"><ele>531.0</ele><time>2026-04-06T10:18:51.999Z</time></trkpt><trkpt lat="37.76134327916972" lon="14.80889588680982"><ele>531.0</ele><time>2026-04-06T10:18:52.999Z</time></trkpt><trkpt lat="37.76152984133508" lon="14.808930034210084"><ele>531.0</ele><time>2026-04-06T10:18:53.999Z</time></trkpt><trkpt lat="37.76170553252769" lon="14.808962455256086"><ele>531.0</ele><time>2026-04-06T10:18:54.999Z</time></trkpt><trkpt lat="37.761861847925736" lon="14.80899104164796"><ele>531.0</ele><time>2026-04-06T10:18:55.999Z</time></trkpt><trkpt lat="37.76200484513529" lon="14.809016779777293"><ele>531.0</ele><time>2026-04-06T10:18:56.999Z</time></trkpt><trkpt lat="37.762139948879636" lon="14.80903165269938"><ele>531.0</ele><time>2026-04-06T10:18:57.999Z</time></trkpt><trkpt lat="37.76224248888302" lon="14.809081461131699"><ele>530.8</ele><time>2026-04-06T10:18:58.999Z</time></trkpt><trkpt lat="37.76229911060977" lon="14.809176327730338"><ele>530.6</ele><time>2026-04-06T10:18:59.999Z</time></trkpt><trkpt lat="37.76232108323154" lon="14.809276775817127"><ele>530.4</ele><time>2026-04-06T10:19:00.999Z</time></trkpt><trkpt lat="37.76231824262148" lon="14.809396914486513"><ele>530.2</ele><time>2026-04-06T10:19:01.999Z</time></trkpt><trkpt lat="37.76228885129991" lon="14.809529754645405"><ele>530.0</ele><time>2026-04-06T10:19:02.999Z</time></trkpt><trkpt lat="37.76226408556801" lon="14.809679123370834"><ele>532.5</ele><time>2026-04-06T10:19:03.999Z</time></trkpt><trkpt lat="37.7622361609966" lon="14.80984713915089"><ele>535.0</ele><time>2026-04-06T10:19:04.999Z</time></trkpt><trkpt lat="37.76221297099017" lon="14.810029905993014"><ele>537.5</ele><time>2026-04-06T10:19:05.999Z</time></trkpt><trkpt lat="37.76221305221317" lon="14.810204479729334"><ele>540.0</ele><time>2026-04-06T10:19:06.999Z</time></trkpt><trkpt lat="37.76226401580023" lon="14.810377109662092"><ele>541.5</ele><time>2026-04-06T10:19:07.999Z</time></trkpt><trkpt lat="37.76234423911082" lon="14.810484133970892"><ele>543.0</ele><time>2026-04-06T10:19:08.999Z</time></trkpt><trkpt lat="37.76237141893104" lon="14.810595574653002"><ele>544.5</ele><time>2026-04-06T10:19:09.999Z</time></trkpt><trkpt lat="37.762383004099" lon="14.810702340278784"><ele>546.0</ele><time>2026-04-06T10:19:10.999Z</time></trkpt><trkpt lat="37.76233829924751" lon="14.810789537008404"><ele>547.5</ele><time>2026-04-06T10:19:11.999Z</time></trkpt><trkpt lat="37.76228431677649" lon="14.81083654717909"><ele>549.0</ele><time>2026-04-06T10:19:12.999Z</time></trkpt><trkpt lat="37.76220572586078" lon="14.81086561625518"><ele>549.0</ele><time>2026-04-06T10:19:13.999Z</time></trkpt><trkpt lat="37.762102861748176" lon="14.810921515212383"><ele>549.0</ele><time>2026-04-06T10:19:14.999Z</time></trkpt><trkpt lat="37.76198758404211" lon="14.810983082989074"><ele>549.0</ele><time>2026-04-06T10:19:15.999Z</time></trkpt><trkpt lat="37.761867029302586" lon="14.81105740684521"><ele>549.0</ele><time>2026-04-06T10:19:16.999Z</time></trkpt><trkpt lat="37.76175103489822" lon="14.811159081027089"><ele>551.6666666666666</ele><time>2026-04-06T10:19:17.999Z</time></trkpt><trkpt lat="37.76163489442896" lon="14.811285115115245"><ele>554.3333333333333</ele><time>2026-04-06T10:19:18.999Z</time></trkpt><trkpt lat="37.76151745160533" lon="14.811412883111833"><ele>557.0</ele><time>2026-04-06T10:19:19.999Z</time></trkpt><trkpt lat="37.761401999660734" lon="14.811539283620796"><ele>557.0</ele><time>2026-04-06T10:19:20.999Z</time></trkpt><trkpt lat="37.761293459127124" lon="14.811659073920383"><ele>557.0</ele><time>2026-04-06T10:19:21.999Z</time></trkpt><trkpt lat="37.761188926083804" lon="14.811785982077074"><ele>557.0</ele><time>2026-04-06T10:19:22.999Z</time></trkpt><trkpt lat="37.76110974400061" lon="14.811969450465051"><ele>558.75</ele><time>2026-04-06T10:19:23.998Z</time></trkpt><trkpt lat="37.76107324086104" lon="14.812102061818752"><ele>560.5</ele><time>2026-04-06T10:19:24.998Z</time></trkpt><trkpt lat="37.76103147356436" lon="14.812250542716013"><ele>562.25</ele><time>2026-04-06T10:19:25.998Z</time></trkpt><trkpt lat="37.76099520930771" lon="14.812370304548821"><ele>564.0</ele><time>2026-04-06T10:19:26.998Z</time></trkpt><trkpt lat="37.76087058756109" lon="14.812449495312089"><ele>564.0</ele><time>2026-04-06T10:19:28.998Z</time></trkpt><trkpt lat="37.76078226067458" lon="14.81240921515276"><ele>564.0</ele><time>2026-04-06T10:19:30Z</time></trkpt><trkpt lat="37.76068406143308" lon="14.812406729494358"><ele>564.0</ele><time>2026-04-06T10:19:31Z</time></trkpt><trkpt lat="37.76057407972414" lon="14.812383802658976"><ele>564.0</ele><time>2026-04-06T10:19:32Z</time></trkpt><trkpt lat="37.76047095993206" lon="14.812371492501716"><ele>564.0</ele><time>2026-04-06T10:19:33Z</time></trkpt><trkpt lat="37.760411458014204" lon="14.812453796631248"><ele>564.0</ele><time>2026-04-06T10:19:34Z</time></trkpt><trkpt lat="37.760377038631404" lon="14.812554455024836"><ele>564.0</ele><time>2026-04-06T10:19:35Z</time></trkpt><trkpt lat="37.76038773299046" lon="14.812675571730813"><ele>564.0</ele><time>2026-04-06T10:19:36Z</time></trkpt><trkpt lat="37.760445937610804" lon="14.812768520117336"><ele>564.0</ele><time>2026-04-06T10:19:37Z</time></trkpt><trkpt lat="37.76053580282506" lon="14.81279960993908"><ele>564.0</ele><time>2026-04-06T10:19:38Z</time></trkpt><trkpt lat="37.76063578197354" lon="14.812785135340338"><ele>565.8</ele><time>2026-04-06T10:19:39Z</time></trkpt><trkpt lat="37.76072343724755" lon="14.812738383910972"><ele>567.5999999999999</ele><time>2026-04-06T10:19:40Z</time></trkpt><trkpt lat="37.76082096128291" lon="14.812702079530204"><ele>569.4</ele><time>2026-04-06T10:19:41Z</time></trkpt><trkpt lat="37.760924943251005" lon="14.812718843557557"><ele>571.1999999999999</ele><time>2026-04-06T10:19:42Z</time></trkpt><trkpt lat="37.76100455008283" lon="14.812788543508098"><ele>573.0</ele><time>2026-04-06T10:19:43Z</time></trkpt><trkpt lat="37.761047832954716" lon="14.812899036220081"><ele>573.0</ele><time>2026-04-06T10:19:44Z</time></trkpt><trkpt lat="37.76102144588834" lon="14.812998913648164"><ele>573.0</ele><time>2026-04-06T10:19:45Z</time></trkpt><trkpt lat="37.760990734156245" lon="14.813105083755078"><ele>573.0</ele><time>2026-04-06T10:19:46Z</time></trkpt><trkpt lat="37.76089633200836" lon="14.813133682209614"><ele>573.0</ele><time>2026-04-06T10:19:47Z</time></trkpt><trkpt lat="37.76080238698327" lon="14.813123806503478"><ele>573.0</ele><time>2026-04-06T10:19:48Z</time></trkpt><trkpt lat="37.7607126949859" lon="14.813070941670087"><ele>573.0</ele><time>2026-04-06T10:19:49Z</time></trkpt><trkpt lat="37.760600034577614" lon="14.813014762598936"><ele>573.0</ele><time>2026-04-06T10:19:50Z</time></trkpt><trkpt lat="37.76048934447286" lon="14.812974315969665"><ele>573.0</ele><time>2026-04-06T10:19:51Z</time></trkpt><trkpt lat="37.760370061274195" lon="14.812935923291928"><ele>573.0</ele><time>2026-04-06T10:19:52Z</time></trkpt><trkpt lat="37.76024691006056" lon="14.81294351919346"><ele>572.25</ele><time>2026-04-06T10:19:53Z</time></trkpt><trkpt lat="37.76013645026029" lon="14.813017365020697"><ele>571.5</ele><time>2026-04-06T10:19:54Z</time></trkpt><trkpt lat="37.760047894923744" lon="14.813142846523004"><ele>570.75</ele><time>2026-04-06T10:19:55Z</time></trkpt><trkpt lat="37.75998866898758" lon="14.8132948523921"><ele>570.0</ele><time>2026-04-06T10:19:56Z</time></trkpt><trkpt lat="37.75994762343147" lon="14.813460746565621"><ele>572.0</ele><time>2026-04-06T10:19:57Z</time></trkpt><trkpt lat="37.75993936398823" lon="14.81364414248284"><ele>574.0</ele><time>2026-04-06T10:19:58Z</time></trkpt><trkpt lat="37.75994571612189" lon="14.813821335409164"><ele>576.0</ele><time>2026-04-06T10:19:59Z</time></trkpt><trkpt lat="37.759967026344356" lon="14.81400997788045"><ele>578.0</ele><time>2026-04-06T10:20:00Z</time></trkpt><trkpt lat="37.75998963470297" lon="14.814208757762081"><ele>581.0</ele><time>2026-04-06T10:20:01Z</time></trkpt><trkpt lat="37.76001439742071" lon="14.814414754020483"><ele>584.0</ele><time>2026-04-06T10:20:02Z</time></trkpt><trkpt lat="37.76004222750641" lon="14.814631383448392"><ele>587.0</ele><time>2026-04-06T10:20:03Z</time></trkpt><trkpt lat="37.76007202152468" lon="14.814855956474336"><ele>587.0</ele><time>2026-04-06T10:20:04Z</time></trkpt><trkpt lat="37.760102858879215" lon="14.815083951679748"><ele>587.0</ele><time>2026-04-06T10:20:05Z</time></trkpt><trkpt lat="37.76012948295618" lon="14.815277280498812"><ele>587.0</ele><time>2026-04-06T10:20:06Z</time></trkpt><trkpt lat="37.760153259862435" lon="14.815449934722144"><ele>588.4</ele><time>2026-04-06T10:20:07Z</time></trkpt><trkpt lat="37.76016457515689" lon="14.815625191377697"><ele>589.8000000000001</ele><time>2026-04-06T10:20:08Z</time></trkpt><trkpt lat="37.7601403960959" lon="14.815756991713332"><ele>591.2</ele><time>2026-04-06T10:20:09Z</time></trkpt><trkpt lat="37.76008848148966" lon="14.815859193689322"><ele>592.6</ele><time>2026-04-06T10:20:10Z</time></trkpt><trkpt lat="37.76001884315527" lon="14.815934725833728"><ele>594.0</ele><time>2026-04-06T10:20:11Z</time></trkpt><trkpt lat="37.7599214753349" lon="14.815981485927749"><ele>594.0</ele><time>2026-04-06T10:20:12Z</time></trkpt><trkpt lat="37.75981510027171" lon="14.815990249561011"><ele>594.0</ele><time>2026-04-06T10:20:13Z</time></trkpt><trkpt lat="37.759690576061075" lon="14.815983380990295"><ele>594.0</ele><time>2026-04-06T10:20:14Z</time></trkpt><trkpt lat="37.759559248091676" lon="14.815974919270715"><ele>594.0</ele><time>2026-04-06T10:20:15Z</time></trkpt><trkpt lat="37.759441249382434" lon="14.81596759607634"><ele>595.2</ele><time>2026-04-06T10:20:16Z</time></trkpt><trkpt lat="37.75935207133999" lon="14.815900405318127"><ele>596.4</ele><time>2026-04-06T10:20:17Z</time></trkpt><trkpt lat="37.75929259376469" lon="14.815798223147276"><ele>597.6</ele><time>2026-04-06T10:20:18Z</time></trkpt><trkpt lat="37.75926074124402" lon="14.815671904297615"><ele>598.8</ele><time>2026-04-06T10:20:19Z</time></trkpt><trkpt lat="37.75919915299493" lon="14.81556683530199"><ele>600.0</ele><time>2026-04-06T10:20:20Z</time></trkpt><trkpt lat="37.759100509762476" lon="14.815523612714392"><ele>600.0</ele><time>2026-04-06T10:20:21Z</time></trkpt><trkpt lat="37.75898862030001" lon="14.8155186120823"><ele>600.0</ele><time>2026-04-06T10:20:21.999Z</time></trkpt><trkpt lat="37.758896754114055" lon="14.8155926999984"><ele>600.0</ele><time>2026-04-06T10:20:22.999Z</time></trkpt><trkpt lat="37.75881995947512" lon="14.81571389596897"><ele>600.0</ele><time>2026-04-06T10:20:23.999Z</time></trkpt><trkpt lat="37.75872241987071" lon="14.815814364020856"><ele>600.0</ele><time>2026-04-06T10:20:24.999Z</time></trkpt><trkpt lat="37.758623956860006" lon="14.815931012887482"><ele>600.0</ele><time>2026-04-06T10:20:25.999Z</time></trkpt><trkpt lat="37.75852814110546" lon="14.81603867567112"><ele>600.0</ele><time>2026-04-06T10:20:26.999Z</time></trkpt><trkpt lat="37.75840715424315" lon="14.816064109906122"><ele>600.0</ele><time>2026-04-06T10:20:27.999Z</time></trkpt><trkpt lat="37.75828625960484" lon="14.816099516778158"><ele>603.6</ele><time>2026-04-06T10:20:28.999Z</time></trkpt><trkpt lat="37.75818651086463" lon="14.816192286161286"><ele>607.2</ele><time>2026-04-06T10:20:29.999Z</time></trkpt><trkpt lat="37.758140361361185" lon="14.81631816203478"><ele>610.8</ele><time>2026-04-06T10:20:30.999Z</time></trkpt><trkpt lat="37.75815231092957" lon="14.81646432315207"><ele>614.4</ele><time>2026-04-06T10:20:31.999Z</time></trkpt><trkpt lat="37.75822172339144" lon="14.816554268480827"><ele>618.0</ele><time>2026-04-06T10:20:32.999Z</time></trkpt><trkpt lat="37.75830381381286" lon="14.816618495781384"><ele>618.0</ele><time>2026-04-06T10:20:33.999Z</time></trkpt><trkpt lat="37.75841192473067" lon="14.8166411372101"><ele>618.0</ele><time>2026-04-06T10:20:34.999Z</time></trkpt><trkpt lat="37.75852962966075" lon="14.816621742915482"><ele>618.0</ele><time>2026-04-06T10:20:35.999Z</time></trkpt><trkpt lat="37.75865465756522" lon="14.816599322356955"><ele>618.0</ele><time>2026-04-06T10:20:36.999Z</time></trkpt><trkpt lat="37.75877187029916" lon="14.816625688019032"><ele>617.0</ele><time>2026-04-06T10:20:37.999Z</time></trkpt><trkpt lat="37.75888887639017" lon="14.816693070446796"><ele>616.0</ele><time>2026-04-06T10:20:38.999Z</time></trkpt><trkpt lat="37.758982561096325" lon="14.81678758798871"><ele>615.0</ele><time>2026-04-06T10:20:39.999Z</time></trkpt><trkpt lat="37.759097141166066" lon="14.816903096874672"><ele>614.0</ele><time>2026-04-06T10:20:40.999Z</time></trkpt><trkpt lat="37.75923192954238" lon="14.817017962484366"><ele>617.3333333333333</ele><time>2026-04-06T10:20:41.999Z</time></trkpt><trkpt lat="37.75938333559935" lon="14.817135972895397"><ele>620.6666666666666</ele><time>2026-04-06T10:20:42.999Z</time></trkpt><trkpt lat="37.75953445769031" lon="14.817238762057157"><ele>624.0</ele><time>2026-04-06T10:20:43.999Z</time></trkpt><trkpt lat="37.7596868181427" lon="14.81733709257369"><ele>624.0</ele><time>2026-04-06T10:20:44.999Z</time></trkpt><trkpt lat="37.75984047012551" lon="14.817430710717002"><ele>624.0</ele><time>2026-04-06T10:20:45.999Z</time></trkpt><trkpt lat="37.75999789582207" lon="14.817527862511078"><ele>624.0</ele><time>2026-04-06T10:20:46.999Z</time></trkpt><trkpt lat="37.760153867962536" lon="14.817625244238899"><ele>627.6666666666666</ele><time>2026-04-06T10:20:47.999Z</time></trkpt><trkpt lat="37.760311162554416" lon="14.81772059946085"><ele>631.3333333333333</ele><time>2026-04-06T10:20:48.999Z</time></trkpt><trkpt lat="37.760473924548045" lon="14.817819332539104"><ele>635.0</ele><time>2026-04-06T10:20:49.999Z</time></trkpt><trkpt lat="37.76063109399967" lon="14.817917600724847"><ele>635.0</ele><time>2026-04-06T10:20:50.999Z</time></trkpt><trkpt lat="37.76079433824241" lon="14.818024018050245"><ele>635.0</ele><time>2026-04-06T10:20:51.999Z</time></trkpt><trkpt lat="37.760955335376636" lon="14.818126996624551"><ele>635.0</ele><time>2026-04-06T10:20:52.999Z</time></trkpt><trkpt lat="37.76111986212499" lon="14.818208284296658"><ele>636.0</ele><time>2026-04-06T10:20:53.999Z</time></trkpt><trkpt lat="37.76127269797551" lon="14.818321448979388"><ele>637.0</ele><time>2026-04-06T10:20:54.999Z</time></trkpt><trkpt lat="37.761424201252424" lon="14.81842386958579"><ele>638.0</ele><time>2026-04-06T10:20:55.999Z</time></trkpt><trkpt lat="37.761562458224034" lon="14.818493320870363"><ele>639.5</ele><time>2026-04-06T10:20:56.999Z</time></trkpt><trkpt lat="37.7616906798935" lon="14.818544649814928"><ele>641.0</ele><time>2026-04-06T10:20:57.999Z</time></trkpt><trkpt lat="37.76184591582362" lon="14.818533571584029"><ele>642.5</ele><time>2026-04-06T10:20:58.999Z</time></trkpt><trkpt lat="37.761997225623254" lon="14.818472644754925"><ele>644.0</ele><time>2026-04-06T10:20:59.999Z</time></trkpt><trkpt lat="37.762137812301845" lon="14.818387982723307"><ele>644.0</ele><time>2026-04-06T10:21:00.999Z</time></trkpt><trkpt lat="37.76225662442085" lon="14.818317463871955"><ele>644.0</ele><time>2026-04-06T10:21:01.999Z</time></trkpt><trkpt lat="37.762383211984265" lon="14.818292350974987"><ele>644.0</ele><time>2026-04-06T10:21:02.999Z</time></trkpt><trkpt lat="37.76251215380069" lon="14.818328027404215"><ele>644.0</ele><time>2026-04-06T10:21:03.999Z</time></trkpt><trkpt lat="37.76260575441122" lon="14.818437503971674"><ele>648.25</ele><time>2026-04-06T10:21:04.999Z</time></trkpt><trkpt lat="37.762718286637714" lon="14.818546315762143"><ele>652.5</ele><time>2026-04-06T10:21:05.999Z</time></trkpt><trkpt lat="37.762837388042556" lon="14.81866612184745"><ele>656.75</ele><time>2026-04-06T10:21:06.999Z</time></trkpt><trkpt lat="37.762967560149065" lon="14.81875543687703"><ele>661.0</ele><time>2026-04-06T10:21:07.999Z</time></trkpt><trkpt lat="37.76310506705925" lon="14.818823404925485"><ele>661.0</ele><time>2026-04-06T10:21:08.999Z</time></trkpt><trkpt lat="37.76321506361957" lon="14.818877229519797"><ele>661.0</ele><time>2026-04-06T10:21:09.999Z</time></trkpt><trkpt lat="37.76334826591362" lon="14.818294591120825"><ele>661.6666666666667</ele><time>2026-04-06T10:21:10.999Z</time></trkpt><trkpt lat="37.76351875510356" lon="14.81812611381996"><ele>662.3333333333334</ele><time>2026-04-06T10:21:12.999Z</time></trkpt><trkpt lat="37.76363756017829" lon="14.817919962255425"><ele>663.0</ele><time>2026-04-06T10:21:13.999Z</time></trkpt><trkpt lat="37.76374442895535" lon="14.81784265495975"><ele>663.0</ele><time>2026-04-06T10:21:14.999Z</time></trkpt><trkpt lat="37.76388071618873" lon="14.817713022759397"><ele>663.0</ele><time>2026-04-06T10:21:15.999Z</time></trkpt><trkpt lat="37.76406923614492" lon="14.817582840112792"><ele>663.0</ele><time>2026-04-06T10:21:16.999Z</time></trkpt><trkpt lat="37.7642366637336" lon="14.8175194356029"><ele>662.6666666666666</ele><time>2026-04-06T10:21:17.999Z</time></trkpt><trkpt lat="37.76437947569629" lon="14.817470198376546"><ele>662.3333333333333</ele><time>2026-04-06T10:21:18.999Z</time></trkpt><trkpt lat="37.764527565377975" lon="14.81741914155104"><ele>662.0</ele><time>2026-04-06T10:21:19.999Z</time></trkpt><trkpt lat="37.76468210286455" lon="14.817365861718294"><ele>662.0</ele><time>2026-04-06T10:21:20.999Z</time></trkpt><trkpt lat="37.764877344867166" lon="14.817557797973095"><ele>662.0</ele><time>2026-04-06T10:21:21.999Z</time></trkpt><trkpt lat="37.76503784443863" lon="14.817575061107016"><ele>662.0</ele><time>2026-04-06T10:21:22.999Z</time></trkpt><trkpt lat="37.76519005778963" lon="14.81753158361952"><ele>663.5</ele><time>2026-04-06T10:21:23.999Z</time></trkpt><trkpt lat="37.765331327276996" lon="14.817439640587667"><ele>665.0</ele><time>2026-04-06T10:21:24.999Z</time></trkpt><trkpt lat="37.76544388041454" lon="14.81733312899195"><ele>666.5</ele><time>2026-04-06T10:21:25.999Z</time></trkpt><trkpt lat="37.76555319681018" lon="14.817247676996008"><ele>668.0</ele><time>2026-04-06T10:21:26.999Z</time></trkpt><trkpt lat="37.76566702108894" lon="14.817224045336442"><ele>668.0</ele><time>2026-04-06T10:21:27.999Z</time></trkpt><trkpt lat="37.76577079829808" lon="14.817254803796631"><ele>668.0</ele><time>2026-04-06T10:21:28.999Z</time></trkpt><trkpt lat="37.765845008268904" lon="14.817343243978282"><ele>668.0</ele><time>2026-04-06T10:21:29.999Z</time></trkpt><trkpt lat="37.76589092679254" lon="14.817473272379015"><ele>668.0</ele><time>2026-04-06T10:21:30.999Z</time></trkpt><trkpt lat="37.765911366811096" lon="14.817629932507048"><ele>668.0</ele><time>2026-04-06T10:21:31.999Z</time></trkpt><trkpt lat="37.76591724349308" lon="14.817799106002319"><ele>670.0</ele><time>2026-04-06T10:21:32.999Z</time></trkpt><trkpt lat="37.765901354551836" lon="14.817981460052271"><ele>672.0</ele><time>2026-04-06T10:21:33.999Z</time></trkpt><trkpt lat="37.765879504490705" lon="14.818172910920461"><ele>674.0</ele><time>2026-04-06T10:21:34.998Z</time></trkpt><trkpt lat="37.76586207452157" lon="14.818359991081469"><ele>676.0</ele><time>2026-04-06T10:21:36Z</time></trkpt><trkpt lat="37.765846675822694" lon="14.818558444010206"><ele>676.75</ele><time>2026-04-06T10:21:37Z</time></trkpt><trkpt lat="37.7658456337723" lon="14.818746199702758"><ele>677.5</ele><time>2026-04-06T10:21:38Z</time></trkpt><trkpt lat="37.7658972488972" lon="14.818921553412688"><ele>678.25</ele><time>2026-04-06T10:21:39Z</time></trkpt><trkpt lat="37.76599753770337" lon="14.819060926912869"><ele>679.0</ele><time>2026-04-06T10:21:40Z</time></trkpt><trkpt lat="37.766137334261224" lon="14.81917003081587"><ele>679.0</ele><time>2026-04-06T10:21:41Z</time></trkpt><trkpt lat="37.76627413640585" lon="14.819269771636211"><ele>679.0</ele><time>2026-04-06T10:21:42Z</time></trkpt><trkpt lat="37.76640872642207" lon="14.819391559411812"><ele>679.0</ele><time>2026-04-06T10:21:43Z</time></trkpt><trkpt lat="37.76652955195095" lon="14.819520332263172"><ele>681.3333333333334</ele><time>2026-04-06T10:21:44Z</time></trkpt><trkpt lat="37.7666259009879" lon="14.819656645581546"><ele>683.6666666666666</ele><time>2026-04-06T10:21:45Z</time></trkpt><trkpt lat="37.76670198751623" lon="14.819827963351484"><ele>686.0</ele><time>2026-04-06T10:21:46Z</time></trkpt><trkpt lat="37.766746728307936" lon="14.820027762225777"><ele>686.6666666666666</ele><time>2026-04-06T10:21:47Z</time></trkpt><trkpt lat="37.76676833456409" lon="14.82023933951848"><ele>687.3333333333334</ele><time>2026-04-06T10:21:48Z</time></trkpt><trkpt lat="37.76680993500138" lon="14.820446410007888"><ele>688.0</ele><time>2026-04-06T10:21:49Z</time></trkpt><trkpt lat="37.766852901715666" lon="14.820654867365608"><ele>688.0</ele><time>2026-04-06T10:21:50Z</time></trkpt><trkpt lat="37.76689589931194" lon="14.820866055050965"><ele>688.0</ele><time>2026-04-06T10:21:51Z</time></trkpt><trkpt lat="37.7669393789746" lon="14.821079610447905"><ele>688.0</ele><time>2026-04-06T10:21:52Z</time></trkpt><trkpt lat="37.76698051230081" lon="14.821284388035071"><ele>689.25</ele><time>2026-04-06T10:21:53Z</time></trkpt><trkpt lat="37.767021518391104" lon="14.821482518644459"><ele>690.5</ele><time>2026-04-06T10:21:54Z</time></trkpt><trkpt lat="37.7670575691027" lon="14.821657914134706"><ele>691.75</ele><time>2026-04-06T10:21:55Z</time></trkpt><trkpt lat="37.767089839334105" lon="14.821815076035753"><ele>693.0</ele><time>2026-04-06T10:21:56Z</time></trkpt><trkpt lat="37.76711818491759" lon="14.821953124189669"><ele>694.5999999999999</ele><time>2026-04-06T10:21:57Z</time></trkpt><trkpt lat="37.767155657725446" lon="14.822070365448132"><ele>696.1999999999999</ele><time>2026-04-06T10:21:58Z</time></trkpt><trkpt lat="37.767162361756206" lon="14.822176372163336"><ele>697.8</ele><time>2026-04-06T10:21:59Z</time></trkpt><trkpt lat="37.76717895083933" lon="14.822265188439895"><ele>699.4</ele><time>2026-04-06T10:22:00Z</time></trkpt><trkpt lat="37.767329559212804" lon="14.822296850752254"><ele>701.0</ele><time>2026-04-06T10:22:01Z</time></trkpt><trkpt lat="37.767432682817216" lon="14.822323939207783"><ele>701.0</ele><time>2026-04-06T10:22:02Z</time></trkpt><trkpt lat="37.767553099581065" lon="14.822343866738093"><ele>701.0</ele><time>2026-04-06T10:22:03Z</time></trkpt><trkpt lat="37.767684010740915" lon="14.822404217211188"><ele>701.0</ele><time>2026-04-06T10:22:04Z</time></trkpt><trkpt lat="37.76780914960198" lon="14.82251466571629"><ele>701.0</ele><time>2026-04-06T10:22:05Z</time></trkpt><trkpt lat="37.767964638829206" lon="14.822604665793726"><ele>704.3333333333333</ele><time>2026-04-06T10:22:06Z</time></trkpt><trkpt lat="37.76814273282857" lon="14.822669403986836"><ele>707.6666666666666</ele><time>2026-04-06T10:22:07Z</time></trkpt><trkpt lat="37.7683195763009" lon="14.82273197400036"><ele>711.0</ele><time>2026-04-06T10:22:08Z</time></trkpt><trkpt lat="37.768504073338896" lon="14.822781508369255"><ele>712.0</ele><time>2026-04-06T10:22:09Z</time></trkpt><trkpt lat="37.7686931964946" lon="14.82283381348819"><ele>713.0</ele><time>2026-04-06T10:22:10Z</time></trkpt><trkpt lat="37.768875925506144" lon="14.822894033225792"><ele>714.0</ele><time>2026-04-06T10:22:11Z</time></trkpt><trkpt lat="37.76905885906408" lon="14.822960037024567"><ele>714.0</ele><time>2026-04-06T10:22:12Z</time></trkpt><trkpt lat="37.76924013080725" lon="14.823034580320973"><ele>714.0</ele><time>2026-04-06T10:22:13Z</time></trkpt><trkpt lat="37.76942181209343" lon="14.82310802985858"><ele>714.0</ele><time>2026-04-06T10:22:14Z</time></trkpt><trkpt lat="37.76959346594932" lon="14.823186037593365"><ele>713.3333333333334</ele><time>2026-04-06T10:22:15Z</time></trkpt><trkpt lat="37.7697539820451" lon="14.823286839901034"><ele>712.6666666666667</ele><time>2026-04-06T10:22:16Z</time></trkpt><trkpt lat="37.76990203699385" lon="14.82341681071"><ele>712.0</ele><time>2026-04-06T10:22:17Z</time></trkpt><trkpt lat="37.77003980180711" lon="14.823554918925005"><ele>712.3333333333334</ele><time>2026-04-06T10:22:18Z</time></trkpt><trkpt lat="37.770187022992914" lon="14.823690616038803"><ele>712.6666666666666</ele><time>2026-04-06T10:22:19Z</time></trkpt><trkpt lat="37.77030491611193" lon="14.823825305460014"><ele>713.0</ele><time>2026-04-06T10:22:20Z</time></trkpt><trkpt lat="37.77042887045083" lon="14.823979718831813"><ele>713.0</ele><time>2026-04-06T10:22:21Z</time></trkpt><trkpt lat="37.77057120048431" lon="14.824138192734802"><ele>713.0</ele><time>2026-04-06T10:22:21.999Z</time></trkpt><trkpt lat="37.77069353120281" lon="14.824287998353805"><ele>713.0</ele><time>2026-04-06T10:22:22.999Z</time></trkpt><trkpt lat="37.77081512330582" lon="14.824437610033035"><ele>713.75</ele><time>2026-04-06T10:22:23.999Z</time></trkpt><trkpt lat="37.77093890084448" lon="14.824577144719758"><ele>714.5</ele><time>2026-04-06T10:22:24.999Z</time></trkpt><trkpt lat="37.77106341737814" lon="14.82467528847005"><ele>715.25</ele><time>2026-04-06T10:22:25.999Z</time></trkpt><trkpt lat="37.77119186130951" lon="14.824727427802125"><ele>716.0</ele><time>2026-04-06T10:22:26.999Z</time></trkpt><trkpt lat="37.77131263611536" lon="14.824766023113028"><ele>716.0</ele><time>2026-04-06T10:22:27.999Z</time></trkpt><trkpt lat="37.77140078455006" lon="14.824848551101093"><ele>716.0</ele><time>2026-04-06T10:22:28.999Z</time></trkpt><trkpt lat="37.77144551150406" lon="14.824960772522285"><ele>716.0</ele><time>2026-04-06T10:22:29.999Z</time></trkpt><trkpt lat="37.77144715497601" lon="14.825093301465275"><ele>716.0</ele><time>2026-04-06T10:22:30.999Z</time></trkpt><trkpt lat="37.77143388252936" lon="14.825218278728585"><ele>716.0</ele><time>2026-04-06T10:22:31.999Z</time></trkpt><trkpt lat="37.771432589230585" lon="14.825320547486283"><ele>717.4</ele><time>2026-04-06T10:22:32.999Z</time></trkpt><trkpt lat="37.77154181462948" lon="14.825442230414803"><ele>718.8</ele><time>2026-04-06T10:22:34.999Z</time></trkpt><trkpt lat="37.77164066599853" lon="14.825434489979584"><ele>720.1999999999999</ele><time>2026-04-06T10:22:35.999Z</time></trkpt><trkpt lat="37.77173872075451" lon="14.82542892753212"><ele>721.5999999999999</ele><time>2026-04-06T10:22:36.999Z</time></trkpt><trkpt lat="37.77183992427543" lon="14.825441684081392"><ele>723.0</ele><time>2026-04-06T10:22:37.999Z</time></trkpt><trkpt lat="37.771956304259575" lon="14.825456042471515"><ele>723.75</ele><time>2026-04-06T10:22:38.999Z</time></trkpt><trkpt lat="37.77207809461566" lon="14.825497000650762"><ele>724.5</ele><time>2026-04-06T10:22:39.999Z</time></trkpt><trkpt lat="37.77220972284096" lon="14.825517012061349"><ele>725.25</ele><time>2026-04-06T10:22:40.999Z</time></trkpt><trkpt lat="37.772350945892434" lon="14.825557878072917"><ele>726.0</ele><time>2026-04-06T10:22:41.999Z</time></trkpt><trkpt lat="37.772497719286044" lon="14.82559902256292"><ele>726.0</ele><time>2026-04-06T10:22:42.999Z</time></trkpt><trkpt lat="37.772656264452145" lon="14.825637235366214"><ele>726.0</ele><time>2026-04-06T10:22:43.999Z</time></trkpt><trkpt lat="37.77282054657305" lon="14.825673085724103"><ele>726.0</ele><time>2026-04-06T10:22:44.999Z</time></trkpt><trkpt lat="37.7729949458608" lon="14.825741321848119"><ele>725.0</ele><time>2026-04-06T10:22:45.999Z</time></trkpt><trkpt lat="37.77317306012353" lon="14.825792350751051"><ele>724.0</ele><time>2026-04-06T10:22:46.999Z</time></trkpt><trkpt lat="37.77334116764976" lon="14.825824654982984"><ele>723.0</ele><time>2026-04-06T10:22:47.999Z</time></trkpt><trkpt lat="37.77351779434743" lon="14.825873531326234"><ele>724.0</ele><time>2026-04-06T10:22:48.999Z</time></trkpt><trkpt lat="37.77369416071188" lon="14.825916540701538"><ele>725.0</ele><time>2026-04-06T10:22:49.999Z</time></trkpt><trkpt lat="37.77386450133165" lon="14.825955689365328"><ele>726.0</ele><time>2026-04-06T10:22:50.999Z</time></trkpt><trkpt lat="37.77403627107764" lon="14.825995352899456"><ele>729.6666666666666</ele><time>2026-04-06T10:22:51.999Z</time></trkpt><trkpt lat="37.774196765499994" lon="14.826051308687365"><ele>733.3333333333333</ele><time>2026-04-06T10:22:52.999Z</time></trkpt><trkpt lat="37.77435162437836" lon="14.826111392486581"><ele>737.0</ele><time>2026-04-06T10:22:53.999Z</time></trkpt><trkpt lat="37.77449323221025" lon="14.82617136277428"><ele>737.0</ele><time>2026-04-06T10:22:54.999Z</time></trkpt><trkpt lat="37.77463258415016" lon="14.826251497860037"><ele>737.0</ele><time>2026-04-06T10:22:55.999Z</time></trkpt><trkpt lat="37.774767941039876" lon="14.826328851829011"><ele>737.0</ele><time>2026-04-06T10:22:56.999Z</time></trkpt><trkpt lat="37.774891385050374" lon="14.826470988769156"><ele>737.0</ele><time>2026-04-06T10:22:57.999Z</time></trkpt><trkpt lat="37.77505370163424" lon="14.826524777163941"><ele>737.0</ele><time>2026-04-06T10:22:58.999Z</time></trkpt><trkpt lat="37.775209973908126" lon="14.826626974280352"><ele>737.0</ele><time>2026-04-06T10:22:59.999Z</time></trkpt><trkpt lat="37.775382294000096" lon="14.826689717079413"><ele>736.0</ele><time>2026-04-06T10:23:00.999Z</time></trkpt><trkpt lat="37.77555581651736" lon="14.826760060513955"><ele>735.0</ele><time>2026-04-06T10:23:01.999Z</time></trkpt><trkpt lat="37.775720289532856" lon="14.826831534736359"><ele>734.0</ele><time>2026-04-06T10:23:02.999Z</time></trkpt><trkpt lat="37.77586785568501" lon="14.82688894904853"><ele>736.5</ele><time>2026-04-06T10:23:03.999Z</time></trkpt><trkpt lat="37.77600603514041" lon="14.826922444439221"><ele>739.0</ele><time>2026-04-06T10:23:04.999Z</time></trkpt><trkpt lat="37.77613558606154" lon="14.826930203259252"><ele>741.5</ele><time>2026-04-06T10:23:05.999Z</time></trkpt><trkpt lat="37.77626037629872" lon="14.826875354860773"><ele>744.0</ele><time>2026-04-06T10:23:06.999Z</time></trkpt><trkpt lat="37.77637318329723" lon="14.826767326255904"><ele>744.0</ele><time>2026-04-06T10:23:07.999Z</time></trkpt><trkpt lat="37.776465688349475" lon="14.826611239924778"><ele>744.0</ele><time>2026-04-06T10:23:08.999Z</time></trkpt><trkpt lat="37.77654152019094" lon="14.826427040146516"><ele>744.0</ele><time>2026-04-06T10:23:09.999Z</time></trkpt><trkpt lat="37.77660383290141" lon="14.826225097684882"><ele>744.0</ele><time>2026-04-06T10:23:10.999Z</time></trkpt><trkpt lat="37.776668875189266" lon="14.826023003364018"><ele>744.0</ele><time>2026-04-06T10:23:11.999Z</time></trkpt><trkpt lat="37.77674055077133" lon="14.825828171562584"><ele>744.0</ele><time>2026-04-06T10:23:12.999Z</time></trkpt><trkpt lat="37.77680841098354" lon="14.825625241593531"><ele>744.3333333333334</ele><time>2026-04-06T10:23:13.999Z</time></trkpt><trkpt lat="37.77686637482758" lon="14.825425178062856"><ele>744.6666666666667</ele><time>2026-04-06T10:23:14.999Z</time></trkpt><trkpt lat="37.77691354491859" lon="14.825241144677232"><ele>745.0</ele><time>2026-04-06T10:23:15.999Z</time></trkpt><trkpt lat="37.77698020621121" lon="14.825093081607744"><ele>745.0</ele><time>2026-04-06T10:23:16.999Z</time></trkpt><trkpt lat="37.77707706070397" lon="14.824987049761184"><ele>745.0</ele><time>2026-04-06T10:23:17.999Z</time></trkpt><trkpt lat="37.77719791108411" lon="14.824908017298922"><ele>745.0</ele><time>2026-04-06T10:23:18.999Z</time></trkpt><trkpt lat="37.7773487031552" lon="14.824875313880266"><ele>745.0</ele><time>2026-04-06T10:23:19.999Z</time></trkpt><trkpt lat="37.77749754056365" lon="14.824863533457107"><ele>745.0</ele><time>2026-04-06T10:23:20.999Z</time></trkpt><trkpt lat="37.77765937429172" lon="14.824854489092662"><ele>745.0</ele><time>2026-04-06T10:23:21.999Z</time></trkpt><trkpt lat="37.77782853489308" lon="14.824828316142575"><ele>745.0</ele><time>2026-04-06T10:23:22.999Z</time></trkpt><trkpt lat="37.77800298042513" lon="14.824825074433244"><ele>746.6666666666667</ele><time>2026-04-06T10:23:23.999Z</time></trkpt><trkpt lat="37.77818338423468" lon="14.824825668945282"><ele>748.3333333333334</ele><time>2026-04-06T10:23:24.999Z</time></trkpt><trkpt lat="37.77837610955057" lon="14.824783275417854"><ele>750.0</ele><time>2026-04-06T10:23:25.999Z</time></trkpt><trkpt lat="37.77856491816307" lon="14.824733215315295"><ele>752.3333333333334</ele><time>2026-04-06T10:23:26.999Z</time></trkpt><trkpt lat="37.77875760723832" lon="14.824681758397642"><ele>754.6666666666667</ele><time>2026-04-06T10:23:27.999Z</time></trkpt><trkpt lat="37.77892488298703" lon="14.824614493326473"><ele>757.0</ele><time>2026-04-06T10:23:28.999Z</time></trkpt><trkpt lat="37.779113067115084" lon="14.824586846075047"><ele>757.0</ele><time>2026-04-06T10:23:29.999Z</time></trkpt><trkpt lat="37.77928413062669" lon="14.824548103636781"><ele>757.0</ele><time>2026-04-06T10:23:30.999Z</time></trkpt><trkpt lat="37.77944787439149" lon="14.824520186874622"><ele>757.0</ele><time>2026-04-06T10:23:31.999Z</time></trkpt><trkpt lat="37.77961009469973" lon="14.824461939955356"><ele>756.75</ele><time>2026-04-06T10:23:32.999Z</time></trkpt><trkpt lat="37.77975085275964" lon="14.824364365530611"><ele>756.5</ele><time>2026-04-06T10:23:33.999Z</time></trkpt><trkpt lat="37.779877784671285" lon="14.82427655198149"><ele>756.25</ele><time>2026-04-06T10:23:34.998Z</time></trkpt><trkpt lat="37.77998685402957" lon="14.824196979827866"><ele>756.0</ele><time>2026-04-06T10:23:35.998Z</time></trkpt><trkpt lat="37.78011197699723" lon="14.824155474924618"><ele>758.0</ele><time>2026-04-06T10:23:36.998Z</time></trkpt><trkpt lat="37.78023358531393" lon="14.824165522667377"><ele>760.0</ele><time>2026-04-06T10:23:37.998Z</time></trkpt><trkpt lat="37.78034813705446" lon="14.82424131323494"><ele>762.0</ele><time>2026-04-06T10:23:38.998Z</time></trkpt><trkpt lat="37.780439868811705" lon="14.824359608595309"><ele>764.0</ele><time>2026-04-06T10:23:39.998Z</time></trkpt><trkpt lat="37.780508355795796" lon="14.82451440711364"><ele>764.0</ele><time>2026-04-06T10:23:40.998Z</time></trkpt><trkpt lat="37.780597056228075" lon="14.824661187878306"><ele>764.0</ele><time>2026-04-06T10:23:42Z</time></trkpt><trkpt lat="37.78067355500793" lon="14.824814555296292"><ele>764.0</ele><time>2026-04-06T10:23:43Z</time></trkpt><trkpt lat="37.78075185036596" lon="14.824970790071111"><ele>764.0</ele><time>2026-04-06T10:23:44Z</time></trkpt><trkpt lat="37.780829953526734" lon="14.825136064864674"><ele>766.0</ele><time>2026-04-06T10:23:45Z</time></trkpt><trkpt lat="37.780902999148076" lon="14.825293907054128"><ele>768.0</ele><time>2026-04-06T10:23:46Z</time></trkpt><trkpt lat="37.78097412901465" lon="14.825446989000728"><ele>770.0</ele><time>2026-04-06T10:23:47Z</time></trkpt><trkpt lat="37.781063016937836" lon="14.82557046137043"><ele>772.0</ele><time>2026-04-06T10:23:48Z</time></trkpt><trkpt lat="37.78116529462335" lon="14.825655542276788"><ele>772.0</ele><time>2026-04-06T10:23:49Z</time></trkpt><trkpt lat="37.78127995305604" lon="14.825695758313254"><ele>772.0</ele><time>2026-04-06T10:23:50Z</time></trkpt><trkpt lat="37.78139885965328" lon="14.825694632562273"><ele>772.0</ele><time>2026-04-06T10:23:51Z</time></trkpt><trkpt lat="37.78151574824673" lon="14.825681259853326"><ele>772.0</ele><time>2026-04-06T10:23:52Z</time></trkpt><trkpt lat="37.78162995457867" lon="14.825642226827354"><ele>772.0</ele><time>2026-04-06T10:23:53Z</time></trkpt><trkpt lat="37.78173463686456" lon="14.825620892865324"><ele>772.0</ele><time>2026-04-06T10:23:54Z</time></trkpt><trkpt lat="37.78182414925391" lon="14.825586244180654"><ele>772.0</ele><time>2026-04-06T10:23:55Z</time></trkpt><trkpt lat="37.78194787428839" lon="14.825602312840111"><ele>772.0</ele><time>2026-04-06T10:23:56Z</time></trkpt><trkpt lat="37.78206641695879" lon="14.825553840294349"><ele>772.0</ele><time>2026-04-06T10:23:57Z</time></trkpt><trkpt lat="37.78218973870888" lon="14.825518411656935"><ele>772.0</ele><time>2026-04-06T10:23:58Z</time></trkpt><trkpt lat="37.78231575031391" lon="14.825524329059862"><ele>772.0</ele><time>2026-04-06T10:23:59Z</time></trkpt><trkpt lat="37.78243912948761" lon="14.825560560261632"><ele>772.0</ele><time>2026-04-06T10:24:00Z</time></trkpt></trkseg></trk></gpx>